<?xml version="1.0" encoding="UTF-8" standalone="no" ?>
<gpx xmlns="http://www.topografix.com/GPX/1/1" xmlns:xsi="http://www.w3.org/2001/XMLSchema-instance" xsi:schemaLocation="http://www.topografix.com/GPX/1/1 http://www.topografix.com/GPX/1/1/gpx.xsd" version="1.1" creator="VisuGPX - https://www.visugpx.com">
  <metadata>
    <name>PAMPELONNE 81 </name>
  </metadata>
  <trk>
    <name><![CDATA[PAMPELONNE 81 _1]]></name>
    <trkseg>
      <trkpt lat="44.12266" lon="2.2443">
        <ele>470</ele>
        <time>2022-09-11T06:37:25.000Z</time>
      </trkpt>
      <trkpt lat="44.12266" lon="2.24427">
        <ele>466</ele>
        <time>2022-09-11T06:37:30.393Z</time>
      </trkpt>
      <trkpt lat="44.12267" lon="2.24427">
        <ele>466</ele>
        <time>2022-09-11T06:37:31.393Z</time>
      </trkpt>
      <trkpt lat="44.12269" lon="2.2443">
        <ele>448</ele>
        <time>2022-09-11T06:39:40.399Z</time>
      </trkpt>
      <trkpt lat="44.12269" lon="2.2443">
        <ele>448</ele>
        <time>2022-09-11T06:39:41.399Z</time>
      </trkpt>
      <trkpt lat="44.12269" lon="2.2443">
        <ele>448</ele>
        <time>2022-09-11T06:39:42.399Z</time>
      </trkpt>
      <trkpt lat="44.12269" lon="2.2443">
        <ele>448</ele>
        <time>2022-09-11T06:39:43.399Z</time>
      </trkpt>
      <trkpt lat="44.12269" lon="2.2443">
        <ele>448</ele>
        <time>2022-09-11T06:39:44.399Z</time>
      </trkpt>
      <trkpt lat="44.12276" lon="2.24435">
        <ele>429</ele>
        <time>2022-09-11T06:42:47.405Z</time>
      </trkpt>
      <trkpt lat="44.12275" lon="2.24435">
        <ele>429</ele>
        <time>2022-09-11T06:42:48.405Z</time>
      </trkpt>
      <trkpt lat="44.12275" lon="2.24436">
        <ele>429</ele>
        <time>2022-09-11T06:42:49.405Z</time>
      </trkpt>
      <trkpt lat="44.12275" lon="2.24436">
        <ele>429</ele>
        <time>2022-09-11T06:42:50.405Z</time>
      </trkpt>
      <trkpt lat="44.12275" lon="2.24436">
        <ele>429</ele>
        <time>2022-09-11T06:42:51.405Z</time>
      </trkpt>
      <trkpt lat="44.12274" lon="2.24435">
        <ele>429</ele>
        <time>2022-09-11T06:42:52.405Z</time>
      </trkpt>
      <trkpt lat="44.12276" lon="2.24436">
        <ele>430</ele>
        <time>2022-09-11T06:43:08.414Z</time>
      </trkpt>
      <trkpt lat="44.12276" lon="2.24435">
        <ele>431</ele>
        <time>2022-09-11T06:43:09.414Z</time>
      </trkpt>
      <trkpt lat="44.12278" lon="2.24434">
        <ele>430</ele>
        <time>2022-09-11T06:43:25.405Z</time>
      </trkpt>
      <trkpt lat="44.12278" lon="2.24434">
        <ele>430</ele>
        <time>2022-09-11T06:43:26.405Z</time>
      </trkpt>
      <trkpt lat="44.12279" lon="2.24434">
        <ele>430</ele>
        <time>2022-09-11T06:43:27.405Z</time>
      </trkpt>
      <trkpt lat="44.12279" lon="2.24435">
        <ele>430</ele>
        <time>2022-09-11T06:43:28.405Z</time>
      </trkpt>
      <trkpt lat="44.1228" lon="2.24435">
        <ele>430</ele>
        <time>2022-09-11T06:43:29.405Z</time>
      </trkpt>
      <trkpt lat="44.12281" lon="2.24436">
        <ele>430</ele>
        <time>2022-09-11T06:43:30.405Z</time>
      </trkpt>
      <trkpt lat="44.12281" lon="2.24436">
        <ele>430</ele>
        <time>2022-09-11T06:43:31.405Z</time>
      </trkpt>
      <trkpt lat="44.12282" lon="2.24436">
        <ele>430</ele>
        <time>2022-09-11T06:43:32.405Z</time>
      </trkpt>
      <trkpt lat="44.12282" lon="2.24437">
        <ele>430</ele>
        <time>2022-09-11T06:43:33.405Z</time>
      </trkpt>
      <trkpt lat="44.12283" lon="2.24437">
        <ele>430</ele>
        <time>2022-09-11T06:43:34.405Z</time>
      </trkpt>
      <trkpt lat="44.12284" lon="2.24438">
        <ele>429</ele>
        <time>2022-09-11T06:43:35.405Z</time>
      </trkpt>
      <trkpt lat="44.12284" lon="2.24438">
        <ele>429</ele>
        <time>2022-09-11T06:43:36.405Z</time>
      </trkpt>
      <trkpt lat="44.12284" lon="2.24438">
        <ele>429</ele>
        <time>2022-09-11T06:43:37.405Z</time>
      </trkpt>
      <trkpt lat="44.12285" lon="2.24438">
        <ele>429</ele>
        <time>2022-09-11T06:43:38.405Z</time>
      </trkpt>
      <trkpt lat="44.12286" lon="2.24438">
        <ele>429</ele>
        <time>2022-09-11T06:43:41.686Z</time>
      </trkpt>
      <trkpt lat="44.12287" lon="2.24438">
        <ele>429</ele>
        <time>2022-09-11T06:43:42.686Z</time>
      </trkpt>
      <trkpt lat="44.12288" lon="2.24438">
        <ele>429</ele>
        <time>2022-09-11T06:43:43.686Z</time>
      </trkpt>
      <trkpt lat="44.12289" lon="2.24438">
        <ele>429</ele>
        <time>2022-09-11T06:43:44.686Z</time>
      </trkpt>
      <trkpt lat="44.12289" lon="2.24439">
        <ele>429</ele>
        <time>2022-09-11T06:43:45.686Z</time>
      </trkpt>
      <trkpt lat="44.1229" lon="2.24439">
        <ele>429</ele>
        <time>2022-09-11T06:43:46.686Z</time>
      </trkpt>
      <trkpt lat="44.12291" lon="2.24439">
        <ele>429</ele>
        <time>2022-09-11T06:43:47.686Z</time>
      </trkpt>
      <trkpt lat="44.12292" lon="2.24439">
        <ele>429</ele>
        <time>2022-09-11T06:43:48.686Z</time>
      </trkpt>
      <trkpt lat="44.12293" lon="2.24439">
        <ele>429</ele>
        <time>2022-09-11T06:43:49.686Z</time>
      </trkpt>
      <trkpt lat="44.12294" lon="2.24439">
        <ele>429</ele>
        <time>2022-09-11T06:43:50.686Z</time>
      </trkpt>
      <trkpt lat="44.12295" lon="2.2444">
        <ele>429</ele>
        <time>2022-09-11T06:43:51.686Z</time>
      </trkpt>
      <trkpt lat="44.12296" lon="2.2444">
        <ele>429</ele>
        <time>2022-09-11T06:43:52.686Z</time>
      </trkpt>
      <trkpt lat="44.12296" lon="2.2444">
        <ele>429</ele>
        <time>2022-09-11T06:43:53.686Z</time>
      </trkpt>
      <trkpt lat="44.12297" lon="2.2444">
        <ele>429</ele>
        <time>2022-09-11T06:43:54.686Z</time>
      </trkpt>
      <trkpt lat="44.12298" lon="2.2444">
        <ele>429</ele>
        <time>2022-09-11T06:43:55.686Z</time>
      </trkpt>
      <trkpt lat="44.12298" lon="2.24441">
        <ele>429</ele>
        <time>2022-09-11T06:43:56.686Z</time>
      </trkpt>
      <trkpt lat="44.12299" lon="2.24441">
        <ele>429</ele>
        <time>2022-09-11T06:43:57.686Z</time>
      </trkpt>
      <trkpt lat="44.123" lon="2.24442">
        <ele>429</ele>
        <time>2022-09-11T06:43:58.686Z</time>
      </trkpt>
      <trkpt lat="44.12301" lon="2.24442">
        <ele>429</ele>
        <time>2022-09-11T06:43:59.686Z</time>
      </trkpt>
      <trkpt lat="44.12302" lon="2.24443">
        <ele>429</ele>
        <time>2022-09-11T06:44:00.686Z</time>
      </trkpt>
      <trkpt lat="44.12302" lon="2.24444">
        <ele>428</ele>
        <time>2022-09-11T06:44:01.686Z</time>
      </trkpt>
      <trkpt lat="44.12303" lon="2.24446">
        <ele>428</ele>
        <time>2022-09-11T06:44:02.686Z</time>
      </trkpt>
      <trkpt lat="44.12304" lon="2.24447">
        <ele>428</ele>
        <time>2022-09-11T06:44:03.686Z</time>
      </trkpt>
      <trkpt lat="44.12304" lon="2.24449">
        <ele>428</ele>
        <time>2022-09-11T06:44:04.686Z</time>
      </trkpt>
      <trkpt lat="44.12305" lon="2.2445">
        <ele>428</ele>
        <time>2022-09-11T06:44:05.686Z</time>
      </trkpt>
      <trkpt lat="44.12306" lon="2.24452">
        <ele>428</ele>
        <time>2022-09-11T06:44:06.686Z</time>
      </trkpt>
      <trkpt lat="44.12306" lon="2.24454">
        <ele>428</ele>
        <time>2022-09-11T06:44:07.686Z</time>
      </trkpt>
      <trkpt lat="44.12307" lon="2.24455">
        <ele>427</ele>
        <time>2022-09-11T06:44:08.686Z</time>
      </trkpt>
      <trkpt lat="44.12307" lon="2.24457">
        <ele>427</ele>
        <time>2022-09-11T06:44:09.686Z</time>
      </trkpt>
      <trkpt lat="44.12307" lon="2.24458">
        <ele>427</ele>
        <time>2022-09-11T06:44:10.686Z</time>
      </trkpt>
      <trkpt lat="44.12308" lon="2.2446">
        <ele>427</ele>
        <time>2022-09-11T06:44:11.686Z</time>
      </trkpt>
      <trkpt lat="44.12308" lon="2.24462">
        <ele>427</ele>
        <time>2022-09-11T06:44:12.686Z</time>
      </trkpt>
      <trkpt lat="44.12308" lon="2.24464">
        <ele>427</ele>
        <time>2022-09-11T06:44:13.686Z</time>
      </trkpt>
      <trkpt lat="44.12308" lon="2.24465">
        <ele>427</ele>
        <time>2022-09-11T06:44:14.686Z</time>
      </trkpt>
      <trkpt lat="44.12308" lon="2.24467">
        <ele>427</ele>
        <time>2022-09-11T06:44:15.686Z</time>
      </trkpt>
      <trkpt lat="44.12308" lon="2.24468">
        <ele>427</ele>
        <time>2022-09-11T06:44:16.686Z</time>
      </trkpt>
      <trkpt lat="44.12308" lon="2.2447">
        <ele>427</ele>
        <time>2022-09-11T06:44:17.686Z</time>
      </trkpt>
      <trkpt lat="44.12308" lon="2.24471">
        <ele>427</ele>
        <time>2022-09-11T06:44:18.686Z</time>
      </trkpt>
      <trkpt lat="44.12308" lon="2.24473">
        <ele>427</ele>
        <time>2022-09-11T06:44:19.686Z</time>
      </trkpt>
      <trkpt lat="44.12309" lon="2.24475">
        <ele>427</ele>
        <time>2022-09-11T06:44:20.686Z</time>
      </trkpt>
      <trkpt lat="44.12309" lon="2.24476">
        <ele>427</ele>
        <time>2022-09-11T06:44:21.686Z</time>
      </trkpt>
      <trkpt lat="44.12309" lon="2.24478">
        <ele>427</ele>
        <time>2022-09-11T06:44:22.686Z</time>
      </trkpt>
      <trkpt lat="44.1231" lon="2.24479">
        <ele>427</ele>
        <time>2022-09-11T06:44:23.686Z</time>
      </trkpt>
      <trkpt lat="44.1231" lon="2.24481">
        <ele>427</ele>
        <time>2022-09-11T06:44:24.686Z</time>
      </trkpt>
      <trkpt lat="44.1231" lon="2.24482">
        <ele>427</ele>
        <time>2022-09-11T06:44:25.686Z</time>
      </trkpt>
      <trkpt lat="44.1231" lon="2.24484">
        <ele>427</ele>
        <time>2022-09-11T06:44:26.686Z</time>
      </trkpt>
      <trkpt lat="44.12311" lon="2.24486">
        <ele>427</ele>
        <time>2022-09-11T06:44:27.686Z</time>
      </trkpt>
      <trkpt lat="44.12311" lon="2.24487">
        <ele>427</ele>
        <time>2022-09-11T06:44:28.686Z</time>
      </trkpt>
      <trkpt lat="44.12311" lon="2.24489">
        <ele>427</ele>
        <time>2022-09-11T06:44:29.686Z</time>
      </trkpt>
      <trkpt lat="44.12312" lon="2.2449">
        <ele>427</ele>
        <time>2022-09-11T06:44:30.686Z</time>
      </trkpt>
      <trkpt lat="44.12312" lon="2.24492">
        <ele>427</ele>
        <time>2022-09-11T06:44:31.686Z</time>
      </trkpt>
      <trkpt lat="44.12312" lon="2.24493">
        <ele>427</ele>
        <time>2022-09-11T06:44:32.686Z</time>
      </trkpt>
      <trkpt lat="44.12312" lon="2.24495">
        <ele>427</ele>
        <time>2022-09-11T06:44:33.686Z</time>
      </trkpt>
      <trkpt lat="44.12313" lon="2.24496">
        <ele>427</ele>
        <time>2022-09-11T06:44:34.686Z</time>
      </trkpt>
      <trkpt lat="44.12313" lon="2.24498">
        <ele>427</ele>
        <time>2022-09-11T06:44:35.686Z</time>
      </trkpt>
      <trkpt lat="44.12313" lon="2.245">
        <ele>427</ele>
        <time>2022-09-11T06:44:36.686Z</time>
      </trkpt>
      <trkpt lat="44.12313" lon="2.24501">
        <ele>427</ele>
        <time>2022-09-11T06:44:37.686Z</time>
      </trkpt>
      <trkpt lat="44.12314" lon="2.24503">
        <ele>427</ele>
        <time>2022-09-11T06:44:38.686Z</time>
      </trkpt>
      <trkpt lat="44.12314" lon="2.24505">
        <ele>427</ele>
        <time>2022-09-11T06:44:39.686Z</time>
      </trkpt>
      <trkpt lat="44.12314" lon="2.24506">
        <ele>427</ele>
        <time>2022-09-11T06:44:40.686Z</time>
      </trkpt>
      <trkpt lat="44.12314" lon="2.24508">
        <ele>427</ele>
        <time>2022-09-11T06:44:41.686Z</time>
      </trkpt>
      <trkpt lat="44.12314" lon="2.2451">
        <ele>427</ele>
        <time>2022-09-11T06:44:42.686Z</time>
      </trkpt>
      <trkpt lat="44.12314" lon="2.24511">
        <ele>427</ele>
        <time>2022-09-11T06:44:43.686Z</time>
      </trkpt>
      <trkpt lat="44.12314" lon="2.24513">
        <ele>427</ele>
        <time>2022-09-11T06:44:44.686Z</time>
      </trkpt>
      <trkpt lat="44.12314" lon="2.24514">
        <ele>427</ele>
        <time>2022-09-11T06:44:45.686Z</time>
      </trkpt>
      <trkpt lat="44.12314" lon="2.24516">
        <ele>427</ele>
        <time>2022-09-11T06:44:46.686Z</time>
      </trkpt>
      <trkpt lat="44.12314" lon="2.24518">
        <ele>427</ele>
        <time>2022-09-11T06:44:47.686Z</time>
      </trkpt>
      <trkpt lat="44.12314" lon="2.2452">
        <ele>427</ele>
        <time>2022-09-11T06:44:48.686Z</time>
      </trkpt>
      <trkpt lat="44.12314" lon="2.24521">
        <ele>427</ele>
        <time>2022-09-11T06:44:49.686Z</time>
      </trkpt>
      <trkpt lat="44.12315" lon="2.24523">
        <ele>427</ele>
        <time>2022-09-11T06:44:50.686Z</time>
      </trkpt>
      <trkpt lat="44.12315" lon="2.24525">
        <ele>427</ele>
        <time>2022-09-11T06:44:51.686Z</time>
      </trkpt>
      <trkpt lat="44.12315" lon="2.24526">
        <ele>427</ele>
        <time>2022-09-11T06:44:52.686Z</time>
      </trkpt>
      <trkpt lat="44.12315" lon="2.24528">
        <ele>427</ele>
        <time>2022-09-11T06:44:53.686Z</time>
      </trkpt>
      <trkpt lat="44.12315" lon="2.24529">
        <ele>426</ele>
        <time>2022-09-11T06:44:54.686Z</time>
      </trkpt>
      <trkpt lat="44.12315" lon="2.24531">
        <ele>426</ele>
        <time>2022-09-11T06:44:55.686Z</time>
      </trkpt>
      <trkpt lat="44.12316" lon="2.24533">
        <ele>426</ele>
        <time>2022-09-11T06:44:56.686Z</time>
      </trkpt>
      <trkpt lat="44.12316" lon="2.24534">
        <ele>426</ele>
        <time>2022-09-11T06:44:57.686Z</time>
      </trkpt>
      <trkpt lat="44.12316" lon="2.24536">
        <ele>426</ele>
        <time>2022-09-11T06:44:58.686Z</time>
      </trkpt>
      <trkpt lat="44.12317" lon="2.24537">
        <ele>426</ele>
        <time>2022-09-11T06:44:59.686Z</time>
      </trkpt>
      <trkpt lat="44.12317" lon="2.24539">
        <ele>426</ele>
        <time>2022-09-11T06:45:00.686Z</time>
      </trkpt>
      <trkpt lat="44.12317" lon="2.2454">
        <ele>426</ele>
        <time>2022-09-11T06:45:01.686Z</time>
      </trkpt>
      <trkpt lat="44.12317" lon="2.24542">
        <ele>426</ele>
        <time>2022-09-11T06:45:02.686Z</time>
      </trkpt>
      <trkpt lat="44.12318" lon="2.24543">
        <ele>426</ele>
        <time>2022-09-11T06:45:03.686Z</time>
      </trkpt>
      <trkpt lat="44.12318" lon="2.24545">
        <ele>426</ele>
        <time>2022-09-11T06:45:04.686Z</time>
      </trkpt>
      <trkpt lat="44.12318" lon="2.24546">
        <ele>426</ele>
        <time>2022-09-11T06:45:05.686Z</time>
      </trkpt>
      <trkpt lat="44.12319" lon="2.24548">
        <ele>426</ele>
        <time>2022-09-11T06:45:06.686Z</time>
      </trkpt>
      <trkpt lat="44.12319" lon="2.2455">
        <ele>426</ele>
        <time>2022-09-11T06:45:07.686Z</time>
      </trkpt>
      <trkpt lat="44.12319" lon="2.24551">
        <ele>426</ele>
        <time>2022-09-11T06:45:08.686Z</time>
      </trkpt>
      <trkpt lat="44.12319" lon="2.24553">
        <ele>426</ele>
        <time>2022-09-11T06:45:09.686Z</time>
      </trkpt>
      <trkpt lat="44.12319" lon="2.24555">
        <ele>426</ele>
        <time>2022-09-11T06:45:10.686Z</time>
      </trkpt>
      <trkpt lat="44.12319" lon="2.24556">
        <ele>426</ele>
        <time>2022-09-11T06:45:11.686Z</time>
      </trkpt>
      <trkpt lat="44.12319" lon="2.24558">
        <ele>426</ele>
        <time>2022-09-11T06:45:12.686Z</time>
      </trkpt>
      <trkpt lat="44.12319" lon="2.2456">
        <ele>426</ele>
        <time>2022-09-11T06:45:13.686Z</time>
      </trkpt>
      <trkpt lat="44.12319" lon="2.24561">
        <ele>426</ele>
        <time>2022-09-11T06:45:14.686Z</time>
      </trkpt>
      <trkpt lat="44.12319" lon="2.24562">
        <ele>426</ele>
        <time>2022-09-11T06:45:15.686Z</time>
      </trkpt>
      <trkpt lat="44.12319" lon="2.24564">
        <ele>426</ele>
        <time>2022-09-11T06:45:16.686Z</time>
      </trkpt>
      <trkpt lat="44.12319" lon="2.24565">
        <ele>426</ele>
        <time>2022-09-11T06:45:17.686Z</time>
      </trkpt>
      <trkpt lat="44.12319" lon="2.24567">
        <ele>426</ele>
        <time>2022-09-11T06:45:18.686Z</time>
      </trkpt>
      <trkpt lat="44.12319" lon="2.24568">
        <ele>426</ele>
        <time>2022-09-11T06:45:19.686Z</time>
      </trkpt>
      <trkpt lat="44.12319" lon="2.24569">
        <ele>426</ele>
        <time>2022-09-11T06:45:20.686Z</time>
      </trkpt>
      <trkpt lat="44.12319" lon="2.24571">
        <ele>426</ele>
        <time>2022-09-11T06:45:21.686Z</time>
      </trkpt>
      <trkpt lat="44.1232" lon="2.24572">
        <ele>426</ele>
        <time>2022-09-11T06:45:22.686Z</time>
      </trkpt>
      <trkpt lat="44.1232" lon="2.24573">
        <ele>426</ele>
        <time>2022-09-11T06:45:23.686Z</time>
      </trkpt>
      <trkpt lat="44.12321" lon="2.24574">
        <ele>426</ele>
        <time>2022-09-11T06:45:24.686Z</time>
      </trkpt>
      <trkpt lat="44.12321" lon="2.24575">
        <ele>426</ele>
        <time>2022-09-11T06:45:25.686Z</time>
      </trkpt>
      <trkpt lat="44.12321" lon="2.24576">
        <ele>426</ele>
        <time>2022-09-11T06:45:26.686Z</time>
      </trkpt>
      <trkpt lat="44.12321" lon="2.24578">
        <ele>426</ele>
        <time>2022-09-11T06:45:27.686Z</time>
      </trkpt>
      <trkpt lat="44.12321" lon="2.24579">
        <ele>426</ele>
        <time>2022-09-11T06:45:28.686Z</time>
      </trkpt>
      <trkpt lat="44.12321" lon="2.24581">
        <ele>426</ele>
        <time>2022-09-11T06:45:29.686Z</time>
      </trkpt>
      <trkpt lat="44.12321" lon="2.24583">
        <ele>426</ele>
        <time>2022-09-11T06:45:30.686Z</time>
      </trkpt>
      <trkpt lat="44.12322" lon="2.24584">
        <ele>426</ele>
        <time>2022-09-11T06:45:31.686Z</time>
      </trkpt>
      <trkpt lat="44.12322" lon="2.24585">
        <ele>426</ele>
        <time>2022-09-11T06:45:32.686Z</time>
      </trkpt>
      <trkpt lat="44.12322" lon="2.24587">
        <ele>426</ele>
        <time>2022-09-11T06:45:33.686Z</time>
      </trkpt>
      <trkpt lat="44.12323" lon="2.24589">
        <ele>426</ele>
        <time>2022-09-11T06:45:34.686Z</time>
      </trkpt>
      <trkpt lat="44.12323" lon="2.2459">
        <ele>426</ele>
        <time>2022-09-11T06:45:35.686Z</time>
      </trkpt>
      <trkpt lat="44.12324" lon="2.24592">
        <ele>426</ele>
        <time>2022-09-11T06:45:36.686Z</time>
      </trkpt>
      <trkpt lat="44.12324" lon="2.24594">
        <ele>426</ele>
        <time>2022-09-11T06:45:37.686Z</time>
      </trkpt>
      <trkpt lat="44.12324" lon="2.24595">
        <ele>426</ele>
        <time>2022-09-11T06:45:38.686Z</time>
      </trkpt>
      <trkpt lat="44.12324" lon="2.24597">
        <ele>426</ele>
        <time>2022-09-11T06:45:39.686Z</time>
      </trkpt>
      <trkpt lat="44.12324" lon="2.24598">
        <ele>426</ele>
        <time>2022-09-11T06:45:40.686Z</time>
      </trkpt>
      <trkpt lat="44.12325" lon="2.246">
        <ele>426</ele>
        <time>2022-09-11T06:45:41.686Z</time>
      </trkpt>
      <trkpt lat="44.12325" lon="2.24601">
        <ele>426</ele>
        <time>2022-09-11T06:45:42.686Z</time>
      </trkpt>
      <trkpt lat="44.12325" lon="2.24603">
        <ele>426</ele>
        <time>2022-09-11T06:45:43.686Z</time>
      </trkpt>
      <trkpt lat="44.12326" lon="2.24604">
        <ele>426</ele>
        <time>2022-09-11T06:45:44.686Z</time>
      </trkpt>
      <trkpt lat="44.12326" lon="2.24606">
        <ele>426</ele>
        <time>2022-09-11T06:45:45.686Z</time>
      </trkpt>
      <trkpt lat="44.12327" lon="2.24607">
        <ele>426</ele>
        <time>2022-09-11T06:45:46.686Z</time>
      </trkpt>
      <trkpt lat="44.12327" lon="2.24608">
        <ele>426</ele>
        <time>2022-09-11T06:45:47.686Z</time>
      </trkpt>
      <trkpt lat="44.12328" lon="2.2461">
        <ele>426</ele>
        <time>2022-09-11T06:45:48.686Z</time>
      </trkpt>
      <trkpt lat="44.12328" lon="2.24611">
        <ele>426</ele>
        <time>2022-09-11T06:45:49.686Z</time>
      </trkpt>
      <trkpt lat="44.12329" lon="2.24613">
        <ele>426</ele>
        <time>2022-09-11T06:45:50.686Z</time>
      </trkpt>
      <trkpt lat="44.12329" lon="2.24614">
        <ele>426</ele>
        <time>2022-09-11T06:45:51.686Z</time>
      </trkpt>
      <trkpt lat="44.1233" lon="2.24616">
        <ele>426</ele>
        <time>2022-09-11T06:45:52.686Z</time>
      </trkpt>
      <trkpt lat="44.12331" lon="2.24617">
        <ele>426</ele>
        <time>2022-09-11T06:45:53.686Z</time>
      </trkpt>
      <trkpt lat="44.12332" lon="2.24619">
        <ele>426</ele>
        <time>2022-09-11T06:45:54.686Z</time>
      </trkpt>
      <trkpt lat="44.12332" lon="2.24621">
        <ele>426</ele>
        <time>2022-09-11T06:45:55.686Z</time>
      </trkpt>
      <trkpt lat="44.12333" lon="2.24622">
        <ele>426</ele>
        <time>2022-09-11T06:45:56.686Z</time>
      </trkpt>
      <trkpt lat="44.12333" lon="2.24623">
        <ele>426</ele>
        <time>2022-09-11T06:45:57.686Z</time>
      </trkpt>
      <trkpt lat="44.12334" lon="2.24625">
        <ele>426</ele>
        <time>2022-09-11T06:45:58.686Z</time>
      </trkpt>
      <trkpt lat="44.12335" lon="2.24626">
        <ele>426</ele>
        <time>2022-09-11T06:45:59.686Z</time>
      </trkpt>
      <trkpt lat="44.12336" lon="2.24628">
        <ele>426</ele>
        <time>2022-09-11T06:46:00.686Z</time>
      </trkpt>
      <trkpt lat="44.12336" lon="2.24629">
        <ele>426</ele>
        <time>2022-09-11T06:46:01.686Z</time>
      </trkpt>
      <trkpt lat="44.12337" lon="2.24631">
        <ele>426</ele>
        <time>2022-09-11T06:46:02.686Z</time>
      </trkpt>
      <trkpt lat="44.12338" lon="2.24632">
        <ele>426</ele>
        <time>2022-09-11T06:46:03.686Z</time>
      </trkpt>
      <trkpt lat="44.12338" lon="2.24633">
        <ele>426</ele>
        <time>2022-09-11T06:46:04.686Z</time>
      </trkpt>
      <trkpt lat="44.12339" lon="2.24635">
        <ele>426</ele>
        <time>2022-09-11T06:46:05.686Z</time>
      </trkpt>
      <trkpt lat="44.1234" lon="2.24636">
        <ele>426</ele>
        <time>2022-09-11T06:46:06.686Z</time>
      </trkpt>
      <trkpt lat="44.1234" lon="2.24637">
        <ele>426</ele>
        <time>2022-09-11T06:46:07.686Z</time>
      </trkpt>
      <trkpt lat="44.12341" lon="2.24639">
        <ele>426</ele>
        <time>2022-09-11T06:46:08.686Z</time>
      </trkpt>
      <trkpt lat="44.12342" lon="2.2464">
        <ele>426</ele>
        <time>2022-09-11T06:46:09.686Z</time>
      </trkpt>
      <trkpt lat="44.12342" lon="2.24642">
        <ele>426</ele>
        <time>2022-09-11T06:46:10.686Z</time>
      </trkpt>
      <trkpt lat="44.12343" lon="2.24643">
        <ele>426</ele>
        <time>2022-09-11T06:46:11.686Z</time>
      </trkpt>
      <trkpt lat="44.12343" lon="2.24645">
        <ele>426</ele>
        <time>2022-09-11T06:46:12.686Z</time>
      </trkpt>
      <trkpt lat="44.12344" lon="2.24646">
        <ele>426</ele>
        <time>2022-09-11T06:46:13.686Z</time>
      </trkpt>
      <trkpt lat="44.12345" lon="2.24648">
        <ele>426</ele>
        <time>2022-09-11T06:46:14.686Z</time>
      </trkpt>
      <trkpt lat="44.12345" lon="2.24649">
        <ele>426</ele>
        <time>2022-09-11T06:46:15.686Z</time>
      </trkpt>
      <trkpt lat="44.12346" lon="2.2465">
        <ele>426</ele>
        <time>2022-09-11T06:46:16.686Z</time>
      </trkpt>
      <trkpt lat="44.12347" lon="2.24651">
        <ele>426</ele>
        <time>2022-09-11T06:46:17.686Z</time>
      </trkpt>
      <trkpt lat="44.12348" lon="2.24653">
        <ele>426</ele>
        <time>2022-09-11T06:46:18.686Z</time>
      </trkpt>
      <trkpt lat="44.12348" lon="2.24654">
        <ele>426</ele>
        <time>2022-09-11T06:46:19.686Z</time>
      </trkpt>
      <trkpt lat="44.12349" lon="2.24656">
        <ele>426</ele>
        <time>2022-09-11T06:46:20.686Z</time>
      </trkpt>
      <trkpt lat="44.1235" lon="2.24657">
        <ele>426</ele>
        <time>2022-09-11T06:46:21.686Z</time>
      </trkpt>
      <trkpt lat="44.1235" lon="2.24659">
        <ele>426</ele>
        <time>2022-09-11T06:46:22.686Z</time>
      </trkpt>
      <trkpt lat="44.12351" lon="2.2466">
        <ele>426</ele>
        <time>2022-09-11T06:46:23.686Z</time>
      </trkpt>
      <trkpt lat="44.12352" lon="2.24662">
        <ele>426</ele>
        <time>2022-09-11T06:46:24.686Z</time>
      </trkpt>
      <trkpt lat="44.12353" lon="2.24663">
        <ele>426</ele>
        <time>2022-09-11T06:46:25.686Z</time>
      </trkpt>
      <trkpt lat="44.12354" lon="2.24665">
        <ele>426</ele>
        <time>2022-09-11T06:46:26.686Z</time>
      </trkpt>
      <trkpt lat="44.12354" lon="2.24666">
        <ele>426</ele>
        <time>2022-09-11T06:46:27.686Z</time>
      </trkpt>
      <trkpt lat="44.12355" lon="2.24668">
        <ele>426</ele>
        <time>2022-09-11T06:46:28.686Z</time>
      </trkpt>
      <trkpt lat="44.12356" lon="2.24669">
        <ele>426</ele>
        <time>2022-09-11T06:46:29.686Z</time>
      </trkpt>
      <trkpt lat="44.12356" lon="2.2467">
        <ele>427</ele>
        <time>2022-09-11T06:46:30.686Z</time>
      </trkpt>
      <trkpt lat="44.12357" lon="2.24672">
        <ele>427</ele>
        <time>2022-09-11T06:46:31.686Z</time>
      </trkpt>
      <trkpt lat="44.12358" lon="2.24673">
        <ele>427</ele>
        <time>2022-09-11T06:46:32.686Z</time>
      </trkpt>
      <trkpt lat="44.12359" lon="2.24675">
        <ele>427</ele>
        <time>2022-09-11T06:46:33.686Z</time>
      </trkpt>
      <trkpt lat="44.12359" lon="2.24676">
        <ele>427</ele>
        <time>2022-09-11T06:46:34.686Z</time>
      </trkpt>
      <trkpt lat="44.1236" lon="2.24678">
        <ele>427</ele>
        <time>2022-09-11T06:46:35.686Z</time>
      </trkpt>
      <trkpt lat="44.12361" lon="2.24679">
        <ele>427</ele>
        <time>2022-09-11T06:46:36.686Z</time>
      </trkpt>
      <trkpt lat="44.12361" lon="2.24681">
        <ele>427</ele>
        <time>2022-09-11T06:46:37.686Z</time>
      </trkpt>
      <trkpt lat="44.12362" lon="2.24682">
        <ele>427</ele>
        <time>2022-09-11T06:46:38.686Z</time>
      </trkpt>
      <trkpt lat="44.12363" lon="2.24684">
        <ele>427</ele>
        <time>2022-09-11T06:46:39.686Z</time>
      </trkpt>
      <trkpt lat="44.12363" lon="2.24685">
        <ele>427</ele>
        <time>2022-09-11T06:46:40.686Z</time>
      </trkpt>
      <trkpt lat="44.12364" lon="2.24686">
        <ele>427</ele>
        <time>2022-09-11T06:46:41.686Z</time>
      </trkpt>
      <trkpt lat="44.12364" lon="2.24688">
        <ele>427</ele>
        <time>2022-09-11T06:46:42.686Z</time>
      </trkpt>
      <trkpt lat="44.12365" lon="2.24689">
        <ele>427</ele>
        <time>2022-09-11T06:46:43.686Z</time>
      </trkpt>
      <trkpt lat="44.12366" lon="2.24691">
        <ele>427</ele>
        <time>2022-09-11T06:46:44.686Z</time>
      </trkpt>
      <trkpt lat="44.12366" lon="2.24693">
        <ele>427</ele>
        <time>2022-09-11T06:46:45.686Z</time>
      </trkpt>
      <trkpt lat="44.12367" lon="2.24694">
        <ele>427</ele>
        <time>2022-09-11T06:46:46.686Z</time>
      </trkpt>
      <trkpt lat="44.12368" lon="2.24695">
        <ele>427</ele>
        <time>2022-09-11T06:46:47.686Z</time>
      </trkpt>
      <trkpt lat="44.12368" lon="2.24697">
        <ele>426</ele>
        <time>2022-09-11T06:46:48.686Z</time>
      </trkpt>
      <trkpt lat="44.12369" lon="2.24698">
        <ele>427</ele>
        <time>2022-09-11T06:46:49.686Z</time>
      </trkpt>
      <trkpt lat="44.1237" lon="2.24699">
        <ele>427</ele>
        <time>2022-09-11T06:46:50.686Z</time>
      </trkpt>
      <trkpt lat="44.12371" lon="2.24701">
        <ele>427</ele>
        <time>2022-09-11T06:46:51.686Z</time>
      </trkpt>
      <trkpt lat="44.12372" lon="2.24702">
        <ele>427</ele>
        <time>2022-09-11T06:46:52.686Z</time>
      </trkpt>
      <trkpt lat="44.12373" lon="2.24704">
        <ele>427</ele>
        <time>2022-09-11T06:46:53.686Z</time>
      </trkpt>
      <trkpt lat="44.12373" lon="2.24705">
        <ele>427</ele>
        <time>2022-09-11T06:46:54.686Z</time>
      </trkpt>
      <trkpt lat="44.12374" lon="2.24706">
        <ele>427</ele>
        <time>2022-09-11T06:46:55.686Z</time>
      </trkpt>
      <trkpt lat="44.12375" lon="2.24708">
        <ele>427</ele>
        <time>2022-09-11T06:46:56.686Z</time>
      </trkpt>
      <trkpt lat="44.12376" lon="2.24709">
        <ele>427</ele>
        <time>2022-09-11T06:46:57.686Z</time>
      </trkpt>
      <trkpt lat="44.12377" lon="2.24711">
        <ele>427</ele>
        <time>2022-09-11T06:46:58.686Z</time>
      </trkpt>
      <trkpt lat="44.12378" lon="2.24712">
        <ele>427</ele>
        <time>2022-09-11T06:46:59.686Z</time>
      </trkpt>
      <trkpt lat="44.12378" lon="2.24714">
        <ele>427</ele>
        <time>2022-09-11T06:47:00.686Z</time>
      </trkpt>
      <trkpt lat="44.12379" lon="2.24715">
        <ele>427</ele>
        <time>2022-09-11T06:47:01.686Z</time>
      </trkpt>
      <trkpt lat="44.12379" lon="2.24717">
        <ele>427</ele>
        <time>2022-09-11T06:47:02.686Z</time>
      </trkpt>
      <trkpt lat="44.1238" lon="2.24718">
        <ele>427</ele>
        <time>2022-09-11T06:47:03.686Z</time>
      </trkpt>
      <trkpt lat="44.1238" lon="2.24719">
        <ele>427</ele>
        <time>2022-09-11T06:47:04.686Z</time>
      </trkpt>
      <trkpt lat="44.12381" lon="2.24721">
        <ele>427</ele>
        <time>2022-09-11T06:47:05.686Z</time>
      </trkpt>
      <trkpt lat="44.12382" lon="2.24722">
        <ele>427</ele>
        <time>2022-09-11T06:47:06.686Z</time>
      </trkpt>
      <trkpt lat="44.12382" lon="2.24723">
        <ele>427</ele>
        <time>2022-09-11T06:47:07.686Z</time>
      </trkpt>
      <trkpt lat="44.12383" lon="2.24725">
        <ele>427</ele>
        <time>2022-09-11T06:47:08.686Z</time>
      </trkpt>
      <trkpt lat="44.12384" lon="2.24726">
        <ele>427</ele>
        <time>2022-09-11T06:47:09.686Z</time>
      </trkpt>
      <trkpt lat="44.12384" lon="2.24728">
        <ele>427</ele>
        <time>2022-09-11T06:47:10.686Z</time>
      </trkpt>
      <trkpt lat="44.12385" lon="2.2473">
        <ele>427</ele>
        <time>2022-09-11T06:47:11.686Z</time>
      </trkpt>
      <trkpt lat="44.12386" lon="2.24731">
        <ele>427</ele>
        <time>2022-09-11T06:47:12.686Z</time>
      </trkpt>
      <trkpt lat="44.12387" lon="2.24733">
        <ele>427</ele>
        <time>2022-09-11T06:47:13.686Z</time>
      </trkpt>
      <trkpt lat="44.12388" lon="2.24735">
        <ele>427</ele>
        <time>2022-09-11T06:47:14.686Z</time>
      </trkpt>
      <trkpt lat="44.12389" lon="2.24736">
        <ele>427</ele>
        <time>2022-09-11T06:47:15.686Z</time>
      </trkpt>
      <trkpt lat="44.12389" lon="2.24738">
        <ele>427</ele>
        <time>2022-09-11T06:47:16.686Z</time>
      </trkpt>
      <trkpt lat="44.1239" lon="2.2474">
        <ele>427</ele>
        <time>2022-09-11T06:47:17.686Z</time>
      </trkpt>
      <trkpt lat="44.12391" lon="2.24741">
        <ele>427</ele>
        <time>2022-09-11T06:47:18.686Z</time>
      </trkpt>
      <trkpt lat="44.12392" lon="2.24743">
        <ele>428</ele>
        <time>2022-09-11T06:47:19.686Z</time>
      </trkpt>
      <trkpt lat="44.12392" lon="2.24744">
        <ele>428</ele>
        <time>2022-09-11T06:47:20.686Z</time>
      </trkpt>
      <trkpt lat="44.12393" lon="2.24746">
        <ele>428</ele>
        <time>2022-09-11T06:47:21.686Z</time>
      </trkpt>
      <trkpt lat="44.12394" lon="2.24747">
        <ele>428</ele>
        <time>2022-09-11T06:47:22.686Z</time>
      </trkpt>
      <trkpt lat="44.12394" lon="2.24749">
        <ele>428</ele>
        <time>2022-09-11T06:47:23.686Z</time>
      </trkpt>
      <trkpt lat="44.12395" lon="2.24751">
        <ele>428</ele>
        <time>2022-09-11T06:47:24.686Z</time>
      </trkpt>
      <trkpt lat="44.12396" lon="2.24752">
        <ele>428</ele>
        <time>2022-09-11T06:47:25.686Z</time>
      </trkpt>
      <trkpt lat="44.12397" lon="2.24754">
        <ele>428</ele>
        <time>2022-09-11T06:47:26.686Z</time>
      </trkpt>
      <trkpt lat="44.12398" lon="2.24755">
        <ele>428</ele>
        <time>2022-09-11T06:47:27.686Z</time>
      </trkpt>
      <trkpt lat="44.12398" lon="2.24756">
        <ele>428</ele>
        <time>2022-09-11T06:47:28.686Z</time>
      </trkpt>
      <trkpt lat="44.12399" lon="2.24757">
        <ele>428</ele>
        <time>2022-09-11T06:47:29.686Z</time>
      </trkpt>
      <trkpt lat="44.124" lon="2.24759">
        <ele>428</ele>
        <time>2022-09-11T06:47:30.686Z</time>
      </trkpt>
      <trkpt lat="44.12401" lon="2.2476">
        <ele>428</ele>
        <time>2022-09-11T06:47:31.686Z</time>
      </trkpt>
      <trkpt lat="44.12401" lon="2.24761">
        <ele>428</ele>
        <time>2022-09-11T06:47:32.686Z</time>
      </trkpt>
      <trkpt lat="44.12402" lon="2.24762">
        <ele>428</ele>
        <time>2022-09-11T06:47:33.686Z</time>
      </trkpt>
      <trkpt lat="44.12403" lon="2.24764">
        <ele>428</ele>
        <time>2022-09-11T06:47:34.686Z</time>
      </trkpt>
      <trkpt lat="44.12404" lon="2.24765">
        <ele>428</ele>
        <time>2022-09-11T06:47:35.686Z</time>
      </trkpt>
      <trkpt lat="44.12405" lon="2.24765">
        <ele>428</ele>
        <time>2022-09-11T06:47:36.686Z</time>
      </trkpt>
      <trkpt lat="44.12406" lon="2.24765">
        <ele>428</ele>
        <time>2022-09-11T06:47:37.686Z</time>
      </trkpt>
      <trkpt lat="44.12407" lon="2.24765">
        <ele>428</ele>
        <time>2022-09-11T06:47:38.686Z</time>
      </trkpt>
      <trkpt lat="44.12408" lon="2.24764">
        <ele>428</ele>
        <time>2022-09-11T06:47:39.686Z</time>
      </trkpt>
      <trkpt lat="44.1241" lon="2.24764">
        <ele>428</ele>
        <time>2022-09-11T06:47:40.686Z</time>
      </trkpt>
      <trkpt lat="44.12411" lon="2.24763">
        <ele>428</ele>
        <time>2022-09-11T06:47:41.686Z</time>
      </trkpt>
      <trkpt lat="44.12412" lon="2.24762">
        <ele>428</ele>
        <time>2022-09-11T06:47:42.686Z</time>
      </trkpt>
      <trkpt lat="44.12413" lon="2.24761">
        <ele>428</ele>
        <time>2022-09-11T06:47:43.686Z</time>
      </trkpt>
      <trkpt lat="44.12414" lon="2.2476">
        <ele>428</ele>
        <time>2022-09-11T06:47:44.686Z</time>
      </trkpt>
      <trkpt lat="44.12415" lon="2.24759">
        <ele>428</ele>
        <time>2022-09-11T06:47:45.686Z</time>
      </trkpt>
      <trkpt lat="44.12416" lon="2.24758">
        <ele>428</ele>
        <time>2022-09-11T06:47:46.686Z</time>
      </trkpt>
      <trkpt lat="44.12418" lon="2.24757">
        <ele>428</ele>
        <time>2022-09-11T06:47:47.686Z</time>
      </trkpt>
      <trkpt lat="44.12419" lon="2.24756">
        <ele>428</ele>
        <time>2022-09-11T06:47:48.686Z</time>
      </trkpt>
      <trkpt lat="44.1242" lon="2.24755">
        <ele>428</ele>
        <time>2022-09-11T06:47:49.686Z</time>
      </trkpt>
      <trkpt lat="44.12421" lon="2.24754">
        <ele>428</ele>
        <time>2022-09-11T06:47:50.686Z</time>
      </trkpt>
      <trkpt lat="44.12423" lon="2.24753">
        <ele>427</ele>
        <time>2022-09-11T06:47:51.686Z</time>
      </trkpt>
      <trkpt lat="44.12424" lon="2.24752">
        <ele>427</ele>
        <time>2022-09-11T06:47:52.686Z</time>
      </trkpt>
      <trkpt lat="44.12425" lon="2.24751">
        <ele>427</ele>
        <time>2022-09-11T06:47:53.686Z</time>
      </trkpt>
      <trkpt lat="44.12426" lon="2.2475">
        <ele>427</ele>
        <time>2022-09-11T06:47:54.686Z</time>
      </trkpt>
      <trkpt lat="44.12427" lon="2.24749">
        <ele>427</ele>
        <time>2022-09-11T06:47:55.686Z</time>
      </trkpt>
      <trkpt lat="44.12428" lon="2.24748">
        <ele>427</ele>
        <time>2022-09-11T06:47:56.686Z</time>
      </trkpt>
      <trkpt lat="44.12429" lon="2.24747">
        <ele>427</ele>
        <time>2022-09-11T06:47:57.686Z</time>
      </trkpt>
      <trkpt lat="44.1243" lon="2.24746">
        <ele>427</ele>
        <time>2022-09-11T06:47:58.686Z</time>
      </trkpt>
      <trkpt lat="44.12431" lon="2.24745">
        <ele>427</ele>
        <time>2022-09-11T06:47:59.686Z</time>
      </trkpt>
      <trkpt lat="44.12432" lon="2.24744">
        <ele>427</ele>
        <time>2022-09-11T06:48:00.686Z</time>
      </trkpt>
      <trkpt lat="44.12433" lon="2.24743">
        <ele>427</ele>
        <time>2022-09-11T06:48:01.686Z</time>
      </trkpt>
      <trkpt lat="44.12434" lon="2.24742">
        <ele>427</ele>
        <time>2022-09-11T06:48:02.686Z</time>
      </trkpt>
      <trkpt lat="44.12435" lon="2.24741">
        <ele>427</ele>
        <time>2022-09-11T06:48:03.686Z</time>
      </trkpt>
      <trkpt lat="44.12436" lon="2.2474">
        <ele>427</ele>
        <time>2022-09-11T06:48:04.686Z</time>
      </trkpt>
      <trkpt lat="44.12438" lon="2.24739">
        <ele>427</ele>
        <time>2022-09-11T06:48:05.686Z</time>
      </trkpt>
      <trkpt lat="44.12438" lon="2.24738">
        <ele>427</ele>
        <time>2022-09-11T06:48:06.686Z</time>
      </trkpt>
      <trkpt lat="44.12439" lon="2.24737">
        <ele>427</ele>
        <time>2022-09-11T06:48:07.686Z</time>
      </trkpt>
      <trkpt lat="44.1244" lon="2.24736">
        <ele>427</ele>
        <time>2022-09-11T06:48:08.686Z</time>
      </trkpt>
      <trkpt lat="44.12441" lon="2.24735">
        <ele>427</ele>
        <time>2022-09-11T06:48:09.686Z</time>
      </trkpt>
      <trkpt lat="44.12442" lon="2.24734">
        <ele>427</ele>
        <time>2022-09-11T06:48:10.686Z</time>
      </trkpt>
      <trkpt lat="44.12443" lon="2.24733">
        <ele>427</ele>
        <time>2022-09-11T06:48:11.686Z</time>
      </trkpt>
      <trkpt lat="44.12444" lon="2.24733">
        <ele>427</ele>
        <time>2022-09-11T06:48:12.686Z</time>
      </trkpt>
      <trkpt lat="44.12444" lon="2.24732">
        <ele>427</ele>
        <time>2022-09-11T06:48:13.686Z</time>
      </trkpt>
      <trkpt lat="44.12445" lon="2.24731">
        <ele>427</ele>
        <time>2022-09-11T06:48:14.686Z</time>
      </trkpt>
      <trkpt lat="44.12445" lon="2.24731">
        <ele>427</ele>
        <time>2022-09-11T06:48:15.686Z</time>
      </trkpt>
      <trkpt lat="44.12446" lon="2.24731">
        <ele>427</ele>
        <time>2022-09-11T06:48:16.686Z</time>
      </trkpt>
      <trkpt lat="44.12447" lon="2.24731">
        <ele>427</ele>
        <time>2022-09-11T06:48:17.686Z</time>
      </trkpt>
      <trkpt lat="44.12447" lon="2.24732">
        <ele>427</ele>
        <time>2022-09-11T06:48:18.686Z</time>
      </trkpt>
      <trkpt lat="44.12448" lon="2.24733">
        <ele>427</ele>
        <time>2022-09-11T06:48:19.686Z</time>
      </trkpt>
      <trkpt lat="44.12448" lon="2.24733">
        <ele>427</ele>
        <time>2022-09-11T06:48:20.686Z</time>
      </trkpt>
      <trkpt lat="44.12449" lon="2.24734">
        <ele>427</ele>
        <time>2022-09-11T06:48:21.686Z</time>
      </trkpt>
      <trkpt lat="44.12449" lon="2.24735">
        <ele>427</ele>
        <time>2022-09-11T06:48:22.686Z</time>
      </trkpt>
      <trkpt lat="44.1245" lon="2.24736">
        <ele>427</ele>
        <time>2022-09-11T06:48:23.686Z</time>
      </trkpt>
      <trkpt lat="44.12451" lon="2.24738">
        <ele>427</ele>
        <time>2022-09-11T06:48:24.686Z</time>
      </trkpt>
      <trkpt lat="44.12452" lon="2.24739">
        <ele>427</ele>
        <time>2022-09-11T06:48:25.686Z</time>
      </trkpt>
      <trkpt lat="44.12453" lon="2.2474">
        <ele>427</ele>
        <time>2022-09-11T06:48:26.686Z</time>
      </trkpt>
      <trkpt lat="44.12454" lon="2.24741">
        <ele>428</ele>
        <time>2022-09-11T06:48:27.686Z</time>
      </trkpt>
      <trkpt lat="44.12455" lon="2.24743">
        <ele>428</ele>
        <time>2022-09-11T06:48:28.686Z</time>
      </trkpt>
      <trkpt lat="44.12456" lon="2.24744">
        <ele>428</ele>
        <time>2022-09-11T06:48:29.686Z</time>
      </trkpt>
      <trkpt lat="44.12457" lon="2.24745">
        <ele>428</ele>
        <time>2022-09-11T06:48:30.686Z</time>
      </trkpt>
      <trkpt lat="44.12458" lon="2.24747">
        <ele>428</ele>
        <time>2022-09-11T06:48:31.686Z</time>
      </trkpt>
      <trkpt lat="44.12459" lon="2.24748">
        <ele>428</ele>
        <time>2022-09-11T06:48:32.686Z</time>
      </trkpt>
      <trkpt lat="44.1246" lon="2.24749">
        <ele>428</ele>
        <time>2022-09-11T06:48:33.686Z</time>
      </trkpt>
      <trkpt lat="44.12461" lon="2.2475">
        <ele>428</ele>
        <time>2022-09-11T06:48:34.686Z</time>
      </trkpt>
      <trkpt lat="44.12462" lon="2.24752">
        <ele>428</ele>
        <time>2022-09-11T06:48:35.686Z</time>
      </trkpt>
      <trkpt lat="44.12464" lon="2.24753">
        <ele>428</ele>
        <time>2022-09-11T06:48:36.686Z</time>
      </trkpt>
      <trkpt lat="44.12465" lon="2.24754">
        <ele>428</ele>
        <time>2022-09-11T06:48:37.686Z</time>
      </trkpt>
      <trkpt lat="44.12466" lon="2.24755">
        <ele>428</ele>
        <time>2022-09-11T06:48:38.686Z</time>
      </trkpt>
      <trkpt lat="44.12467" lon="2.24756">
        <ele>428</ele>
        <time>2022-09-11T06:48:39.686Z</time>
      </trkpt>
      <trkpt lat="44.12467" lon="2.24758">
        <ele>428</ele>
        <time>2022-09-11T06:48:40.686Z</time>
      </trkpt>
      <trkpt lat="44.12468" lon="2.24759">
        <ele>428</ele>
        <time>2022-09-11T06:48:41.686Z</time>
      </trkpt>
      <trkpt lat="44.12469" lon="2.2476">
        <ele>428</ele>
        <time>2022-09-11T06:48:42.686Z</time>
      </trkpt>
      <trkpt lat="44.1247" lon="2.2476">
        <ele>428</ele>
        <time>2022-09-11T06:48:43.686Z</time>
      </trkpt>
      <trkpt lat="44.12471" lon="2.24761">
        <ele>428</ele>
        <time>2022-09-11T06:48:44.686Z</time>
      </trkpt>
      <trkpt lat="44.12472" lon="2.24761">
        <ele>429</ele>
        <time>2022-09-11T06:48:45.686Z</time>
      </trkpt>
      <trkpt lat="44.12473" lon="2.24761">
        <ele>429</ele>
        <time>2022-09-11T06:48:46.686Z</time>
      </trkpt>
      <trkpt lat="44.12475" lon="2.24762">
        <ele>429</ele>
        <time>2022-09-11T06:48:47.686Z</time>
      </trkpt>
      <trkpt lat="44.12476" lon="2.24762">
        <ele>429</ele>
        <time>2022-09-11T06:48:48.686Z</time>
      </trkpt>
      <trkpt lat="44.12477" lon="2.24763">
        <ele>429</ele>
        <time>2022-09-11T06:48:49.686Z</time>
      </trkpt>
      <trkpt lat="44.12478" lon="2.24763">
        <ele>429</ele>
        <time>2022-09-11T06:48:50.686Z</time>
      </trkpt>
      <trkpt lat="44.1248" lon="2.24763">
        <ele>429</ele>
        <time>2022-09-11T06:48:51.686Z</time>
      </trkpt>
      <trkpt lat="44.12481" lon="2.24763">
        <ele>429</ele>
        <time>2022-09-11T06:48:52.686Z</time>
      </trkpt>
      <trkpt lat="44.12483" lon="2.24763">
        <ele>429</ele>
        <time>2022-09-11T06:48:53.686Z</time>
      </trkpt>
      <trkpt lat="44.12484" lon="2.24762">
        <ele>429</ele>
        <time>2022-09-11T06:48:54.686Z</time>
      </trkpt>
      <trkpt lat="44.12485" lon="2.24762">
        <ele>429</ele>
        <time>2022-09-11T06:48:55.686Z</time>
      </trkpt>
      <trkpt lat="44.12486" lon="2.24762">
        <ele>429</ele>
        <time>2022-09-11T06:48:56.686Z</time>
      </trkpt>
      <trkpt lat="44.12487" lon="2.24761">
        <ele>429</ele>
        <time>2022-09-11T06:48:57.686Z</time>
      </trkpt>
      <trkpt lat="44.12488" lon="2.24761">
        <ele>429</ele>
        <time>2022-09-11T06:48:58.686Z</time>
      </trkpt>
      <trkpt lat="44.12489" lon="2.2476">
        <ele>429</ele>
        <time>2022-09-11T06:48:59.686Z</time>
      </trkpt>
      <trkpt lat="44.1249" lon="2.24759">
        <ele>429</ele>
        <time>2022-09-11T06:49:00.686Z</time>
      </trkpt>
      <trkpt lat="44.12491" lon="2.24759">
        <ele>429</ele>
        <time>2022-09-11T06:49:01.686Z</time>
      </trkpt>
      <trkpt lat="44.12492" lon="2.24758">
        <ele>429</ele>
        <time>2022-09-11T06:49:02.686Z</time>
      </trkpt>
      <trkpt lat="44.12493" lon="2.24757">
        <ele>429</ele>
        <time>2022-09-11T06:49:03.686Z</time>
      </trkpt>
      <trkpt lat="44.12494" lon="2.24756">
        <ele>429</ele>
        <time>2022-09-11T06:49:04.686Z</time>
      </trkpt>
      <trkpt lat="44.12495" lon="2.24755">
        <ele>429</ele>
        <time>2022-09-11T06:49:05.686Z</time>
      </trkpt>
      <trkpt lat="44.12496" lon="2.24754">
        <ele>429</ele>
        <time>2022-09-11T06:49:06.686Z</time>
      </trkpt>
      <trkpt lat="44.12497" lon="2.24753">
        <ele>429</ele>
        <time>2022-09-11T06:49:07.686Z</time>
      </trkpt>
      <trkpt lat="44.12498" lon="2.24752">
        <ele>429</ele>
        <time>2022-09-11T06:49:08.686Z</time>
      </trkpt>
      <trkpt lat="44.12499" lon="2.24752">
        <ele>429</ele>
        <time>2022-09-11T06:49:09.686Z</time>
      </trkpt>
      <trkpt lat="44.125" lon="2.24751">
        <ele>429</ele>
        <time>2022-09-11T06:49:10.686Z</time>
      </trkpt>
      <trkpt lat="44.12501" lon="2.2475">
        <ele>429</ele>
        <time>2022-09-11T06:49:11.686Z</time>
      </trkpt>
      <trkpt lat="44.12503" lon="2.24749">
        <ele>429</ele>
        <time>2022-09-11T06:49:12.686Z</time>
      </trkpt>
      <trkpt lat="44.12504" lon="2.24748">
        <ele>429</ele>
        <time>2022-09-11T06:49:13.686Z</time>
      </trkpt>
      <trkpt lat="44.12505" lon="2.24746">
        <ele>429</ele>
        <time>2022-09-11T06:49:14.686Z</time>
      </trkpt>
      <trkpt lat="44.12506" lon="2.24745">
        <ele>429</ele>
        <time>2022-09-11T06:49:15.686Z</time>
      </trkpt>
      <trkpt lat="44.12507" lon="2.24744">
        <ele>429</ele>
        <time>2022-09-11T06:49:16.686Z</time>
      </trkpt>
      <trkpt lat="44.12508" lon="2.24742">
        <ele>429</ele>
        <time>2022-09-11T06:49:17.686Z</time>
      </trkpt>
      <trkpt lat="44.12509" lon="2.24741">
        <ele>429</ele>
        <time>2022-09-11T06:49:18.686Z</time>
      </trkpt>
      <trkpt lat="44.1251" lon="2.2474">
        <ele>429</ele>
        <time>2022-09-11T06:49:19.686Z</time>
      </trkpt>
      <trkpt lat="44.12511" lon="2.24739">
        <ele>429</ele>
        <time>2022-09-11T06:49:20.686Z</time>
      </trkpt>
      <trkpt lat="44.12512" lon="2.24738">
        <ele>429</ele>
        <time>2022-09-11T06:49:21.686Z</time>
      </trkpt>
      <trkpt lat="44.12513" lon="2.24736">
        <ele>429</ele>
        <time>2022-09-11T06:49:22.686Z</time>
      </trkpt>
      <trkpt lat="44.12514" lon="2.24735">
        <ele>429</ele>
        <time>2022-09-11T06:49:23.686Z</time>
      </trkpt>
      <trkpt lat="44.12515" lon="2.24734">
        <ele>429</ele>
        <time>2022-09-11T06:49:24.686Z</time>
      </trkpt>
      <trkpt lat="44.12516" lon="2.24732">
        <ele>429</ele>
        <time>2022-09-11T06:49:25.686Z</time>
      </trkpt>
      <trkpt lat="44.12517" lon="2.24731">
        <ele>429</ele>
        <time>2022-09-11T06:49:26.686Z</time>
      </trkpt>
      <trkpt lat="44.12519" lon="2.2473">
        <ele>429</ele>
        <time>2022-09-11T06:49:27.686Z</time>
      </trkpt>
      <trkpt lat="44.1252" lon="2.24729">
        <ele>428</ele>
        <time>2022-09-11T06:49:28.686Z</time>
      </trkpt>
      <trkpt lat="44.12521" lon="2.24728">
        <ele>428</ele>
        <time>2022-09-11T06:49:29.686Z</time>
      </trkpt>
      <trkpt lat="44.12522" lon="2.24726">
        <ele>428</ele>
        <time>2022-09-11T06:49:30.686Z</time>
      </trkpt>
      <trkpt lat="44.12523" lon="2.24725">
        <ele>429</ele>
        <time>2022-09-11T06:49:31.686Z</time>
      </trkpt>
      <trkpt lat="44.12524" lon="2.24724">
        <ele>429</ele>
        <time>2022-09-11T06:49:32.686Z</time>
      </trkpt>
      <trkpt lat="44.12525" lon="2.24723">
        <ele>429</ele>
        <time>2022-09-11T06:49:33.686Z</time>
      </trkpt>
      <trkpt lat="44.12526" lon="2.24722">
        <ele>429</ele>
        <time>2022-09-11T06:49:34.686Z</time>
      </trkpt>
      <trkpt lat="44.12526" lon="2.24721">
        <ele>429</ele>
        <time>2022-09-11T06:49:35.686Z</time>
      </trkpt>
      <trkpt lat="44.12528" lon="2.2472">
        <ele>429</ele>
        <time>2022-09-11T06:49:36.686Z</time>
      </trkpt>
      <trkpt lat="44.12529" lon="2.24719">
        <ele>429</ele>
        <time>2022-09-11T06:49:37.686Z</time>
      </trkpt>
      <trkpt lat="44.1253" lon="2.24718">
        <ele>429</ele>
        <time>2022-09-11T06:49:38.686Z</time>
      </trkpt>
      <trkpt lat="44.12531" lon="2.24717">
        <ele>429</ele>
        <time>2022-09-11T06:49:39.686Z</time>
      </trkpt>
      <trkpt lat="44.12532" lon="2.24715">
        <ele>429</ele>
        <time>2022-09-11T06:49:40.686Z</time>
      </trkpt>
      <trkpt lat="44.12532" lon="2.24715">
        <ele>429</ele>
        <time>2022-09-11T06:49:41.686Z</time>
      </trkpt>
      <trkpt lat="44.12533" lon="2.24713">
        <ele>429</ele>
        <time>2022-09-11T06:49:42.686Z</time>
      </trkpt>
      <trkpt lat="44.12534" lon="2.24712">
        <ele>429</ele>
        <time>2022-09-11T06:49:43.686Z</time>
      </trkpt>
      <trkpt lat="44.12535" lon="2.24711">
        <ele>429</ele>
        <time>2022-09-11T06:49:44.686Z</time>
      </trkpt>
      <trkpt lat="44.12536" lon="2.2471">
        <ele>429</ele>
        <time>2022-09-11T06:49:45.686Z</time>
      </trkpt>
      <trkpt lat="44.12537" lon="2.24709">
        <ele>428</ele>
        <time>2022-09-11T06:49:46.686Z</time>
      </trkpt>
      <trkpt lat="44.12537" lon="2.24708">
        <ele>428</ele>
        <time>2022-09-11T06:49:47.686Z</time>
      </trkpt>
      <trkpt lat="44.12538" lon="2.24707">
        <ele>428</ele>
        <time>2022-09-11T06:49:48.686Z</time>
      </trkpt>
      <trkpt lat="44.12539" lon="2.24705">
        <ele>428</ele>
        <time>2022-09-11T06:49:49.686Z</time>
      </trkpt>
      <trkpt lat="44.1254" lon="2.24704">
        <ele>428</ele>
        <time>2022-09-11T06:49:50.686Z</time>
      </trkpt>
      <trkpt lat="44.12541" lon="2.24704">
        <ele>428</ele>
        <time>2022-09-11T06:49:51.686Z</time>
      </trkpt>
      <trkpt lat="44.12542" lon="2.24703">
        <ele>428</ele>
        <time>2022-09-11T06:49:52.686Z</time>
      </trkpt>
      <trkpt lat="44.12543" lon="2.24702">
        <ele>428</ele>
        <time>2022-09-11T06:49:53.686Z</time>
      </trkpt>
      <trkpt lat="44.12544" lon="2.24701">
        <ele>428</ele>
        <time>2022-09-11T06:49:54.686Z</time>
      </trkpt>
      <trkpt lat="44.12545" lon="2.247">
        <ele>428</ele>
        <time>2022-09-11T06:49:55.686Z</time>
      </trkpt>
      <trkpt lat="44.12546" lon="2.247">
        <ele>428</ele>
        <time>2022-09-11T06:49:56.686Z</time>
      </trkpt>
      <trkpt lat="44.12547" lon="2.247">
        <ele>428</ele>
        <time>2022-09-11T06:49:57.686Z</time>
      </trkpt>
      <trkpt lat="44.12548" lon="2.247">
        <ele>428</ele>
        <time>2022-09-11T06:49:58.686Z</time>
      </trkpt>
      <trkpt lat="44.12549" lon="2.247">
        <ele>428</ele>
        <time>2022-09-11T06:49:59.686Z</time>
      </trkpt>
      <trkpt lat="44.1255" lon="2.247">
        <ele>428</ele>
        <time>2022-09-11T06:50:00.686Z</time>
      </trkpt>
      <trkpt lat="44.12551" lon="2.24701">
        <ele>428</ele>
        <time>2022-09-11T06:50:01.686Z</time>
      </trkpt>
      <trkpt lat="44.12552" lon="2.24702">
        <ele>428</ele>
        <time>2022-09-11T06:50:02.686Z</time>
      </trkpt>
      <trkpt lat="44.12553" lon="2.24703">
        <ele>428</ele>
        <time>2022-09-11T06:50:03.686Z</time>
      </trkpt>
      <trkpt lat="44.12554" lon="2.24704">
        <ele>428</ele>
        <time>2022-09-11T06:50:04.686Z</time>
      </trkpt>
      <trkpt lat="44.12555" lon="2.24705">
        <ele>428</ele>
        <time>2022-09-11T06:50:05.686Z</time>
      </trkpt>
      <trkpt lat="44.12555" lon="2.24706">
        <ele>428</ele>
        <time>2022-09-11T06:50:06.686Z</time>
      </trkpt>
      <trkpt lat="44.12556" lon="2.24707">
        <ele>429</ele>
        <time>2022-09-11T06:50:07.686Z</time>
      </trkpt>
      <trkpt lat="44.12556" lon="2.24708">
        <ele>429</ele>
        <time>2022-09-11T06:50:08.686Z</time>
      </trkpt>
      <trkpt lat="44.12557" lon="2.24709">
        <ele>429</ele>
        <time>2022-09-11T06:50:09.686Z</time>
      </trkpt>
      <trkpt lat="44.12558" lon="2.2471">
        <ele>429</ele>
        <time>2022-09-11T06:50:10.686Z</time>
      </trkpt>
      <trkpt lat="44.12559" lon="2.24711">
        <ele>429</ele>
        <time>2022-09-11T06:50:11.686Z</time>
      </trkpt>
      <trkpt lat="44.1256" lon="2.24713">
        <ele>429</ele>
        <time>2022-09-11T06:50:12.686Z</time>
      </trkpt>
      <trkpt lat="44.12561" lon="2.24714">
        <ele>429</ele>
        <time>2022-09-11T06:50:13.686Z</time>
      </trkpt>
      <trkpt lat="44.12562" lon="2.24715">
        <ele>429</ele>
        <time>2022-09-11T06:50:14.686Z</time>
      </trkpt>
      <trkpt lat="44.12563" lon="2.24716">
        <ele>429</ele>
        <time>2022-09-11T06:50:15.686Z</time>
      </trkpt>
      <trkpt lat="44.12563" lon="2.24718">
        <ele>429</ele>
        <time>2022-09-11T06:50:16.686Z</time>
      </trkpt>
      <trkpt lat="44.12564" lon="2.24719">
        <ele>429</ele>
        <time>2022-09-11T06:50:17.686Z</time>
      </trkpt>
      <trkpt lat="44.12565" lon="2.2472">
        <ele>429</ele>
        <time>2022-09-11T06:50:18.686Z</time>
      </trkpt>
      <trkpt lat="44.12566" lon="2.24722">
        <ele>429</ele>
        <time>2022-09-11T06:50:19.686Z</time>
      </trkpt>
      <trkpt lat="44.12566" lon="2.24723">
        <ele>429</ele>
        <time>2022-09-11T06:50:20.686Z</time>
      </trkpt>
      <trkpt lat="44.12567" lon="2.24724">
        <ele>429</ele>
        <time>2022-09-11T06:50:21.686Z</time>
      </trkpt>
      <trkpt lat="44.12568" lon="2.24726">
        <ele>429</ele>
        <time>2022-09-11T06:50:22.686Z</time>
      </trkpt>
      <trkpt lat="44.12569" lon="2.24727">
        <ele>429</ele>
        <time>2022-09-11T06:50:23.686Z</time>
      </trkpt>
      <trkpt lat="44.1257" lon="2.24728">
        <ele>429</ele>
        <time>2022-09-11T06:50:24.686Z</time>
      </trkpt>
      <trkpt lat="44.12571" lon="2.24729">
        <ele>429</ele>
        <time>2022-09-11T06:50:25.686Z</time>
      </trkpt>
      <trkpt lat="44.12572" lon="2.2473">
        <ele>429</ele>
        <time>2022-09-11T06:50:26.686Z</time>
      </trkpt>
      <trkpt lat="44.12573" lon="2.24731">
        <ele>429</ele>
        <time>2022-09-11T06:50:27.686Z</time>
      </trkpt>
      <trkpt lat="44.12574" lon="2.24731">
        <ele>429</ele>
        <time>2022-09-11T06:50:28.686Z</time>
      </trkpt>
      <trkpt lat="44.12575" lon="2.24732">
        <ele>429</ele>
        <time>2022-09-11T06:50:29.686Z</time>
      </trkpt>
      <trkpt lat="44.12576" lon="2.24732">
        <ele>429</ele>
        <time>2022-09-11T06:50:30.686Z</time>
      </trkpt>
      <trkpt lat="44.12577" lon="2.24732">
        <ele>429</ele>
        <time>2022-09-11T06:50:31.686Z</time>
      </trkpt>
      <trkpt lat="44.12578" lon="2.24732">
        <ele>429</ele>
        <time>2022-09-11T06:50:32.686Z</time>
      </trkpt>
      <trkpt lat="44.12579" lon="2.24732">
        <ele>429</ele>
        <time>2022-09-11T06:50:33.686Z</time>
      </trkpt>
      <trkpt lat="44.1258" lon="2.24732">
        <ele>429</ele>
        <time>2022-09-11T06:50:34.686Z</time>
      </trkpt>
      <trkpt lat="44.12581" lon="2.24731">
        <ele>429</ele>
        <time>2022-09-11T06:50:35.686Z</time>
      </trkpt>
      <trkpt lat="44.12582" lon="2.2473">
        <ele>429</ele>
        <time>2022-09-11T06:50:36.686Z</time>
      </trkpt>
      <trkpt lat="44.12583" lon="2.24729">
        <ele>429</ele>
        <time>2022-09-11T06:50:37.686Z</time>
      </trkpt>
      <trkpt lat="44.12584" lon="2.24728">
        <ele>429</ele>
        <time>2022-09-11T06:50:38.686Z</time>
      </trkpt>
      <trkpt lat="44.12585" lon="2.24727">
        <ele>429</ele>
        <time>2022-09-11T06:50:39.686Z</time>
      </trkpt>
      <trkpt lat="44.12586" lon="2.24726">
        <ele>428</ele>
        <time>2022-09-11T06:50:40.686Z</time>
      </trkpt>
      <trkpt lat="44.12587" lon="2.24725">
        <ele>428</ele>
        <time>2022-09-11T06:50:41.686Z</time>
      </trkpt>
      <trkpt lat="44.12588" lon="2.24725">
        <ele>428</ele>
        <time>2022-09-11T06:50:42.686Z</time>
      </trkpt>
      <trkpt lat="44.12589" lon="2.24724">
        <ele>428</ele>
        <time>2022-09-11T06:50:43.686Z</time>
      </trkpt>
      <trkpt lat="44.1259" lon="2.24723">
        <ele>428</ele>
        <time>2022-09-11T06:50:44.686Z</time>
      </trkpt>
      <trkpt lat="44.1259" lon="2.24722">
        <ele>428</ele>
        <time>2022-09-11T06:50:45.686Z</time>
      </trkpt>
      <trkpt lat="44.12591" lon="2.24721">
        <ele>428</ele>
        <time>2022-09-11T06:50:46.686Z</time>
      </trkpt>
      <trkpt lat="44.12592" lon="2.2472">
        <ele>428</ele>
        <time>2022-09-11T06:50:47.686Z</time>
      </trkpt>
      <trkpt lat="44.12593" lon="2.24719">
        <ele>428</ele>
        <time>2022-09-11T06:50:48.686Z</time>
      </trkpt>
      <trkpt lat="44.12594" lon="2.24718">
        <ele>428</ele>
        <time>2022-09-11T06:50:49.686Z</time>
      </trkpt>
      <trkpt lat="44.12595" lon="2.24717">
        <ele>428</ele>
        <time>2022-09-11T06:50:50.686Z</time>
      </trkpt>
      <trkpt lat="44.12596" lon="2.24716">
        <ele>429</ele>
        <time>2022-09-11T06:50:51.686Z</time>
      </trkpt>
      <trkpt lat="44.12597" lon="2.24715">
        <ele>429</ele>
        <time>2022-09-11T06:50:52.686Z</time>
      </trkpt>
      <trkpt lat="44.12598" lon="2.24714">
        <ele>429</ele>
        <time>2022-09-11T06:50:53.686Z</time>
      </trkpt>
      <trkpt lat="44.12599" lon="2.24712">
        <ele>429</ele>
        <time>2022-09-11T06:50:54.686Z</time>
      </trkpt>
      <trkpt lat="44.126" lon="2.24711">
        <ele>429</ele>
        <time>2022-09-11T06:50:55.686Z</time>
      </trkpt>
      <trkpt lat="44.12601" lon="2.2471">
        <ele>429</ele>
        <time>2022-09-11T06:50:56.686Z</time>
      </trkpt>
      <trkpt lat="44.12602" lon="2.24709">
        <ele>429</ele>
        <time>2022-09-11T06:50:57.686Z</time>
      </trkpt>
      <trkpt lat="44.12603" lon="2.24708">
        <ele>429</ele>
        <time>2022-09-11T06:50:58.686Z</time>
      </trkpt>
      <trkpt lat="44.12603" lon="2.24707">
        <ele>429</ele>
        <time>2022-09-11T06:50:59.686Z</time>
      </trkpt>
      <trkpt lat="44.12604" lon="2.24706">
        <ele>429</ele>
        <time>2022-09-11T06:51:00.686Z</time>
      </trkpt>
      <trkpt lat="44.12605" lon="2.24705">
        <ele>430</ele>
        <time>2022-09-11T06:51:01.686Z</time>
      </trkpt>
      <trkpt lat="44.12606" lon="2.24704">
        <ele>430</ele>
        <time>2022-09-11T06:51:02.686Z</time>
      </trkpt>
      <trkpt lat="44.12607" lon="2.24703">
        <ele>430</ele>
        <time>2022-09-11T06:51:03.686Z</time>
      </trkpt>
      <trkpt lat="44.12608" lon="2.24702">
        <ele>430</ele>
        <time>2022-09-11T06:51:04.686Z</time>
      </trkpt>
      <trkpt lat="44.12609" lon="2.247">
        <ele>430</ele>
        <time>2022-09-11T06:51:05.686Z</time>
      </trkpt>
      <trkpt lat="44.1261" lon="2.24699">
        <ele>430</ele>
        <time>2022-09-11T06:51:06.686Z</time>
      </trkpt>
      <trkpt lat="44.1261" lon="2.24698">
        <ele>430</ele>
        <time>2022-09-11T06:51:07.686Z</time>
      </trkpt>
      <trkpt lat="44.12611" lon="2.24697">
        <ele>430</ele>
        <time>2022-09-11T06:51:08.686Z</time>
      </trkpt>
      <trkpt lat="44.12612" lon="2.24696">
        <ele>430</ele>
        <time>2022-09-11T06:51:09.686Z</time>
      </trkpt>
      <trkpt lat="44.12613" lon="2.24694">
        <ele>431</ele>
        <time>2022-09-11T06:51:10.686Z</time>
      </trkpt>
      <trkpt lat="44.12614" lon="2.24693">
        <ele>431</ele>
        <time>2022-09-11T06:51:11.686Z</time>
      </trkpt>
      <trkpt lat="44.12615" lon="2.24691">
        <ele>431</ele>
        <time>2022-09-11T06:51:12.686Z</time>
      </trkpt>
      <trkpt lat="44.12615" lon="2.2469">
        <ele>431</ele>
        <time>2022-09-11T06:51:13.686Z</time>
      </trkpt>
      <trkpt lat="44.12616" lon="2.24688">
        <ele>431</ele>
        <time>2022-09-11T06:51:14.686Z</time>
      </trkpt>
      <trkpt lat="44.12616" lon="2.24687">
        <ele>430</ele>
        <time>2022-09-11T06:51:15.686Z</time>
      </trkpt>
      <trkpt lat="44.12617" lon="2.24685">
        <ele>430</ele>
        <time>2022-09-11T06:51:16.686Z</time>
      </trkpt>
      <trkpt lat="44.12617" lon="2.24684">
        <ele>430</ele>
        <time>2022-09-11T06:51:17.686Z</time>
      </trkpt>
      <trkpt lat="44.12617" lon="2.24682">
        <ele>430</ele>
        <time>2022-09-11T06:51:18.686Z</time>
      </trkpt>
      <trkpt lat="44.12618" lon="2.2468">
        <ele>430</ele>
        <time>2022-09-11T06:51:19.686Z</time>
      </trkpt>
      <trkpt lat="44.12618" lon="2.24678">
        <ele>430</ele>
        <time>2022-09-11T06:51:20.686Z</time>
      </trkpt>
      <trkpt lat="44.12618" lon="2.24676">
        <ele>430</ele>
        <time>2022-09-11T06:51:21.686Z</time>
      </trkpt>
      <trkpt lat="44.12618" lon="2.24675">
        <ele>429</ele>
        <time>2022-09-11T06:51:22.686Z</time>
      </trkpt>
      <trkpt lat="44.12618" lon="2.24673">
        <ele>429</ele>
        <time>2022-09-11T06:51:23.686Z</time>
      </trkpt>
      <trkpt lat="44.12618" lon="2.24671">
        <ele>429</ele>
        <time>2022-09-11T06:51:24.686Z</time>
      </trkpt>
      <trkpt lat="44.12618" lon="2.2467">
        <ele>429</ele>
        <time>2022-09-11T06:51:25.686Z</time>
      </trkpt>
      <trkpt lat="44.12617" lon="2.24668">
        <ele>429</ele>
        <time>2022-09-11T06:51:26.686Z</time>
      </trkpt>
      <trkpt lat="44.12617" lon="2.24667">
        <ele>429</ele>
        <time>2022-09-11T06:51:27.686Z</time>
      </trkpt>
      <trkpt lat="44.12617" lon="2.24665">
        <ele>429</ele>
        <time>2022-09-11T06:51:28.686Z</time>
      </trkpt>
      <trkpt lat="44.12617" lon="2.24663">
        <ele>429</ele>
        <time>2022-09-11T06:51:29.686Z</time>
      </trkpt>
      <trkpt lat="44.12617" lon="2.24662">
        <ele>429</ele>
        <time>2022-09-11T06:51:30.686Z</time>
      </trkpt>
      <trkpt lat="44.12617" lon="2.2466">
        <ele>429</ele>
        <time>2022-09-11T06:51:31.686Z</time>
      </trkpt>
      <trkpt lat="44.12617" lon="2.24658">
        <ele>428</ele>
        <time>2022-09-11T06:51:32.686Z</time>
      </trkpt>
      <trkpt lat="44.12616" lon="2.24656">
        <ele>428</ele>
        <time>2022-09-11T06:51:33.686Z</time>
      </trkpt>
      <trkpt lat="44.12616" lon="2.24655">
        <ele>428</ele>
        <time>2022-09-11T06:51:34.686Z</time>
      </trkpt>
      <trkpt lat="44.12616" lon="2.24653">
        <ele>428</ele>
        <time>2022-09-11T06:51:35.686Z</time>
      </trkpt>
      <trkpt lat="44.12616" lon="2.24652">
        <ele>428</ele>
        <time>2022-09-11T06:51:36.686Z</time>
      </trkpt>
      <trkpt lat="44.12616" lon="2.2465">
        <ele>428</ele>
        <time>2022-09-11T06:51:37.686Z</time>
      </trkpt>
      <trkpt lat="44.12616" lon="2.24649">
        <ele>428</ele>
        <time>2022-09-11T06:51:38.686Z</time>
      </trkpt>
      <trkpt lat="44.12616" lon="2.24647">
        <ele>428</ele>
        <time>2022-09-11T06:51:39.686Z</time>
      </trkpt>
      <trkpt lat="44.12615" lon="2.24646">
        <ele>428</ele>
        <time>2022-09-11T06:51:40.686Z</time>
      </trkpt>
      <trkpt lat="44.12615" lon="2.24644">
        <ele>428</ele>
        <time>2022-09-11T06:51:41.686Z</time>
      </trkpt>
      <trkpt lat="44.12615" lon="2.24642">
        <ele>428</ele>
        <time>2022-09-11T06:51:42.686Z</time>
      </trkpt>
      <trkpt lat="44.12615" lon="2.2464">
        <ele>428</ele>
        <time>2022-09-11T06:51:43.686Z</time>
      </trkpt>
      <trkpt lat="44.12615" lon="2.24638">
        <ele>428</ele>
        <time>2022-09-11T06:51:44.686Z</time>
      </trkpt>
      <trkpt lat="44.12614" lon="2.24636">
        <ele>428</ele>
        <time>2022-09-11T06:51:45.686Z</time>
      </trkpt>
      <trkpt lat="44.12614" lon="2.24635">
        <ele>428</ele>
        <time>2022-09-11T06:51:46.686Z</time>
      </trkpt>
      <trkpt lat="44.12614" lon="2.24633">
        <ele>427</ele>
        <time>2022-09-11T06:51:47.686Z</time>
      </trkpt>
      <trkpt lat="44.12614" lon="2.24631">
        <ele>427</ele>
        <time>2022-09-11T06:51:48.686Z</time>
      </trkpt>
      <trkpt lat="44.12614" lon="2.2463">
        <ele>427</ele>
        <time>2022-09-11T06:51:49.686Z</time>
      </trkpt>
      <trkpt lat="44.12614" lon="2.24628">
        <ele>427</ele>
        <time>2022-09-11T06:51:50.686Z</time>
      </trkpt>
      <trkpt lat="44.12614" lon="2.24626">
        <ele>427</ele>
        <time>2022-09-11T06:51:51.686Z</time>
      </trkpt>
      <trkpt lat="44.12613" lon="2.24624">
        <ele>427</ele>
        <time>2022-09-11T06:51:52.686Z</time>
      </trkpt>
      <trkpt lat="44.12614" lon="2.24622">
        <ele>427</ele>
        <time>2022-09-11T06:51:53.686Z</time>
      </trkpt>
      <trkpt lat="44.12614" lon="2.24621">
        <ele>427</ele>
        <time>2022-09-11T06:51:54.686Z</time>
      </trkpt>
      <trkpt lat="44.12614" lon="2.24619">
        <ele>427</ele>
        <time>2022-09-11T06:51:55.686Z</time>
      </trkpt>
      <trkpt lat="44.12614" lon="2.24617">
        <ele>427</ele>
        <time>2022-09-11T06:51:56.686Z</time>
      </trkpt>
      <trkpt lat="44.12614" lon="2.24616">
        <ele>427</ele>
        <time>2022-09-11T06:51:57.686Z</time>
      </trkpt>
      <trkpt lat="44.12614" lon="2.24614">
        <ele>427</ele>
        <time>2022-09-11T06:51:58.686Z</time>
      </trkpt>
      <trkpt lat="44.12615" lon="2.24612">
        <ele>427</ele>
        <time>2022-09-11T06:51:59.686Z</time>
      </trkpt>
      <trkpt lat="44.12615" lon="2.2461">
        <ele>427</ele>
        <time>2022-09-11T06:52:00.686Z</time>
      </trkpt>
      <trkpt lat="44.12616" lon="2.24608">
        <ele>427</ele>
        <time>2022-09-11T06:52:01.686Z</time>
      </trkpt>
      <trkpt lat="44.12616" lon="2.24607">
        <ele>427</ele>
        <time>2022-09-11T06:52:02.686Z</time>
      </trkpt>
      <trkpt lat="44.12616" lon="2.24605">
        <ele>427</ele>
        <time>2022-09-11T06:52:03.686Z</time>
      </trkpt>
      <trkpt lat="44.12617" lon="2.24604">
        <ele>427</ele>
        <time>2022-09-11T06:52:04.686Z</time>
      </trkpt>
      <trkpt lat="44.12617" lon="2.24603">
        <ele>427</ele>
        <time>2022-09-11T06:52:05.686Z</time>
      </trkpt>
      <trkpt lat="44.12618" lon="2.24601">
        <ele>427</ele>
        <time>2022-09-11T06:52:06.686Z</time>
      </trkpt>
      <trkpt lat="44.12618" lon="2.246">
        <ele>427</ele>
        <time>2022-09-11T06:52:07.686Z</time>
      </trkpt>
      <trkpt lat="44.12619" lon="2.24598">
        <ele>427</ele>
        <time>2022-09-11T06:52:08.686Z</time>
      </trkpt>
      <trkpt lat="44.1262" lon="2.24597">
        <ele>427</ele>
        <time>2022-09-11T06:52:09.686Z</time>
      </trkpt>
      <trkpt lat="44.1262" lon="2.24596">
        <ele>427</ele>
        <time>2022-09-11T06:52:10.686Z</time>
      </trkpt>
      <trkpt lat="44.12621" lon="2.24595">
        <ele>427</ele>
        <time>2022-09-11T06:52:11.686Z</time>
      </trkpt>
      <trkpt lat="44.12622" lon="2.24594">
        <ele>427</ele>
        <time>2022-09-11T06:52:12.686Z</time>
      </trkpt>
      <trkpt lat="44.12622" lon="2.24593">
        <ele>427</ele>
        <time>2022-09-11T06:52:13.686Z</time>
      </trkpt>
      <trkpt lat="44.12623" lon="2.24593">
        <ele>427</ele>
        <time>2022-09-11T06:52:14.686Z</time>
      </trkpt>
      <trkpt lat="44.12624" lon="2.24592">
        <ele>427</ele>
        <time>2022-09-11T06:52:15.686Z</time>
      </trkpt>
      <trkpt lat="44.12624" lon="2.24591">
        <ele>427</ele>
        <time>2022-09-11T06:52:16.686Z</time>
      </trkpt>
      <trkpt lat="44.12625" lon="2.24591">
        <ele>427</ele>
        <time>2022-09-11T06:52:17.686Z</time>
      </trkpt>
      <trkpt lat="44.12625" lon="2.24591">
        <ele>427</ele>
        <time>2022-09-11T06:52:18.686Z</time>
      </trkpt>
      <trkpt lat="44.12625" lon="2.24591">
        <ele>427</ele>
        <time>2022-09-11T06:52:19.686Z</time>
      </trkpt>
      <trkpt lat="44.12626" lon="2.2459">
        <ele>427</ele>
        <time>2022-09-11T06:52:20.686Z</time>
      </trkpt>
      <trkpt lat="44.12626" lon="2.2459">
        <ele>426</ele>
        <time>2022-09-11T06:52:21.686Z</time>
      </trkpt>
      <trkpt lat="44.12627" lon="2.24591">
        <ele>426</ele>
        <time>2022-09-11T06:52:22.686Z</time>
      </trkpt>
      <trkpt lat="44.12628" lon="2.2459">
        <ele>426</ele>
        <time>2022-09-11T06:52:23.686Z</time>
      </trkpt>
      <trkpt lat="44.12629" lon="2.24589">
        <ele>426</ele>
        <time>2022-09-11T06:52:24.686Z</time>
      </trkpt>
      <trkpt lat="44.12629" lon="2.24588">
        <ele>426</ele>
        <time>2022-09-11T06:52:25.686Z</time>
      </trkpt>
      <trkpt lat="44.1263" lon="2.24587">
        <ele>426</ele>
        <time>2022-09-11T06:52:26.686Z</time>
      </trkpt>
      <trkpt lat="44.12631" lon="2.24587">
        <ele>426</ele>
        <time>2022-09-11T06:52:27.686Z</time>
      </trkpt>
      <trkpt lat="44.12631" lon="2.24587">
        <ele>426</ele>
        <time>2022-09-11T06:52:28.686Z</time>
      </trkpt>
      <trkpt lat="44.12632" lon="2.24588">
        <ele>426</ele>
        <time>2022-09-11T06:52:29.686Z</time>
      </trkpt>
      <trkpt lat="44.12633" lon="2.24588">
        <ele>426</ele>
        <time>2022-09-11T06:52:30.686Z</time>
      </trkpt>
      <trkpt lat="44.12634" lon="2.24588">
        <ele>426</ele>
        <time>2022-09-11T06:52:31.686Z</time>
      </trkpt>
      <trkpt lat="44.12635" lon="2.24589">
        <ele>426</ele>
        <time>2022-09-11T06:52:32.686Z</time>
      </trkpt>
      <trkpt lat="44.12637" lon="2.2459">
        <ele>426</ele>
        <time>2022-09-11T06:52:33.686Z</time>
      </trkpt>
      <trkpt lat="44.12638" lon="2.2459">
        <ele>426</ele>
        <time>2022-09-11T06:52:34.686Z</time>
      </trkpt>
      <trkpt lat="44.12639" lon="2.2459">
        <ele>426</ele>
        <time>2022-09-11T06:52:35.686Z</time>
      </trkpt>
      <trkpt lat="44.1264" lon="2.2459">
        <ele>426</ele>
        <time>2022-09-11T06:52:36.686Z</time>
      </trkpt>
      <trkpt lat="44.12641" lon="2.2459">
        <ele>426</ele>
        <time>2022-09-11T06:52:37.686Z</time>
      </trkpt>
      <trkpt lat="44.12641" lon="2.2459">
        <ele>426</ele>
        <time>2022-09-11T06:52:38.686Z</time>
      </trkpt>
      <trkpt lat="44.12642" lon="2.24591">
        <ele>426</ele>
        <time>2022-09-11T06:52:39.686Z</time>
      </trkpt>
      <trkpt lat="44.12643" lon="2.24591">
        <ele>426</ele>
        <time>2022-09-11T06:52:40.686Z</time>
      </trkpt>
      <trkpt lat="44.12644" lon="2.24591">
        <ele>426</ele>
        <time>2022-09-11T06:52:41.686Z</time>
      </trkpt>
      <trkpt lat="44.12645" lon="2.24591">
        <ele>426</ele>
        <time>2022-09-11T06:52:42.686Z</time>
      </trkpt>
      <trkpt lat="44.12645" lon="2.24591">
        <ele>426</ele>
        <time>2022-09-11T06:52:43.686Z</time>
      </trkpt>
      <trkpt lat="44.12646" lon="2.24591">
        <ele>426</ele>
        <time>2022-09-11T06:52:44.686Z</time>
      </trkpt>
      <trkpt lat="44.12647" lon="2.24592">
        <ele>426</ele>
        <time>2022-09-11T06:52:45.686Z</time>
      </trkpt>
      <trkpt lat="44.12648" lon="2.24592">
        <ele>426</ele>
        <time>2022-09-11T06:52:46.686Z</time>
      </trkpt>
      <trkpt lat="44.12649" lon="2.24593">
        <ele>426</ele>
        <time>2022-09-11T06:52:47.686Z</time>
      </trkpt>
      <trkpt lat="44.1265" lon="2.24593">
        <ele>426</ele>
        <time>2022-09-11T06:52:48.686Z</time>
      </trkpt>
      <trkpt lat="44.12651" lon="2.24593">
        <ele>426</ele>
        <time>2022-09-11T06:52:49.686Z</time>
      </trkpt>
      <trkpt lat="44.12651" lon="2.24594">
        <ele>426</ele>
        <time>2022-09-11T06:52:50.686Z</time>
      </trkpt>
      <trkpt lat="44.12652" lon="2.24594">
        <ele>426</ele>
        <time>2022-09-11T06:52:51.686Z</time>
      </trkpt>
      <trkpt lat="44.12653" lon="2.24594">
        <ele>426</ele>
        <time>2022-09-11T06:52:52.686Z</time>
      </trkpt>
      <trkpt lat="44.12654" lon="2.24594">
        <ele>426</ele>
        <time>2022-09-11T06:52:53.686Z</time>
      </trkpt>
      <trkpt lat="44.12655" lon="2.24594">
        <ele>426</ele>
        <time>2022-09-11T06:52:54.686Z</time>
      </trkpt>
      <trkpt lat="44.12656" lon="2.24594">
        <ele>426</ele>
        <time>2022-09-11T06:52:55.686Z</time>
      </trkpt>
      <trkpt lat="44.12657" lon="2.24594">
        <ele>426</ele>
        <time>2022-09-11T06:52:56.686Z</time>
      </trkpt>
      <trkpt lat="44.12658" lon="2.24594">
        <ele>426</ele>
        <time>2022-09-11T06:52:57.686Z</time>
      </trkpt>
      <trkpt lat="44.12659" lon="2.24594">
        <ele>426</ele>
        <time>2022-09-11T06:52:58.686Z</time>
      </trkpt>
      <trkpt lat="44.12661" lon="2.24594">
        <ele>426</ele>
        <time>2022-09-11T06:52:59.686Z</time>
      </trkpt>
      <trkpt lat="44.12662" lon="2.24594">
        <ele>426</ele>
        <time>2022-09-11T06:53:00.686Z</time>
      </trkpt>
      <trkpt lat="44.12663" lon="2.24594">
        <ele>426</ele>
        <time>2022-09-11T06:53:01.686Z</time>
      </trkpt>
      <trkpt lat="44.12665" lon="2.24595">
        <ele>426</ele>
        <time>2022-09-11T06:53:02.686Z</time>
      </trkpt>
      <trkpt lat="44.12666" lon="2.24595">
        <ele>426</ele>
        <time>2022-09-11T06:53:03.686Z</time>
      </trkpt>
      <trkpt lat="44.12667" lon="2.24595">
        <ele>426</ele>
        <time>2022-09-11T06:53:04.686Z</time>
      </trkpt>
      <trkpt lat="44.12668" lon="2.24595">
        <ele>426</ele>
        <time>2022-09-11T06:53:05.686Z</time>
      </trkpt>
      <trkpt lat="44.12669" lon="2.24595">
        <ele>426</ele>
        <time>2022-09-11T06:53:06.686Z</time>
      </trkpt>
      <trkpt lat="44.1267" lon="2.24596">
        <ele>426</ele>
        <time>2022-09-11T06:53:07.686Z</time>
      </trkpt>
      <trkpt lat="44.12671" lon="2.24596">
        <ele>426</ele>
        <time>2022-09-11T06:53:08.686Z</time>
      </trkpt>
      <trkpt lat="44.12673" lon="2.24596">
        <ele>426</ele>
        <time>2022-09-11T06:53:09.686Z</time>
      </trkpt>
      <trkpt lat="44.12674" lon="2.24596">
        <ele>426</ele>
        <time>2022-09-11T06:53:10.686Z</time>
      </trkpt>
      <trkpt lat="44.12675" lon="2.24596">
        <ele>425</ele>
        <time>2022-09-11T06:53:11.686Z</time>
      </trkpt>
      <trkpt lat="44.12676" lon="2.24596">
        <ele>425</ele>
        <time>2022-09-11T06:53:12.686Z</time>
      </trkpt>
      <trkpt lat="44.12676" lon="2.24596">
        <ele>425</ele>
        <time>2022-09-11T06:53:13.686Z</time>
      </trkpt>
      <trkpt lat="44.12677" lon="2.24596">
        <ele>425</ele>
        <time>2022-09-11T06:53:14.686Z</time>
      </trkpt>
      <trkpt lat="44.12678" lon="2.24597">
        <ele>425</ele>
        <time>2022-09-11T06:53:15.686Z</time>
      </trkpt>
      <trkpt lat="44.12679" lon="2.24597">
        <ele>424</ele>
        <time>2022-09-11T06:53:16.686Z</time>
      </trkpt>
      <trkpt lat="44.12681" lon="2.24597">
        <ele>424</ele>
        <time>2022-09-11T06:53:17.686Z</time>
      </trkpt>
      <trkpt lat="44.12682" lon="2.24597">
        <ele>424</ele>
        <time>2022-09-11T06:53:18.686Z</time>
      </trkpt>
      <trkpt lat="44.12684" lon="2.24597">
        <ele>424</ele>
        <time>2022-09-11T06:53:19.686Z</time>
      </trkpt>
      <trkpt lat="44.12685" lon="2.24597">
        <ele>423</ele>
        <time>2022-09-11T06:53:20.686Z</time>
      </trkpt>
      <trkpt lat="44.12686" lon="2.24598">
        <ele>423</ele>
        <time>2022-09-11T06:53:21.686Z</time>
      </trkpt>
      <trkpt lat="44.12687" lon="2.24598">
        <ele>423</ele>
        <time>2022-09-11T06:53:22.686Z</time>
      </trkpt>
      <trkpt lat="44.12688" lon="2.24598">
        <ele>422</ele>
        <time>2022-09-11T06:53:23.686Z</time>
      </trkpt>
      <trkpt lat="44.12689" lon="2.24598">
        <ele>422</ele>
        <time>2022-09-11T06:53:24.686Z</time>
      </trkpt>
      <trkpt lat="44.1269" lon="2.24598">
        <ele>422</ele>
        <time>2022-09-11T06:53:25.686Z</time>
      </trkpt>
      <trkpt lat="44.12692" lon="2.24598">
        <ele>422</ele>
        <time>2022-09-11T06:53:26.686Z</time>
      </trkpt>
      <trkpt lat="44.12693" lon="2.24599">
        <ele>421</ele>
        <time>2022-09-11T06:53:27.686Z</time>
      </trkpt>
      <trkpt lat="44.12694" lon="2.24599">
        <ele>421</ele>
        <time>2022-09-11T06:53:28.686Z</time>
      </trkpt>
      <trkpt lat="44.12696" lon="2.24599">
        <ele>421</ele>
        <time>2022-09-11T06:53:29.686Z</time>
      </trkpt>
      <trkpt lat="44.12697" lon="2.24599">
        <ele>421</ele>
        <time>2022-09-11T06:53:30.686Z</time>
      </trkpt>
      <trkpt lat="44.12698" lon="2.24599">
        <ele>421</ele>
        <time>2022-09-11T06:53:31.686Z</time>
      </trkpt>
      <trkpt lat="44.12699" lon="2.24599">
        <ele>421</ele>
        <time>2022-09-11T06:53:32.686Z</time>
      </trkpt>
      <trkpt lat="44.127" lon="2.24599">
        <ele>421</ele>
        <time>2022-09-11T06:53:33.686Z</time>
      </trkpt>
      <trkpt lat="44.12701" lon="2.24599">
        <ele>421</ele>
        <time>2022-09-11T06:53:34.686Z</time>
      </trkpt>
      <trkpt lat="44.12702" lon="2.24599">
        <ele>421</ele>
        <time>2022-09-11T06:53:35.686Z</time>
      </trkpt>
      <trkpt lat="44.12703" lon="2.24599">
        <ele>421</ele>
        <time>2022-09-11T06:53:36.686Z</time>
      </trkpt>
      <trkpt lat="44.12704" lon="2.24599">
        <ele>421</ele>
        <time>2022-09-11T06:53:37.686Z</time>
      </trkpt>
      <trkpt lat="44.12705" lon="2.24599">
        <ele>421</ele>
        <time>2022-09-11T06:53:38.686Z</time>
      </trkpt>
      <trkpt lat="44.12705" lon="2.24599">
        <ele>421</ele>
        <time>2022-09-11T06:53:39.686Z</time>
      </trkpt>
      <trkpt lat="44.12706" lon="2.24599">
        <ele>421</ele>
        <time>2022-09-11T06:53:40.686Z</time>
      </trkpt>
      <trkpt lat="44.12707" lon="2.24599">
        <ele>420</ele>
        <time>2022-09-11T06:53:41.686Z</time>
      </trkpt>
      <trkpt lat="44.12709" lon="2.24599">
        <ele>420</ele>
        <time>2022-09-11T06:53:42.686Z</time>
      </trkpt>
      <trkpt lat="44.1271" lon="2.24599">
        <ele>420</ele>
        <time>2022-09-11T06:53:43.686Z</time>
      </trkpt>
      <trkpt lat="44.12711" lon="2.24599">
        <ele>420</ele>
        <time>2022-09-11T06:53:44.686Z</time>
      </trkpt>
      <trkpt lat="44.12712" lon="2.24599">
        <ele>420</ele>
        <time>2022-09-11T06:53:45.686Z</time>
      </trkpt>
      <trkpt lat="44.12713" lon="2.24599">
        <ele>420</ele>
        <time>2022-09-11T06:53:46.686Z</time>
      </trkpt>
      <trkpt lat="44.12713" lon="2.24599">
        <ele>420</ele>
        <time>2022-09-11T06:53:47.686Z</time>
      </trkpt>
      <trkpt lat="44.12713" lon="2.24599">
        <ele>420</ele>
        <time>2022-09-11T06:53:48.686Z</time>
      </trkpt>
      <trkpt lat="44.12714" lon="2.24599">
        <ele>420</ele>
        <time>2022-09-11T06:53:49.686Z</time>
      </trkpt>
      <trkpt lat="44.12715" lon="2.24599">
        <ele>420</ele>
        <time>2022-09-11T06:53:50.686Z</time>
      </trkpt>
      <trkpt lat="44.12715" lon="2.24599">
        <ele>420</ele>
        <time>2022-09-11T06:53:51.686Z</time>
      </trkpt>
      <trkpt lat="44.12716" lon="2.24599">
        <ele>420</ele>
        <time>2022-09-11T06:53:52.686Z</time>
      </trkpt>
      <trkpt lat="44.12717" lon="2.24598">
        <ele>420</ele>
        <time>2022-09-11T06:53:53.686Z</time>
      </trkpt>
      <trkpt lat="44.12718" lon="2.24598">
        <ele>420</ele>
        <time>2022-09-11T06:53:54.686Z</time>
      </trkpt>
      <trkpt lat="44.12719" lon="2.24597">
        <ele>420</ele>
        <time>2022-09-11T06:53:55.686Z</time>
      </trkpt>
      <trkpt lat="44.1272" lon="2.24597">
        <ele>420</ele>
        <time>2022-09-11T06:53:56.686Z</time>
      </trkpt>
      <trkpt lat="44.12721" lon="2.24596">
        <ele>420</ele>
        <time>2022-09-11T06:53:57.686Z</time>
      </trkpt>
      <trkpt lat="44.12722" lon="2.24595">
        <ele>420</ele>
        <time>2022-09-11T06:53:58.686Z</time>
      </trkpt>
      <trkpt lat="44.12723" lon="2.24595">
        <ele>420</ele>
        <time>2022-09-11T06:53:59.686Z</time>
      </trkpt>
      <trkpt lat="44.12724" lon="2.24594">
        <ele>420</ele>
        <time>2022-09-11T06:54:00.686Z</time>
      </trkpt>
      <trkpt lat="44.12724" lon="2.24594">
        <ele>420</ele>
        <time>2022-09-11T06:54:01.686Z</time>
      </trkpt>
      <trkpt lat="44.12725" lon="2.24593">
        <ele>420</ele>
        <time>2022-09-11T06:54:02.686Z</time>
      </trkpt>
      <trkpt lat="44.12726" lon="2.24593">
        <ele>420</ele>
        <time>2022-09-11T06:54:03.686Z</time>
      </trkpt>
      <trkpt lat="44.12726" lon="2.24593">
        <ele>420</ele>
        <time>2022-09-11T06:54:04.686Z</time>
      </trkpt>
      <trkpt lat="44.12727" lon="2.24593">
        <ele>420</ele>
        <time>2022-09-11T06:54:05.686Z</time>
      </trkpt>
      <trkpt lat="44.12728" lon="2.24592">
        <ele>420</ele>
        <time>2022-09-11T06:54:06.686Z</time>
      </trkpt>
      <trkpt lat="44.12729" lon="2.24592">
        <ele>420</ele>
        <time>2022-09-11T06:54:07.686Z</time>
      </trkpt>
      <trkpt lat="44.1273" lon="2.24591">
        <ele>420</ele>
        <time>2022-09-11T06:54:08.686Z</time>
      </trkpt>
      <trkpt lat="44.12731" lon="2.24591">
        <ele>420</ele>
        <time>2022-09-11T06:54:09.686Z</time>
      </trkpt>
      <trkpt lat="44.12731" lon="2.2459">
        <ele>420</ele>
        <time>2022-09-11T06:54:10.686Z</time>
      </trkpt>
      <trkpt lat="44.12732" lon="2.24589">
        <ele>420</ele>
        <time>2022-09-11T06:54:11.686Z</time>
      </trkpt>
      <trkpt lat="44.12733" lon="2.24589">
        <ele>420</ele>
        <time>2022-09-11T06:54:12.686Z</time>
      </trkpt>
      <trkpt lat="44.12734" lon="2.24588">
        <ele>420</ele>
        <time>2022-09-11T06:54:13.686Z</time>
      </trkpt>
      <trkpt lat="44.12736" lon="2.24587">
        <ele>420</ele>
        <time>2022-09-11T06:54:14.686Z</time>
      </trkpt>
      <trkpt lat="44.12737" lon="2.24587">
        <ele>420</ele>
        <time>2022-09-11T06:54:15.686Z</time>
      </trkpt>
      <trkpt lat="44.12738" lon="2.24586">
        <ele>419</ele>
        <time>2022-09-11T06:54:16.686Z</time>
      </trkpt>
      <trkpt lat="44.12739" lon="2.24585">
        <ele>419</ele>
        <time>2022-09-11T06:54:17.686Z</time>
      </trkpt>
      <trkpt lat="44.1274" lon="2.24584">
        <ele>419</ele>
        <time>2022-09-11T06:54:18.686Z</time>
      </trkpt>
      <trkpt lat="44.12741" lon="2.24583">
        <ele>419</ele>
        <time>2022-09-11T06:54:19.686Z</time>
      </trkpt>
      <trkpt lat="44.12742" lon="2.24582">
        <ele>419</ele>
        <time>2022-09-11T06:54:20.686Z</time>
      </trkpt>
      <trkpt lat="44.12743" lon="2.24581">
        <ele>419</ele>
        <time>2022-09-11T06:54:21.686Z</time>
      </trkpt>
      <trkpt lat="44.12744" lon="2.24581">
        <ele>419</ele>
        <time>2022-09-11T06:54:22.686Z</time>
      </trkpt>
      <trkpt lat="44.12745" lon="2.2458">
        <ele>419</ele>
        <time>2022-09-11T06:54:23.686Z</time>
      </trkpt>
      <trkpt lat="44.12746" lon="2.24579">
        <ele>419</ele>
        <time>2022-09-11T06:54:24.686Z</time>
      </trkpt>
      <trkpt lat="44.12747" lon="2.24578">
        <ele>419</ele>
        <time>2022-09-11T06:54:25.686Z</time>
      </trkpt>
      <trkpt lat="44.12748" lon="2.24577">
        <ele>419</ele>
        <time>2022-09-11T06:54:26.686Z</time>
      </trkpt>
      <trkpt lat="44.1275" lon="2.24576">
        <ele>419</ele>
        <time>2022-09-11T06:54:27.686Z</time>
      </trkpt>
      <trkpt lat="44.12751" lon="2.24575">
        <ele>419</ele>
        <time>2022-09-11T06:54:28.686Z</time>
      </trkpt>
      <trkpt lat="44.12752" lon="2.24574">
        <ele>419</ele>
        <time>2022-09-11T06:54:29.686Z</time>
      </trkpt>
      <trkpt lat="44.12753" lon="2.24573">
        <ele>419</ele>
        <time>2022-09-11T06:54:30.686Z</time>
      </trkpt>
      <trkpt lat="44.12754" lon="2.24572">
        <ele>418</ele>
        <time>2022-09-11T06:54:31.686Z</time>
      </trkpt>
      <trkpt lat="44.12754" lon="2.24572">
        <ele>418</ele>
        <time>2022-09-11T06:54:32.686Z</time>
      </trkpt>
      <trkpt lat="44.12755" lon="2.24572">
        <ele>418</ele>
        <time>2022-09-11T06:54:33.686Z</time>
      </trkpt>
      <trkpt lat="44.12755" lon="2.24572">
        <ele>418</ele>
        <time>2022-09-11T06:54:34.686Z</time>
      </trkpt>
      <trkpt lat="44.12756" lon="2.24572">
        <ele>418</ele>
        <time>2022-09-11T06:54:35.686Z</time>
      </trkpt>
      <trkpt lat="44.12761" lon="2.24564">
        <ele>417</ele>
        <time>2022-09-11T06:55:15.695Z</time>
      </trkpt>
      <trkpt lat="44.12761" lon="2.24563">
        <ele>417</ele>
        <time>2022-09-11T06:55:16.695Z</time>
      </trkpt>
      <trkpt lat="44.12762" lon="2.24562">
        <ele>417</ele>
        <time>2022-09-11T06:55:17.695Z</time>
      </trkpt>
      <trkpt lat="44.12763" lon="2.24561">
        <ele>417</ele>
        <time>2022-09-11T06:55:18.695Z</time>
      </trkpt>
      <trkpt lat="44.12764" lon="2.2456">
        <ele>416</ele>
        <time>2022-09-11T06:55:19.695Z</time>
      </trkpt>
      <trkpt lat="44.12764" lon="2.24558">
        <ele>416</ele>
        <time>2022-09-11T06:55:20.695Z</time>
      </trkpt>
      <trkpt lat="44.12765" lon="2.24557">
        <ele>416</ele>
        <time>2022-09-11T06:55:21.695Z</time>
      </trkpt>
      <trkpt lat="44.12767" lon="2.24557">
        <ele>416</ele>
        <time>2022-09-11T06:55:22.695Z</time>
      </trkpt>
      <trkpt lat="44.12768" lon="2.24556">
        <ele>416</ele>
        <time>2022-09-11T06:55:23.695Z</time>
      </trkpt>
      <trkpt lat="44.12769" lon="2.24555">
        <ele>416</ele>
        <time>2022-09-11T06:55:24.695Z</time>
      </trkpt>
      <trkpt lat="44.12771" lon="2.24555">
        <ele>416</ele>
        <time>2022-09-11T06:55:25.695Z</time>
      </trkpt>
      <trkpt lat="44.12772" lon="2.24554">
        <ele>416</ele>
        <time>2022-09-11T06:55:26.695Z</time>
      </trkpt>
      <trkpt lat="44.12774" lon="2.24553">
        <ele>416</ele>
        <time>2022-09-11T06:55:27.695Z</time>
      </trkpt>
      <trkpt lat="44.12775" lon="2.24552">
        <ele>416</ele>
        <time>2022-09-11T06:55:28.695Z</time>
      </trkpt>
      <trkpt lat="44.12776" lon="2.24551">
        <ele>416</ele>
        <time>2022-09-11T06:55:29.695Z</time>
      </trkpt>
      <trkpt lat="44.12777" lon="2.24551">
        <ele>416</ele>
        <time>2022-09-11T06:55:30.695Z</time>
      </trkpt>
      <trkpt lat="44.12778" lon="2.2455">
        <ele>416</ele>
        <time>2022-09-11T06:55:31.695Z</time>
      </trkpt>
      <trkpt lat="44.12779" lon="2.24549">
        <ele>416</ele>
        <time>2022-09-11T06:55:32.695Z</time>
      </trkpt>
      <trkpt lat="44.1278" lon="2.24548">
        <ele>416</ele>
        <time>2022-09-11T06:55:33.695Z</time>
      </trkpt>
      <trkpt lat="44.12781" lon="2.24547">
        <ele>416</ele>
        <time>2022-09-11T06:55:34.695Z</time>
      </trkpt>
      <trkpt lat="44.12782" lon="2.24546">
        <ele>416</ele>
        <time>2022-09-11T06:55:35.695Z</time>
      </trkpt>
      <trkpt lat="44.12783" lon="2.24545">
        <ele>416</ele>
        <time>2022-09-11T06:55:36.695Z</time>
      </trkpt>
      <trkpt lat="44.12784" lon="2.24544">
        <ele>416</ele>
        <time>2022-09-11T06:55:37.695Z</time>
      </trkpt>
      <trkpt lat="44.12785" lon="2.24543">
        <ele>416</ele>
        <time>2022-09-11T06:55:38.695Z</time>
      </trkpt>
      <trkpt lat="44.12785" lon="2.24543">
        <ele>416</ele>
        <time>2022-09-11T06:55:39.695Z</time>
      </trkpt>
      <trkpt lat="44.12787" lon="2.24542">
        <ele>416</ele>
        <time>2022-09-11T06:55:40.695Z</time>
      </trkpt>
      <trkpt lat="44.12788" lon="2.24541">
        <ele>416</ele>
        <time>2022-09-11T06:55:41.695Z</time>
      </trkpt>
      <trkpt lat="44.12789" lon="2.2454">
        <ele>416</ele>
        <time>2022-09-11T06:55:42.695Z</time>
      </trkpt>
      <trkpt lat="44.1279" lon="2.24539">
        <ele>416</ele>
        <time>2022-09-11T06:55:43.695Z</time>
      </trkpt>
      <trkpt lat="44.12791" lon="2.24538">
        <ele>416</ele>
        <time>2022-09-11T06:55:44.695Z</time>
      </trkpt>
      <trkpt lat="44.12792" lon="2.24537">
        <ele>416</ele>
        <time>2022-09-11T06:55:45.695Z</time>
      </trkpt>
      <trkpt lat="44.12793" lon="2.24536">
        <ele>416</ele>
        <time>2022-09-11T06:55:46.695Z</time>
      </trkpt>
      <trkpt lat="44.12794" lon="2.24535">
        <ele>416</ele>
        <time>2022-09-11T06:55:47.695Z</time>
      </trkpt>
      <trkpt lat="44.12795" lon="2.24534">
        <ele>416</ele>
        <time>2022-09-11T06:55:48.695Z</time>
      </trkpt>
      <trkpt lat="44.12796" lon="2.24533">
        <ele>416</ele>
        <time>2022-09-11T06:55:49.695Z</time>
      </trkpt>
      <trkpt lat="44.12797" lon="2.24532">
        <ele>416</ele>
        <time>2022-09-11T06:55:50.695Z</time>
      </trkpt>
      <trkpt lat="44.12799" lon="2.24531">
        <ele>416</ele>
        <time>2022-09-11T06:55:51.695Z</time>
      </trkpt>
      <trkpt lat="44.128" lon="2.24531">
        <ele>415</ele>
        <time>2022-09-11T06:55:52.695Z</time>
      </trkpt>
      <trkpt lat="44.12801" lon="2.2453">
        <ele>415</ele>
        <time>2022-09-11T06:55:53.695Z</time>
      </trkpt>
      <trkpt lat="44.12803" lon="2.2453">
        <ele>415</ele>
        <time>2022-09-11T06:55:54.695Z</time>
      </trkpt>
      <trkpt lat="44.12804" lon="2.24529">
        <ele>415</ele>
        <time>2022-09-11T06:55:55.695Z</time>
      </trkpt>
      <trkpt lat="44.12805" lon="2.24528">
        <ele>415</ele>
        <time>2022-09-11T06:55:56.695Z</time>
      </trkpt>
      <trkpt lat="44.12806" lon="2.24527">
        <ele>415</ele>
        <time>2022-09-11T06:55:57.695Z</time>
      </trkpt>
      <trkpt lat="44.12807" lon="2.24526">
        <ele>415</ele>
        <time>2022-09-11T06:55:58.695Z</time>
      </trkpt>
      <trkpt lat="44.12808" lon="2.24526">
        <ele>415</ele>
        <time>2022-09-11T06:55:59.695Z</time>
      </trkpt>
      <trkpt lat="44.12809" lon="2.24525">
        <ele>415</ele>
        <time>2022-09-11T06:56:00.695Z</time>
      </trkpt>
      <trkpt lat="44.1281" lon="2.24524">
        <ele>415</ele>
        <time>2022-09-11T06:56:01.695Z</time>
      </trkpt>
      <trkpt lat="44.12811" lon="2.24523">
        <ele>415</ele>
        <time>2022-09-11T06:56:02.695Z</time>
      </trkpt>
      <trkpt lat="44.12811" lon="2.24522">
        <ele>415</ele>
        <time>2022-09-11T06:56:03.695Z</time>
      </trkpt>
      <trkpt lat="44.12812" lon="2.24522">
        <ele>415</ele>
        <time>2022-09-11T06:56:04.695Z</time>
      </trkpt>
      <trkpt lat="44.12813" lon="2.24521">
        <ele>415</ele>
        <time>2022-09-11T06:56:05.695Z</time>
      </trkpt>
      <trkpt lat="44.12814" lon="2.2452">
        <ele>415</ele>
        <time>2022-09-11T06:56:06.695Z</time>
      </trkpt>
      <trkpt lat="44.12815" lon="2.24519">
        <ele>415</ele>
        <time>2022-09-11T06:56:07.695Z</time>
      </trkpt>
      <trkpt lat="44.12815" lon="2.24518">
        <ele>415</ele>
        <time>2022-09-11T06:56:08.695Z</time>
      </trkpt>
      <trkpt lat="44.12816" lon="2.24518">
        <ele>415</ele>
        <time>2022-09-11T06:56:09.695Z</time>
      </trkpt>
      <trkpt lat="44.12817" lon="2.24516">
        <ele>415</ele>
        <time>2022-09-11T06:56:10.695Z</time>
      </trkpt>
      <trkpt lat="44.12818" lon="2.24516">
        <ele>415</ele>
        <time>2022-09-11T06:56:11.695Z</time>
      </trkpt>
      <trkpt lat="44.12818" lon="2.24514">
        <ele>415</ele>
        <time>2022-09-11T06:56:12.695Z</time>
      </trkpt>
      <trkpt lat="44.12819" lon="2.24514">
        <ele>415</ele>
        <time>2022-09-11T06:56:13.695Z</time>
      </trkpt>
      <trkpt lat="44.1282" lon="2.24513">
        <ele>415</ele>
        <time>2022-09-11T06:56:14.695Z</time>
      </trkpt>
      <trkpt lat="44.1282" lon="2.24512">
        <ele>415</ele>
        <time>2022-09-11T06:56:15.695Z</time>
      </trkpt>
      <trkpt lat="44.12821" lon="2.24511">
        <ele>415</ele>
        <time>2022-09-11T06:56:16.695Z</time>
      </trkpt>
      <trkpt lat="44.12821" lon="2.2451">
        <ele>414</ele>
        <time>2022-09-11T06:56:17.695Z</time>
      </trkpt>
      <trkpt lat="44.12822" lon="2.24509">
        <ele>414</ele>
        <time>2022-09-11T06:56:18.695Z</time>
      </trkpt>
      <trkpt lat="44.12822" lon="2.24508">
        <ele>414</ele>
        <time>2022-09-11T06:56:19.695Z</time>
      </trkpt>
      <trkpt lat="44.12823" lon="2.24507">
        <ele>414</ele>
        <time>2022-09-11T06:56:20.695Z</time>
      </trkpt>
      <trkpt lat="44.12824" lon="2.24506">
        <ele>414</ele>
        <time>2022-09-11T06:56:21.695Z</time>
      </trkpt>
      <trkpt lat="44.12824" lon="2.24505">
        <ele>414</ele>
        <time>2022-09-11T06:56:22.695Z</time>
      </trkpt>
      <trkpt lat="44.12825" lon="2.24504">
        <ele>414</ele>
        <time>2022-09-11T06:56:23.695Z</time>
      </trkpt>
      <trkpt lat="44.12826" lon="2.24503">
        <ele>414</ele>
        <time>2022-09-11T06:56:24.695Z</time>
      </trkpt>
      <trkpt lat="44.12826" lon="2.24502">
        <ele>414</ele>
        <time>2022-09-11T06:56:25.695Z</time>
      </trkpt>
      <trkpt lat="44.12827" lon="2.24501">
        <ele>414</ele>
        <time>2022-09-11T06:56:26.695Z</time>
      </trkpt>
      <trkpt lat="44.12828" lon="2.245">
        <ele>414</ele>
        <time>2022-09-11T06:56:27.695Z</time>
      </trkpt>
      <trkpt lat="44.12829" lon="2.24499">
        <ele>414</ele>
        <time>2022-09-11T06:56:28.695Z</time>
      </trkpt>
      <trkpt lat="44.1283" lon="2.24498">
        <ele>414</ele>
        <time>2022-09-11T06:56:29.695Z</time>
      </trkpt>
      <trkpt lat="44.12831" lon="2.24497">
        <ele>413</ele>
        <time>2022-09-11T06:56:30.695Z</time>
      </trkpt>
      <trkpt lat="44.12832" lon="2.24495">
        <ele>413</ele>
        <time>2022-09-11T06:56:31.695Z</time>
      </trkpt>
      <trkpt lat="44.12833" lon="2.24494">
        <ele>413</ele>
        <time>2022-09-11T06:56:32.695Z</time>
      </trkpt>
      <trkpt lat="44.12834" lon="2.24493">
        <ele>413</ele>
        <time>2022-09-11T06:56:33.695Z</time>
      </trkpt>
      <trkpt lat="44.12835" lon="2.24492">
        <ele>413</ele>
        <time>2022-09-11T06:56:34.695Z</time>
      </trkpt>
      <trkpt lat="44.12836" lon="2.24491">
        <ele>413</ele>
        <time>2022-09-11T06:56:35.695Z</time>
      </trkpt>
      <trkpt lat="44.12837" lon="2.2449">
        <ele>413</ele>
        <time>2022-09-11T06:56:36.695Z</time>
      </trkpt>
      <trkpt lat="44.12838" lon="2.24489">
        <ele>412</ele>
        <time>2022-09-11T06:56:37.695Z</time>
      </trkpt>
      <trkpt lat="44.12838" lon="2.24487">
        <ele>412</ele>
        <time>2022-09-11T06:56:38.695Z</time>
      </trkpt>
      <trkpt lat="44.12839" lon="2.24486">
        <ele>412</ele>
        <time>2022-09-11T06:56:39.695Z</time>
      </trkpt>
      <trkpt lat="44.1284" lon="2.24485">
        <ele>412</ele>
        <time>2022-09-11T06:56:40.695Z</time>
      </trkpt>
      <trkpt lat="44.12841" lon="2.24484">
        <ele>412</ele>
        <time>2022-09-11T06:56:41.695Z</time>
      </trkpt>
      <trkpt lat="44.12842" lon="2.24483">
        <ele>412</ele>
        <time>2022-09-11T06:56:42.695Z</time>
      </trkpt>
      <trkpt lat="44.12843" lon="2.24482">
        <ele>412</ele>
        <time>2022-09-11T06:56:43.695Z</time>
      </trkpt>
      <trkpt lat="44.12843" lon="2.24481">
        <ele>412</ele>
        <time>2022-09-11T06:56:44.695Z</time>
      </trkpt>
      <trkpt lat="44.12844" lon="2.2448">
        <ele>412</ele>
        <time>2022-09-11T06:56:45.695Z</time>
      </trkpt>
      <trkpt lat="44.12844" lon="2.24479">
        <ele>412</ele>
        <time>2022-09-11T06:56:46.695Z</time>
      </trkpt>
      <trkpt lat="44.12845" lon="2.24477">
        <ele>412</ele>
        <time>2022-09-11T06:56:47.695Z</time>
      </trkpt>
      <trkpt lat="44.12845" lon="2.24476">
        <ele>412</ele>
        <time>2022-09-11T06:56:48.695Z</time>
      </trkpt>
      <trkpt lat="44.12846" lon="2.24474">
        <ele>412</ele>
        <time>2022-09-11T06:56:49.695Z</time>
      </trkpt>
      <trkpt lat="44.12847" lon="2.24473">
        <ele>412</ele>
        <time>2022-09-11T06:56:50.695Z</time>
      </trkpt>
      <trkpt lat="44.12847" lon="2.24472">
        <ele>412</ele>
        <time>2022-09-11T06:56:51.695Z</time>
      </trkpt>
      <trkpt lat="44.12848" lon="2.24471">
        <ele>412</ele>
        <time>2022-09-11T06:56:52.695Z</time>
      </trkpt>
      <trkpt lat="44.12849" lon="2.2447">
        <ele>411</ele>
        <time>2022-09-11T06:56:53.695Z</time>
      </trkpt>
      <trkpt lat="44.12849" lon="2.24469">
        <ele>411</ele>
        <time>2022-09-11T06:56:54.695Z</time>
      </trkpt>
      <trkpt lat="44.1285" lon="2.24468">
        <ele>411</ele>
        <time>2022-09-11T06:56:55.695Z</time>
      </trkpt>
      <trkpt lat="44.12851" lon="2.24467">
        <ele>411</ele>
        <time>2022-09-11T06:56:56.695Z</time>
      </trkpt>
      <trkpt lat="44.12851" lon="2.24466">
        <ele>411</ele>
        <time>2022-09-11T06:56:57.695Z</time>
      </trkpt>
      <trkpt lat="44.12852" lon="2.24464">
        <ele>411</ele>
        <time>2022-09-11T06:56:58.695Z</time>
      </trkpt>
      <trkpt lat="44.12853" lon="2.24463">
        <ele>410</ele>
        <time>2022-09-11T06:56:59.695Z</time>
      </trkpt>
      <trkpt lat="44.12854" lon="2.24462">
        <ele>410</ele>
        <time>2022-09-11T06:57:00.695Z</time>
      </trkpt>
      <trkpt lat="44.12855" lon="2.24461">
        <ele>410</ele>
        <time>2022-09-11T06:57:01.695Z</time>
      </trkpt>
      <trkpt lat="44.12856" lon="2.2446">
        <ele>409</ele>
        <time>2022-09-11T06:57:02.695Z</time>
      </trkpt>
      <trkpt lat="44.12857" lon="2.24459">
        <ele>409</ele>
        <time>2022-09-11T06:57:03.695Z</time>
      </trkpt>
      <trkpt lat="44.12858" lon="2.24458">
        <ele>409</ele>
        <time>2022-09-11T06:57:04.695Z</time>
      </trkpt>
      <trkpt lat="44.12859" lon="2.24457">
        <ele>409</ele>
        <time>2022-09-11T06:57:05.695Z</time>
      </trkpt>
      <trkpt lat="44.12861" lon="2.24456">
        <ele>409</ele>
        <time>2022-09-11T06:57:06.695Z</time>
      </trkpt>
      <trkpt lat="44.12862" lon="2.24455">
        <ele>409</ele>
        <time>2022-09-11T06:57:07.695Z</time>
      </trkpt>
      <trkpt lat="44.12863" lon="2.24454">
        <ele>409</ele>
        <time>2022-09-11T06:57:08.695Z</time>
      </trkpt>
      <trkpt lat="44.12864" lon="2.24453">
        <ele>408</ele>
        <time>2022-09-11T06:57:09.695Z</time>
      </trkpt>
      <trkpt lat="44.12865" lon="2.24452">
        <ele>408</ele>
        <time>2022-09-11T06:57:10.695Z</time>
      </trkpt>
      <trkpt lat="44.12866" lon="2.24451">
        <ele>408</ele>
        <time>2022-09-11T06:57:11.695Z</time>
      </trkpt>
      <trkpt lat="44.12867" lon="2.24449">
        <ele>408</ele>
        <time>2022-09-11T06:57:12.695Z</time>
      </trkpt>
      <trkpt lat="44.12868" lon="2.24448">
        <ele>408</ele>
        <time>2022-09-11T06:57:13.695Z</time>
      </trkpt>
      <trkpt lat="44.12869" lon="2.24447">
        <ele>408</ele>
        <time>2022-09-11T06:57:14.695Z</time>
      </trkpt>
      <trkpt lat="44.1287" lon="2.24446">
        <ele>407</ele>
        <time>2022-09-11T06:57:15.695Z</time>
      </trkpt>
      <trkpt lat="44.12871" lon="2.24445">
        <ele>407</ele>
        <time>2022-09-11T06:57:16.695Z</time>
      </trkpt>
      <trkpt lat="44.12871" lon="2.24444">
        <ele>407</ele>
        <time>2022-09-11T06:57:17.695Z</time>
      </trkpt>
      <trkpt lat="44.12872" lon="2.24442">
        <ele>407</ele>
        <time>2022-09-11T06:57:18.695Z</time>
      </trkpt>
      <trkpt lat="44.12872" lon="2.24442">
        <ele>406</ele>
        <time>2022-09-11T06:57:19.695Z</time>
      </trkpt>
      <trkpt lat="44.12873" lon="2.24441">
        <ele>406</ele>
        <time>2022-09-11T06:57:20.695Z</time>
      </trkpt>
      <trkpt lat="44.12873" lon="2.2444">
        <ele>406</ele>
        <time>2022-09-11T06:57:21.695Z</time>
      </trkpt>
      <trkpt lat="44.12874" lon="2.24438">
        <ele>405</ele>
        <time>2022-09-11T06:57:22.695Z</time>
      </trkpt>
      <trkpt lat="44.12875" lon="2.24437">
        <ele>405</ele>
        <time>2022-09-11T06:57:23.695Z</time>
      </trkpt>
      <trkpt lat="44.12876" lon="2.24436">
        <ele>405</ele>
        <time>2022-09-11T06:57:24.695Z</time>
      </trkpt>
      <trkpt lat="44.12876" lon="2.24435">
        <ele>405</ele>
        <time>2022-09-11T06:57:25.695Z</time>
      </trkpt>
      <trkpt lat="44.12877" lon="2.24434">
        <ele>404</ele>
        <time>2022-09-11T06:57:26.695Z</time>
      </trkpt>
      <trkpt lat="44.12878" lon="2.24434">
        <ele>404</ele>
        <time>2022-09-11T06:57:27.695Z</time>
      </trkpt>
      <trkpt lat="44.12879" lon="2.24433">
        <ele>404</ele>
        <time>2022-09-11T06:57:28.695Z</time>
      </trkpt>
      <trkpt lat="44.1288" lon="2.24432">
        <ele>404</ele>
        <time>2022-09-11T06:57:29.695Z</time>
      </trkpt>
      <trkpt lat="44.12881" lon="2.24431">
        <ele>404</ele>
        <time>2022-09-11T06:57:30.695Z</time>
      </trkpt>
      <trkpt lat="44.12882" lon="2.2443">
        <ele>404</ele>
        <time>2022-09-11T06:57:31.695Z</time>
      </trkpt>
      <trkpt lat="44.12883" lon="2.24429">
        <ele>403</ele>
        <time>2022-09-11T06:57:32.695Z</time>
      </trkpt>
      <trkpt lat="44.12884" lon="2.24428">
        <ele>403</ele>
        <time>2022-09-11T06:57:33.695Z</time>
      </trkpt>
      <trkpt lat="44.12884" lon="2.24427">
        <ele>403</ele>
        <time>2022-09-11T06:57:34.695Z</time>
      </trkpt>
      <trkpt lat="44.12885" lon="2.24426">
        <ele>403</ele>
        <time>2022-09-11T06:57:35.695Z</time>
      </trkpt>
      <trkpt lat="44.12886" lon="2.24425">
        <ele>403</ele>
        <time>2022-09-11T06:57:36.695Z</time>
      </trkpt>
      <trkpt lat="44.12887" lon="2.24424">
        <ele>402</ele>
        <time>2022-09-11T06:57:37.695Z</time>
      </trkpt>
      <trkpt lat="44.12887" lon="2.24423">
        <ele>402</ele>
        <time>2022-09-11T06:57:38.695Z</time>
      </trkpt>
      <trkpt lat="44.12888" lon="2.24422">
        <ele>402</ele>
        <time>2022-09-11T06:57:39.695Z</time>
      </trkpt>
      <trkpt lat="44.12889" lon="2.2442">
        <ele>402</ele>
        <time>2022-09-11T06:57:40.695Z</time>
      </trkpt>
      <trkpt lat="44.12889" lon="2.24419">
        <ele>402</ele>
        <time>2022-09-11T06:57:41.695Z</time>
      </trkpt>
      <trkpt lat="44.1289" lon="2.24417">
        <ele>402</ele>
        <time>2022-09-11T06:57:42.695Z</time>
      </trkpt>
      <trkpt lat="44.12891" lon="2.24416">
        <ele>402</ele>
        <time>2022-09-11T06:57:43.695Z</time>
      </trkpt>
      <trkpt lat="44.12892" lon="2.24415">
        <ele>402</ele>
        <time>2022-09-11T06:57:44.695Z</time>
      </trkpt>
      <trkpt lat="44.12892" lon="2.24414">
        <ele>402</ele>
        <time>2022-09-11T06:57:45.695Z</time>
      </trkpt>
      <trkpt lat="44.12893" lon="2.24413">
        <ele>402</ele>
        <time>2022-09-11T06:57:46.695Z</time>
      </trkpt>
      <trkpt lat="44.12894" lon="2.24412">
        <ele>401</ele>
        <time>2022-09-11T06:57:47.695Z</time>
      </trkpt>
      <trkpt lat="44.12894" lon="2.24411">
        <ele>401</ele>
        <time>2022-09-11T06:57:48.695Z</time>
      </trkpt>
      <trkpt lat="44.12894" lon="2.24411">
        <ele>401</ele>
        <time>2022-09-11T06:57:49.695Z</time>
      </trkpt>
      <trkpt lat="44.12895" lon="2.2441">
        <ele>401</ele>
        <time>2022-09-11T06:57:50.695Z</time>
      </trkpt>
      <trkpt lat="44.12896" lon="2.24409">
        <ele>401</ele>
        <time>2022-09-11T06:57:51.695Z</time>
      </trkpt>
      <trkpt lat="44.12896" lon="2.24407">
        <ele>401</ele>
        <time>2022-09-11T06:57:52.695Z</time>
      </trkpt>
      <trkpt lat="44.12897" lon="2.24406">
        <ele>401</ele>
        <time>2022-09-11T06:57:53.695Z</time>
      </trkpt>
      <trkpt lat="44.12898" lon="2.24405">
        <ele>401</ele>
        <time>2022-09-11T06:57:54.695Z</time>
      </trkpt>
      <trkpt lat="44.12899" lon="2.24403">
        <ele>401</ele>
        <time>2022-09-11T06:57:55.695Z</time>
      </trkpt>
      <trkpt lat="44.12899" lon="2.24402">
        <ele>401</ele>
        <time>2022-09-11T06:57:56.695Z</time>
      </trkpt>
      <trkpt lat="44.129" lon="2.24401">
        <ele>401</ele>
        <time>2022-09-11T06:57:57.695Z</time>
      </trkpt>
      <trkpt lat="44.12901" lon="2.24399">
        <ele>401</ele>
        <time>2022-09-11T06:57:58.695Z</time>
      </trkpt>
      <trkpt lat="44.12901" lon="2.24398">
        <ele>401</ele>
        <time>2022-09-11T06:57:59.695Z</time>
      </trkpt>
      <trkpt lat="44.12902" lon="2.24397">
        <ele>401</ele>
        <time>2022-09-11T06:58:00.695Z</time>
      </trkpt>
      <trkpt lat="44.12902" lon="2.24395">
        <ele>401</ele>
        <time>2022-09-11T06:58:01.695Z</time>
      </trkpt>
      <trkpt lat="44.12903" lon="2.24394">
        <ele>401</ele>
        <time>2022-09-11T06:58:02.695Z</time>
      </trkpt>
      <trkpt lat="44.12903" lon="2.24393">
        <ele>401</ele>
        <time>2022-09-11T06:58:03.695Z</time>
      </trkpt>
      <trkpt lat="44.12903" lon="2.24392">
        <ele>401</ele>
        <time>2022-09-11T06:58:04.695Z</time>
      </trkpt>
      <trkpt lat="44.12904" lon="2.24391">
        <ele>401</ele>
        <time>2022-09-11T06:58:05.695Z</time>
      </trkpt>
      <trkpt lat="44.12904" lon="2.2439">
        <ele>401</ele>
        <time>2022-09-11T06:58:06.695Z</time>
      </trkpt>
      <trkpt lat="44.12905" lon="2.24389">
        <ele>401</ele>
        <time>2022-09-11T06:58:07.695Z</time>
      </trkpt>
      <trkpt lat="44.12905" lon="2.24388">
        <ele>402</ele>
        <time>2022-09-11T06:58:08.695Z</time>
      </trkpt>
      <trkpt lat="44.12906" lon="2.24387">
        <ele>402</ele>
        <time>2022-09-11T06:58:09.695Z</time>
      </trkpt>
      <trkpt lat="44.12906" lon="2.24386">
        <ele>402</ele>
        <time>2022-09-11T06:58:10.695Z</time>
      </trkpt>
      <trkpt lat="44.12906" lon="2.24384">
        <ele>402</ele>
        <time>2022-09-11T06:58:11.695Z</time>
      </trkpt>
      <trkpt lat="44.12907" lon="2.24383">
        <ele>401</ele>
        <time>2022-09-11T06:58:12.695Z</time>
      </trkpt>
      <trkpt lat="44.12907" lon="2.24382">
        <ele>401</ele>
        <time>2022-09-11T06:58:13.695Z</time>
      </trkpt>
      <trkpt lat="44.12908" lon="2.2438">
        <ele>401</ele>
        <time>2022-09-11T06:58:14.695Z</time>
      </trkpt>
      <trkpt lat="44.12909" lon="2.24379">
        <ele>401</ele>
        <time>2022-09-11T06:58:15.695Z</time>
      </trkpt>
      <trkpt lat="44.12909" lon="2.24377">
        <ele>401</ele>
        <time>2022-09-11T06:58:16.695Z</time>
      </trkpt>
      <trkpt lat="44.12909" lon="2.24375">
        <ele>401</ele>
        <time>2022-09-11T06:58:17.695Z</time>
      </trkpt>
      <trkpt lat="44.1291" lon="2.24374">
        <ele>401</ele>
        <time>2022-09-11T06:58:18.695Z</time>
      </trkpt>
      <trkpt lat="44.1291" lon="2.24372">
        <ele>401</ele>
        <time>2022-09-11T06:58:19.695Z</time>
      </trkpt>
      <trkpt lat="44.1291" lon="2.24371">
        <ele>401</ele>
        <time>2022-09-11T06:58:20.695Z</time>
      </trkpt>
      <trkpt lat="44.1291" lon="2.24369">
        <ele>401</ele>
        <time>2022-09-11T06:58:21.695Z</time>
      </trkpt>
      <trkpt lat="44.1291" lon="2.24368">
        <ele>401</ele>
        <time>2022-09-11T06:58:22.695Z</time>
      </trkpt>
      <trkpt lat="44.1291" lon="2.24366">
        <ele>401</ele>
        <time>2022-09-11T06:58:23.695Z</time>
      </trkpt>
      <trkpt lat="44.12911" lon="2.24365">
        <ele>401</ele>
        <time>2022-09-11T06:58:24.695Z</time>
      </trkpt>
      <trkpt lat="44.12911" lon="2.24363">
        <ele>401</ele>
        <time>2022-09-11T06:58:25.695Z</time>
      </trkpt>
      <trkpt lat="44.12911" lon="2.24361">
        <ele>400</ele>
        <time>2022-09-11T06:58:26.695Z</time>
      </trkpt>
      <trkpt lat="44.12911" lon="2.2436">
        <ele>400</ele>
        <time>2022-09-11T06:58:27.695Z</time>
      </trkpt>
      <trkpt lat="44.12912" lon="2.24358">
        <ele>400</ele>
        <time>2022-09-11T06:58:28.695Z</time>
      </trkpt>
      <trkpt lat="44.12912" lon="2.24357">
        <ele>400</ele>
        <time>2022-09-11T06:58:29.695Z</time>
      </trkpt>
      <trkpt lat="44.12912" lon="2.24355">
        <ele>400</ele>
        <time>2022-09-11T06:58:30.695Z</time>
      </trkpt>
      <trkpt lat="44.12913" lon="2.24354">
        <ele>400</ele>
        <time>2022-09-11T06:58:31.695Z</time>
      </trkpt>
      <trkpt lat="44.12914" lon="2.24353">
        <ele>400</ele>
        <time>2022-09-11T06:58:32.695Z</time>
      </trkpt>
      <trkpt lat="44.12914" lon="2.24351">
        <ele>400</ele>
        <time>2022-09-11T06:58:33.695Z</time>
      </trkpt>
      <trkpt lat="44.12915" lon="2.2435">
        <ele>400</ele>
        <time>2022-09-11T06:58:34.695Z</time>
      </trkpt>
      <trkpt lat="44.12916" lon="2.24349">
        <ele>400</ele>
        <time>2022-09-11T06:58:35.695Z</time>
      </trkpt>
      <trkpt lat="44.12917" lon="2.24348">
        <ele>400</ele>
        <time>2022-09-11T06:58:36.695Z</time>
      </trkpt>
      <trkpt lat="44.12918" lon="2.24347">
        <ele>400</ele>
        <time>2022-09-11T06:58:37.695Z</time>
      </trkpt>
      <trkpt lat="44.12919" lon="2.24346">
        <ele>400</ele>
        <time>2022-09-11T06:58:38.695Z</time>
      </trkpt>
      <trkpt lat="44.12919" lon="2.24345">
        <ele>400</ele>
        <time>2022-09-11T06:58:39.695Z</time>
      </trkpt>
      <trkpt lat="44.1292" lon="2.24344">
        <ele>399</ele>
        <time>2022-09-11T06:58:40.695Z</time>
      </trkpt>
      <trkpt lat="44.1292" lon="2.24343">
        <ele>399</ele>
        <time>2022-09-11T06:58:41.695Z</time>
      </trkpt>
      <trkpt lat="44.12921" lon="2.24342">
        <ele>399</ele>
        <time>2022-09-11T06:58:42.695Z</time>
      </trkpt>
      <trkpt lat="44.12922" lon="2.24342">
        <ele>399</ele>
        <time>2022-09-11T06:58:43.695Z</time>
      </trkpt>
      <trkpt lat="44.12922" lon="2.24341">
        <ele>399</ele>
        <time>2022-09-11T06:58:44.695Z</time>
      </trkpt>
      <trkpt lat="44.12923" lon="2.24341">
        <ele>399</ele>
        <time>2022-09-11T06:58:45.695Z</time>
      </trkpt>
      <trkpt lat="44.12924" lon="2.2434">
        <ele>399</ele>
        <time>2022-09-11T06:58:46.695Z</time>
      </trkpt>
      <trkpt lat="44.12925" lon="2.24339">
        <ele>399</ele>
        <time>2022-09-11T06:58:47.695Z</time>
      </trkpt>
      <trkpt lat="44.12926" lon="2.24338">
        <ele>399</ele>
        <time>2022-09-11T06:58:48.695Z</time>
      </trkpt>
      <trkpt lat="44.12927" lon="2.24338">
        <ele>399</ele>
        <time>2022-09-11T06:58:49.695Z</time>
      </trkpt>
      <trkpt lat="44.12928" lon="2.24337">
        <ele>399</ele>
        <time>2022-09-11T06:58:50.695Z</time>
      </trkpt>
      <trkpt lat="44.12929" lon="2.24336">
        <ele>399</ele>
        <time>2022-09-11T06:58:51.695Z</time>
      </trkpt>
      <trkpt lat="44.12931" lon="2.24336">
        <ele>399</ele>
        <time>2022-09-11T06:58:52.695Z</time>
      </trkpt>
      <trkpt lat="44.12932" lon="2.24335">
        <ele>399</ele>
        <time>2022-09-11T06:58:53.695Z</time>
      </trkpt>
      <trkpt lat="44.12934" lon="2.24335">
        <ele>398</ele>
        <time>2022-09-11T06:58:54.695Z</time>
      </trkpt>
      <trkpt lat="44.12935" lon="2.24334">
        <ele>398</ele>
        <time>2022-09-11T06:58:55.695Z</time>
      </trkpt>
      <trkpt lat="44.12936" lon="2.24334">
        <ele>398</ele>
        <time>2022-09-11T06:58:56.695Z</time>
      </trkpt>
      <trkpt lat="44.12937" lon="2.24333">
        <ele>398</ele>
        <time>2022-09-11T06:58:57.695Z</time>
      </trkpt>
      <trkpt lat="44.12939" lon="2.24332">
        <ele>398</ele>
        <time>2022-09-11T06:58:58.695Z</time>
      </trkpt>
      <trkpt lat="44.1294" lon="2.24332">
        <ele>398</ele>
        <time>2022-09-11T06:58:59.695Z</time>
      </trkpt>
      <trkpt lat="44.12941" lon="2.24332">
        <ele>398</ele>
        <time>2022-09-11T06:59:00.695Z</time>
      </trkpt>
      <trkpt lat="44.12941" lon="2.24332">
        <ele>398</ele>
        <time>2022-09-11T06:59:01.695Z</time>
      </trkpt>
      <trkpt lat="44.12941" lon="2.24332">
        <ele>398</ele>
        <time>2022-09-11T06:59:02.695Z</time>
      </trkpt>
      <trkpt lat="44.12942" lon="2.24332">
        <ele>398</ele>
        <time>2022-09-11T06:59:03.695Z</time>
      </trkpt>
      <trkpt lat="44.12942" lon="2.24332">
        <ele>398</ele>
        <time>2022-09-11T06:59:04.695Z</time>
      </trkpt>
      <trkpt lat="44.12943" lon="2.24332">
        <ele>398</ele>
        <time>2022-09-11T06:59:05.695Z</time>
      </trkpt>
      <trkpt lat="44.12944" lon="2.24332">
        <ele>398</ele>
        <time>2022-09-11T06:59:06.695Z</time>
      </trkpt>
      <trkpt lat="44.12945" lon="2.24332">
        <ele>398</ele>
        <time>2022-09-11T06:59:07.695Z</time>
      </trkpt>
      <trkpt lat="44.12945" lon="2.24332">
        <ele>398</ele>
        <time>2022-09-11T06:59:08.695Z</time>
      </trkpt>
      <trkpt lat="44.12946" lon="2.24332">
        <ele>398</ele>
        <time>2022-09-11T06:59:09.695Z</time>
      </trkpt>
      <trkpt lat="44.12947" lon="2.24332">
        <ele>397</ele>
        <time>2022-09-11T06:59:10.695Z</time>
      </trkpt>
      <trkpt lat="44.12948" lon="2.24332">
        <ele>397</ele>
        <time>2022-09-11T06:59:11.695Z</time>
      </trkpt>
      <trkpt lat="44.12949" lon="2.24331">
        <ele>397</ele>
        <time>2022-09-11T06:59:12.695Z</time>
      </trkpt>
      <trkpt lat="44.1295" lon="2.24331">
        <ele>397</ele>
        <time>2022-09-11T06:59:13.695Z</time>
      </trkpt>
      <trkpt lat="44.12951" lon="2.24331">
        <ele>397</ele>
        <time>2022-09-11T06:59:14.695Z</time>
      </trkpt>
      <trkpt lat="44.12952" lon="2.24331">
        <ele>397</ele>
        <time>2022-09-11T06:59:15.695Z</time>
      </trkpt>
      <trkpt lat="44.12954" lon="2.24331">
        <ele>397</ele>
        <time>2022-09-11T06:59:16.695Z</time>
      </trkpt>
      <trkpt lat="44.12955" lon="2.24331">
        <ele>397</ele>
        <time>2022-09-11T06:59:17.695Z</time>
      </trkpt>
      <trkpt lat="44.12956" lon="2.24331">
        <ele>397</ele>
        <time>2022-09-11T06:59:18.695Z</time>
      </trkpt>
      <trkpt lat="44.12957" lon="2.24331">
        <ele>397</ele>
        <time>2022-09-11T06:59:19.695Z</time>
      </trkpt>
      <trkpt lat="44.12958" lon="2.24331">
        <ele>397</ele>
        <time>2022-09-11T06:59:20.695Z</time>
      </trkpt>
      <trkpt lat="44.12959" lon="2.24331">
        <ele>397</ele>
        <time>2022-09-11T06:59:21.695Z</time>
      </trkpt>
      <trkpt lat="44.1296" lon="2.24331">
        <ele>397</ele>
        <time>2022-09-11T06:59:22.695Z</time>
      </trkpt>
      <trkpt lat="44.12961" lon="2.24331">
        <ele>397</ele>
        <time>2022-09-11T06:59:23.695Z</time>
      </trkpt>
      <trkpt lat="44.12963" lon="2.2433">
        <ele>397</ele>
        <time>2022-09-11T06:59:24.695Z</time>
      </trkpt>
      <trkpt lat="44.12964" lon="2.2433">
        <ele>397</ele>
        <time>2022-09-11T06:59:25.695Z</time>
      </trkpt>
      <trkpt lat="44.12965" lon="2.2433">
        <ele>397</ele>
        <time>2022-09-11T06:59:26.695Z</time>
      </trkpt>
      <trkpt lat="44.12966" lon="2.24331">
        <ele>396</ele>
        <time>2022-09-11T06:59:27.695Z</time>
      </trkpt>
      <trkpt lat="44.12967" lon="2.24331">
        <ele>396</ele>
        <time>2022-09-11T06:59:28.695Z</time>
      </trkpt>
      <trkpt lat="44.12968" lon="2.24331">
        <ele>396</ele>
        <time>2022-09-11T06:59:29.695Z</time>
      </trkpt>
      <trkpt lat="44.12969" lon="2.24331">
        <ele>396</ele>
        <time>2022-09-11T06:59:30.695Z</time>
      </trkpt>
      <trkpt lat="44.1297" lon="2.2433">
        <ele>396</ele>
        <time>2022-09-11T06:59:31.695Z</time>
      </trkpt>
      <trkpt lat="44.12971" lon="2.24331">
        <ele>396</ele>
        <time>2022-09-11T06:59:32.695Z</time>
      </trkpt>
      <trkpt lat="44.12973" lon="2.24331">
        <ele>396</ele>
        <time>2022-09-11T06:59:33.695Z</time>
      </trkpt>
      <trkpt lat="44.12974" lon="2.24331">
        <ele>396</ele>
        <time>2022-09-11T06:59:34.695Z</time>
      </trkpt>
      <trkpt lat="44.12975" lon="2.24332">
        <ele>395</ele>
        <time>2022-09-11T06:59:35.695Z</time>
      </trkpt>
      <trkpt lat="44.12976" lon="2.24332">
        <ele>395</ele>
        <time>2022-09-11T06:59:36.695Z</time>
      </trkpt>
      <trkpt lat="44.12977" lon="2.24332">
        <ele>395</ele>
        <time>2022-09-11T06:59:37.695Z</time>
      </trkpt>
      <trkpt lat="44.12978" lon="2.24332">
        <ele>395</ele>
        <time>2022-09-11T06:59:38.695Z</time>
      </trkpt>
      <trkpt lat="44.12979" lon="2.24332">
        <ele>395</ele>
        <time>2022-09-11T06:59:39.695Z</time>
      </trkpt>
      <trkpt lat="44.1298" lon="2.24333">
        <ele>395</ele>
        <time>2022-09-11T06:59:40.695Z</time>
      </trkpt>
      <trkpt lat="44.12982" lon="2.24333">
        <ele>395</ele>
        <time>2022-09-11T06:59:41.695Z</time>
      </trkpt>
      <trkpt lat="44.12983" lon="2.24333">
        <ele>395</ele>
        <time>2022-09-11T06:59:42.695Z</time>
      </trkpt>
      <trkpt lat="44.12985" lon="2.24333">
        <ele>394</ele>
        <time>2022-09-11T06:59:43.695Z</time>
      </trkpt>
      <trkpt lat="44.12986" lon="2.24333">
        <ele>394</ele>
        <time>2022-09-11T06:59:44.695Z</time>
      </trkpt>
      <trkpt lat="44.12987" lon="2.24332">
        <ele>394</ele>
        <time>2022-09-11T06:59:45.695Z</time>
      </trkpt>
      <trkpt lat="44.12988" lon="2.24332">
        <ele>394</ele>
        <time>2022-09-11T06:59:46.695Z</time>
      </trkpt>
      <trkpt lat="44.1299" lon="2.24332">
        <ele>394</ele>
        <time>2022-09-11T06:59:47.695Z</time>
      </trkpt>
      <trkpt lat="44.12991" lon="2.24332">
        <ele>394</ele>
        <time>2022-09-11T06:59:48.695Z</time>
      </trkpt>
      <trkpt lat="44.12992" lon="2.24333">
        <ele>394</ele>
        <time>2022-09-11T06:59:49.695Z</time>
      </trkpt>
      <trkpt lat="44.12994" lon="2.24333">
        <ele>394</ele>
        <time>2022-09-11T06:59:50.695Z</time>
      </trkpt>
      <trkpt lat="44.12995" lon="2.24333">
        <ele>394</ele>
        <time>2022-09-11T06:59:51.695Z</time>
      </trkpt>
      <trkpt lat="44.12996" lon="2.24333">
        <ele>393</ele>
        <time>2022-09-11T06:59:52.695Z</time>
      </trkpt>
      <trkpt lat="44.12997" lon="2.24333">
        <ele>393</ele>
        <time>2022-09-11T06:59:53.695Z</time>
      </trkpt>
      <trkpt lat="44.12999" lon="2.24333">
        <ele>393</ele>
        <time>2022-09-11T06:59:54.695Z</time>
      </trkpt>
      <trkpt lat="44.13" lon="2.24333">
        <ele>393</ele>
        <time>2022-09-11T06:59:55.695Z</time>
      </trkpt>
      <trkpt lat="44.13001" lon="2.24333">
        <ele>393</ele>
        <time>2022-09-11T06:59:56.695Z</time>
      </trkpt>
      <trkpt lat="44.13003" lon="2.24333">
        <ele>393</ele>
        <time>2022-09-11T06:59:57.695Z</time>
      </trkpt>
      <trkpt lat="44.13004" lon="2.24333">
        <ele>393</ele>
        <time>2022-09-11T06:59:58.695Z</time>
      </trkpt>
      <trkpt lat="44.13005" lon="2.24333">
        <ele>393</ele>
        <time>2022-09-11T06:59:59.695Z</time>
      </trkpt>
      <trkpt lat="44.13006" lon="2.24333">
        <ele>393</ele>
        <time>2022-09-11T07:00:00.695Z</time>
      </trkpt>
      <trkpt lat="44.13007" lon="2.24332">
        <ele>393</ele>
        <time>2022-09-11T07:00:01.695Z</time>
      </trkpt>
      <trkpt lat="44.13008" lon="2.24332">
        <ele>392</ele>
        <time>2022-09-11T07:00:02.695Z</time>
      </trkpt>
      <trkpt lat="44.1301" lon="2.24333">
        <ele>392</ele>
        <time>2022-09-11T07:00:03.695Z</time>
      </trkpt>
      <trkpt lat="44.13011" lon="2.24333">
        <ele>392</ele>
        <time>2022-09-11T07:00:04.695Z</time>
      </trkpt>
      <trkpt lat="44.13013" lon="2.24333">
        <ele>392</ele>
        <time>2022-09-11T07:00:05.695Z</time>
      </trkpt>
      <trkpt lat="44.13014" lon="2.24333">
        <ele>392</ele>
        <time>2022-09-11T07:00:06.695Z</time>
      </trkpt>
      <trkpt lat="44.13015" lon="2.24333">
        <ele>392</ele>
        <time>2022-09-11T07:00:07.695Z</time>
      </trkpt>
      <trkpt lat="44.13016" lon="2.24333">
        <ele>392</ele>
        <time>2022-09-11T07:00:08.695Z</time>
      </trkpt>
      <trkpt lat="44.13018" lon="2.24333">
        <ele>392</ele>
        <time>2022-09-11T07:00:09.695Z</time>
      </trkpt>
      <trkpt lat="44.13019" lon="2.24332">
        <ele>392</ele>
        <time>2022-09-11T07:00:10.695Z</time>
      </trkpt>
      <trkpt lat="44.1302" lon="2.24332">
        <ele>392</ele>
        <time>2022-09-11T07:00:11.695Z</time>
      </trkpt>
      <trkpt lat="44.13022" lon="2.24332">
        <ele>392</ele>
        <time>2022-09-11T07:00:12.695Z</time>
      </trkpt>
      <trkpt lat="44.13023" lon="2.24332">
        <ele>392</ele>
        <time>2022-09-11T07:00:13.695Z</time>
      </trkpt>
      <trkpt lat="44.13024" lon="2.24332">
        <ele>392</ele>
        <time>2022-09-11T07:00:14.695Z</time>
      </trkpt>
      <trkpt lat="44.13025" lon="2.24332">
        <ele>392</ele>
        <time>2022-09-11T07:00:15.695Z</time>
      </trkpt>
      <trkpt lat="44.13025" lon="2.24332">
        <ele>392</ele>
        <time>2022-09-11T07:00:16.695Z</time>
      </trkpt>
      <trkpt lat="44.13026" lon="2.24331">
        <ele>391</ele>
        <time>2022-09-11T07:00:17.695Z</time>
      </trkpt>
      <trkpt lat="44.13027" lon="2.24331">
        <ele>391</ele>
        <time>2022-09-11T07:00:18.695Z</time>
      </trkpt>
      <trkpt lat="44.13028" lon="2.24331">
        <ele>391</ele>
        <time>2022-09-11T07:00:19.695Z</time>
      </trkpt>
      <trkpt lat="44.13029" lon="2.24331">
        <ele>391</ele>
        <time>2022-09-11T07:00:20.695Z</time>
      </trkpt>
      <trkpt lat="44.1303" lon="2.24331">
        <ele>391</ele>
        <time>2022-09-11T07:00:21.695Z</time>
      </trkpt>
      <trkpt lat="44.1303" lon="2.24331">
        <ele>391</ele>
        <time>2022-09-11T07:00:22.695Z</time>
      </trkpt>
      <trkpt lat="44.1303" lon="2.24331">
        <ele>391</ele>
        <time>2022-09-11T07:00:23.695Z</time>
      </trkpt>
      <trkpt lat="44.13033" lon="2.24331">
        <ele>392</ele>
        <time>2022-09-11T07:01:04.705Z</time>
      </trkpt>
      <trkpt lat="44.13034" lon="2.24331">
        <ele>392</ele>
        <time>2022-09-11T07:01:05.705Z</time>
      </trkpt>
      <trkpt lat="44.13035" lon="2.24331">
        <ele>392</ele>
        <time>2022-09-11T07:01:06.705Z</time>
      </trkpt>
      <trkpt lat="44.13036" lon="2.24331">
        <ele>392</ele>
        <time>2022-09-11T07:01:07.705Z</time>
      </trkpt>
      <trkpt lat="44.13037" lon="2.24331">
        <ele>392</ele>
        <time>2022-09-11T07:01:08.705Z</time>
      </trkpt>
      <trkpt lat="44.13038" lon="2.24331">
        <ele>392</ele>
        <time>2022-09-11T07:01:09.705Z</time>
      </trkpt>
      <trkpt lat="44.13039" lon="2.24332">
        <ele>392</ele>
        <time>2022-09-11T07:01:10.705Z</time>
      </trkpt>
      <trkpt lat="44.1304" lon="2.24332">
        <ele>392</ele>
        <time>2022-09-11T07:01:11.705Z</time>
      </trkpt>
      <trkpt lat="44.13041" lon="2.24332">
        <ele>392</ele>
        <time>2022-09-11T07:01:12.705Z</time>
      </trkpt>
      <trkpt lat="44.13042" lon="2.24332">
        <ele>392</ele>
        <time>2022-09-11T07:01:13.705Z</time>
      </trkpt>
      <trkpt lat="44.13043" lon="2.24333">
        <ele>392</ele>
        <time>2022-09-11T07:01:14.705Z</time>
      </trkpt>
      <trkpt lat="44.13044" lon="2.24333">
        <ele>392</ele>
        <time>2022-09-11T07:01:15.705Z</time>
      </trkpt>
      <trkpt lat="44.13045" lon="2.24333">
        <ele>392</ele>
        <time>2022-09-11T07:01:16.705Z</time>
      </trkpt>
      <trkpt lat="44.13046" lon="2.24332">
        <ele>391</ele>
        <time>2022-09-11T07:01:17.705Z</time>
      </trkpt>
      <trkpt lat="44.13047" lon="2.24332">
        <ele>392</ele>
        <time>2022-09-11T07:01:18.705Z</time>
      </trkpt>
      <trkpt lat="44.13048" lon="2.24332">
        <ele>392</ele>
        <time>2022-09-11T07:01:19.705Z</time>
      </trkpt>
      <trkpt lat="44.13049" lon="2.24331">
        <ele>391</ele>
        <time>2022-09-11T07:01:20.705Z</time>
      </trkpt>
      <trkpt lat="44.1305" lon="2.24331">
        <ele>391</ele>
        <time>2022-09-11T07:01:21.705Z</time>
      </trkpt>
      <trkpt lat="44.13051" lon="2.24331">
        <ele>391</ele>
        <time>2022-09-11T07:01:22.705Z</time>
      </trkpt>
      <trkpt lat="44.13052" lon="2.24331">
        <ele>391</ele>
        <time>2022-09-11T07:01:23.705Z</time>
      </trkpt>
      <trkpt lat="44.13053" lon="2.24331">
        <ele>391</ele>
        <time>2022-09-11T07:01:24.705Z</time>
      </trkpt>
      <trkpt lat="44.13055" lon="2.24331">
        <ele>391</ele>
        <time>2022-09-11T07:01:25.705Z</time>
      </trkpt>
      <trkpt lat="44.13056" lon="2.24331">
        <ele>391</ele>
        <time>2022-09-11T07:01:26.705Z</time>
      </trkpt>
      <trkpt lat="44.13056" lon="2.24331">
        <ele>391</ele>
        <time>2022-09-11T07:01:27.705Z</time>
      </trkpt>
      <trkpt lat="44.13057" lon="2.24331">
        <ele>391</ele>
        <time>2022-09-11T07:01:28.705Z</time>
      </trkpt>
      <trkpt lat="44.13058" lon="2.24331">
        <ele>391</ele>
        <time>2022-09-11T07:01:29.705Z</time>
      </trkpt>
      <trkpt lat="44.1306" lon="2.24331">
        <ele>391</ele>
        <time>2022-09-11T07:01:30.705Z</time>
      </trkpt>
      <trkpt lat="44.13061" lon="2.24331">
        <ele>391</ele>
        <time>2022-09-11T07:01:31.705Z</time>
      </trkpt>
      <trkpt lat="44.13062" lon="2.2433">
        <ele>391</ele>
        <time>2022-09-11T07:01:32.705Z</time>
      </trkpt>
      <trkpt lat="44.13063" lon="2.2433">
        <ele>390</ele>
        <time>2022-09-11T07:01:33.705Z</time>
      </trkpt>
      <trkpt lat="44.13064" lon="2.2433">
        <ele>390</ele>
        <time>2022-09-11T07:01:34.705Z</time>
      </trkpt>
      <trkpt lat="44.13065" lon="2.2433">
        <ele>390</ele>
        <time>2022-09-11T07:01:35.705Z</time>
      </trkpt>
      <trkpt lat="44.13066" lon="2.2433">
        <ele>390</ele>
        <time>2022-09-11T07:01:36.705Z</time>
      </trkpt>
      <trkpt lat="44.13067" lon="2.24329">
        <ele>390</ele>
        <time>2022-09-11T07:01:37.705Z</time>
      </trkpt>
      <trkpt lat="44.13068" lon="2.24329">
        <ele>390</ele>
        <time>2022-09-11T07:01:38.705Z</time>
      </trkpt>
      <trkpt lat="44.13069" lon="2.24329">
        <ele>389</ele>
        <time>2022-09-11T07:01:39.705Z</time>
      </trkpt>
      <trkpt lat="44.1307" lon="2.24329">
        <ele>389</ele>
        <time>2022-09-11T07:01:40.705Z</time>
      </trkpt>
      <trkpt lat="44.13071" lon="2.24329">
        <ele>389</ele>
        <time>2022-09-11T07:01:41.705Z</time>
      </trkpt>
      <trkpt lat="44.13072" lon="2.24329">
        <ele>389</ele>
        <time>2022-09-11T07:01:42.705Z</time>
      </trkpt>
      <trkpt lat="44.13073" lon="2.24328">
        <ele>389</ele>
        <time>2022-09-11T07:01:43.705Z</time>
      </trkpt>
      <trkpt lat="44.13075" lon="2.24328">
        <ele>388</ele>
        <time>2022-09-11T07:01:44.705Z</time>
      </trkpt>
      <trkpt lat="44.13076" lon="2.24329">
        <ele>388</ele>
        <time>2022-09-11T07:01:45.705Z</time>
      </trkpt>
      <trkpt lat="44.13077" lon="2.24328">
        <ele>388</ele>
        <time>2022-09-11T07:01:46.705Z</time>
      </trkpt>
      <trkpt lat="44.13078" lon="2.24328">
        <ele>388</ele>
        <time>2022-09-11T07:01:47.705Z</time>
      </trkpt>
      <trkpt lat="44.13079" lon="2.24328">
        <ele>387</ele>
        <time>2022-09-11T07:01:48.705Z</time>
      </trkpt>
      <trkpt lat="44.1308" lon="2.24328">
        <ele>387</ele>
        <time>2022-09-11T07:01:49.705Z</time>
      </trkpt>
      <trkpt lat="44.13081" lon="2.24328">
        <ele>387</ele>
        <time>2022-09-11T07:01:50.705Z</time>
      </trkpt>
      <trkpt lat="44.13082" lon="2.24328">
        <ele>387</ele>
        <time>2022-09-11T07:01:51.705Z</time>
      </trkpt>
      <trkpt lat="44.13083" lon="2.24328">
        <ele>387</ele>
        <time>2022-09-11T07:01:52.705Z</time>
      </trkpt>
      <trkpt lat="44.13084" lon="2.24328">
        <ele>387</ele>
        <time>2022-09-11T07:01:53.705Z</time>
      </trkpt>
      <trkpt lat="44.13085" lon="2.24327">
        <ele>387</ele>
        <time>2022-09-11T07:01:54.705Z</time>
      </trkpt>
      <trkpt lat="44.13086" lon="2.24327">
        <ele>387</ele>
        <time>2022-09-11T07:01:55.705Z</time>
      </trkpt>
      <trkpt lat="44.13087" lon="2.24327">
        <ele>387</ele>
        <time>2022-09-11T07:01:56.705Z</time>
      </trkpt>
      <trkpt lat="44.13088" lon="2.24327">
        <ele>387</ele>
        <time>2022-09-11T07:01:57.705Z</time>
      </trkpt>
      <trkpt lat="44.1309" lon="2.24327">
        <ele>386</ele>
        <time>2022-09-11T07:01:58.705Z</time>
      </trkpt>
      <trkpt lat="44.13091" lon="2.24326">
        <ele>386</ele>
        <time>2022-09-11T07:01:59.705Z</time>
      </trkpt>
      <trkpt lat="44.13092" lon="2.24326">
        <ele>386</ele>
        <time>2022-09-11T07:02:00.705Z</time>
      </trkpt>
      <trkpt lat="44.13094" lon="2.24326">
        <ele>386</ele>
        <time>2022-09-11T07:02:01.705Z</time>
      </trkpt>
      <trkpt lat="44.13095" lon="2.24326">
        <ele>386</ele>
        <time>2022-09-11T07:02:02.705Z</time>
      </trkpt>
      <trkpt lat="44.13096" lon="2.24326">
        <ele>386</ele>
        <time>2022-09-11T07:02:03.705Z</time>
      </trkpt>
      <trkpt lat="44.13098" lon="2.24326">
        <ele>386</ele>
        <time>2022-09-11T07:02:04.705Z</time>
      </trkpt>
      <trkpt lat="44.13099" lon="2.24326">
        <ele>385</ele>
        <time>2022-09-11T07:02:05.705Z</time>
      </trkpt>
      <trkpt lat="44.13101" lon="2.24326">
        <ele>385</ele>
        <time>2022-09-11T07:02:06.705Z</time>
      </trkpt>
      <trkpt lat="44.13102" lon="2.24325">
        <ele>385</ele>
        <time>2022-09-11T07:02:07.705Z</time>
      </trkpt>
      <trkpt lat="44.13104" lon="2.24325">
        <ele>385</ele>
        <time>2022-09-11T07:02:08.705Z</time>
      </trkpt>
      <trkpt lat="44.13106" lon="2.24325">
        <ele>385</ele>
        <time>2022-09-11T07:02:09.705Z</time>
      </trkpt>
      <trkpt lat="44.13107" lon="2.24325">
        <ele>385</ele>
        <time>2022-09-11T07:02:10.705Z</time>
      </trkpt>
      <trkpt lat="44.13108" lon="2.24325">
        <ele>384</ele>
        <time>2022-09-11T07:02:11.705Z</time>
      </trkpt>
      <trkpt lat="44.13109" lon="2.24325">
        <ele>384</ele>
        <time>2022-09-11T07:02:12.705Z</time>
      </trkpt>
      <trkpt lat="44.1311" lon="2.24325">
        <ele>384</ele>
        <time>2022-09-11T07:02:13.705Z</time>
      </trkpt>
      <trkpt lat="44.13112" lon="2.24325">
        <ele>384</ele>
        <time>2022-09-11T07:02:14.705Z</time>
      </trkpt>
      <trkpt lat="44.13113" lon="2.24325">
        <ele>384</ele>
        <time>2022-09-11T07:02:15.705Z</time>
      </trkpt>
      <trkpt lat="44.13114" lon="2.24325">
        <ele>384</ele>
        <time>2022-09-11T07:02:16.705Z</time>
      </trkpt>
      <trkpt lat="44.13115" lon="2.24325">
        <ele>384</ele>
        <time>2022-09-11T07:02:17.705Z</time>
      </trkpt>
      <trkpt lat="44.13117" lon="2.24325">
        <ele>384</ele>
        <time>2022-09-11T07:02:18.705Z</time>
      </trkpt>
      <trkpt lat="44.13118" lon="2.24325">
        <ele>384</ele>
        <time>2022-09-11T07:02:19.705Z</time>
      </trkpt>
      <trkpt lat="44.13119" lon="2.24325">
        <ele>383</ele>
        <time>2022-09-11T07:02:20.705Z</time>
      </trkpt>
      <trkpt lat="44.1312" lon="2.24325">
        <ele>383</ele>
        <time>2022-09-11T07:02:21.705Z</time>
      </trkpt>
      <trkpt lat="44.13122" lon="2.24325">
        <ele>383</ele>
        <time>2022-09-11T07:02:22.705Z</time>
      </trkpt>
      <trkpt lat="44.13123" lon="2.24325">
        <ele>383</ele>
        <time>2022-09-11T07:02:23.705Z</time>
      </trkpt>
      <trkpt lat="44.13125" lon="2.24325">
        <ele>383</ele>
        <time>2022-09-11T07:02:24.705Z</time>
      </trkpt>
      <trkpt lat="44.13126" lon="2.24324">
        <ele>383</ele>
        <time>2022-09-11T07:02:25.705Z</time>
      </trkpt>
      <trkpt lat="44.13127" lon="2.24324">
        <ele>383</ele>
        <time>2022-09-11T07:02:26.705Z</time>
      </trkpt>
      <trkpt lat="44.13128" lon="2.24324">
        <ele>383</ele>
        <time>2022-09-11T07:02:27.705Z</time>
      </trkpt>
      <trkpt lat="44.13129" lon="2.24324">
        <ele>383</ele>
        <time>2022-09-11T07:02:28.705Z</time>
      </trkpt>
      <trkpt lat="44.1313" lon="2.24324">
        <ele>383</ele>
        <time>2022-09-11T07:02:29.705Z</time>
      </trkpt>
      <trkpt lat="44.13131" lon="2.24324">
        <ele>383</ele>
        <time>2022-09-11T07:02:30.705Z</time>
      </trkpt>
      <trkpt lat="44.13132" lon="2.24324">
        <ele>383</ele>
        <time>2022-09-11T07:02:31.705Z</time>
      </trkpt>
      <trkpt lat="44.13133" lon="2.24324">
        <ele>383</ele>
        <time>2022-09-11T07:02:32.705Z</time>
      </trkpt>
      <trkpt lat="44.13134" lon="2.24324">
        <ele>383</ele>
        <time>2022-09-11T07:02:33.705Z</time>
      </trkpt>
      <trkpt lat="44.13135" lon="2.24323">
        <ele>383</ele>
        <time>2022-09-11T07:02:34.705Z</time>
      </trkpt>
      <trkpt lat="44.13137" lon="2.24323">
        <ele>382</ele>
        <time>2022-09-11T07:02:35.705Z</time>
      </trkpt>
      <trkpt lat="44.13137" lon="2.24323">
        <ele>382</ele>
        <time>2022-09-11T07:02:36.705Z</time>
      </trkpt>
      <trkpt lat="44.13138" lon="2.24322">
        <ele>382</ele>
        <time>2022-09-11T07:02:37.705Z</time>
      </trkpt>
      <trkpt lat="44.13139" lon="2.24322">
        <ele>382</ele>
        <time>2022-09-11T07:02:38.705Z</time>
      </trkpt>
      <trkpt lat="44.1314" lon="2.24321">
        <ele>382</ele>
        <time>2022-09-11T07:02:39.705Z</time>
      </trkpt>
      <trkpt lat="44.13141" lon="2.24321">
        <ele>382</ele>
        <time>2022-09-11T07:02:40.705Z</time>
      </trkpt>
      <trkpt lat="44.13142" lon="2.24321">
        <ele>382</ele>
        <time>2022-09-11T07:02:41.705Z</time>
      </trkpt>
      <trkpt lat="44.13142" lon="2.24321">
        <ele>382</ele>
        <time>2022-09-11T07:02:42.705Z</time>
      </trkpt>
      <trkpt lat="44.13143" lon="2.2432">
        <ele>382</ele>
        <time>2022-09-11T07:02:43.705Z</time>
      </trkpt>
      <trkpt lat="44.13145" lon="2.2432">
        <ele>382</ele>
        <time>2022-09-11T07:02:44.705Z</time>
      </trkpt>
      <trkpt lat="44.13146" lon="2.24319">
        <ele>381</ele>
        <time>2022-09-11T07:02:45.705Z</time>
      </trkpt>
      <trkpt lat="44.13147" lon="2.24319">
        <ele>381</ele>
        <time>2022-09-11T07:02:46.705Z</time>
      </trkpt>
      <trkpt lat="44.13148" lon="2.24319">
        <ele>381</ele>
        <time>2022-09-11T07:02:47.705Z</time>
      </trkpt>
      <trkpt lat="44.1315" lon="2.24319">
        <ele>381</ele>
        <time>2022-09-11T07:02:48.705Z</time>
      </trkpt>
      <trkpt lat="44.13151" lon="2.2432">
        <ele>381</ele>
        <time>2022-09-11T07:02:49.705Z</time>
      </trkpt>
      <trkpt lat="44.13152" lon="2.2432">
        <ele>381</ele>
        <time>2022-09-11T07:02:50.705Z</time>
      </trkpt>
      <trkpt lat="44.13154" lon="2.2432">
        <ele>380</ele>
        <time>2022-09-11T07:02:51.705Z</time>
      </trkpt>
      <trkpt lat="44.13155" lon="2.2432">
        <ele>380</ele>
        <time>2022-09-11T07:02:52.705Z</time>
      </trkpt>
      <trkpt lat="44.13157" lon="2.2432">
        <ele>380</ele>
        <time>2022-09-11T07:02:53.705Z</time>
      </trkpt>
      <trkpt lat="44.13158" lon="2.2432">
        <ele>380</ele>
        <time>2022-09-11T07:02:54.705Z</time>
      </trkpt>
      <trkpt lat="44.13159" lon="2.2432">
        <ele>380</ele>
        <time>2022-09-11T07:02:55.705Z</time>
      </trkpt>
      <trkpt lat="44.1316" lon="2.2432">
        <ele>380</ele>
        <time>2022-09-11T07:02:56.705Z</time>
      </trkpt>
      <trkpt lat="44.13162" lon="2.2432">
        <ele>380</ele>
        <time>2022-09-11T07:02:57.705Z</time>
      </trkpt>
      <trkpt lat="44.13163" lon="2.24319">
        <ele>380</ele>
        <time>2022-09-11T07:02:58.705Z</time>
      </trkpt>
      <trkpt lat="44.13164" lon="2.24319">
        <ele>379</ele>
        <time>2022-09-11T07:02:59.705Z</time>
      </trkpt>
      <trkpt lat="44.13165" lon="2.24319">
        <ele>379</ele>
        <time>2022-09-11T07:03:00.705Z</time>
      </trkpt>
      <trkpt lat="44.13166" lon="2.24318">
        <ele>379</ele>
        <time>2022-09-11T07:03:01.705Z</time>
      </trkpt>
      <trkpt lat="44.13167" lon="2.24318">
        <ele>379</ele>
        <time>2022-09-11T07:03:02.705Z</time>
      </trkpt>
      <trkpt lat="44.13168" lon="2.24318">
        <ele>379</ele>
        <time>2022-09-11T07:03:03.705Z</time>
      </trkpt>
      <trkpt lat="44.13169" lon="2.24318">
        <ele>379</ele>
        <time>2022-09-11T07:03:04.705Z</time>
      </trkpt>
      <trkpt lat="44.1317" lon="2.24318">
        <ele>379</ele>
        <time>2022-09-11T07:03:05.705Z</time>
      </trkpt>
      <trkpt lat="44.13172" lon="2.24317">
        <ele>379</ele>
        <time>2022-09-11T07:03:06.705Z</time>
      </trkpt>
      <trkpt lat="44.13173" lon="2.24317">
        <ele>379</ele>
        <time>2022-09-11T07:03:07.705Z</time>
      </trkpt>
      <trkpt lat="44.13174" lon="2.24317">
        <ele>378</ele>
        <time>2022-09-11T07:03:08.705Z</time>
      </trkpt>
      <trkpt lat="44.13175" lon="2.24316">
        <ele>378</ele>
        <time>2022-09-11T07:03:09.705Z</time>
      </trkpt>
      <trkpt lat="44.13176" lon="2.24316">
        <ele>378</ele>
        <time>2022-09-11T07:03:10.705Z</time>
      </trkpt>
      <trkpt lat="44.13177" lon="2.24316">
        <ele>378</ele>
        <time>2022-09-11T07:03:11.705Z</time>
      </trkpt>
      <trkpt lat="44.13177" lon="2.24316">
        <ele>378</ele>
        <time>2022-09-11T07:03:12.705Z</time>
      </trkpt>
      <trkpt lat="44.13178" lon="2.24316">
        <ele>378</ele>
        <time>2022-09-11T07:03:13.705Z</time>
      </trkpt>
      <trkpt lat="44.13179" lon="2.24316">
        <ele>378</ele>
        <time>2022-09-11T07:03:14.705Z</time>
      </trkpt>
      <trkpt lat="44.1318" lon="2.24316">
        <ele>378</ele>
        <time>2022-09-11T07:03:15.705Z</time>
      </trkpt>
      <trkpt lat="44.13181" lon="2.24316">
        <ele>378</ele>
        <time>2022-09-11T07:03:16.705Z</time>
      </trkpt>
      <trkpt lat="44.13182" lon="2.24316">
        <ele>378</ele>
        <time>2022-09-11T07:03:17.705Z</time>
      </trkpt>
      <trkpt lat="44.13182" lon="2.24316">
        <ele>378</ele>
        <time>2022-09-11T07:03:18.705Z</time>
      </trkpt>
      <trkpt lat="44.13183" lon="2.24316">
        <ele>378</ele>
        <time>2022-09-11T07:03:19.705Z</time>
      </trkpt>
      <trkpt lat="44.13184" lon="2.24316">
        <ele>378</ele>
        <time>2022-09-11T07:03:20.705Z</time>
      </trkpt>
      <trkpt lat="44.13186" lon="2.24316">
        <ele>378</ele>
        <time>2022-09-11T07:03:21.705Z</time>
      </trkpt>
      <trkpt lat="44.13187" lon="2.24316">
        <ele>377</ele>
        <time>2022-09-11T07:03:22.705Z</time>
      </trkpt>
      <trkpt lat="44.13188" lon="2.24316">
        <ele>377</ele>
        <time>2022-09-11T07:03:23.705Z</time>
      </trkpt>
      <trkpt lat="44.13189" lon="2.24315">
        <ele>377</ele>
        <time>2022-09-11T07:03:24.705Z</time>
      </trkpt>
      <trkpt lat="44.1319" lon="2.24315">
        <ele>377</ele>
        <time>2022-09-11T07:03:25.705Z</time>
      </trkpt>
      <trkpt lat="44.13191" lon="2.24315">
        <ele>377</ele>
        <time>2022-09-11T07:03:26.705Z</time>
      </trkpt>
      <trkpt lat="44.13192" lon="2.24315">
        <ele>377</ele>
        <time>2022-09-11T07:03:27.705Z</time>
      </trkpt>
      <trkpt lat="44.13193" lon="2.24315">
        <ele>377</ele>
        <time>2022-09-11T07:03:28.705Z</time>
      </trkpt>
      <trkpt lat="44.13194" lon="2.24315">
        <ele>377</ele>
        <time>2022-09-11T07:03:29.705Z</time>
      </trkpt>
      <trkpt lat="44.13195" lon="2.24315">
        <ele>377</ele>
        <time>2022-09-11T07:03:30.705Z</time>
      </trkpt>
      <trkpt lat="44.13196" lon="2.24314">
        <ele>377</ele>
        <time>2022-09-11T07:03:31.705Z</time>
      </trkpt>
      <trkpt lat="44.13198" lon="2.24314">
        <ele>377</ele>
        <time>2022-09-11T07:03:32.705Z</time>
      </trkpt>
      <trkpt lat="44.13199" lon="2.24314">
        <ele>377</ele>
        <time>2022-09-11T07:03:33.705Z</time>
      </trkpt>
      <trkpt lat="44.132" lon="2.24314">
        <ele>376</ele>
        <time>2022-09-11T07:03:34.705Z</time>
      </trkpt>
      <trkpt lat="44.13201" lon="2.24314">
        <ele>376</ele>
        <time>2022-09-11T07:03:35.705Z</time>
      </trkpt>
      <trkpt lat="44.13202" lon="2.24314">
        <ele>376</ele>
        <time>2022-09-11T07:03:36.705Z</time>
      </trkpt>
      <trkpt lat="44.13203" lon="2.24314">
        <ele>376</ele>
        <time>2022-09-11T07:03:37.705Z</time>
      </trkpt>
      <trkpt lat="44.13204" lon="2.24314">
        <ele>376</ele>
        <time>2022-09-11T07:03:38.705Z</time>
      </trkpt>
      <trkpt lat="44.13205" lon="2.24314">
        <ele>376</ele>
        <time>2022-09-11T07:03:39.705Z</time>
      </trkpt>
      <trkpt lat="44.13206" lon="2.24314">
        <ele>375</ele>
        <time>2022-09-11T07:03:40.705Z</time>
      </trkpt>
      <trkpt lat="44.13207" lon="2.24314">
        <ele>375</ele>
        <time>2022-09-11T07:03:41.705Z</time>
      </trkpt>
      <trkpt lat="44.13208" lon="2.24314">
        <ele>375</ele>
        <time>2022-09-11T07:03:42.705Z</time>
      </trkpt>
      <trkpt lat="44.13209" lon="2.24314">
        <ele>375</ele>
        <time>2022-09-11T07:03:43.705Z</time>
      </trkpt>
      <trkpt lat="44.1321" lon="2.24314">
        <ele>375</ele>
        <time>2022-09-11T07:03:44.705Z</time>
      </trkpt>
      <trkpt lat="44.13211" lon="2.24314">
        <ele>375</ele>
        <time>2022-09-11T07:03:45.705Z</time>
      </trkpt>
      <trkpt lat="44.13212" lon="2.24314">
        <ele>375</ele>
        <time>2022-09-11T07:03:46.705Z</time>
      </trkpt>
      <trkpt lat="44.13213" lon="2.24315">
        <ele>374</ele>
        <time>2022-09-11T07:03:47.705Z</time>
      </trkpt>
      <trkpt lat="44.13214" lon="2.24315">
        <ele>374</ele>
        <time>2022-09-11T07:03:48.705Z</time>
      </trkpt>
      <trkpt lat="44.13215" lon="2.24315">
        <ele>374</ele>
        <time>2022-09-11T07:03:49.705Z</time>
      </trkpt>
      <trkpt lat="44.13216" lon="2.24315">
        <ele>374</ele>
        <time>2022-09-11T07:03:50.705Z</time>
      </trkpt>
      <trkpt lat="44.13217" lon="2.24315">
        <ele>374</ele>
        <time>2022-09-11T07:03:51.705Z</time>
      </trkpt>
      <trkpt lat="44.13218" lon="2.24315">
        <ele>374</ele>
        <time>2022-09-11T07:03:52.705Z</time>
      </trkpt>
      <trkpt lat="44.13219" lon="2.24315">
        <ele>374</ele>
        <time>2022-09-11T07:03:53.705Z</time>
      </trkpt>
      <trkpt lat="44.1322" lon="2.24315">
        <ele>374</ele>
        <time>2022-09-11T07:03:54.705Z</time>
      </trkpt>
      <trkpt lat="44.13221" lon="2.24315">
        <ele>374</ele>
        <time>2022-09-11T07:03:55.705Z</time>
      </trkpt>
      <trkpt lat="44.13222" lon="2.24315">
        <ele>374</ele>
        <time>2022-09-11T07:03:56.705Z</time>
      </trkpt>
      <trkpt lat="44.13223" lon="2.24315">
        <ele>373</ele>
        <time>2022-09-11T07:03:57.705Z</time>
      </trkpt>
      <trkpt lat="44.13224" lon="2.24315">
        <ele>373</ele>
        <time>2022-09-11T07:03:58.705Z</time>
      </trkpt>
      <trkpt lat="44.13225" lon="2.24315">
        <ele>373</ele>
        <time>2022-09-11T07:03:59.705Z</time>
      </trkpt>
      <trkpt lat="44.13227" lon="2.24314">
        <ele>373</ele>
        <time>2022-09-11T07:04:00.705Z</time>
      </trkpt>
      <trkpt lat="44.13228" lon="2.24314">
        <ele>373</ele>
        <time>2022-09-11T07:04:01.705Z</time>
      </trkpt>
      <trkpt lat="44.13229" lon="2.24314">
        <ele>372</ele>
        <time>2022-09-11T07:04:02.705Z</time>
      </trkpt>
      <trkpt lat="44.1323" lon="2.24313">
        <ele>372</ele>
        <time>2022-09-11T07:04:03.705Z</time>
      </trkpt>
      <trkpt lat="44.13231" lon="2.24313">
        <ele>372</ele>
        <time>2022-09-11T07:04:04.705Z</time>
      </trkpt>
      <trkpt lat="44.13232" lon="2.24313">
        <ele>372</ele>
        <time>2022-09-11T07:04:05.705Z</time>
      </trkpt>
      <trkpt lat="44.13233" lon="2.24313">
        <ele>372</ele>
        <time>2022-09-11T07:04:06.705Z</time>
      </trkpt>
      <trkpt lat="44.13234" lon="2.24312">
        <ele>371</ele>
        <time>2022-09-11T07:04:07.705Z</time>
      </trkpt>
      <trkpt lat="44.13235" lon="2.24312">
        <ele>371</ele>
        <time>2022-09-11T07:04:08.705Z</time>
      </trkpt>
      <trkpt lat="44.13236" lon="2.24312">
        <ele>371</ele>
        <time>2022-09-11T07:04:09.705Z</time>
      </trkpt>
      <trkpt lat="44.13237" lon="2.24312">
        <ele>371</ele>
        <time>2022-09-11T07:04:10.705Z</time>
      </trkpt>
      <trkpt lat="44.13238" lon="2.24311">
        <ele>371</ele>
        <time>2022-09-11T07:04:11.705Z</time>
      </trkpt>
      <trkpt lat="44.13239" lon="2.24311">
        <ele>371</ele>
        <time>2022-09-11T07:04:12.705Z</time>
      </trkpt>
      <trkpt lat="44.1324" lon="2.2431">
        <ele>371</ele>
        <time>2022-09-11T07:04:13.705Z</time>
      </trkpt>
      <trkpt lat="44.13241" lon="2.2431">
        <ele>371</ele>
        <time>2022-09-11T07:04:14.705Z</time>
      </trkpt>
      <trkpt lat="44.13243" lon="2.2431">
        <ele>370</ele>
        <time>2022-09-11T07:04:15.705Z</time>
      </trkpt>
      <trkpt lat="44.13244" lon="2.24309">
        <ele>370</ele>
        <time>2022-09-11T07:04:16.705Z</time>
      </trkpt>
      <trkpt lat="44.13245" lon="2.24308">
        <ele>370</ele>
        <time>2022-09-11T07:04:17.705Z</time>
      </trkpt>
      <trkpt lat="44.13246" lon="2.24308">
        <ele>370</ele>
        <time>2022-09-11T07:04:18.705Z</time>
      </trkpt>
      <trkpt lat="44.13248" lon="2.24307">
        <ele>370</ele>
        <time>2022-09-11T07:04:19.705Z</time>
      </trkpt>
      <trkpt lat="44.13249" lon="2.24306">
        <ele>370</ele>
        <time>2022-09-11T07:04:20.705Z</time>
      </trkpt>
      <trkpt lat="44.1325" lon="2.24306">
        <ele>370</ele>
        <time>2022-09-11T07:04:21.705Z</time>
      </trkpt>
      <trkpt lat="44.13251" lon="2.24305">
        <ele>370</ele>
        <time>2022-09-11T07:04:22.705Z</time>
      </trkpt>
      <trkpt lat="44.13252" lon="2.24305">
        <ele>370</ele>
        <time>2022-09-11T07:04:23.705Z</time>
      </trkpt>
      <trkpt lat="44.13253" lon="2.24304">
        <ele>370</ele>
        <time>2022-09-11T07:04:24.705Z</time>
      </trkpt>
      <trkpt lat="44.13253" lon="2.24304">
        <ele>370</ele>
        <time>2022-09-11T07:04:25.705Z</time>
      </trkpt>
      <trkpt lat="44.13254" lon="2.24304">
        <ele>370</ele>
        <time>2022-09-11T07:04:26.705Z</time>
      </trkpt>
      <trkpt lat="44.13254" lon="2.24303">
        <ele>369</ele>
        <time>2022-09-11T07:04:27.705Z</time>
      </trkpt>
      <trkpt lat="44.13255" lon="2.24303">
        <ele>369</ele>
        <time>2022-09-11T07:04:28.705Z</time>
      </trkpt>
      <trkpt lat="44.13255" lon="2.24303">
        <ele>369</ele>
        <time>2022-09-11T07:04:29.705Z</time>
      </trkpt>
      <trkpt lat="44.13261" lon="2.24298">
        <ele>367</ele>
        <time>2022-09-11T07:05:39.705Z</time>
      </trkpt>
      <trkpt lat="44.13261" lon="2.24297">
        <ele>367</ele>
        <time>2022-09-11T07:05:40.705Z</time>
      </trkpt>
      <trkpt lat="44.13262" lon="2.24297">
        <ele>367</ele>
        <time>2022-09-11T07:05:41.705Z</time>
      </trkpt>
      <trkpt lat="44.13262" lon="2.24296">
        <ele>367</ele>
        <time>2022-09-11T07:05:42.705Z</time>
      </trkpt>
      <trkpt lat="44.13263" lon="2.24295">
        <ele>367</ele>
        <time>2022-09-11T07:05:43.705Z</time>
      </trkpt>
      <trkpt lat="44.13264" lon="2.24295">
        <ele>366</ele>
        <time>2022-09-11T07:05:44.705Z</time>
      </trkpt>
      <trkpt lat="44.13264" lon="2.24294">
        <ele>366</ele>
        <time>2022-09-11T07:05:45.705Z</time>
      </trkpt>
      <trkpt lat="44.13265" lon="2.24294">
        <ele>366</ele>
        <time>2022-09-11T07:05:46.705Z</time>
      </trkpt>
      <trkpt lat="44.13265" lon="2.24293">
        <ele>366</ele>
        <time>2022-09-11T07:05:47.705Z</time>
      </trkpt>
      <trkpt lat="44.13266" lon="2.24292">
        <ele>366</ele>
        <time>2022-09-11T07:05:48.705Z</time>
      </trkpt>
      <trkpt lat="44.13266" lon="2.24292">
        <ele>365</ele>
        <time>2022-09-11T07:05:49.705Z</time>
      </trkpt>
      <trkpt lat="44.13267" lon="2.24291">
        <ele>365</ele>
        <time>2022-09-11T07:05:50.705Z</time>
      </trkpt>
      <trkpt lat="44.13267" lon="2.24291">
        <ele>365</ele>
        <time>2022-09-11T07:05:51.705Z</time>
      </trkpt>
      <trkpt lat="44.13268" lon="2.2429">
        <ele>365</ele>
        <time>2022-09-11T07:05:52.705Z</time>
      </trkpt>
      <trkpt lat="44.13269" lon="2.24289">
        <ele>365</ele>
        <time>2022-09-11T07:05:53.705Z</time>
      </trkpt>
      <trkpt lat="44.13269" lon="2.24289">
        <ele>365</ele>
        <time>2022-09-11T07:05:54.705Z</time>
      </trkpt>
      <trkpt lat="44.1327" lon="2.24288">
        <ele>364</ele>
        <time>2022-09-11T07:05:55.705Z</time>
      </trkpt>
      <trkpt lat="44.13271" lon="2.24287">
        <ele>364</ele>
        <time>2022-09-11T07:05:56.705Z</time>
      </trkpt>
      <trkpt lat="44.13271" lon="2.24286">
        <ele>364</ele>
        <time>2022-09-11T07:05:57.705Z</time>
      </trkpt>
      <trkpt lat="44.13272" lon="2.24285">
        <ele>364</ele>
        <time>2022-09-11T07:05:58.705Z</time>
      </trkpt>
      <trkpt lat="44.13273" lon="2.24284">
        <ele>364</ele>
        <time>2022-09-11T07:05:59.705Z</time>
      </trkpt>
      <trkpt lat="44.13273" lon="2.24283">
        <ele>364</ele>
        <time>2022-09-11T07:06:00.705Z</time>
      </trkpt>
      <trkpt lat="44.13274" lon="2.24283">
        <ele>364</ele>
        <time>2022-09-11T07:06:01.705Z</time>
      </trkpt>
      <trkpt lat="44.13275" lon="2.24282">
        <ele>364</ele>
        <time>2022-09-11T07:06:02.705Z</time>
      </trkpt>
      <trkpt lat="44.13276" lon="2.24281">
        <ele>364</ele>
        <time>2022-09-11T07:06:03.705Z</time>
      </trkpt>
      <trkpt lat="44.13277" lon="2.2428">
        <ele>364</ele>
        <time>2022-09-11T07:06:04.705Z</time>
      </trkpt>
      <trkpt lat="44.13279" lon="2.2428">
        <ele>363</ele>
        <time>2022-09-11T07:06:05.705Z</time>
      </trkpt>
      <trkpt lat="44.1328" lon="2.24279">
        <ele>363</ele>
        <time>2022-09-11T07:06:06.705Z</time>
      </trkpt>
      <trkpt lat="44.13281" lon="2.24279">
        <ele>363</ele>
        <time>2022-09-11T07:06:07.705Z</time>
      </trkpt>
      <trkpt lat="44.13282" lon="2.24279">
        <ele>363</ele>
        <time>2022-09-11T07:06:08.705Z</time>
      </trkpt>
      <trkpt lat="44.13282" lon="2.24278">
        <ele>363</ele>
        <time>2022-09-11T07:06:09.705Z</time>
      </trkpt>
      <trkpt lat="44.13283" lon="2.24278">
        <ele>363</ele>
        <time>2022-09-11T07:06:10.705Z</time>
      </trkpt>
      <trkpt lat="44.13284" lon="2.24277">
        <ele>363</ele>
        <time>2022-09-11T07:06:11.705Z</time>
      </trkpt>
      <trkpt lat="44.13285" lon="2.24277">
        <ele>363</ele>
        <time>2022-09-11T07:06:12.705Z</time>
      </trkpt>
      <trkpt lat="44.13285" lon="2.24277">
        <ele>363</ele>
        <time>2022-09-11T07:06:13.705Z</time>
      </trkpt>
      <trkpt lat="44.13286" lon="2.24276">
        <ele>363</ele>
        <time>2022-09-11T07:06:14.705Z</time>
      </trkpt>
      <trkpt lat="44.13287" lon="2.24276">
        <ele>363</ele>
        <time>2022-09-11T07:06:15.705Z</time>
      </trkpt>
      <trkpt lat="44.13288" lon="2.24276">
        <ele>363</ele>
        <time>2022-09-11T07:06:16.705Z</time>
      </trkpt>
      <trkpt lat="44.13289" lon="2.24276">
        <ele>363</ele>
        <time>2022-09-11T07:06:17.705Z</time>
      </trkpt>
      <trkpt lat="44.13289" lon="2.24275">
        <ele>362</ele>
        <time>2022-09-11T07:06:18.705Z</time>
      </trkpt>
      <trkpt lat="44.1329" lon="2.24275">
        <ele>362</ele>
        <time>2022-09-11T07:06:19.705Z</time>
      </trkpt>
      <trkpt lat="44.13291" lon="2.24274">
        <ele>362</ele>
        <time>2022-09-11T07:06:20.705Z</time>
      </trkpt>
      <trkpt lat="44.13291" lon="2.24274">
        <ele>362</ele>
        <time>2022-09-11T07:06:21.705Z</time>
      </trkpt>
      <trkpt lat="44.13292" lon="2.24274">
        <ele>362</ele>
        <time>2022-09-11T07:06:22.705Z</time>
      </trkpt>
      <trkpt lat="44.13293" lon="2.24273">
        <ele>362</ele>
        <time>2022-09-11T07:06:23.705Z</time>
      </trkpt>
      <trkpt lat="44.13294" lon="2.24273">
        <ele>362</ele>
        <time>2022-09-11T07:06:24.705Z</time>
      </trkpt>
      <trkpt lat="44.13294" lon="2.24273">
        <ele>362</ele>
        <time>2022-09-11T07:06:25.705Z</time>
      </trkpt>
      <trkpt lat="44.13294" lon="2.24272">
        <ele>362</ele>
        <time>2022-09-11T07:06:26.705Z</time>
      </trkpt>
      <trkpt lat="44.13295" lon="2.24272">
        <ele>362</ele>
        <time>2022-09-11T07:06:27.705Z</time>
      </trkpt>
      <trkpt lat="44.13295" lon="2.24272">
        <ele>362</ele>
        <time>2022-09-11T07:06:28.705Z</time>
      </trkpt>
      <trkpt lat="44.13296" lon="2.24271">
        <ele>362</ele>
        <time>2022-09-11T07:06:29.705Z</time>
      </trkpt>
      <trkpt lat="44.13297" lon="2.24271">
        <ele>362</ele>
        <time>2022-09-11T07:06:30.705Z</time>
      </trkpt>
      <trkpt lat="44.13297" lon="2.24271">
        <ele>362</ele>
        <time>2022-09-11T07:06:31.705Z</time>
      </trkpt>
      <trkpt lat="44.13298" lon="2.2427">
        <ele>362</ele>
        <time>2022-09-11T07:06:32.705Z</time>
      </trkpt>
      <trkpt lat="44.13299" lon="2.2427">
        <ele>362</ele>
        <time>2022-09-11T07:06:33.705Z</time>
      </trkpt>
      <trkpt lat="44.13299" lon="2.2427">
        <ele>362</ele>
        <time>2022-09-11T07:06:34.705Z</time>
      </trkpt>
      <trkpt lat="44.13299" lon="2.2427">
        <ele>362</ele>
        <time>2022-09-11T07:06:35.705Z</time>
      </trkpt>
      <trkpt lat="44.13299" lon="2.24269">
        <ele>362</ele>
        <time>2022-09-11T07:06:36.705Z</time>
      </trkpt>
      <trkpt lat="44.13302" lon="2.24268">
        <ele>362</ele>
        <time>2022-09-11T07:06:39.960Z</time>
      </trkpt>
      <trkpt lat="44.13303" lon="2.24267">
        <ele>362</ele>
        <time>2022-09-11T07:06:40.960Z</time>
      </trkpt>
      <trkpt lat="44.13305" lon="2.24266">
        <ele>362</ele>
        <time>2022-09-11T07:06:41.960Z</time>
      </trkpt>
      <trkpt lat="44.13306" lon="2.24266">
        <ele>362</ele>
        <time>2022-09-11T07:06:42.960Z</time>
      </trkpt>
      <trkpt lat="44.13306" lon="2.24266">
        <ele>362</ele>
        <time>2022-09-11T07:06:43.960Z</time>
      </trkpt>
      <trkpt lat="44.13307" lon="2.24265">
        <ele>361</ele>
        <time>2022-09-11T07:06:44.960Z</time>
      </trkpt>
      <trkpt lat="44.1331" lon="2.24264">
        <ele>361</ele>
        <time>2022-09-11T07:06:45.960Z</time>
      </trkpt>
      <trkpt lat="44.13312" lon="2.24263">
        <ele>361</ele>
        <time>2022-09-11T07:06:46.960Z</time>
      </trkpt>
      <trkpt lat="44.13312" lon="2.24263">
        <ele>361</ele>
        <time>2022-09-11T07:06:47.960Z</time>
      </trkpt>
      <trkpt lat="44.13313" lon="2.24263">
        <ele>361</ele>
        <time>2022-09-11T07:06:48.960Z</time>
      </trkpt>
      <trkpt lat="44.13314" lon="2.24262">
        <ele>361</ele>
        <time>2022-09-11T07:06:49.960Z</time>
      </trkpt>
      <trkpt lat="44.13315" lon="2.24262">
        <ele>361</ele>
        <time>2022-09-11T07:06:50.960Z</time>
      </trkpt>
      <trkpt lat="44.13316" lon="2.24261">
        <ele>361</ele>
        <time>2022-09-11T07:06:51.960Z</time>
      </trkpt>
      <trkpt lat="44.13317" lon="2.24261">
        <ele>361</ele>
        <time>2022-09-11T07:06:52.960Z</time>
      </trkpt>
      <trkpt lat="44.13319" lon="2.24259">
        <ele>361</ele>
        <time>2022-09-11T07:06:53.960Z</time>
      </trkpt>
      <trkpt lat="44.13321" lon="2.24259">
        <ele>361</ele>
        <time>2022-09-11T07:06:54.960Z</time>
      </trkpt>
      <trkpt lat="44.13321" lon="2.24259">
        <ele>361</ele>
        <time>2022-09-11T07:06:55.960Z</time>
      </trkpt>
      <trkpt lat="44.13322" lon="2.24258">
        <ele>360</ele>
        <time>2022-09-11T07:06:56.960Z</time>
      </trkpt>
      <trkpt lat="44.13322" lon="2.24258">
        <ele>360</ele>
        <time>2022-09-11T07:06:57.960Z</time>
      </trkpt>
      <trkpt lat="44.13322" lon="2.24258">
        <ele>360</ele>
        <time>2022-09-11T07:06:58.960Z</time>
      </trkpt>
      <trkpt lat="44.13323" lon="2.24258">
        <ele>360</ele>
        <time>2022-09-11T07:06:59.960Z</time>
      </trkpt>
      <trkpt lat="44.13323" lon="2.24258">
        <ele>360</ele>
        <time>2022-09-11T07:07:00.960Z</time>
      </trkpt>
      <trkpt lat="44.13326" lon="2.24257">
        <ele>360</ele>
        <time>2022-09-11T07:07:04.241Z</time>
      </trkpt>
      <trkpt lat="44.13327" lon="2.24256">
        <ele>360</ele>
        <time>2022-09-11T07:07:05.241Z</time>
      </trkpt>
      <trkpt lat="44.13329" lon="2.24256">
        <ele>360</ele>
        <time>2022-09-11T07:07:06.241Z</time>
      </trkpt>
      <trkpt lat="44.1333" lon="2.24255">
        <ele>360</ele>
        <time>2022-09-11T07:07:07.241Z</time>
      </trkpt>
      <trkpt lat="44.13331" lon="2.24255">
        <ele>360</ele>
        <time>2022-09-11T07:07:08.241Z</time>
      </trkpt>
      <trkpt lat="44.13332" lon="2.24255">
        <ele>360</ele>
        <time>2022-09-11T07:07:09.241Z</time>
      </trkpt>
      <trkpt lat="44.13333" lon="2.24254">
        <ele>360</ele>
        <time>2022-09-11T07:07:10.241Z</time>
      </trkpt>
      <trkpt lat="44.13334" lon="2.24254">
        <ele>360</ele>
        <time>2022-09-11T07:07:11.241Z</time>
      </trkpt>
      <trkpt lat="44.13335" lon="2.24254">
        <ele>360</ele>
        <time>2022-09-11T07:07:12.241Z</time>
      </trkpt>
      <trkpt lat="44.13336" lon="2.24253">
        <ele>360</ele>
        <time>2022-09-11T07:07:13.241Z</time>
      </trkpt>
      <trkpt lat="44.13337" lon="2.24253">
        <ele>360</ele>
        <time>2022-09-11T07:07:14.241Z</time>
      </trkpt>
      <trkpt lat="44.13338" lon="2.24252">
        <ele>359</ele>
        <time>2022-09-11T07:07:15.241Z</time>
      </trkpt>
      <trkpt lat="44.13339" lon="2.24252">
        <ele>359</ele>
        <time>2022-09-11T07:07:16.241Z</time>
      </trkpt>
      <trkpt lat="44.1334" lon="2.24251">
        <ele>359</ele>
        <time>2022-09-11T07:07:17.241Z</time>
      </trkpt>
      <trkpt lat="44.1334" lon="2.24251">
        <ele>359</ele>
        <time>2022-09-11T07:07:18.241Z</time>
      </trkpt>
      <trkpt lat="44.13341" lon="2.24251">
        <ele>359</ele>
        <time>2022-09-11T07:07:19.241Z</time>
      </trkpt>
      <trkpt lat="44.13342" lon="2.2425">
        <ele>359</ele>
        <time>2022-09-11T07:07:20.241Z</time>
      </trkpt>
      <trkpt lat="44.13343" lon="2.2425">
        <ele>359</ele>
        <time>2022-09-11T07:07:21.241Z</time>
      </trkpt>
      <trkpt lat="44.13343" lon="2.2425">
        <ele>359</ele>
        <time>2022-09-11T07:07:22.241Z</time>
      </trkpt>
      <trkpt lat="44.13344" lon="2.24249">
        <ele>359</ele>
        <time>2022-09-11T07:07:23.241Z</time>
      </trkpt>
      <trkpt lat="44.13344" lon="2.24249">
        <ele>359</ele>
        <time>2022-09-11T07:07:24.241Z</time>
      </trkpt>
      <trkpt lat="44.13345" lon="2.24249">
        <ele>359</ele>
        <time>2022-09-11T07:07:25.241Z</time>
      </trkpt>
      <trkpt lat="44.13346" lon="2.24247">
        <ele>359</ele>
        <time>2022-09-11T07:07:28.496Z</time>
      </trkpt>
      <trkpt lat="44.13347" lon="2.24246">
        <ele>358</ele>
        <time>2022-09-11T07:07:29.496Z</time>
      </trkpt>
      <trkpt lat="44.13349" lon="2.24246">
        <ele>358</ele>
        <time>2022-09-11T07:07:30.496Z</time>
      </trkpt>
      <trkpt lat="44.13349" lon="2.24246">
        <ele>358</ele>
        <time>2022-09-11T07:07:31.496Z</time>
      </trkpt>
      <trkpt lat="44.13349" lon="2.24246">
        <ele>358</ele>
        <time>2022-09-11T07:07:32.496Z</time>
      </trkpt>
      <trkpt lat="44.1335" lon="2.24245">
        <ele>358</ele>
        <time>2022-09-11T07:07:33.496Z</time>
      </trkpt>
      <trkpt lat="44.13351" lon="2.24245">
        <ele>358</ele>
        <time>2022-09-11T07:07:34.496Z</time>
      </trkpt>
      <trkpt lat="44.13352" lon="2.24244">
        <ele>358</ele>
        <time>2022-09-11T07:07:35.496Z</time>
      </trkpt>
      <trkpt lat="44.13354" lon="2.24244">
        <ele>358</ele>
        <time>2022-09-11T07:07:36.496Z</time>
      </trkpt>
      <trkpt lat="44.13355" lon="2.24243">
        <ele>358</ele>
        <time>2022-09-11T07:07:37.496Z</time>
      </trkpt>
      <trkpt lat="44.13356" lon="2.24243">
        <ele>358</ele>
        <time>2022-09-11T07:07:38.496Z</time>
      </trkpt>
      <trkpt lat="44.13358" lon="2.24242">
        <ele>358</ele>
        <time>2022-09-11T07:07:39.496Z</time>
      </trkpt>
      <trkpt lat="44.13359" lon="2.24242">
        <ele>358</ele>
        <time>2022-09-11T07:07:40.496Z</time>
      </trkpt>
      <trkpt lat="44.1336" lon="2.24241">
        <ele>358</ele>
        <time>2022-09-11T07:07:41.496Z</time>
      </trkpt>
      <trkpt lat="44.13362" lon="2.24241">
        <ele>358</ele>
        <time>2022-09-11T07:07:42.496Z</time>
      </trkpt>
      <trkpt lat="44.13363" lon="2.24241">
        <ele>358</ele>
        <time>2022-09-11T07:07:43.496Z</time>
      </trkpt>
      <trkpt lat="44.13364" lon="2.2424">
        <ele>358</ele>
        <time>2022-09-11T07:07:44.496Z</time>
      </trkpt>
      <trkpt lat="44.13366" lon="2.2424">
        <ele>358</ele>
        <time>2022-09-11T07:07:45.496Z</time>
      </trkpt>
      <trkpt lat="44.13367" lon="2.2424">
        <ele>358</ele>
        <time>2022-09-11T07:07:46.496Z</time>
      </trkpt>
      <trkpt lat="44.13369" lon="2.24239">
        <ele>358</ele>
        <time>2022-09-11T07:07:47.496Z</time>
      </trkpt>
      <trkpt lat="44.1337" lon="2.24239">
        <ele>358</ele>
        <time>2022-09-11T07:07:48.496Z</time>
      </trkpt>
      <trkpt lat="44.13372" lon="2.24239">
        <ele>358</ele>
        <time>2022-09-11T07:07:49.496Z</time>
      </trkpt>
      <trkpt lat="44.13373" lon="2.24238">
        <ele>358</ele>
        <time>2022-09-11T07:07:50.496Z</time>
      </trkpt>
      <trkpt lat="44.13375" lon="2.24238">
        <ele>358</ele>
        <time>2022-09-11T07:07:51.496Z</time>
      </trkpt>
      <trkpt lat="44.13376" lon="2.24237">
        <ele>358</ele>
        <time>2022-09-11T07:07:52.496Z</time>
      </trkpt>
      <trkpt lat="44.13377" lon="2.24237">
        <ele>358</ele>
        <time>2022-09-11T07:07:53.496Z</time>
      </trkpt>
      <trkpt lat="44.13378" lon="2.24237">
        <ele>357</ele>
        <time>2022-09-11T07:07:54.496Z</time>
      </trkpt>
      <trkpt lat="44.13379" lon="2.24237">
        <ele>357</ele>
        <time>2022-09-11T07:07:55.496Z</time>
      </trkpt>
      <trkpt lat="44.13381" lon="2.24237">
        <ele>357</ele>
        <time>2022-09-11T07:07:56.496Z</time>
      </trkpt>
      <trkpt lat="44.13382" lon="2.24237">
        <ele>357</ele>
        <time>2022-09-11T07:07:57.496Z</time>
      </trkpt>
      <trkpt lat="44.13383" lon="2.24237">
        <ele>357</ele>
        <time>2022-09-11T07:07:58.496Z</time>
      </trkpt>
      <trkpt lat="44.13384" lon="2.24237">
        <ele>357</ele>
        <time>2022-09-11T07:07:59.496Z</time>
      </trkpt>
      <trkpt lat="44.13385" lon="2.24237">
        <ele>357</ele>
        <time>2022-09-11T07:08:00.496Z</time>
      </trkpt>
      <trkpt lat="44.13387" lon="2.24236">
        <ele>357</ele>
        <time>2022-09-11T07:08:01.496Z</time>
      </trkpt>
      <trkpt lat="44.13388" lon="2.24236">
        <ele>357</ele>
        <time>2022-09-11T07:08:02.496Z</time>
      </trkpt>
      <trkpt lat="44.13389" lon="2.24236">
        <ele>357</ele>
        <time>2022-09-11T07:08:03.496Z</time>
      </trkpt>
      <trkpt lat="44.1339" lon="2.24235">
        <ele>357</ele>
        <time>2022-09-11T07:08:04.496Z</time>
      </trkpt>
      <trkpt lat="44.13392" lon="2.24235">
        <ele>357</ele>
        <time>2022-09-11T07:08:05.496Z</time>
      </trkpt>
      <trkpt lat="44.13393" lon="2.24234">
        <ele>356</ele>
        <time>2022-09-11T07:08:06.496Z</time>
      </trkpt>
      <trkpt lat="44.13394" lon="2.24234">
        <ele>356</ele>
        <time>2022-09-11T07:08:07.496Z</time>
      </trkpt>
      <trkpt lat="44.13395" lon="2.24234">
        <ele>356</ele>
        <time>2022-09-11T07:08:08.496Z</time>
      </trkpt>
      <trkpt lat="44.13395" lon="2.24234">
        <ele>356</ele>
        <time>2022-09-11T07:08:09.496Z</time>
      </trkpt>
      <trkpt lat="44.13396" lon="2.24234">
        <ele>356</ele>
        <time>2022-09-11T07:08:10.496Z</time>
      </trkpt>
      <trkpt lat="44.13396" lon="2.24234">
        <ele>356</ele>
        <time>2022-09-11T07:08:11.496Z</time>
      </trkpt>
      <trkpt lat="44.134" lon="2.24234">
        <ele>355</ele>
        <time>2022-09-11T07:08:19.496Z</time>
      </trkpt>
      <trkpt lat="44.13401" lon="2.24234">
        <ele>355</ele>
        <time>2022-09-11T07:08:20.496Z</time>
      </trkpt>
      <trkpt lat="44.13402" lon="2.24234">
        <ele>355</ele>
        <time>2022-09-11T07:08:21.496Z</time>
      </trkpt>
      <trkpt lat="44.13403" lon="2.24233">
        <ele>355</ele>
        <time>2022-09-11T07:08:22.496Z</time>
      </trkpt>
      <trkpt lat="44.13404" lon="2.24233">
        <ele>355</ele>
        <time>2022-09-11T07:08:23.496Z</time>
      </trkpt>
      <trkpt lat="44.13405" lon="2.24233">
        <ele>354</ele>
        <time>2022-09-11T07:08:24.496Z</time>
      </trkpt>
      <trkpt lat="44.13405" lon="2.24233">
        <ele>354</ele>
        <time>2022-09-11T07:08:25.496Z</time>
      </trkpt>
      <trkpt lat="44.13406" lon="2.24233">
        <ele>354</ele>
        <time>2022-09-11T07:08:26.496Z</time>
      </trkpt>
      <trkpt lat="44.13407" lon="2.24233">
        <ele>354</ele>
        <time>2022-09-11T07:08:27.496Z</time>
      </trkpt>
      <trkpt lat="44.13408" lon="2.24233">
        <ele>354</ele>
        <time>2022-09-11T07:08:28.496Z</time>
      </trkpt>
      <trkpt lat="44.13409" lon="2.24233">
        <ele>354</ele>
        <time>2022-09-11T07:08:29.496Z</time>
      </trkpt>
      <trkpt lat="44.1341" lon="2.24233">
        <ele>354</ele>
        <time>2022-09-11T07:08:30.496Z</time>
      </trkpt>
      <trkpt lat="44.13411" lon="2.24233">
        <ele>354</ele>
        <time>2022-09-11T07:08:31.496Z</time>
      </trkpt>
      <trkpt lat="44.13412" lon="2.24233">
        <ele>354</ele>
        <time>2022-09-11T07:08:32.496Z</time>
      </trkpt>
      <trkpt lat="44.13414" lon="2.24233">
        <ele>354</ele>
        <time>2022-09-11T07:08:33.496Z</time>
      </trkpt>
      <trkpt lat="44.13415" lon="2.24233">
        <ele>354</ele>
        <time>2022-09-11T07:08:34.496Z</time>
      </trkpt>
      <trkpt lat="44.13416" lon="2.24233">
        <ele>354</ele>
        <time>2022-09-11T07:08:35.496Z</time>
      </trkpt>
      <trkpt lat="44.13417" lon="2.24233">
        <ele>354</ele>
        <time>2022-09-11T07:08:36.496Z</time>
      </trkpt>
      <trkpt lat="44.13418" lon="2.24234">
        <ele>354</ele>
        <time>2022-09-11T07:08:37.496Z</time>
      </trkpt>
      <trkpt lat="44.13419" lon="2.24234">
        <ele>353</ele>
        <time>2022-09-11T07:08:38.496Z</time>
      </trkpt>
      <trkpt lat="44.1342" lon="2.24234">
        <ele>353</ele>
        <time>2022-09-11T07:08:39.496Z</time>
      </trkpt>
      <trkpt lat="44.13421" lon="2.24234">
        <ele>353</ele>
        <time>2022-09-11T07:08:40.496Z</time>
      </trkpt>
      <trkpt lat="44.13422" lon="2.24234">
        <ele>353</ele>
        <time>2022-09-11T07:08:41.496Z</time>
      </trkpt>
      <trkpt lat="44.13423" lon="2.24234">
        <ele>353</ele>
        <time>2022-09-11T07:08:42.496Z</time>
      </trkpt>
      <trkpt lat="44.13424" lon="2.24234">
        <ele>353</ele>
        <time>2022-09-11T07:08:43.496Z</time>
      </trkpt>
      <trkpt lat="44.13425" lon="2.24234">
        <ele>353</ele>
        <time>2022-09-11T07:08:44.496Z</time>
      </trkpt>
      <trkpt lat="44.13426" lon="2.24234">
        <ele>353</ele>
        <time>2022-09-11T07:08:45.496Z</time>
      </trkpt>
      <trkpt lat="44.13428" lon="2.24235">
        <ele>353</ele>
        <time>2022-09-11T07:08:46.496Z</time>
      </trkpt>
      <trkpt lat="44.13429" lon="2.24235">
        <ele>353</ele>
        <time>2022-09-11T07:08:47.496Z</time>
      </trkpt>
      <trkpt lat="44.1343" lon="2.24235">
        <ele>352</ele>
        <time>2022-09-11T07:08:48.496Z</time>
      </trkpt>
      <trkpt lat="44.13431" lon="2.24235">
        <ele>352</ele>
        <time>2022-09-11T07:08:49.496Z</time>
      </trkpt>
      <trkpt lat="44.13432" lon="2.24235">
        <ele>352</ele>
        <time>2022-09-11T07:08:50.496Z</time>
      </trkpt>
      <trkpt lat="44.13433" lon="2.24235">
        <ele>352</ele>
        <time>2022-09-11T07:08:51.496Z</time>
      </trkpt>
      <trkpt lat="44.13434" lon="2.24236">
        <ele>352</ele>
        <time>2022-09-11T07:08:52.496Z</time>
      </trkpt>
      <trkpt lat="44.13435" lon="2.24236">
        <ele>352</ele>
        <time>2022-09-11T07:08:53.496Z</time>
      </trkpt>
      <trkpt lat="44.13436" lon="2.24237">
        <ele>351</ele>
        <time>2022-09-11T07:08:54.496Z</time>
      </trkpt>
      <trkpt lat="44.13437" lon="2.24237">
        <ele>351</ele>
        <time>2022-09-11T07:08:55.496Z</time>
      </trkpt>
      <trkpt lat="44.13438" lon="2.24238">
        <ele>351</ele>
        <time>2022-09-11T07:08:56.496Z</time>
      </trkpt>
      <trkpt lat="44.13439" lon="2.24238">
        <ele>351</ele>
        <time>2022-09-11T07:08:57.496Z</time>
      </trkpt>
      <trkpt lat="44.13441" lon="2.24238">
        <ele>350</ele>
        <time>2022-09-11T07:08:58.496Z</time>
      </trkpt>
      <trkpt lat="44.13442" lon="2.24239">
        <ele>350</ele>
        <time>2022-09-11T07:08:59.496Z</time>
      </trkpt>
      <trkpt lat="44.13443" lon="2.2424">
        <ele>350</ele>
        <time>2022-09-11T07:09:00.496Z</time>
      </trkpt>
      <trkpt lat="44.13444" lon="2.24241">
        <ele>350</ele>
        <time>2022-09-11T07:09:01.496Z</time>
      </trkpt>
      <trkpt lat="44.13446" lon="2.24242">
        <ele>349</ele>
        <time>2022-09-11T07:09:02.496Z</time>
      </trkpt>
      <trkpt lat="44.13447" lon="2.24243">
        <ele>349</ele>
        <time>2022-09-11T07:09:03.496Z</time>
      </trkpt>
      <trkpt lat="44.13448" lon="2.24244">
        <ele>349</ele>
        <time>2022-09-11T07:09:04.496Z</time>
      </trkpt>
      <trkpt lat="44.13449" lon="2.24245">
        <ele>349</ele>
        <time>2022-09-11T07:09:05.496Z</time>
      </trkpt>
      <trkpt lat="44.1345" lon="2.24246">
        <ele>348</ele>
        <time>2022-09-11T07:09:06.496Z</time>
      </trkpt>
      <trkpt lat="44.13451" lon="2.24247">
        <ele>348</ele>
        <time>2022-09-11T07:09:07.496Z</time>
      </trkpt>
      <trkpt lat="44.13452" lon="2.24248">
        <ele>348</ele>
        <time>2022-09-11T07:09:08.496Z</time>
      </trkpt>
      <trkpt lat="44.13453" lon="2.24249">
        <ele>348</ele>
        <time>2022-09-11T07:09:09.496Z</time>
      </trkpt>
      <trkpt lat="44.13454" lon="2.24249">
        <ele>347</ele>
        <time>2022-09-11T07:09:10.496Z</time>
      </trkpt>
      <trkpt lat="44.13455" lon="2.2425">
        <ele>347</ele>
        <time>2022-09-11T07:09:11.496Z</time>
      </trkpt>
      <trkpt lat="44.13456" lon="2.24251">
        <ele>347</ele>
        <time>2022-09-11T07:09:12.496Z</time>
      </trkpt>
      <trkpt lat="44.13457" lon="2.24252">
        <ele>347</ele>
        <time>2022-09-11T07:09:13.496Z</time>
      </trkpt>
      <trkpt lat="44.13458" lon="2.24252">
        <ele>347</ele>
        <time>2022-09-11T07:09:14.496Z</time>
      </trkpt>
      <trkpt lat="44.13459" lon="2.24253">
        <ele>346</ele>
        <time>2022-09-11T07:09:15.496Z</time>
      </trkpt>
      <trkpt lat="44.1346" lon="2.24254">
        <ele>346</ele>
        <time>2022-09-11T07:09:16.496Z</time>
      </trkpt>
      <trkpt lat="44.13461" lon="2.24256">
        <ele>346</ele>
        <time>2022-09-11T07:09:17.496Z</time>
      </trkpt>
      <trkpt lat="44.13461" lon="2.24257">
        <ele>346</ele>
        <time>2022-09-11T07:09:18.496Z</time>
      </trkpt>
      <trkpt lat="44.13462" lon="2.24259">
        <ele>346</ele>
        <time>2022-09-11T07:09:19.496Z</time>
      </trkpt>
      <trkpt lat="44.13463" lon="2.2426">
        <ele>346</ele>
        <time>2022-09-11T07:09:20.496Z</time>
      </trkpt>
      <trkpt lat="44.13463" lon="2.24262">
        <ele>345</ele>
        <time>2022-09-11T07:09:21.496Z</time>
      </trkpt>
      <trkpt lat="44.13463" lon="2.24263">
        <ele>345</ele>
        <time>2022-09-11T07:09:22.496Z</time>
      </trkpt>
      <trkpt lat="44.13463" lon="2.24264">
        <ele>345</ele>
        <time>2022-09-11T07:09:23.496Z</time>
      </trkpt>
      <trkpt lat="44.13463" lon="2.24266">
        <ele>345</ele>
        <time>2022-09-11T07:09:24.496Z</time>
      </trkpt>
      <trkpt lat="44.13463" lon="2.24267">
        <ele>345</ele>
        <time>2022-09-11T07:09:25.496Z</time>
      </trkpt>
      <trkpt lat="44.13463" lon="2.24269">
        <ele>344</ele>
        <time>2022-09-11T07:09:26.496Z</time>
      </trkpt>
      <trkpt lat="44.13463" lon="2.2427">
        <ele>344</ele>
        <time>2022-09-11T07:09:27.496Z</time>
      </trkpt>
      <trkpt lat="44.13463" lon="2.24272">
        <ele>344</ele>
        <time>2022-09-11T07:09:28.496Z</time>
      </trkpt>
      <trkpt lat="44.13463" lon="2.24273">
        <ele>344</ele>
        <time>2022-09-11T07:09:29.496Z</time>
      </trkpt>
      <trkpt lat="44.13463" lon="2.24275">
        <ele>344</ele>
        <time>2022-09-11T07:09:30.496Z</time>
      </trkpt>
      <trkpt lat="44.13462" lon="2.24276">
        <ele>344</ele>
        <time>2022-09-11T07:09:31.496Z</time>
      </trkpt>
      <trkpt lat="44.13462" lon="2.24277">
        <ele>343</ele>
        <time>2022-09-11T07:09:32.496Z</time>
      </trkpt>
      <trkpt lat="44.13462" lon="2.24279">
        <ele>343</ele>
        <time>2022-09-11T07:09:33.496Z</time>
      </trkpt>
      <trkpt lat="44.13462" lon="2.2428">
        <ele>343</ele>
        <time>2022-09-11T07:09:34.496Z</time>
      </trkpt>
      <trkpt lat="44.13462" lon="2.24282">
        <ele>343</ele>
        <time>2022-09-11T07:09:35.496Z</time>
      </trkpt>
      <trkpt lat="44.13462" lon="2.24283">
        <ele>342</ele>
        <time>2022-09-11T07:09:36.496Z</time>
      </trkpt>
      <trkpt lat="44.13462" lon="2.24285">
        <ele>342</ele>
        <time>2022-09-11T07:09:37.496Z</time>
      </trkpt>
      <trkpt lat="44.13462" lon="2.24286">
        <ele>342</ele>
        <time>2022-09-11T07:09:38.496Z</time>
      </trkpt>
      <trkpt lat="44.13461" lon="2.24288">
        <ele>342</ele>
        <time>2022-09-11T07:09:39.496Z</time>
      </trkpt>
      <trkpt lat="44.13461" lon="2.2429">
        <ele>342</ele>
        <time>2022-09-11T07:09:40.496Z</time>
      </trkpt>
      <trkpt lat="44.1346" lon="2.24291">
        <ele>342</ele>
        <time>2022-09-11T07:09:41.496Z</time>
      </trkpt>
      <trkpt lat="44.1346" lon="2.24293">
        <ele>342</ele>
        <time>2022-09-11T07:09:42.496Z</time>
      </trkpt>
      <trkpt lat="44.13459" lon="2.24295">
        <ele>341</ele>
        <time>2022-09-11T07:09:43.496Z</time>
      </trkpt>
      <trkpt lat="44.13459" lon="2.24296">
        <ele>341</ele>
        <time>2022-09-11T07:09:44.496Z</time>
      </trkpt>
      <trkpt lat="44.13459" lon="2.24298">
        <ele>341</ele>
        <time>2022-09-11T07:09:45.496Z</time>
      </trkpt>
      <trkpt lat="44.13459" lon="2.243">
        <ele>341</ele>
        <time>2022-09-11T07:09:46.496Z</time>
      </trkpt>
      <trkpt lat="44.13459" lon="2.24301">
        <ele>340</ele>
        <time>2022-09-11T07:09:47.496Z</time>
      </trkpt>
      <trkpt lat="44.13458" lon="2.24303">
        <ele>340</ele>
        <time>2022-09-11T07:09:48.496Z</time>
      </trkpt>
      <trkpt lat="44.13458" lon="2.24305">
        <ele>340</ele>
        <time>2022-09-11T07:09:49.496Z</time>
      </trkpt>
      <trkpt lat="44.13457" lon="2.24306">
        <ele>340</ele>
        <time>2022-09-11T07:09:50.496Z</time>
      </trkpt>
      <trkpt lat="44.13457" lon="2.24307">
        <ele>340</ele>
        <time>2022-09-11T07:09:51.496Z</time>
      </trkpt>
      <trkpt lat="44.13456" lon="2.24308">
        <ele>339</ele>
        <time>2022-09-11T07:09:52.496Z</time>
      </trkpt>
      <trkpt lat="44.13455" lon="2.24309">
        <ele>339</ele>
        <time>2022-09-11T07:09:53.496Z</time>
      </trkpt>
      <trkpt lat="44.13454" lon="2.2431">
        <ele>339</ele>
        <time>2022-09-11T07:09:54.496Z</time>
      </trkpt>
      <trkpt lat="44.13453" lon="2.24312">
        <ele>339</ele>
        <time>2022-09-11T07:09:55.496Z</time>
      </trkpt>
      <trkpt lat="44.13452" lon="2.24313">
        <ele>339</ele>
        <time>2022-09-11T07:09:56.496Z</time>
      </trkpt>
      <trkpt lat="44.13451" lon="2.24314">
        <ele>339</ele>
        <time>2022-09-11T07:09:57.496Z</time>
      </trkpt>
      <trkpt lat="44.1345" lon="2.24315">
        <ele>339</ele>
        <time>2022-09-11T07:09:58.496Z</time>
      </trkpt>
      <trkpt lat="44.13449" lon="2.24316">
        <ele>338</ele>
        <time>2022-09-11T07:09:59.496Z</time>
      </trkpt>
      <trkpt lat="44.13448" lon="2.24316">
        <ele>338</ele>
        <time>2022-09-11T07:10:00.496Z</time>
      </trkpt>
      <trkpt lat="44.13447" lon="2.24317">
        <ele>338</ele>
        <time>2022-09-11T07:10:01.496Z</time>
      </trkpt>
      <trkpt lat="44.13446" lon="2.24318">
        <ele>338</ele>
        <time>2022-09-11T07:10:02.496Z</time>
      </trkpt>
      <trkpt lat="44.13445" lon="2.24319">
        <ele>338</ele>
        <time>2022-09-11T07:10:03.496Z</time>
      </trkpt>
      <trkpt lat="44.13444" lon="2.2432">
        <ele>338</ele>
        <time>2022-09-11T07:10:04.496Z</time>
      </trkpt>
      <trkpt lat="44.13444" lon="2.24321">
        <ele>338</ele>
        <time>2022-09-11T07:10:05.496Z</time>
      </trkpt>
      <trkpt lat="44.13443" lon="2.24322">
        <ele>338</ele>
        <time>2022-09-11T07:10:06.496Z</time>
      </trkpt>
      <trkpt lat="44.13442" lon="2.24323">
        <ele>337</ele>
        <time>2022-09-11T07:10:07.496Z</time>
      </trkpt>
      <trkpt lat="44.13441" lon="2.24324">
        <ele>337</ele>
        <time>2022-09-11T07:10:08.496Z</time>
      </trkpt>
      <trkpt lat="44.1344" lon="2.24325">
        <ele>337</ele>
        <time>2022-09-11T07:10:09.496Z</time>
      </trkpt>
      <trkpt lat="44.13439" lon="2.24326">
        <ele>337</ele>
        <time>2022-09-11T07:10:10.496Z</time>
      </trkpt>
      <trkpt lat="44.13438" lon="2.24327">
        <ele>337</ele>
        <time>2022-09-11T07:10:11.496Z</time>
      </trkpt>
      <trkpt lat="44.13437" lon="2.24328">
        <ele>337</ele>
        <time>2022-09-11T07:10:12.496Z</time>
      </trkpt>
      <trkpt lat="44.13436" lon="2.24329">
        <ele>337</ele>
        <time>2022-09-11T07:10:13.496Z</time>
      </trkpt>
      <trkpt lat="44.13435" lon="2.2433">
        <ele>337</ele>
        <time>2022-09-11T07:10:14.496Z</time>
      </trkpt>
      <trkpt lat="44.13434" lon="2.2433">
        <ele>336</ele>
        <time>2022-09-11T07:10:15.496Z</time>
      </trkpt>
      <trkpt lat="44.13433" lon="2.24331">
        <ele>336</ele>
        <time>2022-09-11T07:10:16.496Z</time>
      </trkpt>
      <trkpt lat="44.13432" lon="2.24331">
        <ele>336</ele>
        <time>2022-09-11T07:10:17.496Z</time>
      </trkpt>
      <trkpt lat="44.13432" lon="2.24331">
        <ele>336</ele>
        <time>2022-09-11T07:10:18.496Z</time>
      </trkpt>
      <trkpt lat="44.13431" lon="2.24332">
        <ele>336</ele>
        <time>2022-09-11T07:10:19.496Z</time>
      </trkpt>
      <trkpt lat="44.13431" lon="2.24332">
        <ele>336</ele>
        <time>2022-09-11T07:10:20.496Z</time>
      </trkpt>
      <trkpt lat="44.13431" lon="2.24332">
        <ele>336</ele>
        <time>2022-09-11T07:10:21.496Z</time>
      </trkpt>
      <trkpt lat="44.1343" lon="2.24334">
        <ele>336</ele>
        <time>2022-09-11T07:10:24.751Z</time>
      </trkpt>
      <trkpt lat="44.1343" lon="2.24335">
        <ele>336</ele>
        <time>2022-09-11T07:10:25.751Z</time>
      </trkpt>
      <trkpt lat="44.1343" lon="2.24335">
        <ele>336</ele>
        <time>2022-09-11T07:10:26.751Z</time>
      </trkpt>
      <trkpt lat="44.1343" lon="2.24335">
        <ele>336</ele>
        <time>2022-09-11T07:10:27.751Z</time>
      </trkpt>
      <trkpt lat="44.1343" lon="2.24335">
        <ele>336</ele>
        <time>2022-09-11T07:10:28.751Z</time>
      </trkpt>
      <trkpt lat="44.13431" lon="2.24332">
        <ele>333</ele>
        <time>2022-09-11T07:11:25.752Z</time>
      </trkpt>
      <trkpt lat="44.1343" lon="2.24332">
        <ele>333</ele>
        <time>2022-09-11T07:11:26.752Z</time>
      </trkpt>
      <trkpt lat="44.1343" lon="2.24331">
        <ele>333</ele>
        <time>2022-09-11T07:11:27.752Z</time>
      </trkpt>
      <trkpt lat="44.13428" lon="2.2433">
        <ele>333</ele>
        <time>2022-09-11T07:11:28.752Z</time>
      </trkpt>
      <trkpt lat="44.13427" lon="2.24329">
        <ele>333</ele>
        <time>2022-09-11T07:11:29.752Z</time>
      </trkpt>
      <trkpt lat="44.13426" lon="2.24328">
        <ele>333</ele>
        <time>2022-09-11T07:11:30.752Z</time>
      </trkpt>
      <trkpt lat="44.13425" lon="2.24327">
        <ele>333</ele>
        <time>2022-09-11T07:11:31.752Z</time>
      </trkpt>
      <trkpt lat="44.13424" lon="2.24326">
        <ele>333</ele>
        <time>2022-09-11T07:11:32.752Z</time>
      </trkpt>
      <trkpt lat="44.13423" lon="2.24325">
        <ele>333</ele>
        <time>2022-09-11T07:11:33.752Z</time>
      </trkpt>
      <trkpt lat="44.13422" lon="2.24325">
        <ele>333</ele>
        <time>2022-09-11T07:11:34.752Z</time>
      </trkpt>
      <trkpt lat="44.13421" lon="2.24324">
        <ele>333</ele>
        <time>2022-09-11T07:11:35.752Z</time>
      </trkpt>
      <trkpt lat="44.1342" lon="2.24324">
        <ele>333</ele>
        <time>2022-09-11T07:11:36.752Z</time>
      </trkpt>
      <trkpt lat="44.13418" lon="2.24324">
        <ele>332</ele>
        <time>2022-09-11T07:11:37.752Z</time>
      </trkpt>
      <trkpt lat="44.13417" lon="2.24323">
        <ele>332</ele>
        <time>2022-09-11T07:11:38.752Z</time>
      </trkpt>
      <trkpt lat="44.13416" lon="2.24323">
        <ele>332</ele>
        <time>2022-09-11T07:11:39.752Z</time>
      </trkpt>
      <trkpt lat="44.13415" lon="2.24322">
        <ele>332</ele>
        <time>2022-09-11T07:11:40.752Z</time>
      </trkpt>
      <trkpt lat="44.13414" lon="2.24322">
        <ele>332</ele>
        <time>2022-09-11T07:11:41.752Z</time>
      </trkpt>
      <trkpt lat="44.13413" lon="2.24322">
        <ele>332</ele>
        <time>2022-09-11T07:11:42.752Z</time>
      </trkpt>
      <trkpt lat="44.13412" lon="2.24321">
        <ele>332</ele>
        <time>2022-09-11T07:11:43.752Z</time>
      </trkpt>
      <trkpt lat="44.13411" lon="2.24321">
        <ele>332</ele>
        <time>2022-09-11T07:11:44.752Z</time>
      </trkpt>
      <trkpt lat="44.1341" lon="2.24321">
        <ele>332</ele>
        <time>2022-09-11T07:11:45.752Z</time>
      </trkpt>
      <trkpt lat="44.13409" lon="2.24321">
        <ele>332</ele>
        <time>2022-09-11T07:11:46.752Z</time>
      </trkpt>
      <trkpt lat="44.13408" lon="2.24321">
        <ele>332</ele>
        <time>2022-09-11T07:11:47.752Z</time>
      </trkpt>
      <trkpt lat="44.13407" lon="2.2432">
        <ele>332</ele>
        <time>2022-09-11T07:11:48.752Z</time>
      </trkpt>
      <trkpt lat="44.13406" lon="2.2432">
        <ele>332</ele>
        <time>2022-09-11T07:11:49.752Z</time>
      </trkpt>
      <trkpt lat="44.13405" lon="2.2432">
        <ele>332</ele>
        <time>2022-09-11T07:11:50.752Z</time>
      </trkpt>
      <trkpt lat="44.13404" lon="2.24321">
        <ele>332</ele>
        <time>2022-09-11T07:11:51.752Z</time>
      </trkpt>
      <trkpt lat="44.13403" lon="2.24321">
        <ele>332</ele>
        <time>2022-09-11T07:11:52.752Z</time>
      </trkpt>
      <trkpt lat="44.13401" lon="2.24322">
        <ele>332</ele>
        <time>2022-09-11T07:11:53.752Z</time>
      </trkpt>
      <trkpt lat="44.134" lon="2.24323">
        <ele>332</ele>
        <time>2022-09-11T07:11:54.752Z</time>
      </trkpt>
      <trkpt lat="44.13399" lon="2.24324">
        <ele>331</ele>
        <time>2022-09-11T07:11:55.752Z</time>
      </trkpt>
      <trkpt lat="44.13398" lon="2.24324">
        <ele>331</ele>
        <time>2022-09-11T07:11:56.752Z</time>
      </trkpt>
      <trkpt lat="44.13397" lon="2.24325">
        <ele>331</ele>
        <time>2022-09-11T07:11:57.752Z</time>
      </trkpt>
      <trkpt lat="44.13395" lon="2.24325">
        <ele>331</ele>
        <time>2022-09-11T07:11:58.752Z</time>
      </trkpt>
      <trkpt lat="44.13394" lon="2.24326">
        <ele>331</ele>
        <time>2022-09-11T07:11:59.752Z</time>
      </trkpt>
      <trkpt lat="44.13393" lon="2.24326">
        <ele>331</ele>
        <time>2022-09-11T07:12:00.752Z</time>
      </trkpt>
      <trkpt lat="44.13391" lon="2.24327">
        <ele>331</ele>
        <time>2022-09-11T07:12:01.752Z</time>
      </trkpt>
      <trkpt lat="44.1339" lon="2.24328">
        <ele>331</ele>
        <time>2022-09-11T07:12:02.752Z</time>
      </trkpt>
      <trkpt lat="44.13389" lon="2.24328">
        <ele>331</ele>
        <time>2022-09-11T07:12:03.752Z</time>
      </trkpt>
      <trkpt lat="44.13387" lon="2.24329">
        <ele>331</ele>
        <time>2022-09-11T07:12:04.752Z</time>
      </trkpt>
      <trkpt lat="44.13386" lon="2.24329">
        <ele>331</ele>
        <time>2022-09-11T07:12:05.752Z</time>
      </trkpt>
      <trkpt lat="44.13385" lon="2.24329">
        <ele>331</ele>
        <time>2022-09-11T07:12:06.752Z</time>
      </trkpt>
      <trkpt lat="44.13383" lon="2.2433">
        <ele>331</ele>
        <time>2022-09-11T07:12:07.752Z</time>
      </trkpt>
      <trkpt lat="44.13382" lon="2.2433">
        <ele>331</ele>
        <time>2022-09-11T07:12:08.752Z</time>
      </trkpt>
      <trkpt lat="44.13381" lon="2.2433">
        <ele>331</ele>
        <time>2022-09-11T07:12:09.752Z</time>
      </trkpt>
      <trkpt lat="44.1338" lon="2.24331">
        <ele>331</ele>
        <time>2022-09-11T07:12:10.752Z</time>
      </trkpt>
      <trkpt lat="44.13379" lon="2.24331">
        <ele>331</ele>
        <time>2022-09-11T07:12:11.752Z</time>
      </trkpt>
      <trkpt lat="44.13378" lon="2.24331">
        <ele>331</ele>
        <time>2022-09-11T07:12:12.752Z</time>
      </trkpt>
      <trkpt lat="44.13377" lon="2.24332">
        <ele>331</ele>
        <time>2022-09-11T07:12:13.752Z</time>
      </trkpt>
      <trkpt lat="44.13376" lon="2.24332">
        <ele>331</ele>
        <time>2022-09-11T07:12:14.752Z</time>
      </trkpt>
      <trkpt lat="44.13374" lon="2.24333">
        <ele>330</ele>
        <time>2022-09-11T07:12:15.752Z</time>
      </trkpt>
      <trkpt lat="44.13373" lon="2.24333">
        <ele>330</ele>
        <time>2022-09-11T07:12:16.752Z</time>
      </trkpt>
      <trkpt lat="44.13373" lon="2.24334">
        <ele>330</ele>
        <time>2022-09-11T07:12:17.752Z</time>
      </trkpt>
      <trkpt lat="44.13371" lon="2.24334">
        <ele>330</ele>
        <time>2022-09-11T07:12:18.752Z</time>
      </trkpt>
      <trkpt lat="44.1337" lon="2.24335">
        <ele>330</ele>
        <time>2022-09-11T07:12:19.752Z</time>
      </trkpt>
      <trkpt lat="44.13369" lon="2.24335">
        <ele>330</ele>
        <time>2022-09-11T07:12:20.752Z</time>
      </trkpt>
      <trkpt lat="44.13368" lon="2.24336">
        <ele>330</ele>
        <time>2022-09-11T07:12:21.752Z</time>
      </trkpt>
      <trkpt lat="44.13367" lon="2.24336">
        <ele>330</ele>
        <time>2022-09-11T07:12:22.752Z</time>
      </trkpt>
      <trkpt lat="44.13366" lon="2.24337">
        <ele>330</ele>
        <time>2022-09-11T07:12:23.752Z</time>
      </trkpt>
      <trkpt lat="44.13365" lon="2.24338">
        <ele>330</ele>
        <time>2022-09-11T07:12:24.752Z</time>
      </trkpt>
      <trkpt lat="44.13364" lon="2.24338">
        <ele>330</ele>
        <time>2022-09-11T07:12:25.752Z</time>
      </trkpt>
      <trkpt lat="44.13363" lon="2.24339">
        <ele>330</ele>
        <time>2022-09-11T07:12:26.752Z</time>
      </trkpt>
      <trkpt lat="44.13362" lon="2.24339">
        <ele>330</ele>
        <time>2022-09-11T07:12:27.752Z</time>
      </trkpt>
      <trkpt lat="44.13361" lon="2.2434">
        <ele>330</ele>
        <time>2022-09-11T07:12:28.752Z</time>
      </trkpt>
      <trkpt lat="44.1336" lon="2.2434">
        <ele>330</ele>
        <time>2022-09-11T07:12:29.752Z</time>
      </trkpt>
      <trkpt lat="44.13359" lon="2.24341">
        <ele>329</ele>
        <time>2022-09-11T07:12:30.752Z</time>
      </trkpt>
      <trkpt lat="44.13358" lon="2.24341">
        <ele>329</ele>
        <time>2022-09-11T07:12:31.752Z</time>
      </trkpt>
      <trkpt lat="44.13357" lon="2.24342">
        <ele>329</ele>
        <time>2022-09-11T07:12:32.752Z</time>
      </trkpt>
      <trkpt lat="44.13356" lon="2.24343">
        <ele>329</ele>
        <time>2022-09-11T07:12:33.752Z</time>
      </trkpt>
      <trkpt lat="44.13354" lon="2.24344">
        <ele>329</ele>
        <time>2022-09-11T07:12:34.752Z</time>
      </trkpt>
      <trkpt lat="44.13353" lon="2.24344">
        <ele>329</ele>
        <time>2022-09-11T07:12:35.752Z</time>
      </trkpt>
      <trkpt lat="44.13352" lon="2.24345">
        <ele>329</ele>
        <time>2022-09-11T07:12:36.752Z</time>
      </trkpt>
      <trkpt lat="44.13351" lon="2.24346">
        <ele>329</ele>
        <time>2022-09-11T07:12:37.752Z</time>
      </trkpt>
      <trkpt lat="44.1335" lon="2.24346">
        <ele>329</ele>
        <time>2022-09-11T07:12:38.752Z</time>
      </trkpt>
      <trkpt lat="44.13349" lon="2.24347">
        <ele>329</ele>
        <time>2022-09-11T07:12:39.752Z</time>
      </trkpt>
      <trkpt lat="44.13348" lon="2.24347">
        <ele>329</ele>
        <time>2022-09-11T07:12:40.752Z</time>
      </trkpt>
      <trkpt lat="44.13347" lon="2.24348">
        <ele>329</ele>
        <time>2022-09-11T07:12:41.752Z</time>
      </trkpt>
      <trkpt lat="44.13345" lon="2.24349">
        <ele>329</ele>
        <time>2022-09-11T07:12:42.752Z</time>
      </trkpt>
      <trkpt lat="44.13344" lon="2.24349">
        <ele>329</ele>
        <time>2022-09-11T07:12:43.752Z</time>
      </trkpt>
      <trkpt lat="44.13343" lon="2.2435">
        <ele>329</ele>
        <time>2022-09-11T07:12:44.752Z</time>
      </trkpt>
      <trkpt lat="44.13342" lon="2.2435">
        <ele>328</ele>
        <time>2022-09-11T07:12:45.752Z</time>
      </trkpt>
      <trkpt lat="44.13341" lon="2.2435">
        <ele>328</ele>
        <time>2022-09-11T07:12:46.752Z</time>
      </trkpt>
      <trkpt lat="44.13341" lon="2.2435">
        <ele>328</ele>
        <time>2022-09-11T07:12:47.752Z</time>
      </trkpt>
      <trkpt lat="44.1334" lon="2.24351">
        <ele>328</ele>
        <time>2022-09-11T07:12:48.752Z</time>
      </trkpt>
      <trkpt lat="44.13339" lon="2.24352">
        <ele>328</ele>
        <time>2022-09-11T07:12:49.752Z</time>
      </trkpt>
      <trkpt lat="44.13338" lon="2.24353">
        <ele>328</ele>
        <time>2022-09-11T07:12:50.752Z</time>
      </trkpt>
      <trkpt lat="44.13337" lon="2.24353">
        <ele>328</ele>
        <time>2022-09-11T07:12:51.752Z</time>
      </trkpt>
      <trkpt lat="44.13336" lon="2.24354">
        <ele>328</ele>
        <time>2022-09-11T07:12:52.752Z</time>
      </trkpt>
      <trkpt lat="44.13335" lon="2.24354">
        <ele>328</ele>
        <time>2022-09-11T07:12:53.752Z</time>
      </trkpt>
      <trkpt lat="44.13334" lon="2.24355">
        <ele>328</ele>
        <time>2022-09-11T07:12:54.752Z</time>
      </trkpt>
      <trkpt lat="44.13333" lon="2.24356">
        <ele>328</ele>
        <time>2022-09-11T07:12:55.752Z</time>
      </trkpt>
      <trkpt lat="44.13332" lon="2.24357">
        <ele>328</ele>
        <time>2022-09-11T07:12:56.752Z</time>
      </trkpt>
      <trkpt lat="44.13331" lon="2.24357">
        <ele>328</ele>
        <time>2022-09-11T07:12:57.752Z</time>
      </trkpt>
      <trkpt lat="44.1333" lon="2.24358">
        <ele>328</ele>
        <time>2022-09-11T07:12:58.752Z</time>
      </trkpt>
      <trkpt lat="44.13329" lon="2.24359">
        <ele>328</ele>
        <time>2022-09-11T07:12:59.752Z</time>
      </trkpt>
      <trkpt lat="44.13328" lon="2.2436">
        <ele>328</ele>
        <time>2022-09-11T07:13:00.752Z</time>
      </trkpt>
      <trkpt lat="44.13327" lon="2.2436">
        <ele>328</ele>
        <time>2022-09-11T07:13:01.752Z</time>
      </trkpt>
      <trkpt lat="44.13326" lon="2.24361">
        <ele>327</ele>
        <time>2022-09-11T07:13:02.752Z</time>
      </trkpt>
      <trkpt lat="44.13325" lon="2.24361">
        <ele>327</ele>
        <time>2022-09-11T07:13:03.752Z</time>
      </trkpt>
      <trkpt lat="44.13324" lon="2.24361">
        <ele>327</ele>
        <time>2022-09-11T07:13:04.752Z</time>
      </trkpt>
      <trkpt lat="44.13323" lon="2.24361">
        <ele>327</ele>
        <time>2022-09-11T07:13:05.752Z</time>
      </trkpt>
      <trkpt lat="44.13322" lon="2.24362">
        <ele>327</ele>
        <time>2022-09-11T07:13:06.752Z</time>
      </trkpt>
      <trkpt lat="44.13321" lon="2.24362">
        <ele>327</ele>
        <time>2022-09-11T07:13:07.752Z</time>
      </trkpt>
      <trkpt lat="44.1332" lon="2.24363">
        <ele>326</ele>
        <time>2022-09-11T07:13:08.752Z</time>
      </trkpt>
      <trkpt lat="44.13319" lon="2.24363">
        <ele>326</ele>
        <time>2022-09-11T07:13:09.752Z</time>
      </trkpt>
      <trkpt lat="44.13318" lon="2.24363">
        <ele>326</ele>
        <time>2022-09-11T07:13:10.752Z</time>
      </trkpt>
      <trkpt lat="44.13317" lon="2.24364">
        <ele>326</ele>
        <time>2022-09-11T07:13:11.752Z</time>
      </trkpt>
      <trkpt lat="44.13316" lon="2.24365">
        <ele>326</ele>
        <time>2022-09-11T07:13:12.752Z</time>
      </trkpt>
      <trkpt lat="44.13315" lon="2.24365">
        <ele>326</ele>
        <time>2022-09-11T07:13:13.752Z</time>
      </trkpt>
      <trkpt lat="44.13314" lon="2.24366">
        <ele>326</ele>
        <time>2022-09-11T07:13:14.752Z</time>
      </trkpt>
      <trkpt lat="44.13313" lon="2.24366">
        <ele>326</ele>
        <time>2022-09-11T07:13:15.752Z</time>
      </trkpt>
      <trkpt lat="44.13312" lon="2.24366">
        <ele>326</ele>
        <time>2022-09-11T07:13:16.752Z</time>
      </trkpt>
      <trkpt lat="44.13311" lon="2.24366">
        <ele>325</ele>
        <time>2022-09-11T07:13:17.752Z</time>
      </trkpt>
      <trkpt lat="44.1331" lon="2.24366">
        <ele>325</ele>
        <time>2022-09-11T07:13:18.752Z</time>
      </trkpt>
      <trkpt lat="44.13309" lon="2.24367">
        <ele>325</ele>
        <time>2022-09-11T07:13:19.752Z</time>
      </trkpt>
      <trkpt lat="44.13308" lon="2.24367">
        <ele>325</ele>
        <time>2022-09-11T07:13:20.752Z</time>
      </trkpt>
      <trkpt lat="44.13307" lon="2.24367">
        <ele>325</ele>
        <time>2022-09-11T07:13:21.752Z</time>
      </trkpt>
      <trkpt lat="44.13306" lon="2.24367">
        <ele>325</ele>
        <time>2022-09-11T07:13:22.752Z</time>
      </trkpt>
      <trkpt lat="44.13305" lon="2.24367">
        <ele>325</ele>
        <time>2022-09-11T07:13:23.752Z</time>
      </trkpt>
      <trkpt lat="44.13304" lon="2.24367">
        <ele>325</ele>
        <time>2022-09-11T07:13:24.752Z</time>
      </trkpt>
      <trkpt lat="44.13303" lon="2.24368">
        <ele>325</ele>
        <time>2022-09-11T07:13:25.752Z</time>
      </trkpt>
      <trkpt lat="44.13302" lon="2.24368">
        <ele>325</ele>
        <time>2022-09-11T07:13:26.752Z</time>
      </trkpt>
      <trkpt lat="44.13301" lon="2.24368">
        <ele>325</ele>
        <time>2022-09-11T07:13:27.752Z</time>
      </trkpt>
      <trkpt lat="44.133" lon="2.24369">
        <ele>325</ele>
        <time>2022-09-11T07:13:28.752Z</time>
      </trkpt>
      <trkpt lat="44.13299" lon="2.24369">
        <ele>325</ele>
        <time>2022-09-11T07:13:29.752Z</time>
      </trkpt>
      <trkpt lat="44.13298" lon="2.2437">
        <ele>325</ele>
        <time>2022-09-11T07:13:30.752Z</time>
      </trkpt>
      <trkpt lat="44.13297" lon="2.2437">
        <ele>325</ele>
        <time>2022-09-11T07:13:31.752Z</time>
      </trkpt>
      <trkpt lat="44.13295" lon="2.2437">
        <ele>325</ele>
        <time>2022-09-11T07:13:32.752Z</time>
      </trkpt>
      <trkpt lat="44.13294" lon="2.24371">
        <ele>324</ele>
        <time>2022-09-11T07:13:33.752Z</time>
      </trkpt>
      <trkpt lat="44.13293" lon="2.24371">
        <ele>324</ele>
        <time>2022-09-11T07:13:34.752Z</time>
      </trkpt>
      <trkpt lat="44.13291" lon="2.24372">
        <ele>324</ele>
        <time>2022-09-11T07:13:35.752Z</time>
      </trkpt>
      <trkpt lat="44.1329" lon="2.24372">
        <ele>324</ele>
        <time>2022-09-11T07:13:36.752Z</time>
      </trkpt>
      <trkpt lat="44.13289" lon="2.24373">
        <ele>324</ele>
        <time>2022-09-11T07:13:37.752Z</time>
      </trkpt>
      <trkpt lat="44.13288" lon="2.24373">
        <ele>324</ele>
        <time>2022-09-11T07:13:38.752Z</time>
      </trkpt>
      <trkpt lat="44.13287" lon="2.24373">
        <ele>324</ele>
        <time>2022-09-11T07:13:39.752Z</time>
      </trkpt>
      <trkpt lat="44.13286" lon="2.24374">
        <ele>324</ele>
        <time>2022-09-11T07:13:40.752Z</time>
      </trkpt>
      <trkpt lat="44.13285" lon="2.24375">
        <ele>324</ele>
        <time>2022-09-11T07:13:41.752Z</time>
      </trkpt>
      <trkpt lat="44.13284" lon="2.24375">
        <ele>324</ele>
        <time>2022-09-11T07:13:42.752Z</time>
      </trkpt>
      <trkpt lat="44.13283" lon="2.24376">
        <ele>324</ele>
        <time>2022-09-11T07:13:43.752Z</time>
      </trkpt>
      <trkpt lat="44.13282" lon="2.24377">
        <ele>324</ele>
        <time>2022-09-11T07:13:44.752Z</time>
      </trkpt>
      <trkpt lat="44.13281" lon="2.24378">
        <ele>324</ele>
        <time>2022-09-11T07:13:45.752Z</time>
      </trkpt>
      <trkpt lat="44.1328" lon="2.24379">
        <ele>324</ele>
        <time>2022-09-11T07:13:46.752Z</time>
      </trkpt>
      <trkpt lat="44.13279" lon="2.2438">
        <ele>324</ele>
        <time>2022-09-11T07:13:47.752Z</time>
      </trkpt>
      <trkpt lat="44.13279" lon="2.24381">
        <ele>324</ele>
        <time>2022-09-11T07:13:48.752Z</time>
      </trkpt>
      <trkpt lat="44.13278" lon="2.24382">
        <ele>324</ele>
        <time>2022-09-11T07:13:49.752Z</time>
      </trkpt>
      <trkpt lat="44.13277" lon="2.24383">
        <ele>324</ele>
        <time>2022-09-11T07:13:50.752Z</time>
      </trkpt>
      <trkpt lat="44.13276" lon="2.24384">
        <ele>324</ele>
        <time>2022-09-11T07:13:51.752Z</time>
      </trkpt>
      <trkpt lat="44.13275" lon="2.24385">
        <ele>324</ele>
        <time>2022-09-11T07:13:52.752Z</time>
      </trkpt>
      <trkpt lat="44.13274" lon="2.24386">
        <ele>324</ele>
        <time>2022-09-11T07:13:53.752Z</time>
      </trkpt>
      <trkpt lat="44.13273" lon="2.24387">
        <ele>324</ele>
        <time>2022-09-11T07:13:54.752Z</time>
      </trkpt>
      <trkpt lat="44.13271" lon="2.24388">
        <ele>324</ele>
        <time>2022-09-11T07:13:55.752Z</time>
      </trkpt>
      <trkpt lat="44.1327" lon="2.24389">
        <ele>324</ele>
        <time>2022-09-11T07:13:56.752Z</time>
      </trkpt>
      <trkpt lat="44.13269" lon="2.2439">
        <ele>324</ele>
        <time>2022-09-11T07:13:57.752Z</time>
      </trkpt>
      <trkpt lat="44.13268" lon="2.24391">
        <ele>324</ele>
        <time>2022-09-11T07:13:58.752Z</time>
      </trkpt>
      <trkpt lat="44.13267" lon="2.24391">
        <ele>323</ele>
        <time>2022-09-11T07:13:59.752Z</time>
      </trkpt>
      <trkpt lat="44.13266" lon="2.24392">
        <ele>323</ele>
        <time>2022-09-11T07:14:00.752Z</time>
      </trkpt>
      <trkpt lat="44.13265" lon="2.24393">
        <ele>323</ele>
        <time>2022-09-11T07:14:01.752Z</time>
      </trkpt>
      <trkpt lat="44.13264" lon="2.24394">
        <ele>323</ele>
        <time>2022-09-11T07:14:02.752Z</time>
      </trkpt>
      <trkpt lat="44.13263" lon="2.24395">
        <ele>323</ele>
        <time>2022-09-11T07:14:03.752Z</time>
      </trkpt>
      <trkpt lat="44.13262" lon="2.24395">
        <ele>323</ele>
        <time>2022-09-11T07:14:04.752Z</time>
      </trkpt>
      <trkpt lat="44.13261" lon="2.24396">
        <ele>323</ele>
        <time>2022-09-11T07:14:05.752Z</time>
      </trkpt>
      <trkpt lat="44.1326" lon="2.24397">
        <ele>322</ele>
        <time>2022-09-11T07:14:06.752Z</time>
      </trkpt>
      <trkpt lat="44.13259" lon="2.24398">
        <ele>322</ele>
        <time>2022-09-11T07:14:07.752Z</time>
      </trkpt>
      <trkpt lat="44.13258" lon="2.24399">
        <ele>322</ele>
        <time>2022-09-11T07:14:08.752Z</time>
      </trkpt>
      <trkpt lat="44.13257" lon="2.244">
        <ele>322</ele>
        <time>2022-09-11T07:14:09.752Z</time>
      </trkpt>
      <trkpt lat="44.13256" lon="2.24402">
        <ele>322</ele>
        <time>2022-09-11T07:14:10.752Z</time>
      </trkpt>
      <trkpt lat="44.13255" lon="2.24403">
        <ele>322</ele>
        <time>2022-09-11T07:14:11.752Z</time>
      </trkpt>
      <trkpt lat="44.13255" lon="2.24404">
        <ele>322</ele>
        <time>2022-09-11T07:14:12.752Z</time>
      </trkpt>
      <trkpt lat="44.13254" lon="2.24406">
        <ele>322</ele>
        <time>2022-09-11T07:14:13.752Z</time>
      </trkpt>
      <trkpt lat="44.13253" lon="2.24407">
        <ele>322</ele>
        <time>2022-09-11T07:14:14.752Z</time>
      </trkpt>
      <trkpt lat="44.13253" lon="2.24408">
        <ele>322</ele>
        <time>2022-09-11T07:14:15.752Z</time>
      </trkpt>
      <trkpt lat="44.13252" lon="2.24409">
        <ele>322</ele>
        <time>2022-09-11T07:14:16.752Z</time>
      </trkpt>
      <trkpt lat="44.13251" lon="2.24411">
        <ele>322</ele>
        <time>2022-09-11T07:14:17.752Z</time>
      </trkpt>
      <trkpt lat="44.13251" lon="2.24412">
        <ele>322</ele>
        <time>2022-09-11T07:14:18.752Z</time>
      </trkpt>
      <trkpt lat="44.1325" lon="2.24413">
        <ele>322</ele>
        <time>2022-09-11T07:14:19.752Z</time>
      </trkpt>
      <trkpt lat="44.13249" lon="2.24414">
        <ele>322</ele>
        <time>2022-09-11T07:14:20.752Z</time>
      </trkpt>
      <trkpt lat="44.13249" lon="2.24415">
        <ele>321</ele>
        <time>2022-09-11T07:14:21.752Z</time>
      </trkpt>
      <trkpt lat="44.13248" lon="2.24416">
        <ele>321</ele>
        <time>2022-09-11T07:14:22.752Z</time>
      </trkpt>
      <trkpt lat="44.13247" lon="2.24417">
        <ele>321</ele>
        <time>2022-09-11T07:14:23.752Z</time>
      </trkpt>
      <trkpt lat="44.13246" lon="2.24419">
        <ele>321</ele>
        <time>2022-09-11T07:14:24.752Z</time>
      </trkpt>
      <trkpt lat="44.13245" lon="2.2442">
        <ele>321</ele>
        <time>2022-09-11T07:14:25.752Z</time>
      </trkpt>
      <trkpt lat="44.13244" lon="2.24421">
        <ele>321</ele>
        <time>2022-09-11T07:14:26.752Z</time>
      </trkpt>
      <trkpt lat="44.13243" lon="2.24422">
        <ele>321</ele>
        <time>2022-09-11T07:14:27.752Z</time>
      </trkpt>
      <trkpt lat="44.13242" lon="2.24423">
        <ele>321</ele>
        <time>2022-09-11T07:14:28.752Z</time>
      </trkpt>
      <trkpt lat="44.13242" lon="2.24424">
        <ele>321</ele>
        <time>2022-09-11T07:14:29.752Z</time>
      </trkpt>
      <trkpt lat="44.13241" lon="2.24425">
        <ele>320</ele>
        <time>2022-09-11T07:14:30.752Z</time>
      </trkpt>
      <trkpt lat="44.1324" lon="2.24427">
        <ele>320</ele>
        <time>2022-09-11T07:14:31.752Z</time>
      </trkpt>
      <trkpt lat="44.13239" lon="2.24428">
        <ele>320</ele>
        <time>2022-09-11T07:14:32.752Z</time>
      </trkpt>
      <trkpt lat="44.13239" lon="2.24428">
        <ele>320</ele>
        <time>2022-09-11T07:14:33.752Z</time>
      </trkpt>
      <trkpt lat="44.13238" lon="2.24429">
        <ele>320</ele>
        <time>2022-09-11T07:14:34.752Z</time>
      </trkpt>
      <trkpt lat="44.13238" lon="2.2443">
        <ele>320</ele>
        <time>2022-09-11T07:14:35.752Z</time>
      </trkpt>
      <trkpt lat="44.13237" lon="2.24432">
        <ele>320</ele>
        <time>2022-09-11T07:14:36.752Z</time>
      </trkpt>
      <trkpt lat="44.13237" lon="2.24433">
        <ele>320</ele>
        <time>2022-09-11T07:14:37.752Z</time>
      </trkpt>
      <trkpt lat="44.13237" lon="2.24434">
        <ele>320</ele>
        <time>2022-09-11T07:14:38.752Z</time>
      </trkpt>
      <trkpt lat="44.13236" lon="2.24436">
        <ele>320</ele>
        <time>2022-09-11T07:14:39.752Z</time>
      </trkpt>
      <trkpt lat="44.13236" lon="2.24437">
        <ele>319</ele>
        <time>2022-09-11T07:14:40.752Z</time>
      </trkpt>
      <trkpt lat="44.13235" lon="2.24439">
        <ele>319</ele>
        <time>2022-09-11T07:14:41.752Z</time>
      </trkpt>
      <trkpt lat="44.13235" lon="2.2444">
        <ele>319</ele>
        <time>2022-09-11T07:14:42.752Z</time>
      </trkpt>
      <trkpt lat="44.13235" lon="2.24442">
        <ele>319</ele>
        <time>2022-09-11T07:14:43.752Z</time>
      </trkpt>
      <trkpt lat="44.13234" lon="2.24443">
        <ele>319</ele>
        <time>2022-09-11T07:14:44.752Z</time>
      </trkpt>
      <trkpt lat="44.13234" lon="2.24445">
        <ele>319</ele>
        <time>2022-09-11T07:14:45.752Z</time>
      </trkpt>
      <trkpt lat="44.13233" lon="2.24446">
        <ele>318</ele>
        <time>2022-09-11T07:14:46.752Z</time>
      </trkpt>
      <trkpt lat="44.13233" lon="2.24448">
        <ele>318</ele>
        <time>2022-09-11T07:14:47.752Z</time>
      </trkpt>
      <trkpt lat="44.13232" lon="2.2445">
        <ele>318</ele>
        <time>2022-09-11T07:14:48.752Z</time>
      </trkpt>
      <trkpt lat="44.13232" lon="2.24451">
        <ele>318</ele>
        <time>2022-09-11T07:14:49.752Z</time>
      </trkpt>
      <trkpt lat="44.13232" lon="2.24453">
        <ele>318</ele>
        <time>2022-09-11T07:14:50.752Z</time>
      </trkpt>
      <trkpt lat="44.13231" lon="2.24454">
        <ele>317</ele>
        <time>2022-09-11T07:14:51.752Z</time>
      </trkpt>
      <trkpt lat="44.13231" lon="2.24455">
        <ele>317</ele>
        <time>2022-09-11T07:14:52.752Z</time>
      </trkpt>
      <trkpt lat="44.1323" lon="2.24457">
        <ele>317</ele>
        <time>2022-09-11T07:14:53.752Z</time>
      </trkpt>
      <trkpt lat="44.1323" lon="2.24458">
        <ele>317</ele>
        <time>2022-09-11T07:14:54.752Z</time>
      </trkpt>
      <trkpt lat="44.13229" lon="2.2446">
        <ele>317</ele>
        <time>2022-09-11T07:14:55.752Z</time>
      </trkpt>
      <trkpt lat="44.13229" lon="2.24461">
        <ele>316</ele>
        <time>2022-09-11T07:14:56.752Z</time>
      </trkpt>
      <trkpt lat="44.13228" lon="2.24463">
        <ele>316</ele>
        <time>2022-09-11T07:14:57.752Z</time>
      </trkpt>
      <trkpt lat="44.13228" lon="2.24464">
        <ele>316</ele>
        <time>2022-09-11T07:14:58.752Z</time>
      </trkpt>
      <trkpt lat="44.13227" lon="2.24466">
        <ele>316</ele>
        <time>2022-09-11T07:14:59.752Z</time>
      </trkpt>
      <trkpt lat="44.13227" lon="2.24468">
        <ele>316</ele>
        <time>2022-09-11T07:15:00.752Z</time>
      </trkpt>
      <trkpt lat="44.13226" lon="2.24469">
        <ele>316</ele>
        <time>2022-09-11T07:15:01.752Z</time>
      </trkpt>
      <trkpt lat="44.13226" lon="2.24471">
        <ele>315</ele>
        <time>2022-09-11T07:15:02.752Z</time>
      </trkpt>
      <trkpt lat="44.13225" lon="2.24472">
        <ele>315</ele>
        <time>2022-09-11T07:15:03.752Z</time>
      </trkpt>
      <trkpt lat="44.13225" lon="2.24473">
        <ele>315</ele>
        <time>2022-09-11T07:15:04.752Z</time>
      </trkpt>
      <trkpt lat="44.13225" lon="2.24475">
        <ele>315</ele>
        <time>2022-09-11T07:15:05.752Z</time>
      </trkpt>
      <trkpt lat="44.13225" lon="2.24476">
        <ele>315</ele>
        <time>2022-09-11T07:15:06.752Z</time>
      </trkpt>
      <trkpt lat="44.13225" lon="2.24477">
        <ele>315</ele>
        <time>2022-09-11T07:15:07.752Z</time>
      </trkpt>
      <trkpt lat="44.13225" lon="2.24477">
        <ele>314</ele>
        <time>2022-09-11T07:15:08.752Z</time>
      </trkpt>
      <trkpt lat="44.13225" lon="2.24478">
        <ele>314</ele>
        <time>2022-09-11T07:15:09.752Z</time>
      </trkpt>
      <trkpt lat="44.13224" lon="2.24479">
        <ele>314</ele>
        <time>2022-09-11T07:15:10.752Z</time>
      </trkpt>
      <trkpt lat="44.13224" lon="2.2448">
        <ele>314</ele>
        <time>2022-09-11T07:15:11.752Z</time>
      </trkpt>
      <trkpt lat="44.13224" lon="2.24481">
        <ele>314</ele>
        <time>2022-09-11T07:15:12.752Z</time>
      </trkpt>
      <trkpt lat="44.13223" lon="2.24482">
        <ele>314</ele>
        <time>2022-09-11T07:15:13.752Z</time>
      </trkpt>
      <trkpt lat="44.13223" lon="2.24484">
        <ele>313</ele>
        <time>2022-09-11T07:15:14.752Z</time>
      </trkpt>
      <trkpt lat="44.13222" lon="2.24485">
        <ele>313</ele>
        <time>2022-09-11T07:15:15.752Z</time>
      </trkpt>
      <trkpt lat="44.13222" lon="2.24487">
        <ele>313</ele>
        <time>2022-09-11T07:15:16.752Z</time>
      </trkpt>
      <trkpt lat="44.13222" lon="2.24488">
        <ele>313</ele>
        <time>2022-09-11T07:15:17.752Z</time>
      </trkpt>
      <trkpt lat="44.13221" lon="2.24489">
        <ele>312</ele>
        <time>2022-09-11T07:15:18.752Z</time>
      </trkpt>
      <trkpt lat="44.13221" lon="2.24491">
        <ele>312</ele>
        <time>2022-09-11T07:15:19.752Z</time>
      </trkpt>
      <trkpt lat="44.13221" lon="2.24492">
        <ele>312</ele>
        <time>2022-09-11T07:15:20.752Z</time>
      </trkpt>
      <trkpt lat="44.1322" lon="2.24493">
        <ele>312</ele>
        <time>2022-09-11T07:15:21.752Z</time>
      </trkpt>
      <trkpt lat="44.1322" lon="2.24495">
        <ele>312</ele>
        <time>2022-09-11T07:15:22.752Z</time>
      </trkpt>
      <trkpt lat="44.13219" lon="2.24496">
        <ele>312</ele>
        <time>2022-09-11T07:15:23.752Z</time>
      </trkpt>
      <trkpt lat="44.13219" lon="2.24497">
        <ele>312</ele>
        <time>2022-09-11T07:15:24.752Z</time>
      </trkpt>
      <trkpt lat="44.13218" lon="2.24498">
        <ele>312</ele>
        <time>2022-09-11T07:15:25.752Z</time>
      </trkpt>
      <trkpt lat="44.13217" lon="2.24499">
        <ele>312</ele>
        <time>2022-09-11T07:15:26.752Z</time>
      </trkpt>
      <trkpt lat="44.13217" lon="2.245">
        <ele>312</ele>
        <time>2022-09-11T07:15:27.752Z</time>
      </trkpt>
      <trkpt lat="44.13216" lon="2.24502">
        <ele>311</ele>
        <time>2022-09-11T07:15:28.752Z</time>
      </trkpt>
      <trkpt lat="44.13216" lon="2.24503">
        <ele>311</ele>
        <time>2022-09-11T07:15:29.752Z</time>
      </trkpt>
      <trkpt lat="44.13215" lon="2.24504">
        <ele>311</ele>
        <time>2022-09-11T07:15:30.752Z</time>
      </trkpt>
      <trkpt lat="44.13215" lon="2.24505">
        <ele>311</ele>
        <time>2022-09-11T07:15:31.752Z</time>
      </trkpt>
      <trkpt lat="44.13214" lon="2.24507">
        <ele>311</ele>
        <time>2022-09-11T07:15:32.752Z</time>
      </trkpt>
      <trkpt lat="44.13213" lon="2.24508">
        <ele>311</ele>
        <time>2022-09-11T07:15:33.752Z</time>
      </trkpt>
      <trkpt lat="44.13213" lon="2.24509">
        <ele>310</ele>
        <time>2022-09-11T07:15:34.752Z</time>
      </trkpt>
      <trkpt lat="44.13212" lon="2.2451">
        <ele>310</ele>
        <time>2022-09-11T07:15:35.752Z</time>
      </trkpt>
      <trkpt lat="44.13211" lon="2.24512">
        <ele>310</ele>
        <time>2022-09-11T07:15:36.752Z</time>
      </trkpt>
      <trkpt lat="44.13211" lon="2.24513">
        <ele>310</ele>
        <time>2022-09-11T07:15:37.752Z</time>
      </trkpt>
      <trkpt lat="44.1321" lon="2.24515">
        <ele>310</ele>
        <time>2022-09-11T07:15:38.752Z</time>
      </trkpt>
      <trkpt lat="44.1321" lon="2.24516">
        <ele>310</ele>
        <time>2022-09-11T07:15:39.752Z</time>
      </trkpt>
      <trkpt lat="44.13209" lon="2.24517">
        <ele>310</ele>
        <time>2022-09-11T07:15:40.752Z</time>
      </trkpt>
      <trkpt lat="44.13209" lon="2.24519">
        <ele>310</ele>
        <time>2022-09-11T07:15:41.752Z</time>
      </trkpt>
      <trkpt lat="44.13209" lon="2.2452">
        <ele>310</ele>
        <time>2022-09-11T07:15:42.752Z</time>
      </trkpt>
      <trkpt lat="44.13208" lon="2.24522">
        <ele>310</ele>
        <time>2022-09-11T07:15:43.752Z</time>
      </trkpt>
      <trkpt lat="44.13208" lon="2.24523">
        <ele>310</ele>
        <time>2022-09-11T07:15:44.752Z</time>
      </trkpt>
      <trkpt lat="44.13208" lon="2.24525">
        <ele>310</ele>
        <time>2022-09-11T07:15:45.752Z</time>
      </trkpt>
      <trkpt lat="44.13208" lon="2.24526">
        <ele>310</ele>
        <time>2022-09-11T07:15:46.752Z</time>
      </trkpt>
      <trkpt lat="44.13207" lon="2.24528">
        <ele>310</ele>
        <time>2022-09-11T07:15:47.752Z</time>
      </trkpt>
      <trkpt lat="44.13207" lon="2.24529">
        <ele>310</ele>
        <time>2022-09-11T07:15:48.752Z</time>
      </trkpt>
      <trkpt lat="44.13207" lon="2.24531">
        <ele>310</ele>
        <time>2022-09-11T07:15:49.752Z</time>
      </trkpt>
      <trkpt lat="44.13207" lon="2.24532">
        <ele>310</ele>
        <time>2022-09-11T07:15:50.752Z</time>
      </trkpt>
      <trkpt lat="44.13207" lon="2.24534">
        <ele>310</ele>
        <time>2022-09-11T07:15:51.752Z</time>
      </trkpt>
      <trkpt lat="44.13208" lon="2.24535">
        <ele>310</ele>
        <time>2022-09-11T07:15:52.752Z</time>
      </trkpt>
      <trkpt lat="44.13208" lon="2.24537">
        <ele>310</ele>
        <time>2022-09-11T07:15:53.752Z</time>
      </trkpt>
      <trkpt lat="44.13208" lon="2.24538">
        <ele>310</ele>
        <time>2022-09-11T07:15:54.752Z</time>
      </trkpt>
      <trkpt lat="44.13208" lon="2.2454">
        <ele>310</ele>
        <time>2022-09-11T07:15:55.752Z</time>
      </trkpt>
      <trkpt lat="44.13208" lon="2.24541">
        <ele>310</ele>
        <time>2022-09-11T07:15:56.752Z</time>
      </trkpt>
      <trkpt lat="44.13208" lon="2.24543">
        <ele>310</ele>
        <time>2022-09-11T07:15:57.752Z</time>
      </trkpt>
      <trkpt lat="44.13208" lon="2.24544">
        <ele>310</ele>
        <time>2022-09-11T07:15:58.752Z</time>
      </trkpt>
      <trkpt lat="44.13209" lon="2.24546">
        <ele>310</ele>
        <time>2022-09-11T07:15:59.752Z</time>
      </trkpt>
      <trkpt lat="44.13209" lon="2.24547">
        <ele>310</ele>
        <time>2022-09-11T07:16:00.752Z</time>
      </trkpt>
      <trkpt lat="44.13209" lon="2.24548">
        <ele>310</ele>
        <time>2022-09-11T07:16:01.752Z</time>
      </trkpt>
      <trkpt lat="44.13209" lon="2.2455">
        <ele>310</ele>
        <time>2022-09-11T07:16:02.752Z</time>
      </trkpt>
      <trkpt lat="44.13209" lon="2.24551">
        <ele>310</ele>
        <time>2022-09-11T07:16:03.752Z</time>
      </trkpt>
      <trkpt lat="44.13209" lon="2.24553">
        <ele>310</ele>
        <time>2022-09-11T07:16:04.752Z</time>
      </trkpt>
      <trkpt lat="44.13209" lon="2.24554">
        <ele>310</ele>
        <time>2022-09-11T07:16:05.752Z</time>
      </trkpt>
      <trkpt lat="44.13209" lon="2.24556">
        <ele>310</ele>
        <time>2022-09-11T07:16:06.752Z</time>
      </trkpt>
      <trkpt lat="44.13208" lon="2.24557">
        <ele>310</ele>
        <time>2022-09-11T07:16:07.752Z</time>
      </trkpt>
      <trkpt lat="44.13208" lon="2.24559">
        <ele>310</ele>
        <time>2022-09-11T07:16:08.752Z</time>
      </trkpt>
      <trkpt lat="44.13208" lon="2.2456">
        <ele>310</ele>
        <time>2022-09-11T07:16:09.752Z</time>
      </trkpt>
      <trkpt lat="44.13208" lon="2.24562">
        <ele>310</ele>
        <time>2022-09-11T07:16:10.752Z</time>
      </trkpt>
      <trkpt lat="44.13209" lon="2.24563">
        <ele>310</ele>
        <time>2022-09-11T07:16:11.752Z</time>
      </trkpt>
      <trkpt lat="44.13209" lon="2.24565">
        <ele>310</ele>
        <time>2022-09-11T07:16:12.752Z</time>
      </trkpt>
      <trkpt lat="44.13209" lon="2.24566">
        <ele>310</ele>
        <time>2022-09-11T07:16:13.752Z</time>
      </trkpt>
      <trkpt lat="44.13209" lon="2.24567">
        <ele>310</ele>
        <time>2022-09-11T07:16:14.752Z</time>
      </trkpt>
      <trkpt lat="44.1321" lon="2.24569">
        <ele>310</ele>
        <time>2022-09-11T07:16:15.752Z</time>
      </trkpt>
      <trkpt lat="44.1321" lon="2.2457">
        <ele>310</ele>
        <time>2022-09-11T07:16:16.752Z</time>
      </trkpt>
      <trkpt lat="44.13211" lon="2.24571">
        <ele>310</ele>
        <time>2022-09-11T07:16:17.752Z</time>
      </trkpt>
      <trkpt lat="44.13211" lon="2.24572">
        <ele>310</ele>
        <time>2022-09-11T07:16:18.752Z</time>
      </trkpt>
      <trkpt lat="44.13212" lon="2.24573">
        <ele>310</ele>
        <time>2022-09-11T07:16:19.752Z</time>
      </trkpt>
      <trkpt lat="44.13212" lon="2.24574">
        <ele>310</ele>
        <time>2022-09-11T07:16:20.752Z</time>
      </trkpt>
      <trkpt lat="44.13212" lon="2.24575">
        <ele>310</ele>
        <time>2022-09-11T07:16:21.752Z</time>
      </trkpt>
      <trkpt lat="44.13212" lon="2.24576">
        <ele>309</ele>
        <time>2022-09-11T07:16:22.752Z</time>
      </trkpt>
      <trkpt lat="44.13212" lon="2.24577">
        <ele>309</ele>
        <time>2022-09-11T07:16:23.752Z</time>
      </trkpt>
      <trkpt lat="44.13213" lon="2.24578">
        <ele>309</ele>
        <time>2022-09-11T07:16:24.752Z</time>
      </trkpt>
      <trkpt lat="44.13213" lon="2.24578">
        <ele>309</ele>
        <time>2022-09-11T07:16:25.752Z</time>
      </trkpt>
      <trkpt lat="44.13214" lon="2.24579">
        <ele>309</ele>
        <time>2022-09-11T07:16:26.752Z</time>
      </trkpt>
      <trkpt lat="44.13214" lon="2.24581">
        <ele>309</ele>
        <time>2022-09-11T07:16:27.752Z</time>
      </trkpt>
      <trkpt lat="44.13214" lon="2.24583">
        <ele>309</ele>
        <time>2022-09-11T07:16:28.752Z</time>
      </trkpt>
      <trkpt lat="44.13215" lon="2.24584">
        <ele>309</ele>
        <time>2022-09-11T07:16:29.752Z</time>
      </trkpt>
      <trkpt lat="44.13215" lon="2.24586">
        <ele>309</ele>
        <time>2022-09-11T07:16:30.752Z</time>
      </trkpt>
      <trkpt lat="44.13216" lon="2.24587">
        <ele>309</ele>
        <time>2022-09-11T07:16:31.752Z</time>
      </trkpt>
      <trkpt lat="44.13216" lon="2.24588">
        <ele>309</ele>
        <time>2022-09-11T07:16:32.752Z</time>
      </trkpt>
      <trkpt lat="44.13216" lon="2.24589">
        <ele>309</ele>
        <time>2022-09-11T07:16:33.752Z</time>
      </trkpt>
      <trkpt lat="44.13217" lon="2.2459">
        <ele>309</ele>
        <time>2022-09-11T07:16:34.752Z</time>
      </trkpt>
      <trkpt lat="44.13217" lon="2.24591">
        <ele>309</ele>
        <time>2022-09-11T07:16:35.752Z</time>
      </trkpt>
      <trkpt lat="44.13218" lon="2.24593">
        <ele>309</ele>
        <time>2022-09-11T07:16:36.752Z</time>
      </trkpt>
      <trkpt lat="44.13218" lon="2.24594">
        <ele>309</ele>
        <time>2022-09-11T07:16:37.752Z</time>
      </trkpt>
      <trkpt lat="44.13219" lon="2.24595">
        <ele>309</ele>
        <time>2022-09-11T07:16:38.752Z</time>
      </trkpt>
      <trkpt lat="44.13219" lon="2.24597">
        <ele>309</ele>
        <time>2022-09-11T07:16:39.752Z</time>
      </trkpt>
      <trkpt lat="44.13219" lon="2.24598">
        <ele>309</ele>
        <time>2022-09-11T07:16:40.752Z</time>
      </trkpt>
      <trkpt lat="44.13219" lon="2.246">
        <ele>309</ele>
        <time>2022-09-11T07:16:41.752Z</time>
      </trkpt>
      <trkpt lat="44.1322" lon="2.24601">
        <ele>308</ele>
        <time>2022-09-11T07:16:42.752Z</time>
      </trkpt>
      <trkpt lat="44.1322" lon="2.24603">
        <ele>308</ele>
        <time>2022-09-11T07:16:43.752Z</time>
      </trkpt>
      <trkpt lat="44.1322" lon="2.24604">
        <ele>308</ele>
        <time>2022-09-11T07:16:44.752Z</time>
      </trkpt>
      <trkpt lat="44.1322" lon="2.24605">
        <ele>308</ele>
        <time>2022-09-11T07:16:45.752Z</time>
      </trkpt>
      <trkpt lat="44.1322" lon="2.24607">
        <ele>308</ele>
        <time>2022-09-11T07:16:46.752Z</time>
      </trkpt>
      <trkpt lat="44.13219" lon="2.24609">
        <ele>308</ele>
        <time>2022-09-11T07:16:47.752Z</time>
      </trkpt>
      <trkpt lat="44.13219" lon="2.2461">
        <ele>307</ele>
        <time>2022-09-11T07:16:48.752Z</time>
      </trkpt>
      <trkpt lat="44.13218" lon="2.24611">
        <ele>307</ele>
        <time>2022-09-11T07:16:49.752Z</time>
      </trkpt>
      <trkpt lat="44.13218" lon="2.24613">
        <ele>307</ele>
        <time>2022-09-11T07:16:50.752Z</time>
      </trkpt>
      <trkpt lat="44.13218" lon="2.24614">
        <ele>307</ele>
        <time>2022-09-11T07:16:51.752Z</time>
      </trkpt>
      <trkpt lat="44.13218" lon="2.24616">
        <ele>307</ele>
        <time>2022-09-11T07:16:52.752Z</time>
      </trkpt>
      <trkpt lat="44.13217" lon="2.24617">
        <ele>306</ele>
        <time>2022-09-11T07:16:53.752Z</time>
      </trkpt>
      <trkpt lat="44.13217" lon="2.24619">
        <ele>306</ele>
        <time>2022-09-11T07:16:54.752Z</time>
      </trkpt>
      <trkpt lat="44.13217" lon="2.2462">
        <ele>306</ele>
        <time>2022-09-11T07:16:55.752Z</time>
      </trkpt>
      <trkpt lat="44.13217" lon="2.24622">
        <ele>306</ele>
        <time>2022-09-11T07:16:56.752Z</time>
      </trkpt>
      <trkpt lat="44.13217" lon="2.24623">
        <ele>306</ele>
        <time>2022-09-11T07:16:57.752Z</time>
      </trkpt>
      <trkpt lat="44.13217" lon="2.24625">
        <ele>306</ele>
        <time>2022-09-11T07:16:58.752Z</time>
      </trkpt>
      <trkpt lat="44.13217" lon="2.24626">
        <ele>306</ele>
        <time>2022-09-11T07:16:59.752Z</time>
      </trkpt>
      <trkpt lat="44.13217" lon="2.24628">
        <ele>305</ele>
        <time>2022-09-11T07:17:00.752Z</time>
      </trkpt>
      <trkpt lat="44.13217" lon="2.24629">
        <ele>305</ele>
        <time>2022-09-11T07:17:01.752Z</time>
      </trkpt>
      <trkpt lat="44.13217" lon="2.24631">
        <ele>305</ele>
        <time>2022-09-11T07:17:02.752Z</time>
      </trkpt>
      <trkpt lat="44.13217" lon="2.24632">
        <ele>305</ele>
        <time>2022-09-11T07:17:03.752Z</time>
      </trkpt>
      <trkpt lat="44.13217" lon="2.24633">
        <ele>305</ele>
        <time>2022-09-11T07:17:04.752Z</time>
      </trkpt>
      <trkpt lat="44.13217" lon="2.24634">
        <ele>305</ele>
        <time>2022-09-11T07:17:05.752Z</time>
      </trkpt>
      <trkpt lat="44.13216" lon="2.24634">
        <ele>305</ele>
        <time>2022-09-11T07:17:06.752Z</time>
      </trkpt>
      <trkpt lat="44.13216" lon="2.24635">
        <ele>305</ele>
        <time>2022-09-11T07:17:07.752Z</time>
      </trkpt>
      <trkpt lat="44.13217" lon="2.24636">
        <ele>305</ele>
        <time>2022-09-11T07:17:08.752Z</time>
      </trkpt>
      <trkpt lat="44.13217" lon="2.24637">
        <ele>305</ele>
        <time>2022-09-11T07:17:09.752Z</time>
      </trkpt>
      <trkpt lat="44.13216" lon="2.24639">
        <ele>305</ele>
        <time>2022-09-11T07:17:10.752Z</time>
      </trkpt>
      <trkpt lat="44.13216" lon="2.24641">
        <ele>305</ele>
        <time>2022-09-11T07:17:11.752Z</time>
      </trkpt>
      <trkpt lat="44.13216" lon="2.24642">
        <ele>305</ele>
        <time>2022-09-11T07:17:12.752Z</time>
      </trkpt>
      <trkpt lat="44.13216" lon="2.24644">
        <ele>305</ele>
        <time>2022-09-11T07:17:13.752Z</time>
      </trkpt>
      <trkpt lat="44.13216" lon="2.24645">
        <ele>305</ele>
        <time>2022-09-11T07:17:14.752Z</time>
      </trkpt>
      <trkpt lat="44.13217" lon="2.24646">
        <ele>305</ele>
        <time>2022-09-11T07:17:15.752Z</time>
      </trkpt>
      <trkpt lat="44.13217" lon="2.24647">
        <ele>305</ele>
        <time>2022-09-11T07:17:16.752Z</time>
      </trkpt>
      <trkpt lat="44.13217" lon="2.24648">
        <ele>305</ele>
        <time>2022-09-11T07:17:17.752Z</time>
      </trkpt>
      <trkpt lat="44.13217" lon="2.2465">
        <ele>305</ele>
        <time>2022-09-11T07:17:18.752Z</time>
      </trkpt>
      <trkpt lat="44.13218" lon="2.24651">
        <ele>305</ele>
        <time>2022-09-11T07:17:19.752Z</time>
      </trkpt>
      <trkpt lat="44.13218" lon="2.24652">
        <ele>305</ele>
        <time>2022-09-11T07:17:20.752Z</time>
      </trkpt>
      <trkpt lat="44.13219" lon="2.24652">
        <ele>305</ele>
        <time>2022-09-11T07:17:21.752Z</time>
      </trkpt>
      <trkpt lat="44.13219" lon="2.24653">
        <ele>305</ele>
        <time>2022-09-11T07:17:22.752Z</time>
      </trkpt>
      <trkpt lat="44.1322" lon="2.24654">
        <ele>305</ele>
        <time>2022-09-11T07:17:23.752Z</time>
      </trkpt>
      <trkpt lat="44.1322" lon="2.24655">
        <ele>305</ele>
        <time>2022-09-11T07:17:24.752Z</time>
      </trkpt>
      <trkpt lat="44.13221" lon="2.24656">
        <ele>305</ele>
        <time>2022-09-11T07:17:25.752Z</time>
      </trkpt>
      <trkpt lat="44.13221" lon="2.24657">
        <ele>305</ele>
        <time>2022-09-11T07:17:26.752Z</time>
      </trkpt>
      <trkpt lat="44.13221" lon="2.24658">
        <ele>305</ele>
        <time>2022-09-11T07:17:27.752Z</time>
      </trkpt>
      <trkpt lat="44.13222" lon="2.24659">
        <ele>305</ele>
        <time>2022-09-11T07:17:28.752Z</time>
      </trkpt>
      <trkpt lat="44.13222" lon="2.2466">
        <ele>305</ele>
        <time>2022-09-11T07:17:29.752Z</time>
      </trkpt>
      <trkpt lat="44.13223" lon="2.24661">
        <ele>305</ele>
        <time>2022-09-11T07:17:30.752Z</time>
      </trkpt>
      <trkpt lat="44.13223" lon="2.24662">
        <ele>305</ele>
        <time>2022-09-11T07:17:31.752Z</time>
      </trkpt>
      <trkpt lat="44.13223" lon="2.24662">
        <ele>305</ele>
        <time>2022-09-11T07:17:32.752Z</time>
      </trkpt>
      <trkpt lat="44.13224" lon="2.24663">
        <ele>305</ele>
        <time>2022-09-11T07:17:33.752Z</time>
      </trkpt>
      <trkpt lat="44.13224" lon="2.24664">
        <ele>305</ele>
        <time>2022-09-11T07:17:34.752Z</time>
      </trkpt>
      <trkpt lat="44.13225" lon="2.24666">
        <ele>305</ele>
        <time>2022-09-11T07:17:35.752Z</time>
      </trkpt>
      <trkpt lat="44.13226" lon="2.24667">
        <ele>305</ele>
        <time>2022-09-11T07:17:36.752Z</time>
      </trkpt>
      <trkpt lat="44.13226" lon="2.24668">
        <ele>305</ele>
        <time>2022-09-11T07:17:37.752Z</time>
      </trkpt>
      <trkpt lat="44.13227" lon="2.2467">
        <ele>304</ele>
        <time>2022-09-11T07:17:38.752Z</time>
      </trkpt>
      <trkpt lat="44.13228" lon="2.24671">
        <ele>304</ele>
        <time>2022-09-11T07:17:39.752Z</time>
      </trkpt>
      <trkpt lat="44.13228" lon="2.24672">
        <ele>304</ele>
        <time>2022-09-11T07:17:40.752Z</time>
      </trkpt>
      <trkpt lat="44.13229" lon="2.24674">
        <ele>304</ele>
        <time>2022-09-11T07:17:41.752Z</time>
      </trkpt>
      <trkpt lat="44.1323" lon="2.24675">
        <ele>304</ele>
        <time>2022-09-11T07:17:42.752Z</time>
      </trkpt>
      <trkpt lat="44.13231" lon="2.24676">
        <ele>303</ele>
        <time>2022-09-11T07:17:43.752Z</time>
      </trkpt>
      <trkpt lat="44.13232" lon="2.24678">
        <ele>303</ele>
        <time>2022-09-11T07:17:44.752Z</time>
      </trkpt>
      <trkpt lat="44.13232" lon="2.24679">
        <ele>303</ele>
        <time>2022-09-11T07:17:45.752Z</time>
      </trkpt>
      <trkpt lat="44.13232" lon="2.2468">
        <ele>303</ele>
        <time>2022-09-11T07:17:46.752Z</time>
      </trkpt>
      <trkpt lat="44.13233" lon="2.24681">
        <ele>303</ele>
        <time>2022-09-11T07:17:47.752Z</time>
      </trkpt>
      <trkpt lat="44.13233" lon="2.24682">
        <ele>303</ele>
        <time>2022-09-11T07:17:48.752Z</time>
      </trkpt>
      <trkpt lat="44.13234" lon="2.24683">
        <ele>303</ele>
        <time>2022-09-11T07:17:49.752Z</time>
      </trkpt>
      <trkpt lat="44.13235" lon="2.24684">
        <ele>302</ele>
        <time>2022-09-11T07:17:50.752Z</time>
      </trkpt>
      <trkpt lat="44.13236" lon="2.24685">
        <ele>302</ele>
        <time>2022-09-11T07:17:51.752Z</time>
      </trkpt>
      <trkpt lat="44.13236" lon="2.24686">
        <ele>302</ele>
        <time>2022-09-11T07:17:52.752Z</time>
      </trkpt>
      <trkpt lat="44.13237" lon="2.24687">
        <ele>302</ele>
        <time>2022-09-11T07:17:53.752Z</time>
      </trkpt>
      <trkpt lat="44.13237" lon="2.24688">
        <ele>301</ele>
        <time>2022-09-11T07:17:54.752Z</time>
      </trkpt>
      <trkpt lat="44.13237" lon="2.24689">
        <ele>301</ele>
        <time>2022-09-11T07:17:55.752Z</time>
      </trkpt>
      <trkpt lat="44.13237" lon="2.24689">
        <ele>301</ele>
        <time>2022-09-11T07:17:56.752Z</time>
      </trkpt>
      <trkpt lat="44.13237" lon="2.2469">
        <ele>301</ele>
        <time>2022-09-11T07:17:57.752Z</time>
      </trkpt>
      <trkpt lat="44.13237" lon="2.2469">
        <ele>301</ele>
        <time>2022-09-11T07:17:58.752Z</time>
      </trkpt>
      <trkpt lat="44.13237" lon="2.24691">
        <ele>300</ele>
        <time>2022-09-11T07:18:03.761Z</time>
      </trkpt>
      <trkpt lat="44.13237" lon="2.24693">
        <ele>300</ele>
        <time>2022-09-11T07:18:04.761Z</time>
      </trkpt>
      <trkpt lat="44.13237" lon="2.24694">
        <ele>300</ele>
        <time>2022-09-11T07:18:05.761Z</time>
      </trkpt>
      <trkpt lat="44.13236" lon="2.24696">
        <ele>300</ele>
        <time>2022-09-11T07:18:06.761Z</time>
      </trkpt>
      <trkpt lat="44.13236" lon="2.24697">
        <ele>299</ele>
        <time>2022-09-11T07:18:07.761Z</time>
      </trkpt>
      <trkpt lat="44.13235" lon="2.24698">
        <ele>299</ele>
        <time>2022-09-11T07:18:08.761Z</time>
      </trkpt>
      <trkpt lat="44.13235" lon="2.24699">
        <ele>299</ele>
        <time>2022-09-11T07:18:09.761Z</time>
      </trkpt>
      <trkpt lat="44.13234" lon="2.24699">
        <ele>299</ele>
        <time>2022-09-11T07:18:10.761Z</time>
      </trkpt>
      <trkpt lat="44.13233" lon="2.247">
        <ele>299</ele>
        <time>2022-09-11T07:18:11.761Z</time>
      </trkpt>
      <trkpt lat="44.13233" lon="2.24701">
        <ele>299</ele>
        <time>2022-09-11T07:18:12.761Z</time>
      </trkpt>
      <trkpt lat="44.13232" lon="2.24701">
        <ele>299</ele>
        <time>2022-09-11T07:18:13.761Z</time>
      </trkpt>
      <trkpt lat="44.13232" lon="2.24702">
        <ele>299</ele>
        <time>2022-09-11T07:18:14.761Z</time>
      </trkpt>
      <trkpt lat="44.13232" lon="2.24702">
        <ele>299</ele>
        <time>2022-09-11T07:18:15.761Z</time>
      </trkpt>
      <trkpt lat="44.13231" lon="2.24704">
        <ele>299</ele>
        <time>2022-09-11T07:18:19.016Z</time>
      </trkpt>
      <trkpt lat="44.13231" lon="2.24705">
        <ele>299</ele>
        <time>2022-09-11T07:18:20.016Z</time>
      </trkpt>
      <trkpt lat="44.1323" lon="2.24706">
        <ele>298</ele>
        <time>2022-09-11T07:18:21.016Z</time>
      </trkpt>
      <trkpt lat="44.1323" lon="2.24706">
        <ele>298</ele>
        <time>2022-09-11T07:18:22.016Z</time>
      </trkpt>
      <trkpt lat="44.1323" lon="2.24707">
        <ele>298</ele>
        <time>2022-09-11T07:18:23.016Z</time>
      </trkpt>
      <trkpt lat="44.13229" lon="2.24708">
        <ele>298</ele>
        <time>2022-09-11T07:18:24.016Z</time>
      </trkpt>
      <trkpt lat="44.13229" lon="2.2471">
        <ele>298</ele>
        <time>2022-09-11T07:18:25.016Z</time>
      </trkpt>
      <trkpt lat="44.13228" lon="2.24711">
        <ele>298</ele>
        <time>2022-09-11T07:18:26.016Z</time>
      </trkpt>
      <trkpt lat="44.13228" lon="2.24712">
        <ele>298</ele>
        <time>2022-09-11T07:18:27.016Z</time>
      </trkpt>
      <trkpt lat="44.13227" lon="2.24714">
        <ele>298</ele>
        <time>2022-09-11T07:18:28.016Z</time>
      </trkpt>
      <trkpt lat="44.13226" lon="2.24715">
        <ele>298</ele>
        <time>2022-09-11T07:18:29.016Z</time>
      </trkpt>
      <trkpt lat="44.13226" lon="2.24716">
        <ele>298</ele>
        <time>2022-09-11T07:18:30.016Z</time>
      </trkpt>
      <trkpt lat="44.13226" lon="2.24718">
        <ele>298</ele>
        <time>2022-09-11T07:18:31.016Z</time>
      </trkpt>
      <trkpt lat="44.13226" lon="2.24719">
        <ele>298</ele>
        <time>2022-09-11T07:18:32.016Z</time>
      </trkpt>
      <trkpt lat="44.13226" lon="2.2472">
        <ele>298</ele>
        <time>2022-09-11T07:18:33.016Z</time>
      </trkpt>
      <trkpt lat="44.13226" lon="2.24721">
        <ele>298</ele>
        <time>2022-09-11T07:18:34.016Z</time>
      </trkpt>
      <trkpt lat="44.13226" lon="2.24722">
        <ele>298</ele>
        <time>2022-09-11T07:18:35.016Z</time>
      </trkpt>
      <trkpt lat="44.13226" lon="2.24722">
        <ele>298</ele>
        <time>2022-09-11T07:18:36.016Z</time>
      </trkpt>
      <trkpt lat="44.13226" lon="2.24722">
        <ele>298</ele>
        <time>2022-09-11T07:18:37.016Z</time>
      </trkpt>
      <trkpt lat="44.13226" lon="2.24722">
        <ele>298</ele>
        <time>2022-09-11T07:18:38.016Z</time>
      </trkpt>
      <trkpt lat="44.13226" lon="2.24725">
        <ele>298</ele>
        <time>2022-09-11T07:18:41.297Z</time>
      </trkpt>
      <trkpt lat="44.13227" lon="2.24726">
        <ele>298</ele>
        <time>2022-09-11T07:18:42.297Z</time>
      </trkpt>
      <trkpt lat="44.13227" lon="2.24727">
        <ele>298</ele>
        <time>2022-09-11T07:18:43.297Z</time>
      </trkpt>
      <trkpt lat="44.13228" lon="2.24728">
        <ele>298</ele>
        <time>2022-09-11T07:18:44.297Z</time>
      </trkpt>
      <trkpt lat="44.13228" lon="2.24729">
        <ele>298</ele>
        <time>2022-09-11T07:18:45.297Z</time>
      </trkpt>
      <trkpt lat="44.13228" lon="2.2473">
        <ele>298</ele>
        <time>2022-09-11T07:18:46.297Z</time>
      </trkpt>
      <trkpt lat="44.13229" lon="2.2473">
        <ele>298</ele>
        <time>2022-09-11T07:18:47.297Z</time>
      </trkpt>
      <trkpt lat="44.13229" lon="2.24731">
        <ele>298</ele>
        <time>2022-09-11T07:18:48.297Z</time>
      </trkpt>
      <trkpt lat="44.13229" lon="2.24731">
        <ele>298</ele>
        <time>2022-09-11T07:18:49.297Z</time>
      </trkpt>
      <trkpt lat="44.13229" lon="2.24731">
        <ele>298</ele>
        <time>2022-09-11T07:18:50.297Z</time>
      </trkpt>
      <trkpt lat="44.13228" lon="2.24722">
        <ele>295</ele>
        <time>2022-09-11T07:19:27.307Z</time>
      </trkpt>
      <trkpt lat="44.13228" lon="2.24721">
        <ele>295</ele>
        <time>2022-09-11T07:19:28.307Z</time>
      </trkpt>
      <trkpt lat="44.13228" lon="2.2472">
        <ele>295</ele>
        <time>2022-09-11T07:19:31.546Z</time>
      </trkpt>
      <trkpt lat="44.13228" lon="2.24719">
        <ele>295</ele>
        <time>2022-09-11T07:19:32.546Z</time>
      </trkpt>
      <trkpt lat="44.13229" lon="2.24718">
        <ele>295</ele>
        <time>2022-09-11T07:19:33.546Z</time>
      </trkpt>
      <trkpt lat="44.13229" lon="2.24717">
        <ele>295</ele>
        <time>2022-09-11T07:19:34.546Z</time>
      </trkpt>
      <trkpt lat="44.1323" lon="2.24717">
        <ele>295</ele>
        <time>2022-09-11T07:19:35.546Z</time>
      </trkpt>
      <trkpt lat="44.1323" lon="2.24716">
        <ele>294</ele>
        <time>2022-09-11T07:19:36.546Z</time>
      </trkpt>
      <trkpt lat="44.13231" lon="2.24715">
        <ele>294</ele>
        <time>2022-09-11T07:19:37.546Z</time>
      </trkpt>
      <trkpt lat="44.13232" lon="2.24714">
        <ele>294</ele>
        <time>2022-09-11T07:19:38.546Z</time>
      </trkpt>
      <trkpt lat="44.13232" lon="2.24713">
        <ele>294</ele>
        <time>2022-09-11T07:19:39.546Z</time>
      </trkpt>
      <trkpt lat="44.13233" lon="2.24713">
        <ele>294</ele>
        <time>2022-09-11T07:19:40.546Z</time>
      </trkpt>
      <trkpt lat="44.13233" lon="2.24712">
        <ele>294</ele>
        <time>2022-09-11T07:19:41.546Z</time>
      </trkpt>
      <trkpt lat="44.13233" lon="2.24711">
        <ele>294</ele>
        <time>2022-09-11T07:19:42.546Z</time>
      </trkpt>
      <trkpt lat="44.13234" lon="2.24711">
        <ele>294</ele>
        <time>2022-09-11T07:19:43.546Z</time>
      </trkpt>
      <trkpt lat="44.13234" lon="2.2471">
        <ele>294</ele>
        <time>2022-09-11T07:19:44.546Z</time>
      </trkpt>
      <trkpt lat="44.13235" lon="2.2471">
        <ele>294</ele>
        <time>2022-09-11T07:19:45.546Z</time>
      </trkpt>
      <trkpt lat="44.13235" lon="2.24709">
        <ele>294</ele>
        <time>2022-09-11T07:19:46.546Z</time>
      </trkpt>
      <trkpt lat="44.13236" lon="2.24709">
        <ele>294</ele>
        <time>2022-09-11T07:19:47.546Z</time>
      </trkpt>
      <trkpt lat="44.13236" lon="2.24708">
        <ele>294</ele>
        <time>2022-09-11T07:19:48.546Z</time>
      </trkpt>
      <trkpt lat="44.13237" lon="2.24708">
        <ele>294</ele>
        <time>2022-09-11T07:19:49.546Z</time>
      </trkpt>
      <trkpt lat="44.13237" lon="2.24707">
        <ele>294</ele>
        <time>2022-09-11T07:19:50.546Z</time>
      </trkpt>
      <trkpt lat="44.13238" lon="2.24706">
        <ele>293</ele>
        <time>2022-09-11T07:19:51.546Z</time>
      </trkpt>
      <trkpt lat="44.13239" lon="2.24705">
        <ele>293</ele>
        <time>2022-09-11T07:19:52.546Z</time>
      </trkpt>
      <trkpt lat="44.13239" lon="2.24704">
        <ele>293</ele>
        <time>2022-09-11T07:19:53.546Z</time>
      </trkpt>
      <trkpt lat="44.1324" lon="2.24704">
        <ele>293</ele>
        <time>2022-09-11T07:19:54.546Z</time>
      </trkpt>
      <trkpt lat="44.1324" lon="2.24703">
        <ele>293</ele>
        <time>2022-09-11T07:19:55.546Z</time>
      </trkpt>
      <trkpt lat="44.1324" lon="2.24702">
        <ele>292</ele>
        <time>2022-09-11T07:19:56.546Z</time>
      </trkpt>
      <trkpt lat="44.1324" lon="2.247">
        <ele>292</ele>
        <time>2022-09-11T07:19:57.546Z</time>
      </trkpt>
      <trkpt lat="44.1324" lon="2.24699">
        <ele>292</ele>
        <time>2022-09-11T07:19:58.546Z</time>
      </trkpt>
      <trkpt lat="44.1324" lon="2.24698">
        <ele>291</ele>
        <time>2022-09-11T07:19:59.546Z</time>
      </trkpt>
      <trkpt lat="44.13239" lon="2.24697">
        <ele>291</ele>
        <time>2022-09-11T07:20:00.546Z</time>
      </trkpt>
      <trkpt lat="44.13239" lon="2.24696">
        <ele>291</ele>
        <time>2022-09-11T07:20:01.546Z</time>
      </trkpt>
      <trkpt lat="44.13238" lon="2.24694">
        <ele>290</ele>
        <time>2022-09-11T07:20:02.546Z</time>
      </trkpt>
      <trkpt lat="44.13238" lon="2.24692">
        <ele>290</ele>
        <time>2022-09-11T07:20:03.546Z</time>
      </trkpt>
      <trkpt lat="44.13237" lon="2.24691">
        <ele>290</ele>
        <time>2022-09-11T07:20:04.546Z</time>
      </trkpt>
      <trkpt lat="44.13237" lon="2.2469">
        <ele>290</ele>
        <time>2022-09-11T07:20:05.546Z</time>
      </trkpt>
      <trkpt lat="44.13237" lon="2.24689">
        <ele>290</ele>
        <time>2022-09-11T07:20:06.546Z</time>
      </trkpt>
      <trkpt lat="44.13237" lon="2.24688">
        <ele>289</ele>
        <time>2022-09-11T07:20:07.546Z</time>
      </trkpt>
      <trkpt lat="44.13237" lon="2.24688">
        <ele>289</ele>
        <time>2022-09-11T07:20:08.546Z</time>
      </trkpt>
      <trkpt lat="44.13237" lon="2.24687">
        <ele>289</ele>
        <time>2022-09-11T07:20:09.546Z</time>
      </trkpt>
      <trkpt lat="44.1324" lon="2.24679">
        <ele>286</ele>
        <time>2022-09-11T07:20:31.556Z</time>
      </trkpt>
      <trkpt lat="44.13239" lon="2.24678">
        <ele>286</ele>
        <time>2022-09-11T07:20:32.556Z</time>
      </trkpt>
      <trkpt lat="44.13239" lon="2.24677">
        <ele>286</ele>
        <time>2022-09-11T07:20:33.556Z</time>
      </trkpt>
      <trkpt lat="44.13239" lon="2.24677">
        <ele>286</ele>
        <time>2022-09-11T07:20:34.556Z</time>
      </trkpt>
      <trkpt lat="44.13239" lon="2.24677">
        <ele>286</ele>
        <time>2022-09-11T07:20:35.556Z</time>
      </trkpt>
      <trkpt lat="44.1324" lon="2.24676">
        <ele>285</ele>
        <time>2022-09-11T07:20:36.556Z</time>
      </trkpt>
      <trkpt lat="44.13241" lon="2.24674">
        <ele>285</ele>
        <time>2022-09-11T07:20:49.566Z</time>
      </trkpt>
      <trkpt lat="44.13242" lon="2.24674">
        <ele>285</ele>
        <time>2022-09-11T07:20:50.566Z</time>
      </trkpt>
      <trkpt lat="44.13242" lon="2.24673">
        <ele>285</ele>
        <time>2022-09-11T07:20:51.566Z</time>
      </trkpt>
      <trkpt lat="44.13243" lon="2.24672">
        <ele>285</ele>
        <time>2022-09-11T07:20:52.566Z</time>
      </trkpt>
      <trkpt lat="44.13243" lon="2.24672">
        <ele>285</ele>
        <time>2022-09-11T07:20:53.566Z</time>
      </trkpt>
      <trkpt lat="44.13244" lon="2.24671">
        <ele>285</ele>
        <time>2022-09-11T07:20:54.566Z</time>
      </trkpt>
      <trkpt lat="44.13244" lon="2.2467">
        <ele>284</ele>
        <time>2022-09-11T07:20:55.566Z</time>
      </trkpt>
      <trkpt lat="44.13244" lon="2.24669">
        <ele>284</ele>
        <time>2022-09-11T07:20:56.566Z</time>
      </trkpt>
      <trkpt lat="44.13244" lon="2.24668">
        <ele>284</ele>
        <time>2022-09-11T07:20:57.566Z</time>
      </trkpt>
      <trkpt lat="44.13245" lon="2.24667">
        <ele>284</ele>
        <time>2022-09-11T07:20:58.566Z</time>
      </trkpt>
      <trkpt lat="44.13245" lon="2.24666">
        <ele>284</ele>
        <time>2022-09-11T07:20:59.566Z</time>
      </trkpt>
      <trkpt lat="44.13246" lon="2.24665">
        <ele>284</ele>
        <time>2022-09-11T07:21:00.566Z</time>
      </trkpt>
      <trkpt lat="44.13245" lon="2.24664">
        <ele>284</ele>
        <time>2022-09-11T07:21:01.566Z</time>
      </trkpt>
      <trkpt lat="44.13245" lon="2.24664">
        <ele>284</ele>
        <time>2022-09-11T07:21:02.566Z</time>
      </trkpt>
      <trkpt lat="44.13245" lon="2.24663">
        <ele>284</ele>
        <time>2022-09-11T07:21:03.566Z</time>
      </trkpt>
      <trkpt lat="44.13245" lon="2.24663">
        <ele>284</ele>
        <time>2022-09-11T07:21:04.566Z</time>
      </trkpt>
      <trkpt lat="44.13245" lon="2.24661">
        <ele>284</ele>
        <time>2022-09-11T07:21:08.578Z</time>
      </trkpt>
      <trkpt lat="44.13245" lon="2.2466">
        <ele>284</ele>
        <time>2022-09-11T07:21:09.578Z</time>
      </trkpt>
      <trkpt lat="44.13245" lon="2.24659">
        <ele>284</ele>
        <time>2022-09-11T07:21:10.578Z</time>
      </trkpt>
      <trkpt lat="44.13245" lon="2.24659">
        <ele>284</ele>
        <time>2022-09-11T07:21:11.578Z</time>
      </trkpt>
      <trkpt lat="44.13245" lon="2.24658">
        <ele>284</ele>
        <time>2022-09-11T07:21:12.578Z</time>
      </trkpt>
      <trkpt lat="44.13244" lon="2.24658">
        <ele>284</ele>
        <time>2022-09-11T07:21:13.578Z</time>
      </trkpt>
      <trkpt lat="44.13243" lon="2.24655">
        <ele>283</ele>
        <time>2022-09-11T07:21:19.590Z</time>
      </trkpt>
      <trkpt lat="44.13243" lon="2.24655">
        <ele>283</ele>
        <time>2022-09-11T07:21:20.590Z</time>
      </trkpt>
      <trkpt lat="44.13242" lon="2.24652">
        <ele>283</ele>
        <time>2022-09-11T07:21:28.582Z</time>
      </trkpt>
      <trkpt lat="44.13242" lon="2.24652">
        <ele>283</ele>
        <time>2022-09-11T07:21:29.582Z</time>
      </trkpt>
      <trkpt lat="44.13242" lon="2.24651">
        <ele>283</ele>
        <time>2022-09-11T07:21:30.582Z</time>
      </trkpt>
      <trkpt lat="44.13242" lon="2.2465">
        <ele>283</ele>
        <time>2022-09-11T07:21:31.582Z</time>
      </trkpt>
      <trkpt lat="44.13242" lon="2.2465">
        <ele>283</ele>
        <time>2022-09-11T07:21:32.582Z</time>
      </trkpt>
      <trkpt lat="44.13242" lon="2.24649">
        <ele>283</ele>
        <time>2022-09-11T07:21:33.582Z</time>
      </trkpt>
      <trkpt lat="44.13242" lon="2.24648">
        <ele>282</ele>
        <time>2022-09-11T07:21:34.582Z</time>
      </trkpt>
      <trkpt lat="44.13243" lon="2.24647">
        <ele>282</ele>
        <time>2022-09-11T07:21:35.582Z</time>
      </trkpt>
      <trkpt lat="44.13243" lon="2.24646">
        <ele>282</ele>
        <time>2022-09-11T07:21:36.582Z</time>
      </trkpt>
      <trkpt lat="44.13243" lon="2.24645">
        <ele>282</ele>
        <time>2022-09-11T07:21:37.582Z</time>
      </trkpt>
      <trkpt lat="44.13244" lon="2.24644">
        <ele>281</ele>
        <time>2022-09-11T07:21:38.582Z</time>
      </trkpt>
      <trkpt lat="44.13244" lon="2.24643">
        <ele>281</ele>
        <time>2022-09-11T07:21:39.582Z</time>
      </trkpt>
      <trkpt lat="44.13244" lon="2.24641">
        <ele>281</ele>
        <time>2022-09-11T07:21:40.582Z</time>
      </trkpt>
      <trkpt lat="44.13244" lon="2.2464">
        <ele>281</ele>
        <time>2022-09-11T07:21:41.582Z</time>
      </trkpt>
      <trkpt lat="44.13244" lon="2.24639">
        <ele>281</ele>
        <time>2022-09-11T07:21:42.582Z</time>
      </trkpt>
      <trkpt lat="44.13244" lon="2.24638">
        <ele>280</ele>
        <time>2022-09-11T07:21:43.582Z</time>
      </trkpt>
      <trkpt lat="44.13245" lon="2.24636">
        <ele>280</ele>
        <time>2022-09-11T07:21:44.582Z</time>
      </trkpt>
      <trkpt lat="44.13245" lon="2.24635">
        <ele>280</ele>
        <time>2022-09-11T07:21:45.582Z</time>
      </trkpt>
      <trkpt lat="44.13245" lon="2.24634">
        <ele>280</ele>
        <time>2022-09-11T07:21:46.582Z</time>
      </trkpt>
      <trkpt lat="44.13245" lon="2.24632">
        <ele>280</ele>
        <time>2022-09-11T07:21:47.582Z</time>
      </trkpt>
      <trkpt lat="44.13245" lon="2.24631">
        <ele>279</ele>
        <time>2022-09-11T07:21:48.582Z</time>
      </trkpt>
      <trkpt lat="44.13245" lon="2.2463">
        <ele>279</ele>
        <time>2022-09-11T07:21:49.582Z</time>
      </trkpt>
      <trkpt lat="44.13245" lon="2.24629">
        <ele>279</ele>
        <time>2022-09-11T07:21:50.582Z</time>
      </trkpt>
      <trkpt lat="44.13245" lon="2.24628">
        <ele>279</ele>
        <time>2022-09-11T07:21:51.582Z</time>
      </trkpt>
      <trkpt lat="44.13245" lon="2.24628">
        <ele>279</ele>
        <time>2022-09-11T07:21:52.582Z</time>
      </trkpt>
      <trkpt lat="44.13245" lon="2.24628">
        <ele>279</ele>
        <time>2022-09-11T07:21:53.582Z</time>
      </trkpt>
      <trkpt lat="44.13245" lon="2.24627">
        <ele>279</ele>
        <time>2022-09-11T07:21:54.582Z</time>
      </trkpt>
      <trkpt lat="44.13247" lon="2.24613">
        <ele>277</ele>
        <time>2022-09-11T07:23:19.595Z</time>
      </trkpt>
      <trkpt lat="44.13247" lon="2.24613">
        <ele>277</ele>
        <time>2022-09-11T07:23:20.595Z</time>
      </trkpt>
      <trkpt lat="44.13247" lon="2.24612">
        <ele>277</ele>
        <time>2022-09-11T07:23:21.595Z</time>
      </trkpt>
      <trkpt lat="44.13247" lon="2.24611">
        <ele>277</ele>
        <time>2022-09-11T07:23:22.595Z</time>
      </trkpt>
      <trkpt lat="44.13248" lon="2.2461">
        <ele>277</ele>
        <time>2022-09-11T07:23:23.595Z</time>
      </trkpt>
      <trkpt lat="44.13248" lon="2.24609">
        <ele>277</ele>
        <time>2022-09-11T07:23:24.595Z</time>
      </trkpt>
      <trkpt lat="44.13248" lon="2.24608">
        <ele>276</ele>
        <time>2022-09-11T07:23:25.595Z</time>
      </trkpt>
      <trkpt lat="44.13248" lon="2.24608">
        <ele>276</ele>
        <time>2022-09-11T07:23:26.595Z</time>
      </trkpt>
      <trkpt lat="44.13247" lon="2.24606">
        <ele>276</ele>
        <time>2022-09-11T07:23:27.595Z</time>
      </trkpt>
      <trkpt lat="44.13247" lon="2.24605">
        <ele>276</ele>
        <time>2022-09-11T07:23:28.595Z</time>
      </trkpt>
      <trkpt lat="44.13248" lon="2.24605">
        <ele>276</ele>
        <time>2022-09-11T07:23:29.595Z</time>
      </trkpt>
      <trkpt lat="44.13248" lon="2.24604">
        <ele>276</ele>
        <time>2022-09-11T07:23:30.595Z</time>
      </trkpt>
      <trkpt lat="44.13249" lon="2.24603">
        <ele>276</ele>
        <time>2022-09-11T07:23:31.595Z</time>
      </trkpt>
      <trkpt lat="44.13249" lon="2.24603">
        <ele>276</ele>
        <time>2022-09-11T07:23:32.595Z</time>
      </trkpt>
      <trkpt lat="44.1325" lon="2.24603">
        <ele>276</ele>
        <time>2022-09-11T07:23:33.595Z</time>
      </trkpt>
      <trkpt lat="44.1325" lon="2.24603">
        <ele>276</ele>
        <time>2022-09-11T07:23:34.595Z</time>
      </trkpt>
      <trkpt lat="44.1325" lon="2.24602">
        <ele>276</ele>
        <time>2022-09-11T07:23:35.595Z</time>
      </trkpt>
      <trkpt lat="44.13251" lon="2.24602">
        <ele>276</ele>
        <time>2022-09-11T07:23:36.595Z</time>
      </trkpt>
      <trkpt lat="44.13251" lon="2.246">
        <ele>275</ele>
        <time>2022-09-11T07:23:42.593Z</time>
      </trkpt>
      <trkpt lat="44.13251" lon="2.24599">
        <ele>275</ele>
        <time>2022-09-11T07:23:43.593Z</time>
      </trkpt>
      <trkpt lat="44.13252" lon="2.24594">
        <ele>275</ele>
        <time>2022-09-11T07:23:46.847Z</time>
      </trkpt>
      <trkpt lat="44.13252" lon="2.24593">
        <ele>275</ele>
        <time>2022-09-11T07:23:47.847Z</time>
      </trkpt>
      <trkpt lat="44.13252" lon="2.24592">
        <ele>275</ele>
        <time>2022-09-11T07:23:48.847Z</time>
      </trkpt>
      <trkpt lat="44.13252" lon="2.24591">
        <ele>275</ele>
        <time>2022-09-11T07:23:49.847Z</time>
      </trkpt>
      <trkpt lat="44.13251" lon="2.2459">
        <ele>275</ele>
        <time>2022-09-11T07:23:50.847Z</time>
      </trkpt>
      <trkpt lat="44.13251" lon="2.24588">
        <ele>275</ele>
        <time>2022-09-11T07:23:51.847Z</time>
      </trkpt>
      <trkpt lat="44.13251" lon="2.24588">
        <ele>275</ele>
        <time>2022-09-11T07:23:52.847Z</time>
      </trkpt>
      <trkpt lat="44.13251" lon="2.24586">
        <ele>275</ele>
        <time>2022-09-11T07:23:53.847Z</time>
      </trkpt>
      <trkpt lat="44.13251" lon="2.24586">
        <ele>275</ele>
        <time>2022-09-11T07:23:54.847Z</time>
      </trkpt>
      <trkpt lat="44.13251" lon="2.24584">
        <ele>275</ele>
        <time>2022-09-11T07:23:55.847Z</time>
      </trkpt>
      <trkpt lat="44.13251" lon="2.24583">
        <ele>275</ele>
        <time>2022-09-11T07:23:56.847Z</time>
      </trkpt>
      <trkpt lat="44.13251" lon="2.24582">
        <ele>275</ele>
        <time>2022-09-11T07:23:57.847Z</time>
      </trkpt>
      <trkpt lat="44.13252" lon="2.24581">
        <ele>275</ele>
        <time>2022-09-11T07:23:58.847Z</time>
      </trkpt>
      <trkpt lat="44.13252" lon="2.2458">
        <ele>275</ele>
        <time>2022-09-11T07:23:59.847Z</time>
      </trkpt>
      <trkpt lat="44.13252" lon="2.24578">
        <ele>275</ele>
        <time>2022-09-11T07:24:00.847Z</time>
      </trkpt>
      <trkpt lat="44.13252" lon="2.24577">
        <ele>275</ele>
        <time>2022-09-11T07:24:01.847Z</time>
      </trkpt>
      <trkpt lat="44.13253" lon="2.24576">
        <ele>275</ele>
        <time>2022-09-11T07:24:02.847Z</time>
      </trkpt>
      <trkpt lat="44.13253" lon="2.24575">
        <ele>275</ele>
        <time>2022-09-11T07:24:03.847Z</time>
      </trkpt>
      <trkpt lat="44.13253" lon="2.24573">
        <ele>275</ele>
        <time>2022-09-11T07:24:04.847Z</time>
      </trkpt>
      <trkpt lat="44.13253" lon="2.24572">
        <ele>275</ele>
        <time>2022-09-11T07:24:05.847Z</time>
      </trkpt>
      <trkpt lat="44.13252" lon="2.24571">
        <ele>275</ele>
        <time>2022-09-11T07:24:06.847Z</time>
      </trkpt>
      <trkpt lat="44.13252" lon="2.2457">
        <ele>275</ele>
        <time>2022-09-11T07:24:07.847Z</time>
      </trkpt>
      <trkpt lat="44.13252" lon="2.2457">
        <ele>275</ele>
        <time>2022-09-11T07:24:08.847Z</time>
      </trkpt>
      <trkpt lat="44.13252" lon="2.24569">
        <ele>275</ele>
        <time>2022-09-11T07:24:09.847Z</time>
      </trkpt>
      <trkpt lat="44.13252" lon="2.24568">
        <ele>275</ele>
        <time>2022-09-11T07:24:10.847Z</time>
      </trkpt>
      <trkpt lat="44.13253" lon="2.24567">
        <ele>275</ele>
        <time>2022-09-11T07:24:11.847Z</time>
      </trkpt>
      <trkpt lat="44.13253" lon="2.24565">
        <ele>275</ele>
        <time>2022-09-11T07:24:12.847Z</time>
      </trkpt>
      <trkpt lat="44.13254" lon="2.24564">
        <ele>275</ele>
        <time>2022-09-11T07:24:13.847Z</time>
      </trkpt>
      <trkpt lat="44.13254" lon="2.24564">
        <ele>275</ele>
        <time>2022-09-11T07:24:14.847Z</time>
      </trkpt>
      <trkpt lat="44.13254" lon="2.24563">
        <ele>275</ele>
        <time>2022-09-11T07:24:15.847Z</time>
      </trkpt>
      <trkpt lat="44.13254" lon="2.24562">
        <ele>274</ele>
        <time>2022-09-11T07:24:16.847Z</time>
      </trkpt>
      <trkpt lat="44.13254" lon="2.24561">
        <ele>274</ele>
        <time>2022-09-11T07:24:17.847Z</time>
      </trkpt>
      <trkpt lat="44.13255" lon="2.2456">
        <ele>274</ele>
        <time>2022-09-11T07:24:18.847Z</time>
      </trkpt>
      <trkpt lat="44.13255" lon="2.2456">
        <ele>274</ele>
        <time>2022-09-11T07:24:19.847Z</time>
      </trkpt>
      <trkpt lat="44.13255" lon="2.24559">
        <ele>274</ele>
        <time>2022-09-11T07:24:20.847Z</time>
      </trkpt>
      <trkpt lat="44.13257" lon="2.24556">
        <ele>274</ele>
        <time>2022-09-11T07:24:29.845Z</time>
      </trkpt>
      <trkpt lat="44.13258" lon="2.24555">
        <ele>274</ele>
        <time>2022-09-11T07:24:30.845Z</time>
      </trkpt>
      <trkpt lat="44.13258" lon="2.24554">
        <ele>274</ele>
        <time>2022-09-11T07:24:31.845Z</time>
      </trkpt>
      <trkpt lat="44.13259" lon="2.24553">
        <ele>274</ele>
        <time>2022-09-11T07:24:32.845Z</time>
      </trkpt>
      <trkpt lat="44.13259" lon="2.24553">
        <ele>274</ele>
        <time>2022-09-11T07:24:33.845Z</time>
      </trkpt>
      <trkpt lat="44.1326" lon="2.24553">
        <ele>274</ele>
        <time>2022-09-11T07:24:34.845Z</time>
      </trkpt>
      <trkpt lat="44.1326" lon="2.24553">
        <ele>274</ele>
        <time>2022-09-11T07:24:35.845Z</time>
      </trkpt>
      <trkpt lat="44.1326" lon="2.24552">
        <ele>274</ele>
        <time>2022-09-11T07:24:36.845Z</time>
      </trkpt>
      <trkpt lat="44.13261" lon="2.24549">
        <ele>274</ele>
        <time>2022-09-11T07:24:54.845Z</time>
      </trkpt>
      <trkpt lat="44.13261" lon="2.24548">
        <ele>274</ele>
        <time>2022-09-11T07:24:55.845Z</time>
      </trkpt>
      <trkpt lat="44.13263" lon="2.24547">
        <ele>274</ele>
        <time>2022-09-11T07:25:03.844Z</time>
      </trkpt>
      <trkpt lat="44.13264" lon="2.24547">
        <ele>274</ele>
        <time>2022-09-11T07:25:04.844Z</time>
      </trkpt>
      <trkpt lat="44.13264" lon="2.24547">
        <ele>274</ele>
        <time>2022-09-11T07:25:05.844Z</time>
      </trkpt>
      <trkpt lat="44.13265" lon="2.24547">
        <ele>274</ele>
        <time>2022-09-11T07:25:06.844Z</time>
      </trkpt>
      <trkpt lat="44.13266" lon="2.24547">
        <ele>274</ele>
        <time>2022-09-11T07:25:07.844Z</time>
      </trkpt>
      <trkpt lat="44.13266" lon="2.24547">
        <ele>274</ele>
        <time>2022-09-11T07:25:08.844Z</time>
      </trkpt>
      <trkpt lat="44.13268" lon="2.24547">
        <ele>274</ele>
        <time>2022-09-11T07:25:12.860Z</time>
      </trkpt>
      <trkpt lat="44.13269" lon="2.24547">
        <ele>274</ele>
        <time>2022-09-11T07:25:13.860Z</time>
      </trkpt>
      <trkpt lat="44.1327" lon="2.24547">
        <ele>274</ele>
        <time>2022-09-11T07:25:14.860Z</time>
      </trkpt>
      <trkpt lat="44.13271" lon="2.24546">
        <ele>274</ele>
        <time>2022-09-11T07:25:15.860Z</time>
      </trkpt>
      <trkpt lat="44.13271" lon="2.24546">
        <ele>274</ele>
        <time>2022-09-11T07:25:16.860Z</time>
      </trkpt>
      <trkpt lat="44.13271" lon="2.24546">
        <ele>274</ele>
        <time>2022-09-11T07:25:17.860Z</time>
      </trkpt>
      <trkpt lat="44.13275" lon="2.24546">
        <ele>274</ele>
        <time>2022-09-11T07:25:23.859Z</time>
      </trkpt>
      <trkpt lat="44.13276" lon="2.24546">
        <ele>274</ele>
        <time>2022-09-11T07:25:24.859Z</time>
      </trkpt>
      <trkpt lat="44.13277" lon="2.24546">
        <ele>274</ele>
        <time>2022-09-11T07:25:25.859Z</time>
      </trkpt>
      <trkpt lat="44.13277" lon="2.24546">
        <ele>274</ele>
        <time>2022-09-11T07:25:26.859Z</time>
      </trkpt>
      <trkpt lat="44.13278" lon="2.24545">
        <ele>274</ele>
        <time>2022-09-11T07:25:27.859Z</time>
      </trkpt>
      <trkpt lat="44.13281" lon="2.24544">
        <ele>275</ele>
        <time>2022-09-11T07:25:45.859Z</time>
      </trkpt>
      <trkpt lat="44.13281" lon="2.24544">
        <ele>275</ele>
        <time>2022-09-11T07:25:46.859Z</time>
      </trkpt>
      <trkpt lat="44.1328" lon="2.24544">
        <ele>275</ele>
        <time>2022-09-11T07:25:47.859Z</time>
      </trkpt>
      <trkpt lat="44.13279" lon="2.24544">
        <ele>275</ele>
        <time>2022-09-11T07:25:51.114Z</time>
      </trkpt>
      <trkpt lat="44.13277" lon="2.24544">
        <ele>275</ele>
        <time>2022-09-11T07:25:52.114Z</time>
      </trkpt>
      <trkpt lat="44.13276" lon="2.24544">
        <ele>275</ele>
        <time>2022-09-11T07:25:53.114Z</time>
      </trkpt>
      <trkpt lat="44.13275" lon="2.24544">
        <ele>276</ele>
        <time>2022-09-11T07:25:54.114Z</time>
      </trkpt>
      <trkpt lat="44.13274" lon="2.24544">
        <ele>276</ele>
        <time>2022-09-11T07:25:55.114Z</time>
      </trkpt>
      <trkpt lat="44.13273" lon="2.24545">
        <ele>275</ele>
        <time>2022-09-11T07:25:56.114Z</time>
      </trkpt>
      <trkpt lat="44.13272" lon="2.24545">
        <ele>275</ele>
        <time>2022-09-11T07:25:57.114Z</time>
      </trkpt>
      <trkpt lat="44.13271" lon="2.24546">
        <ele>275</ele>
        <time>2022-09-11T07:25:58.114Z</time>
      </trkpt>
      <trkpt lat="44.13271" lon="2.24547">
        <ele>275</ele>
        <time>2022-09-11T07:25:59.114Z</time>
      </trkpt>
      <trkpt lat="44.1327" lon="2.24547">
        <ele>275</ele>
        <time>2022-09-11T07:26:00.114Z</time>
      </trkpt>
      <trkpt lat="44.13269" lon="2.24548">
        <ele>275</ele>
        <time>2022-09-11T07:26:01.114Z</time>
      </trkpt>
      <trkpt lat="44.13269" lon="2.24549">
        <ele>275</ele>
        <time>2022-09-11T07:26:02.114Z</time>
      </trkpt>
      <trkpt lat="44.13268" lon="2.24549">
        <ele>275</ele>
        <time>2022-09-11T07:26:03.114Z</time>
      </trkpt>
      <trkpt lat="44.13268" lon="2.2455">
        <ele>275</ele>
        <time>2022-09-11T07:26:04.114Z</time>
      </trkpt>
      <trkpt lat="44.13267" lon="2.2455">
        <ele>275</ele>
        <time>2022-09-11T07:26:05.114Z</time>
      </trkpt>
      <trkpt lat="44.13267" lon="2.24551">
        <ele>275</ele>
        <time>2022-09-11T07:26:06.114Z</time>
      </trkpt>
      <trkpt lat="44.13266" lon="2.24552">
        <ele>275</ele>
        <time>2022-09-11T07:26:07.114Z</time>
      </trkpt>
      <trkpt lat="44.13266" lon="2.24552">
        <ele>275</ele>
        <time>2022-09-11T07:26:08.114Z</time>
      </trkpt>
      <trkpt lat="44.13265" lon="2.24553">
        <ele>275</ele>
        <time>2022-09-11T07:26:09.114Z</time>
      </trkpt>
      <trkpt lat="44.13265" lon="2.24554">
        <ele>275</ele>
        <time>2022-09-11T07:26:10.114Z</time>
      </trkpt>
      <trkpt lat="44.13264" lon="2.24556">
        <ele>275</ele>
        <time>2022-09-11T07:26:11.114Z</time>
      </trkpt>
      <trkpt lat="44.13264" lon="2.24557">
        <ele>275</ele>
        <time>2022-09-11T07:26:12.114Z</time>
      </trkpt>
      <trkpt lat="44.13263" lon="2.24558">
        <ele>274</ele>
        <time>2022-09-11T07:26:13.114Z</time>
      </trkpt>
      <trkpt lat="44.13263" lon="2.2456">
        <ele>274</ele>
        <time>2022-09-11T07:26:14.114Z</time>
      </trkpt>
      <trkpt lat="44.13262" lon="2.24561">
        <ele>274</ele>
        <time>2022-09-11T07:26:15.114Z</time>
      </trkpt>
      <trkpt lat="44.13262" lon="2.24562">
        <ele>274</ele>
        <time>2022-09-11T07:26:16.114Z</time>
      </trkpt>
      <trkpt lat="44.13261" lon="2.24564">
        <ele>274</ele>
        <time>2022-09-11T07:26:17.114Z</time>
      </trkpt>
      <trkpt lat="44.13261" lon="2.24565">
        <ele>274</ele>
        <time>2022-09-11T07:26:18.114Z</time>
      </trkpt>
      <trkpt lat="44.13261" lon="2.24566">
        <ele>273</ele>
        <time>2022-09-11T07:26:19.114Z</time>
      </trkpt>
      <trkpt lat="44.13261" lon="2.24568">
        <ele>273</ele>
        <time>2022-09-11T07:26:20.114Z</time>
      </trkpt>
      <trkpt lat="44.13261" lon="2.24569">
        <ele>273</ele>
        <time>2022-09-11T07:26:21.114Z</time>
      </trkpt>
      <trkpt lat="44.13261" lon="2.2457">
        <ele>273</ele>
        <time>2022-09-11T07:26:22.114Z</time>
      </trkpt>
      <trkpt lat="44.1326" lon="2.24572">
        <ele>273</ele>
        <time>2022-09-11T07:26:23.114Z</time>
      </trkpt>
      <trkpt lat="44.1326" lon="2.24573">
        <ele>272</ele>
        <time>2022-09-11T07:26:24.114Z</time>
      </trkpt>
      <trkpt lat="44.1326" lon="2.24574">
        <ele>272</ele>
        <time>2022-09-11T07:26:25.114Z</time>
      </trkpt>
      <trkpt lat="44.13259" lon="2.24575">
        <ele>272</ele>
        <time>2022-09-11T07:26:26.114Z</time>
      </trkpt>
      <trkpt lat="44.13259" lon="2.24576">
        <ele>272</ele>
        <time>2022-09-11T07:26:27.114Z</time>
      </trkpt>
      <trkpt lat="44.13259" lon="2.24578">
        <ele>272</ele>
        <time>2022-09-11T07:26:28.114Z</time>
      </trkpt>
      <trkpt lat="44.13258" lon="2.24579">
        <ele>272</ele>
        <time>2022-09-11T07:26:29.114Z</time>
      </trkpt>
      <trkpt lat="44.13258" lon="2.24581">
        <ele>272</ele>
        <time>2022-09-11T07:26:30.114Z</time>
      </trkpt>
      <trkpt lat="44.13258" lon="2.24582">
        <ele>272</ele>
        <time>2022-09-11T07:26:31.114Z</time>
      </trkpt>
      <trkpt lat="44.13258" lon="2.24583">
        <ele>272</ele>
        <time>2022-09-11T07:26:32.114Z</time>
      </trkpt>
      <trkpt lat="44.13258" lon="2.24585">
        <ele>272</ele>
        <time>2022-09-11T07:26:33.114Z</time>
      </trkpt>
      <trkpt lat="44.13258" lon="2.24586">
        <ele>272</ele>
        <time>2022-09-11T07:26:34.114Z</time>
      </trkpt>
      <trkpt lat="44.13259" lon="2.24588">
        <ele>272</ele>
        <time>2022-09-11T07:26:35.114Z</time>
      </trkpt>
      <trkpt lat="44.13258" lon="2.24589">
        <ele>272</ele>
        <time>2022-09-11T07:26:36.114Z</time>
      </trkpt>
      <trkpt lat="44.13258" lon="2.2459">
        <ele>272</ele>
        <time>2022-09-11T07:26:37.114Z</time>
      </trkpt>
      <trkpt lat="44.13258" lon="2.24591">
        <ele>272</ele>
        <time>2022-09-11T07:26:38.114Z</time>
      </trkpt>
      <trkpt lat="44.13258" lon="2.24592">
        <ele>272</ele>
        <time>2022-09-11T07:26:39.114Z</time>
      </trkpt>
      <trkpt lat="44.13258" lon="2.24594">
        <ele>272</ele>
        <time>2022-09-11T07:26:40.114Z</time>
      </trkpt>
      <trkpt lat="44.13258" lon="2.24594">
        <ele>272</ele>
        <time>2022-09-11T07:26:41.114Z</time>
      </trkpt>
      <trkpt lat="44.13258" lon="2.24595">
        <ele>272</ele>
        <time>2022-09-11T07:26:42.114Z</time>
      </trkpt>
      <trkpt lat="44.13257" lon="2.24596">
        <ele>272</ele>
        <time>2022-09-11T07:26:43.114Z</time>
      </trkpt>
      <trkpt lat="44.13257" lon="2.24597">
        <ele>272</ele>
        <time>2022-09-11T07:26:44.114Z</time>
      </trkpt>
      <trkpt lat="44.13257" lon="2.24598">
        <ele>272</ele>
        <time>2022-09-11T07:26:45.114Z</time>
      </trkpt>
      <trkpt lat="44.13257" lon="2.24599">
        <ele>272</ele>
        <time>2022-09-11T07:26:46.114Z</time>
      </trkpt>
      <trkpt lat="44.13256" lon="2.246">
        <ele>272</ele>
        <time>2022-09-11T07:26:47.114Z</time>
      </trkpt>
      <trkpt lat="44.13256" lon="2.24601">
        <ele>272</ele>
        <time>2022-09-11T07:26:48.114Z</time>
      </trkpt>
      <trkpt lat="44.13256" lon="2.24602">
        <ele>272</ele>
        <time>2022-09-11T07:26:49.114Z</time>
      </trkpt>
      <trkpt lat="44.13256" lon="2.24603">
        <ele>272</ele>
        <time>2022-09-11T07:26:50.114Z</time>
      </trkpt>
      <trkpt lat="44.13255" lon="2.24604">
        <ele>272</ele>
        <time>2022-09-11T07:26:51.114Z</time>
      </trkpt>
      <trkpt lat="44.13255" lon="2.24606">
        <ele>272</ele>
        <time>2022-09-11T07:26:52.114Z</time>
      </trkpt>
      <trkpt lat="44.13255" lon="2.24607">
        <ele>272</ele>
        <time>2022-09-11T07:26:53.114Z</time>
      </trkpt>
      <trkpt lat="44.13255" lon="2.24608">
        <ele>272</ele>
        <time>2022-09-11T07:26:54.114Z</time>
      </trkpt>
      <trkpt lat="44.13255" lon="2.24609">
        <ele>272</ele>
        <time>2022-09-11T07:26:55.114Z</time>
      </trkpt>
      <trkpt lat="44.13254" lon="2.2461">
        <ele>272</ele>
        <time>2022-09-11T07:26:56.114Z</time>
      </trkpt>
      <trkpt lat="44.13254" lon="2.24611">
        <ele>272</ele>
        <time>2022-09-11T07:26:57.114Z</time>
      </trkpt>
      <trkpt lat="44.13254" lon="2.24612">
        <ele>272</ele>
        <time>2022-09-11T07:26:58.114Z</time>
      </trkpt>
      <trkpt lat="44.13254" lon="2.24613">
        <ele>272</ele>
        <time>2022-09-11T07:26:59.114Z</time>
      </trkpt>
      <trkpt lat="44.13254" lon="2.24614">
        <ele>272</ele>
        <time>2022-09-11T07:27:00.114Z</time>
      </trkpt>
      <trkpt lat="44.13254" lon="2.24615">
        <ele>272</ele>
        <time>2022-09-11T07:27:01.114Z</time>
      </trkpt>
      <trkpt lat="44.13254" lon="2.24615">
        <ele>272</ele>
        <time>2022-09-11T07:27:02.114Z</time>
      </trkpt>
      <trkpt lat="44.13253" lon="2.24616">
        <ele>272</ele>
        <time>2022-09-11T07:27:03.114Z</time>
      </trkpt>
      <trkpt lat="44.13253" lon="2.24616">
        <ele>272</ele>
        <time>2022-09-11T07:27:04.114Z</time>
      </trkpt>
      <trkpt lat="44.13253" lon="2.24617">
        <ele>273</ele>
        <time>2022-09-11T07:27:05.114Z</time>
      </trkpt>
      <trkpt lat="44.13253" lon="2.24617">
        <ele>273</ele>
        <time>2022-09-11T07:27:06.114Z</time>
      </trkpt>
      <trkpt lat="44.13253" lon="2.24618">
        <ele>273</ele>
        <time>2022-09-11T07:27:07.114Z</time>
      </trkpt>
      <trkpt lat="44.13253" lon="2.24619">
        <ele>273</ele>
        <time>2022-09-11T07:27:08.114Z</time>
      </trkpt>
      <trkpt lat="44.13253" lon="2.2462">
        <ele>273</ele>
        <time>2022-09-11T07:27:09.114Z</time>
      </trkpt>
      <trkpt lat="44.13253" lon="2.24622">
        <ele>273</ele>
        <time>2022-09-11T07:27:10.114Z</time>
      </trkpt>
      <trkpt lat="44.13254" lon="2.24623">
        <ele>273</ele>
        <time>2022-09-11T07:27:11.114Z</time>
      </trkpt>
      <trkpt lat="44.13254" lon="2.24624">
        <ele>274</ele>
        <time>2022-09-11T07:27:12.114Z</time>
      </trkpt>
      <trkpt lat="44.13253" lon="2.24626">
        <ele>274</ele>
        <time>2022-09-11T07:27:13.114Z</time>
      </trkpt>
      <trkpt lat="44.13253" lon="2.24627">
        <ele>274</ele>
        <time>2022-09-11T07:27:14.114Z</time>
      </trkpt>
      <trkpt lat="44.13253" lon="2.24628">
        <ele>274</ele>
        <time>2022-09-11T07:27:15.114Z</time>
      </trkpt>
      <trkpt lat="44.13253" lon="2.24629">
        <ele>274</ele>
        <time>2022-09-11T07:27:16.114Z</time>
      </trkpt>
      <trkpt lat="44.13253" lon="2.2463">
        <ele>274</ele>
        <time>2022-09-11T07:27:17.114Z</time>
      </trkpt>
      <trkpt lat="44.13253" lon="2.24631">
        <ele>274</ele>
        <time>2022-09-11T07:27:18.114Z</time>
      </trkpt>
      <trkpt lat="44.13252" lon="2.24632">
        <ele>274</ele>
        <time>2022-09-11T07:27:19.114Z</time>
      </trkpt>
      <trkpt lat="44.13252" lon="2.24633">
        <ele>275</ele>
        <time>2022-09-11T07:27:20.114Z</time>
      </trkpt>
      <trkpt lat="44.13251" lon="2.24634">
        <ele>275</ele>
        <time>2022-09-11T07:27:21.114Z</time>
      </trkpt>
      <trkpt lat="44.13251" lon="2.24635">
        <ele>275</ele>
        <time>2022-09-11T07:27:22.114Z</time>
      </trkpt>
      <trkpt lat="44.13251" lon="2.24636">
        <ele>275</ele>
        <time>2022-09-11T07:27:23.114Z</time>
      </trkpt>
      <trkpt lat="44.1325" lon="2.24637">
        <ele>275</ele>
        <time>2022-09-11T07:27:24.114Z</time>
      </trkpt>
      <trkpt lat="44.1325" lon="2.24638">
        <ele>275</ele>
        <time>2022-09-11T07:27:25.114Z</time>
      </trkpt>
      <trkpt lat="44.1325" lon="2.24638">
        <ele>275</ele>
        <time>2022-09-11T07:27:26.114Z</time>
      </trkpt>
      <trkpt lat="44.1325" lon="2.24638">
        <ele>275</ele>
        <time>2022-09-11T07:27:27.114Z</time>
      </trkpt>
      <trkpt lat="44.1325" lon="2.24639">
        <ele>275</ele>
        <time>2022-09-11T07:27:28.114Z</time>
      </trkpt>
      <trkpt lat="44.1325" lon="2.24639">
        <ele>275</ele>
        <time>2022-09-11T07:27:29.114Z</time>
      </trkpt>
      <trkpt lat="44.1325" lon="2.24641">
        <ele>276</ele>
        <time>2022-09-11T07:27:39.116Z</time>
      </trkpt>
      <trkpt lat="44.13249" lon="2.24642">
        <ele>276</ele>
        <time>2022-09-11T07:27:40.116Z</time>
      </trkpt>
      <trkpt lat="44.13249" lon="2.24642">
        <ele>276</ele>
        <time>2022-09-11T07:27:41.116Z</time>
      </trkpt>
      <trkpt lat="44.13249" lon="2.24642">
        <ele>276</ele>
        <time>2022-09-11T07:27:42.116Z</time>
      </trkpt>
      <trkpt lat="44.13249" lon="2.24643">
        <ele>276</ele>
        <time>2022-09-11T07:27:43.116Z</time>
      </trkpt>
      <trkpt lat="44.13249" lon="2.24644">
        <ele>276</ele>
        <time>2022-09-11T07:27:44.116Z</time>
      </trkpt>
      <trkpt lat="44.13249" lon="2.24644">
        <ele>276</ele>
        <time>2022-09-11T07:27:45.116Z</time>
      </trkpt>
      <trkpt lat="44.13249" lon="2.24645">
        <ele>276</ele>
        <time>2022-09-11T07:27:46.116Z</time>
      </trkpt>
      <trkpt lat="44.13248" lon="2.24646">
        <ele>276</ele>
        <time>2022-09-11T07:27:47.116Z</time>
      </trkpt>
      <trkpt lat="44.13248" lon="2.24647">
        <ele>276</ele>
        <time>2022-09-11T07:27:48.116Z</time>
      </trkpt>
      <trkpt lat="44.13248" lon="2.24648">
        <ele>276</ele>
        <time>2022-09-11T07:27:49.116Z</time>
      </trkpt>
      <trkpt lat="44.13248" lon="2.24648">
        <ele>276</ele>
        <time>2022-09-11T07:27:50.116Z</time>
      </trkpt>
      <trkpt lat="44.13248" lon="2.24649">
        <ele>276</ele>
        <time>2022-09-11T07:27:51.116Z</time>
      </trkpt>
      <trkpt lat="44.13248" lon="2.2465">
        <ele>276</ele>
        <time>2022-09-11T07:27:52.116Z</time>
      </trkpt>
      <trkpt lat="44.13248" lon="2.2465">
        <ele>276</ele>
        <time>2022-09-11T07:27:53.116Z</time>
      </trkpt>
      <trkpt lat="44.13247" lon="2.24652">
        <ele>276</ele>
        <time>2022-09-11T07:27:59.118Z</time>
      </trkpt>
      <trkpt lat="44.13247" lon="2.24653">
        <ele>276</ele>
        <time>2022-09-11T07:28:00.118Z</time>
      </trkpt>
      <trkpt lat="44.13248" lon="2.24654">
        <ele>276</ele>
        <time>2022-09-11T07:28:01.118Z</time>
      </trkpt>
      <trkpt lat="44.13247" lon="2.24655">
        <ele>276</ele>
        <time>2022-09-11T07:28:02.118Z</time>
      </trkpt>
      <trkpt lat="44.13247" lon="2.24656">
        <ele>276</ele>
        <time>2022-09-11T07:28:03.118Z</time>
      </trkpt>
      <trkpt lat="44.13247" lon="2.24657">
        <ele>276</ele>
        <time>2022-09-11T07:28:04.118Z</time>
      </trkpt>
      <trkpt lat="44.13247" lon="2.24659">
        <ele>276</ele>
        <time>2022-09-11T07:28:05.118Z</time>
      </trkpt>
      <trkpt lat="44.13247" lon="2.2466">
        <ele>276</ele>
        <time>2022-09-11T07:28:06.118Z</time>
      </trkpt>
      <trkpt lat="44.13247" lon="2.24661">
        <ele>276</ele>
        <time>2022-09-11T07:28:07.118Z</time>
      </trkpt>
      <trkpt lat="44.13247" lon="2.24663">
        <ele>276</ele>
        <time>2022-09-11T07:28:08.118Z</time>
      </trkpt>
      <trkpt lat="44.13247" lon="2.24664">
        <ele>277</ele>
        <time>2022-09-11T07:28:09.118Z</time>
      </trkpt>
      <trkpt lat="44.13246" lon="2.24665">
        <ele>277</ele>
        <time>2022-09-11T07:28:10.118Z</time>
      </trkpt>
      <trkpt lat="44.13246" lon="2.24667">
        <ele>277</ele>
        <time>2022-09-11T07:28:11.118Z</time>
      </trkpt>
      <trkpt lat="44.13246" lon="2.24667">
        <ele>277</ele>
        <time>2022-09-11T07:28:12.118Z</time>
      </trkpt>
      <trkpt lat="44.13246" lon="2.24668">
        <ele>277</ele>
        <time>2022-09-11T07:28:13.118Z</time>
      </trkpt>
      <trkpt lat="44.13246" lon="2.24669">
        <ele>277</ele>
        <time>2022-09-11T07:28:14.118Z</time>
      </trkpt>
      <trkpt lat="44.13246" lon="2.2467">
        <ele>277</ele>
        <time>2022-09-11T07:28:15.118Z</time>
      </trkpt>
      <trkpt lat="44.13245" lon="2.24671">
        <ele>277</ele>
        <time>2022-09-11T07:28:16.118Z</time>
      </trkpt>
      <trkpt lat="44.13245" lon="2.24672">
        <ele>277</ele>
        <time>2022-09-11T07:28:17.118Z</time>
      </trkpt>
      <trkpt lat="44.13245" lon="2.24673">
        <ele>278</ele>
        <time>2022-09-11T07:28:18.118Z</time>
      </trkpt>
      <trkpt lat="44.13245" lon="2.24673">
        <ele>278</ele>
        <time>2022-09-11T07:28:19.118Z</time>
      </trkpt>
      <trkpt lat="44.13246" lon="2.24674">
        <ele>278</ele>
        <time>2022-09-11T07:28:20.118Z</time>
      </trkpt>
      <trkpt lat="44.13246" lon="2.24675">
        <ele>278</ele>
        <time>2022-09-11T07:28:21.118Z</time>
      </trkpt>
      <trkpt lat="44.13246" lon="2.24676">
        <ele>278</ele>
        <time>2022-09-11T07:28:22.118Z</time>
      </trkpt>
      <trkpt lat="44.13247" lon="2.24676">
        <ele>279</ele>
        <time>2022-09-11T07:28:23.118Z</time>
      </trkpt>
      <trkpt lat="44.13247" lon="2.24677">
        <ele>279</ele>
        <time>2022-09-11T07:28:24.118Z</time>
      </trkpt>
      <trkpt lat="44.13248" lon="2.24678">
        <ele>279</ele>
        <time>2022-09-11T07:28:25.118Z</time>
      </trkpt>
      <trkpt lat="44.13248" lon="2.24679">
        <ele>280</ele>
        <time>2022-09-11T07:28:26.118Z</time>
      </trkpt>
      <trkpt lat="44.13249" lon="2.2468">
        <ele>280</ele>
        <time>2022-09-11T07:28:27.118Z</time>
      </trkpt>
      <trkpt lat="44.13249" lon="2.24681">
        <ele>280</ele>
        <time>2022-09-11T07:28:28.118Z</time>
      </trkpt>
      <trkpt lat="44.13249" lon="2.24682">
        <ele>281</ele>
        <time>2022-09-11T07:28:29.118Z</time>
      </trkpt>
      <trkpt lat="44.13249" lon="2.24683">
        <ele>281</ele>
        <time>2022-09-11T07:28:30.118Z</time>
      </trkpt>
      <trkpt lat="44.13249" lon="2.24685">
        <ele>281</ele>
        <time>2022-09-11T07:28:31.118Z</time>
      </trkpt>
      <trkpt lat="44.1325" lon="2.24687">
        <ele>281</ele>
        <time>2022-09-11T07:28:32.118Z</time>
      </trkpt>
      <trkpt lat="44.13249" lon="2.24688">
        <ele>282</ele>
        <time>2022-09-11T07:28:33.118Z</time>
      </trkpt>
      <trkpt lat="44.13249" lon="2.2469">
        <ele>282</ele>
        <time>2022-09-11T07:28:34.118Z</time>
      </trkpt>
      <trkpt lat="44.13249" lon="2.24691">
        <ele>282</ele>
        <time>2022-09-11T07:28:35.118Z</time>
      </trkpt>
      <trkpt lat="44.13249" lon="2.24692">
        <ele>282</ele>
        <time>2022-09-11T07:28:36.118Z</time>
      </trkpt>
      <trkpt lat="44.13249" lon="2.24693">
        <ele>282</ele>
        <time>2022-09-11T07:28:37.118Z</time>
      </trkpt>
      <trkpt lat="44.13249" lon="2.24694">
        <ele>282</ele>
        <time>2022-09-11T07:28:38.118Z</time>
      </trkpt>
      <trkpt lat="44.13248" lon="2.24696">
        <ele>282</ele>
        <time>2022-09-11T07:28:39.118Z</time>
      </trkpt>
      <trkpt lat="44.13248" lon="2.24697">
        <ele>282</ele>
        <time>2022-09-11T07:28:40.118Z</time>
      </trkpt>
      <trkpt lat="44.13247" lon="2.24698">
        <ele>282</ele>
        <time>2022-09-11T07:28:41.118Z</time>
      </trkpt>
      <trkpt lat="44.13247" lon="2.24699">
        <ele>283</ele>
        <time>2022-09-11T07:28:42.118Z</time>
      </trkpt>
      <trkpt lat="44.13246" lon="2.247">
        <ele>283</ele>
        <time>2022-09-11T07:28:43.118Z</time>
      </trkpt>
      <trkpt lat="44.13245" lon="2.24701">
        <ele>283</ele>
        <time>2022-09-11T07:28:44.118Z</time>
      </trkpt>
      <trkpt lat="44.13244" lon="2.24702">
        <ele>283</ele>
        <time>2022-09-11T07:28:45.118Z</time>
      </trkpt>
      <trkpt lat="44.13243" lon="2.24703">
        <ele>283</ele>
        <time>2022-09-11T07:28:46.118Z</time>
      </trkpt>
      <trkpt lat="44.13243" lon="2.24703">
        <ele>283</ele>
        <time>2022-09-11T07:28:47.118Z</time>
      </trkpt>
      <trkpt lat="44.13242" lon="2.24704">
        <ele>283</ele>
        <time>2022-09-11T07:28:48.118Z</time>
      </trkpt>
      <trkpt lat="44.13241" lon="2.24705">
        <ele>283</ele>
        <time>2022-09-11T07:28:49.118Z</time>
      </trkpt>
      <trkpt lat="44.1324" lon="2.24705">
        <ele>283</ele>
        <time>2022-09-11T07:28:50.118Z</time>
      </trkpt>
      <trkpt lat="44.13239" lon="2.24706">
        <ele>283</ele>
        <time>2022-09-11T07:28:51.118Z</time>
      </trkpt>
      <trkpt lat="44.13239" lon="2.24707">
        <ele>283</ele>
        <time>2022-09-11T07:28:52.118Z</time>
      </trkpt>
      <trkpt lat="44.13238" lon="2.24707">
        <ele>283</ele>
        <time>2022-09-11T07:28:53.118Z</time>
      </trkpt>
      <trkpt lat="44.13237" lon="2.24708">
        <ele>283</ele>
        <time>2022-09-11T07:28:54.118Z</time>
      </trkpt>
      <trkpt lat="44.13236" lon="2.24709">
        <ele>283</ele>
        <time>2022-09-11T07:28:55.118Z</time>
      </trkpt>
      <trkpt lat="44.13235" lon="2.2471">
        <ele>283</ele>
        <time>2022-09-11T07:28:56.118Z</time>
      </trkpt>
      <trkpt lat="44.13235" lon="2.24712">
        <ele>283</ele>
        <time>2022-09-11T07:28:57.118Z</time>
      </trkpt>
      <trkpt lat="44.13234" lon="2.24713">
        <ele>283</ele>
        <time>2022-09-11T07:28:58.118Z</time>
      </trkpt>
      <trkpt lat="44.13233" lon="2.24714">
        <ele>283</ele>
        <time>2022-09-11T07:28:59.118Z</time>
      </trkpt>
      <trkpt lat="44.13233" lon="2.24715">
        <ele>284</ele>
        <time>2022-09-11T07:29:00.118Z</time>
      </trkpt>
      <trkpt lat="44.13233" lon="2.24716">
        <ele>284</ele>
        <time>2022-09-11T07:29:01.118Z</time>
      </trkpt>
      <trkpt lat="44.13233" lon="2.24717">
        <ele>284</ele>
        <time>2022-09-11T07:29:02.118Z</time>
      </trkpt>
      <trkpt lat="44.13232" lon="2.24718">
        <ele>284</ele>
        <time>2022-09-11T07:29:03.118Z</time>
      </trkpt>
      <trkpt lat="44.13232" lon="2.24719">
        <ele>284</ele>
        <time>2022-09-11T07:29:04.118Z</time>
      </trkpt>
      <trkpt lat="44.13232" lon="2.2472">
        <ele>284</ele>
        <time>2022-09-11T07:29:05.118Z</time>
      </trkpt>
      <trkpt lat="44.13231" lon="2.24721">
        <ele>285</ele>
        <time>2022-09-11T07:29:06.118Z</time>
      </trkpt>
      <trkpt lat="44.13231" lon="2.24722">
        <ele>285</ele>
        <time>2022-09-11T07:29:07.118Z</time>
      </trkpt>
      <trkpt lat="44.1323" lon="2.24723">
        <ele>285</ele>
        <time>2022-09-11T07:29:08.118Z</time>
      </trkpt>
      <trkpt lat="44.1323" lon="2.24724">
        <ele>285</ele>
        <time>2022-09-11T07:29:09.118Z</time>
      </trkpt>
      <trkpt lat="44.1323" lon="2.24725">
        <ele>285</ele>
        <time>2022-09-11T07:29:10.118Z</time>
      </trkpt>
      <trkpt lat="44.1323" lon="2.24726">
        <ele>285</ele>
        <time>2022-09-11T07:29:11.118Z</time>
      </trkpt>
      <trkpt lat="44.1323" lon="2.24726">
        <ele>285</ele>
        <time>2022-09-11T07:29:12.118Z</time>
      </trkpt>
      <trkpt lat="44.1323" lon="2.24727">
        <ele>286</ele>
        <time>2022-09-11T07:29:13.118Z</time>
      </trkpt>
      <trkpt lat="44.1323" lon="2.24727">
        <ele>286</ele>
        <time>2022-09-11T07:29:14.118Z</time>
      </trkpt>
      <trkpt lat="44.1323" lon="2.24728">
        <ele>286</ele>
        <time>2022-09-11T07:29:15.118Z</time>
      </trkpt>
      <trkpt lat="44.1323" lon="2.24729">
        <ele>286</ele>
        <time>2022-09-11T07:29:16.118Z</time>
      </trkpt>
      <trkpt lat="44.1323" lon="2.24729">
        <ele>286</ele>
        <time>2022-09-11T07:29:17.118Z</time>
      </trkpt>
      <trkpt lat="44.13229" lon="2.2473">
        <ele>286</ele>
        <time>2022-09-11T07:29:18.118Z</time>
      </trkpt>
      <trkpt lat="44.13229" lon="2.2473">
        <ele>287</ele>
        <time>2022-09-11T07:29:19.118Z</time>
      </trkpt>
      <trkpt lat="44.13229" lon="2.24731">
        <ele>287</ele>
        <time>2022-09-11T07:29:20.118Z</time>
      </trkpt>
      <trkpt lat="44.13228" lon="2.24731">
        <ele>287</ele>
        <time>2022-09-11T07:29:21.118Z</time>
      </trkpt>
      <trkpt lat="44.13228" lon="2.24731">
        <ele>287</ele>
        <time>2022-09-11T07:29:22.118Z</time>
      </trkpt>
      <trkpt lat="44.13228" lon="2.2473">
        <ele>288</ele>
        <time>2022-09-11T07:29:23.118Z</time>
      </trkpt>
      <trkpt lat="44.13228" lon="2.24729">
        <ele>288</ele>
        <time>2022-09-11T07:29:24.118Z</time>
      </trkpt>
      <trkpt lat="44.13228" lon="2.24728">
        <ele>288</ele>
        <time>2022-09-11T07:29:25.118Z</time>
      </trkpt>
      <trkpt lat="44.13227" lon="2.24727">
        <ele>288</ele>
        <time>2022-09-11T07:29:26.118Z</time>
      </trkpt>
      <trkpt lat="44.13227" lon="2.24726">
        <ele>288</ele>
        <time>2022-09-11T07:29:27.118Z</time>
      </trkpt>
      <trkpt lat="44.13227" lon="2.24725">
        <ele>288</ele>
        <time>2022-09-11T07:29:28.118Z</time>
      </trkpt>
      <trkpt lat="44.13226" lon="2.24724">
        <ele>288</ele>
        <time>2022-09-11T07:29:29.118Z</time>
      </trkpt>
      <trkpt lat="44.13226" lon="2.24723">
        <ele>288</ele>
        <time>2022-09-11T07:29:30.118Z</time>
      </trkpt>
      <trkpt lat="44.13225" lon="2.24722">
        <ele>288</ele>
        <time>2022-09-11T07:29:31.118Z</time>
      </trkpt>
      <trkpt lat="44.13225" lon="2.24721">
        <ele>288</ele>
        <time>2022-09-11T07:29:32.118Z</time>
      </trkpt>
      <trkpt lat="44.13225" lon="2.2472">
        <ele>288</ele>
        <time>2022-09-11T07:29:33.118Z</time>
      </trkpt>
      <trkpt lat="44.13225" lon="2.24719">
        <ele>288</ele>
        <time>2022-09-11T07:29:34.118Z</time>
      </trkpt>
      <trkpt lat="44.13225" lon="2.24718">
        <ele>288</ele>
        <time>2022-09-11T07:29:35.118Z</time>
      </trkpt>
      <trkpt lat="44.13225" lon="2.24717">
        <ele>288</ele>
        <time>2022-09-11T07:29:36.118Z</time>
      </trkpt>
      <trkpt lat="44.13225" lon="2.24716">
        <ele>288</ele>
        <time>2022-09-11T07:29:37.118Z</time>
      </trkpt>
      <trkpt lat="44.13225" lon="2.24715">
        <ele>288</ele>
        <time>2022-09-11T07:29:38.118Z</time>
      </trkpt>
      <trkpt lat="44.13225" lon="2.24713">
        <ele>288</ele>
        <time>2022-09-11T07:29:39.118Z</time>
      </trkpt>
      <trkpt lat="44.13226" lon="2.24713">
        <ele>288</ele>
        <time>2022-09-11T07:29:40.118Z</time>
      </trkpt>
      <trkpt lat="44.13226" lon="2.24712">
        <ele>289</ele>
        <time>2022-09-11T07:29:41.118Z</time>
      </trkpt>
      <trkpt lat="44.13226" lon="2.24711">
        <ele>289</ele>
        <time>2022-09-11T07:29:42.118Z</time>
      </trkpt>
      <trkpt lat="44.13226" lon="2.2471">
        <ele>289</ele>
        <time>2022-09-11T07:29:43.118Z</time>
      </trkpt>
      <trkpt lat="44.13227" lon="2.24709">
        <ele>289</ele>
        <time>2022-09-11T07:29:44.118Z</time>
      </trkpt>
      <trkpt lat="44.13227" lon="2.24708">
        <ele>289</ele>
        <time>2022-09-11T07:29:45.118Z</time>
      </trkpt>
      <trkpt lat="44.13227" lon="2.24707">
        <ele>290</ele>
        <time>2022-09-11T07:29:46.118Z</time>
      </trkpt>
      <trkpt lat="44.13227" lon="2.24706">
        <ele>290</ele>
        <time>2022-09-11T07:29:47.118Z</time>
      </trkpt>
      <trkpt lat="44.13228" lon="2.24705">
        <ele>290</ele>
        <time>2022-09-11T07:29:48.118Z</time>
      </trkpt>
      <trkpt lat="44.13228" lon="2.24704">
        <ele>290</ele>
        <time>2022-09-11T07:29:49.118Z</time>
      </trkpt>
      <trkpt lat="44.13229" lon="2.24704">
        <ele>290</ele>
        <time>2022-09-11T07:29:50.118Z</time>
      </trkpt>
      <trkpt lat="44.13229" lon="2.24703">
        <ele>290</ele>
        <time>2022-09-11T07:29:51.118Z</time>
      </trkpt>
      <trkpt lat="44.1323" lon="2.24702">
        <ele>290</ele>
        <time>2022-09-11T07:29:52.118Z</time>
      </trkpt>
      <trkpt lat="44.1323" lon="2.24702">
        <ele>291</ele>
        <time>2022-09-11T07:29:53.118Z</time>
      </trkpt>
      <trkpt lat="44.1323" lon="2.24701">
        <ele>291</ele>
        <time>2022-09-11T07:29:54.118Z</time>
      </trkpt>
      <trkpt lat="44.13231" lon="2.247">
        <ele>291</ele>
        <time>2022-09-11T07:29:55.118Z</time>
      </trkpt>
      <trkpt lat="44.13231" lon="2.247">
        <ele>291</ele>
        <time>2022-09-11T07:29:56.118Z</time>
      </trkpt>
      <trkpt lat="44.13231" lon="2.24699">
        <ele>291</ele>
        <time>2022-09-11T07:29:57.118Z</time>
      </trkpt>
      <trkpt lat="44.13231" lon="2.24698">
        <ele>291</ele>
        <time>2022-09-11T07:29:58.118Z</time>
      </trkpt>
      <trkpt lat="44.13231" lon="2.24697">
        <ele>291</ele>
        <time>2022-09-11T07:29:59.118Z</time>
      </trkpt>
      <trkpt lat="44.13231" lon="2.24695">
        <ele>291</ele>
        <time>2022-09-11T07:30:00.118Z</time>
      </trkpt>
      <trkpt lat="44.13231" lon="2.24694">
        <ele>291</ele>
        <time>2022-09-11T07:30:01.118Z</time>
      </trkpt>
      <trkpt lat="44.13231" lon="2.24693">
        <ele>291</ele>
        <time>2022-09-11T07:30:02.118Z</time>
      </trkpt>
      <trkpt lat="44.13231" lon="2.24692">
        <ele>292</ele>
        <time>2022-09-11T07:30:03.118Z</time>
      </trkpt>
      <trkpt lat="44.1323" lon="2.24691">
        <ele>292</ele>
        <time>2022-09-11T07:30:04.118Z</time>
      </trkpt>
      <trkpt lat="44.1323" lon="2.2469">
        <ele>292</ele>
        <time>2022-09-11T07:30:05.118Z</time>
      </trkpt>
      <trkpt lat="44.13229" lon="2.24689">
        <ele>292</ele>
        <time>2022-09-11T07:30:06.118Z</time>
      </trkpt>
      <trkpt lat="44.13228" lon="2.24688">
        <ele>292</ele>
        <time>2022-09-11T07:30:07.118Z</time>
      </trkpt>
      <trkpt lat="44.13228" lon="2.24687">
        <ele>292</ele>
        <time>2022-09-11T07:30:08.118Z</time>
      </trkpt>
      <trkpt lat="44.13227" lon="2.24686">
        <ele>293</ele>
        <time>2022-09-11T07:30:09.118Z</time>
      </trkpt>
      <trkpt lat="44.13227" lon="2.24685">
        <ele>293</ele>
        <time>2022-09-11T07:30:10.118Z</time>
      </trkpt>
      <trkpt lat="44.13226" lon="2.24684">
        <ele>293</ele>
        <time>2022-09-11T07:30:11.118Z</time>
      </trkpt>
      <trkpt lat="44.13226" lon="2.24683">
        <ele>293</ele>
        <time>2022-09-11T07:30:12.118Z</time>
      </trkpt>
      <trkpt lat="44.13225" lon="2.24682">
        <ele>293</ele>
        <time>2022-09-11T07:30:13.118Z</time>
      </trkpt>
      <trkpt lat="44.13225" lon="2.24681">
        <ele>293</ele>
        <time>2022-09-11T07:30:14.118Z</time>
      </trkpt>
      <trkpt lat="44.13224" lon="2.2468">
        <ele>294</ele>
        <time>2022-09-11T07:30:15.118Z</time>
      </trkpt>
      <trkpt lat="44.13223" lon="2.24679">
        <ele>294</ele>
        <time>2022-09-11T07:30:16.118Z</time>
      </trkpt>
      <trkpt lat="44.13223" lon="2.24678">
        <ele>294</ele>
        <time>2022-09-11T07:30:17.118Z</time>
      </trkpt>
      <trkpt lat="44.13222" lon="2.24677">
        <ele>294</ele>
        <time>2022-09-11T07:30:18.118Z</time>
      </trkpt>
      <trkpt lat="44.13222" lon="2.24676">
        <ele>294</ele>
        <time>2022-09-11T07:30:19.118Z</time>
      </trkpt>
      <trkpt lat="44.13221" lon="2.24675">
        <ele>294</ele>
        <time>2022-09-11T07:30:20.118Z</time>
      </trkpt>
      <trkpt lat="44.13221" lon="2.24674">
        <ele>294</ele>
        <time>2022-09-11T07:30:21.118Z</time>
      </trkpt>
      <trkpt lat="44.13221" lon="2.24673">
        <ele>295</ele>
        <time>2022-09-11T07:30:22.118Z</time>
      </trkpt>
      <trkpt lat="44.1322" lon="2.24672">
        <ele>295</ele>
        <time>2022-09-11T07:30:23.118Z</time>
      </trkpt>
      <trkpt lat="44.1322" lon="2.24671">
        <ele>295</ele>
        <time>2022-09-11T07:30:24.118Z</time>
      </trkpt>
      <trkpt lat="44.1322" lon="2.2467">
        <ele>295</ele>
        <time>2022-09-11T07:30:25.118Z</time>
      </trkpt>
      <trkpt lat="44.13219" lon="2.2467">
        <ele>296</ele>
        <time>2022-09-11T07:30:26.118Z</time>
      </trkpt>
      <trkpt lat="44.13219" lon="2.24669">
        <ele>296</ele>
        <time>2022-09-11T07:30:27.118Z</time>
      </trkpt>
      <trkpt lat="44.13219" lon="2.24668">
        <ele>296</ele>
        <time>2022-09-11T07:30:28.118Z</time>
      </trkpt>
      <trkpt lat="44.13218" lon="2.24668">
        <ele>296</ele>
        <time>2022-09-11T07:30:29.118Z</time>
      </trkpt>
      <trkpt lat="44.13218" lon="2.24667">
        <ele>296</ele>
        <time>2022-09-11T07:30:30.118Z</time>
      </trkpt>
      <trkpt lat="44.13218" lon="2.24666">
        <ele>296</ele>
        <time>2022-09-11T07:30:31.118Z</time>
      </trkpt>
      <trkpt lat="44.13217" lon="2.24666">
        <ele>297</ele>
        <time>2022-09-11T07:30:32.118Z</time>
      </trkpt>
      <trkpt lat="44.13217" lon="2.24665">
        <ele>297</ele>
        <time>2022-09-11T07:30:33.118Z</time>
      </trkpt>
      <trkpt lat="44.13216" lon="2.24664">
        <ele>297</ele>
        <time>2022-09-11T07:30:34.118Z</time>
      </trkpt>
      <trkpt lat="44.13216" lon="2.24663">
        <ele>297</ele>
        <time>2022-09-11T07:30:35.118Z</time>
      </trkpt>
      <trkpt lat="44.13216" lon="2.24663">
        <ele>297</ele>
        <time>2022-09-11T07:30:36.118Z</time>
      </trkpt>
      <trkpt lat="44.13215" lon="2.24662">
        <ele>297</ele>
        <time>2022-09-11T07:30:37.118Z</time>
      </trkpt>
      <trkpt lat="44.13215" lon="2.24661">
        <ele>297</ele>
        <time>2022-09-11T07:30:38.118Z</time>
      </trkpt>
      <trkpt lat="44.13215" lon="2.2466">
        <ele>297</ele>
        <time>2022-09-11T07:30:39.118Z</time>
      </trkpt>
      <trkpt lat="44.13214" lon="2.24659">
        <ele>297</ele>
        <time>2022-09-11T07:30:40.118Z</time>
      </trkpt>
      <trkpt lat="44.13214" lon="2.24659">
        <ele>298</ele>
        <time>2022-09-11T07:30:41.118Z</time>
      </trkpt>
      <trkpt lat="44.13214" lon="2.24658">
        <ele>298</ele>
        <time>2022-09-11T07:30:42.118Z</time>
      </trkpt>
      <trkpt lat="44.13213" lon="2.24657">
        <ele>298</ele>
        <time>2022-09-11T07:30:43.118Z</time>
      </trkpt>
      <trkpt lat="44.13213" lon="2.24656">
        <ele>298</ele>
        <time>2022-09-11T07:30:44.118Z</time>
      </trkpt>
      <trkpt lat="44.13212" lon="2.24656">
        <ele>298</ele>
        <time>2022-09-11T07:30:45.118Z</time>
      </trkpt>
      <trkpt lat="44.13212" lon="2.24654">
        <ele>298</ele>
        <time>2022-09-11T07:30:46.118Z</time>
      </trkpt>
      <trkpt lat="44.13212" lon="2.24653">
        <ele>298</ele>
        <time>2022-09-11T07:30:47.118Z</time>
      </trkpt>
      <trkpt lat="44.13212" lon="2.24652">
        <ele>298</ele>
        <time>2022-09-11T07:30:48.118Z</time>
      </trkpt>
      <trkpt lat="44.13211" lon="2.24651">
        <ele>298</ele>
        <time>2022-09-11T07:30:49.118Z</time>
      </trkpt>
      <trkpt lat="44.13211" lon="2.24649">
        <ele>298</ele>
        <time>2022-09-11T07:30:50.118Z</time>
      </trkpt>
      <trkpt lat="44.13211" lon="2.24648">
        <ele>298</ele>
        <time>2022-09-11T07:30:51.118Z</time>
      </trkpt>
      <trkpt lat="44.13211" lon="2.24647">
        <ele>298</ele>
        <time>2022-09-11T07:30:52.118Z</time>
      </trkpt>
      <trkpt lat="44.13211" lon="2.24645">
        <ele>298</ele>
        <time>2022-09-11T07:30:53.118Z</time>
      </trkpt>
      <trkpt lat="44.13211" lon="2.24644">
        <ele>298</ele>
        <time>2022-09-11T07:30:54.118Z</time>
      </trkpt>
      <trkpt lat="44.13211" lon="2.24642">
        <ele>298</ele>
        <time>2022-09-11T07:30:55.118Z</time>
      </trkpt>
      <trkpt lat="44.13211" lon="2.24641">
        <ele>298</ele>
        <time>2022-09-11T07:30:56.118Z</time>
      </trkpt>
      <trkpt lat="44.13211" lon="2.24639">
        <ele>299</ele>
        <time>2022-09-11T07:30:57.118Z</time>
      </trkpt>
      <trkpt lat="44.1321" lon="2.24638">
        <ele>299</ele>
        <time>2022-09-11T07:30:58.118Z</time>
      </trkpt>
      <trkpt lat="44.1321" lon="2.24636">
        <ele>299</ele>
        <time>2022-09-11T07:30:59.118Z</time>
      </trkpt>
      <trkpt lat="44.13211" lon="2.24635">
        <ele>299</ele>
        <time>2022-09-11T07:31:00.118Z</time>
      </trkpt>
      <trkpt lat="44.13211" lon="2.24633">
        <ele>299</ele>
        <time>2022-09-11T07:31:01.118Z</time>
      </trkpt>
      <trkpt lat="44.13211" lon="2.24632">
        <ele>299</ele>
        <time>2022-09-11T07:31:02.118Z</time>
      </trkpt>
      <trkpt lat="44.13211" lon="2.2463">
        <ele>299</ele>
        <time>2022-09-11T07:31:03.118Z</time>
      </trkpt>
      <trkpt lat="44.13211" lon="2.24629">
        <ele>299</ele>
        <time>2022-09-11T07:31:04.118Z</time>
      </trkpt>
      <trkpt lat="44.13211" lon="2.24628">
        <ele>300</ele>
        <time>2022-09-11T07:31:05.118Z</time>
      </trkpt>
      <trkpt lat="44.13211" lon="2.24626">
        <ele>300</ele>
        <time>2022-09-11T07:31:06.118Z</time>
      </trkpt>
      <trkpt lat="44.13211" lon="2.24625">
        <ele>300</ele>
        <time>2022-09-11T07:31:07.118Z</time>
      </trkpt>
      <trkpt lat="44.13211" lon="2.24624">
        <ele>300</ele>
        <time>2022-09-11T07:31:08.118Z</time>
      </trkpt>
      <trkpt lat="44.13212" lon="2.24623">
        <ele>300</ele>
        <time>2022-09-11T07:31:09.118Z</time>
      </trkpt>
      <trkpt lat="44.13212" lon="2.24622">
        <ele>300</ele>
        <time>2022-09-11T07:31:10.118Z</time>
      </trkpt>
      <trkpt lat="44.13212" lon="2.24621">
        <ele>301</ele>
        <time>2022-09-11T07:31:11.118Z</time>
      </trkpt>
      <trkpt lat="44.13212" lon="2.2462">
        <ele>301</ele>
        <time>2022-09-11T07:31:12.118Z</time>
      </trkpt>
      <trkpt lat="44.13212" lon="2.24618">
        <ele>301</ele>
        <time>2022-09-11T07:31:13.118Z</time>
      </trkpt>
      <trkpt lat="44.13213" lon="2.24617">
        <ele>301</ele>
        <time>2022-09-11T07:31:14.118Z</time>
      </trkpt>
      <trkpt lat="44.13213" lon="2.24615">
        <ele>300</ele>
        <time>2022-09-11T07:31:15.118Z</time>
      </trkpt>
      <trkpt lat="44.13213" lon="2.24614">
        <ele>300</ele>
        <time>2022-09-11T07:31:16.118Z</time>
      </trkpt>
      <trkpt lat="44.13213" lon="2.24612">
        <ele>300</ele>
        <time>2022-09-11T07:31:17.118Z</time>
      </trkpt>
      <trkpt lat="44.13213" lon="2.2461">
        <ele>301</ele>
        <time>2022-09-11T07:31:18.118Z</time>
      </trkpt>
      <trkpt lat="44.13213" lon="2.24609">
        <ele>301</ele>
        <time>2022-09-11T07:31:19.118Z</time>
      </trkpt>
      <trkpt lat="44.13213" lon="2.24607">
        <ele>301</ele>
        <time>2022-09-11T07:31:20.118Z</time>
      </trkpt>
      <trkpt lat="44.13213" lon="2.24605">
        <ele>301</ele>
        <time>2022-09-11T07:31:21.118Z</time>
      </trkpt>
      <trkpt lat="44.13212" lon="2.24603">
        <ele>301</ele>
        <time>2022-09-11T07:31:22.118Z</time>
      </trkpt>
      <trkpt lat="44.13212" lon="2.24602">
        <ele>301</ele>
        <time>2022-09-11T07:31:23.118Z</time>
      </trkpt>
      <trkpt lat="44.13211" lon="2.24601">
        <ele>301</ele>
        <time>2022-09-11T07:31:24.118Z</time>
      </trkpt>
      <trkpt lat="44.13211" lon="2.24599">
        <ele>301</ele>
        <time>2022-09-11T07:31:25.118Z</time>
      </trkpt>
      <trkpt lat="44.1321" lon="2.24598">
        <ele>301</ele>
        <time>2022-09-11T07:31:26.118Z</time>
      </trkpt>
      <trkpt lat="44.1321" lon="2.24596">
        <ele>301</ele>
        <time>2022-09-11T07:31:27.118Z</time>
      </trkpt>
      <trkpt lat="44.13209" lon="2.24594">
        <ele>301</ele>
        <time>2022-09-11T07:31:28.118Z</time>
      </trkpt>
      <trkpt lat="44.13209" lon="2.24593">
        <ele>301</ele>
        <time>2022-09-11T07:31:29.118Z</time>
      </trkpt>
      <trkpt lat="44.13208" lon="2.24592">
        <ele>301</ele>
        <time>2022-09-11T07:31:30.118Z</time>
      </trkpt>
      <trkpt lat="44.13208" lon="2.2459">
        <ele>301</ele>
        <time>2022-09-11T07:31:31.118Z</time>
      </trkpt>
      <trkpt lat="44.13207" lon="2.24589">
        <ele>301</ele>
        <time>2022-09-11T07:31:32.118Z</time>
      </trkpt>
      <trkpt lat="44.13207" lon="2.24587">
        <ele>301</ele>
        <time>2022-09-11T07:31:33.118Z</time>
      </trkpt>
      <trkpt lat="44.13206" lon="2.24586">
        <ele>301</ele>
        <time>2022-09-11T07:31:34.118Z</time>
      </trkpt>
      <trkpt lat="44.13206" lon="2.24585">
        <ele>302</ele>
        <time>2022-09-11T07:31:35.118Z</time>
      </trkpt>
      <trkpt lat="44.13206" lon="2.24583">
        <ele>302</ele>
        <time>2022-09-11T07:31:36.118Z</time>
      </trkpt>
      <trkpt lat="44.13206" lon="2.24582">
        <ele>302</ele>
        <time>2022-09-11T07:31:37.118Z</time>
      </trkpt>
      <trkpt lat="44.13206" lon="2.24581">
        <ele>302</ele>
        <time>2022-09-11T07:31:38.118Z</time>
      </trkpt>
      <trkpt lat="44.13205" lon="2.2458">
        <ele>302</ele>
        <time>2022-09-11T07:31:39.118Z</time>
      </trkpt>
      <trkpt lat="44.13205" lon="2.24579">
        <ele>302</ele>
        <time>2022-09-11T07:31:40.118Z</time>
      </trkpt>
      <trkpt lat="44.13205" lon="2.24578">
        <ele>302</ele>
        <time>2022-09-11T07:31:41.118Z</time>
      </trkpt>
      <trkpt lat="44.13205" lon="2.24577">
        <ele>303</ele>
        <time>2022-09-11T07:31:42.118Z</time>
      </trkpt>
      <trkpt lat="44.13205" lon="2.24576">
        <ele>303</ele>
        <time>2022-09-11T07:31:43.118Z</time>
      </trkpt>
      <trkpt lat="44.13205" lon="2.24572">
        <ele>304</ele>
        <time>2022-09-11T07:31:49.126Z</time>
      </trkpt>
      <trkpt lat="44.13204" lon="2.24571">
        <ele>304</ele>
        <time>2022-09-11T07:31:50.126Z</time>
      </trkpt>
      <trkpt lat="44.13204" lon="2.2457">
        <ele>304</ele>
        <time>2022-09-11T07:31:51.126Z</time>
      </trkpt>
      <trkpt lat="44.13204" lon="2.24568">
        <ele>304</ele>
        <time>2022-09-11T07:31:52.126Z</time>
      </trkpt>
      <trkpt lat="44.13204" lon="2.24567">
        <ele>304</ele>
        <time>2022-09-11T07:31:53.126Z</time>
      </trkpt>
      <trkpt lat="44.13204" lon="2.24566">
        <ele>304</ele>
        <time>2022-09-11T07:31:54.126Z</time>
      </trkpt>
      <trkpt lat="44.13204" lon="2.24566">
        <ele>304</ele>
        <time>2022-09-11T07:31:55.126Z</time>
      </trkpt>
      <trkpt lat="44.13204" lon="2.24565">
        <ele>304</ele>
        <time>2022-09-11T07:31:56.126Z</time>
      </trkpt>
      <trkpt lat="44.13204" lon="2.24565">
        <ele>304</ele>
        <time>2022-09-11T07:31:57.126Z</time>
      </trkpt>
      <trkpt lat="44.13204" lon="2.24564">
        <ele>304</ele>
        <time>2022-09-11T07:31:58.126Z</time>
      </trkpt>
      <trkpt lat="44.13202" lon="2.24564">
        <ele>304</ele>
        <time>2022-09-11T07:32:41.133Z</time>
      </trkpt>
      <trkpt lat="44.13202" lon="2.24565">
        <ele>304</ele>
        <time>2022-09-11T07:32:42.133Z</time>
      </trkpt>
      <trkpt lat="44.13202" lon="2.24566">
        <ele>304</ele>
        <time>2022-09-11T07:32:43.133Z</time>
      </trkpt>
      <trkpt lat="44.13203" lon="2.24568">
        <ele>304</ele>
        <time>2022-09-11T07:32:44.133Z</time>
      </trkpt>
      <trkpt lat="44.13203" lon="2.24569">
        <ele>304</ele>
        <time>2022-09-11T07:32:45.133Z</time>
      </trkpt>
      <trkpt lat="44.13203" lon="2.2457">
        <ele>304</ele>
        <time>2022-09-11T07:32:46.133Z</time>
      </trkpt>
      <trkpt lat="44.13204" lon="2.24572">
        <ele>305</ele>
        <time>2022-09-11T07:32:47.133Z</time>
      </trkpt>
      <trkpt lat="44.13204" lon="2.24573">
        <ele>305</ele>
        <time>2022-09-11T07:32:48.133Z</time>
      </trkpt>
      <trkpt lat="44.13204" lon="2.24574">
        <ele>305</ele>
        <time>2022-09-11T07:32:49.133Z</time>
      </trkpt>
      <trkpt lat="44.13205" lon="2.24575">
        <ele>305</ele>
        <time>2022-09-11T07:32:50.133Z</time>
      </trkpt>
      <trkpt lat="44.13205" lon="2.24576">
        <ele>305</ele>
        <time>2022-09-11T07:32:51.133Z</time>
      </trkpt>
      <trkpt lat="44.13206" lon="2.24577">
        <ele>305</ele>
        <time>2022-09-11T07:32:52.133Z</time>
      </trkpt>
      <trkpt lat="44.13206" lon="2.24579">
        <ele>305</ele>
        <time>2022-09-11T07:32:53.133Z</time>
      </trkpt>
      <trkpt lat="44.13207" lon="2.24581">
        <ele>305</ele>
        <time>2022-09-11T07:32:54.133Z</time>
      </trkpt>
      <trkpt lat="44.13207" lon="2.24582">
        <ele>305</ele>
        <time>2022-09-11T07:32:55.133Z</time>
      </trkpt>
      <trkpt lat="44.13208" lon="2.24584">
        <ele>306</ele>
        <time>2022-09-11T07:32:56.133Z</time>
      </trkpt>
      <trkpt lat="44.13208" lon="2.24586">
        <ele>306</ele>
        <time>2022-09-11T07:32:57.133Z</time>
      </trkpt>
      <trkpt lat="44.13209" lon="2.24587">
        <ele>306</ele>
        <time>2022-09-11T07:32:58.133Z</time>
      </trkpt>
      <trkpt lat="44.13209" lon="2.24588">
        <ele>306</ele>
        <time>2022-09-11T07:32:59.133Z</time>
      </trkpt>
      <trkpt lat="44.13209" lon="2.24588">
        <ele>306</ele>
        <time>2022-09-11T07:33:00.133Z</time>
      </trkpt>
      <trkpt lat="44.13209" lon="2.24588">
        <ele>306</ele>
        <time>2022-09-11T07:33:01.133Z</time>
      </trkpt>
      <trkpt lat="44.1321" lon="2.24588">
        <ele>306</ele>
        <time>2022-09-11T07:33:02.133Z</time>
      </trkpt>
      <trkpt lat="44.13211" lon="2.24589">
        <ele>307</ele>
        <time>2022-09-11T07:33:07.138Z</time>
      </trkpt>
      <trkpt lat="44.13211" lon="2.2459">
        <ele>307</ele>
        <time>2022-09-11T07:33:08.138Z</time>
      </trkpt>
      <trkpt lat="44.13212" lon="2.24591">
        <ele>307</ele>
        <time>2022-09-11T07:33:09.138Z</time>
      </trkpt>
      <trkpt lat="44.13213" lon="2.24592">
        <ele>307</ele>
        <time>2022-09-11T07:33:10.138Z</time>
      </trkpt>
      <trkpt lat="44.13213" lon="2.24594">
        <ele>307</ele>
        <time>2022-09-11T07:33:11.138Z</time>
      </trkpt>
      <trkpt lat="44.13214" lon="2.24595">
        <ele>307</ele>
        <time>2022-09-11T07:33:12.138Z</time>
      </trkpt>
      <trkpt lat="44.13214" lon="2.24597">
        <ele>307</ele>
        <time>2022-09-11T07:33:13.138Z</time>
      </trkpt>
      <trkpt lat="44.13215" lon="2.24599">
        <ele>307</ele>
        <time>2022-09-11T07:33:14.138Z</time>
      </trkpt>
      <trkpt lat="44.13215" lon="2.24601">
        <ele>307</ele>
        <time>2022-09-11T07:33:15.138Z</time>
      </trkpt>
      <trkpt lat="44.13215" lon="2.24603">
        <ele>307</ele>
        <time>2022-09-11T07:33:16.138Z</time>
      </trkpt>
      <trkpt lat="44.13215" lon="2.24605">
        <ele>307</ele>
        <time>2022-09-11T07:33:17.138Z</time>
      </trkpt>
      <trkpt lat="44.13215" lon="2.24607">
        <ele>307</ele>
        <time>2022-09-11T07:33:18.138Z</time>
      </trkpt>
      <trkpt lat="44.13215" lon="2.24609">
        <ele>307</ele>
        <time>2022-09-11T07:33:19.138Z</time>
      </trkpt>
      <trkpt lat="44.13215" lon="2.2461">
        <ele>307</ele>
        <time>2022-09-11T07:33:20.138Z</time>
      </trkpt>
      <trkpt lat="44.13214" lon="2.24612">
        <ele>307</ele>
        <time>2022-09-11T07:33:21.138Z</time>
      </trkpt>
      <trkpt lat="44.13214" lon="2.24614">
        <ele>306</ele>
        <time>2022-09-11T07:33:22.138Z</time>
      </trkpt>
      <trkpt lat="44.13214" lon="2.24616">
        <ele>306</ele>
        <time>2022-09-11T07:33:23.138Z</time>
      </trkpt>
      <trkpt lat="44.13214" lon="2.24617">
        <ele>306</ele>
        <time>2022-09-11T07:33:24.138Z</time>
      </trkpt>
      <trkpt lat="44.13214" lon="2.24619">
        <ele>306</ele>
        <time>2022-09-11T07:33:25.138Z</time>
      </trkpt>
      <trkpt lat="44.13214" lon="2.2462">
        <ele>306</ele>
        <time>2022-09-11T07:33:26.138Z</time>
      </trkpt>
      <trkpt lat="44.13214" lon="2.24622">
        <ele>306</ele>
        <time>2022-09-11T07:33:27.138Z</time>
      </trkpt>
      <trkpt lat="44.13214" lon="2.24624">
        <ele>306</ele>
        <time>2022-09-11T07:33:28.138Z</time>
      </trkpt>
      <trkpt lat="44.13214" lon="2.24626">
        <ele>306</ele>
        <time>2022-09-11T07:33:29.138Z</time>
      </trkpt>
      <trkpt lat="44.13214" lon="2.24628">
        <ele>306</ele>
        <time>2022-09-11T07:33:30.138Z</time>
      </trkpt>
      <trkpt lat="44.13215" lon="2.2463">
        <ele>306</ele>
        <time>2022-09-11T07:33:31.138Z</time>
      </trkpt>
      <trkpt lat="44.13215" lon="2.24632">
        <ele>306</ele>
        <time>2022-09-11T07:33:32.138Z</time>
      </trkpt>
      <trkpt lat="44.13215" lon="2.24634">
        <ele>306</ele>
        <time>2022-09-11T07:33:33.138Z</time>
      </trkpt>
      <trkpt lat="44.13215" lon="2.24636">
        <ele>306</ele>
        <time>2022-09-11T07:33:34.138Z</time>
      </trkpt>
      <trkpt lat="44.13215" lon="2.24637">
        <ele>306</ele>
        <time>2022-09-11T07:33:35.138Z</time>
      </trkpt>
      <trkpt lat="44.13215" lon="2.24639">
        <ele>306</ele>
        <time>2022-09-11T07:33:36.138Z</time>
      </trkpt>
      <trkpt lat="44.13216" lon="2.24641">
        <ele>306</ele>
        <time>2022-09-11T07:33:37.138Z</time>
      </trkpt>
      <trkpt lat="44.13216" lon="2.24643">
        <ele>306</ele>
        <time>2022-09-11T07:33:38.138Z</time>
      </trkpt>
      <trkpt lat="44.13217" lon="2.24645">
        <ele>306</ele>
        <time>2022-09-11T07:33:39.138Z</time>
      </trkpt>
      <trkpt lat="44.13218" lon="2.24646">
        <ele>306</ele>
        <time>2022-09-11T07:33:40.138Z</time>
      </trkpt>
      <trkpt lat="44.13219" lon="2.24648">
        <ele>307</ele>
        <time>2022-09-11T07:33:41.138Z</time>
      </trkpt>
      <trkpt lat="44.13219" lon="2.24649">
        <ele>307</ele>
        <time>2022-09-11T07:33:42.138Z</time>
      </trkpt>
      <trkpt lat="44.1322" lon="2.24651">
        <ele>307</ele>
        <time>2022-09-11T07:33:43.138Z</time>
      </trkpt>
      <trkpt lat="44.13221" lon="2.24652">
        <ele>307</ele>
        <time>2022-09-11T07:33:44.138Z</time>
      </trkpt>
      <trkpt lat="44.13221" lon="2.24653">
        <ele>307</ele>
        <time>2022-09-11T07:33:45.138Z</time>
      </trkpt>
      <trkpt lat="44.13222" lon="2.24654">
        <ele>307</ele>
        <time>2022-09-11T07:33:46.138Z</time>
      </trkpt>
      <trkpt lat="44.13222" lon="2.24655">
        <ele>307</ele>
        <time>2022-09-11T07:33:47.138Z</time>
      </trkpt>
      <trkpt lat="44.13223" lon="2.24656">
        <ele>307</ele>
        <time>2022-09-11T07:33:48.138Z</time>
      </trkpt>
      <trkpt lat="44.13224" lon="2.24657">
        <ele>307</ele>
        <time>2022-09-11T07:33:49.138Z</time>
      </trkpt>
      <trkpt lat="44.13224" lon="2.24658">
        <ele>307</ele>
        <time>2022-09-11T07:33:50.138Z</time>
      </trkpt>
      <trkpt lat="44.13225" lon="2.24659">
        <ele>307</ele>
        <time>2022-09-11T07:33:51.138Z</time>
      </trkpt>
      <trkpt lat="44.13225" lon="2.2466">
        <ele>307</ele>
        <time>2022-09-11T07:33:52.138Z</time>
      </trkpt>
      <trkpt lat="44.13226" lon="2.24661">
        <ele>307</ele>
        <time>2022-09-11T07:33:53.138Z</time>
      </trkpt>
      <trkpt lat="44.13226" lon="2.24662">
        <ele>307</ele>
        <time>2022-09-11T07:33:54.138Z</time>
      </trkpt>
      <trkpt lat="44.13227" lon="2.24663">
        <ele>307</ele>
        <time>2022-09-11T07:33:55.138Z</time>
      </trkpt>
      <trkpt lat="44.13227" lon="2.24664">
        <ele>307</ele>
        <time>2022-09-11T07:33:56.138Z</time>
      </trkpt>
      <trkpt lat="44.13228" lon="2.24665">
        <ele>307</ele>
        <time>2022-09-11T07:33:57.138Z</time>
      </trkpt>
      <trkpt lat="44.13229" lon="2.24666">
        <ele>307</ele>
        <time>2022-09-11T07:33:58.138Z</time>
      </trkpt>
      <trkpt lat="44.13229" lon="2.24668">
        <ele>307</ele>
        <time>2022-09-11T07:33:59.138Z</time>
      </trkpt>
      <trkpt lat="44.1323" lon="2.24669">
        <ele>307</ele>
        <time>2022-09-11T07:34:00.138Z</time>
      </trkpt>
      <trkpt lat="44.1323" lon="2.2467">
        <ele>306</ele>
        <time>2022-09-11T07:34:01.138Z</time>
      </trkpt>
      <trkpt lat="44.13231" lon="2.24671">
        <ele>306</ele>
        <time>2022-09-11T07:34:02.138Z</time>
      </trkpt>
      <trkpt lat="44.13231" lon="2.24673">
        <ele>306</ele>
        <time>2022-09-11T07:34:03.138Z</time>
      </trkpt>
      <trkpt lat="44.13231" lon="2.24674">
        <ele>306</ele>
        <time>2022-09-11T07:34:04.138Z</time>
      </trkpt>
      <trkpt lat="44.13232" lon="2.24675">
        <ele>306</ele>
        <time>2022-09-11T07:34:05.138Z</time>
      </trkpt>
      <trkpt lat="44.13232" lon="2.24676">
        <ele>305</ele>
        <time>2022-09-11T07:34:06.138Z</time>
      </trkpt>
      <trkpt lat="44.13233" lon="2.24678">
        <ele>305</ele>
        <time>2022-09-11T07:34:07.138Z</time>
      </trkpt>
      <trkpt lat="44.13233" lon="2.24679">
        <ele>305</ele>
        <time>2022-09-11T07:34:08.138Z</time>
      </trkpt>
      <trkpt lat="44.13234" lon="2.2468">
        <ele>305</ele>
        <time>2022-09-11T07:34:09.138Z</time>
      </trkpt>
      <trkpt lat="44.13234" lon="2.24682">
        <ele>305</ele>
        <time>2022-09-11T07:34:10.138Z</time>
      </trkpt>
      <trkpt lat="44.13235" lon="2.24683">
        <ele>305</ele>
        <time>2022-09-11T07:34:11.138Z</time>
      </trkpt>
      <trkpt lat="44.13235" lon="2.24684">
        <ele>305</ele>
        <time>2022-09-11T07:34:12.138Z</time>
      </trkpt>
      <trkpt lat="44.13236" lon="2.24685">
        <ele>304</ele>
        <time>2022-09-11T07:34:13.138Z</time>
      </trkpt>
      <trkpt lat="44.13237" lon="2.24686">
        <ele>304</ele>
        <time>2022-09-11T07:34:14.138Z</time>
      </trkpt>
      <trkpt lat="44.13238" lon="2.24687">
        <ele>304</ele>
        <time>2022-09-11T07:34:15.138Z</time>
      </trkpt>
      <trkpt lat="44.13238" lon="2.24688">
        <ele>304</ele>
        <time>2022-09-11T07:34:16.138Z</time>
      </trkpt>
      <trkpt lat="44.13238" lon="2.2469">
        <ele>304</ele>
        <time>2022-09-11T07:34:17.138Z</time>
      </trkpt>
      <trkpt lat="44.13239" lon="2.24691">
        <ele>303</ele>
        <time>2022-09-11T07:34:18.138Z</time>
      </trkpt>
      <trkpt lat="44.13239" lon="2.24693">
        <ele>303</ele>
        <time>2022-09-11T07:34:19.138Z</time>
      </trkpt>
      <trkpt lat="44.13238" lon="2.24695">
        <ele>303</ele>
        <time>2022-09-11T07:34:20.138Z</time>
      </trkpt>
      <trkpt lat="44.13238" lon="2.24696">
        <ele>302</ele>
        <time>2022-09-11T07:34:21.138Z</time>
      </trkpt>
      <trkpt lat="44.13237" lon="2.24697">
        <ele>302</ele>
        <time>2022-09-11T07:34:22.138Z</time>
      </trkpt>
      <trkpt lat="44.13235" lon="2.24698">
        <ele>302</ele>
        <time>2022-09-11T07:34:23.138Z</time>
      </trkpt>
      <trkpt lat="44.13234" lon="2.24699">
        <ele>301</ele>
        <time>2022-09-11T07:34:24.138Z</time>
      </trkpt>
      <trkpt lat="44.13233" lon="2.247">
        <ele>301</ele>
        <time>2022-09-11T07:34:25.138Z</time>
      </trkpt>
      <trkpt lat="44.13232" lon="2.24702">
        <ele>301</ele>
        <time>2022-09-11T07:34:26.138Z</time>
      </trkpt>
      <trkpt lat="44.13231" lon="2.24703">
        <ele>301</ele>
        <time>2022-09-11T07:34:27.138Z</time>
      </trkpt>
      <trkpt lat="44.1323" lon="2.24704">
        <ele>300</ele>
        <time>2022-09-11T07:34:28.138Z</time>
      </trkpt>
      <trkpt lat="44.1323" lon="2.24705">
        <ele>300</ele>
        <time>2022-09-11T07:34:29.138Z</time>
      </trkpt>
      <trkpt lat="44.13229" lon="2.24707">
        <ele>300</ele>
        <time>2022-09-11T07:34:30.138Z</time>
      </trkpt>
      <trkpt lat="44.13229" lon="2.24708">
        <ele>300</ele>
        <time>2022-09-11T07:34:31.138Z</time>
      </trkpt>
      <trkpt lat="44.13228" lon="2.2471">
        <ele>299</ele>
        <time>2022-09-11T07:34:32.138Z</time>
      </trkpt>
      <trkpt lat="44.13228" lon="2.24712">
        <ele>299</ele>
        <time>2022-09-11T07:34:33.138Z</time>
      </trkpt>
      <trkpt lat="44.13227" lon="2.24713">
        <ele>299</ele>
        <time>2022-09-11T07:34:34.138Z</time>
      </trkpt>
      <trkpt lat="44.13227" lon="2.24715">
        <ele>299</ele>
        <time>2022-09-11T07:34:35.138Z</time>
      </trkpt>
      <trkpt lat="44.13227" lon="2.24717">
        <ele>299</ele>
        <time>2022-09-11T07:34:36.138Z</time>
      </trkpt>
      <trkpt lat="44.13227" lon="2.24718">
        <ele>299</ele>
        <time>2022-09-11T07:34:37.138Z</time>
      </trkpt>
      <trkpt lat="44.13227" lon="2.2472">
        <ele>298</ele>
        <time>2022-09-11T07:34:38.138Z</time>
      </trkpt>
      <trkpt lat="44.13228" lon="2.24722">
        <ele>298</ele>
        <time>2022-09-11T07:34:39.138Z</time>
      </trkpt>
      <trkpt lat="44.13228" lon="2.24723">
        <ele>298</ele>
        <time>2022-09-11T07:34:40.138Z</time>
      </trkpt>
      <trkpt lat="44.13229" lon="2.24725">
        <ele>298</ele>
        <time>2022-09-11T07:34:41.138Z</time>
      </trkpt>
      <trkpt lat="44.13229" lon="2.24726">
        <ele>298</ele>
        <time>2022-09-11T07:34:42.138Z</time>
      </trkpt>
      <trkpt lat="44.1323" lon="2.24727">
        <ele>298</ele>
        <time>2022-09-11T07:34:43.138Z</time>
      </trkpt>
      <trkpt lat="44.13231" lon="2.24727">
        <ele>297</ele>
        <time>2022-09-11T07:34:44.138Z</time>
      </trkpt>
      <trkpt lat="44.13231" lon="2.24728">
        <ele>297</ele>
        <time>2022-09-11T07:34:45.138Z</time>
      </trkpt>
      <trkpt lat="44.13232" lon="2.24727">
        <ele>297</ele>
        <time>2022-09-11T07:34:46.138Z</time>
      </trkpt>
      <trkpt lat="44.13232" lon="2.24727">
        <ele>297</ele>
        <time>2022-09-11T07:34:47.138Z</time>
      </trkpt>
      <trkpt lat="44.13232" lon="2.24726">
        <ele>297</ele>
        <time>2022-09-11T07:34:48.138Z</time>
      </trkpt>
      <trkpt lat="44.13232" lon="2.24726">
        <ele>296</ele>
        <time>2022-09-11T07:34:49.138Z</time>
      </trkpt>
      <trkpt lat="44.13233" lon="2.24726">
        <ele>296</ele>
        <time>2022-09-11T07:34:50.138Z</time>
      </trkpt>
      <trkpt lat="44.13233" lon="2.24725">
        <ele>296</ele>
        <time>2022-09-11T07:34:51.138Z</time>
      </trkpt>
      <trkpt lat="44.13234" lon="2.24723">
        <ele>295</ele>
        <time>2022-09-11T07:34:56.148Z</time>
      </trkpt>
      <trkpt lat="44.13234" lon="2.24722">
        <ele>294</ele>
        <time>2022-09-11T07:34:57.148Z</time>
      </trkpt>
      <trkpt lat="44.13234" lon="2.24721">
        <ele>294</ele>
        <time>2022-09-11T07:34:58.148Z</time>
      </trkpt>
      <trkpt lat="44.13235" lon="2.2472">
        <ele>294</ele>
        <time>2022-09-11T07:34:59.148Z</time>
      </trkpt>
      <trkpt lat="44.13235" lon="2.24719">
        <ele>294</ele>
        <time>2022-09-11T07:35:00.148Z</time>
      </trkpt>
      <trkpt lat="44.13236" lon="2.24718">
        <ele>294</ele>
        <time>2022-09-11T07:35:01.148Z</time>
      </trkpt>
      <trkpt lat="44.13237" lon="2.24716">
        <ele>293</ele>
        <time>2022-09-11T07:35:02.148Z</time>
      </trkpt>
      <trkpt lat="44.13237" lon="2.24716">
        <ele>293</ele>
        <time>2022-09-11T07:35:03.148Z</time>
      </trkpt>
      <trkpt lat="44.13238" lon="2.24715">
        <ele>293</ele>
        <time>2022-09-11T07:35:04.148Z</time>
      </trkpt>
      <trkpt lat="44.13238" lon="2.24714">
        <ele>293</ele>
        <time>2022-09-11T07:35:05.148Z</time>
      </trkpt>
      <trkpt lat="44.13239" lon="2.24713">
        <ele>292</ele>
        <time>2022-09-11T07:35:06.148Z</time>
      </trkpt>
      <trkpt lat="44.1324" lon="2.24712">
        <ele>292</ele>
        <time>2022-09-11T07:35:07.148Z</time>
      </trkpt>
      <trkpt lat="44.13241" lon="2.24711">
        <ele>292</ele>
        <time>2022-09-11T07:35:08.148Z</time>
      </trkpt>
      <trkpt lat="44.13242" lon="2.24711">
        <ele>292</ele>
        <time>2022-09-11T07:35:09.148Z</time>
      </trkpt>
      <trkpt lat="44.13242" lon="2.2471">
        <ele>291</ele>
        <time>2022-09-11T07:35:10.148Z</time>
      </trkpt>
      <trkpt lat="44.13243" lon="2.2471">
        <ele>291</ele>
        <time>2022-09-11T07:35:11.148Z</time>
      </trkpt>
      <trkpt lat="44.13244" lon="2.24709">
        <ele>291</ele>
        <time>2022-09-11T07:35:12.148Z</time>
      </trkpt>
      <trkpt lat="44.13244" lon="2.24708">
        <ele>290</ele>
        <time>2022-09-11T07:35:13.148Z</time>
      </trkpt>
      <trkpt lat="44.13245" lon="2.24708">
        <ele>290</ele>
        <time>2022-09-11T07:35:14.148Z</time>
      </trkpt>
      <trkpt lat="44.13245" lon="2.24707">
        <ele>290</ele>
        <time>2022-09-11T07:35:15.148Z</time>
      </trkpt>
      <trkpt lat="44.13245" lon="2.24705">
        <ele>290</ele>
        <time>2022-09-11T07:35:16.148Z</time>
      </trkpt>
      <trkpt lat="44.13245" lon="2.24704">
        <ele>290</ele>
        <time>2022-09-11T07:35:17.148Z</time>
      </trkpt>
      <trkpt lat="44.13245" lon="2.24703">
        <ele>289</ele>
        <time>2022-09-11T07:35:18.148Z</time>
      </trkpt>
      <trkpt lat="44.13245" lon="2.24701">
        <ele>289</ele>
        <time>2022-09-11T07:35:19.148Z</time>
      </trkpt>
      <trkpt lat="44.13245" lon="2.247">
        <ele>289</ele>
        <time>2022-09-11T07:35:20.148Z</time>
      </trkpt>
      <trkpt lat="44.13245" lon="2.24698">
        <ele>289</ele>
        <time>2022-09-11T07:35:21.148Z</time>
      </trkpt>
      <trkpt lat="44.13245" lon="2.24697">
        <ele>288</ele>
        <time>2022-09-11T07:35:22.148Z</time>
      </trkpt>
      <trkpt lat="44.13245" lon="2.24695">
        <ele>288</ele>
        <time>2022-09-11T07:35:23.148Z</time>
      </trkpt>
      <trkpt lat="44.13244" lon="2.24694">
        <ele>288</ele>
        <time>2022-09-11T07:35:24.148Z</time>
      </trkpt>
      <trkpt lat="44.13244" lon="2.24692">
        <ele>288</ele>
        <time>2022-09-11T07:35:25.148Z</time>
      </trkpt>
      <trkpt lat="44.13245" lon="2.24691">
        <ele>287</ele>
        <time>2022-09-11T07:35:26.148Z</time>
      </trkpt>
      <trkpt lat="44.13245" lon="2.24689">
        <ele>287</ele>
        <time>2022-09-11T07:35:27.148Z</time>
      </trkpt>
      <trkpt lat="44.13245" lon="2.24688">
        <ele>287</ele>
        <time>2022-09-11T07:35:28.148Z</time>
      </trkpt>
      <trkpt lat="44.13244" lon="2.24687">
        <ele>287</ele>
        <time>2022-09-11T07:35:29.148Z</time>
      </trkpt>
      <trkpt lat="44.13244" lon="2.24686">
        <ele>287</ele>
        <time>2022-09-11T07:35:30.148Z</time>
      </trkpt>
      <trkpt lat="44.13244" lon="2.24686">
        <ele>286</ele>
        <time>2022-09-11T07:35:31.148Z</time>
      </trkpt>
      <trkpt lat="44.13244" lon="2.24685">
        <ele>286</ele>
        <time>2022-09-11T07:35:32.148Z</time>
      </trkpt>
      <trkpt lat="44.13243" lon="2.24684">
        <ele>286</ele>
        <time>2022-09-11T07:35:33.148Z</time>
      </trkpt>
      <trkpt lat="44.13243" lon="2.24682">
        <ele>286</ele>
        <time>2022-09-11T07:35:36.404Z</time>
      </trkpt>
      <trkpt lat="44.13243" lon="2.2468">
        <ele>285</ele>
        <time>2022-09-11T07:35:37.404Z</time>
      </trkpt>
      <trkpt lat="44.13243" lon="2.24679">
        <ele>285</ele>
        <time>2022-09-11T07:35:38.404Z</time>
      </trkpt>
      <trkpt lat="44.13243" lon="2.24678">
        <ele>285</ele>
        <time>2022-09-11T07:35:39.404Z</time>
      </trkpt>
      <trkpt lat="44.13243" lon="2.24676">
        <ele>285</ele>
        <time>2022-09-11T07:35:40.404Z</time>
      </trkpt>
      <trkpt lat="44.13244" lon="2.24675">
        <ele>285</ele>
        <time>2022-09-11T07:35:41.404Z</time>
      </trkpt>
      <trkpt lat="44.13244" lon="2.24675">
        <ele>285</ele>
        <time>2022-09-11T07:35:42.404Z</time>
      </trkpt>
      <trkpt lat="44.13245" lon="2.24674">
        <ele>285</ele>
        <time>2022-09-11T07:35:43.404Z</time>
      </trkpt>
      <trkpt lat="44.13245" lon="2.24673">
        <ele>285</ele>
        <time>2022-09-11T07:35:44.404Z</time>
      </trkpt>
      <trkpt lat="44.13245" lon="2.24671">
        <ele>284</ele>
        <time>2022-09-11T07:35:45.404Z</time>
      </trkpt>
      <trkpt lat="44.13245" lon="2.2467">
        <ele>284</ele>
        <time>2022-09-11T07:35:46.404Z</time>
      </trkpt>
      <trkpt lat="44.13245" lon="2.24669">
        <ele>284</ele>
        <time>2022-09-11T07:35:47.404Z</time>
      </trkpt>
      <trkpt lat="44.13245" lon="2.24668">
        <ele>284</ele>
        <time>2022-09-11T07:35:48.404Z</time>
      </trkpt>
      <trkpt lat="44.13246" lon="2.24666">
        <ele>284</ele>
        <time>2022-09-11T07:35:49.404Z</time>
      </trkpt>
      <trkpt lat="44.13246" lon="2.24665">
        <ele>284</ele>
        <time>2022-09-11T07:35:50.404Z</time>
      </trkpt>
      <trkpt lat="44.13245" lon="2.24664">
        <ele>283</ele>
        <time>2022-09-11T07:35:51.404Z</time>
      </trkpt>
      <trkpt lat="44.13245" lon="2.24663">
        <ele>283</ele>
        <time>2022-09-11T07:35:52.404Z</time>
      </trkpt>
      <trkpt lat="44.13245" lon="2.24662">
        <ele>283</ele>
        <time>2022-09-11T07:35:53.404Z</time>
      </trkpt>
      <trkpt lat="44.13245" lon="2.2466">
        <ele>283</ele>
        <time>2022-09-11T07:35:54.404Z</time>
      </trkpt>
      <trkpt lat="44.13245" lon="2.24659">
        <ele>283</ele>
        <time>2022-09-11T07:35:55.404Z</time>
      </trkpt>
      <trkpt lat="44.13245" lon="2.24658">
        <ele>282</ele>
        <time>2022-09-11T07:35:56.404Z</time>
      </trkpt>
      <trkpt lat="44.13245" lon="2.24657">
        <ele>282</ele>
        <time>2022-09-11T07:35:57.404Z</time>
      </trkpt>
      <trkpt lat="44.13245" lon="2.24656">
        <ele>282</ele>
        <time>2022-09-11T07:35:58.404Z</time>
      </trkpt>
      <trkpt lat="44.13245" lon="2.24655">
        <ele>281</ele>
        <time>2022-09-11T07:35:59.404Z</time>
      </trkpt>
      <trkpt lat="44.13245" lon="2.24654">
        <ele>281</ele>
        <time>2022-09-11T07:36:00.404Z</time>
      </trkpt>
      <trkpt lat="44.13245" lon="2.24653">
        <ele>281</ele>
        <time>2022-09-11T07:36:01.404Z</time>
      </trkpt>
      <trkpt lat="44.13246" lon="2.24652">
        <ele>281</ele>
        <time>2022-09-11T07:36:02.404Z</time>
      </trkpt>
      <trkpt lat="44.13246" lon="2.2465">
        <ele>280</ele>
        <time>2022-09-11T07:36:03.404Z</time>
      </trkpt>
      <trkpt lat="44.13246" lon="2.24649">
        <ele>280</ele>
        <time>2022-09-11T07:36:04.404Z</time>
      </trkpt>
      <trkpt lat="44.13246" lon="2.24647">
        <ele>280</ele>
        <time>2022-09-11T07:36:05.404Z</time>
      </trkpt>
      <trkpt lat="44.13246" lon="2.24646">
        <ele>280</ele>
        <time>2022-09-11T07:36:06.404Z</time>
      </trkpt>
      <trkpt lat="44.13247" lon="2.24645">
        <ele>279</ele>
        <time>2022-09-11T07:36:07.404Z</time>
      </trkpt>
      <trkpt lat="44.13247" lon="2.24643">
        <ele>279</ele>
        <time>2022-09-11T07:36:08.404Z</time>
      </trkpt>
      <trkpt lat="44.13248" lon="2.24641">
        <ele>279</ele>
        <time>2022-09-11T07:36:09.404Z</time>
      </trkpt>
      <trkpt lat="44.13248" lon="2.2464">
        <ele>278</ele>
        <time>2022-09-11T07:36:10.404Z</time>
      </trkpt>
      <trkpt lat="44.13248" lon="2.24638">
        <ele>278</ele>
        <time>2022-09-11T07:36:11.404Z</time>
      </trkpt>
      <trkpt lat="44.13249" lon="2.24636">
        <ele>278</ele>
        <time>2022-09-11T07:36:12.404Z</time>
      </trkpt>
      <trkpt lat="44.13249" lon="2.24634">
        <ele>278</ele>
        <time>2022-09-11T07:36:13.404Z</time>
      </trkpt>
      <trkpt lat="44.13249" lon="2.24633">
        <ele>278</ele>
        <time>2022-09-11T07:36:14.404Z</time>
      </trkpt>
      <trkpt lat="44.13249" lon="2.24632">
        <ele>277</ele>
        <time>2022-09-11T07:36:15.404Z</time>
      </trkpt>
      <trkpt lat="44.1325" lon="2.24631">
        <ele>277</ele>
        <time>2022-09-11T07:36:16.404Z</time>
      </trkpt>
      <trkpt lat="44.1325" lon="2.24629">
        <ele>277</ele>
        <time>2022-09-11T07:36:17.404Z</time>
      </trkpt>
      <trkpt lat="44.1325" lon="2.24627">
        <ele>276</ele>
        <time>2022-09-11T07:36:18.404Z</time>
      </trkpt>
      <trkpt lat="44.1325" lon="2.24625">
        <ele>276</ele>
        <time>2022-09-11T07:36:19.404Z</time>
      </trkpt>
      <trkpt lat="44.1325" lon="2.24624">
        <ele>276</ele>
        <time>2022-09-11T07:36:20.404Z</time>
      </trkpt>
      <trkpt lat="44.1325" lon="2.24622">
        <ele>276</ele>
        <time>2022-09-11T07:36:21.404Z</time>
      </trkpt>
      <trkpt lat="44.1325" lon="2.24622">
        <ele>276</ele>
        <time>2022-09-11T07:36:22.404Z</time>
      </trkpt>
      <trkpt lat="44.1325" lon="2.24621">
        <ele>275</ele>
        <time>2022-09-11T07:36:23.404Z</time>
      </trkpt>
      <trkpt lat="44.1325" lon="2.2462">
        <ele>275</ele>
        <time>2022-09-11T07:36:24.404Z</time>
      </trkpt>
      <trkpt lat="44.1325" lon="2.2462">
        <ele>275</ele>
        <time>2022-09-11T07:36:25.404Z</time>
      </trkpt>
      <trkpt lat="44.1325" lon="2.24617">
        <ele>274</ele>
        <time>2022-09-11T07:36:31.415Z</time>
      </trkpt>
      <trkpt lat="44.1325" lon="2.24616">
        <ele>274</ele>
        <time>2022-09-11T07:36:32.415Z</time>
      </trkpt>
      <trkpt lat="44.1325" lon="2.24615">
        <ele>274</ele>
        <time>2022-09-11T07:36:33.415Z</time>
      </trkpt>
      <trkpt lat="44.1325" lon="2.24614">
        <ele>274</ele>
        <time>2022-09-11T07:36:34.415Z</time>
      </trkpt>
      <trkpt lat="44.1325" lon="2.24613">
        <ele>274</ele>
        <time>2022-09-11T07:36:35.415Z</time>
      </trkpt>
      <trkpt lat="44.1325" lon="2.24612">
        <ele>274</ele>
        <time>2022-09-11T07:36:36.415Z</time>
      </trkpt>
      <trkpt lat="44.13251" lon="2.24611">
        <ele>273</ele>
        <time>2022-09-11T07:36:37.415Z</time>
      </trkpt>
      <trkpt lat="44.13251" lon="2.2461">
        <ele>273</ele>
        <time>2022-09-11T07:36:38.415Z</time>
      </trkpt>
      <trkpt lat="44.13251" lon="2.24609">
        <ele>273</ele>
        <time>2022-09-11T07:36:39.415Z</time>
      </trkpt>
      <trkpt lat="44.1325" lon="2.24607">
        <ele>273</ele>
        <time>2022-09-11T07:36:40.415Z</time>
      </trkpt>
      <trkpt lat="44.1325" lon="2.24606">
        <ele>273</ele>
        <time>2022-09-11T07:36:41.415Z</time>
      </trkpt>
      <trkpt lat="44.1325" lon="2.24605">
        <ele>273</ele>
        <time>2022-09-11T07:36:42.415Z</time>
      </trkpt>
      <trkpt lat="44.1325" lon="2.24605">
        <ele>273</ele>
        <time>2022-09-11T07:36:43.415Z</time>
      </trkpt>
      <trkpt lat="44.1325" lon="2.24604">
        <ele>273</ele>
        <time>2022-09-11T07:36:44.415Z</time>
      </trkpt>
      <trkpt lat="44.1325" lon="2.24603">
        <ele>273</ele>
        <time>2022-09-11T07:36:45.415Z</time>
      </trkpt>
      <trkpt lat="44.13251" lon="2.24602">
        <ele>273</ele>
        <time>2022-09-11T07:36:46.415Z</time>
      </trkpt>
      <trkpt lat="44.13251" lon="2.24601">
        <ele>273</ele>
        <time>2022-09-11T07:36:47.415Z</time>
      </trkpt>
      <trkpt lat="44.13251" lon="2.246">
        <ele>273</ele>
        <time>2022-09-11T07:36:48.415Z</time>
      </trkpt>
      <trkpt lat="44.13251" lon="2.24598">
        <ele>272</ele>
        <time>2022-09-11T07:36:49.415Z</time>
      </trkpt>
      <trkpt lat="44.13251" lon="2.24597">
        <ele>272</ele>
        <time>2022-09-11T07:36:50.415Z</time>
      </trkpt>
      <trkpt lat="44.13251" lon="2.24595">
        <ele>272</ele>
        <time>2022-09-11T07:36:51.415Z</time>
      </trkpt>
      <trkpt lat="44.13251" lon="2.24594">
        <ele>272</ele>
        <time>2022-09-11T07:36:52.415Z</time>
      </trkpt>
      <trkpt lat="44.1325" lon="2.24592">
        <ele>272</ele>
        <time>2022-09-11T07:36:53.415Z</time>
      </trkpt>
      <trkpt lat="44.1325" lon="2.2459">
        <ele>272</ele>
        <time>2022-09-11T07:36:54.415Z</time>
      </trkpt>
      <trkpt lat="44.1325" lon="2.24588">
        <ele>272</ele>
        <time>2022-09-11T07:36:55.415Z</time>
      </trkpt>
      <trkpt lat="44.1325" lon="2.24586">
        <ele>272</ele>
        <time>2022-09-11T07:36:56.415Z</time>
      </trkpt>
      <trkpt lat="44.1325" lon="2.24585">
        <ele>271</ele>
        <time>2022-09-11T07:36:57.415Z</time>
      </trkpt>
      <trkpt lat="44.13251" lon="2.24583">
        <ele>271</ele>
        <time>2022-09-11T07:36:58.415Z</time>
      </trkpt>
      <trkpt lat="44.13251" lon="2.24581">
        <ele>271</ele>
        <time>2022-09-11T07:36:59.415Z</time>
      </trkpt>
      <trkpt lat="44.13251" lon="2.24579">
        <ele>271</ele>
        <time>2022-09-11T07:37:00.415Z</time>
      </trkpt>
      <trkpt lat="44.13252" lon="2.24577">
        <ele>271</ele>
        <time>2022-09-11T07:37:01.415Z</time>
      </trkpt>
      <trkpt lat="44.13252" lon="2.24576">
        <ele>271</ele>
        <time>2022-09-11T07:37:02.415Z</time>
      </trkpt>
      <trkpt lat="44.13252" lon="2.24574">
        <ele>271</ele>
        <time>2022-09-11T07:37:03.415Z</time>
      </trkpt>
      <trkpt lat="44.13252" lon="2.24572">
        <ele>270</ele>
        <time>2022-09-11T07:37:04.415Z</time>
      </trkpt>
      <trkpt lat="44.13252" lon="2.2457">
        <ele>270</ele>
        <time>2022-09-11T07:37:05.415Z</time>
      </trkpt>
      <trkpt lat="44.13251" lon="2.24568">
        <ele>270</ele>
        <time>2022-09-11T07:37:06.415Z</time>
      </trkpt>
      <trkpt lat="44.13251" lon="2.24566">
        <ele>270</ele>
        <time>2022-09-11T07:37:07.415Z</time>
      </trkpt>
      <trkpt lat="44.13251" lon="2.24565">
        <ele>270</ele>
        <time>2022-09-11T07:37:08.415Z</time>
      </trkpt>
      <trkpt lat="44.13251" lon="2.24563">
        <ele>270</ele>
        <time>2022-09-11T07:37:09.415Z</time>
      </trkpt>
      <trkpt lat="44.13251" lon="2.24562">
        <ele>269</ele>
        <time>2022-09-11T07:37:10.415Z</time>
      </trkpt>
      <trkpt lat="44.13251" lon="2.2456">
        <ele>269</ele>
        <time>2022-09-11T07:37:11.415Z</time>
      </trkpt>
      <trkpt lat="44.13251" lon="2.24559">
        <ele>269</ele>
        <time>2022-09-11T07:37:12.415Z</time>
      </trkpt>
      <trkpt lat="44.13252" lon="2.24557">
        <ele>269</ele>
        <time>2022-09-11T07:37:13.415Z</time>
      </trkpt>
      <trkpt lat="44.13252" lon="2.24556">
        <ele>269</ele>
        <time>2022-09-11T07:37:14.415Z</time>
      </trkpt>
      <trkpt lat="44.13253" lon="2.24555">
        <ele>269</ele>
        <time>2022-09-11T07:37:15.415Z</time>
      </trkpt>
      <trkpt lat="44.13254" lon="2.24554">
        <ele>269</ele>
        <time>2022-09-11T07:37:16.415Z</time>
      </trkpt>
      <trkpt lat="44.13254" lon="2.24553">
        <ele>269</ele>
        <time>2022-09-11T07:37:17.415Z</time>
      </trkpt>
      <trkpt lat="44.13255" lon="2.24552">
        <ele>268</ele>
        <time>2022-09-11T07:37:18.415Z</time>
      </trkpt>
      <trkpt lat="44.13255" lon="2.24551">
        <ele>268</ele>
        <time>2022-09-11T07:37:19.415Z</time>
      </trkpt>
      <trkpt lat="44.13256" lon="2.2455">
        <ele>268</ele>
        <time>2022-09-11T07:37:20.415Z</time>
      </trkpt>
      <trkpt lat="44.13256" lon="2.24549">
        <ele>268</ele>
        <time>2022-09-11T07:37:21.415Z</time>
      </trkpt>
      <trkpt lat="44.13257" lon="2.24549">
        <ele>268</ele>
        <time>2022-09-11T07:37:22.415Z</time>
      </trkpt>
      <trkpt lat="44.13257" lon="2.24548">
        <ele>267</ele>
        <time>2022-09-11T07:37:23.415Z</time>
      </trkpt>
      <trkpt lat="44.13258" lon="2.24547">
        <ele>267</ele>
        <time>2022-09-11T07:37:24.415Z</time>
      </trkpt>
      <trkpt lat="44.13258" lon="2.24546">
        <ele>267</ele>
        <time>2022-09-11T07:37:25.415Z</time>
      </trkpt>
      <trkpt lat="44.13258" lon="2.24545">
        <ele>267</ele>
        <time>2022-09-11T07:37:26.415Z</time>
      </trkpt>
      <trkpt lat="44.13258" lon="2.24545">
        <ele>266</ele>
        <time>2022-09-11T07:37:27.415Z</time>
      </trkpt>
      <trkpt lat="44.13258" lon="2.24545">
        <ele>266</ele>
        <time>2022-09-11T07:37:28.415Z</time>
      </trkpt>
      <trkpt lat="44.13258" lon="2.24544">
        <ele>266</ele>
        <time>2022-09-11T07:37:29.415Z</time>
      </trkpt>
      <trkpt lat="44.1326" lon="2.24544">
        <ele>266</ele>
        <time>2022-09-11T07:37:34.415Z</time>
      </trkpt>
      <trkpt lat="44.1326" lon="2.24544">
        <ele>266</ele>
        <time>2022-09-11T07:37:35.415Z</time>
      </trkpt>
      <trkpt lat="44.13261" lon="2.24544">
        <ele>266</ele>
        <time>2022-09-11T07:37:36.415Z</time>
      </trkpt>
      <trkpt lat="44.13262" lon="2.24545">
        <ele>266</ele>
        <time>2022-09-11T07:37:37.415Z</time>
      </trkpt>
      <trkpt lat="44.13262" lon="2.24546">
        <ele>266</ele>
        <time>2022-09-11T07:37:38.415Z</time>
      </trkpt>
      <trkpt lat="44.13263" lon="2.24547">
        <ele>266</ele>
        <time>2022-09-11T07:37:39.415Z</time>
      </trkpt>
      <trkpt lat="44.13264" lon="2.24547">
        <ele>266</ele>
        <time>2022-09-11T07:37:40.415Z</time>
      </trkpt>
      <trkpt lat="44.13264" lon="2.24547">
        <ele>266</ele>
        <time>2022-09-11T07:37:41.415Z</time>
      </trkpt>
      <trkpt lat="44.13265" lon="2.24547">
        <ele>266</ele>
        <time>2022-09-11T07:37:42.415Z</time>
      </trkpt>
      <trkpt lat="44.13265" lon="2.24548">
        <ele>266</ele>
        <time>2022-09-11T07:37:43.415Z</time>
      </trkpt>
      <trkpt lat="44.13266" lon="2.2455">
        <ele>266</ele>
        <time>2022-09-11T07:37:46.670Z</time>
      </trkpt>
      <trkpt lat="44.13266" lon="2.24551">
        <ele>266</ele>
        <time>2022-09-11T07:37:47.670Z</time>
      </trkpt>
      <trkpt lat="44.13267" lon="2.24552">
        <ele>266</ele>
        <time>2022-09-11T07:37:48.670Z</time>
      </trkpt>
      <trkpt lat="44.13267" lon="2.24553">
        <ele>266</ele>
        <time>2022-09-11T07:37:49.670Z</time>
      </trkpt>
      <trkpt lat="44.13267" lon="2.24554">
        <ele>266</ele>
        <time>2022-09-11T07:37:50.670Z</time>
      </trkpt>
      <trkpt lat="44.13268" lon="2.24554">
        <ele>266</ele>
        <time>2022-09-11T07:37:51.670Z</time>
      </trkpt>
      <trkpt lat="44.13268" lon="2.24556">
        <ele>266</ele>
        <time>2022-09-11T07:37:52.670Z</time>
      </trkpt>
      <trkpt lat="44.13268" lon="2.24557">
        <ele>266</ele>
        <time>2022-09-11T07:37:53.670Z</time>
      </trkpt>
      <trkpt lat="44.13268" lon="2.24558">
        <ele>266</ele>
        <time>2022-09-11T07:37:54.670Z</time>
      </trkpt>
      <trkpt lat="44.13269" lon="2.2456">
        <ele>266</ele>
        <time>2022-09-11T07:37:55.670Z</time>
      </trkpt>
      <trkpt lat="44.13269" lon="2.24561">
        <ele>266</ele>
        <time>2022-09-11T07:37:56.670Z</time>
      </trkpt>
      <trkpt lat="44.13269" lon="2.24562">
        <ele>266</ele>
        <time>2022-09-11T07:37:57.670Z</time>
      </trkpt>
      <trkpt lat="44.13269" lon="2.24563">
        <ele>266</ele>
        <time>2022-09-11T07:37:58.670Z</time>
      </trkpt>
      <trkpt lat="44.13269" lon="2.24565">
        <ele>266</ele>
        <time>2022-09-11T07:37:59.670Z</time>
      </trkpt>
      <trkpt lat="44.1327" lon="2.24566">
        <ele>266</ele>
        <time>2022-09-11T07:38:00.670Z</time>
      </trkpt>
      <trkpt lat="44.1327" lon="2.24567">
        <ele>266</ele>
        <time>2022-09-11T07:38:01.670Z</time>
      </trkpt>
      <trkpt lat="44.1327" lon="2.24568">
        <ele>266</ele>
        <time>2022-09-11T07:38:02.670Z</time>
      </trkpt>
      <trkpt lat="44.1327" lon="2.24569">
        <ele>266</ele>
        <time>2022-09-11T07:38:03.670Z</time>
      </trkpt>
      <trkpt lat="44.13271" lon="2.2457">
        <ele>266</ele>
        <time>2022-09-11T07:38:04.670Z</time>
      </trkpt>
      <trkpt lat="44.13271" lon="2.24571">
        <ele>266</ele>
        <time>2022-09-11T07:38:05.670Z</time>
      </trkpt>
      <trkpt lat="44.13271" lon="2.24573">
        <ele>266</ele>
        <time>2022-09-11T07:38:06.670Z</time>
      </trkpt>
      <trkpt lat="44.13271" lon="2.24574">
        <ele>266</ele>
        <time>2022-09-11T07:38:07.670Z</time>
      </trkpt>
      <trkpt lat="44.13271" lon="2.24576">
        <ele>266</ele>
        <time>2022-09-11T07:38:08.670Z</time>
      </trkpt>
      <trkpt lat="44.13271" lon="2.24577">
        <ele>266</ele>
        <time>2022-09-11T07:38:09.670Z</time>
      </trkpt>
      <trkpt lat="44.13271" lon="2.24579">
        <ele>266</ele>
        <time>2022-09-11T07:38:10.670Z</time>
      </trkpt>
      <trkpt lat="44.13271" lon="2.2458">
        <ele>266</ele>
        <time>2022-09-11T07:38:11.670Z</time>
      </trkpt>
      <trkpt lat="44.13271" lon="2.24581">
        <ele>266</ele>
        <time>2022-09-11T07:38:12.670Z</time>
      </trkpt>
      <trkpt lat="44.13271" lon="2.24582">
        <ele>265</ele>
        <time>2022-09-11T07:38:13.670Z</time>
      </trkpt>
      <trkpt lat="44.13271" lon="2.24583">
        <ele>265</ele>
        <time>2022-09-11T07:38:14.670Z</time>
      </trkpt>
      <trkpt lat="44.13271" lon="2.24583">
        <ele>265</ele>
        <time>2022-09-11T07:38:15.670Z</time>
      </trkpt>
      <trkpt lat="44.13271" lon="2.24583">
        <ele>265</ele>
        <time>2022-09-11T07:38:16.670Z</time>
      </trkpt>
      <trkpt lat="44.13271" lon="2.24584">
        <ele>265</ele>
        <time>2022-09-11T07:38:17.670Z</time>
      </trkpt>
      <trkpt lat="44.13271" lon="2.24588">
        <ele>265</ele>
        <time>2022-09-11T07:38:20.909Z</time>
      </trkpt>
      <trkpt lat="44.13271" lon="2.24589">
        <ele>265</ele>
        <time>2022-09-11T07:38:21.909Z</time>
      </trkpt>
      <trkpt lat="44.13271" lon="2.2459">
        <ele>265</ele>
        <time>2022-09-11T07:38:22.909Z</time>
      </trkpt>
      <trkpt lat="44.1327" lon="2.2459">
        <ele>265</ele>
        <time>2022-09-11T07:38:23.909Z</time>
      </trkpt>
      <trkpt lat="44.1327" lon="2.24591">
        <ele>265</ele>
        <time>2022-09-11T07:38:24.909Z</time>
      </trkpt>
      <trkpt lat="44.1327" lon="2.24593">
        <ele>265</ele>
        <time>2022-09-11T07:38:25.909Z</time>
      </trkpt>
      <trkpt lat="44.1327" lon="2.24594">
        <ele>265</ele>
        <time>2022-09-11T07:38:26.909Z</time>
      </trkpt>
      <trkpt lat="44.1327" lon="2.24595">
        <ele>265</ele>
        <time>2022-09-11T07:38:27.909Z</time>
      </trkpt>
      <trkpt lat="44.13269" lon="2.24596">
        <ele>265</ele>
        <time>2022-09-11T07:38:28.909Z</time>
      </trkpt>
      <trkpt lat="44.13269" lon="2.24597">
        <ele>265</ele>
        <time>2022-09-11T07:38:29.909Z</time>
      </trkpt>
      <trkpt lat="44.13269" lon="2.24599">
        <ele>265</ele>
        <time>2022-09-11T07:38:30.909Z</time>
      </trkpt>
      <trkpt lat="44.13269" lon="2.246">
        <ele>265</ele>
        <time>2022-09-11T07:38:31.909Z</time>
      </trkpt>
      <trkpt lat="44.13269" lon="2.24602">
        <ele>265</ele>
        <time>2022-09-11T07:38:32.909Z</time>
      </trkpt>
      <trkpt lat="44.13269" lon="2.24604">
        <ele>265</ele>
        <time>2022-09-11T07:38:33.909Z</time>
      </trkpt>
      <trkpt lat="44.13269" lon="2.24605">
        <ele>265</ele>
        <time>2022-09-11T07:38:34.909Z</time>
      </trkpt>
      <trkpt lat="44.13269" lon="2.24607">
        <ele>265</ele>
        <time>2022-09-11T07:38:35.909Z</time>
      </trkpt>
      <trkpt lat="44.1327" lon="2.24608">
        <ele>264</ele>
        <time>2022-09-11T07:38:36.909Z</time>
      </trkpt>
      <trkpt lat="44.1327" lon="2.2461">
        <ele>264</ele>
        <time>2022-09-11T07:38:37.909Z</time>
      </trkpt>
      <trkpt lat="44.13271" lon="2.24612">
        <ele>264</ele>
        <time>2022-09-11T07:38:38.909Z</time>
      </trkpt>
      <trkpt lat="44.13271" lon="2.24613">
        <ele>264</ele>
        <time>2022-09-11T07:38:39.909Z</time>
      </trkpt>
      <trkpt lat="44.13272" lon="2.24615">
        <ele>264</ele>
        <time>2022-09-11T07:38:40.909Z</time>
      </trkpt>
      <trkpt lat="44.13272" lon="2.24617">
        <ele>264</ele>
        <time>2022-09-11T07:38:41.909Z</time>
      </trkpt>
      <trkpt lat="44.13273" lon="2.24619">
        <ele>264</ele>
        <time>2022-09-11T07:38:42.909Z</time>
      </trkpt>
      <trkpt lat="44.13273" lon="2.2462">
        <ele>264</ele>
        <time>2022-09-11T07:38:43.909Z</time>
      </trkpt>
      <trkpt lat="44.13274" lon="2.24622">
        <ele>264</ele>
        <time>2022-09-11T07:38:44.909Z</time>
      </trkpt>
      <trkpt lat="44.13274" lon="2.24624">
        <ele>264</ele>
        <time>2022-09-11T07:38:45.909Z</time>
      </trkpt>
      <trkpt lat="44.13275" lon="2.24625">
        <ele>264</ele>
        <time>2022-09-11T07:38:46.909Z</time>
      </trkpt>
      <trkpt lat="44.13275" lon="2.24626">
        <ele>264</ele>
        <time>2022-09-11T07:38:47.909Z</time>
      </trkpt>
      <trkpt lat="44.13275" lon="2.24627">
        <ele>264</ele>
        <time>2022-09-11T07:38:48.909Z</time>
      </trkpt>
      <trkpt lat="44.13276" lon="2.24628">
        <ele>264</ele>
        <time>2022-09-11T07:38:49.909Z</time>
      </trkpt>
      <trkpt lat="44.13276" lon="2.24629">
        <ele>264</ele>
        <time>2022-09-11T07:38:50.909Z</time>
      </trkpt>
      <trkpt lat="44.13276" lon="2.2463">
        <ele>264</ele>
        <time>2022-09-11T07:38:51.909Z</time>
      </trkpt>
      <trkpt lat="44.13276" lon="2.24632">
        <ele>264</ele>
        <time>2022-09-11T07:38:52.909Z</time>
      </trkpt>
      <trkpt lat="44.13277" lon="2.24633">
        <ele>264</ele>
        <time>2022-09-11T07:38:53.909Z</time>
      </trkpt>
      <trkpt lat="44.13277" lon="2.24635">
        <ele>263</ele>
        <time>2022-09-11T07:38:54.909Z</time>
      </trkpt>
      <trkpt lat="44.13277" lon="2.24636">
        <ele>263</ele>
        <time>2022-09-11T07:38:55.909Z</time>
      </trkpt>
      <trkpt lat="44.13277" lon="2.24637">
        <ele>263</ele>
        <time>2022-09-11T07:38:56.909Z</time>
      </trkpt>
      <trkpt lat="44.13276" lon="2.24639">
        <ele>263</ele>
        <time>2022-09-11T07:38:57.909Z</time>
      </trkpt>
      <trkpt lat="44.13276" lon="2.2464">
        <ele>263</ele>
        <time>2022-09-11T07:38:58.909Z</time>
      </trkpt>
      <trkpt lat="44.13275" lon="2.24642">
        <ele>263</ele>
        <time>2022-09-11T07:38:59.909Z</time>
      </trkpt>
      <trkpt lat="44.13275" lon="2.24643">
        <ele>263</ele>
        <time>2022-09-11T07:39:00.909Z</time>
      </trkpt>
      <trkpt lat="44.13274" lon="2.24645">
        <ele>262</ele>
        <time>2022-09-11T07:39:01.909Z</time>
      </trkpt>
      <trkpt lat="44.13274" lon="2.24646">
        <ele>262</ele>
        <time>2022-09-11T07:39:02.909Z</time>
      </trkpt>
      <trkpt lat="44.13274" lon="2.24648">
        <ele>262</ele>
        <time>2022-09-11T07:39:03.909Z</time>
      </trkpt>
      <trkpt lat="44.13273" lon="2.2465">
        <ele>262</ele>
        <time>2022-09-11T07:39:04.909Z</time>
      </trkpt>
      <trkpt lat="44.13273" lon="2.24651">
        <ele>262</ele>
        <time>2022-09-11T07:39:05.909Z</time>
      </trkpt>
      <trkpt lat="44.13273" lon="2.24653">
        <ele>262</ele>
        <time>2022-09-11T07:39:06.909Z</time>
      </trkpt>
      <trkpt lat="44.13272" lon="2.24655">
        <ele>262</ele>
        <time>2022-09-11T07:39:07.909Z</time>
      </trkpt>
      <trkpt lat="44.13272" lon="2.24656">
        <ele>262</ele>
        <time>2022-09-11T07:39:08.909Z</time>
      </trkpt>
      <trkpt lat="44.13271" lon="2.24658">
        <ele>262</ele>
        <time>2022-09-11T07:39:09.909Z</time>
      </trkpt>
      <trkpt lat="44.13271" lon="2.2466">
        <ele>262</ele>
        <time>2022-09-11T07:39:10.909Z</time>
      </trkpt>
      <trkpt lat="44.13271" lon="2.24662">
        <ele>261</ele>
        <time>2022-09-11T07:39:11.909Z</time>
      </trkpt>
      <trkpt lat="44.1327" lon="2.24663">
        <ele>261</ele>
        <time>2022-09-11T07:39:12.909Z</time>
      </trkpt>
      <trkpt lat="44.1327" lon="2.24665">
        <ele>261</ele>
        <time>2022-09-11T07:39:13.909Z</time>
      </trkpt>
      <trkpt lat="44.1327" lon="2.24667">
        <ele>261</ele>
        <time>2022-09-11T07:39:14.909Z</time>
      </trkpt>
      <trkpt lat="44.1327" lon="2.24668">
        <ele>261</ele>
        <time>2022-09-11T07:39:15.909Z</time>
      </trkpt>
      <trkpt lat="44.1327" lon="2.2467">
        <ele>261</ele>
        <time>2022-09-11T07:39:16.909Z</time>
      </trkpt>
      <trkpt lat="44.1327" lon="2.24672">
        <ele>261</ele>
        <time>2022-09-11T07:39:17.909Z</time>
      </trkpt>
      <trkpt lat="44.1327" lon="2.24674">
        <ele>261</ele>
        <time>2022-09-11T07:39:18.909Z</time>
      </trkpt>
      <trkpt lat="44.1327" lon="2.24676">
        <ele>261</ele>
        <time>2022-09-11T07:39:19.909Z</time>
      </trkpt>
      <trkpt lat="44.1327" lon="2.24677">
        <ele>261</ele>
        <time>2022-09-11T07:39:20.909Z</time>
      </trkpt>
      <trkpt lat="44.1327" lon="2.24679">
        <ele>261</ele>
        <time>2022-09-11T07:39:21.909Z</time>
      </trkpt>
      <trkpt lat="44.1327" lon="2.24681">
        <ele>261</ele>
        <time>2022-09-11T07:39:22.909Z</time>
      </trkpt>
      <trkpt lat="44.1327" lon="2.24683">
        <ele>261</ele>
        <time>2022-09-11T07:39:23.909Z</time>
      </trkpt>
      <trkpt lat="44.1327" lon="2.24684">
        <ele>261</ele>
        <time>2022-09-11T07:39:24.909Z</time>
      </trkpt>
      <trkpt lat="44.1327" lon="2.24686">
        <ele>261</ele>
        <time>2022-09-11T07:39:25.909Z</time>
      </trkpt>
      <trkpt lat="44.1327" lon="2.24688">
        <ele>261</ele>
        <time>2022-09-11T07:39:26.909Z</time>
      </trkpt>
      <trkpt lat="44.13271" lon="2.2469">
        <ele>261</ele>
        <time>2022-09-11T07:39:27.909Z</time>
      </trkpt>
      <trkpt lat="44.13271" lon="2.24691">
        <ele>261</ele>
        <time>2022-09-11T07:39:28.909Z</time>
      </trkpt>
      <trkpt lat="44.13271" lon="2.24692">
        <ele>261</ele>
        <time>2022-09-11T07:39:29.909Z</time>
      </trkpt>
      <trkpt lat="44.13272" lon="2.24693">
        <ele>260</ele>
        <time>2022-09-11T07:39:30.909Z</time>
      </trkpt>
      <trkpt lat="44.13272" lon="2.24695">
        <ele>260</ele>
        <time>2022-09-11T07:39:31.909Z</time>
      </trkpt>
      <trkpt lat="44.13272" lon="2.24695">
        <ele>260</ele>
        <time>2022-09-11T07:39:32.909Z</time>
      </trkpt>
      <trkpt lat="44.13272" lon="2.24696">
        <ele>260</ele>
        <time>2022-09-11T07:39:33.909Z</time>
      </trkpt>
      <trkpt lat="44.13273" lon="2.24697">
        <ele>260</ele>
        <time>2022-09-11T07:39:34.909Z</time>
      </trkpt>
      <trkpt lat="44.13274" lon="2.24698">
        <ele>260</ele>
        <time>2022-09-11T07:39:35.909Z</time>
      </trkpt>
      <trkpt lat="44.13274" lon="2.24699">
        <ele>260</ele>
        <time>2022-09-11T07:39:36.909Z</time>
      </trkpt>
      <trkpt lat="44.13275" lon="2.24699">
        <ele>260</ele>
        <time>2022-09-11T07:39:37.909Z</time>
      </trkpt>
      <trkpt lat="44.13276" lon="2.247">
        <ele>260</ele>
        <time>2022-09-11T07:39:38.909Z</time>
      </trkpt>
      <trkpt lat="44.13276" lon="2.24701">
        <ele>260</ele>
        <time>2022-09-11T07:39:39.909Z</time>
      </trkpt>
      <trkpt lat="44.13276" lon="2.24702">
        <ele>260</ele>
        <time>2022-09-11T07:39:40.909Z</time>
      </trkpt>
      <trkpt lat="44.13277" lon="2.24703">
        <ele>260</ele>
        <time>2022-09-11T07:39:41.909Z</time>
      </trkpt>
      <trkpt lat="44.13277" lon="2.24704">
        <ele>260</ele>
        <time>2022-09-11T07:39:42.909Z</time>
      </trkpt>
      <trkpt lat="44.13277" lon="2.24705">
        <ele>260</ele>
        <time>2022-09-11T07:39:43.909Z</time>
      </trkpt>
      <trkpt lat="44.13278" lon="2.24707">
        <ele>259</ele>
        <time>2022-09-11T07:39:44.909Z</time>
      </trkpt>
      <trkpt lat="44.13278" lon="2.24709">
        <ele>259</ele>
        <time>2022-09-11T07:39:45.909Z</time>
      </trkpt>
      <trkpt lat="44.13278" lon="2.2471">
        <ele>259</ele>
        <time>2022-09-11T07:39:46.909Z</time>
      </trkpt>
      <trkpt lat="44.13279" lon="2.24712">
        <ele>259</ele>
        <time>2022-09-11T07:39:47.909Z</time>
      </trkpt>
      <trkpt lat="44.13279" lon="2.24714">
        <ele>259</ele>
        <time>2022-09-11T07:39:48.909Z</time>
      </trkpt>
      <trkpt lat="44.13279" lon="2.24715">
        <ele>259</ele>
        <time>2022-09-11T07:39:49.909Z</time>
      </trkpt>
      <trkpt lat="44.13279" lon="2.24717">
        <ele>259</ele>
        <time>2022-09-11T07:39:50.909Z</time>
      </trkpt>
      <trkpt lat="44.13279" lon="2.24717">
        <ele>259</ele>
        <time>2022-09-11T07:39:51.909Z</time>
      </trkpt>
      <trkpt lat="44.13279" lon="2.24718">
        <ele>259</ele>
        <time>2022-09-11T07:39:52.909Z</time>
      </trkpt>
      <trkpt lat="44.13278" lon="2.24719">
        <ele>259</ele>
        <time>2022-09-11T07:39:53.909Z</time>
      </trkpt>
      <trkpt lat="44.13278" lon="2.2472">
        <ele>259</ele>
        <time>2022-09-11T07:39:54.909Z</time>
      </trkpt>
      <trkpt lat="44.13278" lon="2.24722">
        <ele>259</ele>
        <time>2022-09-11T07:39:55.909Z</time>
      </trkpt>
      <trkpt lat="44.13278" lon="2.24723">
        <ele>259</ele>
        <time>2022-09-11T07:39:56.909Z</time>
      </trkpt>
      <trkpt lat="44.13278" lon="2.24725">
        <ele>259</ele>
        <time>2022-09-11T07:39:57.909Z</time>
      </trkpt>
      <trkpt lat="44.13278" lon="2.24726">
        <ele>259</ele>
        <time>2022-09-11T07:39:58.909Z</time>
      </trkpt>
      <trkpt lat="44.13278" lon="2.24728">
        <ele>259</ele>
        <time>2022-09-11T07:39:59.909Z</time>
      </trkpt>
      <trkpt lat="44.13278" lon="2.2473">
        <ele>259</ele>
        <time>2022-09-11T07:40:00.909Z</time>
      </trkpt>
      <trkpt lat="44.13278" lon="2.24731">
        <ele>259</ele>
        <time>2022-09-11T07:40:01.909Z</time>
      </trkpt>
      <trkpt lat="44.13279" lon="2.24732">
        <ele>259</ele>
        <time>2022-09-11T07:40:02.909Z</time>
      </trkpt>
      <trkpt lat="44.13278" lon="2.24734">
        <ele>259</ele>
        <time>2022-09-11T07:40:03.909Z</time>
      </trkpt>
      <trkpt lat="44.13278" lon="2.24735">
        <ele>259</ele>
        <time>2022-09-11T07:40:04.909Z</time>
      </trkpt>
      <trkpt lat="44.13278" lon="2.24737">
        <ele>259</ele>
        <time>2022-09-11T07:40:05.909Z</time>
      </trkpt>
      <trkpt lat="44.13278" lon="2.24738">
        <ele>259</ele>
        <time>2022-09-11T07:40:06.909Z</time>
      </trkpt>
      <trkpt lat="44.13277" lon="2.2474">
        <ele>259</ele>
        <time>2022-09-11T07:40:07.909Z</time>
      </trkpt>
      <trkpt lat="44.13277" lon="2.24742">
        <ele>259</ele>
        <time>2022-09-11T07:40:08.909Z</time>
      </trkpt>
      <trkpt lat="44.13277" lon="2.24743">
        <ele>259</ele>
        <time>2022-09-11T07:40:09.909Z</time>
      </trkpt>
      <trkpt lat="44.13277" lon="2.24744">
        <ele>260</ele>
        <time>2022-09-11T07:40:10.909Z</time>
      </trkpt>
      <trkpt lat="44.13277" lon="2.24746">
        <ele>260</ele>
        <time>2022-09-11T07:40:11.909Z</time>
      </trkpt>
      <trkpt lat="44.13277" lon="2.24747">
        <ele>260</ele>
        <time>2022-09-11T07:40:12.909Z</time>
      </trkpt>
      <trkpt lat="44.13277" lon="2.24749">
        <ele>260</ele>
        <time>2022-09-11T07:40:13.909Z</time>
      </trkpt>
      <trkpt lat="44.13277" lon="2.24751">
        <ele>260</ele>
        <time>2022-09-11T07:40:14.909Z</time>
      </trkpt>
      <trkpt lat="44.13277" lon="2.24753">
        <ele>260</ele>
        <time>2022-09-11T07:40:15.909Z</time>
      </trkpt>
      <trkpt lat="44.13276" lon="2.24754">
        <ele>260</ele>
        <time>2022-09-11T07:40:16.909Z</time>
      </trkpt>
      <trkpt lat="44.13276" lon="2.24756">
        <ele>260</ele>
        <time>2022-09-11T07:40:17.909Z</time>
      </trkpt>
      <trkpt lat="44.13276" lon="2.24757">
        <ele>260</ele>
        <time>2022-09-11T07:40:18.909Z</time>
      </trkpt>
      <trkpt lat="44.13276" lon="2.24759">
        <ele>260</ele>
        <time>2022-09-11T07:40:19.909Z</time>
      </trkpt>
      <trkpt lat="44.13276" lon="2.24761">
        <ele>260</ele>
        <time>2022-09-11T07:40:20.909Z</time>
      </trkpt>
      <trkpt lat="44.13276" lon="2.24762">
        <ele>260</ele>
        <time>2022-09-11T07:40:21.909Z</time>
      </trkpt>
      <trkpt lat="44.13277" lon="2.24764">
        <ele>260</ele>
        <time>2022-09-11T07:40:22.909Z</time>
      </trkpt>
      <trkpt lat="44.13277" lon="2.24765">
        <ele>260</ele>
        <time>2022-09-11T07:40:23.909Z</time>
      </trkpt>
      <trkpt lat="44.13277" lon="2.24767">
        <ele>260</ele>
        <time>2022-09-11T07:40:24.909Z</time>
      </trkpt>
      <trkpt lat="44.13277" lon="2.24768">
        <ele>260</ele>
        <time>2022-09-11T07:40:25.909Z</time>
      </trkpt>
      <trkpt lat="44.13277" lon="2.2477">
        <ele>260</ele>
        <time>2022-09-11T07:40:26.909Z</time>
      </trkpt>
      <trkpt lat="44.13277" lon="2.24771">
        <ele>260</ele>
        <time>2022-09-11T07:40:27.909Z</time>
      </trkpt>
      <trkpt lat="44.13277" lon="2.24773">
        <ele>260</ele>
        <time>2022-09-11T07:40:28.909Z</time>
      </trkpt>
      <trkpt lat="44.13277" lon="2.24774">
        <ele>260</ele>
        <time>2022-09-11T07:40:29.909Z</time>
      </trkpt>
      <trkpt lat="44.13277" lon="2.24775">
        <ele>260</ele>
        <time>2022-09-11T07:40:30.909Z</time>
      </trkpt>
      <trkpt lat="44.13277" lon="2.24777">
        <ele>260</ele>
        <time>2022-09-11T07:40:31.909Z</time>
      </trkpt>
      <trkpt lat="44.13277" lon="2.24778">
        <ele>260</ele>
        <time>2022-09-11T07:40:32.909Z</time>
      </trkpt>
      <trkpt lat="44.13277" lon="2.2478">
        <ele>260</ele>
        <time>2022-09-11T07:40:33.909Z</time>
      </trkpt>
      <trkpt lat="44.13277" lon="2.24781">
        <ele>260</ele>
        <time>2022-09-11T07:40:34.909Z</time>
      </trkpt>
      <trkpt lat="44.13277" lon="2.24783">
        <ele>260</ele>
        <time>2022-09-11T07:40:35.909Z</time>
      </trkpt>
      <trkpt lat="44.13276" lon="2.24784">
        <ele>260</ele>
        <time>2022-09-11T07:40:36.909Z</time>
      </trkpt>
      <trkpt lat="44.13275" lon="2.24786">
        <ele>260</ele>
        <time>2022-09-11T07:40:37.909Z</time>
      </trkpt>
      <trkpt lat="44.13274" lon="2.24787">
        <ele>260</ele>
        <time>2022-09-11T07:40:38.909Z</time>
      </trkpt>
      <trkpt lat="44.13273" lon="2.24788">
        <ele>260</ele>
        <time>2022-09-11T07:40:39.909Z</time>
      </trkpt>
      <trkpt lat="44.13272" lon="2.24789">
        <ele>260</ele>
        <time>2022-09-11T07:40:40.909Z</time>
      </trkpt>
      <trkpt lat="44.13271" lon="2.2479">
        <ele>260</ele>
        <time>2022-09-11T07:40:41.909Z</time>
      </trkpt>
      <trkpt lat="44.13271" lon="2.24792">
        <ele>260</ele>
        <time>2022-09-11T07:40:42.909Z</time>
      </trkpt>
      <trkpt lat="44.1327" lon="2.24793">
        <ele>260</ele>
        <time>2022-09-11T07:40:43.909Z</time>
      </trkpt>
      <trkpt lat="44.1327" lon="2.24794">
        <ele>260</ele>
        <time>2022-09-11T07:40:44.909Z</time>
      </trkpt>
      <trkpt lat="44.1327" lon="2.24795">
        <ele>260</ele>
        <time>2022-09-11T07:40:45.909Z</time>
      </trkpt>
      <trkpt lat="44.1327" lon="2.24797">
        <ele>260</ele>
        <time>2022-09-11T07:40:46.909Z</time>
      </trkpt>
      <trkpt lat="44.1327" lon="2.24799">
        <ele>260</ele>
        <time>2022-09-11T07:40:47.909Z</time>
      </trkpt>
      <trkpt lat="44.1327" lon="2.24801">
        <ele>260</ele>
        <time>2022-09-11T07:40:48.909Z</time>
      </trkpt>
      <trkpt lat="44.13269" lon="2.24802">
        <ele>260</ele>
        <time>2022-09-11T07:40:49.909Z</time>
      </trkpt>
      <trkpt lat="44.13269" lon="2.24804">
        <ele>260</ele>
        <time>2022-09-11T07:40:50.909Z</time>
      </trkpt>
      <trkpt lat="44.13269" lon="2.24806">
        <ele>260</ele>
        <time>2022-09-11T07:40:51.909Z</time>
      </trkpt>
      <trkpt lat="44.13268" lon="2.24807">
        <ele>260</ele>
        <time>2022-09-11T07:40:52.909Z</time>
      </trkpt>
      <trkpt lat="44.13267" lon="2.24809">
        <ele>260</ele>
        <time>2022-09-11T07:40:53.909Z</time>
      </trkpt>
      <trkpt lat="44.13266" lon="2.2481">
        <ele>260</ele>
        <time>2022-09-11T07:40:54.909Z</time>
      </trkpt>
      <trkpt lat="44.13266" lon="2.2481">
        <ele>260</ele>
        <time>2022-09-11T07:40:55.909Z</time>
      </trkpt>
      <trkpt lat="44.13266" lon="2.2481">
        <ele>260</ele>
        <time>2022-09-11T07:40:56.909Z</time>
      </trkpt>
      <trkpt lat="44.13265" lon="2.24811">
        <ele>260</ele>
        <time>2022-09-11T07:40:57.909Z</time>
      </trkpt>
      <trkpt lat="44.13265" lon="2.24811">
        <ele>260</ele>
        <time>2022-09-11T07:40:58.909Z</time>
      </trkpt>
      <trkpt lat="44.13264" lon="2.24812">
        <ele>260</ele>
        <time>2022-09-11T07:40:59.909Z</time>
      </trkpt>
      <trkpt lat="44.13264" lon="2.24813">
        <ele>260</ele>
        <time>2022-09-11T07:41:00.909Z</time>
      </trkpt>
      <trkpt lat="44.13264" lon="2.24814">
        <ele>260</ele>
        <time>2022-09-11T07:41:01.909Z</time>
      </trkpt>
      <trkpt lat="44.13263" lon="2.24815">
        <ele>260</ele>
        <time>2022-09-11T07:41:02.909Z</time>
      </trkpt>
      <trkpt lat="44.13263" lon="2.24816">
        <ele>260</ele>
        <time>2022-09-11T07:41:03.909Z</time>
      </trkpt>
      <trkpt lat="44.13263" lon="2.24818">
        <ele>260</ele>
        <time>2022-09-11T07:41:04.909Z</time>
      </trkpt>
      <trkpt lat="44.13263" lon="2.24818">
        <ele>260</ele>
        <time>2022-09-11T07:41:05.909Z</time>
      </trkpt>
      <trkpt lat="44.13263" lon="2.24818">
        <ele>260</ele>
        <time>2022-09-11T07:41:06.909Z</time>
      </trkpt>
      <trkpt lat="44.13263" lon="2.24819">
        <ele>260</ele>
        <time>2022-09-11T07:41:07.909Z</time>
      </trkpt>
      <trkpt lat="44.13263" lon="2.2482">
        <ele>260</ele>
        <time>2022-09-11T07:41:08.909Z</time>
      </trkpt>
      <trkpt lat="44.13263" lon="2.24821">
        <ele>260</ele>
        <time>2022-09-11T07:41:09.909Z</time>
      </trkpt>
      <trkpt lat="44.13263" lon="2.24822">
        <ele>260</ele>
        <time>2022-09-11T07:41:10.909Z</time>
      </trkpt>
      <trkpt lat="44.13263" lon="2.24823">
        <ele>260</ele>
        <time>2022-09-11T07:41:11.909Z</time>
      </trkpt>
      <trkpt lat="44.13263" lon="2.24824">
        <ele>260</ele>
        <time>2022-09-11T07:41:12.909Z</time>
      </trkpt>
      <trkpt lat="44.13263" lon="2.24825">
        <ele>260</ele>
        <time>2022-09-11T07:41:13.909Z</time>
      </trkpt>
      <trkpt lat="44.13264" lon="2.24826">
        <ele>260</ele>
        <time>2022-09-11T07:41:14.909Z</time>
      </trkpt>
      <trkpt lat="44.13264" lon="2.24828">
        <ele>260</ele>
        <time>2022-09-11T07:41:15.909Z</time>
      </trkpt>
      <trkpt lat="44.13264" lon="2.24829">
        <ele>259</ele>
        <time>2022-09-11T07:41:16.909Z</time>
      </trkpt>
      <trkpt lat="44.13265" lon="2.24831">
        <ele>259</ele>
        <time>2022-09-11T07:41:17.909Z</time>
      </trkpt>
      <trkpt lat="44.13265" lon="2.24833">
        <ele>259</ele>
        <time>2022-09-11T07:41:18.909Z</time>
      </trkpt>
      <trkpt lat="44.13265" lon="2.24834">
        <ele>259</ele>
        <time>2022-09-11T07:41:19.909Z</time>
      </trkpt>
      <trkpt lat="44.13265" lon="2.24835">
        <ele>259</ele>
        <time>2022-09-11T07:41:20.909Z</time>
      </trkpt>
      <trkpt lat="44.13264" lon="2.24837">
        <ele>259</ele>
        <time>2022-09-11T07:41:21.909Z</time>
      </trkpt>
      <trkpt lat="44.13264" lon="2.24838">
        <ele>259</ele>
        <time>2022-09-11T07:41:22.909Z</time>
      </trkpt>
      <trkpt lat="44.13264" lon="2.2484">
        <ele>258</ele>
        <time>2022-09-11T07:41:23.909Z</time>
      </trkpt>
      <trkpt lat="44.13263" lon="2.24841">
        <ele>258</ele>
        <time>2022-09-11T07:41:24.909Z</time>
      </trkpt>
      <trkpt lat="44.13263" lon="2.24843">
        <ele>258</ele>
        <time>2022-09-11T07:41:25.909Z</time>
      </trkpt>
      <trkpt lat="44.13263" lon="2.24844">
        <ele>258</ele>
        <time>2022-09-11T07:41:26.909Z</time>
      </trkpt>
      <trkpt lat="44.13263" lon="2.24845">
        <ele>258</ele>
        <time>2022-09-11T07:41:27.909Z</time>
      </trkpt>
      <trkpt lat="44.13262" lon="2.24847">
        <ele>258</ele>
        <time>2022-09-11T07:41:28.909Z</time>
      </trkpt>
      <trkpt lat="44.13262" lon="2.24848">
        <ele>258</ele>
        <time>2022-09-11T07:41:29.909Z</time>
      </trkpt>
      <trkpt lat="44.13262" lon="2.2485">
        <ele>258</ele>
        <time>2022-09-11T07:41:30.909Z</time>
      </trkpt>
      <trkpt lat="44.13261" lon="2.24851">
        <ele>258</ele>
        <time>2022-09-11T07:41:31.909Z</time>
      </trkpt>
      <trkpt lat="44.13261" lon="2.24852">
        <ele>258</ele>
        <time>2022-09-11T07:41:32.909Z</time>
      </trkpt>
      <trkpt lat="44.1326" lon="2.24852">
        <ele>257</ele>
        <time>2022-09-11T07:41:33.909Z</time>
      </trkpt>
      <trkpt lat="44.1326" lon="2.24853">
        <ele>257</ele>
        <time>2022-09-11T07:41:34.909Z</time>
      </trkpt>
      <trkpt lat="44.13259" lon="2.24854">
        <ele>257</ele>
        <time>2022-09-11T07:41:35.909Z</time>
      </trkpt>
      <trkpt lat="44.13259" lon="2.24855">
        <ele>257</ele>
        <time>2022-09-11T07:41:36.909Z</time>
      </trkpt>
      <trkpt lat="44.13258" lon="2.24856">
        <ele>257</ele>
        <time>2022-09-11T07:41:37.909Z</time>
      </trkpt>
      <trkpt lat="44.13258" lon="2.24857">
        <ele>257</ele>
        <time>2022-09-11T07:41:38.909Z</time>
      </trkpt>
      <trkpt lat="44.13258" lon="2.24857">
        <ele>257</ele>
        <time>2022-09-11T07:41:39.909Z</time>
      </trkpt>
      <trkpt lat="44.13258" lon="2.24859">
        <ele>257</ele>
        <time>2022-09-11T07:41:40.909Z</time>
      </trkpt>
      <trkpt lat="44.13258" lon="2.2486">
        <ele>257</ele>
        <time>2022-09-11T07:41:41.909Z</time>
      </trkpt>
      <trkpt lat="44.13258" lon="2.24861">
        <ele>257</ele>
        <time>2022-09-11T07:41:42.909Z</time>
      </trkpt>
      <trkpt lat="44.13258" lon="2.24862">
        <ele>257</ele>
        <time>2022-09-11T07:41:43.909Z</time>
      </trkpt>
      <trkpt lat="44.13258" lon="2.24863">
        <ele>257</ele>
        <time>2022-09-11T07:41:44.909Z</time>
      </trkpt>
      <trkpt lat="44.13258" lon="2.24864">
        <ele>257</ele>
        <time>2022-09-11T07:41:45.909Z</time>
      </trkpt>
      <trkpt lat="44.13258" lon="2.24865">
        <ele>257</ele>
        <time>2022-09-11T07:41:46.909Z</time>
      </trkpt>
      <trkpt lat="44.13257" lon="2.24866">
        <ele>257</ele>
        <time>2022-09-11T07:41:47.909Z</time>
      </trkpt>
      <trkpt lat="44.13257" lon="2.24867">
        <ele>257</ele>
        <time>2022-09-11T07:41:48.909Z</time>
      </trkpt>
      <trkpt lat="44.13257" lon="2.24869">
        <ele>257</ele>
        <time>2022-09-11T07:41:49.909Z</time>
      </trkpt>
      <trkpt lat="44.13257" lon="2.2487">
        <ele>257</ele>
        <time>2022-09-11T07:41:50.909Z</time>
      </trkpt>
      <trkpt lat="44.13257" lon="2.24871">
        <ele>257</ele>
        <time>2022-09-11T07:41:51.909Z</time>
      </trkpt>
      <trkpt lat="44.13256" lon="2.24872">
        <ele>257</ele>
        <time>2022-09-11T07:41:52.909Z</time>
      </trkpt>
      <trkpt lat="44.13256" lon="2.24873">
        <ele>257</ele>
        <time>2022-09-11T07:41:53.909Z</time>
      </trkpt>
      <trkpt lat="44.13255" lon="2.24874">
        <ele>257</ele>
        <time>2022-09-11T07:41:54.909Z</time>
      </trkpt>
      <trkpt lat="44.13255" lon="2.24875">
        <ele>257</ele>
        <time>2022-09-11T07:41:55.909Z</time>
      </trkpt>
      <trkpt lat="44.13255" lon="2.24876">
        <ele>257</ele>
        <time>2022-09-11T07:41:56.909Z</time>
      </trkpt>
      <trkpt lat="44.13255" lon="2.24876">
        <ele>257</ele>
        <time>2022-09-11T07:41:57.909Z</time>
      </trkpt>
      <trkpt lat="44.13254" lon="2.24877">
        <ele>257</ele>
        <time>2022-09-11T07:41:58.909Z</time>
      </trkpt>
      <trkpt lat="44.13252" lon="2.24882">
        <ele>263</ele>
        <time>2022-09-11T07:43:08.914Z</time>
      </trkpt>
      <trkpt lat="44.13252" lon="2.24883">
        <ele>263</ele>
        <time>2022-09-11T07:43:09.914Z</time>
      </trkpt>
      <trkpt lat="44.13252" lon="2.24884">
        <ele>263</ele>
        <time>2022-09-11T07:43:10.914Z</time>
      </trkpt>
      <trkpt lat="44.13252" lon="2.24885">
        <ele>264</ele>
        <time>2022-09-11T07:43:11.914Z</time>
      </trkpt>
      <trkpt lat="44.13251" lon="2.24887">
        <ele>264</ele>
        <time>2022-09-11T07:43:12.914Z</time>
      </trkpt>
      <trkpt lat="44.13251" lon="2.24889">
        <ele>264</ele>
        <time>2022-09-11T07:43:13.914Z</time>
      </trkpt>
      <trkpt lat="44.1325" lon="2.24891">
        <ele>264</ele>
        <time>2022-09-11T07:43:14.914Z</time>
      </trkpt>
      <trkpt lat="44.1325" lon="2.24892">
        <ele>264</ele>
        <time>2022-09-11T07:43:15.914Z</time>
      </trkpt>
      <trkpt lat="44.1325" lon="2.24894">
        <ele>264</ele>
        <time>2022-09-11T07:43:16.914Z</time>
      </trkpt>
      <trkpt lat="44.13249" lon="2.24895">
        <ele>264</ele>
        <time>2022-09-11T07:43:17.914Z</time>
      </trkpt>
      <trkpt lat="44.13249" lon="2.24895">
        <ele>264</ele>
        <time>2022-09-11T07:43:18.914Z</time>
      </trkpt>
      <trkpt lat="44.13249" lon="2.24896">
        <ele>264</ele>
        <time>2022-09-11T07:43:19.914Z</time>
      </trkpt>
      <trkpt lat="44.13248" lon="2.24897">
        <ele>264</ele>
        <time>2022-09-11T07:43:20.914Z</time>
      </trkpt>
      <trkpt lat="44.13248" lon="2.24898">
        <ele>264</ele>
        <time>2022-09-11T07:43:21.914Z</time>
      </trkpt>
      <trkpt lat="44.13247" lon="2.24899">
        <ele>264</ele>
        <time>2022-09-11T07:43:22.914Z</time>
      </trkpt>
      <trkpt lat="44.13247" lon="2.249">
        <ele>264</ele>
        <time>2022-09-11T07:43:23.914Z</time>
      </trkpt>
      <trkpt lat="44.13246" lon="2.24901">
        <ele>264</ele>
        <time>2022-09-11T07:43:24.914Z</time>
      </trkpt>
      <trkpt lat="44.13246" lon="2.24902">
        <ele>264</ele>
        <time>2022-09-11T07:43:25.914Z</time>
      </trkpt>
      <trkpt lat="44.13245" lon="2.24903">
        <ele>264</ele>
        <time>2022-09-11T07:43:26.914Z</time>
      </trkpt>
      <trkpt lat="44.13245" lon="2.24904">
        <ele>264</ele>
        <time>2022-09-11T07:43:27.914Z</time>
      </trkpt>
      <trkpt lat="44.13244" lon="2.24905">
        <ele>264</ele>
        <time>2022-09-11T07:43:28.914Z</time>
      </trkpt>
      <trkpt lat="44.13244" lon="2.24906">
        <ele>264</ele>
        <time>2022-09-11T07:43:29.914Z</time>
      </trkpt>
      <trkpt lat="44.13243" lon="2.24907">
        <ele>264</ele>
        <time>2022-09-11T07:43:30.914Z</time>
      </trkpt>
      <trkpt lat="44.13243" lon="2.24909">
        <ele>264</ele>
        <time>2022-09-11T07:43:31.914Z</time>
      </trkpt>
      <trkpt lat="44.13242" lon="2.2491">
        <ele>264</ele>
        <time>2022-09-11T07:43:32.914Z</time>
      </trkpt>
      <trkpt lat="44.13241" lon="2.24911">
        <ele>264</ele>
        <time>2022-09-11T07:43:33.914Z</time>
      </trkpt>
      <trkpt lat="44.1324" lon="2.24912">
        <ele>264</ele>
        <time>2022-09-11T07:43:34.914Z</time>
      </trkpt>
      <trkpt lat="44.1324" lon="2.24913">
        <ele>264</ele>
        <time>2022-09-11T07:43:35.914Z</time>
      </trkpt>
      <trkpt lat="44.13239" lon="2.24915">
        <ele>264</ele>
        <time>2022-09-11T07:43:36.914Z</time>
      </trkpt>
      <trkpt lat="44.13239" lon="2.24916">
        <ele>264</ele>
        <time>2022-09-11T07:43:37.914Z</time>
      </trkpt>
      <trkpt lat="44.13239" lon="2.24917">
        <ele>264</ele>
        <time>2022-09-11T07:43:38.914Z</time>
      </trkpt>
      <trkpt lat="44.13239" lon="2.24919">
        <ele>264</ele>
        <time>2022-09-11T07:43:39.914Z</time>
      </trkpt>
      <trkpt lat="44.13238" lon="2.2492">
        <ele>264</ele>
        <time>2022-09-11T07:43:40.914Z</time>
      </trkpt>
      <trkpt lat="44.13238" lon="2.24921">
        <ele>264</ele>
        <time>2022-09-11T07:43:41.914Z</time>
      </trkpt>
      <trkpt lat="44.13238" lon="2.24922">
        <ele>264</ele>
        <time>2022-09-11T07:43:42.914Z</time>
      </trkpt>
      <trkpt lat="44.13237" lon="2.24923">
        <ele>264</ele>
        <time>2022-09-11T07:43:43.914Z</time>
      </trkpt>
      <trkpt lat="44.13237" lon="2.24924">
        <ele>264</ele>
        <time>2022-09-11T07:43:44.914Z</time>
      </trkpt>
      <trkpt lat="44.13236" lon="2.24925">
        <ele>264</ele>
        <time>2022-09-11T07:43:45.914Z</time>
      </trkpt>
      <trkpt lat="44.13236" lon="2.24926">
        <ele>264</ele>
        <time>2022-09-11T07:43:46.914Z</time>
      </trkpt>
      <trkpt lat="44.13235" lon="2.24927">
        <ele>264</ele>
        <time>2022-09-11T07:43:47.914Z</time>
      </trkpt>
      <trkpt lat="44.13235" lon="2.24928">
        <ele>264</ele>
        <time>2022-09-11T07:43:48.914Z</time>
      </trkpt>
      <trkpt lat="44.13234" lon="2.24929">
        <ele>263</ele>
        <time>2022-09-11T07:43:49.914Z</time>
      </trkpt>
      <trkpt lat="44.13234" lon="2.2493">
        <ele>263</ele>
        <time>2022-09-11T07:43:50.914Z</time>
      </trkpt>
      <trkpt lat="44.13233" lon="2.24931">
        <ele>263</ele>
        <time>2022-09-11T07:43:51.914Z</time>
      </trkpt>
      <trkpt lat="44.13233" lon="2.24932">
        <ele>263</ele>
        <time>2022-09-11T07:43:52.914Z</time>
      </trkpt>
      <trkpt lat="44.13232" lon="2.24933">
        <ele>263</ele>
        <time>2022-09-11T07:43:53.914Z</time>
      </trkpt>
      <trkpt lat="44.13232" lon="2.24934">
        <ele>263</ele>
        <time>2022-09-11T07:43:54.914Z</time>
      </trkpt>
      <trkpt lat="44.13232" lon="2.24935">
        <ele>263</ele>
        <time>2022-09-11T07:43:55.914Z</time>
      </trkpt>
      <trkpt lat="44.13232" lon="2.24936">
        <ele>263</ele>
        <time>2022-09-11T07:43:56.914Z</time>
      </trkpt>
      <trkpt lat="44.13231" lon="2.24937">
        <ele>263</ele>
        <time>2022-09-11T07:43:57.914Z</time>
      </trkpt>
      <trkpt lat="44.13231" lon="2.24938">
        <ele>263</ele>
        <time>2022-09-11T07:43:58.914Z</time>
      </trkpt>
      <trkpt lat="44.1323" lon="2.24939">
        <ele>263</ele>
        <time>2022-09-11T07:43:59.914Z</time>
      </trkpt>
      <trkpt lat="44.1323" lon="2.2494">
        <ele>263</ele>
        <time>2022-09-11T07:44:00.914Z</time>
      </trkpt>
      <trkpt lat="44.1323" lon="2.24941">
        <ele>263</ele>
        <time>2022-09-11T07:44:01.914Z</time>
      </trkpt>
      <trkpt lat="44.1323" lon="2.24942">
        <ele>263</ele>
        <time>2022-09-11T07:44:02.914Z</time>
      </trkpt>
      <trkpt lat="44.13229" lon="2.24943">
        <ele>263</ele>
        <time>2022-09-11T07:44:03.914Z</time>
      </trkpt>
      <trkpt lat="44.13229" lon="2.24944">
        <ele>263</ele>
        <time>2022-09-11T07:44:04.914Z</time>
      </trkpt>
      <trkpt lat="44.13229" lon="2.24946">
        <ele>263</ele>
        <time>2022-09-11T07:44:05.914Z</time>
      </trkpt>
      <trkpt lat="44.13228" lon="2.24947">
        <ele>263</ele>
        <time>2022-09-11T07:44:06.914Z</time>
      </trkpt>
      <trkpt lat="44.13228" lon="2.24948">
        <ele>263</ele>
        <time>2022-09-11T07:44:07.914Z</time>
      </trkpt>
      <trkpt lat="44.13227" lon="2.24949">
        <ele>264</ele>
        <time>2022-09-11T07:44:08.914Z</time>
      </trkpt>
      <trkpt lat="44.13227" lon="2.24949">
        <ele>264</ele>
        <time>2022-09-11T07:44:09.914Z</time>
      </trkpt>
      <trkpt lat="44.13227" lon="2.24949">
        <ele>264</ele>
        <time>2022-09-11T07:44:10.914Z</time>
      </trkpt>
      <trkpt lat="44.13227" lon="2.2495">
        <ele>264</ele>
        <time>2022-09-11T07:44:11.914Z</time>
      </trkpt>
      <trkpt lat="44.13226" lon="2.24954">
        <ele>263</ele>
        <time>2022-09-11T07:44:20.922Z</time>
      </trkpt>
      <trkpt lat="44.13226" lon="2.24954">
        <ele>263</ele>
        <time>2022-09-11T07:44:21.922Z</time>
      </trkpt>
      <trkpt lat="44.13226" lon="2.24955">
        <ele>264</ele>
        <time>2022-09-11T07:44:22.922Z</time>
      </trkpt>
      <trkpt lat="44.13226" lon="2.24956">
        <ele>264</ele>
        <time>2022-09-11T07:44:23.922Z</time>
      </trkpt>
      <trkpt lat="44.13226" lon="2.24957">
        <ele>264</ele>
        <time>2022-09-11T07:44:24.922Z</time>
      </trkpt>
      <trkpt lat="44.13226" lon="2.24958">
        <ele>263</ele>
        <time>2022-09-11T07:44:25.922Z</time>
      </trkpt>
      <trkpt lat="44.13226" lon="2.24959">
        <ele>263</ele>
        <time>2022-09-11T07:44:26.922Z</time>
      </trkpt>
      <trkpt lat="44.13226" lon="2.2496">
        <ele>263</ele>
        <time>2022-09-11T07:44:27.922Z</time>
      </trkpt>
      <trkpt lat="44.13226" lon="2.24961">
        <ele>263</ele>
        <time>2022-09-11T07:44:28.922Z</time>
      </trkpt>
      <trkpt lat="44.13226" lon="2.24962">
        <ele>263</ele>
        <time>2022-09-11T07:44:29.922Z</time>
      </trkpt>
      <trkpt lat="44.13226" lon="2.24963">
        <ele>263</ele>
        <time>2022-09-11T07:44:30.922Z</time>
      </trkpt>
      <trkpt lat="44.13226" lon="2.24964">
        <ele>263</ele>
        <time>2022-09-11T07:44:31.922Z</time>
      </trkpt>
      <trkpt lat="44.13226" lon="2.24964">
        <ele>263</ele>
        <time>2022-09-11T07:44:32.922Z</time>
      </trkpt>
      <trkpt lat="44.13226" lon="2.24964">
        <ele>263</ele>
        <time>2022-09-11T07:44:33.922Z</time>
      </trkpt>
      <trkpt lat="44.13226" lon="2.24967">
        <ele>263</ele>
        <time>2022-09-11T07:44:37.177Z</time>
      </trkpt>
      <trkpt lat="44.13226" lon="2.24968">
        <ele>263</ele>
        <time>2022-09-11T07:44:38.177Z</time>
      </trkpt>
      <trkpt lat="44.13225" lon="2.24969">
        <ele>263</ele>
        <time>2022-09-11T07:44:39.177Z</time>
      </trkpt>
      <trkpt lat="44.13225" lon="2.24971">
        <ele>263</ele>
        <time>2022-09-11T07:44:40.177Z</time>
      </trkpt>
      <trkpt lat="44.13225" lon="2.24971">
        <ele>263</ele>
        <time>2022-09-11T07:44:41.177Z</time>
      </trkpt>
      <trkpt lat="44.13224" lon="2.24972">
        <ele>263</ele>
        <time>2022-09-11T07:44:42.177Z</time>
      </trkpt>
      <trkpt lat="44.13224" lon="2.24974">
        <ele>263</ele>
        <time>2022-09-11T07:44:43.177Z</time>
      </trkpt>
      <trkpt lat="44.13223" lon="2.24975">
        <ele>263</ele>
        <time>2022-09-11T07:44:44.177Z</time>
      </trkpt>
      <trkpt lat="44.13222" lon="2.24976">
        <ele>263</ele>
        <time>2022-09-11T07:44:45.177Z</time>
      </trkpt>
      <trkpt lat="44.13222" lon="2.24978">
        <ele>263</ele>
        <time>2022-09-11T07:44:46.177Z</time>
      </trkpt>
      <trkpt lat="44.13222" lon="2.24979">
        <ele>262</ele>
        <time>2022-09-11T07:44:47.177Z</time>
      </trkpt>
      <trkpt lat="44.13221" lon="2.2498">
        <ele>262</ele>
        <time>2022-09-11T07:44:48.177Z</time>
      </trkpt>
      <trkpt lat="44.13221" lon="2.24982">
        <ele>262</ele>
        <time>2022-09-11T07:44:49.177Z</time>
      </trkpt>
      <trkpt lat="44.1322" lon="2.24983">
        <ele>262</ele>
        <time>2022-09-11T07:44:50.177Z</time>
      </trkpt>
      <trkpt lat="44.1322" lon="2.24985">
        <ele>262</ele>
        <time>2022-09-11T07:44:51.177Z</time>
      </trkpt>
      <trkpt lat="44.13219" lon="2.24986">
        <ele>262</ele>
        <time>2022-09-11T07:44:52.177Z</time>
      </trkpt>
      <trkpt lat="44.13219" lon="2.24988">
        <ele>262</ele>
        <time>2022-09-11T07:44:53.177Z</time>
      </trkpt>
      <trkpt lat="44.13218" lon="2.24989">
        <ele>263</ele>
        <time>2022-09-11T07:44:54.177Z</time>
      </trkpt>
      <trkpt lat="44.13217" lon="2.2499">
        <ele>263</ele>
        <time>2022-09-11T07:44:55.177Z</time>
      </trkpt>
      <trkpt lat="44.13216" lon="2.24992">
        <ele>263</ele>
        <time>2022-09-11T07:44:56.177Z</time>
      </trkpt>
      <trkpt lat="44.13216" lon="2.24993">
        <ele>263</ele>
        <time>2022-09-11T07:44:57.177Z</time>
      </trkpt>
      <trkpt lat="44.13215" lon="2.24995">
        <ele>263</ele>
        <time>2022-09-11T07:44:58.177Z</time>
      </trkpt>
      <trkpt lat="44.13214" lon="2.24996">
        <ele>263</ele>
        <time>2022-09-11T07:44:59.177Z</time>
      </trkpt>
      <trkpt lat="44.13214" lon="2.24998">
        <ele>263</ele>
        <time>2022-09-11T07:45:00.177Z</time>
      </trkpt>
      <trkpt lat="44.13214" lon="2.24999">
        <ele>263</ele>
        <time>2022-09-11T07:45:01.177Z</time>
      </trkpt>
      <trkpt lat="44.13213" lon="2.25">
        <ele>263</ele>
        <time>2022-09-11T07:45:02.177Z</time>
      </trkpt>
      <trkpt lat="44.13213" lon="2.25002">
        <ele>263</ele>
        <time>2022-09-11T07:45:03.177Z</time>
      </trkpt>
      <trkpt lat="44.13212" lon="2.25003">
        <ele>263</ele>
        <time>2022-09-11T07:45:04.177Z</time>
      </trkpt>
      <trkpt lat="44.13211" lon="2.25004">
        <ele>263</ele>
        <time>2022-09-11T07:45:05.177Z</time>
      </trkpt>
      <trkpt lat="44.13211" lon="2.25006">
        <ele>263</ele>
        <time>2022-09-11T07:45:06.177Z</time>
      </trkpt>
      <trkpt lat="44.1321" lon="2.25007">
        <ele>263</ele>
        <time>2022-09-11T07:45:07.177Z</time>
      </trkpt>
      <trkpt lat="44.13209" lon="2.25008">
        <ele>263</ele>
        <time>2022-09-11T07:45:08.177Z</time>
      </trkpt>
      <trkpt lat="44.13209" lon="2.25009">
        <ele>263</ele>
        <time>2022-09-11T07:45:09.177Z</time>
      </trkpt>
      <trkpt lat="44.13209" lon="2.25011">
        <ele>263</ele>
        <time>2022-09-11T07:45:10.177Z</time>
      </trkpt>
      <trkpt lat="44.13209" lon="2.25013">
        <ele>263</ele>
        <time>2022-09-11T07:45:11.177Z</time>
      </trkpt>
      <trkpt lat="44.13209" lon="2.25014">
        <ele>264</ele>
        <time>2022-09-11T07:45:12.177Z</time>
      </trkpt>
      <trkpt lat="44.13209" lon="2.25016">
        <ele>264</ele>
        <time>2022-09-11T07:45:13.177Z</time>
      </trkpt>
      <trkpt lat="44.13208" lon="2.25018">
        <ele>264</ele>
        <time>2022-09-11T07:45:14.177Z</time>
      </trkpt>
      <trkpt lat="44.13208" lon="2.2502">
        <ele>264</ele>
        <time>2022-09-11T07:45:15.177Z</time>
      </trkpt>
      <trkpt lat="44.13208" lon="2.25021">
        <ele>264</ele>
        <time>2022-09-11T07:45:16.177Z</time>
      </trkpt>
      <trkpt lat="44.13208" lon="2.25023">
        <ele>264</ele>
        <time>2022-09-11T07:45:17.177Z</time>
      </trkpt>
      <trkpt lat="44.13208" lon="2.25025">
        <ele>264</ele>
        <time>2022-09-11T07:45:18.177Z</time>
      </trkpt>
      <trkpt lat="44.13208" lon="2.25027">
        <ele>264</ele>
        <time>2022-09-11T07:45:19.177Z</time>
      </trkpt>
      <trkpt lat="44.13208" lon="2.25027">
        <ele>264</ele>
        <time>2022-09-11T07:45:20.177Z</time>
      </trkpt>
      <trkpt lat="44.13208" lon="2.25029">
        <ele>265</ele>
        <time>2022-09-11T07:45:21.177Z</time>
      </trkpt>
      <trkpt lat="44.13208" lon="2.2503">
        <ele>265</ele>
        <time>2022-09-11T07:45:22.177Z</time>
      </trkpt>
      <trkpt lat="44.13207" lon="2.25032">
        <ele>265</ele>
        <time>2022-09-11T07:45:23.177Z</time>
      </trkpt>
      <trkpt lat="44.13207" lon="2.25033">
        <ele>265</ele>
        <time>2022-09-11T07:45:24.177Z</time>
      </trkpt>
      <trkpt lat="44.13207" lon="2.25035">
        <ele>265</ele>
        <time>2022-09-11T07:45:25.177Z</time>
      </trkpt>
      <trkpt lat="44.13207" lon="2.25036">
        <ele>265</ele>
        <time>2022-09-11T07:45:26.177Z</time>
      </trkpt>
      <trkpt lat="44.13207" lon="2.25038">
        <ele>265</ele>
        <time>2022-09-11T07:45:27.177Z</time>
      </trkpt>
      <trkpt lat="44.13207" lon="2.2504">
        <ele>265</ele>
        <time>2022-09-11T07:45:28.177Z</time>
      </trkpt>
      <trkpt lat="44.13207" lon="2.25042">
        <ele>265</ele>
        <time>2022-09-11T07:45:29.177Z</time>
      </trkpt>
      <trkpt lat="44.13207" lon="2.25044">
        <ele>265</ele>
        <time>2022-09-11T07:45:30.177Z</time>
      </trkpt>
      <trkpt lat="44.13206" lon="2.25046">
        <ele>265</ele>
        <time>2022-09-11T07:45:31.177Z</time>
      </trkpt>
      <trkpt lat="44.13206" lon="2.25047">
        <ele>265</ele>
        <time>2022-09-11T07:45:32.177Z</time>
      </trkpt>
      <trkpt lat="44.13205" lon="2.25048">
        <ele>265</ele>
        <time>2022-09-11T07:45:33.177Z</time>
      </trkpt>
      <trkpt lat="44.13204" lon="2.2505">
        <ele>265</ele>
        <time>2022-09-11T07:45:34.177Z</time>
      </trkpt>
      <trkpt lat="44.13204" lon="2.25051">
        <ele>265</ele>
        <time>2022-09-11T07:45:35.177Z</time>
      </trkpt>
      <trkpt lat="44.13203" lon="2.25052">
        <ele>265</ele>
        <time>2022-09-11T07:45:36.177Z</time>
      </trkpt>
      <trkpt lat="44.13203" lon="2.25053">
        <ele>265</ele>
        <time>2022-09-11T07:45:37.177Z</time>
      </trkpt>
      <trkpt lat="44.13203" lon="2.25055">
        <ele>265</ele>
        <time>2022-09-11T07:45:38.177Z</time>
      </trkpt>
      <trkpt lat="44.13202" lon="2.25056">
        <ele>264</ele>
        <time>2022-09-11T07:45:39.177Z</time>
      </trkpt>
      <trkpt lat="44.13202" lon="2.25058">
        <ele>265</ele>
        <time>2022-09-11T07:45:40.177Z</time>
      </trkpt>
      <trkpt lat="44.13201" lon="2.25059">
        <ele>265</ele>
        <time>2022-09-11T07:45:41.177Z</time>
      </trkpt>
      <trkpt lat="44.13201" lon="2.2506">
        <ele>265</ele>
        <time>2022-09-11T07:45:42.177Z</time>
      </trkpt>
      <trkpt lat="44.13201" lon="2.25062">
        <ele>265</ele>
        <time>2022-09-11T07:45:43.177Z</time>
      </trkpt>
      <trkpt lat="44.13201" lon="2.25063">
        <ele>264</ele>
        <time>2022-09-11T07:45:44.177Z</time>
      </trkpt>
      <trkpt lat="44.13201" lon="2.25065">
        <ele>264</ele>
        <time>2022-09-11T07:45:45.177Z</time>
      </trkpt>
      <trkpt lat="44.13201" lon="2.25067">
        <ele>264</ele>
        <time>2022-09-11T07:45:46.177Z</time>
      </trkpt>
      <trkpt lat="44.13201" lon="2.25069">
        <ele>264</ele>
        <time>2022-09-11T07:45:47.177Z</time>
      </trkpt>
      <trkpt lat="44.132" lon="2.25071">
        <ele>264</ele>
        <time>2022-09-11T07:45:48.177Z</time>
      </trkpt>
      <trkpt lat="44.132" lon="2.25073">
        <ele>264</ele>
        <time>2022-09-11T07:45:49.177Z</time>
      </trkpt>
      <trkpt lat="44.132" lon="2.25076">
        <ele>264</ele>
        <time>2022-09-11T07:45:50.177Z</time>
      </trkpt>
      <trkpt lat="44.132" lon="2.25078">
        <ele>264</ele>
        <time>2022-09-11T07:45:51.177Z</time>
      </trkpt>
      <trkpt lat="44.13199" lon="2.25081">
        <ele>264</ele>
        <time>2022-09-11T07:45:52.177Z</time>
      </trkpt>
      <trkpt lat="44.13199" lon="2.25082">
        <ele>264</ele>
        <time>2022-09-11T07:45:53.177Z</time>
      </trkpt>
      <trkpt lat="44.13199" lon="2.25084">
        <ele>264</ele>
        <time>2022-09-11T07:45:54.177Z</time>
      </trkpt>
      <trkpt lat="44.13198" lon="2.25086">
        <ele>264</ele>
        <time>2022-09-11T07:45:55.177Z</time>
      </trkpt>
      <trkpt lat="44.13198" lon="2.25088">
        <ele>264</ele>
        <time>2022-09-11T07:45:56.177Z</time>
      </trkpt>
      <trkpt lat="44.13198" lon="2.2509">
        <ele>264</ele>
        <time>2022-09-11T07:45:57.177Z</time>
      </trkpt>
      <trkpt lat="44.13197" lon="2.25092">
        <ele>264</ele>
        <time>2022-09-11T07:45:58.177Z</time>
      </trkpt>
      <trkpt lat="44.13197" lon="2.25094">
        <ele>263</ele>
        <time>2022-09-11T07:45:59.177Z</time>
      </trkpt>
      <trkpt lat="44.13197" lon="2.25096">
        <ele>263</ele>
        <time>2022-09-11T07:46:00.177Z</time>
      </trkpt>
      <trkpt lat="44.13197" lon="2.25098">
        <ele>263</ele>
        <time>2022-09-11T07:46:01.177Z</time>
      </trkpt>
      <trkpt lat="44.13197" lon="2.251">
        <ele>263</ele>
        <time>2022-09-11T07:46:02.177Z</time>
      </trkpt>
      <trkpt lat="44.13197" lon="2.25103">
        <ele>263</ele>
        <time>2022-09-11T07:46:03.177Z</time>
      </trkpt>
      <trkpt lat="44.13197" lon="2.25105">
        <ele>263</ele>
        <time>2022-09-11T07:46:04.177Z</time>
      </trkpt>
      <trkpt lat="44.13197" lon="2.25106">
        <ele>263</ele>
        <time>2022-09-11T07:46:05.177Z</time>
      </trkpt>
      <trkpt lat="44.13197" lon="2.25108">
        <ele>263</ele>
        <time>2022-09-11T07:46:06.177Z</time>
      </trkpt>
      <trkpt lat="44.13197" lon="2.2511">
        <ele>263</ele>
        <time>2022-09-11T07:46:07.177Z</time>
      </trkpt>
      <trkpt lat="44.13198" lon="2.25112">
        <ele>263</ele>
        <time>2022-09-11T07:46:08.177Z</time>
      </trkpt>
      <trkpt lat="44.13198" lon="2.25113">
        <ele>263</ele>
        <time>2022-09-11T07:46:09.177Z</time>
      </trkpt>
      <trkpt lat="44.13198" lon="2.25115">
        <ele>263</ele>
        <time>2022-09-11T07:46:10.177Z</time>
      </trkpt>
      <trkpt lat="44.13198" lon="2.25117">
        <ele>263</ele>
        <time>2022-09-11T07:46:11.177Z</time>
      </trkpt>
      <trkpt lat="44.13199" lon="2.25119">
        <ele>263</ele>
        <time>2022-09-11T07:46:12.177Z</time>
      </trkpt>
      <trkpt lat="44.13199" lon="2.25121">
        <ele>263</ele>
        <time>2022-09-11T07:46:13.177Z</time>
      </trkpt>
      <trkpt lat="44.13199" lon="2.25123">
        <ele>263</ele>
        <time>2022-09-11T07:46:14.177Z</time>
      </trkpt>
      <trkpt lat="44.13198" lon="2.25125">
        <ele>263</ele>
        <time>2022-09-11T07:46:15.177Z</time>
      </trkpt>
      <trkpt lat="44.13198" lon="2.25127">
        <ele>263</ele>
        <time>2022-09-11T07:46:16.177Z</time>
      </trkpt>
      <trkpt lat="44.13198" lon="2.25128">
        <ele>263</ele>
        <time>2022-09-11T07:46:17.177Z</time>
      </trkpt>
      <trkpt lat="44.13198" lon="2.25129">
        <ele>263</ele>
        <time>2022-09-11T07:46:18.177Z</time>
      </trkpt>
      <trkpt lat="44.13198" lon="2.25131">
        <ele>263</ele>
        <time>2022-09-11T07:46:19.177Z</time>
      </trkpt>
      <trkpt lat="44.13198" lon="2.25132">
        <ele>263</ele>
        <time>2022-09-11T07:46:20.177Z</time>
      </trkpt>
      <trkpt lat="44.13198" lon="2.25134">
        <ele>263</ele>
        <time>2022-09-11T07:46:21.177Z</time>
      </trkpt>
      <trkpt lat="44.13198" lon="2.25135">
        <ele>263</ele>
        <time>2022-09-11T07:46:22.177Z</time>
      </trkpt>
      <trkpt lat="44.13198" lon="2.25137">
        <ele>263</ele>
        <time>2022-09-11T07:46:23.177Z</time>
      </trkpt>
      <trkpt lat="44.13198" lon="2.25138">
        <ele>263</ele>
        <time>2022-09-11T07:46:24.177Z</time>
      </trkpt>
      <trkpt lat="44.13198" lon="2.25139">
        <ele>263</ele>
        <time>2022-09-11T07:46:25.177Z</time>
      </trkpt>
      <trkpt lat="44.13198" lon="2.2514">
        <ele>262</ele>
        <time>2022-09-11T07:46:26.177Z</time>
      </trkpt>
      <trkpt lat="44.13198" lon="2.25142">
        <ele>262</ele>
        <time>2022-09-11T07:46:27.177Z</time>
      </trkpt>
      <trkpt lat="44.13197" lon="2.25143">
        <ele>262</ele>
        <time>2022-09-11T07:46:28.177Z</time>
      </trkpt>
      <trkpt lat="44.13197" lon="2.25145">
        <ele>262</ele>
        <time>2022-09-11T07:46:29.177Z</time>
      </trkpt>
      <trkpt lat="44.13197" lon="2.25146">
        <ele>262</ele>
        <time>2022-09-11T07:46:30.177Z</time>
      </trkpt>
      <trkpt lat="44.13197" lon="2.25148">
        <ele>262</ele>
        <time>2022-09-11T07:46:31.177Z</time>
      </trkpt>
      <trkpt lat="44.13197" lon="2.25149">
        <ele>262</ele>
        <time>2022-09-11T07:46:32.177Z</time>
      </trkpt>
      <trkpt lat="44.13196" lon="2.2515">
        <ele>261</ele>
        <time>2022-09-11T07:46:33.177Z</time>
      </trkpt>
      <trkpt lat="44.13196" lon="2.25151">
        <ele>261</ele>
        <time>2022-09-11T07:46:34.177Z</time>
      </trkpt>
      <trkpt lat="44.13195" lon="2.25153">
        <ele>261</ele>
        <time>2022-09-11T07:46:35.177Z</time>
      </trkpt>
      <trkpt lat="44.13195" lon="2.25154">
        <ele>261</ele>
        <time>2022-09-11T07:46:36.177Z</time>
      </trkpt>
      <trkpt lat="44.13195" lon="2.25155">
        <ele>261</ele>
        <time>2022-09-11T07:46:37.177Z</time>
      </trkpt>
      <trkpt lat="44.13195" lon="2.25157">
        <ele>261</ele>
        <time>2022-09-11T07:46:38.177Z</time>
      </trkpt>
      <trkpt lat="44.13194" lon="2.25159">
        <ele>261</ele>
        <time>2022-09-11T07:46:39.177Z</time>
      </trkpt>
      <trkpt lat="44.13194" lon="2.2516">
        <ele>261</ele>
        <time>2022-09-11T07:46:40.177Z</time>
      </trkpt>
      <trkpt lat="44.13194" lon="2.25161">
        <ele>261</ele>
        <time>2022-09-11T07:46:41.177Z</time>
      </trkpt>
      <trkpt lat="44.13194" lon="2.25162">
        <ele>261</ele>
        <time>2022-09-11T07:46:42.177Z</time>
      </trkpt>
      <trkpt lat="44.13194" lon="2.25163">
        <ele>262</ele>
        <time>2022-09-11T07:46:43.177Z</time>
      </trkpt>
      <trkpt lat="44.13195" lon="2.25163">
        <ele>262</ele>
        <time>2022-09-11T07:46:44.177Z</time>
      </trkpt>
      <trkpt lat="44.13196" lon="2.25164">
        <ele>262</ele>
        <time>2022-09-11T07:46:45.177Z</time>
      </trkpt>
      <trkpt lat="44.13196" lon="2.25165">
        <ele>262</ele>
        <time>2022-09-11T07:46:46.177Z</time>
      </trkpt>
      <trkpt lat="44.13197" lon="2.25165">
        <ele>262</ele>
        <time>2022-09-11T07:46:47.177Z</time>
      </trkpt>
      <trkpt lat="44.13197" lon="2.25165">
        <ele>262</ele>
        <time>2022-09-11T07:46:48.177Z</time>
      </trkpt>
      <trkpt lat="44.13197" lon="2.25165">
        <ele>262</ele>
        <time>2022-09-11T07:46:49.177Z</time>
      </trkpt>
      <trkpt lat="44.13197" lon="2.25165">
        <ele>262</ele>
        <time>2022-09-11T07:46:50.177Z</time>
      </trkpt>
      <trkpt lat="44.13198" lon="2.25168">
        <ele>262</ele>
        <time>2022-09-11T07:46:56.187Z</time>
      </trkpt>
      <trkpt lat="44.13198" lon="2.25168">
        <ele>262</ele>
        <time>2022-09-11T07:46:57.187Z</time>
      </trkpt>
      <trkpt lat="44.13198" lon="2.25172">
        <ele>262</ele>
        <time>2022-09-11T07:47:06.181Z</time>
      </trkpt>
      <trkpt lat="44.13198" lon="2.25173">
        <ele>262</ele>
        <time>2022-09-11T07:47:07.181Z</time>
      </trkpt>
      <trkpt lat="44.13198" lon="2.25173">
        <ele>262</ele>
        <time>2022-09-11T07:47:08.181Z</time>
      </trkpt>
      <trkpt lat="44.13197" lon="2.25174">
        <ele>262</ele>
        <time>2022-09-11T07:47:09.181Z</time>
      </trkpt>
      <trkpt lat="44.13197" lon="2.25174">
        <ele>262</ele>
        <time>2022-09-11T07:47:10.181Z</time>
      </trkpt>
      <trkpt lat="44.13196" lon="2.25174">
        <ele>262</ele>
        <time>2022-09-11T07:47:11.181Z</time>
      </trkpt>
      <trkpt lat="44.13196" lon="2.25175">
        <ele>262</ele>
        <time>2022-09-11T07:47:12.181Z</time>
      </trkpt>
      <trkpt lat="44.13195" lon="2.25175">
        <ele>261</ele>
        <time>2022-09-11T07:47:13.181Z</time>
      </trkpt>
      <trkpt lat="44.13195" lon="2.25176">
        <ele>262</ele>
        <time>2022-09-11T07:47:14.181Z</time>
      </trkpt>
      <trkpt lat="44.13195" lon="2.25176">
        <ele>262</ele>
        <time>2022-09-11T07:47:15.181Z</time>
      </trkpt>
      <trkpt lat="44.13194" lon="2.25177">
        <ele>262</ele>
        <time>2022-09-11T07:47:16.181Z</time>
      </trkpt>
      <trkpt lat="44.13194" lon="2.25178">
        <ele>262</ele>
        <time>2022-09-11T07:47:17.181Z</time>
      </trkpt>
      <trkpt lat="44.13194" lon="2.25178">
        <ele>262</ele>
        <time>2022-09-11T07:47:18.181Z</time>
      </trkpt>
      <trkpt lat="44.13194" lon="2.25179">
        <ele>262</ele>
        <time>2022-09-11T07:47:19.181Z</time>
      </trkpt>
      <trkpt lat="44.13194" lon="2.25179">
        <ele>262</ele>
        <time>2022-09-11T07:47:20.181Z</time>
      </trkpt>
      <trkpt lat="44.13194" lon="2.25183">
        <ele>262</ele>
        <time>2022-09-11T07:47:26.191Z</time>
      </trkpt>
      <trkpt lat="44.13194" lon="2.25184">
        <ele>262</ele>
        <time>2022-09-11T07:47:27.191Z</time>
      </trkpt>
      <trkpt lat="44.13193" lon="2.25184">
        <ele>262</ele>
        <time>2022-09-11T07:47:28.191Z</time>
      </trkpt>
      <trkpt lat="44.13193" lon="2.25185">
        <ele>262</ele>
        <time>2022-09-11T07:47:29.191Z</time>
      </trkpt>
      <trkpt lat="44.13193" lon="2.25186">
        <ele>262</ele>
        <time>2022-09-11T07:47:30.191Z</time>
      </trkpt>
      <trkpt lat="44.13193" lon="2.25186">
        <ele>262</ele>
        <time>2022-09-11T07:47:31.191Z</time>
      </trkpt>
      <trkpt lat="44.13193" lon="2.25187">
        <ele>262</ele>
        <time>2022-09-11T07:47:32.191Z</time>
      </trkpt>
      <trkpt lat="44.13193" lon="2.25188">
        <ele>262</ele>
        <time>2022-09-11T07:47:33.191Z</time>
      </trkpt>
      <trkpt lat="44.13193" lon="2.25189">
        <ele>262</ele>
        <time>2022-09-11T07:47:34.191Z</time>
      </trkpt>
      <trkpt lat="44.13193" lon="2.2519">
        <ele>262</ele>
        <time>2022-09-11T07:47:35.191Z</time>
      </trkpt>
      <trkpt lat="44.13193" lon="2.25191">
        <ele>262</ele>
        <time>2022-09-11T07:47:36.191Z</time>
      </trkpt>
      <trkpt lat="44.13193" lon="2.25193">
        <ele>262</ele>
        <time>2022-09-11T07:47:37.191Z</time>
      </trkpt>
      <trkpt lat="44.13192" lon="2.25195">
        <ele>262</ele>
        <time>2022-09-11T07:47:38.191Z</time>
      </trkpt>
      <trkpt lat="44.13192" lon="2.25196">
        <ele>262</ele>
        <time>2022-09-11T07:47:39.191Z</time>
      </trkpt>
      <trkpt lat="44.13191" lon="2.25198">
        <ele>262</ele>
        <time>2022-09-11T07:47:40.191Z</time>
      </trkpt>
      <trkpt lat="44.13191" lon="2.25199">
        <ele>262</ele>
        <time>2022-09-11T07:47:41.191Z</time>
      </trkpt>
      <trkpt lat="44.1319" lon="2.252">
        <ele>262</ele>
        <time>2022-09-11T07:47:42.191Z</time>
      </trkpt>
      <trkpt lat="44.1319" lon="2.25202">
        <ele>262</ele>
        <time>2022-09-11T07:47:43.191Z</time>
      </trkpt>
      <trkpt lat="44.13189" lon="2.25203">
        <ele>262</ele>
        <time>2022-09-11T07:47:44.191Z</time>
      </trkpt>
      <trkpt lat="44.13189" lon="2.25205">
        <ele>261</ele>
        <time>2022-09-11T07:47:45.191Z</time>
      </trkpt>
      <trkpt lat="44.13188" lon="2.25206">
        <ele>261</ele>
        <time>2022-09-11T07:47:46.191Z</time>
      </trkpt>
      <trkpt lat="44.13188" lon="2.25207">
        <ele>261</ele>
        <time>2022-09-11T07:47:47.191Z</time>
      </trkpt>
      <trkpt lat="44.13187" lon="2.25208">
        <ele>261</ele>
        <time>2022-09-11T07:47:48.191Z</time>
      </trkpt>
      <trkpt lat="44.13187" lon="2.25209">
        <ele>261</ele>
        <time>2022-09-11T07:47:49.191Z</time>
      </trkpt>
      <trkpt lat="44.13186" lon="2.2521">
        <ele>261</ele>
        <time>2022-09-11T07:47:50.191Z</time>
      </trkpt>
      <trkpt lat="44.13186" lon="2.25211">
        <ele>261</ele>
        <time>2022-09-11T07:47:51.191Z</time>
      </trkpt>
      <trkpt lat="44.13186" lon="2.25211">
        <ele>261</ele>
        <time>2022-09-11T07:47:52.191Z</time>
      </trkpt>
      <trkpt lat="44.13185" lon="2.25212">
        <ele>261</ele>
        <time>2022-09-11T07:47:53.191Z</time>
      </trkpt>
      <trkpt lat="44.13185" lon="2.25213">
        <ele>261</ele>
        <time>2022-09-11T07:47:54.191Z</time>
      </trkpt>
      <trkpt lat="44.13184" lon="2.25213">
        <ele>261</ele>
        <time>2022-09-11T07:47:55.191Z</time>
      </trkpt>
      <trkpt lat="44.13183" lon="2.25214">
        <ele>261</ele>
        <time>2022-09-11T07:47:56.191Z</time>
      </trkpt>
      <trkpt lat="44.13183" lon="2.25214">
        <ele>261</ele>
        <time>2022-09-11T07:47:57.191Z</time>
      </trkpt>
      <trkpt lat="44.13182" lon="2.25215">
        <ele>261</ele>
        <time>2022-09-11T07:47:58.191Z</time>
      </trkpt>
      <trkpt lat="44.13182" lon="2.25216">
        <ele>261</ele>
        <time>2022-09-11T07:47:59.191Z</time>
      </trkpt>
      <trkpt lat="44.13182" lon="2.25217">
        <ele>261</ele>
        <time>2022-09-11T07:48:00.191Z</time>
      </trkpt>
      <trkpt lat="44.13182" lon="2.25219">
        <ele>261</ele>
        <time>2022-09-11T07:48:01.191Z</time>
      </trkpt>
      <trkpt lat="44.13182" lon="2.2522">
        <ele>261</ele>
        <time>2022-09-11T07:48:02.191Z</time>
      </trkpt>
      <trkpt lat="44.13182" lon="2.25222">
        <ele>262</ele>
        <time>2022-09-11T07:48:03.191Z</time>
      </trkpt>
      <trkpt lat="44.13182" lon="2.25223">
        <ele>262</ele>
        <time>2022-09-11T07:48:04.191Z</time>
      </trkpt>
      <trkpt lat="44.13181" lon="2.25225">
        <ele>262</ele>
        <time>2022-09-11T07:48:05.191Z</time>
      </trkpt>
      <trkpt lat="44.13181" lon="2.25226">
        <ele>262</ele>
        <time>2022-09-11T07:48:06.191Z</time>
      </trkpt>
      <trkpt lat="44.13181" lon="2.25228">
        <ele>262</ele>
        <time>2022-09-11T07:48:07.191Z</time>
      </trkpt>
      <trkpt lat="44.13182" lon="2.25229">
        <ele>262</ele>
        <time>2022-09-11T07:48:08.191Z</time>
      </trkpt>
      <trkpt lat="44.13182" lon="2.25231">
        <ele>262</ele>
        <time>2022-09-11T07:48:09.191Z</time>
      </trkpt>
      <trkpt lat="44.13181" lon="2.25232">
        <ele>262</ele>
        <time>2022-09-11T07:48:10.191Z</time>
      </trkpt>
      <trkpt lat="44.13181" lon="2.25233">
        <ele>262</ele>
        <time>2022-09-11T07:48:11.191Z</time>
      </trkpt>
      <trkpt lat="44.13181" lon="2.25234">
        <ele>262</ele>
        <time>2022-09-11T07:48:12.191Z</time>
      </trkpt>
      <trkpt lat="44.13181" lon="2.25235">
        <ele>262</ele>
        <time>2022-09-11T07:48:13.191Z</time>
      </trkpt>
      <trkpt lat="44.1318" lon="2.25236">
        <ele>262</ele>
        <time>2022-09-11T07:48:14.191Z</time>
      </trkpt>
      <trkpt lat="44.1318" lon="2.25237">
        <ele>262</ele>
        <time>2022-09-11T07:48:15.191Z</time>
      </trkpt>
      <trkpt lat="44.1318" lon="2.25238">
        <ele>262</ele>
        <time>2022-09-11T07:48:16.191Z</time>
      </trkpt>
      <trkpt lat="44.1318" lon="2.25239">
        <ele>262</ele>
        <time>2022-09-11T07:48:17.191Z</time>
      </trkpt>
      <trkpt lat="44.1318" lon="2.2524">
        <ele>262</ele>
        <time>2022-09-11T07:48:18.191Z</time>
      </trkpt>
      <trkpt lat="44.13179" lon="2.25242">
        <ele>262</ele>
        <time>2022-09-11T07:48:19.191Z</time>
      </trkpt>
      <trkpt lat="44.13179" lon="2.25243">
        <ele>262</ele>
        <time>2022-09-11T07:48:20.191Z</time>
      </trkpt>
      <trkpt lat="44.13179" lon="2.25244">
        <ele>262</ele>
        <time>2022-09-11T07:48:21.191Z</time>
      </trkpt>
      <trkpt lat="44.13179" lon="2.25245">
        <ele>262</ele>
        <time>2022-09-11T07:48:22.191Z</time>
      </trkpt>
      <trkpt lat="44.13179" lon="2.25246">
        <ele>262</ele>
        <time>2022-09-11T07:48:23.191Z</time>
      </trkpt>
      <trkpt lat="44.13179" lon="2.25247">
        <ele>262</ele>
        <time>2022-09-11T07:48:24.191Z</time>
      </trkpt>
      <trkpt lat="44.13178" lon="2.25248">
        <ele>262</ele>
        <time>2022-09-11T07:48:25.191Z</time>
      </trkpt>
      <trkpt lat="44.13178" lon="2.25249">
        <ele>262</ele>
        <time>2022-09-11T07:48:26.191Z</time>
      </trkpt>
      <trkpt lat="44.13177" lon="2.25249">
        <ele>262</ele>
        <time>2022-09-11T07:48:27.191Z</time>
      </trkpt>
      <trkpt lat="44.13176" lon="2.2525">
        <ele>262</ele>
        <time>2022-09-11T07:48:28.191Z</time>
      </trkpt>
      <trkpt lat="44.13176" lon="2.2525">
        <ele>262</ele>
        <time>2022-09-11T07:48:29.191Z</time>
      </trkpt>
      <trkpt lat="44.13175" lon="2.25251">
        <ele>262</ele>
        <time>2022-09-11T07:48:30.191Z</time>
      </trkpt>
      <trkpt lat="44.13175" lon="2.25252">
        <ele>261</ele>
        <time>2022-09-11T07:48:31.191Z</time>
      </trkpt>
      <trkpt lat="44.13174" lon="2.25253">
        <ele>261</ele>
        <time>2022-09-11T07:48:32.191Z</time>
      </trkpt>
      <trkpt lat="44.13174" lon="2.25254">
        <ele>261</ele>
        <time>2022-09-11T07:48:33.191Z</time>
      </trkpt>
      <trkpt lat="44.13174" lon="2.25255">
        <ele>261</ele>
        <time>2022-09-11T07:48:34.191Z</time>
      </trkpt>
      <trkpt lat="44.13173" lon="2.25256">
        <ele>261</ele>
        <time>2022-09-11T07:48:35.191Z</time>
      </trkpt>
      <trkpt lat="44.13173" lon="2.25256">
        <ele>261</ele>
        <time>2022-09-11T07:48:36.191Z</time>
      </trkpt>
      <trkpt lat="44.13172" lon="2.25257">
        <ele>261</ele>
        <time>2022-09-11T07:48:37.191Z</time>
      </trkpt>
      <trkpt lat="44.13172" lon="2.25258">
        <ele>261</ele>
        <time>2022-09-11T07:48:38.191Z</time>
      </trkpt>
      <trkpt lat="44.13171" lon="2.25258">
        <ele>261</ele>
        <time>2022-09-11T07:48:39.191Z</time>
      </trkpt>
      <trkpt lat="44.13171" lon="2.25259">
        <ele>261</ele>
        <time>2022-09-11T07:48:40.191Z</time>
      </trkpt>
      <trkpt lat="44.1317" lon="2.25261">
        <ele>261</ele>
        <time>2022-09-11T07:48:41.191Z</time>
      </trkpt>
      <trkpt lat="44.1317" lon="2.25262">
        <ele>261</ele>
        <time>2022-09-11T07:48:42.191Z</time>
      </trkpt>
      <trkpt lat="44.13169" lon="2.25263">
        <ele>261</ele>
        <time>2022-09-11T07:48:43.191Z</time>
      </trkpt>
      <trkpt lat="44.13168" lon="2.25264">
        <ele>261</ele>
        <time>2022-09-11T07:48:44.191Z</time>
      </trkpt>
      <trkpt lat="44.13167" lon="2.25265">
        <ele>261</ele>
        <time>2022-09-11T07:48:45.191Z</time>
      </trkpt>
      <trkpt lat="44.13167" lon="2.25267">
        <ele>261</ele>
        <time>2022-09-11T07:48:46.191Z</time>
      </trkpt>
      <trkpt lat="44.13166" lon="2.25268">
        <ele>261</ele>
        <time>2022-09-11T07:48:47.191Z</time>
      </trkpt>
      <trkpt lat="44.13165" lon="2.25268">
        <ele>261</ele>
        <time>2022-09-11T07:48:48.191Z</time>
      </trkpt>
      <trkpt lat="44.13164" lon="2.25269">
        <ele>261</ele>
        <time>2022-09-11T07:48:49.191Z</time>
      </trkpt>
      <trkpt lat="44.13163" lon="2.2527">
        <ele>261</ele>
        <time>2022-09-11T07:48:50.191Z</time>
      </trkpt>
      <trkpt lat="44.13162" lon="2.25271">
        <ele>260</ele>
        <time>2022-09-11T07:48:51.191Z</time>
      </trkpt>
      <trkpt lat="44.13162" lon="2.25272">
        <ele>260</ele>
        <time>2022-09-11T07:48:52.191Z</time>
      </trkpt>
      <trkpt lat="44.13161" lon="2.25273">
        <ele>260</ele>
        <time>2022-09-11T07:48:53.191Z</time>
      </trkpt>
      <trkpt lat="44.1316" lon="2.25274">
        <ele>260</ele>
        <time>2022-09-11T07:48:54.191Z</time>
      </trkpt>
      <trkpt lat="44.13159" lon="2.25275">
        <ele>261</ele>
        <time>2022-09-11T07:48:55.191Z</time>
      </trkpt>
      <trkpt lat="44.13158" lon="2.25276">
        <ele>261</ele>
        <time>2022-09-11T07:48:56.191Z</time>
      </trkpt>
      <trkpt lat="44.13158" lon="2.25277">
        <ele>261</ele>
        <time>2022-09-11T07:48:57.191Z</time>
      </trkpt>
      <trkpt lat="44.13157" lon="2.25278">
        <ele>261</ele>
        <time>2022-09-11T07:48:58.191Z</time>
      </trkpt>
      <trkpt lat="44.13156" lon="2.25279">
        <ele>261</ele>
        <time>2022-09-11T07:48:59.191Z</time>
      </trkpt>
      <trkpt lat="44.13155" lon="2.2528">
        <ele>261</ele>
        <time>2022-09-11T07:49:00.191Z</time>
      </trkpt>
      <trkpt lat="44.13155" lon="2.25281">
        <ele>261</ele>
        <time>2022-09-11T07:49:01.191Z</time>
      </trkpt>
      <trkpt lat="44.13154" lon="2.25281">
        <ele>261</ele>
        <time>2022-09-11T07:49:02.191Z</time>
      </trkpt>
      <trkpt lat="44.13154" lon="2.25283">
        <ele>261</ele>
        <time>2022-09-11T07:49:03.191Z</time>
      </trkpt>
      <trkpt lat="44.13153" lon="2.25283">
        <ele>261</ele>
        <time>2022-09-11T07:49:04.191Z</time>
      </trkpt>
      <trkpt lat="44.13152" lon="2.25283">
        <ele>262</ele>
        <time>2022-09-11T07:49:05.191Z</time>
      </trkpt>
      <trkpt lat="44.13151" lon="2.25284">
        <ele>262</ele>
        <time>2022-09-11T07:49:06.191Z</time>
      </trkpt>
      <trkpt lat="44.1315" lon="2.25285">
        <ele>262</ele>
        <time>2022-09-11T07:49:07.191Z</time>
      </trkpt>
      <trkpt lat="44.1315" lon="2.25285">
        <ele>262</ele>
        <time>2022-09-11T07:49:08.191Z</time>
      </trkpt>
      <trkpt lat="44.1315" lon="2.25286">
        <ele>262</ele>
        <time>2022-09-11T07:49:09.191Z</time>
      </trkpt>
      <trkpt lat="44.13149" lon="2.25287">
        <ele>262</ele>
        <time>2022-09-11T07:49:10.191Z</time>
      </trkpt>
      <trkpt lat="44.13149" lon="2.25288">
        <ele>262</ele>
        <time>2022-09-11T07:49:11.191Z</time>
      </trkpt>
      <trkpt lat="44.13149" lon="2.25288">
        <ele>262</ele>
        <time>2022-09-11T07:49:12.191Z</time>
      </trkpt>
      <trkpt lat="44.1315" lon="2.25292">
        <ele>262</ele>
        <time>2022-09-11T07:49:19.203Z</time>
      </trkpt>
      <trkpt lat="44.1315" lon="2.25293">
        <ele>262</ele>
        <time>2022-09-11T07:49:20.203Z</time>
      </trkpt>
      <trkpt lat="44.1315" lon="2.25294">
        <ele>262</ele>
        <time>2022-09-11T07:49:21.203Z</time>
      </trkpt>
      <trkpt lat="44.1315" lon="2.25296">
        <ele>262</ele>
        <time>2022-09-11T07:49:22.203Z</time>
      </trkpt>
      <trkpt lat="44.1315" lon="2.25297">
        <ele>262</ele>
        <time>2022-09-11T07:49:23.203Z</time>
      </trkpt>
      <trkpt lat="44.13151" lon="2.25298">
        <ele>262</ele>
        <time>2022-09-11T07:49:24.203Z</time>
      </trkpt>
      <trkpt lat="44.13151" lon="2.25298">
        <ele>262</ele>
        <time>2022-09-11T07:49:25.203Z</time>
      </trkpt>
      <trkpt lat="44.1315" lon="2.25299">
        <ele>262</ele>
        <time>2022-09-11T07:49:26.203Z</time>
      </trkpt>
      <trkpt lat="44.1315" lon="2.25299">
        <ele>262</ele>
        <time>2022-09-11T07:49:27.203Z</time>
      </trkpt>
      <trkpt lat="44.1315" lon="2.253">
        <ele>262</ele>
        <time>2022-09-11T07:49:28.203Z</time>
      </trkpt>
      <trkpt lat="44.1315" lon="2.25301">
        <ele>262</ele>
        <time>2022-09-11T07:49:29.203Z</time>
      </trkpt>
      <trkpt lat="44.13149" lon="2.25302">
        <ele>261</ele>
        <time>2022-09-11T07:49:30.203Z</time>
      </trkpt>
      <trkpt lat="44.13149" lon="2.25303">
        <ele>261</ele>
        <time>2022-09-11T07:49:31.203Z</time>
      </trkpt>
      <trkpt lat="44.13148" lon="2.25303">
        <ele>261</ele>
        <time>2022-09-11T07:49:32.203Z</time>
      </trkpt>
      <trkpt lat="44.13148" lon="2.25305">
        <ele>261</ele>
        <time>2022-09-11T07:49:33.203Z</time>
      </trkpt>
      <trkpt lat="44.13147" lon="2.25306">
        <ele>261</ele>
        <time>2022-09-11T07:49:34.203Z</time>
      </trkpt>
      <trkpt lat="44.13146" lon="2.25306">
        <ele>261</ele>
        <time>2022-09-11T07:49:35.203Z</time>
      </trkpt>
      <trkpt lat="44.13146" lon="2.25307">
        <ele>261</ele>
        <time>2022-09-11T07:49:36.203Z</time>
      </trkpt>
      <trkpt lat="44.13145" lon="2.25308">
        <ele>261</ele>
        <time>2022-09-11T07:49:37.203Z</time>
      </trkpt>
      <trkpt lat="44.13145" lon="2.25309">
        <ele>261</ele>
        <time>2022-09-11T07:49:38.203Z</time>
      </trkpt>
      <trkpt lat="44.13144" lon="2.2531">
        <ele>260</ele>
        <time>2022-09-11T07:49:39.203Z</time>
      </trkpt>
      <trkpt lat="44.13143" lon="2.25311">
        <ele>260</ele>
        <time>2022-09-11T07:49:40.203Z</time>
      </trkpt>
      <trkpt lat="44.13143" lon="2.25312">
        <ele>260</ele>
        <time>2022-09-11T07:49:41.203Z</time>
      </trkpt>
      <trkpt lat="44.13143" lon="2.25313">
        <ele>260</ele>
        <time>2022-09-11T07:49:42.203Z</time>
      </trkpt>
      <trkpt lat="44.13142" lon="2.25314">
        <ele>260</ele>
        <time>2022-09-11T07:49:43.203Z</time>
      </trkpt>
      <trkpt lat="44.13142" lon="2.25315">
        <ele>260</ele>
        <time>2022-09-11T07:49:44.203Z</time>
      </trkpt>
      <trkpt lat="44.13141" lon="2.25316">
        <ele>259</ele>
        <time>2022-09-11T07:49:45.203Z</time>
      </trkpt>
      <trkpt lat="44.1314" lon="2.25317">
        <ele>259</ele>
        <time>2022-09-11T07:49:46.203Z</time>
      </trkpt>
      <trkpt lat="44.1314" lon="2.25318">
        <ele>259</ele>
        <time>2022-09-11T07:49:47.203Z</time>
      </trkpt>
      <trkpt lat="44.1314" lon="2.25319">
        <ele>259</ele>
        <time>2022-09-11T07:49:48.203Z</time>
      </trkpt>
      <trkpt lat="44.1314" lon="2.25319">
        <ele>259</ele>
        <time>2022-09-11T07:49:49.203Z</time>
      </trkpt>
      <trkpt lat="44.1314" lon="2.25319">
        <ele>258</ele>
        <time>2022-09-11T07:49:50.203Z</time>
      </trkpt>
      <trkpt lat="44.13139" lon="2.2532">
        <ele>258</ele>
        <time>2022-09-11T07:49:51.203Z</time>
      </trkpt>
      <trkpt lat="44.13138" lon="2.25323">
        <ele>258</ele>
        <time>2022-09-11T07:49:56.215Z</time>
      </trkpt>
      <trkpt lat="44.13138" lon="2.25324">
        <ele>258</ele>
        <time>2022-09-11T07:49:57.215Z</time>
      </trkpt>
      <trkpt lat="44.13138" lon="2.25324">
        <ele>258</ele>
        <time>2022-09-11T07:49:58.215Z</time>
      </trkpt>
      <trkpt lat="44.13136" lon="2.25327">
        <ele>257</ele>
        <time>2022-09-11T07:50:05.228Z</time>
      </trkpt>
      <trkpt lat="44.13136" lon="2.25328">
        <ele>257</ele>
        <time>2022-09-11T07:50:06.228Z</time>
      </trkpt>
      <trkpt lat="44.13136" lon="2.25329">
        <ele>257</ele>
        <time>2022-09-11T07:50:07.228Z</time>
      </trkpt>
      <trkpt lat="44.13136" lon="2.25329">
        <ele>257</ele>
        <time>2022-09-11T07:50:08.228Z</time>
      </trkpt>
      <trkpt lat="44.13136" lon="2.2533">
        <ele>257</ele>
        <time>2022-09-11T07:50:09.228Z</time>
      </trkpt>
      <trkpt lat="44.13136" lon="2.25331">
        <ele>257</ele>
        <time>2022-09-11T07:50:10.228Z</time>
      </trkpt>
      <trkpt lat="44.13136" lon="2.25332">
        <ele>257</ele>
        <time>2022-09-11T07:50:11.228Z</time>
      </trkpt>
      <trkpt lat="44.13136" lon="2.25333">
        <ele>257</ele>
        <time>2022-09-11T07:50:12.228Z</time>
      </trkpt>
      <trkpt lat="44.13135" lon="2.25334">
        <ele>257</ele>
        <time>2022-09-11T07:50:13.228Z</time>
      </trkpt>
      <trkpt lat="44.13135" lon="2.25334">
        <ele>257</ele>
        <time>2022-09-11T07:50:14.228Z</time>
      </trkpt>
      <trkpt lat="44.13134" lon="2.25335">
        <ele>257</ele>
        <time>2022-09-11T07:50:15.228Z</time>
      </trkpt>
      <trkpt lat="44.13134" lon="2.25335">
        <ele>258</ele>
        <time>2022-09-11T07:50:16.228Z</time>
      </trkpt>
      <trkpt lat="44.13134" lon="2.25335">
        <ele>258</ele>
        <time>2022-09-11T07:50:17.228Z</time>
      </trkpt>
      <trkpt lat="44.13134" lon="2.25335">
        <ele>258</ele>
        <time>2022-09-11T07:50:18.228Z</time>
      </trkpt>
      <trkpt lat="44.13134" lon="2.25335">
        <ele>258</ele>
        <time>2022-09-11T07:50:19.228Z</time>
      </trkpt>
      <trkpt lat="44.13134" lon="2.25345">
        <ele>262</ele>
        <time>2022-09-11T07:51:09.241Z</time>
      </trkpt>
      <trkpt lat="44.13134" lon="2.25345">
        <ele>262</ele>
        <time>2022-09-11T07:51:10.241Z</time>
      </trkpt>
      <trkpt lat="44.13133" lon="2.2535">
        <ele>268</ele>
        <time>2022-09-11T07:52:54.241Z</time>
      </trkpt>
      <trkpt lat="44.13133" lon="2.2535">
        <ele>268</ele>
        <time>2022-09-11T07:52:55.241Z</time>
      </trkpt>
      <trkpt lat="44.13132" lon="2.2535">
        <ele>268</ele>
        <time>2022-09-11T07:52:56.241Z</time>
      </trkpt>
      <trkpt lat="44.13132" lon="2.25352">
        <ele>269</ele>
        <time>2022-09-11T07:53:46.489Z</time>
      </trkpt>
      <trkpt lat="44.13132" lon="2.25353">
        <ele>269</ele>
        <time>2022-09-11T07:53:47.489Z</time>
      </trkpt>
      <trkpt lat="44.13132" lon="2.25353">
        <ele>269</ele>
        <time>2022-09-11T07:53:48.489Z</time>
      </trkpt>
      <trkpt lat="44.13131" lon="2.25355">
        <ele>269</ele>
        <time>2022-09-11T07:53:51.743Z</time>
      </trkpt>
      <trkpt lat="44.1313" lon="2.25356">
        <ele>269</ele>
        <time>2022-09-11T07:53:52.743Z</time>
      </trkpt>
      <trkpt lat="44.1313" lon="2.25357">
        <ele>269</ele>
        <time>2022-09-11T07:53:53.743Z</time>
      </trkpt>
      <trkpt lat="44.13129" lon="2.25357">
        <ele>269</ele>
        <time>2022-09-11T07:53:54.743Z</time>
      </trkpt>
      <trkpt lat="44.13128" lon="2.25358">
        <ele>269</ele>
        <time>2022-09-11T07:53:55.743Z</time>
      </trkpt>
      <trkpt lat="44.13128" lon="2.25358">
        <ele>269</ele>
        <time>2022-09-11T07:53:56.743Z</time>
      </trkpt>
      <trkpt lat="44.13127" lon="2.25359">
        <ele>269</ele>
        <time>2022-09-11T07:53:57.743Z</time>
      </trkpt>
      <trkpt lat="44.13126" lon="2.25359">
        <ele>269</ele>
        <time>2022-09-11T07:53:58.743Z</time>
      </trkpt>
      <trkpt lat="44.13126" lon="2.2536">
        <ele>268</ele>
        <time>2022-09-11T07:53:59.743Z</time>
      </trkpt>
      <trkpt lat="44.13125" lon="2.2536">
        <ele>268</ele>
        <time>2022-09-11T07:54:00.743Z</time>
      </trkpt>
      <trkpt lat="44.13125" lon="2.2536">
        <ele>268</ele>
        <time>2022-09-11T07:54:01.743Z</time>
      </trkpt>
      <trkpt lat="44.13125" lon="2.2536">
        <ele>268</ele>
        <time>2022-09-11T07:54:02.743Z</time>
      </trkpt>
      <trkpt lat="44.13124" lon="2.25361">
        <ele>268</ele>
        <time>2022-09-11T07:54:03.743Z</time>
      </trkpt>
      <trkpt lat="44.13123" lon="2.25362">
        <ele>268</ele>
        <time>2022-09-11T07:54:06.998Z</time>
      </trkpt>
      <trkpt lat="44.13123" lon="2.25362">
        <ele>268</ele>
        <time>2022-09-11T07:54:07.998Z</time>
      </trkpt>
      <trkpt lat="44.13122" lon="2.25362">
        <ele>268</ele>
        <time>2022-09-11T07:54:08.998Z</time>
      </trkpt>
      <trkpt lat="44.13122" lon="2.25363">
        <ele>268</ele>
        <time>2022-09-11T07:54:09.998Z</time>
      </trkpt>
      <trkpt lat="44.13122" lon="2.25364">
        <ele>268</ele>
        <time>2022-09-11T07:54:10.998Z</time>
      </trkpt>
      <trkpt lat="44.13121" lon="2.25365">
        <ele>268</ele>
        <time>2022-09-11T07:54:11.998Z</time>
      </trkpt>
      <trkpt lat="44.13121" lon="2.25365">
        <ele>268</ele>
        <time>2022-09-11T07:54:12.998Z</time>
      </trkpt>
      <trkpt lat="44.1312" lon="2.25366">
        <ele>267</ele>
        <time>2022-09-11T07:54:13.998Z</time>
      </trkpt>
      <trkpt lat="44.1312" lon="2.25366">
        <ele>267</ele>
        <time>2022-09-11T07:54:14.998Z</time>
      </trkpt>
      <trkpt lat="44.13119" lon="2.25366">
        <ele>267</ele>
        <time>2022-09-11T07:54:15.998Z</time>
      </trkpt>
      <trkpt lat="44.13119" lon="2.25367">
        <ele>267</ele>
        <time>2022-09-11T07:54:16.998Z</time>
      </trkpt>
      <trkpt lat="44.13118" lon="2.25368">
        <ele>267</ele>
        <time>2022-09-11T07:54:17.998Z</time>
      </trkpt>
      <trkpt lat="44.13117" lon="2.25368">
        <ele>267</ele>
        <time>2022-09-11T07:54:18.998Z</time>
      </trkpt>
      <trkpt lat="44.13117" lon="2.25369">
        <ele>267</ele>
        <time>2022-09-11T07:54:19.998Z</time>
      </trkpt>
      <trkpt lat="44.13117" lon="2.2537">
        <ele>267</ele>
        <time>2022-09-11T07:54:20.998Z</time>
      </trkpt>
      <trkpt lat="44.13116" lon="2.2537">
        <ele>267</ele>
        <time>2022-09-11T07:54:21.998Z</time>
      </trkpt>
      <trkpt lat="44.13116" lon="2.2537">
        <ele>267</ele>
        <time>2022-09-11T07:54:22.998Z</time>
      </trkpt>
      <trkpt lat="44.13115" lon="2.2537">
        <ele>267</ele>
        <time>2022-09-11T07:54:23.998Z</time>
      </trkpt>
      <trkpt lat="44.13115" lon="2.25371">
        <ele>267</ele>
        <time>2022-09-11T07:54:24.998Z</time>
      </trkpt>
      <trkpt lat="44.13115" lon="2.25371">
        <ele>267</ele>
        <time>2022-09-11T07:54:25.998Z</time>
      </trkpt>
      <trkpt lat="44.13114" lon="2.25373">
        <ele>267</ele>
        <time>2022-09-11T07:54:29.238Z</time>
      </trkpt>
      <trkpt lat="44.13113" lon="2.25373">
        <ele>267</ele>
        <time>2022-09-11T07:54:30.238Z</time>
      </trkpt>
      <trkpt lat="44.13113" lon="2.25374">
        <ele>267</ele>
        <time>2022-09-11T07:54:31.238Z</time>
      </trkpt>
      <trkpt lat="44.13112" lon="2.25374">
        <ele>267</ele>
        <time>2022-09-11T07:54:32.238Z</time>
      </trkpt>
      <trkpt lat="44.13112" lon="2.25375">
        <ele>267</ele>
        <time>2022-09-11T07:54:33.238Z</time>
      </trkpt>
      <trkpt lat="44.13112" lon="2.25375">
        <ele>267</ele>
        <time>2022-09-11T07:54:34.238Z</time>
      </trkpt>
      <trkpt lat="44.13111" lon="2.25376">
        <ele>267</ele>
        <time>2022-09-11T07:54:35.238Z</time>
      </trkpt>
      <trkpt lat="44.13111" lon="2.25376">
        <ele>267</ele>
        <time>2022-09-11T07:54:36.238Z</time>
      </trkpt>
      <trkpt lat="44.1311" lon="2.25377">
        <ele>267</ele>
        <time>2022-09-11T07:54:37.238Z</time>
      </trkpt>
      <trkpt lat="44.1311" lon="2.25378">
        <ele>267</ele>
        <time>2022-09-11T07:54:38.238Z</time>
      </trkpt>
      <trkpt lat="44.13109" lon="2.25379">
        <ele>266</ele>
        <time>2022-09-11T07:54:39.238Z</time>
      </trkpt>
      <trkpt lat="44.13109" lon="2.25379">
        <ele>266</ele>
        <time>2022-09-11T07:54:40.238Z</time>
      </trkpt>
      <trkpt lat="44.13109" lon="2.2538">
        <ele>266</ele>
        <time>2022-09-11T07:54:41.238Z</time>
      </trkpt>
      <trkpt lat="44.13109" lon="2.2538">
        <ele>266</ele>
        <time>2022-09-11T07:54:42.238Z</time>
      </trkpt>
      <trkpt lat="44.13109" lon="2.25381">
        <ele>266</ele>
        <time>2022-09-11T07:54:43.238Z</time>
      </trkpt>
      <trkpt lat="44.13108" lon="2.25383">
        <ele>266</ele>
        <time>2022-09-11T07:54:48.250Z</time>
      </trkpt>
      <trkpt lat="44.13107" lon="2.25383">
        <ele>266</ele>
        <time>2022-09-11T07:54:49.250Z</time>
      </trkpt>
      <trkpt lat="44.13107" lon="2.25385">
        <ele>265</ele>
        <time>2022-09-11T07:54:52.506Z</time>
      </trkpt>
      <trkpt lat="44.13107" lon="2.25386">
        <ele>265</ele>
        <time>2022-09-11T07:54:53.506Z</time>
      </trkpt>
      <trkpt lat="44.13107" lon="2.25387">
        <ele>265</ele>
        <time>2022-09-11T07:54:54.506Z</time>
      </trkpt>
      <trkpt lat="44.13107" lon="2.25388">
        <ele>264</ele>
        <time>2022-09-11T07:54:55.506Z</time>
      </trkpt>
      <trkpt lat="44.13107" lon="2.25389">
        <ele>264</ele>
        <time>2022-09-11T07:54:56.506Z</time>
      </trkpt>
      <trkpt lat="44.13106" lon="2.2539">
        <ele>264</ele>
        <time>2022-09-11T07:54:57.506Z</time>
      </trkpt>
      <trkpt lat="44.13105" lon="2.25391">
        <ele>264</ele>
        <time>2022-09-11T07:54:58.506Z</time>
      </trkpt>
      <trkpt lat="44.13105" lon="2.25392">
        <ele>264</ele>
        <time>2022-09-11T07:54:59.506Z</time>
      </trkpt>
      <trkpt lat="44.13104" lon="2.25393">
        <ele>264</ele>
        <time>2022-09-11T07:55:00.506Z</time>
      </trkpt>
      <trkpt lat="44.13103" lon="2.25393">
        <ele>263</ele>
        <time>2022-09-11T07:55:01.506Z</time>
      </trkpt>
      <trkpt lat="44.13103" lon="2.25394">
        <ele>263</ele>
        <time>2022-09-11T07:55:02.506Z</time>
      </trkpt>
      <trkpt lat="44.13102" lon="2.25395">
        <ele>263</ele>
        <time>2022-09-11T07:55:03.506Z</time>
      </trkpt>
      <trkpt lat="44.13101" lon="2.25395">
        <ele>263</ele>
        <time>2022-09-11T07:55:04.506Z</time>
      </trkpt>
      <trkpt lat="44.131" lon="2.25395">
        <ele>263</ele>
        <time>2022-09-11T07:55:05.506Z</time>
      </trkpt>
      <trkpt lat="44.131" lon="2.25396">
        <ele>263</ele>
        <time>2022-09-11T07:55:06.506Z</time>
      </trkpt>
      <trkpt lat="44.131" lon="2.25396">
        <ele>263</ele>
        <time>2022-09-11T07:55:07.506Z</time>
      </trkpt>
      <trkpt lat="44.131" lon="2.25397">
        <ele>263</ele>
        <time>2022-09-11T07:55:08.506Z</time>
      </trkpt>
      <trkpt lat="44.13098" lon="2.25399">
        <ele>263</ele>
        <time>2022-09-11T07:55:14.517Z</time>
      </trkpt>
      <trkpt lat="44.13098" lon="2.254">
        <ele>263</ele>
        <time>2022-09-11T07:55:15.517Z</time>
      </trkpt>
      <trkpt lat="44.13097" lon="2.25401">
        <ele>262</ele>
        <time>2022-09-11T07:55:20.280Z</time>
      </trkpt>
      <trkpt lat="44.13096" lon="2.25401">
        <ele>262</ele>
        <time>2022-09-11T07:55:21.280Z</time>
      </trkpt>
      <trkpt lat="44.13096" lon="2.25402">
        <ele>262</ele>
        <time>2022-09-11T07:55:22.280Z</time>
      </trkpt>
      <trkpt lat="44.13096" lon="2.25402">
        <ele>262</ele>
        <time>2022-09-11T07:55:23.280Z</time>
      </trkpt>
      <trkpt lat="44.13094" lon="2.25408">
        <ele>263</ele>
        <time>2022-09-11T07:56:06.294Z</time>
      </trkpt>
      <trkpt lat="44.13094" lon="2.2541">
        <ele>263</ele>
        <time>2022-09-11T07:56:07.294Z</time>
      </trkpt>
      <trkpt lat="44.13093" lon="2.25411">
        <ele>263</ele>
        <time>2022-09-11T07:56:08.294Z</time>
      </trkpt>
      <trkpt lat="44.13093" lon="2.25411">
        <ele>263</ele>
        <time>2022-09-11T07:56:09.294Z</time>
      </trkpt>
      <trkpt lat="44.13092" lon="2.25412">
        <ele>263</ele>
        <time>2022-09-11T07:56:10.294Z</time>
      </trkpt>
      <trkpt lat="44.13091" lon="2.25413">
        <ele>263</ele>
        <time>2022-09-11T07:56:11.294Z</time>
      </trkpt>
      <trkpt lat="44.1309" lon="2.25414">
        <ele>262</ele>
        <time>2022-09-11T07:56:12.294Z</time>
      </trkpt>
      <trkpt lat="44.13089" lon="2.25414">
        <ele>262</ele>
        <time>2022-09-11T07:56:13.294Z</time>
      </trkpt>
      <trkpt lat="44.13088" lon="2.25414">
        <ele>262</ele>
        <time>2022-09-11T07:56:14.294Z</time>
      </trkpt>
      <trkpt lat="44.13087" lon="2.25414">
        <ele>262</ele>
        <time>2022-09-11T07:56:15.294Z</time>
      </trkpt>
      <trkpt lat="44.13086" lon="2.25414">
        <ele>262</ele>
        <time>2022-09-11T07:56:16.294Z</time>
      </trkpt>
      <trkpt lat="44.13086" lon="2.25415">
        <ele>262</ele>
        <time>2022-09-11T07:56:17.294Z</time>
      </trkpt>
      <trkpt lat="44.13085" lon="2.25415">
        <ele>262</ele>
        <time>2022-09-11T07:56:18.294Z</time>
      </trkpt>
      <trkpt lat="44.13085" lon="2.25415">
        <ele>262</ele>
        <time>2022-09-11T07:56:19.294Z</time>
      </trkpt>
      <trkpt lat="44.13084" lon="2.25415">
        <ele>262</ele>
        <time>2022-09-11T07:56:20.294Z</time>
      </trkpt>
      <trkpt lat="44.13083" lon="2.25415">
        <ele>262</ele>
        <time>2022-09-11T07:56:21.294Z</time>
      </trkpt>
      <trkpt lat="44.13082" lon="2.25416">
        <ele>262</ele>
        <time>2022-09-11T07:56:22.294Z</time>
      </trkpt>
      <trkpt lat="44.13082" lon="2.25417">
        <ele>262</ele>
        <time>2022-09-11T07:56:23.294Z</time>
      </trkpt>
      <trkpt lat="44.13081" lon="2.25417">
        <ele>262</ele>
        <time>2022-09-11T07:56:24.294Z</time>
      </trkpt>
      <trkpt lat="44.1308" lon="2.25418">
        <ele>262</ele>
        <time>2022-09-11T07:56:25.294Z</time>
      </trkpt>
      <trkpt lat="44.13079" lon="2.25418">
        <ele>262</ele>
        <time>2022-09-11T07:56:26.294Z</time>
      </trkpt>
      <trkpt lat="44.13079" lon="2.25419">
        <ele>262</ele>
        <time>2022-09-11T07:56:27.294Z</time>
      </trkpt>
      <trkpt lat="44.13078" lon="2.2542">
        <ele>262</ele>
        <time>2022-09-11T07:56:28.294Z</time>
      </trkpt>
      <trkpt lat="44.13077" lon="2.25421">
        <ele>262</ele>
        <time>2022-09-11T07:56:29.294Z</time>
      </trkpt>
      <trkpt lat="44.13076" lon="2.25422">
        <ele>262</ele>
        <time>2022-09-11T07:56:30.294Z</time>
      </trkpt>
      <trkpt lat="44.13075" lon="2.25423">
        <ele>262</ele>
        <time>2022-09-11T07:56:31.294Z</time>
      </trkpt>
      <trkpt lat="44.13075" lon="2.25424">
        <ele>262</ele>
        <time>2022-09-11T07:56:32.294Z</time>
      </trkpt>
      <trkpt lat="44.13074" lon="2.25425">
        <ele>262</ele>
        <time>2022-09-11T07:56:33.294Z</time>
      </trkpt>
      <trkpt lat="44.13073" lon="2.25425">
        <ele>262</ele>
        <time>2022-09-11T07:56:34.294Z</time>
      </trkpt>
      <trkpt lat="44.13072" lon="2.25426">
        <ele>262</ele>
        <time>2022-09-11T07:56:35.294Z</time>
      </trkpt>
      <trkpt lat="44.13071" lon="2.25427">
        <ele>262</ele>
        <time>2022-09-11T07:56:36.294Z</time>
      </trkpt>
      <trkpt lat="44.1307" lon="2.25427">
        <ele>262</ele>
        <time>2022-09-11T07:56:37.294Z</time>
      </trkpt>
      <trkpt lat="44.1307" lon="2.25427">
        <ele>261</ele>
        <time>2022-09-11T07:56:38.294Z</time>
      </trkpt>
      <trkpt lat="44.13069" lon="2.25427">
        <ele>261</ele>
        <time>2022-09-11T07:56:39.294Z</time>
      </trkpt>
      <trkpt lat="44.13069" lon="2.25428">
        <ele>261</ele>
        <time>2022-09-11T07:56:40.294Z</time>
      </trkpt>
      <trkpt lat="44.13068" lon="2.25429">
        <ele>261</ele>
        <time>2022-09-11T07:56:41.294Z</time>
      </trkpt>
      <trkpt lat="44.13068" lon="2.25429">
        <ele>261</ele>
        <time>2022-09-11T07:56:42.294Z</time>
      </trkpt>
      <trkpt lat="44.13067" lon="2.2543">
        <ele>261</ele>
        <time>2022-09-11T07:56:43.294Z</time>
      </trkpt>
      <trkpt lat="44.13067" lon="2.25431">
        <ele>261</ele>
        <time>2022-09-11T07:56:44.294Z</time>
      </trkpt>
      <trkpt lat="44.13066" lon="2.25431">
        <ele>261</ele>
        <time>2022-09-11T07:56:45.294Z</time>
      </trkpt>
      <trkpt lat="44.13066" lon="2.25432">
        <ele>261</ele>
        <time>2022-09-11T07:56:46.294Z</time>
      </trkpt>
      <trkpt lat="44.13065" lon="2.25432">
        <ele>261</ele>
        <time>2022-09-11T07:56:47.294Z</time>
      </trkpt>
      <trkpt lat="44.13064" lon="2.25433">
        <ele>261</ele>
        <time>2022-09-11T07:56:48.294Z</time>
      </trkpt>
      <trkpt lat="44.13063" lon="2.25434">
        <ele>261</ele>
        <time>2022-09-11T07:56:49.294Z</time>
      </trkpt>
      <trkpt lat="44.13063" lon="2.25434">
        <ele>262</ele>
        <time>2022-09-11T07:56:50.294Z</time>
      </trkpt>
      <trkpt lat="44.13062" lon="2.25435">
        <ele>262</ele>
        <time>2022-09-11T07:56:51.294Z</time>
      </trkpt>
      <trkpt lat="44.13061" lon="2.25435">
        <ele>262</ele>
        <time>2022-09-11T07:56:52.294Z</time>
      </trkpt>
      <trkpt lat="44.1306" lon="2.25435">
        <ele>262</ele>
        <time>2022-09-11T07:56:53.294Z</time>
      </trkpt>
      <trkpt lat="44.13059" lon="2.25435">
        <ele>262</ele>
        <time>2022-09-11T07:56:54.294Z</time>
      </trkpt>
      <trkpt lat="44.13059" lon="2.25436">
        <ele>262</ele>
        <time>2022-09-11T07:56:55.294Z</time>
      </trkpt>
      <trkpt lat="44.13058" lon="2.25436">
        <ele>262</ele>
        <time>2022-09-11T07:56:56.294Z</time>
      </trkpt>
      <trkpt lat="44.13057" lon="2.25437">
        <ele>262</ele>
        <time>2022-09-11T07:56:57.294Z</time>
      </trkpt>
      <trkpt lat="44.13056" lon="2.25438">
        <ele>262</ele>
        <time>2022-09-11T07:56:58.294Z</time>
      </trkpt>
      <trkpt lat="44.13055" lon="2.25439">
        <ele>262</ele>
        <time>2022-09-11T07:56:59.294Z</time>
      </trkpt>
      <trkpt lat="44.13054" lon="2.2544">
        <ele>262</ele>
        <time>2022-09-11T07:57:00.294Z</time>
      </trkpt>
      <trkpt lat="44.13054" lon="2.2544">
        <ele>262</ele>
        <time>2022-09-11T07:57:01.294Z</time>
      </trkpt>
      <trkpt lat="44.13053" lon="2.25441">
        <ele>262</ele>
        <time>2022-09-11T07:57:02.294Z</time>
      </trkpt>
      <trkpt lat="44.13053" lon="2.25442">
        <ele>262</ele>
        <time>2022-09-11T07:57:03.294Z</time>
      </trkpt>
      <trkpt lat="44.13052" lon="2.25442">
        <ele>262</ele>
        <time>2022-09-11T07:57:04.294Z</time>
      </trkpt>
      <trkpt lat="44.13052" lon="2.25443">
        <ele>263</ele>
        <time>2022-09-11T07:57:05.294Z</time>
      </trkpt>
      <trkpt lat="44.13052" lon="2.25444">
        <ele>263</ele>
        <time>2022-09-11T07:57:06.294Z</time>
      </trkpt>
      <trkpt lat="44.13051" lon="2.25445">
        <ele>263</ele>
        <time>2022-09-11T07:57:07.294Z</time>
      </trkpt>
      <trkpt lat="44.13051" lon="2.25446">
        <ele>263</ele>
        <time>2022-09-11T07:57:08.294Z</time>
      </trkpt>
      <trkpt lat="44.1305" lon="2.25446">
        <ele>263</ele>
        <time>2022-09-11T07:57:09.294Z</time>
      </trkpt>
      <trkpt lat="44.1305" lon="2.25447">
        <ele>263</ele>
        <time>2022-09-11T07:57:10.294Z</time>
      </trkpt>
      <trkpt lat="44.1305" lon="2.25448">
        <ele>263</ele>
        <time>2022-09-11T07:57:11.294Z</time>
      </trkpt>
      <trkpt lat="44.13049" lon="2.25448">
        <ele>263</ele>
        <time>2022-09-11T07:57:12.294Z</time>
      </trkpt>
      <trkpt lat="44.13049" lon="2.25448">
        <ele>263</ele>
        <time>2022-09-11T07:57:13.294Z</time>
      </trkpt>
      <trkpt lat="44.13048" lon="2.25451">
        <ele>264</ele>
        <time>2022-09-11T07:57:19.295Z</time>
      </trkpt>
      <trkpt lat="44.13048" lon="2.25451">
        <ele>264</ele>
        <time>2022-09-11T07:57:20.295Z</time>
      </trkpt>
      <trkpt lat="44.13047" lon="2.25452">
        <ele>264</ele>
        <time>2022-09-11T07:57:21.295Z</time>
      </trkpt>
      <trkpt lat="44.13047" lon="2.25452">
        <ele>264</ele>
        <time>2022-09-11T07:57:22.295Z</time>
      </trkpt>
      <trkpt lat="44.13046" lon="2.25452">
        <ele>264</ele>
        <time>2022-09-11T07:57:23.295Z</time>
      </trkpt>
      <trkpt lat="44.13046" lon="2.25452">
        <ele>264</ele>
        <time>2022-09-11T07:57:24.295Z</time>
      </trkpt>
      <trkpt lat="44.13045" lon="2.25452">
        <ele>264</ele>
        <time>2022-09-11T07:57:25.295Z</time>
      </trkpt>
      <trkpt lat="44.13044" lon="2.25452">
        <ele>264</ele>
        <time>2022-09-11T07:57:26.295Z</time>
      </trkpt>
      <trkpt lat="44.13044" lon="2.25452">
        <ele>264</ele>
        <time>2022-09-11T07:57:27.295Z</time>
      </trkpt>
      <trkpt lat="44.13043" lon="2.25452">
        <ele>265</ele>
        <time>2022-09-11T07:57:28.295Z</time>
      </trkpt>
      <trkpt lat="44.13043" lon="2.25453">
        <ele>265</ele>
        <time>2022-09-11T07:57:29.295Z</time>
      </trkpt>
      <trkpt lat="44.13042" lon="2.25453">
        <ele>265</ele>
        <time>2022-09-11T07:57:30.295Z</time>
      </trkpt>
      <trkpt lat="44.13042" lon="2.25453">
        <ele>265</ele>
        <time>2022-09-11T07:57:31.295Z</time>
      </trkpt>
      <trkpt lat="44.13041" lon="2.25453">
        <ele>265</ele>
        <time>2022-09-11T07:57:32.295Z</time>
      </trkpt>
      <trkpt lat="44.1304" lon="2.25454">
        <ele>265</ele>
        <time>2022-09-11T07:57:33.295Z</time>
      </trkpt>
      <trkpt lat="44.1304" lon="2.25454">
        <ele>265</ele>
        <time>2022-09-11T07:57:34.295Z</time>
      </trkpt>
      <trkpt lat="44.13039" lon="2.25454">
        <ele>265</ele>
        <time>2022-09-11T07:57:35.295Z</time>
      </trkpt>
      <trkpt lat="44.13039" lon="2.25454">
        <ele>265</ele>
        <time>2022-09-11T07:57:36.295Z</time>
      </trkpt>
      <trkpt lat="44.13038" lon="2.25455">
        <ele>265</ele>
        <time>2022-09-11T07:57:37.295Z</time>
      </trkpt>
      <trkpt lat="44.13038" lon="2.25456">
        <ele>265</ele>
        <time>2022-09-11T07:57:38.295Z</time>
      </trkpt>
      <trkpt lat="44.13037" lon="2.25456">
        <ele>265</ele>
        <time>2022-09-11T07:57:39.295Z</time>
      </trkpt>
      <trkpt lat="44.13036" lon="2.25456">
        <ele>265</ele>
        <time>2022-09-11T07:57:40.295Z</time>
      </trkpt>
      <trkpt lat="44.13035" lon="2.25456">
        <ele>265</ele>
        <time>2022-09-11T07:57:41.295Z</time>
      </trkpt>
      <trkpt lat="44.13035" lon="2.25457">
        <ele>265</ele>
        <time>2022-09-11T07:57:42.295Z</time>
      </trkpt>
      <trkpt lat="44.13034" lon="2.25457">
        <ele>265</ele>
        <time>2022-09-11T07:57:43.295Z</time>
      </trkpt>
      <trkpt lat="44.13034" lon="2.25458">
        <ele>265</ele>
        <time>2022-09-11T07:57:44.295Z</time>
      </trkpt>
      <trkpt lat="44.13034" lon="2.25459">
        <ele>265</ele>
        <time>2022-09-11T07:57:45.295Z</time>
      </trkpt>
      <trkpt lat="44.13033" lon="2.25459">
        <ele>265</ele>
        <time>2022-09-11T07:57:46.295Z</time>
      </trkpt>
      <trkpt lat="44.13033" lon="2.2546">
        <ele>265</ele>
        <time>2022-09-11T07:57:47.295Z</time>
      </trkpt>
      <trkpt lat="44.13032" lon="2.25461">
        <ele>264</ele>
        <time>2022-09-11T07:57:48.295Z</time>
      </trkpt>
      <trkpt lat="44.13031" lon="2.25462">
        <ele>264</ele>
        <time>2022-09-11T07:57:49.295Z</time>
      </trkpt>
      <trkpt lat="44.1303" lon="2.25462">
        <ele>264</ele>
        <time>2022-09-11T07:57:50.295Z</time>
      </trkpt>
      <trkpt lat="44.1303" lon="2.25463">
        <ele>264</ele>
        <time>2022-09-11T07:57:51.295Z</time>
      </trkpt>
      <trkpt lat="44.13029" lon="2.25463">
        <ele>264</ele>
        <time>2022-09-11T07:57:52.295Z</time>
      </trkpt>
      <trkpt lat="44.13029" lon="2.25464">
        <ele>264</ele>
        <time>2022-09-11T07:57:53.295Z</time>
      </trkpt>
      <trkpt lat="44.13028" lon="2.25464">
        <ele>264</ele>
        <time>2022-09-11T07:57:54.295Z</time>
      </trkpt>
      <trkpt lat="44.13028" lon="2.25465">
        <ele>264</ele>
        <time>2022-09-11T07:57:55.295Z</time>
      </trkpt>
      <trkpt lat="44.13027" lon="2.25465">
        <ele>264</ele>
        <time>2022-09-11T07:57:56.295Z</time>
      </trkpt>
      <trkpt lat="44.13027" lon="2.25465">
        <ele>265</ele>
        <time>2022-09-11T07:57:57.295Z</time>
      </trkpt>
      <trkpt lat="44.13027" lon="2.25465">
        <ele>265</ele>
        <time>2022-09-11T07:57:58.295Z</time>
      </trkpt>
      <trkpt lat="44.13026" lon="2.25465">
        <ele>265</ele>
        <time>2022-09-11T07:57:59.295Z</time>
      </trkpt>
      <trkpt lat="44.13026" lon="2.25466">
        <ele>265</ele>
        <time>2022-09-11T07:58:00.295Z</time>
      </trkpt>
      <trkpt lat="44.13026" lon="2.25466">
        <ele>265</ele>
        <time>2022-09-11T07:58:01.295Z</time>
      </trkpt>
      <trkpt lat="44.13025" lon="2.25467">
        <ele>265</ele>
        <time>2022-09-11T07:58:02.295Z</time>
      </trkpt>
      <trkpt lat="44.13025" lon="2.25467">
        <ele>265</ele>
        <time>2022-09-11T07:58:03.295Z</time>
      </trkpt>
      <trkpt lat="44.13025" lon="2.25468">
        <ele>265</ele>
        <time>2022-09-11T07:58:04.295Z</time>
      </trkpt>
      <trkpt lat="44.13025" lon="2.25468">
        <ele>265</ele>
        <time>2022-09-11T07:58:05.295Z</time>
      </trkpt>
      <trkpt lat="44.13025" lon="2.25468">
        <ele>265</ele>
        <time>2022-09-11T07:58:06.295Z</time>
      </trkpt>
      <trkpt lat="44.13025" lon="2.2547">
        <ele>265</ele>
        <time>2022-09-11T07:58:09.551Z</time>
      </trkpt>
      <trkpt lat="44.13025" lon="2.25471">
        <ele>265</ele>
        <time>2022-09-11T07:58:10.551Z</time>
      </trkpt>
      <trkpt lat="44.13024" lon="2.25472">
        <ele>264</ele>
        <time>2022-09-11T07:58:11.551Z</time>
      </trkpt>
      <trkpt lat="44.13024" lon="2.25473">
        <ele>264</ele>
        <time>2022-09-11T07:58:12.551Z</time>
      </trkpt>
      <trkpt lat="44.13024" lon="2.25473">
        <ele>264</ele>
        <time>2022-09-11T07:58:13.551Z</time>
      </trkpt>
      <trkpt lat="44.13024" lon="2.25475">
        <ele>264</ele>
        <time>2022-09-11T07:58:14.551Z</time>
      </trkpt>
      <trkpt lat="44.13024" lon="2.25476">
        <ele>264</ele>
        <time>2022-09-11T07:58:15.551Z</time>
      </trkpt>
      <trkpt lat="44.13024" lon="2.25477">
        <ele>264</ele>
        <time>2022-09-11T07:58:16.551Z</time>
      </trkpt>
      <trkpt lat="44.13023" lon="2.25478">
        <ele>264</ele>
        <time>2022-09-11T07:58:17.551Z</time>
      </trkpt>
      <trkpt lat="44.13023" lon="2.25478">
        <ele>264</ele>
        <time>2022-09-11T07:58:18.551Z</time>
      </trkpt>
      <trkpt lat="44.13023" lon="2.2548">
        <ele>264</ele>
        <time>2022-09-11T07:58:19.551Z</time>
      </trkpt>
      <trkpt lat="44.13023" lon="2.25481">
        <ele>264</ele>
        <time>2022-09-11T07:58:20.551Z</time>
      </trkpt>
      <trkpt lat="44.13023" lon="2.25482">
        <ele>264</ele>
        <time>2022-09-11T07:58:21.551Z</time>
      </trkpt>
      <trkpt lat="44.13022" lon="2.25483">
        <ele>264</ele>
        <time>2022-09-11T07:58:22.551Z</time>
      </trkpt>
      <trkpt lat="44.13022" lon="2.25484">
        <ele>264</ele>
        <time>2022-09-11T07:58:23.551Z</time>
      </trkpt>
      <trkpt lat="44.13021" lon="2.25484">
        <ele>263</ele>
        <time>2022-09-11T07:58:24.551Z</time>
      </trkpt>
      <trkpt lat="44.13021" lon="2.25485">
        <ele>263</ele>
        <time>2022-09-11T07:58:25.551Z</time>
      </trkpt>
      <trkpt lat="44.1302" lon="2.25486">
        <ele>263</ele>
        <time>2022-09-11T07:58:26.551Z</time>
      </trkpt>
      <trkpt lat="44.1302" lon="2.25486">
        <ele>263</ele>
        <time>2022-09-11T07:58:27.551Z</time>
      </trkpt>
      <trkpt lat="44.1302" lon="2.25487">
        <ele>263</ele>
        <time>2022-09-11T07:58:28.551Z</time>
      </trkpt>
      <trkpt lat="44.13019" lon="2.25488">
        <ele>263</ele>
        <time>2022-09-11T07:58:29.551Z</time>
      </trkpt>
      <trkpt lat="44.13019" lon="2.25488">
        <ele>263</ele>
        <time>2022-09-11T07:58:30.551Z</time>
      </trkpt>
      <trkpt lat="44.13019" lon="2.25489">
        <ele>263</ele>
        <time>2022-09-11T07:58:31.551Z</time>
      </trkpt>
      <trkpt lat="44.13018" lon="2.25489">
        <ele>262</ele>
        <time>2022-09-11T07:58:32.551Z</time>
      </trkpt>
      <trkpt lat="44.13018" lon="2.2549">
        <ele>262</ele>
        <time>2022-09-11T07:58:33.551Z</time>
      </trkpt>
      <trkpt lat="44.13017" lon="2.25491">
        <ele>262</ele>
        <time>2022-09-11T07:58:34.551Z</time>
      </trkpt>
      <trkpt lat="44.13017" lon="2.25491">
        <ele>262</ele>
        <time>2022-09-11T07:58:35.551Z</time>
      </trkpt>
      <trkpt lat="44.13017" lon="2.25492">
        <ele>262</ele>
        <time>2022-09-11T07:58:36.551Z</time>
      </trkpt>
      <trkpt lat="44.13015" lon="2.25493">
        <ele>262</ele>
        <time>2022-09-11T07:58:40.556Z</time>
      </trkpt>
      <trkpt lat="44.13015" lon="2.25494">
        <ele>262</ele>
        <time>2022-09-11T07:58:41.556Z</time>
      </trkpt>
      <trkpt lat="44.13014" lon="2.25495">
        <ele>262</ele>
        <time>2022-09-11T07:58:42.556Z</time>
      </trkpt>
      <trkpt lat="44.13013" lon="2.25496">
        <ele>262</ele>
        <time>2022-09-11T07:58:43.556Z</time>
      </trkpt>
      <trkpt lat="44.13012" lon="2.25497">
        <ele>262</ele>
        <time>2022-09-11T07:58:44.556Z</time>
      </trkpt>
      <trkpt lat="44.13011" lon="2.25498">
        <ele>262</ele>
        <time>2022-09-11T07:58:45.556Z</time>
      </trkpt>
      <trkpt lat="44.1301" lon="2.25498">
        <ele>262</ele>
        <time>2022-09-11T07:58:46.556Z</time>
      </trkpt>
      <trkpt lat="44.1301" lon="2.25499">
        <ele>262</ele>
        <time>2022-09-11T07:58:47.556Z</time>
      </trkpt>
      <trkpt lat="44.13009" lon="2.25501">
        <ele>262</ele>
        <time>2022-09-11T07:58:48.556Z</time>
      </trkpt>
      <trkpt lat="44.13009" lon="2.25501">
        <ele>262</ele>
        <time>2022-09-11T07:58:49.556Z</time>
      </trkpt>
      <trkpt lat="44.13008" lon="2.25502">
        <ele>262</ele>
        <time>2022-09-11T07:58:50.556Z</time>
      </trkpt>
      <trkpt lat="44.13008" lon="2.25503">
        <ele>262</ele>
        <time>2022-09-11T07:58:51.556Z</time>
      </trkpt>
      <trkpt lat="44.13007" lon="2.25504">
        <ele>262</ele>
        <time>2022-09-11T07:58:52.556Z</time>
      </trkpt>
      <trkpt lat="44.13006" lon="2.25505">
        <ele>262</ele>
        <time>2022-09-11T07:58:53.556Z</time>
      </trkpt>
      <trkpt lat="44.13006" lon="2.25506">
        <ele>262</ele>
        <time>2022-09-11T07:58:54.556Z</time>
      </trkpt>
      <trkpt lat="44.13005" lon="2.25506">
        <ele>261</ele>
        <time>2022-09-11T07:58:55.556Z</time>
      </trkpt>
      <trkpt lat="44.13005" lon="2.25507">
        <ele>261</ele>
        <time>2022-09-11T07:58:56.556Z</time>
      </trkpt>
      <trkpt lat="44.13004" lon="2.25507">
        <ele>261</ele>
        <time>2022-09-11T07:58:57.556Z</time>
      </trkpt>
      <trkpt lat="44.13003" lon="2.25507">
        <ele>261</ele>
        <time>2022-09-11T07:58:58.556Z</time>
      </trkpt>
      <trkpt lat="44.13002" lon="2.25508">
        <ele>261</ele>
        <time>2022-09-11T07:58:59.556Z</time>
      </trkpt>
      <trkpt lat="44.13002" lon="2.25508">
        <ele>261</ele>
        <time>2022-09-11T07:59:00.556Z</time>
      </trkpt>
      <trkpt lat="44.13002" lon="2.25509">
        <ele>261</ele>
        <time>2022-09-11T07:59:01.556Z</time>
      </trkpt>
      <trkpt lat="44.13001" lon="2.25509">
        <ele>261</ele>
        <time>2022-09-11T07:59:02.556Z</time>
      </trkpt>
      <trkpt lat="44.13" lon="2.2551">
        <ele>261</ele>
        <time>2022-09-11T07:59:03.556Z</time>
      </trkpt>
      <trkpt lat="44.13" lon="2.2551">
        <ele>261</ele>
        <time>2022-09-11T07:59:04.556Z</time>
      </trkpt>
      <trkpt lat="44.13" lon="2.2551">
        <ele>261</ele>
        <time>2022-09-11T07:59:05.556Z</time>
      </trkpt>
      <trkpt lat="44.13" lon="2.25511">
        <ele>261</ele>
        <time>2022-09-11T07:59:06.556Z</time>
      </trkpt>
      <trkpt lat="44.12999" lon="2.25512">
        <ele>261</ele>
        <time>2022-09-11T07:59:07.556Z</time>
      </trkpt>
      <trkpt lat="44.12999" lon="2.25513">
        <ele>261</ele>
        <time>2022-09-11T07:59:08.556Z</time>
      </trkpt>
      <trkpt lat="44.12998" lon="2.25514">
        <ele>261</ele>
        <time>2022-09-11T07:59:09.556Z</time>
      </trkpt>
      <trkpt lat="44.12998" lon="2.25514">
        <ele>261</ele>
        <time>2022-09-11T07:59:10.556Z</time>
      </trkpt>
      <trkpt lat="44.12997" lon="2.25515">
        <ele>261</ele>
        <time>2022-09-11T07:59:11.556Z</time>
      </trkpt>
      <trkpt lat="44.12997" lon="2.25515">
        <ele>261</ele>
        <time>2022-09-11T07:59:12.556Z</time>
      </trkpt>
      <trkpt lat="44.12996" lon="2.25515">
        <ele>261</ele>
        <time>2022-09-11T07:59:13.556Z</time>
      </trkpt>
      <trkpt lat="44.12995" lon="2.25515">
        <ele>261</ele>
        <time>2022-09-11T07:59:14.556Z</time>
      </trkpt>
      <trkpt lat="44.12995" lon="2.25516">
        <ele>261</ele>
        <time>2022-09-11T07:59:15.556Z</time>
      </trkpt>
      <trkpt lat="44.12995" lon="2.25516">
        <ele>261</ele>
        <time>2022-09-11T07:59:16.556Z</time>
      </trkpt>
      <trkpt lat="44.12994" lon="2.25517">
        <ele>261</ele>
        <time>2022-09-11T07:59:17.556Z</time>
      </trkpt>
      <trkpt lat="44.12994" lon="2.25517">
        <ele>261</ele>
        <time>2022-09-11T07:59:18.556Z</time>
      </trkpt>
      <trkpt lat="44.12993" lon="2.25518">
        <ele>261</ele>
        <time>2022-09-11T07:59:19.556Z</time>
      </trkpt>
      <trkpt lat="44.12993" lon="2.25519">
        <ele>261</ele>
        <time>2022-09-11T07:59:20.556Z</time>
      </trkpt>
      <trkpt lat="44.12992" lon="2.25519">
        <ele>261</ele>
        <time>2022-09-11T07:59:21.556Z</time>
      </trkpt>
      <trkpt lat="44.12992" lon="2.2552">
        <ele>261</ele>
        <time>2022-09-11T07:59:22.556Z</time>
      </trkpt>
      <trkpt lat="44.12992" lon="2.2552">
        <ele>261</ele>
        <time>2022-09-11T07:59:23.556Z</time>
      </trkpt>
      <trkpt lat="44.12992" lon="2.25521">
        <ele>261</ele>
        <time>2022-09-11T07:59:24.556Z</time>
      </trkpt>
      <trkpt lat="44.12992" lon="2.25521">
        <ele>261</ele>
        <time>2022-09-11T07:59:25.556Z</time>
      </trkpt>
      <trkpt lat="44.12992" lon="2.25524">
        <ele>261</ele>
        <time>2022-09-11T07:59:33.561Z</time>
      </trkpt>
      <trkpt lat="44.12992" lon="2.25524">
        <ele>261</ele>
        <time>2022-09-11T07:59:34.561Z</time>
      </trkpt>
      <trkpt lat="44.12991" lon="2.25528">
        <ele>261</ele>
        <time>2022-09-11T07:59:37.816Z</time>
      </trkpt>
      <trkpt lat="44.12991" lon="2.25528">
        <ele>261</ele>
        <time>2022-09-11T07:59:38.816Z</time>
      </trkpt>
      <trkpt lat="44.12991" lon="2.25529">
        <ele>261</ele>
        <time>2022-09-11T07:59:39.816Z</time>
      </trkpt>
      <trkpt lat="44.1299" lon="2.25529">
        <ele>261</ele>
        <time>2022-09-11T07:59:40.816Z</time>
      </trkpt>
      <trkpt lat="44.1299" lon="2.25529">
        <ele>261</ele>
        <time>2022-09-11T07:59:41.816Z</time>
      </trkpt>
      <trkpt lat="44.1299" lon="2.2553">
        <ele>261</ele>
        <time>2022-09-11T07:59:42.816Z</time>
      </trkpt>
      <trkpt lat="44.1299" lon="2.2553">
        <ele>262</ele>
        <time>2022-09-11T07:59:43.816Z</time>
      </trkpt>
      <trkpt lat="44.1299" lon="2.2553">
        <ele>262</ele>
        <time>2022-09-11T07:59:44.816Z</time>
      </trkpt>
      <trkpt lat="44.12986" lon="2.25536">
        <ele>261</ele>
        <time>2022-09-11T08:02:17.824Z</time>
      </trkpt>
      <trkpt lat="44.12986" lon="2.25537">
        <ele>261</ele>
        <time>2022-09-11T08:02:18.824Z</time>
      </trkpt>
      <trkpt lat="44.12985" lon="2.25538">
        <ele>261</ele>
        <time>2022-09-11T08:02:19.824Z</time>
      </trkpt>
      <trkpt lat="44.12985" lon="2.25538">
        <ele>261</ele>
        <time>2022-09-11T08:02:20.824Z</time>
      </trkpt>
      <trkpt lat="44.12984" lon="2.25538">
        <ele>261</ele>
        <time>2022-09-11T08:02:21.824Z</time>
      </trkpt>
      <trkpt lat="44.12984" lon="2.25538">
        <ele>261</ele>
        <time>2022-09-11T08:02:22.824Z</time>
      </trkpt>
      <trkpt lat="44.12984" lon="2.25538">
        <ele>261</ele>
        <time>2022-09-11T08:02:23.824Z</time>
      </trkpt>
      <trkpt lat="44.12983" lon="2.25539">
        <ele>261</ele>
        <time>2022-09-11T08:02:24.824Z</time>
      </trkpt>
      <trkpt lat="44.12983" lon="2.25539">
        <ele>261</ele>
        <time>2022-09-11T08:02:25.824Z</time>
      </trkpt>
      <trkpt lat="44.12983" lon="2.2554">
        <ele>261</ele>
        <time>2022-09-11T08:02:26.824Z</time>
      </trkpt>
      <trkpt lat="44.12982" lon="2.2554">
        <ele>261</ele>
        <time>2022-09-11T08:02:27.824Z</time>
      </trkpt>
      <trkpt lat="44.12982" lon="2.25541">
        <ele>261</ele>
        <time>2022-09-11T08:02:28.824Z</time>
      </trkpt>
      <trkpt lat="44.12982" lon="2.25541">
        <ele>261</ele>
        <time>2022-09-11T08:02:29.824Z</time>
      </trkpt>
      <trkpt lat="44.12982" lon="2.25541">
        <ele>262</ele>
        <time>2022-09-11T08:02:30.824Z</time>
      </trkpt>
      <trkpt lat="44.12981" lon="2.25542">
        <ele>262</ele>
        <time>2022-09-11T08:02:34.078Z</time>
      </trkpt>
      <trkpt lat="44.12981" lon="2.25543">
        <ele>262</ele>
        <time>2022-09-11T08:02:35.078Z</time>
      </trkpt>
      <trkpt lat="44.12981" lon="2.25544">
        <ele>262</ele>
        <time>2022-09-11T08:02:36.078Z</time>
      </trkpt>
      <trkpt lat="44.1298" lon="2.25544">
        <ele>263</ele>
        <time>2022-09-11T08:02:37.078Z</time>
      </trkpt>
      <trkpt lat="44.1298" lon="2.25545">
        <ele>263</ele>
        <time>2022-09-11T08:02:38.078Z</time>
      </trkpt>
      <trkpt lat="44.1298" lon="2.25545">
        <ele>263</ele>
        <time>2022-09-11T08:02:39.078Z</time>
      </trkpt>
      <trkpt lat="44.12979" lon="2.25546">
        <ele>263</ele>
        <time>2022-09-11T08:02:40.078Z</time>
      </trkpt>
      <trkpt lat="44.12979" lon="2.25546">
        <ele>263</ele>
        <time>2022-09-11T08:02:41.078Z</time>
      </trkpt>
      <trkpt lat="44.12979" lon="2.25546">
        <ele>263</ele>
        <time>2022-09-11T08:02:42.078Z</time>
      </trkpt>
      <trkpt lat="44.12978" lon="2.25546">
        <ele>264</ele>
        <time>2022-09-11T08:02:43.078Z</time>
      </trkpt>
      <trkpt lat="44.12978" lon="2.25547">
        <ele>264</ele>
        <time>2022-09-11T08:02:44.078Z</time>
      </trkpt>
      <trkpt lat="44.12978" lon="2.25547">
        <ele>264</ele>
        <time>2022-09-11T08:02:45.078Z</time>
      </trkpt>
      <trkpt lat="44.12977" lon="2.25547">
        <ele>264</ele>
        <time>2022-09-11T08:02:46.078Z</time>
      </trkpt>
      <trkpt lat="44.12977" lon="2.25547">
        <ele>264</ele>
        <time>2022-09-11T08:02:47.078Z</time>
      </trkpt>
      <trkpt lat="44.12976" lon="2.25547">
        <ele>264</ele>
        <time>2022-09-11T08:02:48.078Z</time>
      </trkpt>
      <trkpt lat="44.12976" lon="2.25548">
        <ele>264</ele>
        <time>2022-09-11T08:02:49.078Z</time>
      </trkpt>
      <trkpt lat="44.12975" lon="2.25548">
        <ele>264</ele>
        <time>2022-09-11T08:02:50.078Z</time>
      </trkpt>
      <trkpt lat="44.12974" lon="2.25549">
        <ele>264</ele>
        <time>2022-09-11T08:02:51.078Z</time>
      </trkpt>
      <trkpt lat="44.12974" lon="2.25549">
        <ele>264</ele>
        <time>2022-09-11T08:02:52.078Z</time>
      </trkpt>
      <trkpt lat="44.12973" lon="2.2555">
        <ele>264</ele>
        <time>2022-09-11T08:02:53.078Z</time>
      </trkpt>
      <trkpt lat="44.12972" lon="2.25551">
        <ele>264</ele>
        <time>2022-09-11T08:02:54.078Z</time>
      </trkpt>
      <trkpt lat="44.12971" lon="2.25552">
        <ele>265</ele>
        <time>2022-09-11T08:02:55.078Z</time>
      </trkpt>
      <trkpt lat="44.1297" lon="2.25553">
        <ele>265</ele>
        <time>2022-09-11T08:02:56.078Z</time>
      </trkpt>
      <trkpt lat="44.1297" lon="2.25554">
        <ele>265</ele>
        <time>2022-09-11T08:02:57.078Z</time>
      </trkpt>
      <trkpt lat="44.12969" lon="2.25554">
        <ele>265</ele>
        <time>2022-09-11T08:02:58.078Z</time>
      </trkpt>
      <trkpt lat="44.12969" lon="2.25554">
        <ele>265</ele>
        <time>2022-09-11T08:02:59.078Z</time>
      </trkpt>
      <trkpt lat="44.12968" lon="2.25554">
        <ele>265</ele>
        <time>2022-09-11T08:03:00.078Z</time>
      </trkpt>
      <trkpt lat="44.12968" lon="2.25555">
        <ele>265</ele>
        <time>2022-09-11T08:03:01.078Z</time>
      </trkpt>
      <trkpt lat="44.12967" lon="2.25555">
        <ele>266</ele>
        <time>2022-09-11T08:03:02.078Z</time>
      </trkpt>
      <trkpt lat="44.12967" lon="2.25556">
        <ele>266</ele>
        <time>2022-09-11T08:03:05.333Z</time>
      </trkpt>
      <trkpt lat="44.12966" lon="2.25557">
        <ele>266</ele>
        <time>2022-09-11T08:03:06.333Z</time>
      </trkpt>
      <trkpt lat="44.12966" lon="2.25557">
        <ele>266</ele>
        <time>2022-09-11T08:03:07.333Z</time>
      </trkpt>
      <trkpt lat="44.12958" lon="2.25561">
        <ele>267</ele>
        <time>2022-09-11T08:03:37.344Z</time>
      </trkpt>
      <trkpt lat="44.12957" lon="2.25561">
        <ele>267</ele>
        <time>2022-09-11T08:03:38.344Z</time>
      </trkpt>
      <trkpt lat="44.12956" lon="2.25561">
        <ele>267</ele>
        <time>2022-09-11T08:03:39.344Z</time>
      </trkpt>
      <trkpt lat="44.12956" lon="2.25562">
        <ele>268</ele>
        <time>2022-09-11T08:03:40.344Z</time>
      </trkpt>
      <trkpt lat="44.12955" lon="2.25562">
        <ele>268</ele>
        <time>2022-09-11T08:03:41.344Z</time>
      </trkpt>
      <trkpt lat="44.12954" lon="2.25562">
        <ele>268</ele>
        <time>2022-09-11T08:03:42.344Z</time>
      </trkpt>
      <trkpt lat="44.12954" lon="2.25562">
        <ele>268</ele>
        <time>2022-09-11T08:03:43.344Z</time>
      </trkpt>
      <trkpt lat="44.12953" lon="2.25562">
        <ele>268</ele>
        <time>2022-09-11T08:03:44.344Z</time>
      </trkpt>
      <trkpt lat="44.12953" lon="2.25562">
        <ele>268</ele>
        <time>2022-09-11T08:03:45.344Z</time>
      </trkpt>
      <trkpt lat="44.12953" lon="2.25563">
        <ele>269</ele>
        <time>2022-09-11T08:03:46.344Z</time>
      </trkpt>
      <trkpt lat="44.12952" lon="2.25563">
        <ele>269</ele>
        <time>2022-09-11T08:03:47.344Z</time>
      </trkpt>
      <trkpt lat="44.12951" lon="2.25563">
        <ele>269</ele>
        <time>2022-09-11T08:03:50.599Z</time>
      </trkpt>
      <trkpt lat="44.1295" lon="2.25563">
        <ele>269</ele>
        <time>2022-09-11T08:03:51.599Z</time>
      </trkpt>
      <trkpt lat="44.1295" lon="2.25563">
        <ele>269</ele>
        <time>2022-09-11T08:03:52.599Z</time>
      </trkpt>
      <trkpt lat="44.12949" lon="2.25564">
        <ele>269</ele>
        <time>2022-09-11T08:03:53.599Z</time>
      </trkpt>
      <trkpt lat="44.12949" lon="2.25564">
        <ele>270</ele>
        <time>2022-09-11T08:03:54.599Z</time>
      </trkpt>
      <trkpt lat="44.12948" lon="2.25565">
        <ele>270</ele>
        <time>2022-09-11T08:03:55.599Z</time>
      </trkpt>
      <trkpt lat="44.12948" lon="2.25565">
        <ele>270</ele>
        <time>2022-09-11T08:03:56.599Z</time>
      </trkpt>
      <trkpt lat="44.12947" lon="2.25565">
        <ele>270</ele>
        <time>2022-09-11T08:03:57.599Z</time>
      </trkpt>
      <trkpt lat="44.12947" lon="2.25565">
        <ele>270</ele>
        <time>2022-09-11T08:03:58.599Z</time>
      </trkpt>
      <trkpt lat="44.12947" lon="2.25566">
        <ele>270</ele>
        <time>2022-09-11T08:03:59.599Z</time>
      </trkpt>
      <trkpt lat="44.12946" lon="2.25567">
        <ele>271</ele>
        <time>2022-09-11T08:04:00.599Z</time>
      </trkpt>
      <trkpt lat="44.12946" lon="2.25568">
        <ele>271</ele>
        <time>2022-09-11T08:04:01.599Z</time>
      </trkpt>
      <trkpt lat="44.12945" lon="2.25568">
        <ele>271</ele>
        <time>2022-09-11T08:04:02.599Z</time>
      </trkpt>
      <trkpt lat="44.12945" lon="2.25569">
        <ele>271</ele>
        <time>2022-09-11T08:04:03.599Z</time>
      </trkpt>
      <trkpt lat="44.12944" lon="2.2557">
        <ele>271</ele>
        <time>2022-09-11T08:04:04.599Z</time>
      </trkpt>
      <trkpt lat="44.12944" lon="2.2557">
        <ele>271</ele>
        <time>2022-09-11T08:04:05.599Z</time>
      </trkpt>
      <trkpt lat="44.12944" lon="2.25571">
        <ele>272</ele>
        <time>2022-09-11T08:04:06.599Z</time>
      </trkpt>
      <trkpt lat="44.12943" lon="2.25571">
        <ele>272</ele>
        <time>2022-09-11T08:04:07.599Z</time>
      </trkpt>
      <trkpt lat="44.12943" lon="2.25571">
        <ele>272</ele>
        <time>2022-09-11T08:04:08.599Z</time>
      </trkpt>
      <trkpt lat="44.12942" lon="2.25571">
        <ele>272</ele>
        <time>2022-09-11T08:04:11.855Z</time>
      </trkpt>
      <trkpt lat="44.12942" lon="2.25571">
        <ele>272</ele>
        <time>2022-09-11T08:04:12.855Z</time>
      </trkpt>
      <trkpt lat="44.12941" lon="2.25571">
        <ele>273</ele>
        <time>2022-09-11T08:04:13.855Z</time>
      </trkpt>
      <trkpt lat="44.12941" lon="2.25571">
        <ele>273</ele>
        <time>2022-09-11T08:04:14.855Z</time>
      </trkpt>
      <trkpt lat="44.12941" lon="2.2557">
        <ele>273</ele>
        <time>2022-09-11T08:04:15.855Z</time>
      </trkpt>
      <trkpt lat="44.12943" lon="2.25571">
        <ele>273</ele>
        <time>2022-09-11T08:04:21.864Z</time>
      </trkpt>
      <trkpt lat="44.12943" lon="2.25571">
        <ele>273</ele>
        <time>2022-09-11T08:04:22.864Z</time>
      </trkpt>
      <trkpt lat="44.12944" lon="2.25572">
        <ele>273</ele>
        <time>2022-09-11T08:04:23.864Z</time>
      </trkpt>
      <trkpt lat="44.12944" lon="2.25572">
        <ele>273</ele>
        <time>2022-09-11T08:04:24.864Z</time>
      </trkpt>
      <trkpt lat="44.12944" lon="2.25573">
        <ele>273</ele>
        <time>2022-09-11T08:04:25.864Z</time>
      </trkpt>
      <trkpt lat="44.12944" lon="2.25573">
        <ele>273</ele>
        <time>2022-09-11T08:04:26.864Z</time>
      </trkpt>
      <trkpt lat="44.12944" lon="2.25573">
        <ele>273</ele>
        <time>2022-09-11T08:04:27.864Z</time>
      </trkpt>
      <trkpt lat="44.12945" lon="2.25574">
        <ele>272</ele>
        <time>2022-09-11T08:04:31.120Z</time>
      </trkpt>
      <trkpt lat="44.12945" lon="2.25574">
        <ele>272</ele>
        <time>2022-09-11T08:04:32.120Z</time>
      </trkpt>
      <trkpt lat="44.12945" lon="2.25574">
        <ele>272</ele>
        <time>2022-09-11T08:04:33.120Z</time>
      </trkpt>
      <trkpt lat="44.12945" lon="2.25574">
        <ele>272</ele>
        <time>2022-09-11T08:04:34.120Z</time>
      </trkpt>
      <trkpt lat="44.12945" lon="2.25574">
        <ele>272</ele>
        <time>2022-09-11T08:04:35.120Z</time>
      </trkpt>
      <trkpt lat="44.12945" lon="2.25576">
        <ele>274</ele>
        <time>2022-09-11T08:05:20.132Z</time>
      </trkpt>
      <trkpt lat="44.12945" lon="2.25575">
        <ele>274</ele>
        <time>2022-09-11T08:05:21.132Z</time>
      </trkpt>
      <trkpt lat="44.12945" lon="2.25575">
        <ele>274</ele>
        <time>2022-09-11T08:05:22.132Z</time>
      </trkpt>
      <trkpt lat="44.12944" lon="2.25575">
        <ele>274</ele>
        <time>2022-09-11T08:05:23.132Z</time>
      </trkpt>
      <trkpt lat="44.12944" lon="2.25574">
        <ele>274</ele>
        <time>2022-09-11T08:05:24.132Z</time>
      </trkpt>
      <trkpt lat="44.12943" lon="2.25573">
        <ele>274</ele>
        <time>2022-09-11T08:05:34.146Z</time>
      </trkpt>
      <trkpt lat="44.12943" lon="2.25572">
        <ele>274</ele>
        <time>2022-09-11T08:05:35.146Z</time>
      </trkpt>
      <trkpt lat="44.12943" lon="2.25572">
        <ele>274</ele>
        <time>2022-09-11T08:05:36.146Z</time>
      </trkpt>
      <trkpt lat="44.12943" lon="2.25571">
        <ele>274</ele>
        <time>2022-09-11T08:05:37.146Z</time>
      </trkpt>
      <trkpt lat="44.12943" lon="2.25571">
        <ele>274</ele>
        <time>2022-09-11T08:05:38.146Z</time>
      </trkpt>
      <trkpt lat="44.12939" lon="2.25568">
        <ele>274</ele>
        <time>2022-09-11T08:06:02.159Z</time>
      </trkpt>
      <trkpt lat="44.12939" lon="2.25568">
        <ele>274</ele>
        <time>2022-09-11T08:06:03.159Z</time>
      </trkpt>
      <trkpt lat="44.12938" lon="2.25567">
        <ele>274</ele>
        <time>2022-09-11T08:06:04.159Z</time>
      </trkpt>
      <trkpt lat="44.12938" lon="2.25567">
        <ele>274</ele>
        <time>2022-09-11T08:06:05.159Z</time>
      </trkpt>
      <trkpt lat="44.12938" lon="2.25567">
        <ele>274</ele>
        <time>2022-09-11T08:06:06.159Z</time>
      </trkpt>
      <trkpt lat="44.12923" lon="2.2557">
        <ele>278</ele>
        <time>2022-09-11T08:07:54.158Z</time>
      </trkpt>
      <trkpt lat="44.12922" lon="2.25571">
        <ele>278</ele>
        <time>2022-09-11T08:07:55.158Z</time>
      </trkpt>
      <trkpt lat="44.12922" lon="2.25571">
        <ele>277</ele>
        <time>2022-09-11T08:07:56.158Z</time>
      </trkpt>
      <trkpt lat="44.12922" lon="2.25571">
        <ele>277</ele>
        <time>2022-09-11T08:07:57.158Z</time>
      </trkpt>
      <trkpt lat="44.12922" lon="2.25571">
        <ele>277</ele>
        <time>2022-09-11T08:07:58.158Z</time>
      </trkpt>
      <trkpt lat="44.1292" lon="2.25572">
        <ele>278</ele>
        <time>2022-09-11T08:08:11.158Z</time>
      </trkpt>
      <trkpt lat="44.1292" lon="2.25572">
        <ele>278</ele>
        <time>2022-09-11T08:08:12.158Z</time>
      </trkpt>
      <trkpt lat="44.1292" lon="2.25572">
        <ele>278</ele>
        <time>2022-09-11T08:08:13.158Z</time>
      </trkpt>
      <trkpt lat="44.12915" lon="2.25577">
        <ele>279</ele>
        <time>2022-09-11T08:08:32.162Z</time>
      </trkpt>
      <trkpt lat="44.12915" lon="2.25577">
        <ele>279</ele>
        <time>2022-09-11T08:08:33.162Z</time>
      </trkpt>
      <trkpt lat="44.12915" lon="2.25577">
        <ele>279</ele>
        <time>2022-09-11T08:08:34.162Z</time>
      </trkpt>
      <trkpt lat="44.12911" lon="2.25579">
        <ele>279</ele>
        <time>2022-09-11T08:09:01.418Z</time>
      </trkpt>
      <trkpt lat="44.1291" lon="2.2558">
        <ele>279</ele>
        <time>2022-09-11T08:09:02.418Z</time>
      </trkpt>
      <trkpt lat="44.12908" lon="2.25583">
        <ele>279</ele>
        <time>2022-09-11T08:09:18.424Z</time>
      </trkpt>
      <trkpt lat="44.12907" lon="2.25583">
        <ele>279</ele>
        <time>2022-09-11T08:09:19.424Z</time>
      </trkpt>
      <trkpt lat="44.12907" lon="2.25583">
        <ele>279</ele>
        <time>2022-09-11T08:09:20.424Z</time>
      </trkpt>
      <trkpt lat="44.12906" lon="2.25583">
        <ele>279</ele>
        <time>2022-09-11T08:09:21.424Z</time>
      </trkpt>
      <trkpt lat="44.12905" lon="2.25584">
        <ele>279</ele>
        <time>2022-09-11T08:09:22.424Z</time>
      </trkpt>
      <trkpt lat="44.12904" lon="2.25583">
        <ele>279</ele>
        <time>2022-09-11T08:09:23.424Z</time>
      </trkpt>
      <trkpt lat="44.12904" lon="2.25583">
        <ele>279</ele>
        <time>2022-09-11T08:09:24.424Z</time>
      </trkpt>
      <trkpt lat="44.12903" lon="2.25583">
        <ele>279</ele>
        <time>2022-09-11T08:09:25.424Z</time>
      </trkpt>
      <trkpt lat="44.12903" lon="2.25583">
        <ele>279</ele>
        <time>2022-09-11T08:09:26.424Z</time>
      </trkpt>
      <trkpt lat="44.12903" lon="2.25583">
        <ele>279</ele>
        <time>2022-09-11T08:09:27.424Z</time>
      </trkpt>
      <trkpt lat="44.129" lon="2.25583">
        <ele>279</ele>
        <time>2022-09-11T08:09:37.429Z</time>
      </trkpt>
      <trkpt lat="44.129" lon="2.25583">
        <ele>279</ele>
        <time>2022-09-11T08:09:38.429Z</time>
      </trkpt>
      <trkpt lat="44.12899" lon="2.25583">
        <ele>279</ele>
        <time>2022-09-11T08:09:39.429Z</time>
      </trkpt>
      <trkpt lat="44.12899" lon="2.25583">
        <ele>279</ele>
        <time>2022-09-11T08:09:40.429Z</time>
      </trkpt>
      <trkpt lat="44.12898" lon="2.25583">
        <ele>279</ele>
        <time>2022-09-11T08:09:41.429Z</time>
      </trkpt>
      <trkpt lat="44.12898" lon="2.25583">
        <ele>279</ele>
        <time>2022-09-11T08:09:42.429Z</time>
      </trkpt>
      <trkpt lat="44.12898" lon="2.25583">
        <ele>279</ele>
        <time>2022-09-11T08:09:43.429Z</time>
      </trkpt>
      <trkpt lat="44.12895" lon="2.25585">
        <ele>278</ele>
        <time>2022-09-11T08:09:50.434Z</time>
      </trkpt>
      <trkpt lat="44.12894" lon="2.25585">
        <ele>278</ele>
        <time>2022-09-11T08:09:51.434Z</time>
      </trkpt>
      <trkpt lat="44.12893" lon="2.25585">
        <ele>278</ele>
        <time>2022-09-11T08:09:52.434Z</time>
      </trkpt>
      <trkpt lat="44.12892" lon="2.25585">
        <ele>278</ele>
        <time>2022-09-11T08:09:53.434Z</time>
      </trkpt>
      <trkpt lat="44.12892" lon="2.25584">
        <ele>278</ele>
        <time>2022-09-11T08:09:54.434Z</time>
      </trkpt>
      <trkpt lat="44.12891" lon="2.25584">
        <ele>278</ele>
        <time>2022-09-11T08:09:55.434Z</time>
      </trkpt>
      <trkpt lat="44.1289" lon="2.25584">
        <ele>278</ele>
        <time>2022-09-11T08:09:56.434Z</time>
      </trkpt>
      <trkpt lat="44.1289" lon="2.25583">
        <ele>278</ele>
        <time>2022-09-11T08:09:57.434Z</time>
      </trkpt>
      <trkpt lat="44.12889" lon="2.25583">
        <ele>278</ele>
        <time>2022-09-11T08:09:58.434Z</time>
      </trkpt>
      <trkpt lat="44.12889" lon="2.25582">
        <ele>278</ele>
        <time>2022-09-11T08:09:59.434Z</time>
      </trkpt>
      <trkpt lat="44.12888" lon="2.25582">
        <ele>278</ele>
        <time>2022-09-11T08:10:00.434Z</time>
      </trkpt>
      <trkpt lat="44.12888" lon="2.25582">
        <ele>278</ele>
        <time>2022-09-11T08:10:01.434Z</time>
      </trkpt>
      <trkpt lat="44.12887" lon="2.25581">
        <ele>278</ele>
        <time>2022-09-11T08:10:02.434Z</time>
      </trkpt>
      <trkpt lat="44.12887" lon="2.2558">
        <ele>278</ele>
        <time>2022-09-11T08:10:03.434Z</time>
      </trkpt>
      <trkpt lat="44.12886" lon="2.2558">
        <ele>278</ele>
        <time>2022-09-11T08:10:04.434Z</time>
      </trkpt>
      <trkpt lat="44.12886" lon="2.25579">
        <ele>278</ele>
        <time>2022-09-11T08:10:05.434Z</time>
      </trkpt>
      <trkpt lat="44.12885" lon="2.25579">
        <ele>278</ele>
        <time>2022-09-11T08:10:06.434Z</time>
      </trkpt>
      <trkpt lat="44.12885" lon="2.25578">
        <ele>278</ele>
        <time>2022-09-11T08:10:07.434Z</time>
      </trkpt>
      <trkpt lat="44.12884" lon="2.25577">
        <ele>278</ele>
        <time>2022-09-11T08:10:08.434Z</time>
      </trkpt>
      <trkpt lat="44.12884" lon="2.25577">
        <ele>278</ele>
        <time>2022-09-11T08:10:09.434Z</time>
      </trkpt>
      <trkpt lat="44.12884" lon="2.25577">
        <ele>277</ele>
        <time>2022-09-11T08:10:10.434Z</time>
      </trkpt>
      <trkpt lat="44.12884" lon="2.25577">
        <ele>277</ele>
        <time>2022-09-11T08:10:11.434Z</time>
      </trkpt>
      <trkpt lat="44.12884" lon="2.25577">
        <ele>277</ele>
        <time>2022-09-11T08:10:12.434Z</time>
      </trkpt>
      <trkpt lat="44.12874" lon="2.25568">
        <ele>265</ele>
        <time>2022-09-11T08:17:18.446Z</time>
      </trkpt>
      <trkpt lat="44.12874" lon="2.25568">
        <ele>265</ele>
        <time>2022-09-11T08:17:19.446Z</time>
      </trkpt>
      <trkpt lat="44.12873" lon="2.25568">
        <ele>265</ele>
        <time>2022-09-11T08:17:20.446Z</time>
      </trkpt>
      <trkpt lat="44.12873" lon="2.25567">
        <ele>265</ele>
        <time>2022-09-11T08:17:21.446Z</time>
      </trkpt>
      <trkpt lat="44.12873" lon="2.25567">
        <ele>265</ele>
        <time>2022-09-11T08:17:22.446Z</time>
      </trkpt>
      <trkpt lat="44.12872" lon="2.25566">
        <ele>264</ele>
        <time>2022-09-11T08:17:25.762Z</time>
      </trkpt>
      <trkpt lat="44.12871" lon="2.25566">
        <ele>264</ele>
        <time>2022-09-11T08:17:26.762Z</time>
      </trkpt>
      <trkpt lat="44.1287" lon="2.25564">
        <ele>264</ele>
        <time>2022-09-11T08:17:30.157Z</time>
      </trkpt>
      <trkpt lat="44.1287" lon="2.25564">
        <ele>264</ele>
        <time>2022-09-11T08:17:31.157Z</time>
      </trkpt>
      <trkpt lat="44.12869" lon="2.25564">
        <ele>264</ele>
        <time>2022-09-11T08:17:32.157Z</time>
      </trkpt>
      <trkpt lat="44.12869" lon="2.25563">
        <ele>264</ele>
        <time>2022-09-11T08:17:33.157Z</time>
      </trkpt>
      <trkpt lat="44.12869" lon="2.25563">
        <ele>264</ele>
        <time>2022-09-11T08:17:34.157Z</time>
      </trkpt>
      <trkpt lat="44.12868" lon="2.25563">
        <ele>264</ele>
        <time>2022-09-11T08:17:35.157Z</time>
      </trkpt>
      <trkpt lat="44.12868" lon="2.25562">
        <ele>264</ele>
        <time>2022-09-11T08:17:36.157Z</time>
      </trkpt>
      <trkpt lat="44.12867" lon="2.25561">
        <ele>264</ele>
        <time>2022-09-11T08:17:37.157Z</time>
      </trkpt>
      <trkpt lat="44.12867" lon="2.25561">
        <ele>263</ele>
        <time>2022-09-11T08:17:38.157Z</time>
      </trkpt>
      <trkpt lat="44.12866" lon="2.2556">
        <ele>263</ele>
        <time>2022-09-11T08:17:39.157Z</time>
      </trkpt>
      <trkpt lat="44.12866" lon="2.2556">
        <ele>263</ele>
        <time>2022-09-11T08:17:40.157Z</time>
      </trkpt>
      <trkpt lat="44.12865" lon="2.25559">
        <ele>263</ele>
        <time>2022-09-11T08:17:41.157Z</time>
      </trkpt>
      <trkpt lat="44.12865" lon="2.25558">
        <ele>263</ele>
        <time>2022-09-11T08:17:42.157Z</time>
      </trkpt>
      <trkpt lat="44.12864" lon="2.25558">
        <ele>263</ele>
        <time>2022-09-11T08:17:43.157Z</time>
      </trkpt>
      <trkpt lat="44.12864" lon="2.25558">
        <ele>263</ele>
        <time>2022-09-11T08:17:44.157Z</time>
      </trkpt>
      <trkpt lat="44.12863" lon="2.25557">
        <ele>263</ele>
        <time>2022-09-11T08:17:45.157Z</time>
      </trkpt>
      <trkpt lat="44.12863" lon="2.25557">
        <ele>263</ele>
        <time>2022-09-11T08:17:46.157Z</time>
      </trkpt>
      <trkpt lat="44.12862" lon="2.25556">
        <ele>262</ele>
        <time>2022-09-11T08:17:47.157Z</time>
      </trkpt>
      <trkpt lat="44.12862" lon="2.25556">
        <ele>262</ele>
        <time>2022-09-11T08:17:48.157Z</time>
      </trkpt>
      <trkpt lat="44.12861" lon="2.25555">
        <ele>262</ele>
        <time>2022-09-11T08:17:49.157Z</time>
      </trkpt>
      <trkpt lat="44.1286" lon="2.25554">
        <ele>262</ele>
        <time>2022-09-11T08:17:50.157Z</time>
      </trkpt>
      <trkpt lat="44.1286" lon="2.25554">
        <ele>262</ele>
        <time>2022-09-11T08:17:51.157Z</time>
      </trkpt>
      <trkpt lat="44.12859" lon="2.25553">
        <ele>262</ele>
        <time>2022-09-11T08:17:52.157Z</time>
      </trkpt>
      <trkpt lat="44.12858" lon="2.25552">
        <ele>262</ele>
        <time>2022-09-11T08:17:53.157Z</time>
      </trkpt>
      <trkpt lat="44.12857" lon="2.25551">
        <ele>262</ele>
        <time>2022-09-11T08:17:54.157Z</time>
      </trkpt>
      <trkpt lat="44.12857" lon="2.2555">
        <ele>262</ele>
        <time>2022-09-11T08:17:55.157Z</time>
      </trkpt>
      <trkpt lat="44.12856" lon="2.25549">
        <ele>262</ele>
        <time>2022-09-11T08:17:56.157Z</time>
      </trkpt>
      <trkpt lat="44.12855" lon="2.25549">
        <ele>262</ele>
        <time>2022-09-11T08:17:57.157Z</time>
      </trkpt>
      <trkpt lat="44.12855" lon="2.25548">
        <ele>262</ele>
        <time>2022-09-11T08:17:58.157Z</time>
      </trkpt>
      <trkpt lat="44.12854" lon="2.25547">
        <ele>262</ele>
        <time>2022-09-11T08:17:59.157Z</time>
      </trkpt>
      <trkpt lat="44.12854" lon="2.25546">
        <ele>262</ele>
        <time>2022-09-11T08:18:00.157Z</time>
      </trkpt>
      <trkpt lat="44.12853" lon="2.25545">
        <ele>262</ele>
        <time>2022-09-11T08:18:01.157Z</time>
      </trkpt>
      <trkpt lat="44.12853" lon="2.25545">
        <ele>262</ele>
        <time>2022-09-11T08:18:02.157Z</time>
      </trkpt>
      <trkpt lat="44.12852" lon="2.25544">
        <ele>261</ele>
        <time>2022-09-11T08:18:03.157Z</time>
      </trkpt>
      <trkpt lat="44.12851" lon="2.25543">
        <ele>261</ele>
        <time>2022-09-11T08:18:04.157Z</time>
      </trkpt>
      <trkpt lat="44.1285" lon="2.25543">
        <ele>261</ele>
        <time>2022-09-11T08:18:05.157Z</time>
      </trkpt>
      <trkpt lat="44.1285" lon="2.25542">
        <ele>261</ele>
        <time>2022-09-11T08:18:06.157Z</time>
      </trkpt>
      <trkpt lat="44.12849" lon="2.25542">
        <ele>261</ele>
        <time>2022-09-11T08:18:07.157Z</time>
      </trkpt>
      <trkpt lat="44.12848" lon="2.25541">
        <ele>261</ele>
        <time>2022-09-11T08:18:08.157Z</time>
      </trkpt>
      <trkpt lat="44.12848" lon="2.2554">
        <ele>261</ele>
        <time>2022-09-11T08:18:09.157Z</time>
      </trkpt>
      <trkpt lat="44.12848" lon="2.2554">
        <ele>261</ele>
        <time>2022-09-11T08:18:10.157Z</time>
      </trkpt>
      <trkpt lat="44.12847" lon="2.25539">
        <ele>261</ele>
        <time>2022-09-11T08:18:11.157Z</time>
      </trkpt>
      <trkpt lat="44.12846" lon="2.25538">
        <ele>261</ele>
        <time>2022-09-11T08:18:12.157Z</time>
      </trkpt>
      <trkpt lat="44.12845" lon="2.25537">
        <ele>261</ele>
        <time>2022-09-11T08:18:13.157Z</time>
      </trkpt>
      <trkpt lat="44.12845" lon="2.25536">
        <ele>261</ele>
        <time>2022-09-11T08:18:14.157Z</time>
      </trkpt>
      <trkpt lat="44.12844" lon="2.25536">
        <ele>261</ele>
        <time>2022-09-11T08:18:15.157Z</time>
      </trkpt>
      <trkpt lat="44.12843" lon="2.25535">
        <ele>261</ele>
        <time>2022-09-11T08:18:16.157Z</time>
      </trkpt>
      <trkpt lat="44.12842" lon="2.25534">
        <ele>261</ele>
        <time>2022-09-11T08:18:17.157Z</time>
      </trkpt>
      <trkpt lat="44.12842" lon="2.25533">
        <ele>261</ele>
        <time>2022-09-11T08:18:18.157Z</time>
      </trkpt>
      <trkpt lat="44.12841" lon="2.25532">
        <ele>261</ele>
        <time>2022-09-11T08:18:19.157Z</time>
      </trkpt>
      <trkpt lat="44.1284" lon="2.25531">
        <ele>261</ele>
        <time>2022-09-11T08:18:20.157Z</time>
      </trkpt>
      <trkpt lat="44.1284" lon="2.2553">
        <ele>261</ele>
        <time>2022-09-11T08:18:21.157Z</time>
      </trkpt>
      <trkpt lat="44.12839" lon="2.25529">
        <ele>261</ele>
        <time>2022-09-11T08:18:22.157Z</time>
      </trkpt>
      <trkpt lat="44.12838" lon="2.25529">
        <ele>261</ele>
        <time>2022-09-11T08:18:23.157Z</time>
      </trkpt>
      <trkpt lat="44.12838" lon="2.25528">
        <ele>261</ele>
        <time>2022-09-11T08:18:24.157Z</time>
      </trkpt>
      <trkpt lat="44.12837" lon="2.25527">
        <ele>261</ele>
        <time>2022-09-11T08:18:25.157Z</time>
      </trkpt>
      <trkpt lat="44.12836" lon="2.25527">
        <ele>262</ele>
        <time>2022-09-11T08:18:26.157Z</time>
      </trkpt>
      <trkpt lat="44.12836" lon="2.25526">
        <ele>262</ele>
        <time>2022-09-11T08:18:27.157Z</time>
      </trkpt>
      <trkpt lat="44.12835" lon="2.25525">
        <ele>262</ele>
        <time>2022-09-11T08:18:28.157Z</time>
      </trkpt>
      <trkpt lat="44.12834" lon="2.25524">
        <ele>262</ele>
        <time>2022-09-11T08:18:29.157Z</time>
      </trkpt>
      <trkpt lat="44.12833" lon="2.25524">
        <ele>262</ele>
        <time>2022-09-11T08:18:30.157Z</time>
      </trkpt>
      <trkpt lat="44.12833" lon="2.25523">
        <ele>262</ele>
        <time>2022-09-11T08:18:31.157Z</time>
      </trkpt>
      <trkpt lat="44.12833" lon="2.25523">
        <ele>262</ele>
        <time>2022-09-11T08:18:32.157Z</time>
      </trkpt>
      <trkpt lat="44.12832" lon="2.25523">
        <ele>262</ele>
        <time>2022-09-11T08:18:33.157Z</time>
      </trkpt>
      <trkpt lat="44.12832" lon="2.25523">
        <ele>262</ele>
        <time>2022-09-11T08:18:34.157Z</time>
      </trkpt>
      <trkpt lat="44.12831" lon="2.25523">
        <ele>262</ele>
        <time>2022-09-11T08:18:35.157Z</time>
      </trkpt>
      <trkpt lat="44.12831" lon="2.25522">
        <ele>262</ele>
        <time>2022-09-11T08:18:36.157Z</time>
      </trkpt>
      <trkpt lat="44.1283" lon="2.25522">
        <ele>262</ele>
        <time>2022-09-11T08:18:37.157Z</time>
      </trkpt>
      <trkpt lat="44.1283" lon="2.25522">
        <ele>262</ele>
        <time>2022-09-11T08:18:38.157Z</time>
      </trkpt>
      <trkpt lat="44.12829" lon="2.25522">
        <ele>262</ele>
        <time>2022-09-11T08:18:39.157Z</time>
      </trkpt>
      <trkpt lat="44.12828" lon="2.25521">
        <ele>262</ele>
        <time>2022-09-11T08:18:40.157Z</time>
      </trkpt>
      <trkpt lat="44.12827" lon="2.25521">
        <ele>262</ele>
        <time>2022-09-11T08:18:41.157Z</time>
      </trkpt>
      <trkpt lat="44.12826" lon="2.2552">
        <ele>263</ele>
        <time>2022-09-11T08:18:42.157Z</time>
      </trkpt>
      <trkpt lat="44.12825" lon="2.2552">
        <ele>263</ele>
        <time>2022-09-11T08:18:43.157Z</time>
      </trkpt>
      <trkpt lat="44.12824" lon="2.25519">
        <ele>263</ele>
        <time>2022-09-11T08:18:44.157Z</time>
      </trkpt>
      <trkpt lat="44.12823" lon="2.25519">
        <ele>263</ele>
        <time>2022-09-11T08:18:45.157Z</time>
      </trkpt>
      <trkpt lat="44.12823" lon="2.25518">
        <ele>263</ele>
        <time>2022-09-11T08:18:46.157Z</time>
      </trkpt>
      <trkpt lat="44.12822" lon="2.25517">
        <ele>263</ele>
        <time>2022-09-11T08:18:47.157Z</time>
      </trkpt>
      <trkpt lat="44.12821" lon="2.25517">
        <ele>263</ele>
        <time>2022-09-11T08:18:48.157Z</time>
      </trkpt>
      <trkpt lat="44.1282" lon="2.25516">
        <ele>264</ele>
        <time>2022-09-11T08:18:49.157Z</time>
      </trkpt>
      <trkpt lat="44.1282" lon="2.25515">
        <ele>264</ele>
        <time>2022-09-11T08:18:50.157Z</time>
      </trkpt>
      <trkpt lat="44.12819" lon="2.25514">
        <ele>264</ele>
        <time>2022-09-11T08:18:51.157Z</time>
      </trkpt>
      <trkpt lat="44.12818" lon="2.25514">
        <ele>264</ele>
        <time>2022-09-11T08:18:52.157Z</time>
      </trkpt>
      <trkpt lat="44.12817" lon="2.25513">
        <ele>264</ele>
        <time>2022-09-11T08:18:53.157Z</time>
      </trkpt>
      <trkpt lat="44.12816" lon="2.25512">
        <ele>265</ele>
        <time>2022-09-11T08:18:54.157Z</time>
      </trkpt>
      <trkpt lat="44.12815" lon="2.25512">
        <ele>265</ele>
        <time>2022-09-11T08:18:55.157Z</time>
      </trkpt>
      <trkpt lat="44.12815" lon="2.25511">
        <ele>265</ele>
        <time>2022-09-11T08:18:56.157Z</time>
      </trkpt>
      <trkpt lat="44.12814" lon="2.25511">
        <ele>265</ele>
        <time>2022-09-11T08:18:57.157Z</time>
      </trkpt>
      <trkpt lat="44.12813" lon="2.2551">
        <ele>266</ele>
        <time>2022-09-11T08:18:58.157Z</time>
      </trkpt>
      <trkpt lat="44.12813" lon="2.2551">
        <ele>266</ele>
        <time>2022-09-11T08:18:59.157Z</time>
      </trkpt>
      <trkpt lat="44.12812" lon="2.25509">
        <ele>266</ele>
        <time>2022-09-11T08:19:00.157Z</time>
      </trkpt>
      <trkpt lat="44.12811" lon="2.25509">
        <ele>266</ele>
        <time>2022-09-11T08:19:01.157Z</time>
      </trkpt>
      <trkpt lat="44.1281" lon="2.25508">
        <ele>267</ele>
        <time>2022-09-11T08:19:02.157Z</time>
      </trkpt>
      <trkpt lat="44.12809" lon="2.25507">
        <ele>267</ele>
        <time>2022-09-11T08:19:03.157Z</time>
      </trkpt>
      <trkpt lat="44.12808" lon="2.25507">
        <ele>267</ele>
        <time>2022-09-11T08:19:04.157Z</time>
      </trkpt>
      <trkpt lat="44.12806" lon="2.25506">
        <ele>267</ele>
        <time>2022-09-11T08:19:05.157Z</time>
      </trkpt>
      <trkpt lat="44.12805" lon="2.25506">
        <ele>267</ele>
        <time>2022-09-11T08:19:06.157Z</time>
      </trkpt>
      <trkpt lat="44.12804" lon="2.25505">
        <ele>267</ele>
        <time>2022-09-11T08:19:07.157Z</time>
      </trkpt>
      <trkpt lat="44.12802" lon="2.25504">
        <ele>267</ele>
        <time>2022-09-11T08:19:08.157Z</time>
      </trkpt>
      <trkpt lat="44.12801" lon="2.25504">
        <ele>267</ele>
        <time>2022-09-11T08:19:09.157Z</time>
      </trkpt>
      <trkpt lat="44.12799" lon="2.25503">
        <ele>267</ele>
        <time>2022-09-11T08:19:10.157Z</time>
      </trkpt>
      <trkpt lat="44.12798" lon="2.25503">
        <ele>268</ele>
        <time>2022-09-11T08:19:11.157Z</time>
      </trkpt>
      <trkpt lat="44.12797" lon="2.25502">
        <ele>268</ele>
        <time>2022-09-11T08:19:12.157Z</time>
      </trkpt>
      <trkpt lat="44.12795" lon="2.25502">
        <ele>268</ele>
        <time>2022-09-11T08:19:13.157Z</time>
      </trkpt>
      <trkpt lat="44.12794" lon="2.25502">
        <ele>268</ele>
        <time>2022-09-11T08:19:14.157Z</time>
      </trkpt>
      <trkpt lat="44.12793" lon="2.25501">
        <ele>268</ele>
        <time>2022-09-11T08:19:15.157Z</time>
      </trkpt>
      <trkpt lat="44.12792" lon="2.25501">
        <ele>268</ele>
        <time>2022-09-11T08:19:16.157Z</time>
      </trkpt>
      <trkpt lat="44.12791" lon="2.255">
        <ele>268</ele>
        <time>2022-09-11T08:19:17.157Z</time>
      </trkpt>
      <trkpt lat="44.1279" lon="2.255">
        <ele>268</ele>
        <time>2022-09-11T08:19:18.157Z</time>
      </trkpt>
      <trkpt lat="44.12789" lon="2.25499">
        <ele>268</ele>
        <time>2022-09-11T08:19:19.157Z</time>
      </trkpt>
      <trkpt lat="44.12787" lon="2.25498">
        <ele>267</ele>
        <time>2022-09-11T08:19:20.157Z</time>
      </trkpt>
      <trkpt lat="44.12786" lon="2.25498">
        <ele>267</ele>
        <time>2022-09-11T08:19:21.157Z</time>
      </trkpt>
      <trkpt lat="44.12786" lon="2.25497">
        <ele>267</ele>
        <time>2022-09-11T08:19:22.157Z</time>
      </trkpt>
      <trkpt lat="44.12785" lon="2.25496">
        <ele>267</ele>
        <time>2022-09-11T08:19:23.157Z</time>
      </trkpt>
      <trkpt lat="44.12784" lon="2.25496">
        <ele>267</ele>
        <time>2022-09-11T08:19:24.157Z</time>
      </trkpt>
      <trkpt lat="44.12783" lon="2.25495">
        <ele>267</ele>
        <time>2022-09-11T08:19:25.157Z</time>
      </trkpt>
      <trkpt lat="44.12782" lon="2.25494">
        <ele>267</ele>
        <time>2022-09-11T08:19:26.157Z</time>
      </trkpt>
      <trkpt lat="44.12781" lon="2.25493">
        <ele>266</ele>
        <time>2022-09-11T08:19:27.157Z</time>
      </trkpt>
      <trkpt lat="44.1278" lon="2.25493">
        <ele>266</ele>
        <time>2022-09-11T08:19:28.157Z</time>
      </trkpt>
      <trkpt lat="44.12779" lon="2.25492">
        <ele>266</ele>
        <time>2022-09-11T08:19:29.157Z</time>
      </trkpt>
      <trkpt lat="44.12778" lon="2.25492">
        <ele>265</ele>
        <time>2022-09-11T08:19:30.157Z</time>
      </trkpt>
      <trkpt lat="44.12777" lon="2.25491">
        <ele>265</ele>
        <time>2022-09-11T08:19:31.157Z</time>
      </trkpt>
      <trkpt lat="44.12776" lon="2.2549">
        <ele>265</ele>
        <time>2022-09-11T08:19:32.157Z</time>
      </trkpt>
      <trkpt lat="44.12775" lon="2.2549">
        <ele>265</ele>
        <time>2022-09-11T08:19:33.157Z</time>
      </trkpt>
      <trkpt lat="44.12774" lon="2.25489">
        <ele>265</ele>
        <time>2022-09-11T08:19:34.157Z</time>
      </trkpt>
      <trkpt lat="44.12773" lon="2.25489">
        <ele>264</ele>
        <time>2022-09-11T08:19:35.157Z</time>
      </trkpt>
      <trkpt lat="44.12772" lon="2.25488">
        <ele>264</ele>
        <time>2022-09-11T08:19:36.157Z</time>
      </trkpt>
      <trkpt lat="44.12771" lon="2.25488">
        <ele>264</ele>
        <time>2022-09-11T08:19:37.157Z</time>
      </trkpt>
      <trkpt lat="44.1277" lon="2.25487">
        <ele>264</ele>
        <time>2022-09-11T08:19:38.157Z</time>
      </trkpt>
      <trkpt lat="44.1277" lon="2.25486">
        <ele>264</ele>
        <time>2022-09-11T08:19:39.157Z</time>
      </trkpt>
      <trkpt lat="44.12769" lon="2.25486">
        <ele>264</ele>
        <time>2022-09-11T08:19:40.157Z</time>
      </trkpt>
      <trkpt lat="44.12768" lon="2.25485">
        <ele>264</ele>
        <time>2022-09-11T08:19:41.157Z</time>
      </trkpt>
      <trkpt lat="44.12767" lon="2.25485">
        <ele>264</ele>
        <time>2022-09-11T08:19:42.157Z</time>
      </trkpt>
      <trkpt lat="44.12766" lon="2.25484">
        <ele>264</ele>
        <time>2022-09-11T08:19:43.157Z</time>
      </trkpt>
      <trkpt lat="44.12765" lon="2.25484">
        <ele>264</ele>
        <time>2022-09-11T08:19:44.157Z</time>
      </trkpt>
      <trkpt lat="44.12764" lon="2.25483">
        <ele>264</ele>
        <time>2022-09-11T08:19:45.157Z</time>
      </trkpt>
      <trkpt lat="44.12763" lon="2.25483">
        <ele>264</ele>
        <time>2022-09-11T08:19:46.157Z</time>
      </trkpt>
      <trkpt lat="44.12762" lon="2.25483">
        <ele>264</ele>
        <time>2022-09-11T08:19:47.157Z</time>
      </trkpt>
      <trkpt lat="44.12761" lon="2.25483">
        <ele>264</ele>
        <time>2022-09-11T08:19:48.157Z</time>
      </trkpt>
      <trkpt lat="44.1276" lon="2.25482">
        <ele>264</ele>
        <time>2022-09-11T08:19:49.157Z</time>
      </trkpt>
      <trkpt lat="44.12759" lon="2.25482">
        <ele>264</ele>
        <time>2022-09-11T08:19:50.157Z</time>
      </trkpt>
      <trkpt lat="44.12757" lon="2.25481">
        <ele>264</ele>
        <time>2022-09-11T08:19:51.157Z</time>
      </trkpt>
      <trkpt lat="44.12756" lon="2.25481">
        <ele>264</ele>
        <time>2022-09-11T08:19:52.157Z</time>
      </trkpt>
      <trkpt lat="44.12755" lon="2.2548">
        <ele>264</ele>
        <time>2022-09-11T08:19:53.157Z</time>
      </trkpt>
      <trkpt lat="44.12754" lon="2.2548">
        <ele>264</ele>
        <time>2022-09-11T08:19:54.157Z</time>
      </trkpt>
      <trkpt lat="44.12753" lon="2.25479">
        <ele>264</ele>
        <time>2022-09-11T08:19:55.157Z</time>
      </trkpt>
      <trkpt lat="44.12752" lon="2.25479">
        <ele>264</ele>
        <time>2022-09-11T08:19:56.157Z</time>
      </trkpt>
      <trkpt lat="44.12751" lon="2.25479">
        <ele>264</ele>
        <time>2022-09-11T08:19:57.157Z</time>
      </trkpt>
      <trkpt lat="44.1275" lon="2.25479">
        <ele>264</ele>
        <time>2022-09-11T08:19:58.157Z</time>
      </trkpt>
      <trkpt lat="44.12749" lon="2.25478">
        <ele>264</ele>
        <time>2022-09-11T08:19:59.157Z</time>
      </trkpt>
      <trkpt lat="44.12748" lon="2.25478">
        <ele>264</ele>
        <time>2022-09-11T08:20:00.157Z</time>
      </trkpt>
      <trkpt lat="44.12747" lon="2.25478">
        <ele>264</ele>
        <time>2022-09-11T08:20:01.157Z</time>
      </trkpt>
      <trkpt lat="44.12746" lon="2.25477">
        <ele>264</ele>
        <time>2022-09-11T08:20:02.157Z</time>
      </trkpt>
      <trkpt lat="44.12746" lon="2.25477">
        <ele>264</ele>
        <time>2022-09-11T08:20:03.157Z</time>
      </trkpt>
      <trkpt lat="44.12745" lon="2.25476">
        <ele>264</ele>
        <time>2022-09-11T08:20:04.157Z</time>
      </trkpt>
      <trkpt lat="44.12744" lon="2.25476">
        <ele>264</ele>
        <time>2022-09-11T08:20:05.157Z</time>
      </trkpt>
      <trkpt lat="44.12742" lon="2.25476">
        <ele>264</ele>
        <time>2022-09-11T08:20:06.157Z</time>
      </trkpt>
      <trkpt lat="44.12741" lon="2.25475">
        <ele>265</ele>
        <time>2022-09-11T08:20:07.157Z</time>
      </trkpt>
      <trkpt lat="44.1274" lon="2.25475">
        <ele>265</ele>
        <time>2022-09-11T08:20:08.157Z</time>
      </trkpt>
      <trkpt lat="44.12739" lon="2.25475">
        <ele>265</ele>
        <time>2022-09-11T08:20:09.157Z</time>
      </trkpt>
      <trkpt lat="44.12738" lon="2.25475">
        <ele>265</ele>
        <time>2022-09-11T08:20:10.157Z</time>
      </trkpt>
      <trkpt lat="44.12737" lon="2.25475">
        <ele>265</ele>
        <time>2022-09-11T08:20:11.157Z</time>
      </trkpt>
      <trkpt lat="44.12736" lon="2.25474">
        <ele>265</ele>
        <time>2022-09-11T08:20:12.157Z</time>
      </trkpt>
      <trkpt lat="44.12735" lon="2.25473">
        <ele>265</ele>
        <time>2022-09-11T08:20:13.157Z</time>
      </trkpt>
      <trkpt lat="44.12734" lon="2.25473">
        <ele>265</ele>
        <time>2022-09-11T08:20:14.157Z</time>
      </trkpt>
      <trkpt lat="44.12732" lon="2.25473">
        <ele>265</ele>
        <time>2022-09-11T08:20:15.157Z</time>
      </trkpt>
      <trkpt lat="44.12731" lon="2.25472">
        <ele>265</ele>
        <time>2022-09-11T08:20:16.157Z</time>
      </trkpt>
      <trkpt lat="44.1273" lon="2.25472">
        <ele>266</ele>
        <time>2022-09-11T08:20:17.157Z</time>
      </trkpt>
      <trkpt lat="44.12729" lon="2.25471">
        <ele>266</ele>
        <time>2022-09-11T08:20:18.157Z</time>
      </trkpt>
      <trkpt lat="44.12728" lon="2.25471">
        <ele>266</ele>
        <time>2022-09-11T08:20:19.157Z</time>
      </trkpt>
      <trkpt lat="44.12726" lon="2.25471">
        <ele>266</ele>
        <time>2022-09-11T08:20:20.157Z</time>
      </trkpt>
      <trkpt lat="44.12725" lon="2.2547">
        <ele>266</ele>
        <time>2022-09-11T08:20:21.157Z</time>
      </trkpt>
      <trkpt lat="44.12724" lon="2.2547">
        <ele>265</ele>
        <time>2022-09-11T08:20:22.157Z</time>
      </trkpt>
      <trkpt lat="44.12723" lon="2.25469">
        <ele>265</ele>
        <time>2022-09-11T08:20:23.157Z</time>
      </trkpt>
      <trkpt lat="44.12722" lon="2.25469">
        <ele>265</ele>
        <time>2022-09-11T08:20:24.157Z</time>
      </trkpt>
      <trkpt lat="44.12721" lon="2.25469">
        <ele>265</ele>
        <time>2022-09-11T08:20:25.157Z</time>
      </trkpt>
      <trkpt lat="44.12719" lon="2.25468">
        <ele>265</ele>
        <time>2022-09-11T08:20:26.157Z</time>
      </trkpt>
      <trkpt lat="44.12718" lon="2.25468">
        <ele>265</ele>
        <time>2022-09-11T08:20:27.157Z</time>
      </trkpt>
      <trkpt lat="44.12717" lon="2.25468">
        <ele>265</ele>
        <time>2022-09-11T08:20:28.157Z</time>
      </trkpt>
      <trkpt lat="44.12716" lon="2.25467">
        <ele>265</ele>
        <time>2022-09-11T08:20:29.157Z</time>
      </trkpt>
      <trkpt lat="44.12715" lon="2.25467">
        <ele>265</ele>
        <time>2022-09-11T08:20:30.157Z</time>
      </trkpt>
      <trkpt lat="44.12714" lon="2.25466">
        <ele>265</ele>
        <time>2022-09-11T08:20:31.157Z</time>
      </trkpt>
      <trkpt lat="44.12713" lon="2.25466">
        <ele>265</ele>
        <time>2022-09-11T08:20:32.157Z</time>
      </trkpt>
      <trkpt lat="44.12712" lon="2.25466">
        <ele>265</ele>
        <time>2022-09-11T08:20:33.157Z</time>
      </trkpt>
      <trkpt lat="44.12711" lon="2.25466">
        <ele>265</ele>
        <time>2022-09-11T08:20:34.157Z</time>
      </trkpt>
      <trkpt lat="44.1271" lon="2.25465">
        <ele>265</ele>
        <time>2022-09-11T08:20:35.157Z</time>
      </trkpt>
      <trkpt lat="44.12709" lon="2.25465">
        <ele>265</ele>
        <time>2022-09-11T08:20:36.157Z</time>
      </trkpt>
      <trkpt lat="44.12708" lon="2.25465">
        <ele>265</ele>
        <time>2022-09-11T08:20:37.157Z</time>
      </trkpt>
      <trkpt lat="44.12707" lon="2.25465">
        <ele>266</ele>
        <time>2022-09-11T08:20:38.157Z</time>
      </trkpt>
      <trkpt lat="44.12706" lon="2.25465">
        <ele>266</ele>
        <time>2022-09-11T08:20:39.157Z</time>
      </trkpt>
      <trkpt lat="44.12705" lon="2.25464">
        <ele>266</ele>
        <time>2022-09-11T08:20:40.157Z</time>
      </trkpt>
      <trkpt lat="44.12704" lon="2.25464">
        <ele>266</ele>
        <time>2022-09-11T08:20:41.157Z</time>
      </trkpt>
      <trkpt lat="44.12703" lon="2.25464">
        <ele>266</ele>
        <time>2022-09-11T08:20:42.157Z</time>
      </trkpt>
      <trkpt lat="44.12702" lon="2.25463">
        <ele>266</ele>
        <time>2022-09-11T08:20:43.157Z</time>
      </trkpt>
      <trkpt lat="44.12701" lon="2.25463">
        <ele>266</ele>
        <time>2022-09-11T08:20:44.157Z</time>
      </trkpt>
      <trkpt lat="44.127" lon="2.25463">
        <ele>266</ele>
        <time>2022-09-11T08:20:45.157Z</time>
      </trkpt>
      <trkpt lat="44.12699" lon="2.25463">
        <ele>266</ele>
        <time>2022-09-11T08:20:46.157Z</time>
      </trkpt>
      <trkpt lat="44.12699" lon="2.25463">
        <ele>267</ele>
        <time>2022-09-11T08:20:47.157Z</time>
      </trkpt>
      <trkpt lat="44.12698" lon="2.25462">
        <ele>267</ele>
        <time>2022-09-11T08:20:48.157Z</time>
      </trkpt>
      <trkpt lat="44.12697" lon="2.25462">
        <ele>267</ele>
        <time>2022-09-11T08:20:49.157Z</time>
      </trkpt>
      <trkpt lat="44.12696" lon="2.25462">
        <ele>267</ele>
        <time>2022-09-11T08:20:50.157Z</time>
      </trkpt>
      <trkpt lat="44.12695" lon="2.25462">
        <ele>267</ele>
        <time>2022-09-11T08:20:51.157Z</time>
      </trkpt>
      <trkpt lat="44.12694" lon="2.25461">
        <ele>267</ele>
        <time>2022-09-11T08:20:52.157Z</time>
      </trkpt>
      <trkpt lat="44.12693" lon="2.25461">
        <ele>267</ele>
        <time>2022-09-11T08:20:53.157Z</time>
      </trkpt>
      <trkpt lat="44.12691" lon="2.25461">
        <ele>268</ele>
        <time>2022-09-11T08:20:54.157Z</time>
      </trkpt>
      <trkpt lat="44.1269" lon="2.25461">
        <ele>268</ele>
        <time>2022-09-11T08:20:55.157Z</time>
      </trkpt>
      <trkpt lat="44.12689" lon="2.25461">
        <ele>268</ele>
        <time>2022-09-11T08:20:56.157Z</time>
      </trkpt>
      <trkpt lat="44.12688" lon="2.25461">
        <ele>268</ele>
        <time>2022-09-11T08:20:57.157Z</time>
      </trkpt>
      <trkpt lat="44.12687" lon="2.25461">
        <ele>268</ele>
        <time>2022-09-11T08:20:58.157Z</time>
      </trkpt>
      <trkpt lat="44.12686" lon="2.25462">
        <ele>269</ele>
        <time>2022-09-11T08:20:59.157Z</time>
      </trkpt>
      <trkpt lat="44.12685" lon="2.25462">
        <ele>269</ele>
        <time>2022-09-11T08:21:00.157Z</time>
      </trkpt>
      <trkpt lat="44.12684" lon="2.25462">
        <ele>269</ele>
        <time>2022-09-11T08:21:01.157Z</time>
      </trkpt>
      <trkpt lat="44.12683" lon="2.25463">
        <ele>269</ele>
        <time>2022-09-11T08:21:02.157Z</time>
      </trkpt>
      <trkpt lat="44.12681" lon="2.25463">
        <ele>269</ele>
        <time>2022-09-11T08:21:03.157Z</time>
      </trkpt>
      <trkpt lat="44.1268" lon="2.25463">
        <ele>269</ele>
        <time>2022-09-11T08:21:04.157Z</time>
      </trkpt>
      <trkpt lat="44.12679" lon="2.25463">
        <ele>269</ele>
        <time>2022-09-11T08:21:05.157Z</time>
      </trkpt>
      <trkpt lat="44.12678" lon="2.25464">
        <ele>269</ele>
        <time>2022-09-11T08:21:06.157Z</time>
      </trkpt>
      <trkpt lat="44.12677" lon="2.25464">
        <ele>269</ele>
        <time>2022-09-11T08:21:07.157Z</time>
      </trkpt>
      <trkpt lat="44.12676" lon="2.25465">
        <ele>269</ele>
        <time>2022-09-11T08:21:08.157Z</time>
      </trkpt>
      <trkpt lat="44.12675" lon="2.25465">
        <ele>269</ele>
        <time>2022-09-11T08:21:09.157Z</time>
      </trkpt>
      <trkpt lat="44.12674" lon="2.25466">
        <ele>269</ele>
        <time>2022-09-11T08:21:10.157Z</time>
      </trkpt>
      <trkpt lat="44.12673" lon="2.25467">
        <ele>269</ele>
        <time>2022-09-11T08:21:11.157Z</time>
      </trkpt>
      <trkpt lat="44.12672" lon="2.25467">
        <ele>269</ele>
        <time>2022-09-11T08:21:12.157Z</time>
      </trkpt>
      <trkpt lat="44.12672" lon="2.25467">
        <ele>269</ele>
        <time>2022-09-11T08:21:13.157Z</time>
      </trkpt>
      <trkpt lat="44.12671" lon="2.25468">
        <ele>269</ele>
        <time>2022-09-11T08:21:14.157Z</time>
      </trkpt>
      <trkpt lat="44.1267" lon="2.25468">
        <ele>269</ele>
        <time>2022-09-11T08:21:15.157Z</time>
      </trkpt>
      <trkpt lat="44.12669" lon="2.25469">
        <ele>269</ele>
        <time>2022-09-11T08:21:16.157Z</time>
      </trkpt>
      <trkpt lat="44.12668" lon="2.25469">
        <ele>269</ele>
        <time>2022-09-11T08:21:17.157Z</time>
      </trkpt>
      <trkpt lat="44.12667" lon="2.25469">
        <ele>269</ele>
        <time>2022-09-11T08:21:18.157Z</time>
      </trkpt>
      <trkpt lat="44.12666" lon="2.2547">
        <ele>269</ele>
        <time>2022-09-11T08:21:19.157Z</time>
      </trkpt>
      <trkpt lat="44.12665" lon="2.2547">
        <ele>269</ele>
        <time>2022-09-11T08:21:20.157Z</time>
      </trkpt>
      <trkpt lat="44.12664" lon="2.2547">
        <ele>269</ele>
        <time>2022-09-11T08:21:21.157Z</time>
      </trkpt>
      <trkpt lat="44.12662" lon="2.25471">
        <ele>269</ele>
        <time>2022-09-11T08:21:22.157Z</time>
      </trkpt>
      <trkpt lat="44.12661" lon="2.25471">
        <ele>269</ele>
        <time>2022-09-11T08:21:23.157Z</time>
      </trkpt>
      <trkpt lat="44.1266" lon="2.25471">
        <ele>269</ele>
        <time>2022-09-11T08:21:24.157Z</time>
      </trkpt>
      <trkpt lat="44.12659" lon="2.25471">
        <ele>269</ele>
        <time>2022-09-11T08:21:25.157Z</time>
      </trkpt>
      <trkpt lat="44.12658" lon="2.25472">
        <ele>269</ele>
        <time>2022-09-11T08:21:26.157Z</time>
      </trkpt>
      <trkpt lat="44.12657" lon="2.25472">
        <ele>270</ele>
        <time>2022-09-11T08:21:27.157Z</time>
      </trkpt>
      <trkpt lat="44.12655" lon="2.25473">
        <ele>270</ele>
        <time>2022-09-11T08:21:28.157Z</time>
      </trkpt>
      <trkpt lat="44.12654" lon="2.25473">
        <ele>270</ele>
        <time>2022-09-11T08:21:29.157Z</time>
      </trkpt>
      <trkpt lat="44.12653" lon="2.25473">
        <ele>270</ele>
        <time>2022-09-11T08:21:30.157Z</time>
      </trkpt>
      <trkpt lat="44.12652" lon="2.25474">
        <ele>270</ele>
        <time>2022-09-11T08:21:31.157Z</time>
      </trkpt>
      <trkpt lat="44.1265" lon="2.25475">
        <ele>270</ele>
        <time>2022-09-11T08:21:32.157Z</time>
      </trkpt>
      <trkpt lat="44.12649" lon="2.25475">
        <ele>271</ele>
        <time>2022-09-11T08:21:33.157Z</time>
      </trkpt>
      <trkpt lat="44.12648" lon="2.25476">
        <ele>271</ele>
        <time>2022-09-11T08:21:34.157Z</time>
      </trkpt>
      <trkpt lat="44.12647" lon="2.25476">
        <ele>271</ele>
        <time>2022-09-11T08:21:35.157Z</time>
      </trkpt>
      <trkpt lat="44.12646" lon="2.25477">
        <ele>271</ele>
        <time>2022-09-11T08:21:36.157Z</time>
      </trkpt>
      <trkpt lat="44.12646" lon="2.25477">
        <ele>271</ele>
        <time>2022-09-11T08:21:37.157Z</time>
      </trkpt>
      <trkpt lat="44.12645" lon="2.25478">
        <ele>271</ele>
        <time>2022-09-11T08:21:38.157Z</time>
      </trkpt>
      <trkpt lat="44.12644" lon="2.25479">
        <ele>271</ele>
        <time>2022-09-11T08:21:39.157Z</time>
      </trkpt>
      <trkpt lat="44.12643" lon="2.25479">
        <ele>271</ele>
        <time>2022-09-11T08:21:40.157Z</time>
      </trkpt>
      <trkpt lat="44.12642" lon="2.2548">
        <ele>271</ele>
        <time>2022-09-11T08:21:41.157Z</time>
      </trkpt>
      <trkpt lat="44.12641" lon="2.2548">
        <ele>272</ele>
        <time>2022-09-11T08:21:42.157Z</time>
      </trkpt>
      <trkpt lat="44.1264" lon="2.25481">
        <ele>272</ele>
        <time>2022-09-11T08:21:43.157Z</time>
      </trkpt>
      <trkpt lat="44.12639" lon="2.25481">
        <ele>272</ele>
        <time>2022-09-11T08:21:44.157Z</time>
      </trkpt>
      <trkpt lat="44.12638" lon="2.25482">
        <ele>272</ele>
        <time>2022-09-11T08:21:45.157Z</time>
      </trkpt>
      <trkpt lat="44.12638" lon="2.25482">
        <ele>272</ele>
        <time>2022-09-11T08:21:46.157Z</time>
      </trkpt>
      <trkpt lat="44.12637" lon="2.25483">
        <ele>272</ele>
        <time>2022-09-11T08:21:47.157Z</time>
      </trkpt>
      <trkpt lat="44.12637" lon="2.25483">
        <ele>272</ele>
        <time>2022-09-11T08:21:48.157Z</time>
      </trkpt>
      <trkpt lat="44.12636" lon="2.25483">
        <ele>272</ele>
        <time>2022-09-11T08:21:49.157Z</time>
      </trkpt>
      <trkpt lat="44.12635" lon="2.25484">
        <ele>272</ele>
        <time>2022-09-11T08:21:50.157Z</time>
      </trkpt>
      <trkpt lat="44.12634" lon="2.25485">
        <ele>272</ele>
        <time>2022-09-11T08:21:51.157Z</time>
      </trkpt>
      <trkpt lat="44.12633" lon="2.25486">
        <ele>272</ele>
        <time>2022-09-11T08:21:52.157Z</time>
      </trkpt>
      <trkpt lat="44.12632" lon="2.25486">
        <ele>272</ele>
        <time>2022-09-11T08:21:53.157Z</time>
      </trkpt>
      <trkpt lat="44.12631" lon="2.25487">
        <ele>272</ele>
        <time>2022-09-11T08:21:54.157Z</time>
      </trkpt>
      <trkpt lat="44.1263" lon="2.25488">
        <ele>272</ele>
        <time>2022-09-11T08:21:55.157Z</time>
      </trkpt>
      <trkpt lat="44.12629" lon="2.25488">
        <ele>273</ele>
        <time>2022-09-11T08:21:56.157Z</time>
      </trkpt>
      <trkpt lat="44.12628" lon="2.25489">
        <ele>272</ele>
        <time>2022-09-11T08:21:57.157Z</time>
      </trkpt>
      <trkpt lat="44.12627" lon="2.25491">
        <ele>272</ele>
        <time>2022-09-11T08:21:58.157Z</time>
      </trkpt>
      <trkpt lat="44.12626" lon="2.25492">
        <ele>272</ele>
        <time>2022-09-11T08:21:59.157Z</time>
      </trkpt>
      <trkpt lat="44.12626" lon="2.25494">
        <ele>272</ele>
        <time>2022-09-11T08:22:00.157Z</time>
      </trkpt>
      <trkpt lat="44.12625" lon="2.25495">
        <ele>272</ele>
        <time>2022-09-11T08:22:01.157Z</time>
      </trkpt>
      <trkpt lat="44.12624" lon="2.25497">
        <ele>272</ele>
        <time>2022-09-11T08:22:02.157Z</time>
      </trkpt>
      <trkpt lat="44.12624" lon="2.25498">
        <ele>272</ele>
        <time>2022-09-11T08:22:03.157Z</time>
      </trkpt>
      <trkpt lat="44.12623" lon="2.25499">
        <ele>272</ele>
        <time>2022-09-11T08:22:04.157Z</time>
      </trkpt>
      <trkpt lat="44.12623" lon="2.255">
        <ele>272</ele>
        <time>2022-09-11T08:22:05.157Z</time>
      </trkpt>
      <trkpt lat="44.12623" lon="2.25501">
        <ele>272</ele>
        <time>2022-09-11T08:22:06.157Z</time>
      </trkpt>
      <trkpt lat="44.12622" lon="2.25502">
        <ele>272</ele>
        <time>2022-09-11T08:22:07.157Z</time>
      </trkpt>
      <trkpt lat="44.12622" lon="2.25503">
        <ele>271</ele>
        <time>2022-09-11T08:22:08.157Z</time>
      </trkpt>
      <trkpt lat="44.12621" lon="2.25504">
        <ele>271</ele>
        <time>2022-09-11T08:22:09.157Z</time>
      </trkpt>
      <trkpt lat="44.12621" lon="2.25505">
        <ele>271</ele>
        <time>2022-09-11T08:22:10.157Z</time>
      </trkpt>
      <trkpt lat="44.1262" lon="2.25506">
        <ele>271</ele>
        <time>2022-09-11T08:22:11.157Z</time>
      </trkpt>
      <trkpt lat="44.12619" lon="2.25507">
        <ele>271</ele>
        <time>2022-09-11T08:22:12.157Z</time>
      </trkpt>
      <trkpt lat="44.12618" lon="2.25508">
        <ele>271</ele>
        <time>2022-09-11T08:22:13.157Z</time>
      </trkpt>
      <trkpt lat="44.12617" lon="2.25509">
        <ele>271</ele>
        <time>2022-09-11T08:22:14.157Z</time>
      </trkpt>
      <trkpt lat="44.12617" lon="2.25511">
        <ele>271</ele>
        <time>2022-09-11T08:22:15.157Z</time>
      </trkpt>
      <trkpt lat="44.12616" lon="2.25512">
        <ele>271</ele>
        <time>2022-09-11T08:22:16.157Z</time>
      </trkpt>
      <trkpt lat="44.12616" lon="2.25513">
        <ele>271</ele>
        <time>2022-09-11T08:22:17.157Z</time>
      </trkpt>
      <trkpt lat="44.12615" lon="2.25514">
        <ele>271</ele>
        <time>2022-09-11T08:22:18.157Z</time>
      </trkpt>
      <trkpt lat="44.12615" lon="2.25515">
        <ele>272</ele>
        <time>2022-09-11T08:22:19.157Z</time>
      </trkpt>
      <trkpt lat="44.12615" lon="2.25516">
        <ele>272</ele>
        <time>2022-09-11T08:22:20.157Z</time>
      </trkpt>
      <trkpt lat="44.12615" lon="2.25517">
        <ele>272</ele>
        <time>2022-09-11T08:22:21.157Z</time>
      </trkpt>
      <trkpt lat="44.12615" lon="2.25519">
        <ele>272</ele>
        <time>2022-09-11T08:22:22.157Z</time>
      </trkpt>
      <trkpt lat="44.12615" lon="2.2552">
        <ele>272</ele>
        <time>2022-09-11T08:22:23.157Z</time>
      </trkpt>
      <trkpt lat="44.12615" lon="2.25522">
        <ele>272</ele>
        <time>2022-09-11T08:22:24.157Z</time>
      </trkpt>
      <trkpt lat="44.12614" lon="2.25523">
        <ele>272</ele>
        <time>2022-09-11T08:22:25.157Z</time>
      </trkpt>
      <trkpt lat="44.12614" lon="2.25524">
        <ele>272</ele>
        <time>2022-09-11T08:22:26.157Z</time>
      </trkpt>
      <trkpt lat="44.12614" lon="2.25526">
        <ele>273</ele>
        <time>2022-09-11T08:22:27.157Z</time>
      </trkpt>
      <trkpt lat="44.12614" lon="2.25527">
        <ele>273</ele>
        <time>2022-09-11T08:22:28.157Z</time>
      </trkpt>
      <trkpt lat="44.12613" lon="2.25527">
        <ele>273</ele>
        <time>2022-09-11T08:22:29.157Z</time>
      </trkpt>
      <trkpt lat="44.12613" lon="2.25528">
        <ele>273</ele>
        <time>2022-09-11T08:22:30.157Z</time>
      </trkpt>
      <trkpt lat="44.12614" lon="2.25528">
        <ele>273</ele>
        <time>2022-09-11T08:22:31.157Z</time>
      </trkpt>
      <trkpt lat="44.12614" lon="2.25528">
        <ele>273</ele>
        <time>2022-09-11T08:22:32.157Z</time>
      </trkpt>
      <trkpt lat="44.12615" lon="2.25537">
        <ele>277</ele>
        <time>2022-09-11T08:23:44.160Z</time>
      </trkpt>
      <trkpt lat="44.12615" lon="2.25538">
        <ele>277</ele>
        <time>2022-09-11T08:23:45.160Z</time>
      </trkpt>
      <trkpt lat="44.12615" lon="2.25538">
        <ele>277</ele>
        <time>2022-09-11T08:23:46.160Z</time>
      </trkpt>
      <trkpt lat="44.12615" lon="2.25539">
        <ele>277</ele>
        <time>2022-09-11T08:23:47.160Z</time>
      </trkpt>
      <trkpt lat="44.12615" lon="2.2554">
        <ele>277</ele>
        <time>2022-09-11T08:23:48.160Z</time>
      </trkpt>
      <trkpt lat="44.12615" lon="2.25541">
        <ele>277</ele>
        <time>2022-09-11T08:23:49.160Z</time>
      </trkpt>
      <trkpt lat="44.12614" lon="2.25542">
        <ele>277</ele>
        <time>2022-09-11T08:23:50.160Z</time>
      </trkpt>
      <trkpt lat="44.12614" lon="2.25543">
        <ele>277</ele>
        <time>2022-09-11T08:23:51.160Z</time>
      </trkpt>
      <trkpt lat="44.12614" lon="2.25544">
        <ele>277</ele>
        <time>2022-09-11T08:23:52.160Z</time>
      </trkpt>
      <trkpt lat="44.12614" lon="2.25544">
        <ele>276</ele>
        <time>2022-09-11T08:23:53.160Z</time>
      </trkpt>
      <trkpt lat="44.12614" lon="2.25545">
        <ele>276</ele>
        <time>2022-09-11T08:23:54.160Z</time>
      </trkpt>
      <trkpt lat="44.12613" lon="2.25546">
        <ele>276</ele>
        <time>2022-09-11T08:23:55.160Z</time>
      </trkpt>
      <trkpt lat="44.12613" lon="2.25547">
        <ele>276</ele>
        <time>2022-09-11T08:23:56.160Z</time>
      </trkpt>
      <trkpt lat="44.12613" lon="2.25549">
        <ele>276</ele>
        <time>2022-09-11T08:23:57.160Z</time>
      </trkpt>
      <trkpt lat="44.12612" lon="2.2555">
        <ele>276</ele>
        <time>2022-09-11T08:23:58.160Z</time>
      </trkpt>
      <trkpt lat="44.12611" lon="2.25551">
        <ele>276</ele>
        <time>2022-09-11T08:23:59.160Z</time>
      </trkpt>
      <trkpt lat="44.12611" lon="2.25552">
        <ele>276</ele>
        <time>2022-09-11T08:24:00.160Z</time>
      </trkpt>
      <trkpt lat="44.1261" lon="2.25553">
        <ele>277</ele>
        <time>2022-09-11T08:24:01.160Z</time>
      </trkpt>
      <trkpt lat="44.12609" lon="2.25554">
        <ele>277</ele>
        <time>2022-09-11T08:24:02.160Z</time>
      </trkpt>
      <trkpt lat="44.12609" lon="2.25556">
        <ele>277</ele>
        <time>2022-09-11T08:24:03.160Z</time>
      </trkpt>
      <trkpt lat="44.12608" lon="2.25557">
        <ele>277</ele>
        <time>2022-09-11T08:24:04.160Z</time>
      </trkpt>
      <trkpt lat="44.12607" lon="2.25558">
        <ele>277</ele>
        <time>2022-09-11T08:24:05.160Z</time>
      </trkpt>
      <trkpt lat="44.12606" lon="2.2556">
        <ele>277</ele>
        <time>2022-09-11T08:24:06.160Z</time>
      </trkpt>
      <trkpt lat="44.12605" lon="2.25561">
        <ele>277</ele>
        <time>2022-09-11T08:24:07.160Z</time>
      </trkpt>
      <trkpt lat="44.12604" lon="2.25562">
        <ele>277</ele>
        <time>2022-09-11T08:24:08.160Z</time>
      </trkpt>
      <trkpt lat="44.12603" lon="2.25564">
        <ele>277</ele>
        <time>2022-09-11T08:24:09.160Z</time>
      </trkpt>
      <trkpt lat="44.12602" lon="2.25565">
        <ele>277</ele>
        <time>2022-09-11T08:24:10.160Z</time>
      </trkpt>
      <trkpt lat="44.12602" lon="2.25566">
        <ele>277</ele>
        <time>2022-09-11T08:24:11.160Z</time>
      </trkpt>
      <trkpt lat="44.12601" lon="2.25567">
        <ele>277</ele>
        <time>2022-09-11T08:24:12.160Z</time>
      </trkpt>
      <trkpt lat="44.126" lon="2.25568">
        <ele>277</ele>
        <time>2022-09-11T08:24:13.160Z</time>
      </trkpt>
      <trkpt lat="44.12599" lon="2.2557">
        <ele>277</ele>
        <time>2022-09-11T08:24:14.160Z</time>
      </trkpt>
      <trkpt lat="44.12598" lon="2.25571">
        <ele>277</ele>
        <time>2022-09-11T08:24:15.160Z</time>
      </trkpt>
      <trkpt lat="44.12597" lon="2.25573">
        <ele>277</ele>
        <time>2022-09-11T08:24:16.160Z</time>
      </trkpt>
      <trkpt lat="44.12596" lon="2.25574">
        <ele>277</ele>
        <time>2022-09-11T08:24:17.160Z</time>
      </trkpt>
      <trkpt lat="44.12596" lon="2.25576">
        <ele>277</ele>
        <time>2022-09-11T08:24:18.160Z</time>
      </trkpt>
      <trkpt lat="44.12595" lon="2.25577">
        <ele>277</ele>
        <time>2022-09-11T08:24:19.160Z</time>
      </trkpt>
      <trkpt lat="44.12594" lon="2.25579">
        <ele>277</ele>
        <time>2022-09-11T08:24:20.160Z</time>
      </trkpt>
      <trkpt lat="44.12593" lon="2.2558">
        <ele>277</ele>
        <time>2022-09-11T08:24:21.160Z</time>
      </trkpt>
      <trkpt lat="44.12592" lon="2.25582">
        <ele>277</ele>
        <time>2022-09-11T08:24:22.160Z</time>
      </trkpt>
      <trkpt lat="44.12592" lon="2.25583">
        <ele>277</ele>
        <time>2022-09-11T08:24:23.160Z</time>
      </trkpt>
      <trkpt lat="44.12591" lon="2.25585">
        <ele>277</ele>
        <time>2022-09-11T08:24:24.160Z</time>
      </trkpt>
      <trkpt lat="44.1259" lon="2.25587">
        <ele>277</ele>
        <time>2022-09-11T08:24:25.160Z</time>
      </trkpt>
      <trkpt lat="44.12589" lon="2.25588">
        <ele>277</ele>
        <time>2022-09-11T08:24:26.160Z</time>
      </trkpt>
      <trkpt lat="44.12589" lon="2.2559">
        <ele>277</ele>
        <time>2022-09-11T08:24:27.160Z</time>
      </trkpt>
      <trkpt lat="44.12588" lon="2.25591">
        <ele>276</ele>
        <time>2022-09-11T08:24:28.160Z</time>
      </trkpt>
      <trkpt lat="44.12587" lon="2.25593">
        <ele>276</ele>
        <time>2022-09-11T08:24:29.160Z</time>
      </trkpt>
      <trkpt lat="44.12587" lon="2.25595">
        <ele>276</ele>
        <time>2022-09-11T08:24:30.160Z</time>
      </trkpt>
      <trkpt lat="44.12587" lon="2.25596">
        <ele>276</ele>
        <time>2022-09-11T08:24:31.160Z</time>
      </trkpt>
      <trkpt lat="44.12586" lon="2.25598">
        <ele>276</ele>
        <time>2022-09-11T08:24:32.160Z</time>
      </trkpt>
      <trkpt lat="44.12586" lon="2.25599">
        <ele>276</ele>
        <time>2022-09-11T08:24:33.160Z</time>
      </trkpt>
      <trkpt lat="44.12585" lon="2.25601">
        <ele>276</ele>
        <time>2022-09-11T08:24:34.160Z</time>
      </trkpt>
      <trkpt lat="44.12585" lon="2.25603">
        <ele>276</ele>
        <time>2022-09-11T08:24:35.160Z</time>
      </trkpt>
      <trkpt lat="44.12585" lon="2.25604">
        <ele>276</ele>
        <time>2022-09-11T08:24:36.160Z</time>
      </trkpt>
      <trkpt lat="44.12584" lon="2.25605">
        <ele>276</ele>
        <time>2022-09-11T08:24:37.160Z</time>
      </trkpt>
      <trkpt lat="44.12584" lon="2.25607">
        <ele>276</ele>
        <time>2022-09-11T08:24:38.160Z</time>
      </trkpt>
      <trkpt lat="44.12583" lon="2.25608">
        <ele>276</ele>
        <time>2022-09-11T08:24:39.160Z</time>
      </trkpt>
      <trkpt lat="44.12583" lon="2.2561">
        <ele>276</ele>
        <time>2022-09-11T08:24:40.160Z</time>
      </trkpt>
      <trkpt lat="44.12582" lon="2.25611">
        <ele>276</ele>
        <time>2022-09-11T08:24:41.160Z</time>
      </trkpt>
      <trkpt lat="44.12581" lon="2.25612">
        <ele>276</ele>
        <time>2022-09-11T08:24:42.160Z</time>
      </trkpt>
      <trkpt lat="44.12581" lon="2.25614">
        <ele>276</ele>
        <time>2022-09-11T08:24:43.160Z</time>
      </trkpt>
      <trkpt lat="44.1258" lon="2.25615">
        <ele>276</ele>
        <time>2022-09-11T08:24:44.160Z</time>
      </trkpt>
      <trkpt lat="44.1258" lon="2.25617">
        <ele>276</ele>
        <time>2022-09-11T08:24:45.160Z</time>
      </trkpt>
      <trkpt lat="44.1258" lon="2.25618">
        <ele>276</ele>
        <time>2022-09-11T08:24:46.160Z</time>
      </trkpt>
      <trkpt lat="44.12579" lon="2.25619">
        <ele>276</ele>
        <time>2022-09-11T08:24:47.160Z</time>
      </trkpt>
      <trkpt lat="44.12579" lon="2.2562">
        <ele>276</ele>
        <time>2022-09-11T08:24:48.160Z</time>
      </trkpt>
      <trkpt lat="44.12579" lon="2.25621">
        <ele>276</ele>
        <time>2022-09-11T08:24:49.160Z</time>
      </trkpt>
      <trkpt lat="44.12579" lon="2.25622">
        <ele>276</ele>
        <time>2022-09-11T08:24:50.160Z</time>
      </trkpt>
      <trkpt lat="44.12579" lon="2.25623">
        <ele>276</ele>
        <time>2022-09-11T08:24:51.160Z</time>
      </trkpt>
      <trkpt lat="44.12579" lon="2.25623">
        <ele>276</ele>
        <time>2022-09-11T08:24:52.160Z</time>
      </trkpt>
      <trkpt lat="44.12579" lon="2.25623">
        <ele>276</ele>
        <time>2022-09-11T08:24:53.160Z</time>
      </trkpt>
      <trkpt lat="44.1258" lon="2.25627">
        <ele>271</ele>
        <time>2022-09-11T08:25:22.164Z</time>
      </trkpt>
      <trkpt lat="44.12581" lon="2.25628">
        <ele>271</ele>
        <time>2022-09-11T08:25:23.164Z</time>
      </trkpt>
      <trkpt lat="44.12581" lon="2.2563">
        <ele>271</ele>
        <time>2022-09-11T08:25:24.164Z</time>
      </trkpt>
      <trkpt lat="44.12582" lon="2.25631">
        <ele>271</ele>
        <time>2022-09-11T08:25:25.164Z</time>
      </trkpt>
      <trkpt lat="44.12583" lon="2.25631">
        <ele>271</ele>
        <time>2022-09-11T08:25:26.164Z</time>
      </trkpt>
      <trkpt lat="44.12583" lon="2.25632">
        <ele>271</ele>
        <time>2022-09-11T08:25:27.164Z</time>
      </trkpt>
      <trkpt lat="44.12584" lon="2.25633">
        <ele>271</ele>
        <time>2022-09-11T08:25:28.164Z</time>
      </trkpt>
      <trkpt lat="44.12585" lon="2.25633">
        <ele>271</ele>
        <time>2022-09-11T08:25:29.164Z</time>
      </trkpt>
      <trkpt lat="44.12586" lon="2.25634">
        <ele>271</ele>
        <time>2022-09-11T08:25:30.164Z</time>
      </trkpt>
      <trkpt lat="44.12587" lon="2.25635">
        <ele>271</ele>
        <time>2022-09-11T08:25:31.164Z</time>
      </trkpt>
      <trkpt lat="44.12588" lon="2.25636">
        <ele>271</ele>
        <time>2022-09-11T08:25:32.164Z</time>
      </trkpt>
      <trkpt lat="44.12589" lon="2.25637">
        <ele>271</ele>
        <time>2022-09-11T08:25:33.164Z</time>
      </trkpt>
      <trkpt lat="44.1259" lon="2.25638">
        <ele>271</ele>
        <time>2022-09-11T08:25:34.164Z</time>
      </trkpt>
      <trkpt lat="44.12591" lon="2.25639">
        <ele>271</ele>
        <time>2022-09-11T08:25:35.164Z</time>
      </trkpt>
      <trkpt lat="44.12592" lon="2.2564">
        <ele>271</ele>
        <time>2022-09-11T08:25:36.164Z</time>
      </trkpt>
      <trkpt lat="44.12594" lon="2.25641">
        <ele>271</ele>
        <time>2022-09-11T08:25:37.164Z</time>
      </trkpt>
      <trkpt lat="44.12595" lon="2.25641">
        <ele>271</ele>
        <time>2022-09-11T08:25:38.164Z</time>
      </trkpt>
      <trkpt lat="44.12596" lon="2.25642">
        <ele>271</ele>
        <time>2022-09-11T08:25:39.164Z</time>
      </trkpt>
      <trkpt lat="44.12597" lon="2.25643">
        <ele>270</ele>
        <time>2022-09-11T08:25:40.164Z</time>
      </trkpt>
      <trkpt lat="44.12598" lon="2.25644">
        <ele>270</ele>
        <time>2022-09-11T08:25:41.164Z</time>
      </trkpt>
      <trkpt lat="44.126" lon="2.25645">
        <ele>270</ele>
        <time>2022-09-11T08:25:42.164Z</time>
      </trkpt>
      <trkpt lat="44.12601" lon="2.25646">
        <ele>270</ele>
        <time>2022-09-11T08:25:43.164Z</time>
      </trkpt>
      <trkpt lat="44.12602" lon="2.25646">
        <ele>270</ele>
        <time>2022-09-11T08:25:44.164Z</time>
      </trkpt>
      <trkpt lat="44.12603" lon="2.25647">
        <ele>270</ele>
        <time>2022-09-11T08:25:45.164Z</time>
      </trkpt>
      <trkpt lat="44.12605" lon="2.25648">
        <ele>270</ele>
        <time>2022-09-11T08:25:46.164Z</time>
      </trkpt>
      <trkpt lat="44.12606" lon="2.25649">
        <ele>270</ele>
        <time>2022-09-11T08:25:47.164Z</time>
      </trkpt>
      <trkpt lat="44.12607" lon="2.2565">
        <ele>269</ele>
        <time>2022-09-11T08:25:48.164Z</time>
      </trkpt>
      <trkpt lat="44.12608" lon="2.2565">
        <ele>269</ele>
        <time>2022-09-11T08:25:49.164Z</time>
      </trkpt>
      <trkpt lat="44.1261" lon="2.25651">
        <ele>269</ele>
        <time>2022-09-11T08:25:50.164Z</time>
      </trkpt>
      <trkpt lat="44.12611" lon="2.25652">
        <ele>269</ele>
        <time>2022-09-11T08:25:51.164Z</time>
      </trkpt>
      <trkpt lat="44.12612" lon="2.25652">
        <ele>269</ele>
        <time>2022-09-11T08:25:52.164Z</time>
      </trkpt>
      <trkpt lat="44.12613" lon="2.25654">
        <ele>269</ele>
        <time>2022-09-11T08:25:53.164Z</time>
      </trkpt>
      <trkpt lat="44.12615" lon="2.25654">
        <ele>269</ele>
        <time>2022-09-11T08:25:54.164Z</time>
      </trkpt>
      <trkpt lat="44.12616" lon="2.25655">
        <ele>269</ele>
        <time>2022-09-11T08:25:55.164Z</time>
      </trkpt>
      <trkpt lat="44.12617" lon="2.25656">
        <ele>268</ele>
        <time>2022-09-11T08:25:56.164Z</time>
      </trkpt>
      <trkpt lat="44.12618" lon="2.25657">
        <ele>268</ele>
        <time>2022-09-11T08:25:57.164Z</time>
      </trkpt>
      <trkpt lat="44.12619" lon="2.25657">
        <ele>268</ele>
        <time>2022-09-11T08:25:58.164Z</time>
      </trkpt>
      <trkpt lat="44.12621" lon="2.25658">
        <ele>268</ele>
        <time>2022-09-11T08:25:59.164Z</time>
      </trkpt>
      <trkpt lat="44.12622" lon="2.25659">
        <ele>268</ele>
        <time>2022-09-11T08:26:00.164Z</time>
      </trkpt>
      <trkpt lat="44.12623" lon="2.2566">
        <ele>268</ele>
        <time>2022-09-11T08:26:01.164Z</time>
      </trkpt>
      <trkpt lat="44.12625" lon="2.25661">
        <ele>268</ele>
        <time>2022-09-11T08:26:02.164Z</time>
      </trkpt>
      <trkpt lat="44.12626" lon="2.25661">
        <ele>268</ele>
        <time>2022-09-11T08:26:03.164Z</time>
      </trkpt>
      <trkpt lat="44.12627" lon="2.25662">
        <ele>268</ele>
        <time>2022-09-11T08:26:04.164Z</time>
      </trkpt>
      <trkpt lat="44.12628" lon="2.25663">
        <ele>268</ele>
        <time>2022-09-11T08:26:05.164Z</time>
      </trkpt>
      <trkpt lat="44.1263" lon="2.25664">
        <ele>268</ele>
        <time>2022-09-11T08:26:06.164Z</time>
      </trkpt>
      <trkpt lat="44.12631" lon="2.25665">
        <ele>268</ele>
        <time>2022-09-11T08:26:07.164Z</time>
      </trkpt>
      <trkpt lat="44.12633" lon="2.25665">
        <ele>268</ele>
        <time>2022-09-11T08:26:08.164Z</time>
      </trkpt>
      <trkpt lat="44.12634" lon="2.25666">
        <ele>268</ele>
        <time>2022-09-11T08:26:09.164Z</time>
      </trkpt>
      <trkpt lat="44.12635" lon="2.25667">
        <ele>268</ele>
        <time>2022-09-11T08:26:10.164Z</time>
      </trkpt>
      <trkpt lat="44.12636" lon="2.25667">
        <ele>268</ele>
        <time>2022-09-11T08:26:11.164Z</time>
      </trkpt>
      <trkpt lat="44.12638" lon="2.25667">
        <ele>268</ele>
        <time>2022-09-11T08:26:12.164Z</time>
      </trkpt>
      <trkpt lat="44.12639" lon="2.25667">
        <ele>268</ele>
        <time>2022-09-11T08:26:13.164Z</time>
      </trkpt>
      <trkpt lat="44.1264" lon="2.25668">
        <ele>268</ele>
        <time>2022-09-11T08:26:14.164Z</time>
      </trkpt>
      <trkpt lat="44.12641" lon="2.25668">
        <ele>268</ele>
        <time>2022-09-11T08:26:15.164Z</time>
      </trkpt>
      <trkpt lat="44.12642" lon="2.25668">
        <ele>268</ele>
        <time>2022-09-11T08:26:16.164Z</time>
      </trkpt>
      <trkpt lat="44.12642" lon="2.25668">
        <ele>268</ele>
        <time>2022-09-11T08:26:17.164Z</time>
      </trkpt>
      <trkpt lat="44.12643" lon="2.25668">
        <ele>268</ele>
        <time>2022-09-11T08:26:18.164Z</time>
      </trkpt>
      <trkpt lat="44.12645" lon="2.25668">
        <ele>268</ele>
        <time>2022-09-11T08:26:19.164Z</time>
      </trkpt>
      <trkpt lat="44.12646" lon="2.25669">
        <ele>268</ele>
        <time>2022-09-11T08:26:20.164Z</time>
      </trkpt>
      <trkpt lat="44.12648" lon="2.25669">
        <ele>268</ele>
        <time>2022-09-11T08:26:21.164Z</time>
      </trkpt>
      <trkpt lat="44.12649" lon="2.25669">
        <ele>268</ele>
        <time>2022-09-11T08:26:22.164Z</time>
      </trkpt>
      <trkpt lat="44.1265" lon="2.25668">
        <ele>268</ele>
        <time>2022-09-11T08:26:23.164Z</time>
      </trkpt>
      <trkpt lat="44.12652" lon="2.25668">
        <ele>268</ele>
        <time>2022-09-11T08:26:24.164Z</time>
      </trkpt>
      <trkpt lat="44.12653" lon="2.25668">
        <ele>268</ele>
        <time>2022-09-11T08:26:25.164Z</time>
      </trkpt>
      <trkpt lat="44.12654" lon="2.25668">
        <ele>268</ele>
        <time>2022-09-11T08:26:26.164Z</time>
      </trkpt>
      <trkpt lat="44.12655" lon="2.25667">
        <ele>268</ele>
        <time>2022-09-11T08:26:27.164Z</time>
      </trkpt>
      <trkpt lat="44.12656" lon="2.25667">
        <ele>268</ele>
        <time>2022-09-11T08:26:28.164Z</time>
      </trkpt>
      <trkpt lat="44.12657" lon="2.25667">
        <ele>268</ele>
        <time>2022-09-11T08:26:29.164Z</time>
      </trkpt>
      <trkpt lat="44.12658" lon="2.25666">
        <ele>268</ele>
        <time>2022-09-11T08:26:30.164Z</time>
      </trkpt>
      <trkpt lat="44.12659" lon="2.25665">
        <ele>268</ele>
        <time>2022-09-11T08:26:31.164Z</time>
      </trkpt>
      <trkpt lat="44.1266" lon="2.25665">
        <ele>268</ele>
        <time>2022-09-11T08:26:32.164Z</time>
      </trkpt>
      <trkpt lat="44.12661" lon="2.25664">
        <ele>268</ele>
        <time>2022-09-11T08:26:33.164Z</time>
      </trkpt>
      <trkpt lat="44.12662" lon="2.25664">
        <ele>268</ele>
        <time>2022-09-11T08:26:34.164Z</time>
      </trkpt>
      <trkpt lat="44.12663" lon="2.25664">
        <ele>269</ele>
        <time>2022-09-11T08:26:35.164Z</time>
      </trkpt>
      <trkpt lat="44.12664" lon="2.25663">
        <ele>269</ele>
        <time>2022-09-11T08:26:36.164Z</time>
      </trkpt>
      <trkpt lat="44.12664" lon="2.25663">
        <ele>269</ele>
        <time>2022-09-11T08:26:37.164Z</time>
      </trkpt>
      <trkpt lat="44.12665" lon="2.25662">
        <ele>269</ele>
        <time>2022-09-11T08:26:38.164Z</time>
      </trkpt>
      <trkpt lat="44.12666" lon="2.25662">
        <ele>269</ele>
        <time>2022-09-11T08:26:39.164Z</time>
      </trkpt>
      <trkpt lat="44.12666" lon="2.25662">
        <ele>269</ele>
        <time>2022-09-11T08:26:40.164Z</time>
      </trkpt>
      <trkpt lat="44.12666" lon="2.25662">
        <ele>269</ele>
        <time>2022-09-11T08:26:41.164Z</time>
      </trkpt>
      <trkpt lat="44.12667" lon="2.25662">
        <ele>269</ele>
        <time>2022-09-11T08:26:42.164Z</time>
      </trkpt>
      <trkpt lat="44.12667" lon="2.25661">
        <ele>269</ele>
        <time>2022-09-11T08:26:43.164Z</time>
      </trkpt>
      <trkpt lat="44.12668" lon="2.25661">
        <ele>269</ele>
        <time>2022-09-11T08:26:44.164Z</time>
      </trkpt>
      <trkpt lat="44.12668" lon="2.2566">
        <ele>269</ele>
        <time>2022-09-11T08:26:45.164Z</time>
      </trkpt>
      <trkpt lat="44.12669" lon="2.2566">
        <ele>269</ele>
        <time>2022-09-11T08:26:46.164Z</time>
      </trkpt>
      <trkpt lat="44.12669" lon="2.25659">
        <ele>269</ele>
        <time>2022-09-11T08:26:47.164Z</time>
      </trkpt>
      <trkpt lat="44.1267" lon="2.25658">
        <ele>269</ele>
        <time>2022-09-11T08:26:48.164Z</time>
      </trkpt>
      <trkpt lat="44.12671" lon="2.25658">
        <ele>270</ele>
        <time>2022-09-11T08:26:49.164Z</time>
      </trkpt>
      <trkpt lat="44.12671" lon="2.25657">
        <ele>270</ele>
        <time>2022-09-11T08:26:50.164Z</time>
      </trkpt>
      <trkpt lat="44.12672" lon="2.25657">
        <ele>270</ele>
        <time>2022-09-11T08:26:51.164Z</time>
      </trkpt>
      <trkpt lat="44.12672" lon="2.25657">
        <ele>270</ele>
        <time>2022-09-11T08:26:52.164Z</time>
      </trkpt>
      <trkpt lat="44.12673" lon="2.25657">
        <ele>270</ele>
        <time>2022-09-11T08:26:53.164Z</time>
      </trkpt>
      <trkpt lat="44.12673" lon="2.25656">
        <ele>270</ele>
        <time>2022-09-11T08:26:54.164Z</time>
      </trkpt>
      <trkpt lat="44.12676" lon="2.25653">
        <ele>271</ele>
        <time>2022-09-11T08:27:08.168Z</time>
      </trkpt>
      <trkpt lat="44.12677" lon="2.25652">
        <ele>271</ele>
        <time>2022-09-11T08:27:09.168Z</time>
      </trkpt>
      <trkpt lat="44.12678" lon="2.25651">
        <ele>271</ele>
        <time>2022-09-11T08:27:10.168Z</time>
      </trkpt>
      <trkpt lat="44.12679" lon="2.2565">
        <ele>271</ele>
        <time>2022-09-11T08:27:11.168Z</time>
      </trkpt>
      <trkpt lat="44.12681" lon="2.25649">
        <ele>272</ele>
        <time>2022-09-11T08:27:12.168Z</time>
      </trkpt>
      <trkpt lat="44.12682" lon="2.25648">
        <ele>272</ele>
        <time>2022-09-11T08:27:13.168Z</time>
      </trkpt>
      <trkpt lat="44.12682" lon="2.25647">
        <ele>272</ele>
        <time>2022-09-11T08:27:14.168Z</time>
      </trkpt>
      <trkpt lat="44.12683" lon="2.25646">
        <ele>272</ele>
        <time>2022-09-11T08:27:15.168Z</time>
      </trkpt>
      <trkpt lat="44.12684" lon="2.25646">
        <ele>272</ele>
        <time>2022-09-11T08:27:16.168Z</time>
      </trkpt>
      <trkpt lat="44.12685" lon="2.25645">
        <ele>272</ele>
        <time>2022-09-11T08:27:17.168Z</time>
      </trkpt>
      <trkpt lat="44.12686" lon="2.25644">
        <ele>272</ele>
        <time>2022-09-11T08:27:18.168Z</time>
      </trkpt>
      <trkpt lat="44.12687" lon="2.25643">
        <ele>272</ele>
        <time>2022-09-11T08:27:19.168Z</time>
      </trkpt>
      <trkpt lat="44.12688" lon="2.25643">
        <ele>272</ele>
        <time>2022-09-11T08:27:20.168Z</time>
      </trkpt>
      <trkpt lat="44.12689" lon="2.25642">
        <ele>272</ele>
        <time>2022-09-11T08:27:21.168Z</time>
      </trkpt>
      <trkpt lat="44.12689" lon="2.25641">
        <ele>272</ele>
        <time>2022-09-11T08:27:22.168Z</time>
      </trkpt>
      <trkpt lat="44.1269" lon="2.25641">
        <ele>272</ele>
        <time>2022-09-11T08:27:23.168Z</time>
      </trkpt>
      <trkpt lat="44.12691" lon="2.2564">
        <ele>272</ele>
        <time>2022-09-11T08:27:24.168Z</time>
      </trkpt>
      <trkpt lat="44.12692" lon="2.2564">
        <ele>272</ele>
        <time>2022-09-11T08:27:25.168Z</time>
      </trkpt>
      <trkpt lat="44.12694" lon="2.25639">
        <ele>272</ele>
        <time>2022-09-11T08:27:26.168Z</time>
      </trkpt>
      <trkpt lat="44.12695" lon="2.25638">
        <ele>272</ele>
        <time>2022-09-11T08:27:27.168Z</time>
      </trkpt>
      <trkpt lat="44.12696" lon="2.25638">
        <ele>272</ele>
        <time>2022-09-11T08:27:28.168Z</time>
      </trkpt>
      <trkpt lat="44.12697" lon="2.25637">
        <ele>272</ele>
        <time>2022-09-11T08:27:29.168Z</time>
      </trkpt>
      <trkpt lat="44.12698" lon="2.25637">
        <ele>272</ele>
        <time>2022-09-11T08:27:30.168Z</time>
      </trkpt>
      <trkpt lat="44.12699" lon="2.25637">
        <ele>273</ele>
        <time>2022-09-11T08:27:31.168Z</time>
      </trkpt>
      <trkpt lat="44.127" lon="2.25636">
        <ele>273</ele>
        <time>2022-09-11T08:27:32.168Z</time>
      </trkpt>
      <trkpt lat="44.12701" lon="2.25635">
        <ele>273</ele>
        <time>2022-09-11T08:27:33.168Z</time>
      </trkpt>
      <trkpt lat="44.12702" lon="2.25634">
        <ele>273</ele>
        <time>2022-09-11T08:27:34.168Z</time>
      </trkpt>
      <trkpt lat="44.12704" lon="2.25634">
        <ele>273</ele>
        <time>2022-09-11T08:27:35.168Z</time>
      </trkpt>
      <trkpt lat="44.12705" lon="2.25634">
        <ele>273</ele>
        <time>2022-09-11T08:27:36.168Z</time>
      </trkpt>
      <trkpt lat="44.12705" lon="2.25634">
        <ele>274</ele>
        <time>2022-09-11T08:27:37.168Z</time>
      </trkpt>
      <trkpt lat="44.12707" lon="2.25634">
        <ele>274</ele>
        <time>2022-09-11T08:27:38.168Z</time>
      </trkpt>
      <trkpt lat="44.12708" lon="2.25634">
        <ele>274</ele>
        <time>2022-09-11T08:27:39.168Z</time>
      </trkpt>
      <trkpt lat="44.12709" lon="2.25634">
        <ele>274</ele>
        <time>2022-09-11T08:27:40.168Z</time>
      </trkpt>
      <trkpt lat="44.1271" lon="2.25634">
        <ele>274</ele>
        <time>2022-09-11T08:27:41.168Z</time>
      </trkpt>
      <trkpt lat="44.12711" lon="2.25634">
        <ele>274</ele>
        <time>2022-09-11T08:27:42.168Z</time>
      </trkpt>
      <trkpt lat="44.12712" lon="2.25634">
        <ele>275</ele>
        <time>2022-09-11T08:27:43.168Z</time>
      </trkpt>
      <trkpt lat="44.12713" lon="2.25634">
        <ele>275</ele>
        <time>2022-09-11T08:27:44.168Z</time>
      </trkpt>
      <trkpt lat="44.12714" lon="2.25634">
        <ele>275</ele>
        <time>2022-09-11T08:27:45.168Z</time>
      </trkpt>
      <trkpt lat="44.12715" lon="2.25634">
        <ele>275</ele>
        <time>2022-09-11T08:27:46.168Z</time>
      </trkpt>
      <trkpt lat="44.12715" lon="2.25634">
        <ele>276</ele>
        <time>2022-09-11T08:27:47.168Z</time>
      </trkpt>
      <trkpt lat="44.12716" lon="2.25634">
        <ele>276</ele>
        <time>2022-09-11T08:27:48.168Z</time>
      </trkpt>
      <trkpt lat="44.12717" lon="2.25634">
        <ele>276</ele>
        <time>2022-09-11T08:27:49.168Z</time>
      </trkpt>
      <trkpt lat="44.12718" lon="2.25634">
        <ele>276</ele>
        <time>2022-09-11T08:27:50.168Z</time>
      </trkpt>
      <trkpt lat="44.12719" lon="2.25634">
        <ele>276</ele>
        <time>2022-09-11T08:27:51.168Z</time>
      </trkpt>
      <trkpt lat="44.1272" lon="2.25635">
        <ele>277</ele>
        <time>2022-09-11T08:27:52.168Z</time>
      </trkpt>
      <trkpt lat="44.1272" lon="2.25635">
        <ele>277</ele>
        <time>2022-09-11T08:27:53.168Z</time>
      </trkpt>
      <trkpt lat="44.12721" lon="2.25635">
        <ele>277</ele>
        <time>2022-09-11T08:27:54.168Z</time>
      </trkpt>
      <trkpt lat="44.12721" lon="2.25635">
        <ele>277</ele>
        <time>2022-09-11T08:27:55.168Z</time>
      </trkpt>
      <trkpt lat="44.12721" lon="2.25635">
        <ele>277</ele>
        <time>2022-09-11T08:27:56.168Z</time>
      </trkpt>
      <trkpt lat="44.12722" lon="2.25636">
        <ele>277</ele>
        <time>2022-09-11T08:27:57.168Z</time>
      </trkpt>
      <trkpt lat="44.12722" lon="2.25636">
        <ele>277</ele>
        <time>2022-09-11T08:27:58.168Z</time>
      </trkpt>
      <trkpt lat="44.12723" lon="2.25636">
        <ele>278</ele>
        <time>2022-09-11T08:27:59.168Z</time>
      </trkpt>
      <trkpt lat="44.12723" lon="2.25636">
        <ele>278</ele>
        <time>2022-09-11T08:28:00.168Z</time>
      </trkpt>
      <trkpt lat="44.12724" lon="2.25636">
        <ele>278</ele>
        <time>2022-09-11T08:28:01.168Z</time>
      </trkpt>
      <trkpt lat="44.12724" lon="2.25636">
        <ele>278</ele>
        <time>2022-09-11T08:28:02.168Z</time>
      </trkpt>
      <trkpt lat="44.12725" lon="2.25637">
        <ele>278</ele>
        <time>2022-09-11T08:28:03.168Z</time>
      </trkpt>
      <trkpt lat="44.12726" lon="2.25637">
        <ele>278</ele>
        <time>2022-09-11T08:28:04.168Z</time>
      </trkpt>
      <trkpt lat="44.12727" lon="2.25638">
        <ele>278</ele>
        <time>2022-09-11T08:28:05.168Z</time>
      </trkpt>
      <trkpt lat="44.12728" lon="2.25638">
        <ele>278</ele>
        <time>2022-09-11T08:28:06.168Z</time>
      </trkpt>
      <trkpt lat="44.12729" lon="2.25638">
        <ele>279</ele>
        <time>2022-09-11T08:28:07.168Z</time>
      </trkpt>
      <trkpt lat="44.1273" lon="2.25639">
        <ele>279</ele>
        <time>2022-09-11T08:28:08.168Z</time>
      </trkpt>
      <trkpt lat="44.12731" lon="2.25639">
        <ele>279</ele>
        <time>2022-09-11T08:28:09.168Z</time>
      </trkpt>
      <trkpt lat="44.12732" lon="2.25639">
        <ele>279</ele>
        <time>2022-09-11T08:28:10.168Z</time>
      </trkpt>
      <trkpt lat="44.12733" lon="2.2564">
        <ele>279</ele>
        <time>2022-09-11T08:28:11.168Z</time>
      </trkpt>
      <trkpt lat="44.12733" lon="2.2564">
        <ele>279</ele>
        <time>2022-09-11T08:28:12.168Z</time>
      </trkpt>
      <trkpt lat="44.12734" lon="2.25641">
        <ele>280</ele>
        <time>2022-09-11T08:28:13.168Z</time>
      </trkpt>
      <trkpt lat="44.12735" lon="2.25641">
        <ele>280</ele>
        <time>2022-09-11T08:28:14.168Z</time>
      </trkpt>
      <trkpt lat="44.12736" lon="2.25642">
        <ele>280</ele>
        <time>2022-09-11T08:28:15.168Z</time>
      </trkpt>
      <trkpt lat="44.12737" lon="2.25642">
        <ele>280</ele>
        <time>2022-09-11T08:28:16.168Z</time>
      </trkpt>
      <trkpt lat="44.12738" lon="2.25643">
        <ele>280</ele>
        <time>2022-09-11T08:28:17.168Z</time>
      </trkpt>
      <trkpt lat="44.12739" lon="2.25644">
        <ele>280</ele>
        <time>2022-09-11T08:28:18.168Z</time>
      </trkpt>
      <trkpt lat="44.1274" lon="2.25644">
        <ele>281</ele>
        <time>2022-09-11T08:28:19.168Z</time>
      </trkpt>
      <trkpt lat="44.1274" lon="2.25644">
        <ele>281</ele>
        <time>2022-09-11T08:28:20.168Z</time>
      </trkpt>
      <trkpt lat="44.12741" lon="2.25645">
        <ele>281</ele>
        <time>2022-09-11T08:28:21.168Z</time>
      </trkpt>
      <trkpt lat="44.12742" lon="2.25645">
        <ele>281</ele>
        <time>2022-09-11T08:28:22.168Z</time>
      </trkpt>
      <trkpt lat="44.12743" lon="2.25645">
        <ele>281</ele>
        <time>2022-09-11T08:28:23.168Z</time>
      </trkpt>
      <trkpt lat="44.12744" lon="2.25645">
        <ele>282</ele>
        <time>2022-09-11T08:28:24.168Z</time>
      </trkpt>
      <trkpt lat="44.12745" lon="2.25645">
        <ele>282</ele>
        <time>2022-09-11T08:28:25.168Z</time>
      </trkpt>
      <trkpt lat="44.12746" lon="2.25646">
        <ele>282</ele>
        <time>2022-09-11T08:28:26.168Z</time>
      </trkpt>
      <trkpt lat="44.12747" lon="2.25647">
        <ele>283</ele>
        <time>2022-09-11T08:28:27.168Z</time>
      </trkpt>
      <trkpt lat="44.12747" lon="2.25647">
        <ele>283</ele>
        <time>2022-09-11T08:28:28.168Z</time>
      </trkpt>
      <trkpt lat="44.12748" lon="2.25647">
        <ele>283</ele>
        <time>2022-09-11T08:28:29.168Z</time>
      </trkpt>
      <trkpt lat="44.12749" lon="2.25648">
        <ele>283</ele>
        <time>2022-09-11T08:28:30.168Z</time>
      </trkpt>
      <trkpt lat="44.1275" lon="2.25648">
        <ele>284</ele>
        <time>2022-09-11T08:28:31.168Z</time>
      </trkpt>
      <trkpt lat="44.1275" lon="2.25648">
        <ele>284</ele>
        <time>2022-09-11T08:28:32.168Z</time>
      </trkpt>
      <trkpt lat="44.12751" lon="2.25648">
        <ele>284</ele>
        <time>2022-09-11T08:28:33.168Z</time>
      </trkpt>
      <trkpt lat="44.12751" lon="2.25648">
        <ele>284</ele>
        <time>2022-09-11T08:28:34.168Z</time>
      </trkpt>
      <trkpt lat="44.12751" lon="2.25648">
        <ele>284</ele>
        <time>2022-09-11T08:28:35.168Z</time>
      </trkpt>
      <trkpt lat="44.12753" lon="2.25648">
        <ele>285</ele>
        <time>2022-09-11T08:28:38.422Z</time>
      </trkpt>
      <trkpt lat="44.12754" lon="2.25649">
        <ele>285</ele>
        <time>2022-09-11T08:28:39.422Z</time>
      </trkpt>
      <trkpt lat="44.12755" lon="2.25649">
        <ele>285</ele>
        <time>2022-09-11T08:28:40.422Z</time>
      </trkpt>
      <trkpt lat="44.12756" lon="2.2565">
        <ele>286</ele>
        <time>2022-09-11T08:28:41.422Z</time>
      </trkpt>
      <trkpt lat="44.12757" lon="2.25651">
        <ele>286</ele>
        <time>2022-09-11T08:28:42.422Z</time>
      </trkpt>
      <trkpt lat="44.12758" lon="2.25651">
        <ele>286</ele>
        <time>2022-09-11T08:28:43.422Z</time>
      </trkpt>
      <trkpt lat="44.12759" lon="2.25652">
        <ele>286</ele>
        <time>2022-09-11T08:28:44.422Z</time>
      </trkpt>
      <trkpt lat="44.1276" lon="2.25653">
        <ele>287</ele>
        <time>2022-09-11T08:28:45.422Z</time>
      </trkpt>
      <trkpt lat="44.12761" lon="2.25654">
        <ele>287</ele>
        <time>2022-09-11T08:28:46.422Z</time>
      </trkpt>
      <trkpt lat="44.12762" lon="2.25654">
        <ele>287</ele>
        <time>2022-09-11T08:28:47.422Z</time>
      </trkpt>
      <trkpt lat="44.12762" lon="2.25655">
        <ele>287</ele>
        <time>2022-09-11T08:28:48.422Z</time>
      </trkpt>
      <trkpt lat="44.12763" lon="2.25656">
        <ele>288</ele>
        <time>2022-09-11T08:28:49.422Z</time>
      </trkpt>
      <trkpt lat="44.12764" lon="2.25656">
        <ele>288</ele>
        <time>2022-09-11T08:28:50.422Z</time>
      </trkpt>
      <trkpt lat="44.12765" lon="2.25657">
        <ele>288</ele>
        <time>2022-09-11T08:28:51.422Z</time>
      </trkpt>
      <trkpt lat="44.12766" lon="2.25658">
        <ele>289</ele>
        <time>2022-09-11T08:28:52.422Z</time>
      </trkpt>
      <trkpt lat="44.12767" lon="2.25658">
        <ele>289</ele>
        <time>2022-09-11T08:28:53.422Z</time>
      </trkpt>
      <trkpt lat="44.12768" lon="2.25659">
        <ele>289</ele>
        <time>2022-09-11T08:28:54.422Z</time>
      </trkpt>
      <trkpt lat="44.12769" lon="2.25659">
        <ele>289</ele>
        <time>2022-09-11T08:28:55.422Z</time>
      </trkpt>
      <trkpt lat="44.1277" lon="2.2566">
        <ele>289</ele>
        <time>2022-09-11T08:28:56.422Z</time>
      </trkpt>
      <trkpt lat="44.12771" lon="2.2566">
        <ele>289</ele>
        <time>2022-09-11T08:28:57.422Z</time>
      </trkpt>
      <trkpt lat="44.12772" lon="2.25661">
        <ele>290</ele>
        <time>2022-09-11T08:28:58.422Z</time>
      </trkpt>
      <trkpt lat="44.12773" lon="2.25661">
        <ele>290</ele>
        <time>2022-09-11T08:28:59.422Z</time>
      </trkpt>
      <trkpt lat="44.12774" lon="2.25662">
        <ele>290</ele>
        <time>2022-09-11T08:29:00.422Z</time>
      </trkpt>
      <trkpt lat="44.12775" lon="2.25663">
        <ele>290</ele>
        <time>2022-09-11T08:29:01.422Z</time>
      </trkpt>
      <trkpt lat="44.12776" lon="2.25664">
        <ele>290</ele>
        <time>2022-09-11T08:29:02.422Z</time>
      </trkpt>
      <trkpt lat="44.12777" lon="2.25664">
        <ele>290</ele>
        <time>2022-09-11T08:29:03.422Z</time>
      </trkpt>
      <trkpt lat="44.12778" lon="2.25665">
        <ele>291</ele>
        <time>2022-09-11T08:29:04.422Z</time>
      </trkpt>
      <trkpt lat="44.12779" lon="2.25665">
        <ele>291</ele>
        <time>2022-09-11T08:29:05.422Z</time>
      </trkpt>
      <trkpt lat="44.1278" lon="2.25666">
        <ele>291</ele>
        <time>2022-09-11T08:29:06.422Z</time>
      </trkpt>
      <trkpt lat="44.12781" lon="2.25666">
        <ele>291</ele>
        <time>2022-09-11T08:29:07.422Z</time>
      </trkpt>
      <trkpt lat="44.12782" lon="2.25667">
        <ele>291</ele>
        <time>2022-09-11T08:29:08.422Z</time>
      </trkpt>
      <trkpt lat="44.12783" lon="2.25668">
        <ele>291</ele>
        <time>2022-09-11T08:29:09.422Z</time>
      </trkpt>
      <trkpt lat="44.12784" lon="2.25669">
        <ele>292</ele>
        <time>2022-09-11T08:29:10.422Z</time>
      </trkpt>
      <trkpt lat="44.12785" lon="2.25669">
        <ele>292</ele>
        <time>2022-09-11T08:29:11.422Z</time>
      </trkpt>
      <trkpt lat="44.12786" lon="2.25669">
        <ele>292</ele>
        <time>2022-09-11T08:29:12.422Z</time>
      </trkpt>
      <trkpt lat="44.12787" lon="2.2567">
        <ele>292</ele>
        <time>2022-09-11T08:29:13.422Z</time>
      </trkpt>
      <trkpt lat="44.12788" lon="2.2567">
        <ele>293</ele>
        <time>2022-09-11T08:29:14.422Z</time>
      </trkpt>
      <trkpt lat="44.12789" lon="2.2567">
        <ele>293</ele>
        <time>2022-09-11T08:29:15.422Z</time>
      </trkpt>
      <trkpt lat="44.12789" lon="2.25671">
        <ele>293</ele>
        <time>2022-09-11T08:29:16.422Z</time>
      </trkpt>
      <trkpt lat="44.1279" lon="2.25671">
        <ele>293</ele>
        <time>2022-09-11T08:29:17.422Z</time>
      </trkpt>
      <trkpt lat="44.12791" lon="2.25672">
        <ele>294</ele>
        <time>2022-09-11T08:29:18.422Z</time>
      </trkpt>
      <trkpt lat="44.12793" lon="2.25672">
        <ele>294</ele>
        <time>2022-09-11T08:29:19.422Z</time>
      </trkpt>
      <trkpt lat="44.12794" lon="2.25673">
        <ele>294</ele>
        <time>2022-09-11T08:29:20.422Z</time>
      </trkpt>
      <trkpt lat="44.12795" lon="2.25674">
        <ele>294</ele>
        <time>2022-09-11T08:29:21.422Z</time>
      </trkpt>
      <trkpt lat="44.12795" lon="2.25674">
        <ele>294</ele>
        <time>2022-09-11T08:29:22.422Z</time>
      </trkpt>
      <trkpt lat="44.12796" lon="2.25675">
        <ele>295</ele>
        <time>2022-09-11T08:29:23.422Z</time>
      </trkpt>
      <trkpt lat="44.12797" lon="2.25676">
        <ele>295</ele>
        <time>2022-09-11T08:29:24.422Z</time>
      </trkpt>
      <trkpt lat="44.12798" lon="2.25676">
        <ele>295</ele>
        <time>2022-09-11T08:29:25.422Z</time>
      </trkpt>
      <trkpt lat="44.12799" lon="2.25676">
        <ele>295</ele>
        <time>2022-09-11T08:29:26.422Z</time>
      </trkpt>
      <trkpt lat="44.12799" lon="2.25676">
        <ele>295</ele>
        <time>2022-09-11T08:29:27.422Z</time>
      </trkpt>
      <trkpt lat="44.128" lon="2.25677">
        <ele>295</ele>
        <time>2022-09-11T08:29:28.422Z</time>
      </trkpt>
      <trkpt lat="44.12801" lon="2.25678">
        <ele>295</ele>
        <time>2022-09-11T08:29:29.422Z</time>
      </trkpt>
      <trkpt lat="44.12802" lon="2.25678">
        <ele>295</ele>
        <time>2022-09-11T08:29:30.422Z</time>
      </trkpt>
      <trkpt lat="44.12803" lon="2.25678">
        <ele>296</ele>
        <time>2022-09-11T08:29:31.422Z</time>
      </trkpt>
      <trkpt lat="44.12804" lon="2.25679">
        <ele>296</ele>
        <time>2022-09-11T08:29:32.422Z</time>
      </trkpt>
      <trkpt lat="44.12805" lon="2.25679">
        <ele>296</ele>
        <time>2022-09-11T08:29:33.422Z</time>
      </trkpt>
      <trkpt lat="44.12806" lon="2.2568">
        <ele>296</ele>
        <time>2022-09-11T08:29:34.422Z</time>
      </trkpt>
      <trkpt lat="44.12808" lon="2.2568">
        <ele>296</ele>
        <time>2022-09-11T08:29:35.422Z</time>
      </trkpt>
      <trkpt lat="44.12809" lon="2.25681">
        <ele>296</ele>
        <time>2022-09-11T08:29:36.422Z</time>
      </trkpt>
      <trkpt lat="44.1281" lon="2.25681">
        <ele>297</ele>
        <time>2022-09-11T08:29:37.422Z</time>
      </trkpt>
      <trkpt lat="44.12811" lon="2.25682">
        <ele>297</ele>
        <time>2022-09-11T08:29:38.422Z</time>
      </trkpt>
      <trkpt lat="44.12812" lon="2.25683">
        <ele>297</ele>
        <time>2022-09-11T08:29:39.422Z</time>
      </trkpt>
      <trkpt lat="44.12813" lon="2.25683">
        <ele>297</ele>
        <time>2022-09-11T08:29:40.422Z</time>
      </trkpt>
      <trkpt lat="44.12814" lon="2.25684">
        <ele>297</ele>
        <time>2022-09-11T08:29:41.422Z</time>
      </trkpt>
      <trkpt lat="44.12815" lon="2.25684">
        <ele>297</ele>
        <time>2022-09-11T08:29:42.422Z</time>
      </trkpt>
      <trkpt lat="44.12816" lon="2.25685">
        <ele>297</ele>
        <time>2022-09-11T08:29:43.422Z</time>
      </trkpt>
      <trkpt lat="44.12817" lon="2.25685">
        <ele>297</ele>
        <time>2022-09-11T08:29:44.422Z</time>
      </trkpt>
      <trkpt lat="44.12818" lon="2.25686">
        <ele>297</ele>
        <time>2022-09-11T08:29:45.422Z</time>
      </trkpt>
      <trkpt lat="44.12819" lon="2.25686">
        <ele>298</ele>
        <time>2022-09-11T08:29:46.422Z</time>
      </trkpt>
      <trkpt lat="44.12821" lon="2.25686">
        <ele>298</ele>
        <time>2022-09-11T08:29:47.422Z</time>
      </trkpt>
      <trkpt lat="44.12822" lon="2.25687">
        <ele>298</ele>
        <time>2022-09-11T08:29:48.422Z</time>
      </trkpt>
      <trkpt lat="44.12823" lon="2.25688">
        <ele>298</ele>
        <time>2022-09-11T08:29:49.422Z</time>
      </trkpt>
      <trkpt lat="44.12824" lon="2.25689">
        <ele>298</ele>
        <time>2022-09-11T08:29:50.422Z</time>
      </trkpt>
      <trkpt lat="44.12825" lon="2.25689">
        <ele>298</ele>
        <time>2022-09-11T08:29:51.422Z</time>
      </trkpt>
      <trkpt lat="44.12826" lon="2.2569">
        <ele>298</ele>
        <time>2022-09-11T08:29:52.422Z</time>
      </trkpt>
      <trkpt lat="44.12828" lon="2.25691">
        <ele>298</ele>
        <time>2022-09-11T08:29:53.422Z</time>
      </trkpt>
      <trkpt lat="44.12829" lon="2.25691">
        <ele>298</ele>
        <time>2022-09-11T08:29:54.422Z</time>
      </trkpt>
      <trkpt lat="44.1283" lon="2.25691">
        <ele>298</ele>
        <time>2022-09-11T08:29:55.422Z</time>
      </trkpt>
      <trkpt lat="44.12831" lon="2.25692">
        <ele>298</ele>
        <time>2022-09-11T08:29:56.422Z</time>
      </trkpt>
      <trkpt lat="44.12832" lon="2.25693">
        <ele>298</ele>
        <time>2022-09-11T08:29:57.422Z</time>
      </trkpt>
      <trkpt lat="44.12833" lon="2.25693">
        <ele>298</ele>
        <time>2022-09-11T08:29:58.422Z</time>
      </trkpt>
      <trkpt lat="44.12834" lon="2.25694">
        <ele>298</ele>
        <time>2022-09-11T08:29:59.422Z</time>
      </trkpt>
      <trkpt lat="44.12835" lon="2.25694">
        <ele>298</ele>
        <time>2022-09-11T08:30:00.422Z</time>
      </trkpt>
      <trkpt lat="44.12836" lon="2.25695">
        <ele>298</ele>
        <time>2022-09-11T08:30:01.422Z</time>
      </trkpt>
      <trkpt lat="44.12837" lon="2.25695">
        <ele>298</ele>
        <time>2022-09-11T08:30:02.422Z</time>
      </trkpt>
      <trkpt lat="44.12838" lon="2.25696">
        <ele>298</ele>
        <time>2022-09-11T08:30:03.422Z</time>
      </trkpt>
      <trkpt lat="44.12838" lon="2.25697">
        <ele>298</ele>
        <time>2022-09-11T08:30:04.422Z</time>
      </trkpt>
      <trkpt lat="44.12839" lon="2.25698">
        <ele>298</ele>
        <time>2022-09-11T08:30:05.422Z</time>
      </trkpt>
      <trkpt lat="44.1284" lon="2.25698">
        <ele>298</ele>
        <time>2022-09-11T08:30:06.422Z</time>
      </trkpt>
      <trkpt lat="44.12841" lon="2.25699">
        <ele>298</ele>
        <time>2022-09-11T08:30:07.422Z</time>
      </trkpt>
      <trkpt lat="44.12842" lon="2.257">
        <ele>298</ele>
        <time>2022-09-11T08:30:08.422Z</time>
      </trkpt>
      <trkpt lat="44.12843" lon="2.25701">
        <ele>298</ele>
        <time>2022-09-11T08:30:09.422Z</time>
      </trkpt>
      <trkpt lat="44.12844" lon="2.25702">
        <ele>298</ele>
        <time>2022-09-11T08:30:10.422Z</time>
      </trkpt>
      <trkpt lat="44.12844" lon="2.25702">
        <ele>298</ele>
        <time>2022-09-11T08:30:11.422Z</time>
      </trkpt>
      <trkpt lat="44.12845" lon="2.25703">
        <ele>298</ele>
        <time>2022-09-11T08:30:12.422Z</time>
      </trkpt>
      <trkpt lat="44.12845" lon="2.25704">
        <ele>298</ele>
        <time>2022-09-11T08:30:13.422Z</time>
      </trkpt>
      <trkpt lat="44.12846" lon="2.25704">
        <ele>298</ele>
        <time>2022-09-11T08:30:14.422Z</time>
      </trkpt>
      <trkpt lat="44.12846" lon="2.25704">
        <ele>298</ele>
        <time>2022-09-11T08:30:15.422Z</time>
      </trkpt>
      <trkpt lat="44.12847" lon="2.25705">
        <ele>298</ele>
        <time>2022-09-11T08:30:16.422Z</time>
      </trkpt>
      <trkpt lat="44.12848" lon="2.25705">
        <ele>298</ele>
        <time>2022-09-11T08:30:17.422Z</time>
      </trkpt>
      <trkpt lat="44.12849" lon="2.25705">
        <ele>298</ele>
        <time>2022-09-11T08:30:18.422Z</time>
      </trkpt>
      <trkpt lat="44.1285" lon="2.25706">
        <ele>298</ele>
        <time>2022-09-11T08:30:19.422Z</time>
      </trkpt>
      <trkpt lat="44.12851" lon="2.25706">
        <ele>298</ele>
        <time>2022-09-11T08:30:20.422Z</time>
      </trkpt>
      <trkpt lat="44.12852" lon="2.25707">
        <ele>298</ele>
        <time>2022-09-11T08:30:21.422Z</time>
      </trkpt>
      <trkpt lat="44.12853" lon="2.25707">
        <ele>299</ele>
        <time>2022-09-11T08:30:22.422Z</time>
      </trkpt>
      <trkpt lat="44.12854" lon="2.25708">
        <ele>299</ele>
        <time>2022-09-11T08:30:23.422Z</time>
      </trkpt>
      <trkpt lat="44.12855" lon="2.25708">
        <ele>299</ele>
        <time>2022-09-11T08:30:24.422Z</time>
      </trkpt>
      <trkpt lat="44.12856" lon="2.25709">
        <ele>299</ele>
        <time>2022-09-11T08:30:25.422Z</time>
      </trkpt>
      <trkpt lat="44.12857" lon="2.25709">
        <ele>299</ele>
        <time>2022-09-11T08:30:26.422Z</time>
      </trkpt>
      <trkpt lat="44.12858" lon="2.2571">
        <ele>299</ele>
        <time>2022-09-11T08:30:27.422Z</time>
      </trkpt>
      <trkpt lat="44.12858" lon="2.25711">
        <ele>299</ele>
        <time>2022-09-11T08:30:28.422Z</time>
      </trkpt>
      <trkpt lat="44.12859" lon="2.25711">
        <ele>300</ele>
        <time>2022-09-11T08:30:29.422Z</time>
      </trkpt>
      <trkpt lat="44.1286" lon="2.25712">
        <ele>300</ele>
        <time>2022-09-11T08:30:30.422Z</time>
      </trkpt>
      <trkpt lat="44.12861" lon="2.25712">
        <ele>300</ele>
        <time>2022-09-11T08:30:31.422Z</time>
      </trkpt>
      <trkpt lat="44.12862" lon="2.25712">
        <ele>300</ele>
        <time>2022-09-11T08:30:32.422Z</time>
      </trkpt>
      <trkpt lat="44.12863" lon="2.25713">
        <ele>300</ele>
        <time>2022-09-11T08:30:33.422Z</time>
      </trkpt>
      <trkpt lat="44.12864" lon="2.25713">
        <ele>300</ele>
        <time>2022-09-11T08:30:34.422Z</time>
      </trkpt>
      <trkpt lat="44.12865" lon="2.25714">
        <ele>301</ele>
        <time>2022-09-11T08:30:35.422Z</time>
      </trkpt>
      <trkpt lat="44.12866" lon="2.25714">
        <ele>301</ele>
        <time>2022-09-11T08:30:36.422Z</time>
      </trkpt>
      <trkpt lat="44.12866" lon="2.25715">
        <ele>301</ele>
        <time>2022-09-11T08:30:37.422Z</time>
      </trkpt>
      <trkpt lat="44.12867" lon="2.25715">
        <ele>301</ele>
        <time>2022-09-11T08:30:38.422Z</time>
      </trkpt>
      <trkpt lat="44.12867" lon="2.25716">
        <ele>301</ele>
        <time>2022-09-11T08:30:39.422Z</time>
      </trkpt>
      <trkpt lat="44.12868" lon="2.25716">
        <ele>302</ele>
        <time>2022-09-11T08:30:40.422Z</time>
      </trkpt>
      <trkpt lat="44.12868" lon="2.25716">
        <ele>302</ele>
        <time>2022-09-11T08:30:41.422Z</time>
      </trkpt>
      <trkpt lat="44.12879" lon="2.25723">
        <ele>307</ele>
        <time>2022-09-11T08:31:16.429Z</time>
      </trkpt>
      <trkpt lat="44.12879" lon="2.25724">
        <ele>307</ele>
        <time>2022-09-11T08:31:17.429Z</time>
      </trkpt>
      <trkpt lat="44.12878" lon="2.25725">
        <ele>307</ele>
        <time>2022-09-11T08:31:18.429Z</time>
      </trkpt>
      <trkpt lat="44.12878" lon="2.25725">
        <ele>307</ele>
        <time>2022-09-11T08:31:19.429Z</time>
      </trkpt>
      <trkpt lat="44.12877" lon="2.25725">
        <ele>307</ele>
        <time>2022-09-11T08:31:20.429Z</time>
      </trkpt>
      <trkpt lat="44.12876" lon="2.25725">
        <ele>307</ele>
        <time>2022-09-11T08:31:21.429Z</time>
      </trkpt>
      <trkpt lat="44.12875" lon="2.25725">
        <ele>307</ele>
        <time>2022-09-11T08:31:22.429Z</time>
      </trkpt>
      <trkpt lat="44.12875" lon="2.25725">
        <ele>307</ele>
        <time>2022-09-11T08:31:23.429Z</time>
      </trkpt>
      <trkpt lat="44.12874" lon="2.25724">
        <ele>307</ele>
        <time>2022-09-11T08:31:24.429Z</time>
      </trkpt>
      <trkpt lat="44.12874" lon="2.25725">
        <ele>307</ele>
        <time>2022-09-11T08:31:25.429Z</time>
      </trkpt>
      <trkpt lat="44.12873" lon="2.25725">
        <ele>307</ele>
        <time>2022-09-11T08:31:26.429Z</time>
      </trkpt>
      <trkpt lat="44.12873" lon="2.25724">
        <ele>307</ele>
        <time>2022-09-11T08:31:27.429Z</time>
      </trkpt>
      <trkpt lat="44.12872" lon="2.25724">
        <ele>307</ele>
        <time>2022-09-11T08:31:28.429Z</time>
      </trkpt>
      <trkpt lat="44.12872" lon="2.25724">
        <ele>307</ele>
        <time>2022-09-11T08:31:29.429Z</time>
      </trkpt>
      <trkpt lat="44.12868" lon="2.25727">
        <ele>308</ele>
        <time>2022-09-11T08:31:39.439Z</time>
      </trkpt>
      <trkpt lat="44.12868" lon="2.25727">
        <ele>308</ele>
        <time>2022-09-11T08:31:40.439Z</time>
      </trkpt>
      <trkpt lat="44.12867" lon="2.25727">
        <ele>308</ele>
        <time>2022-09-11T08:31:41.439Z</time>
      </trkpt>
      <trkpt lat="44.12867" lon="2.25728">
        <ele>308</ele>
        <time>2022-09-11T08:31:42.439Z</time>
      </trkpt>
      <trkpt lat="44.12866" lon="2.25728">
        <ele>308</ele>
        <time>2022-09-11T08:31:43.439Z</time>
      </trkpt>
      <trkpt lat="44.12866" lon="2.25728">
        <ele>308</ele>
        <time>2022-09-11T08:31:44.439Z</time>
      </trkpt>
      <trkpt lat="44.12864" lon="2.25729">
        <ele>308</ele>
        <time>2022-09-11T08:31:49.449Z</time>
      </trkpt>
      <trkpt lat="44.12864" lon="2.25729">
        <ele>308</ele>
        <time>2022-09-11T08:31:50.449Z</time>
      </trkpt>
      <trkpt lat="44.12863" lon="2.25729">
        <ele>308</ele>
        <time>2022-09-11T08:31:51.449Z</time>
      </trkpt>
      <trkpt lat="44.12863" lon="2.25729">
        <ele>308</ele>
        <time>2022-09-11T08:31:52.449Z</time>
      </trkpt>
      <trkpt lat="44.1286" lon="2.2573">
        <ele>309</ele>
        <time>2022-09-11T08:31:59.459Z</time>
      </trkpt>
      <trkpt lat="44.12859" lon="2.2573">
        <ele>309</ele>
        <time>2022-09-11T08:32:00.459Z</time>
      </trkpt>
      <trkpt lat="44.12859" lon="2.2573">
        <ele>309</ele>
        <time>2022-09-11T08:32:01.459Z</time>
      </trkpt>
      <trkpt lat="44.12858" lon="2.25731">
        <ele>309</ele>
        <time>2022-09-11T08:32:02.459Z</time>
      </trkpt>
      <trkpt lat="44.12857" lon="2.25731">
        <ele>309</ele>
        <time>2022-09-11T08:32:03.459Z</time>
      </trkpt>
      <trkpt lat="44.12856" lon="2.25731">
        <ele>309</ele>
        <time>2022-09-11T08:32:04.459Z</time>
      </trkpt>
      <trkpt lat="44.12856" lon="2.25731">
        <ele>309</ele>
        <time>2022-09-11T08:32:05.459Z</time>
      </trkpt>
      <trkpt lat="44.12855" lon="2.25732">
        <ele>309</ele>
        <time>2022-09-11T08:32:06.459Z</time>
      </trkpt>
      <trkpt lat="44.12855" lon="2.25732">
        <ele>309</ele>
        <time>2022-09-11T08:32:07.459Z</time>
      </trkpt>
      <trkpt lat="44.12854" lon="2.25732">
        <ele>309</ele>
        <time>2022-09-11T08:32:08.459Z</time>
      </trkpt>
      <trkpt lat="44.12854" lon="2.25733">
        <ele>309</ele>
        <time>2022-09-11T08:32:09.459Z</time>
      </trkpt>
      <trkpt lat="44.12855" lon="2.25737">
        <ele>310</ele>
        <time>2022-09-11T08:32:17.466Z</time>
      </trkpt>
      <trkpt lat="44.12855" lon="2.25738">
        <ele>309</ele>
        <time>2022-09-11T08:32:18.466Z</time>
      </trkpt>
      <trkpt lat="44.12855" lon="2.25738">
        <ele>309</ele>
        <time>2022-09-11T08:32:19.466Z</time>
      </trkpt>
      <trkpt lat="44.12856" lon="2.25739">
        <ele>309</ele>
        <time>2022-09-11T08:32:20.466Z</time>
      </trkpt>
      <trkpt lat="44.12856" lon="2.2574">
        <ele>309</ele>
        <time>2022-09-11T08:32:21.466Z</time>
      </trkpt>
      <trkpt lat="44.12857" lon="2.25741">
        <ele>309</ele>
        <time>2022-09-11T08:32:22.466Z</time>
      </trkpt>
      <trkpt lat="44.12858" lon="2.25742">
        <ele>309</ele>
        <time>2022-09-11T08:32:23.466Z</time>
      </trkpt>
      <trkpt lat="44.12858" lon="2.25742">
        <ele>309</ele>
        <time>2022-09-11T08:32:24.466Z</time>
      </trkpt>
      <trkpt lat="44.12859" lon="2.25743">
        <ele>308</ele>
        <time>2022-09-11T08:32:25.466Z</time>
      </trkpt>
      <trkpt lat="44.1286" lon="2.25743">
        <ele>308</ele>
        <time>2022-09-11T08:32:26.466Z</time>
      </trkpt>
      <trkpt lat="44.1286" lon="2.25744">
        <ele>308</ele>
        <time>2022-09-11T08:32:27.466Z</time>
      </trkpt>
      <trkpt lat="44.12861" lon="2.25744">
        <ele>308</ele>
        <time>2022-09-11T08:32:28.466Z</time>
      </trkpt>
      <trkpt lat="44.12861" lon="2.25745">
        <ele>308</ele>
        <time>2022-09-11T08:32:29.466Z</time>
      </trkpt>
      <trkpt lat="44.12862" lon="2.25746">
        <ele>308</ele>
        <time>2022-09-11T08:32:30.466Z</time>
      </trkpt>
      <trkpt lat="44.12863" lon="2.25746">
        <ele>308</ele>
        <time>2022-09-11T08:32:31.466Z</time>
      </trkpt>
      <trkpt lat="44.12863" lon="2.25747">
        <ele>308</ele>
        <time>2022-09-11T08:32:32.466Z</time>
      </trkpt>
      <trkpt lat="44.12864" lon="2.25748">
        <ele>308</ele>
        <time>2022-09-11T08:32:33.466Z</time>
      </trkpt>
      <trkpt lat="44.12864" lon="2.25748">
        <ele>308</ele>
        <time>2022-09-11T08:32:34.466Z</time>
      </trkpt>
      <trkpt lat="44.12865" lon="2.25749">
        <ele>307</ele>
        <time>2022-09-11T08:32:35.466Z</time>
      </trkpt>
      <trkpt lat="44.12865" lon="2.2575">
        <ele>307</ele>
        <time>2022-09-11T08:32:36.466Z</time>
      </trkpt>
      <trkpt lat="44.12866" lon="2.2575">
        <ele>307</ele>
        <time>2022-09-11T08:32:37.466Z</time>
      </trkpt>
      <trkpt lat="44.12867" lon="2.25751">
        <ele>307</ele>
        <time>2022-09-11T08:32:38.466Z</time>
      </trkpt>
      <trkpt lat="44.12867" lon="2.25751">
        <ele>307</ele>
        <time>2022-09-11T08:32:39.466Z</time>
      </trkpt>
      <trkpt lat="44.12868" lon="2.25752">
        <ele>307</ele>
        <time>2022-09-11T08:32:40.466Z</time>
      </trkpt>
      <trkpt lat="44.12868" lon="2.25753">
        <ele>307</ele>
        <time>2022-09-11T08:32:41.466Z</time>
      </trkpt>
      <trkpt lat="44.12869" lon="2.25753">
        <ele>307</ele>
        <time>2022-09-11T08:32:42.466Z</time>
      </trkpt>
      <trkpt lat="44.12869" lon="2.25753">
        <ele>307</ele>
        <time>2022-09-11T08:32:43.466Z</time>
      </trkpt>
      <trkpt lat="44.1287" lon="2.25753">
        <ele>307</ele>
        <time>2022-09-11T08:32:44.466Z</time>
      </trkpt>
      <trkpt lat="44.12871" lon="2.25754">
        <ele>307</ele>
        <time>2022-09-11T08:32:45.466Z</time>
      </trkpt>
      <trkpt lat="44.12872" lon="2.25754">
        <ele>307</ele>
        <time>2022-09-11T08:32:46.466Z</time>
      </trkpt>
      <trkpt lat="44.12873" lon="2.25754">
        <ele>307</ele>
        <time>2022-09-11T08:32:47.466Z</time>
      </trkpt>
      <trkpt lat="44.12873" lon="2.25755">
        <ele>308</ele>
        <time>2022-09-11T08:32:48.466Z</time>
      </trkpt>
      <trkpt lat="44.12874" lon="2.25755">
        <ele>308</ele>
        <time>2022-09-11T08:32:49.466Z</time>
      </trkpt>
      <trkpt lat="44.12875" lon="2.25755">
        <ele>308</ele>
        <time>2022-09-11T08:32:50.466Z</time>
      </trkpt>
      <trkpt lat="44.12876" lon="2.25756">
        <ele>308</ele>
        <time>2022-09-11T08:32:51.466Z</time>
      </trkpt>
      <trkpt lat="44.12877" lon="2.25756">
        <ele>308</ele>
        <time>2022-09-11T08:32:52.466Z</time>
      </trkpt>
      <trkpt lat="44.12878" lon="2.25756">
        <ele>309</ele>
        <time>2022-09-11T08:32:53.466Z</time>
      </trkpt>
      <trkpt lat="44.12879" lon="2.25756">
        <ele>309</ele>
        <time>2022-09-11T08:32:54.466Z</time>
      </trkpt>
      <trkpt lat="44.1288" lon="2.25756">
        <ele>309</ele>
        <time>2022-09-11T08:32:55.466Z</time>
      </trkpt>
      <trkpt lat="44.1288" lon="2.25756">
        <ele>309</ele>
        <time>2022-09-11T08:32:56.466Z</time>
      </trkpt>
      <trkpt lat="44.12881" lon="2.25757">
        <ele>309</ele>
        <time>2022-09-11T08:32:57.466Z</time>
      </trkpt>
      <trkpt lat="44.12882" lon="2.25757">
        <ele>309</ele>
        <time>2022-09-11T08:32:58.466Z</time>
      </trkpt>
      <trkpt lat="44.12882" lon="2.25757">
        <ele>309</ele>
        <time>2022-09-11T08:32:59.466Z</time>
      </trkpt>
      <trkpt lat="44.12883" lon="2.25757">
        <ele>310</ele>
        <time>2022-09-11T08:33:00.466Z</time>
      </trkpt>
      <trkpt lat="44.12884" lon="2.25757">
        <ele>310</ele>
        <time>2022-09-11T08:33:01.466Z</time>
      </trkpt>
      <trkpt lat="44.12884" lon="2.25757">
        <ele>310</ele>
        <time>2022-09-11T08:33:02.466Z</time>
      </trkpt>
      <trkpt lat="44.12885" lon="2.25757">
        <ele>310</ele>
        <time>2022-09-11T08:33:03.466Z</time>
      </trkpt>
      <trkpt lat="44.12886" lon="2.25757">
        <ele>310</ele>
        <time>2022-09-11T08:33:04.466Z</time>
      </trkpt>
      <trkpt lat="44.12887" lon="2.25757">
        <ele>310</ele>
        <time>2022-09-11T08:33:05.466Z</time>
      </trkpt>
      <trkpt lat="44.12888" lon="2.25757">
        <ele>310</ele>
        <time>2022-09-11T08:33:06.466Z</time>
      </trkpt>
      <trkpt lat="44.12888" lon="2.25758">
        <ele>310</ele>
        <time>2022-09-11T08:33:07.466Z</time>
      </trkpt>
      <trkpt lat="44.12889" lon="2.25758">
        <ele>310</ele>
        <time>2022-09-11T08:33:08.466Z</time>
      </trkpt>
      <trkpt lat="44.12889" lon="2.25758">
        <ele>310</ele>
        <time>2022-09-11T08:33:09.466Z</time>
      </trkpt>
      <trkpt lat="44.1289" lon="2.25758">
        <ele>311</ele>
        <time>2022-09-11T08:33:10.466Z</time>
      </trkpt>
      <trkpt lat="44.1289" lon="2.25758">
        <ele>311</ele>
        <time>2022-09-11T08:33:11.466Z</time>
      </trkpt>
      <trkpt lat="44.1289" lon="2.25758">
        <ele>311</ele>
        <time>2022-09-11T08:33:12.466Z</time>
      </trkpt>
      <trkpt lat="44.12891" lon="2.25759">
        <ele>311</ele>
        <time>2022-09-11T08:33:13.466Z</time>
      </trkpt>
      <trkpt lat="44.12891" lon="2.25759">
        <ele>311</ele>
        <time>2022-09-11T08:33:14.466Z</time>
      </trkpt>
      <trkpt lat="44.12892" lon="2.25759">
        <ele>311</ele>
        <time>2022-09-11T08:33:15.466Z</time>
      </trkpt>
      <trkpt lat="44.12892" lon="2.2576">
        <ele>311</ele>
        <time>2022-09-11T08:33:16.466Z</time>
      </trkpt>
      <trkpt lat="44.12893" lon="2.2576">
        <ele>311</ele>
        <time>2022-09-11T08:33:17.466Z</time>
      </trkpt>
      <trkpt lat="44.12893" lon="2.2576">
        <ele>311</ele>
        <time>2022-09-11T08:33:18.466Z</time>
      </trkpt>
      <trkpt lat="44.12894" lon="2.25761">
        <ele>311</ele>
        <time>2022-09-11T08:33:19.466Z</time>
      </trkpt>
      <trkpt lat="44.12895" lon="2.25761">
        <ele>311</ele>
        <time>2022-09-11T08:33:20.466Z</time>
      </trkpt>
      <trkpt lat="44.12895" lon="2.25762">
        <ele>311</ele>
        <time>2022-09-11T08:33:21.466Z</time>
      </trkpt>
      <trkpt lat="44.12896" lon="2.25762">
        <ele>311</ele>
        <time>2022-09-11T08:33:22.466Z</time>
      </trkpt>
      <trkpt lat="44.12897" lon="2.25762">
        <ele>312</ele>
        <time>2022-09-11T08:33:23.466Z</time>
      </trkpt>
      <trkpt lat="44.12898" lon="2.25762">
        <ele>312</ele>
        <time>2022-09-11T08:33:24.466Z</time>
      </trkpt>
      <trkpt lat="44.12898" lon="2.25763">
        <ele>312</ele>
        <time>2022-09-11T08:33:25.466Z</time>
      </trkpt>
      <trkpt lat="44.12899" lon="2.25763">
        <ele>312</ele>
        <time>2022-09-11T08:33:26.466Z</time>
      </trkpt>
      <trkpt lat="44.12899" lon="2.25763">
        <ele>312</ele>
        <time>2022-09-11T08:33:27.466Z</time>
      </trkpt>
      <trkpt lat="44.129" lon="2.25763">
        <ele>312</ele>
        <time>2022-09-11T08:33:28.466Z</time>
      </trkpt>
      <trkpt lat="44.12901" lon="2.25763">
        <ele>312</ele>
        <time>2022-09-11T08:33:29.466Z</time>
      </trkpt>
      <trkpt lat="44.12902" lon="2.25764">
        <ele>312</ele>
        <time>2022-09-11T08:33:30.466Z</time>
      </trkpt>
      <trkpt lat="44.12902" lon="2.25764">
        <ele>312</ele>
        <time>2022-09-11T08:33:31.466Z</time>
      </trkpt>
      <trkpt lat="44.12903" lon="2.25764">
        <ele>312</ele>
        <time>2022-09-11T08:33:32.466Z</time>
      </trkpt>
      <trkpt lat="44.12904" lon="2.25765">
        <ele>312</ele>
        <time>2022-09-11T08:33:33.466Z</time>
      </trkpt>
      <trkpt lat="44.12905" lon="2.25765">
        <ele>312</ele>
        <time>2022-09-11T08:33:34.466Z</time>
      </trkpt>
      <trkpt lat="44.12905" lon="2.25766">
        <ele>312</ele>
        <time>2022-09-11T08:33:35.466Z</time>
      </trkpt>
      <trkpt lat="44.12906" lon="2.25766">
        <ele>312</ele>
        <time>2022-09-11T08:33:36.466Z</time>
      </trkpt>
      <trkpt lat="44.12907" lon="2.25766">
        <ele>312</ele>
        <time>2022-09-11T08:33:37.466Z</time>
      </trkpt>
      <trkpt lat="44.12907" lon="2.25766">
        <ele>312</ele>
        <time>2022-09-11T08:33:38.466Z</time>
      </trkpt>
      <trkpt lat="44.12908" lon="2.25767">
        <ele>312</ele>
        <time>2022-09-11T08:33:39.466Z</time>
      </trkpt>
      <trkpt lat="44.12909" lon="2.25767">
        <ele>312</ele>
        <time>2022-09-11T08:33:40.466Z</time>
      </trkpt>
      <trkpt lat="44.1291" lon="2.25767">
        <ele>312</ele>
        <time>2022-09-11T08:33:41.466Z</time>
      </trkpt>
      <trkpt lat="44.1291" lon="2.25767">
        <ele>312</ele>
        <time>2022-09-11T08:33:42.466Z</time>
      </trkpt>
      <trkpt lat="44.12911" lon="2.25767">
        <ele>312</ele>
        <time>2022-09-11T08:33:43.466Z</time>
      </trkpt>
      <trkpt lat="44.12912" lon="2.25767">
        <ele>312</ele>
        <time>2022-09-11T08:33:44.466Z</time>
      </trkpt>
      <trkpt lat="44.12912" lon="2.25767">
        <ele>312</ele>
        <time>2022-09-11T08:33:45.466Z</time>
      </trkpt>
      <trkpt lat="44.12913" lon="2.25767">
        <ele>312</ele>
        <time>2022-09-11T08:33:46.466Z</time>
      </trkpt>
      <trkpt lat="44.12914" lon="2.25768">
        <ele>312</ele>
        <time>2022-09-11T08:33:47.466Z</time>
      </trkpt>
      <trkpt lat="44.12915" lon="2.25768">
        <ele>312</ele>
        <time>2022-09-11T08:33:48.466Z</time>
      </trkpt>
      <trkpt lat="44.12916" lon="2.25769">
        <ele>312</ele>
        <time>2022-09-11T08:33:49.466Z</time>
      </trkpt>
      <trkpt lat="44.12916" lon="2.2577">
        <ele>312</ele>
        <time>2022-09-11T08:33:50.466Z</time>
      </trkpt>
      <trkpt lat="44.12917" lon="2.25771">
        <ele>312</ele>
        <time>2022-09-11T08:33:51.466Z</time>
      </trkpt>
      <trkpt lat="44.12917" lon="2.25771">
        <ele>312</ele>
        <time>2022-09-11T08:33:52.466Z</time>
      </trkpt>
      <trkpt lat="44.12918" lon="2.25772">
        <ele>312</ele>
        <time>2022-09-11T08:33:53.466Z</time>
      </trkpt>
      <trkpt lat="44.12918" lon="2.25772">
        <ele>312</ele>
        <time>2022-09-11T08:33:54.466Z</time>
      </trkpt>
      <trkpt lat="44.12919" lon="2.25773">
        <ele>312</ele>
        <time>2022-09-11T08:33:55.466Z</time>
      </trkpt>
      <trkpt lat="44.12919" lon="2.25773">
        <ele>312</ele>
        <time>2022-09-11T08:33:56.466Z</time>
      </trkpt>
      <trkpt lat="44.1292" lon="2.25774">
        <ele>312</ele>
        <time>2022-09-11T08:33:57.466Z</time>
      </trkpt>
      <trkpt lat="44.12921" lon="2.25774">
        <ele>312</ele>
        <time>2022-09-11T08:33:58.466Z</time>
      </trkpt>
      <trkpt lat="44.12922" lon="2.25775">
        <ele>313</ele>
        <time>2022-09-11T08:33:59.466Z</time>
      </trkpt>
      <trkpt lat="44.12922" lon="2.25776">
        <ele>313</ele>
        <time>2022-09-11T08:34:00.466Z</time>
      </trkpt>
      <trkpt lat="44.12923" lon="2.25776">
        <ele>313</ele>
        <time>2022-09-11T08:34:01.466Z</time>
      </trkpt>
      <trkpt lat="44.12923" lon="2.25777">
        <ele>313</ele>
        <time>2022-09-11T08:34:02.466Z</time>
      </trkpt>
      <trkpt lat="44.12923" lon="2.25778">
        <ele>313</ele>
        <time>2022-09-11T08:34:03.466Z</time>
      </trkpt>
      <trkpt lat="44.12924" lon="2.25778">
        <ele>313</ele>
        <time>2022-09-11T08:34:04.466Z</time>
      </trkpt>
      <trkpt lat="44.12924" lon="2.25779">
        <ele>313</ele>
        <time>2022-09-11T08:34:05.466Z</time>
      </trkpt>
      <trkpt lat="44.12924" lon="2.25779">
        <ele>313</ele>
        <time>2022-09-11T08:34:06.466Z</time>
      </trkpt>
      <trkpt lat="44.12924" lon="2.2578">
        <ele>313</ele>
        <time>2022-09-11T08:34:07.466Z</time>
      </trkpt>
      <trkpt lat="44.12925" lon="2.2578">
        <ele>313</ele>
        <time>2022-09-11T08:34:08.466Z</time>
      </trkpt>
      <trkpt lat="44.12925" lon="2.25781">
        <ele>313</ele>
        <time>2022-09-11T08:34:09.466Z</time>
      </trkpt>
      <trkpt lat="44.12925" lon="2.25781">
        <ele>313</ele>
        <time>2022-09-11T08:34:10.466Z</time>
      </trkpt>
      <trkpt lat="44.12926" lon="2.25782">
        <ele>314</ele>
        <time>2022-09-11T08:34:11.466Z</time>
      </trkpt>
      <trkpt lat="44.12926" lon="2.25783">
        <ele>314</ele>
        <time>2022-09-11T08:34:12.466Z</time>
      </trkpt>
      <trkpt lat="44.12926" lon="2.25783">
        <ele>314</ele>
        <time>2022-09-11T08:34:13.466Z</time>
      </trkpt>
      <trkpt lat="44.12927" lon="2.25784">
        <ele>314</ele>
        <time>2022-09-11T08:34:14.466Z</time>
      </trkpt>
      <trkpt lat="44.12927" lon="2.25785">
        <ele>314</ele>
        <time>2022-09-11T08:34:15.466Z</time>
      </trkpt>
      <trkpt lat="44.12928" lon="2.25786">
        <ele>314</ele>
        <time>2022-09-11T08:34:16.466Z</time>
      </trkpt>
      <trkpt lat="44.12928" lon="2.25787">
        <ele>314</ele>
        <time>2022-09-11T08:34:17.466Z</time>
      </trkpt>
      <trkpt lat="44.12929" lon="2.25788">
        <ele>314</ele>
        <time>2022-09-11T08:34:18.466Z</time>
      </trkpt>
      <trkpt lat="44.12929" lon="2.25789">
        <ele>314</ele>
        <time>2022-09-11T08:34:19.466Z</time>
      </trkpt>
      <trkpt lat="44.12929" lon="2.2579">
        <ele>314</ele>
        <time>2022-09-11T08:34:20.466Z</time>
      </trkpt>
      <trkpt lat="44.1293" lon="2.2579">
        <ele>314</ele>
        <time>2022-09-11T08:34:21.466Z</time>
      </trkpt>
      <trkpt lat="44.1293" lon="2.25791">
        <ele>314</ele>
        <time>2022-09-11T08:34:22.466Z</time>
      </trkpt>
      <trkpt lat="44.12931" lon="2.25792">
        <ele>314</ele>
        <time>2022-09-11T08:34:23.466Z</time>
      </trkpt>
      <trkpt lat="44.12931" lon="2.25792">
        <ele>314</ele>
        <time>2022-09-11T08:34:24.466Z</time>
      </trkpt>
      <trkpt lat="44.12931" lon="2.25793">
        <ele>314</ele>
        <time>2022-09-11T08:34:25.466Z</time>
      </trkpt>
      <trkpt lat="44.12932" lon="2.25794">
        <ele>314</ele>
        <time>2022-09-11T08:34:26.466Z</time>
      </trkpt>
      <trkpt lat="44.12933" lon="2.25794">
        <ele>314</ele>
        <time>2022-09-11T08:34:27.466Z</time>
      </trkpt>
      <trkpt lat="44.12933" lon="2.25795">
        <ele>314</ele>
        <time>2022-09-11T08:34:28.466Z</time>
      </trkpt>
      <trkpt lat="44.12933" lon="2.25796">
        <ele>314</ele>
        <time>2022-09-11T08:34:29.466Z</time>
      </trkpt>
      <trkpt lat="44.12934" lon="2.25796">
        <ele>314</ele>
        <time>2022-09-11T08:34:30.466Z</time>
      </trkpt>
      <trkpt lat="44.12934" lon="2.25797">
        <ele>314</ele>
        <time>2022-09-11T08:34:31.466Z</time>
      </trkpt>
      <trkpt lat="44.12934" lon="2.25798">
        <ele>314</ele>
        <time>2022-09-11T08:34:32.466Z</time>
      </trkpt>
      <trkpt lat="44.12934" lon="2.25799">
        <ele>314</ele>
        <time>2022-09-11T08:34:33.466Z</time>
      </trkpt>
      <trkpt lat="44.12934" lon="2.258">
        <ele>314</ele>
        <time>2022-09-11T08:34:34.466Z</time>
      </trkpt>
      <trkpt lat="44.12935" lon="2.258">
        <ele>314</ele>
        <time>2022-09-11T08:34:35.466Z</time>
      </trkpt>
      <trkpt lat="44.12935" lon="2.25801">
        <ele>314</ele>
        <time>2022-09-11T08:34:36.466Z</time>
      </trkpt>
      <trkpt lat="44.12936" lon="2.25802">
        <ele>314</ele>
        <time>2022-09-11T08:34:37.466Z</time>
      </trkpt>
      <trkpt lat="44.12936" lon="2.25802">
        <ele>314</ele>
        <time>2022-09-11T08:34:38.466Z</time>
      </trkpt>
      <trkpt lat="44.12937" lon="2.25802">
        <ele>315</ele>
        <time>2022-09-11T08:34:39.466Z</time>
      </trkpt>
      <trkpt lat="44.12937" lon="2.25803">
        <ele>315</ele>
        <time>2022-09-11T08:34:40.466Z</time>
      </trkpt>
      <trkpt lat="44.12938" lon="2.25804">
        <ele>315</ele>
        <time>2022-09-11T08:34:41.466Z</time>
      </trkpt>
      <trkpt lat="44.12939" lon="2.25804">
        <ele>315</ele>
        <time>2022-09-11T08:34:42.466Z</time>
      </trkpt>
      <trkpt lat="44.12939" lon="2.25804">
        <ele>315</ele>
        <time>2022-09-11T08:34:43.466Z</time>
      </trkpt>
      <trkpt lat="44.1294" lon="2.25805">
        <ele>315</ele>
        <time>2022-09-11T08:34:44.466Z</time>
      </trkpt>
      <trkpt lat="44.1294" lon="2.25805">
        <ele>315</ele>
        <time>2022-09-11T08:34:45.466Z</time>
      </trkpt>
      <trkpt lat="44.12941" lon="2.25805">
        <ele>315</ele>
        <time>2022-09-11T08:34:46.466Z</time>
      </trkpt>
      <trkpt lat="44.12942" lon="2.25805">
        <ele>315</ele>
        <time>2022-09-11T08:34:47.466Z</time>
      </trkpt>
      <trkpt lat="44.12943" lon="2.25805">
        <ele>315</ele>
        <time>2022-09-11T08:34:48.466Z</time>
      </trkpt>
      <trkpt lat="44.12944" lon="2.25806">
        <ele>315</ele>
        <time>2022-09-11T08:34:49.466Z</time>
      </trkpt>
      <trkpt lat="44.12945" lon="2.25806">
        <ele>315</ele>
        <time>2022-09-11T08:34:50.466Z</time>
      </trkpt>
      <trkpt lat="44.12945" lon="2.25807">
        <ele>315</ele>
        <time>2022-09-11T08:34:51.466Z</time>
      </trkpt>
      <trkpt lat="44.12946" lon="2.25807">
        <ele>315</ele>
        <time>2022-09-11T08:34:52.466Z</time>
      </trkpt>
      <trkpt lat="44.12947" lon="2.25808">
        <ele>315</ele>
        <time>2022-09-11T08:34:53.466Z</time>
      </trkpt>
      <trkpt lat="44.12947" lon="2.25808">
        <ele>315</ele>
        <time>2022-09-11T08:34:54.466Z</time>
      </trkpt>
      <trkpt lat="44.12948" lon="2.25809">
        <ele>315</ele>
        <time>2022-09-11T08:34:55.466Z</time>
      </trkpt>
      <trkpt lat="44.12948" lon="2.2581">
        <ele>315</ele>
        <time>2022-09-11T08:34:56.466Z</time>
      </trkpt>
      <trkpt lat="44.12948" lon="2.25811">
        <ele>315</ele>
        <time>2022-09-11T08:34:57.466Z</time>
      </trkpt>
      <trkpt lat="44.12948" lon="2.25812">
        <ele>315</ele>
        <time>2022-09-11T08:34:58.466Z</time>
      </trkpt>
      <trkpt lat="44.12949" lon="2.25813">
        <ele>315</ele>
        <time>2022-09-11T08:34:59.466Z</time>
      </trkpt>
      <trkpt lat="44.12949" lon="2.25813">
        <ele>315</ele>
        <time>2022-09-11T08:35:00.466Z</time>
      </trkpt>
      <trkpt lat="44.12949" lon="2.25814">
        <ele>315</ele>
        <time>2022-09-11T08:35:01.466Z</time>
      </trkpt>
      <trkpt lat="44.12949" lon="2.25814">
        <ele>315</ele>
        <time>2022-09-11T08:35:02.466Z</time>
      </trkpt>
      <trkpt lat="44.12949" lon="2.25815">
        <ele>315</ele>
        <time>2022-09-11T08:35:03.466Z</time>
      </trkpt>
      <trkpt lat="44.12949" lon="2.25816">
        <ele>315</ele>
        <time>2022-09-11T08:35:04.466Z</time>
      </trkpt>
      <trkpt lat="44.1295" lon="2.25817">
        <ele>315</ele>
        <time>2022-09-11T08:35:05.466Z</time>
      </trkpt>
      <trkpt lat="44.1295" lon="2.25817">
        <ele>315</ele>
        <time>2022-09-11T08:35:06.466Z</time>
      </trkpt>
      <trkpt lat="44.1295" lon="2.25819">
        <ele>316</ele>
        <time>2022-09-11T08:35:07.466Z</time>
      </trkpt>
      <trkpt lat="44.1295" lon="2.2582">
        <ele>316</ele>
        <time>2022-09-11T08:35:08.466Z</time>
      </trkpt>
      <trkpt lat="44.12951" lon="2.25821">
        <ele>316</ele>
        <time>2022-09-11T08:35:09.466Z</time>
      </trkpt>
      <trkpt lat="44.12951" lon="2.25822">
        <ele>316</ele>
        <time>2022-09-11T08:35:10.466Z</time>
      </trkpt>
      <trkpt lat="44.12951" lon="2.25823">
        <ele>316</ele>
        <time>2022-09-11T08:35:11.466Z</time>
      </trkpt>
      <trkpt lat="44.12952" lon="2.25824">
        <ele>316</ele>
        <time>2022-09-11T08:35:12.466Z</time>
      </trkpt>
      <trkpt lat="44.12952" lon="2.25825">
        <ele>316</ele>
        <time>2022-09-11T08:35:13.466Z</time>
      </trkpt>
      <trkpt lat="44.12952" lon="2.25826">
        <ele>316</ele>
        <time>2022-09-11T08:35:14.466Z</time>
      </trkpt>
      <trkpt lat="44.12952" lon="2.25827">
        <ele>316</ele>
        <time>2022-09-11T08:35:15.466Z</time>
      </trkpt>
      <trkpt lat="44.12953" lon="2.25828">
        <ele>316</ele>
        <time>2022-09-11T08:35:16.466Z</time>
      </trkpt>
      <trkpt lat="44.12953" lon="2.25829">
        <ele>317</ele>
        <time>2022-09-11T08:35:17.466Z</time>
      </trkpt>
      <trkpt lat="44.12954" lon="2.2583">
        <ele>317</ele>
        <time>2022-09-11T08:35:18.466Z</time>
      </trkpt>
      <trkpt lat="44.12954" lon="2.25831">
        <ele>317</ele>
        <time>2022-09-11T08:35:19.466Z</time>
      </trkpt>
      <trkpt lat="44.12954" lon="2.25832">
        <ele>317</ele>
        <time>2022-09-11T08:35:20.466Z</time>
      </trkpt>
      <trkpt lat="44.12955" lon="2.25833">
        <ele>317</ele>
        <time>2022-09-11T08:35:21.466Z</time>
      </trkpt>
      <trkpt lat="44.12955" lon="2.25834">
        <ele>318</ele>
        <time>2022-09-11T08:35:22.466Z</time>
      </trkpt>
      <trkpt lat="44.12955" lon="2.25835">
        <ele>318</ele>
        <time>2022-09-11T08:35:23.466Z</time>
      </trkpt>
      <trkpt lat="44.12954" lon="2.25836">
        <ele>318</ele>
        <time>2022-09-11T08:35:24.466Z</time>
      </trkpt>
      <trkpt lat="44.12955" lon="2.25837">
        <ele>318</ele>
        <time>2022-09-11T08:35:25.466Z</time>
      </trkpt>
      <trkpt lat="44.12955" lon="2.25838">
        <ele>319</ele>
        <time>2022-09-11T08:35:26.466Z</time>
      </trkpt>
      <trkpt lat="44.12955" lon="2.25839">
        <ele>319</ele>
        <time>2022-09-11T08:35:27.466Z</time>
      </trkpt>
      <trkpt lat="44.12955" lon="2.2584">
        <ele>319</ele>
        <time>2022-09-11T08:35:28.466Z</time>
      </trkpt>
      <trkpt lat="44.12956" lon="2.25841">
        <ele>319</ele>
        <time>2022-09-11T08:35:29.466Z</time>
      </trkpt>
      <trkpt lat="44.12956" lon="2.25842">
        <ele>319</ele>
        <time>2022-09-11T08:35:30.466Z</time>
      </trkpt>
      <trkpt lat="44.12956" lon="2.25843">
        <ele>320</ele>
        <time>2022-09-11T08:35:31.466Z</time>
      </trkpt>
      <trkpt lat="44.12956" lon="2.25844">
        <ele>320</ele>
        <time>2022-09-11T08:35:32.466Z</time>
      </trkpt>
      <trkpt lat="44.12956" lon="2.25845">
        <ele>320</ele>
        <time>2022-09-11T08:35:33.466Z</time>
      </trkpt>
      <trkpt lat="44.12956" lon="2.25845">
        <ele>320</ele>
        <time>2022-09-11T08:35:34.466Z</time>
      </trkpt>
      <trkpt lat="44.12956" lon="2.25846">
        <ele>320</ele>
        <time>2022-09-11T08:35:35.466Z</time>
      </trkpt>
      <trkpt lat="44.12956" lon="2.25847">
        <ele>320</ele>
        <time>2022-09-11T08:35:36.466Z</time>
      </trkpt>
      <trkpt lat="44.12956" lon="2.25847">
        <ele>320</ele>
        <time>2022-09-11T08:35:37.466Z</time>
      </trkpt>
      <trkpt lat="44.12956" lon="2.25848">
        <ele>320</ele>
        <time>2022-09-11T08:35:38.466Z</time>
      </trkpt>
      <trkpt lat="44.12956" lon="2.25849">
        <ele>320</ele>
        <time>2022-09-11T08:35:39.466Z</time>
      </trkpt>
      <trkpt lat="44.12957" lon="2.2585">
        <ele>320</ele>
        <time>2022-09-11T08:35:40.466Z</time>
      </trkpt>
      <trkpt lat="44.12957" lon="2.25851">
        <ele>320</ele>
        <time>2022-09-11T08:35:41.466Z</time>
      </trkpt>
      <trkpt lat="44.12957" lon="2.25852">
        <ele>320</ele>
        <time>2022-09-11T08:35:42.466Z</time>
      </trkpt>
      <trkpt lat="44.12957" lon="2.25853">
        <ele>320</ele>
        <time>2022-09-11T08:35:43.466Z</time>
      </trkpt>
      <trkpt lat="44.12957" lon="2.25854">
        <ele>320</ele>
        <time>2022-09-11T08:35:44.466Z</time>
      </trkpt>
      <trkpt lat="44.12957" lon="2.25855">
        <ele>320</ele>
        <time>2022-09-11T08:35:45.466Z</time>
      </trkpt>
      <trkpt lat="44.12958" lon="2.25856">
        <ele>321</ele>
        <time>2022-09-11T08:35:46.466Z</time>
      </trkpt>
      <trkpt lat="44.12958" lon="2.25857">
        <ele>321</ele>
        <time>2022-09-11T08:35:47.466Z</time>
      </trkpt>
      <trkpt lat="44.12958" lon="2.25858">
        <ele>321</ele>
        <time>2022-09-11T08:35:48.466Z</time>
      </trkpt>
      <trkpt lat="44.12958" lon="2.25859">
        <ele>321</ele>
        <time>2022-09-11T08:35:49.466Z</time>
      </trkpt>
      <trkpt lat="44.12958" lon="2.2586">
        <ele>321</ele>
        <time>2022-09-11T08:35:50.466Z</time>
      </trkpt>
      <trkpt lat="44.12958" lon="2.25861">
        <ele>321</ele>
        <time>2022-09-11T08:35:51.466Z</time>
      </trkpt>
      <trkpt lat="44.12958" lon="2.25862">
        <ele>321</ele>
        <time>2022-09-11T08:35:52.466Z</time>
      </trkpt>
      <trkpt lat="44.12958" lon="2.25863">
        <ele>321</ele>
        <time>2022-09-11T08:35:53.466Z</time>
      </trkpt>
      <trkpt lat="44.12958" lon="2.25864">
        <ele>322</ele>
        <time>2022-09-11T08:35:54.466Z</time>
      </trkpt>
      <trkpt lat="44.12959" lon="2.25865">
        <ele>322</ele>
        <time>2022-09-11T08:35:55.466Z</time>
      </trkpt>
      <trkpt lat="44.12959" lon="2.25866">
        <ele>322</ele>
        <time>2022-09-11T08:35:56.466Z</time>
      </trkpt>
      <trkpt lat="44.12959" lon="2.25867">
        <ele>322</ele>
        <time>2022-09-11T08:35:57.466Z</time>
      </trkpt>
      <trkpt lat="44.12959" lon="2.25868">
        <ele>322</ele>
        <time>2022-09-11T08:35:58.466Z</time>
      </trkpt>
      <trkpt lat="44.12959" lon="2.25868">
        <ele>322</ele>
        <time>2022-09-11T08:35:59.466Z</time>
      </trkpt>
      <trkpt lat="44.12959" lon="2.25869">
        <ele>322</ele>
        <time>2022-09-11T08:36:00.466Z</time>
      </trkpt>
      <trkpt lat="44.12959" lon="2.2587">
        <ele>322</ele>
        <time>2022-09-11T08:36:01.466Z</time>
      </trkpt>
      <trkpt lat="44.12959" lon="2.25871">
        <ele>322</ele>
        <time>2022-09-11T08:36:02.466Z</time>
      </trkpt>
      <trkpt lat="44.12959" lon="2.25871">
        <ele>323</ele>
        <time>2022-09-11T08:36:03.466Z</time>
      </trkpt>
      <trkpt lat="44.12959" lon="2.25872">
        <ele>323</ele>
        <time>2022-09-11T08:36:04.466Z</time>
      </trkpt>
      <trkpt lat="44.12959" lon="2.25873">
        <ele>323</ele>
        <time>2022-09-11T08:36:05.466Z</time>
      </trkpt>
      <trkpt lat="44.12959" lon="2.25874">
        <ele>323</ele>
        <time>2022-09-11T08:36:06.466Z</time>
      </trkpt>
      <trkpt lat="44.12959" lon="2.25875">
        <ele>323</ele>
        <time>2022-09-11T08:36:07.466Z</time>
      </trkpt>
      <trkpt lat="44.12959" lon="2.25876">
        <ele>323</ele>
        <time>2022-09-11T08:36:08.466Z</time>
      </trkpt>
      <trkpt lat="44.12959" lon="2.25877">
        <ele>323</ele>
        <time>2022-09-11T08:36:09.466Z</time>
      </trkpt>
      <trkpt lat="44.12959" lon="2.25878">
        <ele>323</ele>
        <time>2022-09-11T08:36:10.466Z</time>
      </trkpt>
      <trkpt lat="44.12959" lon="2.25879">
        <ele>323</ele>
        <time>2022-09-11T08:36:11.466Z</time>
      </trkpt>
      <trkpt lat="44.12959" lon="2.2588">
        <ele>324</ele>
        <time>2022-09-11T08:36:12.466Z</time>
      </trkpt>
      <trkpt lat="44.12959" lon="2.25881">
        <ele>324</ele>
        <time>2022-09-11T08:36:13.466Z</time>
      </trkpt>
      <trkpt lat="44.12959" lon="2.25882">
        <ele>324</ele>
        <time>2022-09-11T08:36:14.466Z</time>
      </trkpt>
      <trkpt lat="44.12959" lon="2.25882">
        <ele>324</ele>
        <time>2022-09-11T08:36:15.466Z</time>
      </trkpt>
      <trkpt lat="44.12959" lon="2.25883">
        <ele>324</ele>
        <time>2022-09-11T08:36:16.466Z</time>
      </trkpt>
      <trkpt lat="44.12959" lon="2.25884">
        <ele>324</ele>
        <time>2022-09-11T08:36:17.466Z</time>
      </trkpt>
      <trkpt lat="44.12959" lon="2.25885">
        <ele>324</ele>
        <time>2022-09-11T08:36:18.466Z</time>
      </trkpt>
      <trkpt lat="44.12959" lon="2.25886">
        <ele>324</ele>
        <time>2022-09-11T08:36:19.466Z</time>
      </trkpt>
      <trkpt lat="44.12959" lon="2.25887">
        <ele>325</ele>
        <time>2022-09-11T08:36:20.466Z</time>
      </trkpt>
      <trkpt lat="44.12959" lon="2.25888">
        <ele>325</ele>
        <time>2022-09-11T08:36:21.466Z</time>
      </trkpt>
      <trkpt lat="44.12959" lon="2.25888">
        <ele>325</ele>
        <time>2022-09-11T08:36:22.466Z</time>
      </trkpt>
      <trkpt lat="44.12959" lon="2.25889">
        <ele>325</ele>
        <time>2022-09-11T08:36:23.466Z</time>
      </trkpt>
      <trkpt lat="44.12959" lon="2.2589">
        <ele>325</ele>
        <time>2022-09-11T08:36:24.466Z</time>
      </trkpt>
      <trkpt lat="44.12959" lon="2.25891">
        <ele>325</ele>
        <time>2022-09-11T08:36:25.466Z</time>
      </trkpt>
      <trkpt lat="44.1296" lon="2.25892">
        <ele>326</ele>
        <time>2022-09-11T08:36:26.466Z</time>
      </trkpt>
      <trkpt lat="44.1296" lon="2.25893">
        <ele>326</ele>
        <time>2022-09-11T08:36:27.466Z</time>
      </trkpt>
      <trkpt lat="44.1296" lon="2.25894">
        <ele>326</ele>
        <time>2022-09-11T08:36:28.466Z</time>
      </trkpt>
      <trkpt lat="44.1296" lon="2.25895">
        <ele>326</ele>
        <time>2022-09-11T08:36:29.466Z</time>
      </trkpt>
      <trkpt lat="44.1296" lon="2.25896">
        <ele>326</ele>
        <time>2022-09-11T08:36:30.466Z</time>
      </trkpt>
      <trkpt lat="44.12961" lon="2.25898">
        <ele>326</ele>
        <time>2022-09-11T08:36:31.466Z</time>
      </trkpt>
      <trkpt lat="44.12961" lon="2.25899">
        <ele>326</ele>
        <time>2022-09-11T08:36:32.466Z</time>
      </trkpt>
      <trkpt lat="44.12961" lon="2.259">
        <ele>326</ele>
        <time>2022-09-11T08:36:33.466Z</time>
      </trkpt>
      <trkpt lat="44.12961" lon="2.25901">
        <ele>326</ele>
        <time>2022-09-11T08:36:34.466Z</time>
      </trkpt>
      <trkpt lat="44.12961" lon="2.25902">
        <ele>327</ele>
        <time>2022-09-11T08:36:35.466Z</time>
      </trkpt>
      <trkpt lat="44.12961" lon="2.25903">
        <ele>327</ele>
        <time>2022-09-11T08:36:36.466Z</time>
      </trkpt>
      <trkpt lat="44.12961" lon="2.25904">
        <ele>327</ele>
        <time>2022-09-11T08:36:37.466Z</time>
      </trkpt>
      <trkpt lat="44.12961" lon="2.25905">
        <ele>327</ele>
        <time>2022-09-11T08:36:38.466Z</time>
      </trkpt>
      <trkpt lat="44.12961" lon="2.25906">
        <ele>327</ele>
        <time>2022-09-11T08:36:39.466Z</time>
      </trkpt>
      <trkpt lat="44.1296" lon="2.25907">
        <ele>327</ele>
        <time>2022-09-11T08:36:40.466Z</time>
      </trkpt>
      <trkpt lat="44.12961" lon="2.25908">
        <ele>328</ele>
        <time>2022-09-11T08:36:41.466Z</time>
      </trkpt>
      <trkpt lat="44.12961" lon="2.25909">
        <ele>328</ele>
        <time>2022-09-11T08:36:42.466Z</time>
      </trkpt>
      <trkpt lat="44.12961" lon="2.2591">
        <ele>328</ele>
        <time>2022-09-11T08:36:43.466Z</time>
      </trkpt>
      <trkpt lat="44.12961" lon="2.25911">
        <ele>328</ele>
        <time>2022-09-11T08:36:44.466Z</time>
      </trkpt>
      <trkpt lat="44.12962" lon="2.25912">
        <ele>328</ele>
        <time>2022-09-11T08:36:45.466Z</time>
      </trkpt>
      <trkpt lat="44.12962" lon="2.25913">
        <ele>328</ele>
        <time>2022-09-11T08:36:46.466Z</time>
      </trkpt>
      <trkpt lat="44.12962" lon="2.25914">
        <ele>328</ele>
        <time>2022-09-11T08:36:47.466Z</time>
      </trkpt>
      <trkpt lat="44.12962" lon="2.25915">
        <ele>328</ele>
        <time>2022-09-11T08:36:48.466Z</time>
      </trkpt>
      <trkpt lat="44.12963" lon="2.25916">
        <ele>329</ele>
        <time>2022-09-11T08:36:49.466Z</time>
      </trkpt>
      <trkpt lat="44.12963" lon="2.25917">
        <ele>329</ele>
        <time>2022-09-11T08:36:50.466Z</time>
      </trkpt>
      <trkpt lat="44.12963" lon="2.25918">
        <ele>329</ele>
        <time>2022-09-11T08:36:51.466Z</time>
      </trkpt>
      <trkpt lat="44.12963" lon="2.25919">
        <ele>329</ele>
        <time>2022-09-11T08:36:52.466Z</time>
      </trkpt>
      <trkpt lat="44.12963" lon="2.25919">
        <ele>329</ele>
        <time>2022-09-11T08:36:53.466Z</time>
      </trkpt>
      <trkpt lat="44.12963" lon="2.25919">
        <ele>329</ele>
        <time>2022-09-11T08:36:54.466Z</time>
      </trkpt>
      <trkpt lat="44.12963" lon="2.25922">
        <ele>330</ele>
        <time>2022-09-11T08:36:58.466Z</time>
      </trkpt>
      <trkpt lat="44.12963" lon="2.25923">
        <ele>330</ele>
        <time>2022-09-11T08:36:59.466Z</time>
      </trkpt>
      <trkpt lat="44.12962" lon="2.25923">
        <ele>330</ele>
        <time>2022-09-11T08:37:00.466Z</time>
      </trkpt>
      <trkpt lat="44.12962" lon="2.25924">
        <ele>330</ele>
        <time>2022-09-11T08:37:01.466Z</time>
      </trkpt>
      <trkpt lat="44.12962" lon="2.25925">
        <ele>331</ele>
        <time>2022-09-11T08:37:02.466Z</time>
      </trkpt>
      <trkpt lat="44.12962" lon="2.25925">
        <ele>331</ele>
        <time>2022-09-11T08:37:03.466Z</time>
      </trkpt>
      <trkpt lat="44.12961" lon="2.25926">
        <ele>331</ele>
        <time>2022-09-11T08:37:04.466Z</time>
      </trkpt>
      <trkpt lat="44.12961" lon="2.25927">
        <ele>331</ele>
        <time>2022-09-11T08:37:05.466Z</time>
      </trkpt>
      <trkpt lat="44.12961" lon="2.25928">
        <ele>331</ele>
        <time>2022-09-11T08:37:06.466Z</time>
      </trkpt>
      <trkpt lat="44.12961" lon="2.25929">
        <ele>331</ele>
        <time>2022-09-11T08:37:07.466Z</time>
      </trkpt>
      <trkpt lat="44.12961" lon="2.2593">
        <ele>331</ele>
        <time>2022-09-11T08:37:08.466Z</time>
      </trkpt>
      <trkpt lat="44.12961" lon="2.25931">
        <ele>331</ele>
        <time>2022-09-11T08:37:09.466Z</time>
      </trkpt>
      <trkpt lat="44.12961" lon="2.25932">
        <ele>331</ele>
        <time>2022-09-11T08:37:10.466Z</time>
      </trkpt>
      <trkpt lat="44.1296" lon="2.25933">
        <ele>331</ele>
        <time>2022-09-11T08:37:11.466Z</time>
      </trkpt>
      <trkpt lat="44.1296" lon="2.25934">
        <ele>331</ele>
        <time>2022-09-11T08:37:12.466Z</time>
      </trkpt>
      <trkpt lat="44.1296" lon="2.25935">
        <ele>331</ele>
        <time>2022-09-11T08:37:13.466Z</time>
      </trkpt>
      <trkpt lat="44.1296" lon="2.25936">
        <ele>331</ele>
        <time>2022-09-11T08:37:14.466Z</time>
      </trkpt>
      <trkpt lat="44.12961" lon="2.25937">
        <ele>332</ele>
        <time>2022-09-11T08:37:15.466Z</time>
      </trkpt>
      <trkpt lat="44.12961" lon="2.25938">
        <ele>332</ele>
        <time>2022-09-11T08:37:16.466Z</time>
      </trkpt>
      <trkpt lat="44.12961" lon="2.25939">
        <ele>332</ele>
        <time>2022-09-11T08:37:17.466Z</time>
      </trkpt>
      <trkpt lat="44.1296" lon="2.25941">
        <ele>332</ele>
        <time>2022-09-11T08:37:18.466Z</time>
      </trkpt>
      <trkpt lat="44.1296" lon="2.25942">
        <ele>332</ele>
        <time>2022-09-11T08:37:19.466Z</time>
      </trkpt>
      <trkpt lat="44.1296" lon="2.25942">
        <ele>332</ele>
        <time>2022-09-11T08:37:20.466Z</time>
      </trkpt>
      <trkpt lat="44.1296" lon="2.25943">
        <ele>332</ele>
        <time>2022-09-11T08:37:21.466Z</time>
      </trkpt>
      <trkpt lat="44.12959" lon="2.25944">
        <ele>332</ele>
        <time>2022-09-11T08:37:22.466Z</time>
      </trkpt>
      <trkpt lat="44.12959" lon="2.25946">
        <ele>333</ele>
        <time>2022-09-11T08:37:23.466Z</time>
      </trkpt>
      <trkpt lat="44.12959" lon="2.25947">
        <ele>333</ele>
        <time>2022-09-11T08:37:24.466Z</time>
      </trkpt>
      <trkpt lat="44.12959" lon="2.25948">
        <ele>333</ele>
        <time>2022-09-11T08:37:25.466Z</time>
      </trkpt>
      <trkpt lat="44.12959" lon="2.25949">
        <ele>333</ele>
        <time>2022-09-11T08:37:26.466Z</time>
      </trkpt>
      <trkpt lat="44.12959" lon="2.25951">
        <ele>333</ele>
        <time>2022-09-11T08:37:27.466Z</time>
      </trkpt>
      <trkpt lat="44.12958" lon="2.25952">
        <ele>334</ele>
        <time>2022-09-11T08:37:28.466Z</time>
      </trkpt>
      <trkpt lat="44.12958" lon="2.25953">
        <ele>334</ele>
        <time>2022-09-11T08:37:29.466Z</time>
      </trkpt>
      <trkpt lat="44.12958" lon="2.25954">
        <ele>334</ele>
        <time>2022-09-11T08:37:30.466Z</time>
      </trkpt>
      <trkpt lat="44.12958" lon="2.25955">
        <ele>334</ele>
        <time>2022-09-11T08:37:31.466Z</time>
      </trkpt>
      <trkpt lat="44.12958" lon="2.25956">
        <ele>334</ele>
        <time>2022-09-11T08:37:32.466Z</time>
      </trkpt>
      <trkpt lat="44.12958" lon="2.25957">
        <ele>335</ele>
        <time>2022-09-11T08:37:33.466Z</time>
      </trkpt>
      <trkpt lat="44.12958" lon="2.25958">
        <ele>335</ele>
        <time>2022-09-11T08:37:34.466Z</time>
      </trkpt>
      <trkpt lat="44.12958" lon="2.25959">
        <ele>335</ele>
        <time>2022-09-11T08:37:35.466Z</time>
      </trkpt>
      <trkpt lat="44.12957" lon="2.2596">
        <ele>335</ele>
        <time>2022-09-11T08:37:36.466Z</time>
      </trkpt>
      <trkpt lat="44.12957" lon="2.25961">
        <ele>335</ele>
        <time>2022-09-11T08:37:37.466Z</time>
      </trkpt>
      <trkpt lat="44.12957" lon="2.25962">
        <ele>336</ele>
        <time>2022-09-11T08:37:38.466Z</time>
      </trkpt>
      <trkpt lat="44.12957" lon="2.25963">
        <ele>336</ele>
        <time>2022-09-11T08:37:39.466Z</time>
      </trkpt>
      <trkpt lat="44.12957" lon="2.25964">
        <ele>336</ele>
        <time>2022-09-11T08:37:40.466Z</time>
      </trkpt>
      <trkpt lat="44.12957" lon="2.25965">
        <ele>336</ele>
        <time>2022-09-11T08:37:41.466Z</time>
      </trkpt>
      <trkpt lat="44.12956" lon="2.25966">
        <ele>336</ele>
        <time>2022-09-11T08:37:42.466Z</time>
      </trkpt>
      <trkpt lat="44.12956" lon="2.25967">
        <ele>336</ele>
        <time>2022-09-11T08:37:43.466Z</time>
      </trkpt>
      <trkpt lat="44.12956" lon="2.25968">
        <ele>336</ele>
        <time>2022-09-11T08:37:44.466Z</time>
      </trkpt>
      <trkpt lat="44.12956" lon="2.25969">
        <ele>337</ele>
        <time>2022-09-11T08:37:45.466Z</time>
      </trkpt>
      <trkpt lat="44.12956" lon="2.2597">
        <ele>337</ele>
        <time>2022-09-11T08:37:46.466Z</time>
      </trkpt>
      <trkpt lat="44.12956" lon="2.25971">
        <ele>337</ele>
        <time>2022-09-11T08:37:47.466Z</time>
      </trkpt>
      <trkpt lat="44.12956" lon="2.25972">
        <ele>337</ele>
        <time>2022-09-11T08:37:48.466Z</time>
      </trkpt>
      <trkpt lat="44.12956" lon="2.25973">
        <ele>337</ele>
        <time>2022-09-11T08:37:49.466Z</time>
      </trkpt>
      <trkpt lat="44.12956" lon="2.25974">
        <ele>337</ele>
        <time>2022-09-11T08:37:50.466Z</time>
      </trkpt>
      <trkpt lat="44.12956" lon="2.25975">
        <ele>337</ele>
        <time>2022-09-11T08:37:51.466Z</time>
      </trkpt>
      <trkpt lat="44.12956" lon="2.25976">
        <ele>337</ele>
        <time>2022-09-11T08:37:52.466Z</time>
      </trkpt>
      <trkpt lat="44.12955" lon="2.25977">
        <ele>338</ele>
        <time>2022-09-11T08:37:53.466Z</time>
      </trkpt>
      <trkpt lat="44.12955" lon="2.2598">
        <ele>338</ele>
        <time>2022-09-11T08:37:57.468Z</time>
      </trkpt>
      <trkpt lat="44.12955" lon="2.25981">
        <ele>339</ele>
        <time>2022-09-11T08:37:58.468Z</time>
      </trkpt>
      <trkpt lat="44.12955" lon="2.25982">
        <ele>339</ele>
        <time>2022-09-11T08:37:59.468Z</time>
      </trkpt>
      <trkpt lat="44.12955" lon="2.25983">
        <ele>339</ele>
        <time>2022-09-11T08:38:00.468Z</time>
      </trkpt>
      <trkpt lat="44.12955" lon="2.25984">
        <ele>339</ele>
        <time>2022-09-11T08:38:01.468Z</time>
      </trkpt>
      <trkpt lat="44.12954" lon="2.25985">
        <ele>339</ele>
        <time>2022-09-11T08:38:02.468Z</time>
      </trkpt>
      <trkpt lat="44.12954" lon="2.25986">
        <ele>339</ele>
        <time>2022-09-11T08:38:03.468Z</time>
      </trkpt>
      <trkpt lat="44.12953" lon="2.25986">
        <ele>340</ele>
        <time>2022-09-11T08:38:04.468Z</time>
      </trkpt>
      <trkpt lat="44.12953" lon="2.25987">
        <ele>340</ele>
        <time>2022-09-11T08:38:05.468Z</time>
      </trkpt>
      <trkpt lat="44.12952" lon="2.25987">
        <ele>340</ele>
        <time>2022-09-11T08:38:06.468Z</time>
      </trkpt>
      <trkpt lat="44.12952" lon="2.25988">
        <ele>340</ele>
        <time>2022-09-11T08:38:07.468Z</time>
      </trkpt>
      <trkpt lat="44.12951" lon="2.25988">
        <ele>340</ele>
        <time>2022-09-11T08:38:08.468Z</time>
      </trkpt>
      <trkpt lat="44.12951" lon="2.25988">
        <ele>341</ele>
        <time>2022-09-11T08:38:09.468Z</time>
      </trkpt>
      <trkpt lat="44.1295" lon="2.25988">
        <ele>341</ele>
        <time>2022-09-11T08:38:10.468Z</time>
      </trkpt>
      <trkpt lat="44.1295" lon="2.25988">
        <ele>341</ele>
        <time>2022-09-11T08:38:11.468Z</time>
      </trkpt>
      <trkpt lat="44.1295" lon="2.25987">
        <ele>341</ele>
        <time>2022-09-11T08:38:12.468Z</time>
      </trkpt>
      <trkpt lat="44.12949" lon="2.25987">
        <ele>341</ele>
        <time>2022-09-11T08:38:13.468Z</time>
      </trkpt>
      <trkpt lat="44.12949" lon="2.25985">
        <ele>341</ele>
        <time>2022-09-11T08:38:16.723Z</time>
      </trkpt>
      <trkpt lat="44.12949" lon="2.25985">
        <ele>341</ele>
        <time>2022-09-11T08:38:17.723Z</time>
      </trkpt>
      <trkpt lat="44.12949" lon="2.25984">
        <ele>341</ele>
        <time>2022-09-11T08:38:18.723Z</time>
      </trkpt>
      <trkpt lat="44.12948" lon="2.25983">
        <ele>341</ele>
        <time>2022-09-11T08:38:19.723Z</time>
      </trkpt>
      <trkpt lat="44.12948" lon="2.25983">
        <ele>341</ele>
        <time>2022-09-11T08:38:20.723Z</time>
      </trkpt>
      <trkpt lat="44.12948" lon="2.25982">
        <ele>342</ele>
        <time>2022-09-11T08:38:21.723Z</time>
      </trkpt>
      <trkpt lat="44.12948" lon="2.25981">
        <ele>342</ele>
        <time>2022-09-11T08:38:22.723Z</time>
      </trkpt>
      <trkpt lat="44.12948" lon="2.2598">
        <ele>342</ele>
        <time>2022-09-11T08:38:23.723Z</time>
      </trkpt>
      <trkpt lat="44.12948" lon="2.25979">
        <ele>342</ele>
        <time>2022-09-11T08:38:24.723Z</time>
      </trkpt>
      <trkpt lat="44.12947" lon="2.25978">
        <ele>342</ele>
        <time>2022-09-11T08:38:25.723Z</time>
      </trkpt>
      <trkpt lat="44.12947" lon="2.25977">
        <ele>342</ele>
        <time>2022-09-11T08:38:26.723Z</time>
      </trkpt>
      <trkpt lat="44.12947" lon="2.25977">
        <ele>342</ele>
        <time>2022-09-11T08:38:27.723Z</time>
      </trkpt>
      <trkpt lat="44.12946" lon="2.25976">
        <ele>342</ele>
        <time>2022-09-11T08:38:28.723Z</time>
      </trkpt>
      <trkpt lat="44.12946" lon="2.25975">
        <ele>342</ele>
        <time>2022-09-11T08:38:29.723Z</time>
      </trkpt>
      <trkpt lat="44.12946" lon="2.25974">
        <ele>342</ele>
        <time>2022-09-11T08:38:30.723Z</time>
      </trkpt>
      <trkpt lat="44.12945" lon="2.25973">
        <ele>342</ele>
        <time>2022-09-11T08:38:31.723Z</time>
      </trkpt>
      <trkpt lat="44.12945" lon="2.25972">
        <ele>342</ele>
        <time>2022-09-11T08:38:32.723Z</time>
      </trkpt>
      <trkpt lat="44.12945" lon="2.2597">
        <ele>342</ele>
        <time>2022-09-11T08:38:33.723Z</time>
      </trkpt>
      <trkpt lat="44.12944" lon="2.25969">
        <ele>343</ele>
        <time>2022-09-11T08:38:34.723Z</time>
      </trkpt>
      <trkpt lat="44.12944" lon="2.25968">
        <ele>343</ele>
        <time>2022-09-11T08:38:35.723Z</time>
      </trkpt>
      <trkpt lat="44.12944" lon="2.25967">
        <ele>343</ele>
        <time>2022-09-11T08:38:36.723Z</time>
      </trkpt>
      <trkpt lat="44.12944" lon="2.25966">
        <ele>343</ele>
        <time>2022-09-11T08:38:37.723Z</time>
      </trkpt>
      <trkpt lat="44.12943" lon="2.25964">
        <ele>343</ele>
        <time>2022-09-11T08:38:38.723Z</time>
      </trkpt>
      <trkpt lat="44.12943" lon="2.25963">
        <ele>343</ele>
        <time>2022-09-11T08:38:39.723Z</time>
      </trkpt>
      <trkpt lat="44.12942" lon="2.25962">
        <ele>343</ele>
        <time>2022-09-11T08:38:40.723Z</time>
      </trkpt>
      <trkpt lat="44.12942" lon="2.25961">
        <ele>343</ele>
        <time>2022-09-11T08:38:41.723Z</time>
      </trkpt>
      <trkpt lat="44.12942" lon="2.2596">
        <ele>343</ele>
        <time>2022-09-11T08:38:42.723Z</time>
      </trkpt>
      <trkpt lat="44.12941" lon="2.25959">
        <ele>343</ele>
        <time>2022-09-11T08:38:43.723Z</time>
      </trkpt>
      <trkpt lat="44.12941" lon="2.25958">
        <ele>343</ele>
        <time>2022-09-11T08:38:44.723Z</time>
      </trkpt>
      <trkpt lat="44.12941" lon="2.25956">
        <ele>343</ele>
        <time>2022-09-11T08:38:45.723Z</time>
      </trkpt>
      <trkpt lat="44.1294" lon="2.25955">
        <ele>343</ele>
        <time>2022-09-11T08:38:46.723Z</time>
      </trkpt>
      <trkpt lat="44.1294" lon="2.25954">
        <ele>344</ele>
        <time>2022-09-11T08:38:47.723Z</time>
      </trkpt>
      <trkpt lat="44.1294" lon="2.25953">
        <ele>344</ele>
        <time>2022-09-11T08:38:48.723Z</time>
      </trkpt>
      <trkpt lat="44.1294" lon="2.25952">
        <ele>344</ele>
        <time>2022-09-11T08:38:49.723Z</time>
      </trkpt>
      <trkpt lat="44.12939" lon="2.25951">
        <ele>344</ele>
        <time>2022-09-11T08:38:50.723Z</time>
      </trkpt>
      <trkpt lat="44.12939" lon="2.2595">
        <ele>344</ele>
        <time>2022-09-11T08:38:51.723Z</time>
      </trkpt>
      <trkpt lat="44.12939" lon="2.25949">
        <ele>344</ele>
        <time>2022-09-11T08:38:52.723Z</time>
      </trkpt>
      <trkpt lat="44.12938" lon="2.25948">
        <ele>345</ele>
        <time>2022-09-11T08:38:53.723Z</time>
      </trkpt>
      <trkpt lat="44.12938" lon="2.25947">
        <ele>345</ele>
        <time>2022-09-11T08:38:54.723Z</time>
      </trkpt>
      <trkpt lat="44.12937" lon="2.25946">
        <ele>345</ele>
        <time>2022-09-11T08:38:55.723Z</time>
      </trkpt>
      <trkpt lat="44.12937" lon="2.25945">
        <ele>345</ele>
        <time>2022-09-11T08:38:56.723Z</time>
      </trkpt>
      <trkpt lat="44.12937" lon="2.25944">
        <ele>345</ele>
        <time>2022-09-11T08:38:57.723Z</time>
      </trkpt>
      <trkpt lat="44.12936" lon="2.25943">
        <ele>345</ele>
        <time>2022-09-11T08:38:58.723Z</time>
      </trkpt>
      <trkpt lat="44.12936" lon="2.25941">
        <ele>345</ele>
        <time>2022-09-11T08:38:59.723Z</time>
      </trkpt>
      <trkpt lat="44.12936" lon="2.2594">
        <ele>345</ele>
        <time>2022-09-11T08:39:00.723Z</time>
      </trkpt>
      <trkpt lat="44.12935" lon="2.25939">
        <ele>345</ele>
        <time>2022-09-11T08:39:01.723Z</time>
      </trkpt>
      <trkpt lat="44.12935" lon="2.25938">
        <ele>345</ele>
        <time>2022-09-11T08:39:02.723Z</time>
      </trkpt>
      <trkpt lat="44.12934" lon="2.25937">
        <ele>345</ele>
        <time>2022-09-11T08:39:03.723Z</time>
      </trkpt>
      <trkpt lat="44.12934" lon="2.25936">
        <ele>346</ele>
        <time>2022-09-11T08:39:04.723Z</time>
      </trkpt>
      <trkpt lat="44.12933" lon="2.25934">
        <ele>346</ele>
        <time>2022-09-11T08:39:05.723Z</time>
      </trkpt>
      <trkpt lat="44.12933" lon="2.25933">
        <ele>346</ele>
        <time>2022-09-11T08:39:06.723Z</time>
      </trkpt>
      <trkpt lat="44.12932" lon="2.25932">
        <ele>346</ele>
        <time>2022-09-11T08:39:07.723Z</time>
      </trkpt>
      <trkpt lat="44.12932" lon="2.25931">
        <ele>346</ele>
        <time>2022-09-11T08:39:08.723Z</time>
      </trkpt>
      <trkpt lat="44.12931" lon="2.2593">
        <ele>346</ele>
        <time>2022-09-11T08:39:09.723Z</time>
      </trkpt>
      <trkpt lat="44.12931" lon="2.25928">
        <ele>346</ele>
        <time>2022-09-11T08:39:10.723Z</time>
      </trkpt>
      <trkpt lat="44.12931" lon="2.25927">
        <ele>346</ele>
        <time>2022-09-11T08:39:11.723Z</time>
      </trkpt>
      <trkpt lat="44.1293" lon="2.25926">
        <ele>346</ele>
        <time>2022-09-11T08:39:12.723Z</time>
      </trkpt>
      <trkpt lat="44.12929" lon="2.25926">
        <ele>346</ele>
        <time>2022-09-11T08:39:13.723Z</time>
      </trkpt>
      <trkpt lat="44.12929" lon="2.25925">
        <ele>347</ele>
        <time>2022-09-11T08:39:14.723Z</time>
      </trkpt>
      <trkpt lat="44.12928" lon="2.25924">
        <ele>347</ele>
        <time>2022-09-11T08:39:15.723Z</time>
      </trkpt>
      <trkpt lat="44.12928" lon="2.25923">
        <ele>347</ele>
        <time>2022-09-11T08:39:16.723Z</time>
      </trkpt>
      <trkpt lat="44.12927" lon="2.25922">
        <ele>347</ele>
        <time>2022-09-11T08:39:17.723Z</time>
      </trkpt>
      <trkpt lat="44.12926" lon="2.25921">
        <ele>347</ele>
        <time>2022-09-11T08:39:18.723Z</time>
      </trkpt>
      <trkpt lat="44.12926" lon="2.25921">
        <ele>347</ele>
        <time>2022-09-11T08:39:19.723Z</time>
      </trkpt>
      <trkpt lat="44.12925" lon="2.2592">
        <ele>348</ele>
        <time>2022-09-11T08:39:20.723Z</time>
      </trkpt>
      <trkpt lat="44.12925" lon="2.2592">
        <ele>348</ele>
        <time>2022-09-11T08:39:21.723Z</time>
      </trkpt>
      <trkpt lat="44.12924" lon="2.25919">
        <ele>348</ele>
        <time>2022-09-11T08:39:22.723Z</time>
      </trkpt>
      <trkpt lat="44.12924" lon="2.25918">
        <ele>348</ele>
        <time>2022-09-11T08:39:23.723Z</time>
      </trkpt>
      <trkpt lat="44.12924" lon="2.25917">
        <ele>348</ele>
        <time>2022-09-11T08:39:24.723Z</time>
      </trkpt>
      <trkpt lat="44.12923" lon="2.25917">
        <ele>348</ele>
        <time>2022-09-11T08:39:25.723Z</time>
      </trkpt>
      <trkpt lat="44.12922" lon="2.25916">
        <ele>349</ele>
        <time>2022-09-11T08:39:26.723Z</time>
      </trkpt>
      <trkpt lat="44.12922" lon="2.25915">
        <ele>349</ele>
        <time>2022-09-11T08:39:27.723Z</time>
      </trkpt>
      <trkpt lat="44.12921" lon="2.25914">
        <ele>349</ele>
        <time>2022-09-11T08:39:28.723Z</time>
      </trkpt>
      <trkpt lat="44.1292" lon="2.25914">
        <ele>349</ele>
        <time>2022-09-11T08:39:29.723Z</time>
      </trkpt>
      <trkpt lat="44.12919" lon="2.25913">
        <ele>349</ele>
        <time>2022-09-11T08:39:30.723Z</time>
      </trkpt>
      <trkpt lat="44.12919" lon="2.25912">
        <ele>349</ele>
        <time>2022-09-11T08:39:31.723Z</time>
      </trkpt>
      <trkpt lat="44.12918" lon="2.25911">
        <ele>349</ele>
        <time>2022-09-11T08:39:32.723Z</time>
      </trkpt>
      <trkpt lat="44.12917" lon="2.25911">
        <ele>349</ele>
        <time>2022-09-11T08:39:33.723Z</time>
      </trkpt>
      <trkpt lat="44.12916" lon="2.2591">
        <ele>349</ele>
        <time>2022-09-11T08:39:34.723Z</time>
      </trkpt>
      <trkpt lat="44.12915" lon="2.2591">
        <ele>349</ele>
        <time>2022-09-11T08:39:35.723Z</time>
      </trkpt>
      <trkpt lat="44.12915" lon="2.2591">
        <ele>349</ele>
        <time>2022-09-11T08:39:36.723Z</time>
      </trkpt>
      <trkpt lat="44.12914" lon="2.2591">
        <ele>349</ele>
        <time>2022-09-11T08:39:37.723Z</time>
      </trkpt>
      <trkpt lat="44.12913" lon="2.2591">
        <ele>349</ele>
        <time>2022-09-11T08:39:38.723Z</time>
      </trkpt>
      <trkpt lat="44.12912" lon="2.2591">
        <ele>349</ele>
        <time>2022-09-11T08:39:39.723Z</time>
      </trkpt>
      <trkpt lat="44.12911" lon="2.2591">
        <ele>349</ele>
        <time>2022-09-11T08:39:40.723Z</time>
      </trkpt>
      <trkpt lat="44.1291" lon="2.2591">
        <ele>349</ele>
        <time>2022-09-11T08:39:41.723Z</time>
      </trkpt>
      <trkpt lat="44.12909" lon="2.25909">
        <ele>349</ele>
        <time>2022-09-11T08:39:42.723Z</time>
      </trkpt>
      <trkpt lat="44.12908" lon="2.25908">
        <ele>349</ele>
        <time>2022-09-11T08:39:43.723Z</time>
      </trkpt>
      <trkpt lat="44.12907" lon="2.25908">
        <ele>349</ele>
        <time>2022-09-11T08:39:44.723Z</time>
      </trkpt>
      <trkpt lat="44.12906" lon="2.25907">
        <ele>349</ele>
        <time>2022-09-11T08:39:45.723Z</time>
      </trkpt>
      <trkpt lat="44.12906" lon="2.25907">
        <ele>349</ele>
        <time>2022-09-11T08:39:46.723Z</time>
      </trkpt>
      <trkpt lat="44.12905" lon="2.25906">
        <ele>349</ele>
        <time>2022-09-11T08:39:47.723Z</time>
      </trkpt>
      <trkpt lat="44.12904" lon="2.25906">
        <ele>350</ele>
        <time>2022-09-11T08:39:48.723Z</time>
      </trkpt>
      <trkpt lat="44.12903" lon="2.25905">
        <ele>350</ele>
        <time>2022-09-11T08:39:49.723Z</time>
      </trkpt>
      <trkpt lat="44.12902" lon="2.25905">
        <ele>350</ele>
        <time>2022-09-11T08:39:50.723Z</time>
      </trkpt>
      <trkpt lat="44.12901" lon="2.25905">
        <ele>350</ele>
        <time>2022-09-11T08:39:51.723Z</time>
      </trkpt>
      <trkpt lat="44.129" lon="2.25905">
        <ele>350</ele>
        <time>2022-09-11T08:39:52.723Z</time>
      </trkpt>
      <trkpt lat="44.12899" lon="2.25905">
        <ele>350</ele>
        <time>2022-09-11T08:39:53.723Z</time>
      </trkpt>
      <trkpt lat="44.12898" lon="2.25905">
        <ele>350</ele>
        <time>2022-09-11T08:39:54.723Z</time>
      </trkpt>
      <trkpt lat="44.12897" lon="2.25904">
        <ele>351</ele>
        <time>2022-09-11T08:39:55.723Z</time>
      </trkpt>
      <trkpt lat="44.12896" lon="2.25904">
        <ele>351</ele>
        <time>2022-09-11T08:39:56.723Z</time>
      </trkpt>
      <trkpt lat="44.12895" lon="2.25905">
        <ele>351</ele>
        <time>2022-09-11T08:39:57.723Z</time>
      </trkpt>
      <trkpt lat="44.12894" lon="2.25905">
        <ele>351</ele>
        <time>2022-09-11T08:39:58.723Z</time>
      </trkpt>
      <trkpt lat="44.12894" lon="2.25905">
        <ele>351</ele>
        <time>2022-09-11T08:39:59.723Z</time>
      </trkpt>
      <trkpt lat="44.12893" lon="2.25906">
        <ele>352</ele>
        <time>2022-09-11T08:40:00.723Z</time>
      </trkpt>
      <trkpt lat="44.12892" lon="2.25906">
        <ele>352</ele>
        <time>2022-09-11T08:40:01.723Z</time>
      </trkpt>
      <trkpt lat="44.12891" lon="2.25906">
        <ele>352</ele>
        <time>2022-09-11T08:40:02.723Z</time>
      </trkpt>
      <trkpt lat="44.1289" lon="2.25906">
        <ele>352</ele>
        <time>2022-09-11T08:40:03.723Z</time>
      </trkpt>
      <trkpt lat="44.12889" lon="2.25906">
        <ele>352</ele>
        <time>2022-09-11T08:40:04.723Z</time>
      </trkpt>
      <trkpt lat="44.12888" lon="2.25906">
        <ele>353</ele>
        <time>2022-09-11T08:40:05.723Z</time>
      </trkpt>
      <trkpt lat="44.12888" lon="2.25906">
        <ele>353</ele>
        <time>2022-09-11T08:40:06.723Z</time>
      </trkpt>
      <trkpt lat="44.12887" lon="2.25906">
        <ele>353</ele>
        <time>2022-09-11T08:40:07.723Z</time>
      </trkpt>
      <trkpt lat="44.12886" lon="2.25906">
        <ele>353</ele>
        <time>2022-09-11T08:40:08.723Z</time>
      </trkpt>
      <trkpt lat="44.12885" lon="2.25906">
        <ele>354</ele>
        <time>2022-09-11T08:40:09.723Z</time>
      </trkpt>
      <trkpt lat="44.12885" lon="2.25906">
        <ele>354</ele>
        <time>2022-09-11T08:40:10.723Z</time>
      </trkpt>
      <trkpt lat="44.12884" lon="2.25907">
        <ele>354</ele>
        <time>2022-09-11T08:40:11.723Z</time>
      </trkpt>
      <trkpt lat="44.12883" lon="2.25907">
        <ele>354</ele>
        <time>2022-09-11T08:40:12.723Z</time>
      </trkpt>
      <trkpt lat="44.12883" lon="2.25907">
        <ele>354</ele>
        <time>2022-09-11T08:40:13.723Z</time>
      </trkpt>
      <trkpt lat="44.12882" lon="2.25907">
        <ele>355</ele>
        <time>2022-09-11T08:40:14.723Z</time>
      </trkpt>
      <trkpt lat="44.12882" lon="2.25908">
        <ele>355</ele>
        <time>2022-09-11T08:40:15.723Z</time>
      </trkpt>
      <trkpt lat="44.12881" lon="2.25909">
        <ele>355</ele>
        <time>2022-09-11T08:40:16.723Z</time>
      </trkpt>
      <trkpt lat="44.12881" lon="2.2591">
        <ele>355</ele>
        <time>2022-09-11T08:40:17.723Z</time>
      </trkpt>
      <trkpt lat="44.1288" lon="2.2591">
        <ele>355</ele>
        <time>2022-09-11T08:40:18.723Z</time>
      </trkpt>
      <trkpt lat="44.1288" lon="2.25912">
        <ele>355</ele>
        <time>2022-09-11T08:40:19.723Z</time>
      </trkpt>
      <trkpt lat="44.1288" lon="2.25912">
        <ele>356</ele>
        <time>2022-09-11T08:40:20.723Z</time>
      </trkpt>
      <trkpt lat="44.12879" lon="2.25913">
        <ele>356</ele>
        <time>2022-09-11T08:40:21.723Z</time>
      </trkpt>
      <trkpt lat="44.12879" lon="2.25914">
        <ele>356</ele>
        <time>2022-09-11T08:40:22.723Z</time>
      </trkpt>
      <trkpt lat="44.12879" lon="2.25915">
        <ele>356</ele>
        <time>2022-09-11T08:40:23.723Z</time>
      </trkpt>
      <trkpt lat="44.12879" lon="2.25916">
        <ele>356</ele>
        <time>2022-09-11T08:40:24.723Z</time>
      </trkpt>
      <trkpt lat="44.12879" lon="2.25917">
        <ele>356</ele>
        <time>2022-09-11T08:40:25.723Z</time>
      </trkpt>
      <trkpt lat="44.12879" lon="2.25917">
        <ele>357</ele>
        <time>2022-09-11T08:40:26.723Z</time>
      </trkpt>
      <trkpt lat="44.12879" lon="2.25918">
        <ele>357</ele>
        <time>2022-09-11T08:40:27.723Z</time>
      </trkpt>
      <trkpt lat="44.12879" lon="2.25919">
        <ele>357</ele>
        <time>2022-09-11T08:40:28.723Z</time>
      </trkpt>
      <trkpt lat="44.12879" lon="2.2592">
        <ele>357</ele>
        <time>2022-09-11T08:40:29.723Z</time>
      </trkpt>
      <trkpt lat="44.12879" lon="2.25921">
        <ele>357</ele>
        <time>2022-09-11T08:40:30.723Z</time>
      </trkpt>
      <trkpt lat="44.12879" lon="2.25922">
        <ele>358</ele>
        <time>2022-09-11T08:40:31.723Z</time>
      </trkpt>
      <trkpt lat="44.12879" lon="2.25922">
        <ele>358</ele>
        <time>2022-09-11T08:40:32.723Z</time>
      </trkpt>
      <trkpt lat="44.1288" lon="2.25923">
        <ele>358</ele>
        <time>2022-09-11T08:40:33.723Z</time>
      </trkpt>
      <trkpt lat="44.1288" lon="2.25924">
        <ele>358</ele>
        <time>2022-09-11T08:40:34.723Z</time>
      </trkpt>
      <trkpt lat="44.1288" lon="2.25924">
        <ele>358</ele>
        <time>2022-09-11T08:40:35.723Z</time>
      </trkpt>
      <trkpt lat="44.12881" lon="2.25925">
        <ele>359</ele>
        <time>2022-09-11T08:40:36.723Z</time>
      </trkpt>
      <trkpt lat="44.12881" lon="2.25926">
        <ele>359</ele>
        <time>2022-09-11T08:40:37.723Z</time>
      </trkpt>
      <trkpt lat="44.12882" lon="2.25926">
        <ele>359</ele>
        <time>2022-09-11T08:40:38.723Z</time>
      </trkpt>
      <trkpt lat="44.12882" lon="2.25927">
        <ele>359</ele>
        <time>2022-09-11T08:40:39.723Z</time>
      </trkpt>
      <trkpt lat="44.12882" lon="2.25928">
        <ele>359</ele>
        <time>2022-09-11T08:40:40.723Z</time>
      </trkpt>
      <trkpt lat="44.12882" lon="2.25928">
        <ele>359</ele>
        <time>2022-09-11T08:40:41.723Z</time>
      </trkpt>
      <trkpt lat="44.12882" lon="2.25928">
        <ele>360</ele>
        <time>2022-09-11T08:40:42.723Z</time>
      </trkpt>
      <trkpt lat="44.12882" lon="2.25928">
        <ele>360</ele>
        <time>2022-09-11T08:40:43.723Z</time>
      </trkpt>
      <trkpt lat="44.12882" lon="2.25931">
        <ele>361</ele>
        <time>2022-09-11T08:40:50.730Z</time>
      </trkpt>
      <trkpt lat="44.12883" lon="2.25931">
        <ele>361</ele>
        <time>2022-09-11T08:40:51.730Z</time>
      </trkpt>
      <trkpt lat="44.12883" lon="2.25932">
        <ele>362</ele>
        <time>2022-09-11T08:40:52.730Z</time>
      </trkpt>
      <trkpt lat="44.12884" lon="2.25932">
        <ele>362</ele>
        <time>2022-09-11T08:40:53.730Z</time>
      </trkpt>
      <trkpt lat="44.12884" lon="2.25933">
        <ele>362</ele>
        <time>2022-09-11T08:40:54.730Z</time>
      </trkpt>
      <trkpt lat="44.12885" lon="2.25934">
        <ele>363</ele>
        <time>2022-09-11T08:40:55.730Z</time>
      </trkpt>
      <trkpt lat="44.12885" lon="2.25935">
        <ele>363</ele>
        <time>2022-09-11T08:40:56.730Z</time>
      </trkpt>
      <trkpt lat="44.12885" lon="2.25936">
        <ele>363</ele>
        <time>2022-09-11T08:40:57.730Z</time>
      </trkpt>
      <trkpt lat="44.12885" lon="2.25936">
        <ele>363</ele>
        <time>2022-09-11T08:40:58.730Z</time>
      </trkpt>
      <trkpt lat="44.12885" lon="2.25937">
        <ele>363</ele>
        <time>2022-09-11T08:40:59.730Z</time>
      </trkpt>
      <trkpt lat="44.12886" lon="2.25938">
        <ele>363</ele>
        <time>2022-09-11T08:41:00.730Z</time>
      </trkpt>
      <trkpt lat="44.12886" lon="2.25938">
        <ele>363</ele>
        <time>2022-09-11T08:41:01.730Z</time>
      </trkpt>
      <trkpt lat="44.12886" lon="2.25939">
        <ele>364</ele>
        <time>2022-09-11T08:41:02.730Z</time>
      </trkpt>
      <trkpt lat="44.12886" lon="2.2594">
        <ele>364</ele>
        <time>2022-09-11T08:41:03.730Z</time>
      </trkpt>
      <trkpt lat="44.12887" lon="2.25941">
        <ele>364</ele>
        <time>2022-09-11T08:41:04.730Z</time>
      </trkpt>
      <trkpt lat="44.12887" lon="2.25941">
        <ele>364</ele>
        <time>2022-09-11T08:41:05.730Z</time>
      </trkpt>
      <trkpt lat="44.12887" lon="2.25942">
        <ele>364</ele>
        <time>2022-09-11T08:41:06.730Z</time>
      </trkpt>
      <trkpt lat="44.12887" lon="2.25943">
        <ele>364</ele>
        <time>2022-09-11T08:41:07.730Z</time>
      </trkpt>
      <trkpt lat="44.12888" lon="2.25945">
        <ele>364</ele>
        <time>2022-09-11T08:41:08.730Z</time>
      </trkpt>
      <trkpt lat="44.12888" lon="2.25945">
        <ele>364</ele>
        <time>2022-09-11T08:41:09.730Z</time>
      </trkpt>
      <trkpt lat="44.12888" lon="2.25946">
        <ele>364</ele>
        <time>2022-09-11T08:41:10.730Z</time>
      </trkpt>
      <trkpt lat="44.12888" lon="2.25947">
        <ele>364</ele>
        <time>2022-09-11T08:41:11.730Z</time>
      </trkpt>
      <trkpt lat="44.12888" lon="2.25948">
        <ele>364</ele>
        <time>2022-09-11T08:41:12.730Z</time>
      </trkpt>
      <trkpt lat="44.12888" lon="2.2595">
        <ele>364</ele>
        <time>2022-09-11T08:41:13.730Z</time>
      </trkpt>
      <trkpt lat="44.12888" lon="2.2595">
        <ele>364</ele>
        <time>2022-09-11T08:41:14.730Z</time>
      </trkpt>
      <trkpt lat="44.12888" lon="2.25951">
        <ele>364</ele>
        <time>2022-09-11T08:41:15.730Z</time>
      </trkpt>
      <trkpt lat="44.12888" lon="2.25952">
        <ele>364</ele>
        <time>2022-09-11T08:41:16.730Z</time>
      </trkpt>
      <trkpt lat="44.12888" lon="2.25953">
        <ele>364</ele>
        <time>2022-09-11T08:41:17.730Z</time>
      </trkpt>
      <trkpt lat="44.12889" lon="2.25953">
        <ele>364</ele>
        <time>2022-09-11T08:41:18.730Z</time>
      </trkpt>
      <trkpt lat="44.12888" lon="2.25954">
        <ele>364</ele>
        <time>2022-09-11T08:41:19.730Z</time>
      </trkpt>
      <trkpt lat="44.12888" lon="2.25955">
        <ele>365</ele>
        <time>2022-09-11T08:41:20.730Z</time>
      </trkpt>
      <trkpt lat="44.12888" lon="2.25956">
        <ele>365</ele>
        <time>2022-09-11T08:41:21.730Z</time>
      </trkpt>
      <trkpt lat="44.12888" lon="2.25957">
        <ele>365</ele>
        <time>2022-09-11T08:41:22.730Z</time>
      </trkpt>
      <trkpt lat="44.12888" lon="2.25958">
        <ele>365</ele>
        <time>2022-09-11T08:41:23.730Z</time>
      </trkpt>
      <trkpt lat="44.12887" lon="2.25958">
        <ele>365</ele>
        <time>2022-09-11T08:41:24.730Z</time>
      </trkpt>
      <trkpt lat="44.12887" lon="2.25959">
        <ele>366</ele>
        <time>2022-09-11T08:41:25.730Z</time>
      </trkpt>
      <trkpt lat="44.12887" lon="2.2596">
        <ele>366</ele>
        <time>2022-09-11T08:41:26.730Z</time>
      </trkpt>
      <trkpt lat="44.12887" lon="2.25961">
        <ele>366</ele>
        <time>2022-09-11T08:41:27.730Z</time>
      </trkpt>
      <trkpt lat="44.12887" lon="2.25961">
        <ele>366</ele>
        <time>2022-09-11T08:41:28.730Z</time>
      </trkpt>
      <trkpt lat="44.12888" lon="2.25964">
        <ele>366</ele>
        <time>2022-09-11T08:41:32.740Z</time>
      </trkpt>
      <trkpt lat="44.12888" lon="2.25965">
        <ele>366</ele>
        <time>2022-09-11T08:41:33.740Z</time>
      </trkpt>
      <trkpt lat="44.12888" lon="2.25966">
        <ele>366</ele>
        <time>2022-09-11T08:41:34.740Z</time>
      </trkpt>
      <trkpt lat="44.12888" lon="2.25967">
        <ele>366</ele>
        <time>2022-09-11T08:41:35.740Z</time>
      </trkpt>
      <trkpt lat="44.12888" lon="2.25968">
        <ele>366</ele>
        <time>2022-09-11T08:41:36.740Z</time>
      </trkpt>
      <trkpt lat="44.12887" lon="2.25969">
        <ele>366</ele>
        <time>2022-09-11T08:41:37.740Z</time>
      </trkpt>
      <trkpt lat="44.12887" lon="2.2597">
        <ele>366</ele>
        <time>2022-09-11T08:41:38.740Z</time>
      </trkpt>
      <trkpt lat="44.12887" lon="2.25971">
        <ele>366</ele>
        <time>2022-09-11T08:41:39.740Z</time>
      </trkpt>
      <trkpt lat="44.12887" lon="2.25972">
        <ele>366</ele>
        <time>2022-09-11T08:41:40.740Z</time>
      </trkpt>
      <trkpt lat="44.12887" lon="2.25974">
        <ele>367</ele>
        <time>2022-09-11T08:41:41.740Z</time>
      </trkpt>
      <trkpt lat="44.12887" lon="2.25975">
        <ele>367</ele>
        <time>2022-09-11T08:41:42.740Z</time>
      </trkpt>
      <trkpt lat="44.12888" lon="2.25976">
        <ele>367</ele>
        <time>2022-09-11T08:41:43.740Z</time>
      </trkpt>
      <trkpt lat="44.12888" lon="2.25978">
        <ele>367</ele>
        <time>2022-09-11T08:41:44.740Z</time>
      </trkpt>
      <trkpt lat="44.12888" lon="2.25979">
        <ele>367</ele>
        <time>2022-09-11T08:41:45.740Z</time>
      </trkpt>
      <trkpt lat="44.12888" lon="2.2598">
        <ele>367</ele>
        <time>2022-09-11T08:41:46.740Z</time>
      </trkpt>
      <trkpt lat="44.12888" lon="2.25981">
        <ele>367</ele>
        <time>2022-09-11T08:41:47.740Z</time>
      </trkpt>
      <trkpt lat="44.12889" lon="2.25982">
        <ele>367</ele>
        <time>2022-09-11T08:41:48.740Z</time>
      </trkpt>
      <trkpt lat="44.12889" lon="2.25983">
        <ele>367</ele>
        <time>2022-09-11T08:41:49.740Z</time>
      </trkpt>
      <trkpt lat="44.12889" lon="2.25984">
        <ele>368</ele>
        <time>2022-09-11T08:41:50.740Z</time>
      </trkpt>
      <trkpt lat="44.12889" lon="2.25985">
        <ele>368</ele>
        <time>2022-09-11T08:41:51.740Z</time>
      </trkpt>
      <trkpt lat="44.12889" lon="2.25986">
        <ele>368</ele>
        <time>2022-09-11T08:41:52.740Z</time>
      </trkpt>
      <trkpt lat="44.12889" lon="2.25988">
        <ele>368</ele>
        <time>2022-09-11T08:41:53.740Z</time>
      </trkpt>
      <trkpt lat="44.1289" lon="2.25989">
        <ele>368</ele>
        <time>2022-09-11T08:41:54.740Z</time>
      </trkpt>
      <trkpt lat="44.1289" lon="2.2599">
        <ele>368</ele>
        <time>2022-09-11T08:41:55.740Z</time>
      </trkpt>
      <trkpt lat="44.1289" lon="2.25991">
        <ele>368</ele>
        <time>2022-09-11T08:41:56.740Z</time>
      </trkpt>
      <trkpt lat="44.1289" lon="2.25993">
        <ele>368</ele>
        <time>2022-09-11T08:41:57.740Z</time>
      </trkpt>
      <trkpt lat="44.1289" lon="2.25994">
        <ele>369</ele>
        <time>2022-09-11T08:41:58.740Z</time>
      </trkpt>
      <trkpt lat="44.1289" lon="2.25995">
        <ele>369</ele>
        <time>2022-09-11T08:41:59.740Z</time>
      </trkpt>
      <trkpt lat="44.12891" lon="2.25997">
        <ele>369</ele>
        <time>2022-09-11T08:42:00.740Z</time>
      </trkpt>
      <trkpt lat="44.12891" lon="2.25998">
        <ele>369</ele>
        <time>2022-09-11T08:42:01.740Z</time>
      </trkpt>
      <trkpt lat="44.12891" lon="2.25999">
        <ele>369</ele>
        <time>2022-09-11T08:42:02.740Z</time>
      </trkpt>
      <trkpt lat="44.12891" lon="2.26001">
        <ele>369</ele>
        <time>2022-09-11T08:42:03.740Z</time>
      </trkpt>
      <trkpt lat="44.12891" lon="2.26002">
        <ele>369</ele>
        <time>2022-09-11T08:42:04.740Z</time>
      </trkpt>
      <trkpt lat="44.12891" lon="2.26003">
        <ele>370</ele>
        <time>2022-09-11T08:42:05.740Z</time>
      </trkpt>
      <trkpt lat="44.12892" lon="2.26004">
        <ele>370</ele>
        <time>2022-09-11T08:42:06.740Z</time>
      </trkpt>
      <trkpt lat="44.12892" lon="2.26006">
        <ele>370</ele>
        <time>2022-09-11T08:42:07.740Z</time>
      </trkpt>
      <trkpt lat="44.12892" lon="2.26007">
        <ele>370</ele>
        <time>2022-09-11T08:42:08.740Z</time>
      </trkpt>
      <trkpt lat="44.12892" lon="2.26008">
        <ele>370</ele>
        <time>2022-09-11T08:42:09.740Z</time>
      </trkpt>
      <trkpt lat="44.12892" lon="2.26008">
        <ele>370</ele>
        <time>2022-09-11T08:42:10.740Z</time>
      </trkpt>
      <trkpt lat="44.12892" lon="2.2601">
        <ele>371</ele>
        <time>2022-09-11T08:42:11.740Z</time>
      </trkpt>
      <trkpt lat="44.12892" lon="2.26011">
        <ele>371</ele>
        <time>2022-09-11T08:42:12.740Z</time>
      </trkpt>
      <trkpt lat="44.12892" lon="2.26011">
        <ele>371</ele>
        <time>2022-09-11T08:42:13.740Z</time>
      </trkpt>
      <trkpt lat="44.12892" lon="2.26012">
        <ele>371</ele>
        <time>2022-09-11T08:42:14.740Z</time>
      </trkpt>
      <trkpt lat="44.12892" lon="2.26013">
        <ele>371</ele>
        <time>2022-09-11T08:42:15.740Z</time>
      </trkpt>
      <trkpt lat="44.12892" lon="2.26014">
        <ele>372</ele>
        <time>2022-09-11T08:42:16.740Z</time>
      </trkpt>
      <trkpt lat="44.12892" lon="2.26015">
        <ele>372</ele>
        <time>2022-09-11T08:42:17.740Z</time>
      </trkpt>
      <trkpt lat="44.12892" lon="2.26016">
        <ele>372</ele>
        <time>2022-09-11T08:42:18.740Z</time>
      </trkpt>
      <trkpt lat="44.12892" lon="2.26018">
        <ele>372</ele>
        <time>2022-09-11T08:42:19.740Z</time>
      </trkpt>
      <trkpt lat="44.12892" lon="2.26019">
        <ele>372</ele>
        <time>2022-09-11T08:42:20.740Z</time>
      </trkpt>
      <trkpt lat="44.12892" lon="2.2602">
        <ele>372</ele>
        <time>2022-09-11T08:42:21.740Z</time>
      </trkpt>
      <trkpt lat="44.12892" lon="2.26021">
        <ele>373</ele>
        <time>2022-09-11T08:42:22.740Z</time>
      </trkpt>
      <trkpt lat="44.12892" lon="2.26022">
        <ele>373</ele>
        <time>2022-09-11T08:42:23.740Z</time>
      </trkpt>
      <trkpt lat="44.12892" lon="2.26023">
        <ele>373</ele>
        <time>2022-09-11T08:42:24.740Z</time>
      </trkpt>
      <trkpt lat="44.12892" lon="2.26024">
        <ele>373</ele>
        <time>2022-09-11T08:42:25.740Z</time>
      </trkpt>
      <trkpt lat="44.12892" lon="2.26026">
        <ele>373</ele>
        <time>2022-09-11T08:42:26.740Z</time>
      </trkpt>
      <trkpt lat="44.12892" lon="2.26027">
        <ele>374</ele>
        <time>2022-09-11T08:42:27.740Z</time>
      </trkpt>
      <trkpt lat="44.12892" lon="2.26028">
        <ele>374</ele>
        <time>2022-09-11T08:42:28.740Z</time>
      </trkpt>
      <trkpt lat="44.12893" lon="2.26029">
        <ele>374</ele>
        <time>2022-09-11T08:42:29.740Z</time>
      </trkpt>
      <trkpt lat="44.12893" lon="2.2603">
        <ele>374</ele>
        <time>2022-09-11T08:42:30.740Z</time>
      </trkpt>
      <trkpt lat="44.12893" lon="2.26031">
        <ele>374</ele>
        <time>2022-09-11T08:42:31.740Z</time>
      </trkpt>
      <trkpt lat="44.12893" lon="2.26032">
        <ele>374</ele>
        <time>2022-09-11T08:42:32.740Z</time>
      </trkpt>
      <trkpt lat="44.12893" lon="2.26033">
        <ele>374</ele>
        <time>2022-09-11T08:42:33.740Z</time>
      </trkpt>
      <trkpt lat="44.12894" lon="2.26034">
        <ele>374</ele>
        <time>2022-09-11T08:42:34.740Z</time>
      </trkpt>
      <trkpt lat="44.12894" lon="2.26036">
        <ele>375</ele>
        <time>2022-09-11T08:42:35.740Z</time>
      </trkpt>
      <trkpt lat="44.12894" lon="2.26037">
        <ele>375</ele>
        <time>2022-09-11T08:42:36.740Z</time>
      </trkpt>
      <trkpt lat="44.12894" lon="2.26038">
        <ele>375</ele>
        <time>2022-09-11T08:42:37.740Z</time>
      </trkpt>
      <trkpt lat="44.12894" lon="2.26039">
        <ele>375</ele>
        <time>2022-09-11T08:42:38.740Z</time>
      </trkpt>
      <trkpt lat="44.12894" lon="2.26041">
        <ele>375</ele>
        <time>2022-09-11T08:42:39.740Z</time>
      </trkpt>
      <trkpt lat="44.12893" lon="2.26042">
        <ele>375</ele>
        <time>2022-09-11T08:42:40.740Z</time>
      </trkpt>
      <trkpt lat="44.12893" lon="2.26043">
        <ele>375</ele>
        <time>2022-09-11T08:42:41.740Z</time>
      </trkpt>
      <trkpt lat="44.12893" lon="2.26044">
        <ele>376</ele>
        <time>2022-09-11T08:42:42.740Z</time>
      </trkpt>
      <trkpt lat="44.12893" lon="2.26045">
        <ele>376</ele>
        <time>2022-09-11T08:42:43.740Z</time>
      </trkpt>
      <trkpt lat="44.12893" lon="2.26047">
        <ele>376</ele>
        <time>2022-09-11T08:42:44.740Z</time>
      </trkpt>
      <trkpt lat="44.12893" lon="2.26048">
        <ele>376</ele>
        <time>2022-09-11T08:42:45.740Z</time>
      </trkpt>
      <trkpt lat="44.12893" lon="2.26049">
        <ele>376</ele>
        <time>2022-09-11T08:42:46.740Z</time>
      </trkpt>
      <trkpt lat="44.12893" lon="2.2605">
        <ele>376</ele>
        <time>2022-09-11T08:42:47.740Z</time>
      </trkpt>
      <trkpt lat="44.12893" lon="2.26052">
        <ele>377</ele>
        <time>2022-09-11T08:42:48.740Z</time>
      </trkpt>
      <trkpt lat="44.12893" lon="2.26053">
        <ele>377</ele>
        <time>2022-09-11T08:42:49.740Z</time>
      </trkpt>
      <trkpt lat="44.12894" lon="2.26054">
        <ele>377</ele>
        <time>2022-09-11T08:42:50.740Z</time>
      </trkpt>
      <trkpt lat="44.12894" lon="2.26056">
        <ele>377</ele>
        <time>2022-09-11T08:42:51.740Z</time>
      </trkpt>
      <trkpt lat="44.12894" lon="2.26057">
        <ele>377</ele>
        <time>2022-09-11T08:42:52.740Z</time>
      </trkpt>
      <trkpt lat="44.12894" lon="2.26059">
        <ele>377</ele>
        <time>2022-09-11T08:42:53.740Z</time>
      </trkpt>
      <trkpt lat="44.12894" lon="2.2606">
        <ele>378</ele>
        <time>2022-09-11T08:42:54.740Z</time>
      </trkpt>
      <trkpt lat="44.12895" lon="2.26061">
        <ele>378</ele>
        <time>2022-09-11T08:42:55.740Z</time>
      </trkpt>
      <trkpt lat="44.12895" lon="2.26063">
        <ele>378</ele>
        <time>2022-09-11T08:42:56.740Z</time>
      </trkpt>
      <trkpt lat="44.12895" lon="2.26064">
        <ele>378</ele>
        <time>2022-09-11T08:42:57.740Z</time>
      </trkpt>
      <trkpt lat="44.12895" lon="2.26065">
        <ele>378</ele>
        <time>2022-09-11T08:42:58.740Z</time>
      </trkpt>
      <trkpt lat="44.12895" lon="2.26066">
        <ele>378</ele>
        <time>2022-09-11T08:42:59.740Z</time>
      </trkpt>
      <trkpt lat="44.12895" lon="2.26068">
        <ele>379</ele>
        <time>2022-09-11T08:43:00.740Z</time>
      </trkpt>
      <trkpt lat="44.12895" lon="2.26069">
        <ele>379</ele>
        <time>2022-09-11T08:43:01.740Z</time>
      </trkpt>
      <trkpt lat="44.12895" lon="2.2607">
        <ele>379</ele>
        <time>2022-09-11T08:43:02.740Z</time>
      </trkpt>
      <trkpt lat="44.12895" lon="2.26071">
        <ele>379</ele>
        <time>2022-09-11T08:43:03.740Z</time>
      </trkpt>
      <trkpt lat="44.12895" lon="2.26072">
        <ele>379</ele>
        <time>2022-09-11T08:43:04.740Z</time>
      </trkpt>
      <trkpt lat="44.12895" lon="2.26073">
        <ele>380</ele>
        <time>2022-09-11T08:43:05.740Z</time>
      </trkpt>
      <trkpt lat="44.12895" lon="2.26074">
        <ele>380</ele>
        <time>2022-09-11T08:43:06.740Z</time>
      </trkpt>
      <trkpt lat="44.12895" lon="2.26076">
        <ele>380</ele>
        <time>2022-09-11T08:43:07.740Z</time>
      </trkpt>
      <trkpt lat="44.12895" lon="2.26077">
        <ele>380</ele>
        <time>2022-09-11T08:43:08.740Z</time>
      </trkpt>
      <trkpt lat="44.12895" lon="2.26078">
        <ele>380</ele>
        <time>2022-09-11T08:43:09.740Z</time>
      </trkpt>
      <trkpt lat="44.12895" lon="2.26079">
        <ele>380</ele>
        <time>2022-09-11T08:43:10.740Z</time>
      </trkpt>
      <trkpt lat="44.12895" lon="2.2608">
        <ele>381</ele>
        <time>2022-09-11T08:43:11.740Z</time>
      </trkpt>
      <trkpt lat="44.12895" lon="2.26081">
        <ele>381</ele>
        <time>2022-09-11T08:43:12.740Z</time>
      </trkpt>
      <trkpt lat="44.12895" lon="2.26082">
        <ele>381</ele>
        <time>2022-09-11T08:43:13.740Z</time>
      </trkpt>
      <trkpt lat="44.12895" lon="2.26083">
        <ele>381</ele>
        <time>2022-09-11T08:43:14.740Z</time>
      </trkpt>
      <trkpt lat="44.12895" lon="2.26084">
        <ele>381</ele>
        <time>2022-09-11T08:43:15.740Z</time>
      </trkpt>
      <trkpt lat="44.12896" lon="2.26085">
        <ele>381</ele>
        <time>2022-09-11T08:43:16.740Z</time>
      </trkpt>
      <trkpt lat="44.12895" lon="2.26086">
        <ele>382</ele>
        <time>2022-09-11T08:43:17.740Z</time>
      </trkpt>
      <trkpt lat="44.12895" lon="2.26086">
        <ele>382</ele>
        <time>2022-09-11T08:43:18.740Z</time>
      </trkpt>
      <trkpt lat="44.12895" lon="2.26087">
        <ele>382</ele>
        <time>2022-09-11T08:43:19.740Z</time>
      </trkpt>
      <trkpt lat="44.12895" lon="2.26087">
        <ele>382</ele>
        <time>2022-09-11T08:43:20.740Z</time>
      </trkpt>
      <trkpt lat="44.12895" lon="2.26088">
        <ele>382</ele>
        <time>2022-09-11T08:43:21.740Z</time>
      </trkpt>
      <trkpt lat="44.12895" lon="2.26089">
        <ele>382</ele>
        <time>2022-09-11T08:43:22.740Z</time>
      </trkpt>
      <trkpt lat="44.12895" lon="2.2609">
        <ele>382</ele>
        <time>2022-09-11T08:43:23.740Z</time>
      </trkpt>
      <trkpt lat="44.12895" lon="2.26091">
        <ele>382</ele>
        <time>2022-09-11T08:43:24.740Z</time>
      </trkpt>
      <trkpt lat="44.12894" lon="2.26091">
        <ele>383</ele>
        <time>2022-09-11T08:43:25.740Z</time>
      </trkpt>
      <trkpt lat="44.12894" lon="2.26092">
        <ele>383</ele>
        <time>2022-09-11T08:43:26.740Z</time>
      </trkpt>
      <trkpt lat="44.12894" lon="2.26093">
        <ele>383</ele>
        <time>2022-09-11T08:43:27.740Z</time>
      </trkpt>
      <trkpt lat="44.12894" lon="2.26094">
        <ele>383</ele>
        <time>2022-09-11T08:43:28.740Z</time>
      </trkpt>
      <trkpt lat="44.12894" lon="2.26094">
        <ele>383</ele>
        <time>2022-09-11T08:43:29.740Z</time>
      </trkpt>
      <trkpt lat="44.12894" lon="2.26097">
        <ele>384</ele>
        <time>2022-09-11T08:43:34.752Z</time>
      </trkpt>
      <trkpt lat="44.12894" lon="2.26098">
        <ele>384</ele>
        <time>2022-09-11T08:43:35.752Z</time>
      </trkpt>
      <trkpt lat="44.12894" lon="2.26099">
        <ele>384</ele>
        <time>2022-09-11T08:43:36.752Z</time>
      </trkpt>
      <trkpt lat="44.12894" lon="2.261">
        <ele>384</ele>
        <time>2022-09-11T08:43:37.752Z</time>
      </trkpt>
      <trkpt lat="44.12893" lon="2.26101">
        <ele>384</ele>
        <time>2022-09-11T08:43:38.752Z</time>
      </trkpt>
      <trkpt lat="44.12893" lon="2.26102">
        <ele>384</ele>
        <time>2022-09-11T08:43:39.752Z</time>
      </trkpt>
      <trkpt lat="44.12893" lon="2.26103">
        <ele>385</ele>
        <time>2022-09-11T08:43:40.752Z</time>
      </trkpt>
      <trkpt lat="44.12893" lon="2.26104">
        <ele>385</ele>
        <time>2022-09-11T08:43:41.752Z</time>
      </trkpt>
      <trkpt lat="44.12893" lon="2.26105">
        <ele>385</ele>
        <time>2022-09-11T08:43:42.752Z</time>
      </trkpt>
      <trkpt lat="44.12893" lon="2.26106">
        <ele>385</ele>
        <time>2022-09-11T08:43:43.752Z</time>
      </trkpt>
      <trkpt lat="44.12893" lon="2.26107">
        <ele>385</ele>
        <time>2022-09-11T08:43:44.752Z</time>
      </trkpt>
      <trkpt lat="44.12893" lon="2.26109">
        <ele>385</ele>
        <time>2022-09-11T08:43:45.752Z</time>
      </trkpt>
      <trkpt lat="44.12893" lon="2.2611">
        <ele>385</ele>
        <time>2022-09-11T08:43:46.752Z</time>
      </trkpt>
      <trkpt lat="44.12893" lon="2.26111">
        <ele>386</ele>
        <time>2022-09-11T08:43:47.752Z</time>
      </trkpt>
      <trkpt lat="44.12893" lon="2.26112">
        <ele>386</ele>
        <time>2022-09-11T08:43:48.752Z</time>
      </trkpt>
      <trkpt lat="44.12894" lon="2.26113">
        <ele>386</ele>
        <time>2022-09-11T08:43:49.752Z</time>
      </trkpt>
      <trkpt lat="44.12894" lon="2.26115">
        <ele>386</ele>
        <time>2022-09-11T08:43:50.752Z</time>
      </trkpt>
      <trkpt lat="44.12895" lon="2.26116">
        <ele>386</ele>
        <time>2022-09-11T08:43:51.752Z</time>
      </trkpt>
      <trkpt lat="44.12895" lon="2.26117">
        <ele>387</ele>
        <time>2022-09-11T08:43:52.752Z</time>
      </trkpt>
      <trkpt lat="44.12895" lon="2.26117">
        <ele>387</ele>
        <time>2022-09-11T08:43:53.752Z</time>
      </trkpt>
      <trkpt lat="44.12895" lon="2.26118">
        <ele>387</ele>
        <time>2022-09-11T08:43:54.752Z</time>
      </trkpt>
      <trkpt lat="44.12896" lon="2.26119">
        <ele>387</ele>
        <time>2022-09-11T08:43:55.752Z</time>
      </trkpt>
      <trkpt lat="44.12896" lon="2.26121">
        <ele>387</ele>
        <time>2022-09-11T08:43:56.752Z</time>
      </trkpt>
      <trkpt lat="44.12897" lon="2.26122">
        <ele>387</ele>
        <time>2022-09-11T08:43:57.752Z</time>
      </trkpt>
      <trkpt lat="44.12897" lon="2.26123">
        <ele>388</ele>
        <time>2022-09-11T08:43:58.752Z</time>
      </trkpt>
      <trkpt lat="44.12897" lon="2.26125">
        <ele>388</ele>
        <time>2022-09-11T08:43:59.752Z</time>
      </trkpt>
      <trkpt lat="44.12898" lon="2.26126">
        <ele>388</ele>
        <time>2022-09-11T08:44:00.752Z</time>
      </trkpt>
      <trkpt lat="44.12898" lon="2.26127">
        <ele>388</ele>
        <time>2022-09-11T08:44:01.752Z</time>
      </trkpt>
      <trkpt lat="44.12898" lon="2.26127">
        <ele>388</ele>
        <time>2022-09-11T08:44:02.752Z</time>
      </trkpt>
      <trkpt lat="44.12898" lon="2.26127">
        <ele>388</ele>
        <time>2022-09-11T08:44:03.752Z</time>
      </trkpt>
      <trkpt lat="44.12898" lon="2.26128">
        <ele>388</ele>
        <time>2022-09-11T08:44:04.752Z</time>
      </trkpt>
      <trkpt lat="44.12899" lon="2.2613">
        <ele>388</ele>
        <time>2022-09-11T08:44:08.007Z</time>
      </trkpt>
      <trkpt lat="44.12899" lon="2.26131">
        <ele>389</ele>
        <time>2022-09-11T08:44:09.007Z</time>
      </trkpt>
      <trkpt lat="44.12899" lon="2.26132">
        <ele>389</ele>
        <time>2022-09-11T08:44:10.007Z</time>
      </trkpt>
      <trkpt lat="44.129" lon="2.26133">
        <ele>389</ele>
        <time>2022-09-11T08:44:11.007Z</time>
      </trkpt>
      <trkpt lat="44.129" lon="2.26134">
        <ele>389</ele>
        <time>2022-09-11T08:44:12.007Z</time>
      </trkpt>
      <trkpt lat="44.129" lon="2.26136">
        <ele>389</ele>
        <time>2022-09-11T08:44:13.007Z</time>
      </trkpt>
      <trkpt lat="44.129" lon="2.26137">
        <ele>389</ele>
        <time>2022-09-11T08:44:14.007Z</time>
      </trkpt>
      <trkpt lat="44.12901" lon="2.26138">
        <ele>389</ele>
        <time>2022-09-11T08:44:15.007Z</time>
      </trkpt>
      <trkpt lat="44.12901" lon="2.26139">
        <ele>389</ele>
        <time>2022-09-11T08:44:16.007Z</time>
      </trkpt>
      <trkpt lat="44.12901" lon="2.26141">
        <ele>389</ele>
        <time>2022-09-11T08:44:17.007Z</time>
      </trkpt>
      <trkpt lat="44.12902" lon="2.26142">
        <ele>389</ele>
        <time>2022-09-11T08:44:18.007Z</time>
      </trkpt>
      <trkpt lat="44.12902" lon="2.26144">
        <ele>388</ele>
        <time>2022-09-11T08:44:19.007Z</time>
      </trkpt>
      <trkpt lat="44.12902" lon="2.26145">
        <ele>388</ele>
        <time>2022-09-11T08:44:20.007Z</time>
      </trkpt>
      <trkpt lat="44.12903" lon="2.26146">
        <ele>389</ele>
        <time>2022-09-11T08:44:21.007Z</time>
      </trkpt>
      <trkpt lat="44.12903" lon="2.26148">
        <ele>389</ele>
        <time>2022-09-11T08:44:22.007Z</time>
      </trkpt>
      <trkpt lat="44.12904" lon="2.26149">
        <ele>389</ele>
        <time>2022-09-11T08:44:23.007Z</time>
      </trkpt>
      <trkpt lat="44.12904" lon="2.2615">
        <ele>389</ele>
        <time>2022-09-11T08:44:24.007Z</time>
      </trkpt>
      <trkpt lat="44.12905" lon="2.26152">
        <ele>389</ele>
        <time>2022-09-11T08:44:25.007Z</time>
      </trkpt>
      <trkpt lat="44.12905" lon="2.26153">
        <ele>389</ele>
        <time>2022-09-11T08:44:26.007Z</time>
      </trkpt>
      <trkpt lat="44.12905" lon="2.26155">
        <ele>389</ele>
        <time>2022-09-11T08:44:27.007Z</time>
      </trkpt>
      <trkpt lat="44.12906" lon="2.26156">
        <ele>388</ele>
        <time>2022-09-11T08:44:28.007Z</time>
      </trkpt>
      <trkpt lat="44.12906" lon="2.26157">
        <ele>388</ele>
        <time>2022-09-11T08:44:29.007Z</time>
      </trkpt>
      <trkpt lat="44.12907" lon="2.26158">
        <ele>388</ele>
        <time>2022-09-11T08:44:30.007Z</time>
      </trkpt>
      <trkpt lat="44.12907" lon="2.2616">
        <ele>388</ele>
        <time>2022-09-11T08:44:31.007Z</time>
      </trkpt>
      <trkpt lat="44.12908" lon="2.26161">
        <ele>388</ele>
        <time>2022-09-11T08:44:32.007Z</time>
      </trkpt>
      <trkpt lat="44.12908" lon="2.26162">
        <ele>388</ele>
        <time>2022-09-11T08:44:33.007Z</time>
      </trkpt>
      <trkpt lat="44.12908" lon="2.26164">
        <ele>388</ele>
        <time>2022-09-11T08:44:34.007Z</time>
      </trkpt>
      <trkpt lat="44.12909" lon="2.26165">
        <ele>388</ele>
        <time>2022-09-11T08:44:35.007Z</time>
      </trkpt>
      <trkpt lat="44.12909" lon="2.26166">
        <ele>388</ele>
        <time>2022-09-11T08:44:36.007Z</time>
      </trkpt>
      <trkpt lat="44.12909" lon="2.26168">
        <ele>388</ele>
        <time>2022-09-11T08:44:37.007Z</time>
      </trkpt>
      <trkpt lat="44.1291" lon="2.26169">
        <ele>388</ele>
        <time>2022-09-11T08:44:38.007Z</time>
      </trkpt>
      <trkpt lat="44.1291" lon="2.2617">
        <ele>389</ele>
        <time>2022-09-11T08:44:39.007Z</time>
      </trkpt>
      <trkpt lat="44.1291" lon="2.26171">
        <ele>389</ele>
        <time>2022-09-11T08:44:40.007Z</time>
      </trkpt>
      <trkpt lat="44.12911" lon="2.26173">
        <ele>389</ele>
        <time>2022-09-11T08:44:41.007Z</time>
      </trkpt>
      <trkpt lat="44.12911" lon="2.26173">
        <ele>389</ele>
        <time>2022-09-11T08:44:42.007Z</time>
      </trkpt>
      <trkpt lat="44.12912" lon="2.26174">
        <ele>389</ele>
        <time>2022-09-11T08:44:43.007Z</time>
      </trkpt>
      <trkpt lat="44.12912" lon="2.26176">
        <ele>389</ele>
        <time>2022-09-11T08:44:44.007Z</time>
      </trkpt>
      <trkpt lat="44.12912" lon="2.26177">
        <ele>389</ele>
        <time>2022-09-11T08:44:45.007Z</time>
      </trkpt>
      <trkpt lat="44.12912" lon="2.26179">
        <ele>389</ele>
        <time>2022-09-11T08:44:46.007Z</time>
      </trkpt>
      <trkpt lat="44.12913" lon="2.2618">
        <ele>389</ele>
        <time>2022-09-11T08:44:47.007Z</time>
      </trkpt>
      <trkpt lat="44.12913" lon="2.26181">
        <ele>389</ele>
        <time>2022-09-11T08:44:48.007Z</time>
      </trkpt>
      <trkpt lat="44.12913" lon="2.26182">
        <ele>389</ele>
        <time>2022-09-11T08:44:49.007Z</time>
      </trkpt>
      <trkpt lat="44.12913" lon="2.26183">
        <ele>389</ele>
        <time>2022-09-11T08:44:50.007Z</time>
      </trkpt>
      <trkpt lat="44.12913" lon="2.26184">
        <ele>390</ele>
        <time>2022-09-11T08:44:51.007Z</time>
      </trkpt>
      <trkpt lat="44.12913" lon="2.26186">
        <ele>390</ele>
        <time>2022-09-11T08:44:52.007Z</time>
      </trkpt>
      <trkpt lat="44.12914" lon="2.26187">
        <ele>390</ele>
        <time>2022-09-11T08:44:53.007Z</time>
      </trkpt>
      <trkpt lat="44.12914" lon="2.26188">
        <ele>390</ele>
        <time>2022-09-11T08:44:54.007Z</time>
      </trkpt>
      <trkpt lat="44.12915" lon="2.26189">
        <ele>390</ele>
        <time>2022-09-11T08:44:55.007Z</time>
      </trkpt>
      <trkpt lat="44.12915" lon="2.2619">
        <ele>390</ele>
        <time>2022-09-11T08:44:56.007Z</time>
      </trkpt>
      <trkpt lat="44.12916" lon="2.26192">
        <ele>390</ele>
        <time>2022-09-11T08:44:57.007Z</time>
      </trkpt>
      <trkpt lat="44.12916" lon="2.26193">
        <ele>390</ele>
        <time>2022-09-11T08:44:58.007Z</time>
      </trkpt>
      <trkpt lat="44.12917" lon="2.26195">
        <ele>390</ele>
        <time>2022-09-11T08:44:59.007Z</time>
      </trkpt>
      <trkpt lat="44.12917" lon="2.26196">
        <ele>390</ele>
        <time>2022-09-11T08:45:00.007Z</time>
      </trkpt>
      <trkpt lat="44.12918" lon="2.26197">
        <ele>390</ele>
        <time>2022-09-11T08:45:01.007Z</time>
      </trkpt>
      <trkpt lat="44.12918" lon="2.26199">
        <ele>390</ele>
        <time>2022-09-11T08:45:02.007Z</time>
      </trkpt>
      <trkpt lat="44.12919" lon="2.262">
        <ele>390</ele>
        <time>2022-09-11T08:45:03.007Z</time>
      </trkpt>
      <trkpt lat="44.12919" lon="2.26201">
        <ele>390</ele>
        <time>2022-09-11T08:45:04.007Z</time>
      </trkpt>
      <trkpt lat="44.12919" lon="2.26202">
        <ele>390</ele>
        <time>2022-09-11T08:45:05.007Z</time>
      </trkpt>
      <trkpt lat="44.1292" lon="2.26203">
        <ele>390</ele>
        <time>2022-09-11T08:45:06.007Z</time>
      </trkpt>
      <trkpt lat="44.1292" lon="2.26205">
        <ele>390</ele>
        <time>2022-09-11T08:45:07.007Z</time>
      </trkpt>
      <trkpt lat="44.12921" lon="2.26206">
        <ele>390</ele>
        <time>2022-09-11T08:45:08.007Z</time>
      </trkpt>
      <trkpt lat="44.12921" lon="2.26207">
        <ele>391</ele>
        <time>2022-09-11T08:45:09.007Z</time>
      </trkpt>
      <trkpt lat="44.12921" lon="2.26208">
        <ele>391</ele>
        <time>2022-09-11T08:45:10.007Z</time>
      </trkpt>
      <trkpt lat="44.12921" lon="2.2621">
        <ele>391</ele>
        <time>2022-09-11T08:45:11.007Z</time>
      </trkpt>
      <trkpt lat="44.12921" lon="2.26211">
        <ele>391</ele>
        <time>2022-09-11T08:45:12.007Z</time>
      </trkpt>
      <trkpt lat="44.12922" lon="2.26213">
        <ele>391</ele>
        <time>2022-09-11T08:45:13.007Z</time>
      </trkpt>
      <trkpt lat="44.12922" lon="2.26214">
        <ele>391</ele>
        <time>2022-09-11T08:45:14.007Z</time>
      </trkpt>
      <trkpt lat="44.12923" lon="2.26216">
        <ele>391</ele>
        <time>2022-09-11T08:45:15.007Z</time>
      </trkpt>
      <trkpt lat="44.12923" lon="2.26217">
        <ele>391</ele>
        <time>2022-09-11T08:45:16.007Z</time>
      </trkpt>
      <trkpt lat="44.12923" lon="2.26218">
        <ele>391</ele>
        <time>2022-09-11T08:45:17.007Z</time>
      </trkpt>
      <trkpt lat="44.12923" lon="2.26219">
        <ele>392</ele>
        <time>2022-09-11T08:45:18.007Z</time>
      </trkpt>
      <trkpt lat="44.12924" lon="2.2622">
        <ele>392</ele>
        <time>2022-09-11T08:45:19.007Z</time>
      </trkpt>
      <trkpt lat="44.12924" lon="2.26222">
        <ele>392</ele>
        <time>2022-09-11T08:45:20.007Z</time>
      </trkpt>
      <trkpt lat="44.12924" lon="2.26223">
        <ele>392</ele>
        <time>2022-09-11T08:45:21.007Z</time>
      </trkpt>
      <trkpt lat="44.12924" lon="2.26224">
        <ele>393</ele>
        <time>2022-09-11T08:45:22.007Z</time>
      </trkpt>
      <trkpt lat="44.12925" lon="2.26226">
        <ele>393</ele>
        <time>2022-09-11T08:45:23.007Z</time>
      </trkpt>
      <trkpt lat="44.12925" lon="2.26227">
        <ele>393</ele>
        <time>2022-09-11T08:45:24.007Z</time>
      </trkpt>
      <trkpt lat="44.12926" lon="2.26228">
        <ele>393</ele>
        <time>2022-09-11T08:45:25.007Z</time>
      </trkpt>
      <trkpt lat="44.12926" lon="2.26229">
        <ele>393</ele>
        <time>2022-09-11T08:45:26.007Z</time>
      </trkpt>
      <trkpt lat="44.12927" lon="2.26231">
        <ele>393</ele>
        <time>2022-09-11T08:45:27.007Z</time>
      </trkpt>
      <trkpt lat="44.12927" lon="2.26232">
        <ele>393</ele>
        <time>2022-09-11T08:45:28.007Z</time>
      </trkpt>
      <trkpt lat="44.12927" lon="2.26233">
        <ele>393</ele>
        <time>2022-09-11T08:45:29.007Z</time>
      </trkpt>
      <trkpt lat="44.12928" lon="2.26234">
        <ele>393</ele>
        <time>2022-09-11T08:45:30.007Z</time>
      </trkpt>
      <trkpt lat="44.12928" lon="2.26235">
        <ele>393</ele>
        <time>2022-09-11T08:45:31.007Z</time>
      </trkpt>
      <trkpt lat="44.12929" lon="2.26236">
        <ele>394</ele>
        <time>2022-09-11T08:45:32.007Z</time>
      </trkpt>
      <trkpt lat="44.12929" lon="2.26237">
        <ele>394</ele>
        <time>2022-09-11T08:45:33.007Z</time>
      </trkpt>
      <trkpt lat="44.1293" lon="2.26239">
        <ele>394</ele>
        <time>2022-09-11T08:45:34.007Z</time>
      </trkpt>
      <trkpt lat="44.1293" lon="2.2624">
        <ele>394</ele>
        <time>2022-09-11T08:45:35.007Z</time>
      </trkpt>
      <trkpt lat="44.1293" lon="2.26241">
        <ele>394</ele>
        <time>2022-09-11T08:45:36.007Z</time>
      </trkpt>
      <trkpt lat="44.12931" lon="2.26242">
        <ele>394</ele>
        <time>2022-09-11T08:45:37.007Z</time>
      </trkpt>
      <trkpt lat="44.12931" lon="2.26244">
        <ele>394</ele>
        <time>2022-09-11T08:45:38.007Z</time>
      </trkpt>
      <trkpt lat="44.12932" lon="2.26245">
        <ele>395</ele>
        <time>2022-09-11T08:45:39.007Z</time>
      </trkpt>
      <trkpt lat="44.12932" lon="2.26246">
        <ele>395</ele>
        <time>2022-09-11T08:45:40.007Z</time>
      </trkpt>
      <trkpt lat="44.12932" lon="2.26248">
        <ele>395</ele>
        <time>2022-09-11T08:45:41.007Z</time>
      </trkpt>
      <trkpt lat="44.12932" lon="2.26249">
        <ele>395</ele>
        <time>2022-09-11T08:45:42.007Z</time>
      </trkpt>
      <trkpt lat="44.12933" lon="2.2625">
        <ele>396</ele>
        <time>2022-09-11T08:45:43.007Z</time>
      </trkpt>
      <trkpt lat="44.12933" lon="2.26251">
        <ele>396</ele>
        <time>2022-09-11T08:45:44.007Z</time>
      </trkpt>
      <trkpt lat="44.12933" lon="2.26252">
        <ele>396</ele>
        <time>2022-09-11T08:45:45.007Z</time>
      </trkpt>
      <trkpt lat="44.12933" lon="2.26253">
        <ele>397</ele>
        <time>2022-09-11T08:45:46.007Z</time>
      </trkpt>
      <trkpt lat="44.12933" lon="2.26255">
        <ele>397</ele>
        <time>2022-09-11T08:45:47.007Z</time>
      </trkpt>
      <trkpt lat="44.12934" lon="2.26256">
        <ele>397</ele>
        <time>2022-09-11T08:45:48.007Z</time>
      </trkpt>
      <trkpt lat="44.12934" lon="2.26257">
        <ele>397</ele>
        <time>2022-09-11T08:45:49.007Z</time>
      </trkpt>
      <trkpt lat="44.12935" lon="2.26259">
        <ele>397</ele>
        <time>2022-09-11T08:45:50.007Z</time>
      </trkpt>
      <trkpt lat="44.12935" lon="2.2626">
        <ele>397</ele>
        <time>2022-09-11T08:45:51.007Z</time>
      </trkpt>
      <trkpt lat="44.12936" lon="2.26262">
        <ele>398</ele>
        <time>2022-09-11T08:45:52.007Z</time>
      </trkpt>
      <trkpt lat="44.12936" lon="2.26263">
        <ele>398</ele>
        <time>2022-09-11T08:45:53.007Z</time>
      </trkpt>
      <trkpt lat="44.12937" lon="2.26265">
        <ele>398</ele>
        <time>2022-09-11T08:45:54.007Z</time>
      </trkpt>
      <trkpt lat="44.12937" lon="2.26266">
        <ele>398</ele>
        <time>2022-09-11T08:45:55.007Z</time>
      </trkpt>
      <trkpt lat="44.12937" lon="2.26267">
        <ele>398</ele>
        <time>2022-09-11T08:45:56.007Z</time>
      </trkpt>
      <trkpt lat="44.12937" lon="2.26268">
        <ele>398</ele>
        <time>2022-09-11T08:45:57.007Z</time>
      </trkpt>
      <trkpt lat="44.12937" lon="2.2627">
        <ele>399</ele>
        <time>2022-09-11T08:45:58.007Z</time>
      </trkpt>
      <trkpt lat="44.12938" lon="2.26271">
        <ele>399</ele>
        <time>2022-09-11T08:45:59.007Z</time>
      </trkpt>
      <trkpt lat="44.12938" lon="2.26272">
        <ele>399</ele>
        <time>2022-09-11T08:46:00.007Z</time>
      </trkpt>
      <trkpt lat="44.12938" lon="2.26273">
        <ele>399</ele>
        <time>2022-09-11T08:46:01.007Z</time>
      </trkpt>
      <trkpt lat="44.12938" lon="2.26275">
        <ele>399</ele>
        <time>2022-09-11T08:46:02.007Z</time>
      </trkpt>
      <trkpt lat="44.12939" lon="2.26277">
        <ele>400</ele>
        <time>2022-09-11T08:46:03.007Z</time>
      </trkpt>
      <trkpt lat="44.12939" lon="2.26278">
        <ele>400</ele>
        <time>2022-09-11T08:46:04.007Z</time>
      </trkpt>
      <trkpt lat="44.12939" lon="2.2628">
        <ele>400</ele>
        <time>2022-09-11T08:46:05.007Z</time>
      </trkpt>
      <trkpt lat="44.12939" lon="2.26281">
        <ele>400</ele>
        <time>2022-09-11T08:46:06.007Z</time>
      </trkpt>
      <trkpt lat="44.12939" lon="2.26283">
        <ele>400</ele>
        <time>2022-09-11T08:46:07.007Z</time>
      </trkpt>
      <trkpt lat="44.1294" lon="2.26285">
        <ele>400</ele>
        <time>2022-09-11T08:46:08.007Z</time>
      </trkpt>
      <trkpt lat="44.1294" lon="2.26287">
        <ele>400</ele>
        <time>2022-09-11T08:46:09.007Z</time>
      </trkpt>
      <trkpt lat="44.1294" lon="2.26288">
        <ele>400</ele>
        <time>2022-09-11T08:46:10.007Z</time>
      </trkpt>
      <trkpt lat="44.1294" lon="2.2629">
        <ele>400</ele>
        <time>2022-09-11T08:46:11.007Z</time>
      </trkpt>
      <trkpt lat="44.12941" lon="2.26291">
        <ele>400</ele>
        <time>2022-09-11T08:46:12.007Z</time>
      </trkpt>
      <trkpt lat="44.12941" lon="2.26292">
        <ele>400</ele>
        <time>2022-09-11T08:46:13.007Z</time>
      </trkpt>
      <trkpt lat="44.12941" lon="2.26294">
        <ele>400</ele>
        <time>2022-09-11T08:46:14.007Z</time>
      </trkpt>
      <trkpt lat="44.12941" lon="2.26295">
        <ele>401</ele>
        <time>2022-09-11T08:46:15.007Z</time>
      </trkpt>
      <trkpt lat="44.12941" lon="2.26297">
        <ele>401</ele>
        <time>2022-09-11T08:46:16.007Z</time>
      </trkpt>
      <trkpt lat="44.12941" lon="2.26298">
        <ele>401</ele>
        <time>2022-09-11T08:46:17.007Z</time>
      </trkpt>
      <trkpt lat="44.12941" lon="2.263">
        <ele>401</ele>
        <time>2022-09-11T08:46:18.007Z</time>
      </trkpt>
      <trkpt lat="44.12942" lon="2.26301">
        <ele>401</ele>
        <time>2022-09-11T08:46:19.007Z</time>
      </trkpt>
      <trkpt lat="44.12942" lon="2.26303">
        <ele>401</ele>
        <time>2022-09-11T08:46:20.007Z</time>
      </trkpt>
      <trkpt lat="44.12942" lon="2.26304">
        <ele>401</ele>
        <time>2022-09-11T08:46:21.007Z</time>
      </trkpt>
      <trkpt lat="44.12942" lon="2.26305">
        <ele>401</ele>
        <time>2022-09-11T08:46:22.007Z</time>
      </trkpt>
      <trkpt lat="44.12942" lon="2.26307">
        <ele>401</ele>
        <time>2022-09-11T08:46:23.007Z</time>
      </trkpt>
      <trkpt lat="44.12942" lon="2.26308">
        <ele>401</ele>
        <time>2022-09-11T08:46:24.007Z</time>
      </trkpt>
      <trkpt lat="44.12943" lon="2.2631">
        <ele>401</ele>
        <time>2022-09-11T08:46:25.007Z</time>
      </trkpt>
      <trkpt lat="44.12943" lon="2.26311">
        <ele>401</ele>
        <time>2022-09-11T08:46:26.007Z</time>
      </trkpt>
      <trkpt lat="44.12943" lon="2.26313">
        <ele>401</ele>
        <time>2022-09-11T08:46:27.007Z</time>
      </trkpt>
      <trkpt lat="44.12943" lon="2.26314">
        <ele>401</ele>
        <time>2022-09-11T08:46:28.007Z</time>
      </trkpt>
      <trkpt lat="44.12944" lon="2.26316">
        <ele>401</ele>
        <time>2022-09-11T08:46:29.007Z</time>
      </trkpt>
      <trkpt lat="44.12944" lon="2.26317">
        <ele>401</ele>
        <time>2022-09-11T08:46:30.007Z</time>
      </trkpt>
      <trkpt lat="44.12944" lon="2.26318">
        <ele>401</ele>
        <time>2022-09-11T08:46:31.007Z</time>
      </trkpt>
      <trkpt lat="44.12944" lon="2.2632">
        <ele>401</ele>
        <time>2022-09-11T08:46:32.007Z</time>
      </trkpt>
      <trkpt lat="44.12944" lon="2.26321">
        <ele>402</ele>
        <time>2022-09-11T08:46:33.007Z</time>
      </trkpt>
      <trkpt lat="44.12944" lon="2.26322">
        <ele>402</ele>
        <time>2022-09-11T08:46:34.007Z</time>
      </trkpt>
      <trkpt lat="44.12944" lon="2.26324">
        <ele>402</ele>
        <time>2022-09-11T08:46:35.007Z</time>
      </trkpt>
      <trkpt lat="44.12944" lon="2.26325">
        <ele>402</ele>
        <time>2022-09-11T08:46:36.007Z</time>
      </trkpt>
      <trkpt lat="44.12944" lon="2.26327">
        <ele>402</ele>
        <time>2022-09-11T08:46:37.007Z</time>
      </trkpt>
      <trkpt lat="44.12944" lon="2.26328">
        <ele>402</ele>
        <time>2022-09-11T08:46:38.007Z</time>
      </trkpt>
      <trkpt lat="44.12944" lon="2.26329">
        <ele>402</ele>
        <time>2022-09-11T08:46:39.007Z</time>
      </trkpt>
      <trkpt lat="44.12944" lon="2.26331">
        <ele>402</ele>
        <time>2022-09-11T08:46:40.007Z</time>
      </trkpt>
      <trkpt lat="44.12944" lon="2.26332">
        <ele>402</ele>
        <time>2022-09-11T08:46:41.007Z</time>
      </trkpt>
      <trkpt lat="44.12944" lon="2.26333">
        <ele>402</ele>
        <time>2022-09-11T08:46:42.007Z</time>
      </trkpt>
      <trkpt lat="44.12944" lon="2.26334">
        <ele>402</ele>
        <time>2022-09-11T08:46:43.007Z</time>
      </trkpt>
      <trkpt lat="44.12944" lon="2.26335">
        <ele>402</ele>
        <time>2022-09-11T08:46:44.007Z</time>
      </trkpt>
      <trkpt lat="44.12943" lon="2.26336">
        <ele>402</ele>
        <time>2022-09-11T08:46:45.007Z</time>
      </trkpt>
      <trkpt lat="44.12943" lon="2.26337">
        <ele>402</ele>
        <time>2022-09-11T08:46:46.007Z</time>
      </trkpt>
      <trkpt lat="44.12943" lon="2.26337">
        <ele>403</ele>
        <time>2022-09-11T08:46:47.007Z</time>
      </trkpt>
      <trkpt lat="44.12943" lon="2.26337">
        <ele>403</ele>
        <time>2022-09-11T08:46:48.007Z</time>
      </trkpt>
      <trkpt lat="44.12943" lon="2.26337">
        <ele>403</ele>
        <time>2022-09-11T08:46:49.007Z</time>
      </trkpt>
      <trkpt lat="44.12943" lon="2.2634">
        <ele>403</ele>
        <time>2022-09-11T08:47:04.021Z</time>
      </trkpt>
      <trkpt lat="44.12943" lon="2.2634">
        <ele>403</ele>
        <time>2022-09-11T08:47:05.021Z</time>
      </trkpt>
      <trkpt lat="44.12943" lon="2.26341">
        <ele>403</ele>
        <time>2022-09-11T08:47:06.021Z</time>
      </trkpt>
      <trkpt lat="44.12943" lon="2.26341">
        <ele>402</ele>
        <time>2022-09-11T08:47:07.021Z</time>
      </trkpt>
      <trkpt lat="44.12942" lon="2.26341">
        <ele>402</ele>
        <time>2022-09-11T08:47:08.021Z</time>
      </trkpt>
      <trkpt lat="44.12942" lon="2.26341">
        <ele>402</ele>
        <time>2022-09-11T08:47:09.021Z</time>
      </trkpt>
      <trkpt lat="44.12942" lon="2.26343">
        <ele>402</ele>
        <time>2022-09-11T08:47:23.020Z</time>
      </trkpt>
      <trkpt lat="44.12942" lon="2.26344">
        <ele>402</ele>
        <time>2022-09-11T08:47:24.020Z</time>
      </trkpt>
      <trkpt lat="44.12942" lon="2.26344">
        <ele>402</ele>
        <time>2022-09-11T08:47:25.020Z</time>
      </trkpt>
      <trkpt lat="44.12942" lon="2.26344">
        <ele>402</ele>
        <time>2022-09-11T08:47:26.020Z</time>
      </trkpt>
      <trkpt lat="44.12942" lon="2.26345">
        <ele>402</ele>
        <time>2022-09-11T08:47:27.020Z</time>
      </trkpt>
      <trkpt lat="44.12942" lon="2.26345">
        <ele>402</ele>
        <time>2022-09-11T08:47:28.020Z</time>
      </trkpt>
      <trkpt lat="44.12942" lon="2.26346">
        <ele>402</ele>
        <time>2022-09-11T08:47:29.020Z</time>
      </trkpt>
      <trkpt lat="44.12943" lon="2.26347">
        <ele>402</ele>
        <time>2022-09-11T08:47:39.034Z</time>
      </trkpt>
      <trkpt lat="44.12943" lon="2.26348">
        <ele>402</ele>
        <time>2022-09-11T08:47:40.034Z</time>
      </trkpt>
      <trkpt lat="44.12943" lon="2.2635">
        <ele>402</ele>
        <time>2022-09-11T08:47:41.034Z</time>
      </trkpt>
      <trkpt lat="44.12944" lon="2.26351">
        <ele>403</ele>
        <time>2022-09-11T08:47:42.034Z</time>
      </trkpt>
      <trkpt lat="44.12944" lon="2.26352">
        <ele>403</ele>
        <time>2022-09-11T08:47:43.034Z</time>
      </trkpt>
      <trkpt lat="44.12944" lon="2.26354">
        <ele>402</ele>
        <time>2022-09-11T08:47:44.034Z</time>
      </trkpt>
      <trkpt lat="44.12944" lon="2.26355">
        <ele>402</ele>
        <time>2022-09-11T08:47:45.034Z</time>
      </trkpt>
      <trkpt lat="44.12944" lon="2.26357">
        <ele>402</ele>
        <time>2022-09-11T08:47:46.034Z</time>
      </trkpt>
      <trkpt lat="44.12945" lon="2.26358">
        <ele>403</ele>
        <time>2022-09-11T08:47:47.034Z</time>
      </trkpt>
      <trkpt lat="44.12945" lon="2.2636">
        <ele>403</ele>
        <time>2022-09-11T08:47:48.034Z</time>
      </trkpt>
      <trkpt lat="44.12945" lon="2.26361">
        <ele>403</ele>
        <time>2022-09-11T08:47:49.034Z</time>
      </trkpt>
      <trkpt lat="44.12945" lon="2.26362">
        <ele>403</ele>
        <time>2022-09-11T08:47:50.034Z</time>
      </trkpt>
      <trkpt lat="44.12945" lon="2.26363">
        <ele>403</ele>
        <time>2022-09-11T08:47:51.034Z</time>
      </trkpt>
      <trkpt lat="44.12945" lon="2.26364">
        <ele>403</ele>
        <time>2022-09-11T08:47:52.034Z</time>
      </trkpt>
      <trkpt lat="44.12945" lon="2.26365">
        <ele>403</ele>
        <time>2022-09-11T08:47:53.034Z</time>
      </trkpt>
      <trkpt lat="44.12945" lon="2.26367">
        <ele>403</ele>
        <time>2022-09-11T08:47:54.034Z</time>
      </trkpt>
      <trkpt lat="44.12945" lon="2.26368">
        <ele>403</ele>
        <time>2022-09-11T08:47:55.034Z</time>
      </trkpt>
      <trkpt lat="44.12945" lon="2.26369">
        <ele>403</ele>
        <time>2022-09-11T08:47:56.034Z</time>
      </trkpt>
      <trkpt lat="44.12945" lon="2.2637">
        <ele>403</ele>
        <time>2022-09-11T08:47:57.034Z</time>
      </trkpt>
      <trkpt lat="44.12944" lon="2.26372">
        <ele>403</ele>
        <time>2022-09-11T08:47:58.034Z</time>
      </trkpt>
      <trkpt lat="44.12944" lon="2.26373">
        <ele>403</ele>
        <time>2022-09-11T08:47:59.034Z</time>
      </trkpt>
      <trkpt lat="44.12944" lon="2.26374">
        <ele>403</ele>
        <time>2022-09-11T08:48:00.034Z</time>
      </trkpt>
      <trkpt lat="44.12944" lon="2.26376">
        <ele>403</ele>
        <time>2022-09-11T08:48:01.034Z</time>
      </trkpt>
      <trkpt lat="44.12944" lon="2.26377">
        <ele>403</ele>
        <time>2022-09-11T08:48:02.034Z</time>
      </trkpt>
      <trkpt lat="44.12944" lon="2.26378">
        <ele>403</ele>
        <time>2022-09-11T08:48:03.034Z</time>
      </trkpt>
      <trkpt lat="44.12945" lon="2.26379">
        <ele>403</ele>
        <time>2022-09-11T08:48:04.034Z</time>
      </trkpt>
      <trkpt lat="44.12945" lon="2.26381">
        <ele>403</ele>
        <time>2022-09-11T08:48:05.034Z</time>
      </trkpt>
      <trkpt lat="44.12945" lon="2.26382">
        <ele>403</ele>
        <time>2022-09-11T08:48:06.034Z</time>
      </trkpt>
      <trkpt lat="44.12945" lon="2.26384">
        <ele>403</ele>
        <time>2022-09-11T08:48:07.034Z</time>
      </trkpt>
      <trkpt lat="44.12945" lon="2.26385">
        <ele>403</ele>
        <time>2022-09-11T08:48:08.034Z</time>
      </trkpt>
      <trkpt lat="44.12945" lon="2.26386">
        <ele>403</ele>
        <time>2022-09-11T08:48:09.034Z</time>
      </trkpt>
      <trkpt lat="44.12944" lon="2.26388">
        <ele>403</ele>
        <time>2022-09-11T08:48:10.034Z</time>
      </trkpt>
      <trkpt lat="44.12944" lon="2.26389">
        <ele>403</ele>
        <time>2022-09-11T08:48:11.034Z</time>
      </trkpt>
      <trkpt lat="44.12944" lon="2.26391">
        <ele>403</ele>
        <time>2022-09-11T08:48:12.034Z</time>
      </trkpt>
      <trkpt lat="44.12944" lon="2.26392">
        <ele>403</ele>
        <time>2022-09-11T08:48:13.034Z</time>
      </trkpt>
      <trkpt lat="44.12943" lon="2.26393">
        <ele>403</ele>
        <time>2022-09-11T08:48:14.034Z</time>
      </trkpt>
      <trkpt lat="44.12943" lon="2.26395">
        <ele>403</ele>
        <time>2022-09-11T08:48:15.034Z</time>
      </trkpt>
      <trkpt lat="44.12943" lon="2.26396">
        <ele>404</ele>
        <time>2022-09-11T08:48:16.034Z</time>
      </trkpt>
      <trkpt lat="44.12943" lon="2.26398">
        <ele>404</ele>
        <time>2022-09-11T08:48:17.034Z</time>
      </trkpt>
      <trkpt lat="44.12943" lon="2.26399">
        <ele>404</ele>
        <time>2022-09-11T08:48:18.034Z</time>
      </trkpt>
      <trkpt lat="44.12943" lon="2.264">
        <ele>404</ele>
        <time>2022-09-11T08:48:19.034Z</time>
      </trkpt>
      <trkpt lat="44.12943" lon="2.26402">
        <ele>404</ele>
        <time>2022-09-11T08:48:20.034Z</time>
      </trkpt>
      <trkpt lat="44.12942" lon="2.26403">
        <ele>404</ele>
        <time>2022-09-11T08:48:21.034Z</time>
      </trkpt>
      <trkpt lat="44.12942" lon="2.26403">
        <ele>404</ele>
        <time>2022-09-11T08:48:22.034Z</time>
      </trkpt>
      <trkpt lat="44.12942" lon="2.26403">
        <ele>404</ele>
        <time>2022-09-11T08:48:23.034Z</time>
      </trkpt>
      <trkpt lat="44.12942" lon="2.26403">
        <ele>404</ele>
        <time>2022-09-11T08:48:24.034Z</time>
      </trkpt>
      <trkpt lat="44.12942" lon="2.26403">
        <ele>405</ele>
        <time>2022-09-11T08:48:25.034Z</time>
      </trkpt>
      <trkpt lat="44.1294" lon="2.26403">
        <ele>405</ele>
        <time>2022-09-11T08:48:52.034Z</time>
      </trkpt>
      <trkpt lat="44.1294" lon="2.26403">
        <ele>405</ele>
        <time>2022-09-11T08:48:53.034Z</time>
      </trkpt>
      <trkpt lat="44.1294" lon="2.26403">
        <ele>405</ele>
        <time>2022-09-11T08:48:54.034Z</time>
      </trkpt>
      <trkpt lat="44.1294" lon="2.26403">
        <ele>405</ele>
        <time>2022-09-11T08:48:55.034Z</time>
      </trkpt>
      <trkpt lat="44.1294" lon="2.26403">
        <ele>405</ele>
        <time>2022-09-11T08:48:56.034Z</time>
      </trkpt>
      <trkpt lat="44.12941" lon="2.26403">
        <ele>405</ele>
        <time>2022-09-11T08:48:59.288Z</time>
      </trkpt>
      <trkpt lat="44.12942" lon="2.26402">
        <ele>405</ele>
        <time>2022-09-11T08:49:00.288Z</time>
      </trkpt>
      <trkpt lat="44.12942" lon="2.26402">
        <ele>405</ele>
        <time>2022-09-11T08:49:01.288Z</time>
      </trkpt>
      <trkpt lat="44.12943" lon="2.26402">
        <ele>405</ele>
        <time>2022-09-11T08:49:02.288Z</time>
      </trkpt>
      <trkpt lat="44.12944" lon="2.26402">
        <ele>405</ele>
        <time>2022-09-11T08:49:03.288Z</time>
      </trkpt>
      <trkpt lat="44.12944" lon="2.26403">
        <ele>405</ele>
        <time>2022-09-11T08:49:04.288Z</time>
      </trkpt>
      <trkpt lat="44.12945" lon="2.26403">
        <ele>405</ele>
        <time>2022-09-11T08:49:05.288Z</time>
      </trkpt>
      <trkpt lat="44.12945" lon="2.26403">
        <ele>405</ele>
        <time>2022-09-11T08:49:06.288Z</time>
      </trkpt>
      <trkpt lat="44.12945" lon="2.26404">
        <ele>405</ele>
        <time>2022-09-11T08:49:07.288Z</time>
      </trkpt>
      <trkpt lat="44.12945" lon="2.26405">
        <ele>405</ele>
        <time>2022-09-11T08:49:08.288Z</time>
      </trkpt>
      <trkpt lat="44.12945" lon="2.26405">
        <ele>405</ele>
        <time>2022-09-11T08:49:09.288Z</time>
      </trkpt>
      <trkpt lat="44.12945" lon="2.26406">
        <ele>405</ele>
        <time>2022-09-11T08:49:10.288Z</time>
      </trkpt>
      <trkpt lat="44.12945" lon="2.26408">
        <ele>405</ele>
        <time>2022-09-11T08:49:11.288Z</time>
      </trkpt>
      <trkpt lat="44.12946" lon="2.26408">
        <ele>405</ele>
        <time>2022-09-11T08:49:12.288Z</time>
      </trkpt>
      <trkpt lat="44.12946" lon="2.26409">
        <ele>405</ele>
        <time>2022-09-11T08:49:13.288Z</time>
      </trkpt>
      <trkpt lat="44.12946" lon="2.2641">
        <ele>405</ele>
        <time>2022-09-11T08:49:14.288Z</time>
      </trkpt>
      <trkpt lat="44.12946" lon="2.26411">
        <ele>405</ele>
        <time>2022-09-11T08:49:15.288Z</time>
      </trkpt>
      <trkpt lat="44.12946" lon="2.26411">
        <ele>405</ele>
        <time>2022-09-11T08:49:16.288Z</time>
      </trkpt>
      <trkpt lat="44.12946" lon="2.26415">
        <ele>406</ele>
        <time>2022-09-11T08:49:31.288Z</time>
      </trkpt>
      <trkpt lat="44.12946" lon="2.26416">
        <ele>406</ele>
        <time>2022-09-11T08:49:32.288Z</time>
      </trkpt>
      <trkpt lat="44.12945" lon="2.26416">
        <ele>405</ele>
        <time>2022-09-11T08:49:33.288Z</time>
      </trkpt>
      <trkpt lat="44.12945" lon="2.26417">
        <ele>405</ele>
        <time>2022-09-11T08:49:34.288Z</time>
      </trkpt>
      <trkpt lat="44.12945" lon="2.26417">
        <ele>405</ele>
        <time>2022-09-11T08:49:35.288Z</time>
      </trkpt>
      <trkpt lat="44.12945" lon="2.26417">
        <ele>405</ele>
        <time>2022-09-11T08:49:36.288Z</time>
      </trkpt>
      <trkpt lat="44.12946" lon="2.26418">
        <ele>405</ele>
        <time>2022-09-11T08:49:54.287Z</time>
      </trkpt>
      <trkpt lat="44.12947" lon="2.26419">
        <ele>405</ele>
        <time>2022-09-11T08:49:55.287Z</time>
      </trkpt>
      <trkpt lat="44.12947" lon="2.2642">
        <ele>405</ele>
        <time>2022-09-11T08:49:56.287Z</time>
      </trkpt>
      <trkpt lat="44.12947" lon="2.2642">
        <ele>405</ele>
        <time>2022-09-11T08:49:57.287Z</time>
      </trkpt>
      <trkpt lat="44.12947" lon="2.2642">
        <ele>405</ele>
        <time>2022-09-11T08:49:58.287Z</time>
      </trkpt>
      <trkpt lat="44.12947" lon="2.2642">
        <ele>405</ele>
        <time>2022-09-11T08:49:59.287Z</time>
      </trkpt>
      <trkpt lat="44.12947" lon="2.26421">
        <ele>405</ele>
        <time>2022-09-11T08:50:00.287Z</time>
      </trkpt>
      <trkpt lat="44.12947" lon="2.26421">
        <ele>405</ele>
        <time>2022-09-11T08:50:01.287Z</time>
      </trkpt>
      <trkpt lat="44.12947" lon="2.26422">
        <ele>405</ele>
        <time>2022-09-11T08:50:02.287Z</time>
      </trkpt>
      <trkpt lat="44.12947" lon="2.26422">
        <ele>405</ele>
        <time>2022-09-11T08:50:03.287Z</time>
      </trkpt>
      <trkpt lat="44.12947" lon="2.26422">
        <ele>405</ele>
        <time>2022-09-11T08:50:04.287Z</time>
      </trkpt>
      <trkpt lat="44.12947" lon="2.26422">
        <ele>405</ele>
        <time>2022-09-11T08:50:05.287Z</time>
      </trkpt>
      <trkpt lat="44.12948" lon="2.2642">
        <ele>404</ele>
        <time>2022-09-11T08:50:39.288Z</time>
      </trkpt>
      <trkpt lat="44.12948" lon="2.26419">
        <ele>404</ele>
        <time>2022-09-11T08:50:40.288Z</time>
      </trkpt>
      <trkpt lat="44.12949" lon="2.26419">
        <ele>404</ele>
        <time>2022-09-11T08:50:41.288Z</time>
      </trkpt>
      <trkpt lat="44.12949" lon="2.26418">
        <ele>404</ele>
        <time>2022-09-11T08:50:42.288Z</time>
      </trkpt>
      <trkpt lat="44.1295" lon="2.26418">
        <ele>404</ele>
        <time>2022-09-11T08:50:43.288Z</time>
      </trkpt>
      <trkpt lat="44.1295" lon="2.26418">
        <ele>404</ele>
        <time>2022-09-11T08:50:44.288Z</time>
      </trkpt>
      <trkpt lat="44.1295" lon="2.26418">
        <ele>404</ele>
        <time>2022-09-11T08:50:45.288Z</time>
      </trkpt>
      <trkpt lat="44.1295" lon="2.26418">
        <ele>404</ele>
        <time>2022-09-11T08:50:46.288Z</time>
      </trkpt>
      <trkpt lat="44.1295" lon="2.26419">
        <ele>404</ele>
        <time>2022-09-11T08:50:51.288Z</time>
      </trkpt>
      <trkpt lat="44.1295" lon="2.2642">
        <ele>404</ele>
        <time>2022-09-11T08:50:52.288Z</time>
      </trkpt>
      <trkpt lat="44.1295" lon="2.26421">
        <ele>404</ele>
        <time>2022-09-11T08:50:53.288Z</time>
      </trkpt>
      <trkpt lat="44.1295" lon="2.26422">
        <ele>404</ele>
        <time>2022-09-11T08:50:54.288Z</time>
      </trkpt>
      <trkpt lat="44.1295" lon="2.26423">
        <ele>404</ele>
        <time>2022-09-11T08:50:55.288Z</time>
      </trkpt>
      <trkpt lat="44.1295" lon="2.26424">
        <ele>404</ele>
        <time>2022-09-11T08:50:56.288Z</time>
      </trkpt>
      <trkpt lat="44.1295" lon="2.26425">
        <ele>404</ele>
        <time>2022-09-11T08:50:57.288Z</time>
      </trkpt>
      <trkpt lat="44.1295" lon="2.26427">
        <ele>404</ele>
        <time>2022-09-11T08:50:58.288Z</time>
      </trkpt>
      <trkpt lat="44.1295" lon="2.26428">
        <ele>403</ele>
        <time>2022-09-11T08:50:59.288Z</time>
      </trkpt>
      <trkpt lat="44.12951" lon="2.26429">
        <ele>403</ele>
        <time>2022-09-11T08:51:00.288Z</time>
      </trkpt>
      <trkpt lat="44.12951" lon="2.26431">
        <ele>403</ele>
        <time>2022-09-11T08:51:01.288Z</time>
      </trkpt>
      <trkpt lat="44.12952" lon="2.26432">
        <ele>403</ele>
        <time>2022-09-11T08:51:02.288Z</time>
      </trkpt>
      <trkpt lat="44.12952" lon="2.26434">
        <ele>403</ele>
        <time>2022-09-11T08:51:03.288Z</time>
      </trkpt>
      <trkpt lat="44.12952" lon="2.26435">
        <ele>403</ele>
        <time>2022-09-11T08:51:04.288Z</time>
      </trkpt>
      <trkpt lat="44.12952" lon="2.26437">
        <ele>402</ele>
        <time>2022-09-11T08:51:05.288Z</time>
      </trkpt>
      <trkpt lat="44.12953" lon="2.26439">
        <ele>402</ele>
        <time>2022-09-11T08:51:06.288Z</time>
      </trkpt>
      <trkpt lat="44.12953" lon="2.2644">
        <ele>402</ele>
        <time>2022-09-11T08:51:07.288Z</time>
      </trkpt>
      <trkpt lat="44.12953" lon="2.26442">
        <ele>402</ele>
        <time>2022-09-11T08:51:08.288Z</time>
      </trkpt>
      <trkpt lat="44.12953" lon="2.26444">
        <ele>402</ele>
        <time>2022-09-11T08:51:09.288Z</time>
      </trkpt>
      <trkpt lat="44.12954" lon="2.26445">
        <ele>402</ele>
        <time>2022-09-11T08:51:10.288Z</time>
      </trkpt>
      <trkpt lat="44.12954" lon="2.26447">
        <ele>402</ele>
        <time>2022-09-11T08:51:11.288Z</time>
      </trkpt>
      <trkpt lat="44.12955" lon="2.26448">
        <ele>402</ele>
        <time>2022-09-11T08:51:12.288Z</time>
      </trkpt>
      <trkpt lat="44.12955" lon="2.2645">
        <ele>402</ele>
        <time>2022-09-11T08:51:13.288Z</time>
      </trkpt>
      <trkpt lat="44.12956" lon="2.26451">
        <ele>402</ele>
        <time>2022-09-11T08:51:14.288Z</time>
      </trkpt>
      <trkpt lat="44.12956" lon="2.26453">
        <ele>402</ele>
        <time>2022-09-11T08:51:15.288Z</time>
      </trkpt>
      <trkpt lat="44.12956" lon="2.26454">
        <ele>402</ele>
        <time>2022-09-11T08:51:16.288Z</time>
      </trkpt>
      <trkpt lat="44.12957" lon="2.26456">
        <ele>402</ele>
        <time>2022-09-11T08:51:17.288Z</time>
      </trkpt>
      <trkpt lat="44.12957" lon="2.26458">
        <ele>402</ele>
        <time>2022-09-11T08:51:18.288Z</time>
      </trkpt>
      <trkpt lat="44.12958" lon="2.26459">
        <ele>402</ele>
        <time>2022-09-11T08:51:19.288Z</time>
      </trkpt>
      <trkpt lat="44.12958" lon="2.26461">
        <ele>401</ele>
        <time>2022-09-11T08:51:20.288Z</time>
      </trkpt>
      <trkpt lat="44.12959" lon="2.26463">
        <ele>401</ele>
        <time>2022-09-11T08:51:21.288Z</time>
      </trkpt>
      <trkpt lat="44.12959" lon="2.26464">
        <ele>401</ele>
        <time>2022-09-11T08:51:22.288Z</time>
      </trkpt>
      <trkpt lat="44.12959" lon="2.26466">
        <ele>402</ele>
        <time>2022-09-11T08:51:23.288Z</time>
      </trkpt>
      <trkpt lat="44.1296" lon="2.26467">
        <ele>402</ele>
        <time>2022-09-11T08:51:24.288Z</time>
      </trkpt>
      <trkpt lat="44.1296" lon="2.26469">
        <ele>401</ele>
        <time>2022-09-11T08:51:25.288Z</time>
      </trkpt>
      <trkpt lat="44.12961" lon="2.2647">
        <ele>401</ele>
        <time>2022-09-11T08:51:26.288Z</time>
      </trkpt>
      <trkpt lat="44.12961" lon="2.26472">
        <ele>401</ele>
        <time>2022-09-11T08:51:27.288Z</time>
      </trkpt>
      <trkpt lat="44.12962" lon="2.26473">
        <ele>401</ele>
        <time>2022-09-11T08:51:28.288Z</time>
      </trkpt>
      <trkpt lat="44.12962" lon="2.26475">
        <ele>401</ele>
        <time>2022-09-11T08:51:29.288Z</time>
      </trkpt>
      <trkpt lat="44.12962" lon="2.26476">
        <ele>401</ele>
        <time>2022-09-11T08:51:30.288Z</time>
      </trkpt>
      <trkpt lat="44.12963" lon="2.26478">
        <ele>401</ele>
        <time>2022-09-11T08:51:31.288Z</time>
      </trkpt>
      <trkpt lat="44.12963" lon="2.2648">
        <ele>401</ele>
        <time>2022-09-11T08:51:32.288Z</time>
      </trkpt>
      <trkpt lat="44.12964" lon="2.26481">
        <ele>401</ele>
        <time>2022-09-11T08:51:33.288Z</time>
      </trkpt>
      <trkpt lat="44.12964" lon="2.26482">
        <ele>401</ele>
        <time>2022-09-11T08:51:34.288Z</time>
      </trkpt>
      <trkpt lat="44.12964" lon="2.26483">
        <ele>401</ele>
        <time>2022-09-11T08:51:35.288Z</time>
      </trkpt>
      <trkpt lat="44.12964" lon="2.26485">
        <ele>401</ele>
        <time>2022-09-11T08:51:36.288Z</time>
      </trkpt>
      <trkpt lat="44.12965" lon="2.26486">
        <ele>401</ele>
        <time>2022-09-11T08:51:37.288Z</time>
      </trkpt>
      <trkpt lat="44.12965" lon="2.26487">
        <ele>402</ele>
        <time>2022-09-11T08:51:38.288Z</time>
      </trkpt>
      <trkpt lat="44.12965" lon="2.26488">
        <ele>402</ele>
        <time>2022-09-11T08:51:39.288Z</time>
      </trkpt>
      <trkpt lat="44.12966" lon="2.26489">
        <ele>402</ele>
        <time>2022-09-11T08:51:40.288Z</time>
      </trkpt>
      <trkpt lat="44.12966" lon="2.26491">
        <ele>402</ele>
        <time>2022-09-11T08:51:41.288Z</time>
      </trkpt>
      <trkpt lat="44.12966" lon="2.26492">
        <ele>402</ele>
        <time>2022-09-11T08:51:42.288Z</time>
      </trkpt>
      <trkpt lat="44.12967" lon="2.26494">
        <ele>402</ele>
        <time>2022-09-11T08:51:43.288Z</time>
      </trkpt>
      <trkpt lat="44.12967" lon="2.26495">
        <ele>402</ele>
        <time>2022-09-11T08:51:44.288Z</time>
      </trkpt>
      <trkpt lat="44.12967" lon="2.26496">
        <ele>402</ele>
        <time>2022-09-11T08:51:45.288Z</time>
      </trkpt>
      <trkpt lat="44.12968" lon="2.26497">
        <ele>402</ele>
        <time>2022-09-11T08:51:46.288Z</time>
      </trkpt>
      <trkpt lat="44.12968" lon="2.26499">
        <ele>402</ele>
        <time>2022-09-11T08:51:47.288Z</time>
      </trkpt>
      <trkpt lat="44.12969" lon="2.265">
        <ele>402</ele>
        <time>2022-09-11T08:51:48.288Z</time>
      </trkpt>
      <trkpt lat="44.12969" lon="2.26501">
        <ele>401</ele>
        <time>2022-09-11T08:51:49.288Z</time>
      </trkpt>
      <trkpt lat="44.12969" lon="2.26502">
        <ele>401</ele>
        <time>2022-09-11T08:51:50.288Z</time>
      </trkpt>
      <trkpt lat="44.1297" lon="2.26503">
        <ele>401</ele>
        <time>2022-09-11T08:51:51.288Z</time>
      </trkpt>
      <trkpt lat="44.1297" lon="2.26504">
        <ele>401</ele>
        <time>2022-09-11T08:51:52.288Z</time>
      </trkpt>
      <trkpt lat="44.1297" lon="2.26505">
        <ele>401</ele>
        <time>2022-09-11T08:51:53.288Z</time>
      </trkpt>
      <trkpt lat="44.12971" lon="2.26506">
        <ele>401</ele>
        <time>2022-09-11T08:51:54.288Z</time>
      </trkpt>
      <trkpt lat="44.12971" lon="2.26507">
        <ele>401</ele>
        <time>2022-09-11T08:51:55.288Z</time>
      </trkpt>
      <trkpt lat="44.12971" lon="2.26508">
        <ele>401</ele>
        <time>2022-09-11T08:51:56.288Z</time>
      </trkpt>
      <trkpt lat="44.12972" lon="2.26509">
        <ele>401</ele>
        <time>2022-09-11T08:51:57.288Z</time>
      </trkpt>
      <trkpt lat="44.12972" lon="2.2651">
        <ele>401</ele>
        <time>2022-09-11T08:51:58.288Z</time>
      </trkpt>
      <trkpt lat="44.12973" lon="2.26512">
        <ele>401</ele>
        <time>2022-09-11T08:51:59.288Z</time>
      </trkpt>
      <trkpt lat="44.12973" lon="2.26513">
        <ele>401</ele>
        <time>2022-09-11T08:52:00.288Z</time>
      </trkpt>
      <trkpt lat="44.12973" lon="2.26515">
        <ele>401</ele>
        <time>2022-09-11T08:52:01.288Z</time>
      </trkpt>
      <trkpt lat="44.12974" lon="2.26516">
        <ele>401</ele>
        <time>2022-09-11T08:52:02.288Z</time>
      </trkpt>
      <trkpt lat="44.12974" lon="2.26518">
        <ele>401</ele>
        <time>2022-09-11T08:52:03.288Z</time>
      </trkpt>
      <trkpt lat="44.12975" lon="2.26519">
        <ele>401</ele>
        <time>2022-09-11T08:52:04.288Z</time>
      </trkpt>
      <trkpt lat="44.12975" lon="2.26521">
        <ele>401</ele>
        <time>2022-09-11T08:52:05.288Z</time>
      </trkpt>
      <trkpt lat="44.12976" lon="2.26522">
        <ele>401</ele>
        <time>2022-09-11T08:52:06.288Z</time>
      </trkpt>
      <trkpt lat="44.12976" lon="2.26524">
        <ele>401</ele>
        <time>2022-09-11T08:52:07.288Z</time>
      </trkpt>
      <trkpt lat="44.12976" lon="2.26525">
        <ele>401</ele>
        <time>2022-09-11T08:52:08.288Z</time>
      </trkpt>
      <trkpt lat="44.12977" lon="2.26526">
        <ele>401</ele>
        <time>2022-09-11T08:52:09.288Z</time>
      </trkpt>
      <trkpt lat="44.12977" lon="2.26528">
        <ele>400</ele>
        <time>2022-09-11T08:52:10.288Z</time>
      </trkpt>
      <trkpt lat="44.12978" lon="2.2653">
        <ele>400</ele>
        <time>2022-09-11T08:52:11.288Z</time>
      </trkpt>
      <trkpt lat="44.12978" lon="2.26531">
        <ele>400</ele>
        <time>2022-09-11T08:52:12.288Z</time>
      </trkpt>
      <trkpt lat="44.12979" lon="2.26532">
        <ele>400</ele>
        <time>2022-09-11T08:52:13.288Z</time>
      </trkpt>
      <trkpt lat="44.12979" lon="2.26534">
        <ele>400</ele>
        <time>2022-09-11T08:52:14.288Z</time>
      </trkpt>
      <trkpt lat="44.12979" lon="2.26535">
        <ele>400</ele>
        <time>2022-09-11T08:52:15.288Z</time>
      </trkpt>
      <trkpt lat="44.1298" lon="2.26537">
        <ele>400</ele>
        <time>2022-09-11T08:52:16.288Z</time>
      </trkpt>
      <trkpt lat="44.1298" lon="2.26539">
        <ele>400</ele>
        <time>2022-09-11T08:52:17.288Z</time>
      </trkpt>
      <trkpt lat="44.1298" lon="2.2654">
        <ele>400</ele>
        <time>2022-09-11T08:52:18.288Z</time>
      </trkpt>
      <trkpt lat="44.12981" lon="2.26542">
        <ele>400</ele>
        <time>2022-09-11T08:52:19.288Z</time>
      </trkpt>
      <trkpt lat="44.12981" lon="2.26543">
        <ele>400</ele>
        <time>2022-09-11T08:52:20.288Z</time>
      </trkpt>
      <trkpt lat="44.12981" lon="2.26544">
        <ele>400</ele>
        <time>2022-09-11T08:52:21.288Z</time>
      </trkpt>
      <trkpt lat="44.12982" lon="2.26546">
        <ele>400</ele>
        <time>2022-09-11T08:52:22.288Z</time>
      </trkpt>
      <trkpt lat="44.12982" lon="2.26547">
        <ele>400</ele>
        <time>2022-09-11T08:52:23.288Z</time>
      </trkpt>
      <trkpt lat="44.12983" lon="2.26549">
        <ele>400</ele>
        <time>2022-09-11T08:52:24.288Z</time>
      </trkpt>
      <trkpt lat="44.12983" lon="2.2655">
        <ele>400</ele>
        <time>2022-09-11T08:52:25.288Z</time>
      </trkpt>
      <trkpt lat="44.12984" lon="2.26552">
        <ele>399</ele>
        <time>2022-09-11T08:52:26.288Z</time>
      </trkpt>
      <trkpt lat="44.12984" lon="2.26553">
        <ele>399</ele>
        <time>2022-09-11T08:52:27.288Z</time>
      </trkpt>
      <trkpt lat="44.12985" lon="2.26554">
        <ele>399</ele>
        <time>2022-09-11T08:52:28.288Z</time>
      </trkpt>
      <trkpt lat="44.12985" lon="2.26556">
        <ele>399</ele>
        <time>2022-09-11T08:52:29.288Z</time>
      </trkpt>
      <trkpt lat="44.12985" lon="2.26557">
        <ele>399</ele>
        <time>2022-09-11T08:52:30.288Z</time>
      </trkpt>
      <trkpt lat="44.12986" lon="2.26559">
        <ele>399</ele>
        <time>2022-09-11T08:52:31.288Z</time>
      </trkpt>
      <trkpt lat="44.12986" lon="2.2656">
        <ele>399</ele>
        <time>2022-09-11T08:52:32.288Z</time>
      </trkpt>
      <trkpt lat="44.12987" lon="2.26561">
        <ele>399</ele>
        <time>2022-09-11T08:52:33.288Z</time>
      </trkpt>
      <trkpt lat="44.12987" lon="2.26563">
        <ele>399</ele>
        <time>2022-09-11T08:52:34.288Z</time>
      </trkpt>
      <trkpt lat="44.12988" lon="2.26564">
        <ele>399</ele>
        <time>2022-09-11T08:52:35.288Z</time>
      </trkpt>
      <trkpt lat="44.12988" lon="2.26565">
        <ele>399</ele>
        <time>2022-09-11T08:52:36.288Z</time>
      </trkpt>
      <trkpt lat="44.12989" lon="2.26566">
        <ele>399</ele>
        <time>2022-09-11T08:52:37.288Z</time>
      </trkpt>
      <trkpt lat="44.12989" lon="2.26567">
        <ele>399</ele>
        <time>2022-09-11T08:52:38.288Z</time>
      </trkpt>
      <trkpt lat="44.12989" lon="2.26567">
        <ele>399</ele>
        <time>2022-09-11T08:52:39.288Z</time>
      </trkpt>
      <trkpt lat="44.12989" lon="2.26567">
        <ele>399</ele>
        <time>2022-09-11T08:52:40.288Z</time>
      </trkpt>
      <trkpt lat="44.1299" lon="2.26567">
        <ele>399</ele>
        <time>2022-09-11T08:52:41.288Z</time>
      </trkpt>
      <trkpt lat="44.1299" lon="2.26567">
        <ele>399</ele>
        <time>2022-09-11T08:52:42.288Z</time>
      </trkpt>
      <trkpt lat="44.1299" lon="2.26567">
        <ele>399</ele>
        <time>2022-09-11T08:52:43.288Z</time>
      </trkpt>
      <trkpt lat="44.1299" lon="2.26567">
        <ele>399</ele>
        <time>2022-09-11T08:52:44.288Z</time>
      </trkpt>
      <trkpt lat="44.1299" lon="2.26567">
        <ele>399</ele>
        <time>2022-09-11T08:52:45.288Z</time>
      </trkpt>
      <trkpt lat="44.1299" lon="2.26569">
        <ele>399</ele>
        <time>2022-09-11T08:52:54.292Z</time>
      </trkpt>
      <trkpt lat="44.1299" lon="2.26569">
        <ele>399</ele>
        <time>2022-09-11T08:52:55.292Z</time>
      </trkpt>
      <trkpt lat="44.1299" lon="2.2657">
        <ele>399</ele>
        <time>2022-09-11T08:52:56.292Z</time>
      </trkpt>
      <trkpt lat="44.1299" lon="2.2657">
        <ele>399</ele>
        <time>2022-09-11T08:52:57.292Z</time>
      </trkpt>
      <trkpt lat="44.1299" lon="2.26571">
        <ele>398</ele>
        <time>2022-09-11T08:52:58.292Z</time>
      </trkpt>
      <trkpt lat="44.1299" lon="2.26571">
        <ele>398</ele>
        <time>2022-09-11T08:52:59.292Z</time>
      </trkpt>
      <trkpt lat="44.1299" lon="2.26572">
        <ele>399</ele>
        <time>2022-09-11T08:53:00.292Z</time>
      </trkpt>
      <trkpt lat="44.1299" lon="2.26572">
        <ele>399</ele>
        <time>2022-09-11T08:53:01.292Z</time>
      </trkpt>
      <trkpt lat="44.1299" lon="2.26573">
        <ele>399</ele>
        <time>2022-09-11T08:53:02.292Z</time>
      </trkpt>
      <trkpt lat="44.1299" lon="2.26573">
        <ele>399</ele>
        <time>2022-09-11T08:53:03.292Z</time>
      </trkpt>
      <trkpt lat="44.1299" lon="2.26573">
        <ele>399</ele>
        <time>2022-09-11T08:53:04.292Z</time>
      </trkpt>
      <trkpt lat="44.1299" lon="2.26574">
        <ele>399</ele>
        <time>2022-09-11T08:53:09.295Z</time>
      </trkpt>
      <trkpt lat="44.1299" lon="2.26575">
        <ele>399</ele>
        <time>2022-09-11T08:53:10.295Z</time>
      </trkpt>
      <trkpt lat="44.12989" lon="2.26576">
        <ele>399</ele>
        <time>2022-09-11T08:53:11.295Z</time>
      </trkpt>
      <trkpt lat="44.12989" lon="2.26576">
        <ele>399</ele>
        <time>2022-09-11T08:53:12.295Z</time>
      </trkpt>
      <trkpt lat="44.12989" lon="2.26576">
        <ele>399</ele>
        <time>2022-09-11T08:53:13.295Z</time>
      </trkpt>
      <trkpt lat="44.12989" lon="2.26576">
        <ele>399</ele>
        <time>2022-09-11T08:53:14.295Z</time>
      </trkpt>
      <trkpt lat="44.1299" lon="2.26576">
        <ele>399</ele>
        <time>2022-09-11T08:53:15.295Z</time>
      </trkpt>
      <trkpt lat="44.12989" lon="2.26575">
        <ele>400</ele>
        <time>2022-09-11T08:53:22.298Z</time>
      </trkpt>
      <trkpt lat="44.1299" lon="2.26574">
        <ele>400</ele>
        <time>2022-09-11T08:53:23.298Z</time>
      </trkpt>
      <trkpt lat="44.1299" lon="2.26573">
        <ele>400</ele>
        <time>2022-09-11T08:53:24.298Z</time>
      </trkpt>
      <trkpt lat="44.1299" lon="2.26573">
        <ele>400</ele>
        <time>2022-09-11T08:53:25.298Z</time>
      </trkpt>
      <trkpt lat="44.1299" lon="2.26573">
        <ele>400</ele>
        <time>2022-09-11T08:53:26.298Z</time>
      </trkpt>
      <trkpt lat="44.1299" lon="2.26573">
        <ele>400</ele>
        <time>2022-09-11T08:53:27.298Z</time>
      </trkpt>
      <trkpt lat="44.1299" lon="2.26574">
        <ele>400</ele>
        <time>2022-09-11T08:53:32.302Z</time>
      </trkpt>
      <trkpt lat="44.1299" lon="2.26575">
        <ele>400</ele>
        <time>2022-09-11T08:53:33.302Z</time>
      </trkpt>
      <trkpt lat="44.1299" lon="2.26577">
        <ele>400</ele>
        <time>2022-09-11T08:53:34.302Z</time>
      </trkpt>
      <trkpt lat="44.1299" lon="2.26578">
        <ele>400</ele>
        <time>2022-09-11T08:53:35.302Z</time>
      </trkpt>
      <trkpt lat="44.1299" lon="2.2658">
        <ele>400</ele>
        <time>2022-09-11T08:53:36.302Z</time>
      </trkpt>
      <trkpt lat="44.12989" lon="2.26581">
        <ele>400</ele>
        <time>2022-09-11T08:53:37.302Z</time>
      </trkpt>
      <trkpt lat="44.12989" lon="2.26583">
        <ele>400</ele>
        <time>2022-09-11T08:53:38.302Z</time>
      </trkpt>
      <trkpt lat="44.1299" lon="2.26585">
        <ele>400</ele>
        <time>2022-09-11T08:53:39.302Z</time>
      </trkpt>
      <trkpt lat="44.1299" lon="2.26586">
        <ele>400</ele>
        <time>2022-09-11T08:53:40.302Z</time>
      </trkpt>
      <trkpt lat="44.1299" lon="2.26588">
        <ele>400</ele>
        <time>2022-09-11T08:53:41.302Z</time>
      </trkpt>
      <trkpt lat="44.12991" lon="2.2659">
        <ele>400</ele>
        <time>2022-09-11T08:53:42.302Z</time>
      </trkpt>
      <trkpt lat="44.12991" lon="2.26591">
        <ele>400</ele>
        <time>2022-09-11T08:53:43.302Z</time>
      </trkpt>
      <trkpt lat="44.12991" lon="2.26593">
        <ele>400</ele>
        <time>2022-09-11T08:53:44.302Z</time>
      </trkpt>
      <trkpt lat="44.12991" lon="2.26595">
        <ele>400</ele>
        <time>2022-09-11T08:53:45.302Z</time>
      </trkpt>
      <trkpt lat="44.12991" lon="2.26597">
        <ele>400</ele>
        <time>2022-09-11T08:53:46.302Z</time>
      </trkpt>
      <trkpt lat="44.12992" lon="2.26599">
        <ele>399</ele>
        <time>2022-09-11T08:53:47.302Z</time>
      </trkpt>
      <trkpt lat="44.12992" lon="2.266">
        <ele>399</ele>
        <time>2022-09-11T08:53:48.302Z</time>
      </trkpt>
      <trkpt lat="44.12992" lon="2.26602">
        <ele>399</ele>
        <time>2022-09-11T08:53:49.302Z</time>
      </trkpt>
      <trkpt lat="44.12992" lon="2.26604">
        <ele>399</ele>
        <time>2022-09-11T08:53:50.302Z</time>
      </trkpt>
      <trkpt lat="44.12992" lon="2.26605">
        <ele>399</ele>
        <time>2022-09-11T08:53:51.302Z</time>
      </trkpt>
      <trkpt lat="44.12992" lon="2.26607">
        <ele>399</ele>
        <time>2022-09-11T08:53:52.302Z</time>
      </trkpt>
      <trkpt lat="44.12992" lon="2.26609">
        <ele>399</ele>
        <time>2022-09-11T08:53:53.302Z</time>
      </trkpt>
      <trkpt lat="44.12992" lon="2.2661">
        <ele>399</ele>
        <time>2022-09-11T08:53:54.302Z</time>
      </trkpt>
      <trkpt lat="44.12992" lon="2.26612">
        <ele>399</ele>
        <time>2022-09-11T08:53:55.302Z</time>
      </trkpt>
      <trkpt lat="44.12992" lon="2.26614">
        <ele>398</ele>
        <time>2022-09-11T08:53:56.302Z</time>
      </trkpt>
      <trkpt lat="44.12992" lon="2.26615">
        <ele>398</ele>
        <time>2022-09-11T08:53:57.302Z</time>
      </trkpt>
      <trkpt lat="44.12992" lon="2.26617">
        <ele>398</ele>
        <time>2022-09-11T08:53:58.302Z</time>
      </trkpt>
      <trkpt lat="44.12992" lon="2.26619">
        <ele>398</ele>
        <time>2022-09-11T08:53:59.302Z</time>
      </trkpt>
      <trkpt lat="44.12992" lon="2.26621">
        <ele>398</ele>
        <time>2022-09-11T08:54:00.302Z</time>
      </trkpt>
      <trkpt lat="44.12992" lon="2.26622">
        <ele>398</ele>
        <time>2022-09-11T08:54:01.302Z</time>
      </trkpt>
      <trkpt lat="44.12992" lon="2.26624">
        <ele>398</ele>
        <time>2022-09-11T08:54:02.302Z</time>
      </trkpt>
      <trkpt lat="44.12992" lon="2.26626">
        <ele>398</ele>
        <time>2022-09-11T08:54:03.302Z</time>
      </trkpt>
      <trkpt lat="44.12992" lon="2.26627">
        <ele>397</ele>
        <time>2022-09-11T08:54:04.302Z</time>
      </trkpt>
      <trkpt lat="44.12992" lon="2.26629">
        <ele>397</ele>
        <time>2022-09-11T08:54:05.302Z</time>
      </trkpt>
      <trkpt lat="44.12992" lon="2.2663">
        <ele>397</ele>
        <time>2022-09-11T08:54:06.302Z</time>
      </trkpt>
      <trkpt lat="44.12992" lon="2.26632">
        <ele>397</ele>
        <time>2022-09-11T08:54:07.302Z</time>
      </trkpt>
      <trkpt lat="44.12992" lon="2.26633">
        <ele>397</ele>
        <time>2022-09-11T08:54:08.302Z</time>
      </trkpt>
      <trkpt lat="44.12993" lon="2.26635">
        <ele>397</ele>
        <time>2022-09-11T08:54:09.302Z</time>
      </trkpt>
      <trkpt lat="44.12993" lon="2.26637">
        <ele>397</ele>
        <time>2022-09-11T08:54:10.302Z</time>
      </trkpt>
      <trkpt lat="44.12993" lon="2.26638">
        <ele>396</ele>
        <time>2022-09-11T08:54:11.302Z</time>
      </trkpt>
      <trkpt lat="44.12993" lon="2.26639">
        <ele>396</ele>
        <time>2022-09-11T08:54:12.302Z</time>
      </trkpt>
      <trkpt lat="44.12993" lon="2.2664">
        <ele>396</ele>
        <time>2022-09-11T08:54:13.302Z</time>
      </trkpt>
      <trkpt lat="44.12993" lon="2.26641">
        <ele>396</ele>
        <time>2022-09-11T08:54:14.302Z</time>
      </trkpt>
      <trkpt lat="44.12994" lon="2.26642">
        <ele>396</ele>
        <time>2022-09-11T08:54:15.302Z</time>
      </trkpt>
      <trkpt lat="44.12994" lon="2.26643">
        <ele>395</ele>
        <time>2022-09-11T08:54:16.302Z</time>
      </trkpt>
      <trkpt lat="44.12994" lon="2.26644">
        <ele>395</ele>
        <time>2022-09-11T08:54:17.302Z</time>
      </trkpt>
      <trkpt lat="44.12993" lon="2.26646">
        <ele>395</ele>
        <time>2022-09-11T08:54:18.302Z</time>
      </trkpt>
      <trkpt lat="44.12993" lon="2.26647">
        <ele>395</ele>
        <time>2022-09-11T08:54:19.302Z</time>
      </trkpt>
      <trkpt lat="44.12993" lon="2.26647">
        <ele>395</ele>
        <time>2022-09-11T08:54:20.302Z</time>
      </trkpt>
      <trkpt lat="44.12993" lon="2.26648">
        <ele>395</ele>
        <time>2022-09-11T08:54:21.302Z</time>
      </trkpt>
      <trkpt lat="44.12993" lon="2.26648">
        <ele>395</ele>
        <time>2022-09-11T08:54:22.302Z</time>
      </trkpt>
      <trkpt lat="44.12992" lon="2.26648">
        <ele>395</ele>
        <time>2022-09-11T08:54:23.302Z</time>
      </trkpt>
      <trkpt lat="44.12992" lon="2.26649">
        <ele>395</ele>
        <time>2022-09-11T08:54:24.302Z</time>
      </trkpt>
      <trkpt lat="44.12991" lon="2.2665">
        <ele>395</ele>
        <time>2022-09-11T08:54:25.302Z</time>
      </trkpt>
      <trkpt lat="44.1299" lon="2.26651">
        <ele>395</ele>
        <time>2022-09-11T08:54:26.302Z</time>
      </trkpt>
      <trkpt lat="44.1299" lon="2.26652">
        <ele>395</ele>
        <time>2022-09-11T08:54:27.302Z</time>
      </trkpt>
      <trkpt lat="44.12989" lon="2.26654">
        <ele>395</ele>
        <time>2022-09-11T08:54:28.302Z</time>
      </trkpt>
      <trkpt lat="44.12989" lon="2.26655">
        <ele>395</ele>
        <time>2022-09-11T08:54:29.302Z</time>
      </trkpt>
      <trkpt lat="44.12988" lon="2.26656">
        <ele>395</ele>
        <time>2022-09-11T08:54:30.302Z</time>
      </trkpt>
      <trkpt lat="44.12988" lon="2.26657">
        <ele>395</ele>
        <time>2022-09-11T08:54:31.302Z</time>
      </trkpt>
      <trkpt lat="44.12988" lon="2.26658">
        <ele>395</ele>
        <time>2022-09-11T08:54:32.302Z</time>
      </trkpt>
      <trkpt lat="44.12987" lon="2.26659">
        <ele>395</ele>
        <time>2022-09-11T08:54:33.302Z</time>
      </trkpt>
      <trkpt lat="44.12987" lon="2.2666">
        <ele>395</ele>
        <time>2022-09-11T08:54:34.302Z</time>
      </trkpt>
      <trkpt lat="44.12987" lon="2.26661">
        <ele>395</ele>
        <time>2022-09-11T08:54:35.302Z</time>
      </trkpt>
      <trkpt lat="44.12986" lon="2.26662">
        <ele>395</ele>
        <time>2022-09-11T08:54:36.302Z</time>
      </trkpt>
      <trkpt lat="44.12986" lon="2.26663">
        <ele>395</ele>
        <time>2022-09-11T08:54:37.302Z</time>
      </trkpt>
      <trkpt lat="44.12985" lon="2.26664">
        <ele>395</ele>
        <time>2022-09-11T08:54:38.302Z</time>
      </trkpt>
      <trkpt lat="44.12984" lon="2.26664">
        <ele>395</ele>
        <time>2022-09-11T08:54:39.302Z</time>
      </trkpt>
      <trkpt lat="44.12984" lon="2.26664">
        <ele>395</ele>
        <time>2022-09-11T08:54:40.302Z</time>
      </trkpt>
      <trkpt lat="44.12983" lon="2.26664">
        <ele>395</ele>
        <time>2022-09-11T08:54:41.302Z</time>
      </trkpt>
      <trkpt lat="44.12983" lon="2.26664">
        <ele>395</ele>
        <time>2022-09-11T08:54:42.302Z</time>
      </trkpt>
      <trkpt lat="44.12983" lon="2.26665">
        <ele>395</ele>
        <time>2022-09-11T08:54:43.302Z</time>
      </trkpt>
      <trkpt lat="44.12982" lon="2.26666">
        <ele>395</ele>
        <time>2022-09-11T08:54:44.302Z</time>
      </trkpt>
      <trkpt lat="44.12982" lon="2.26667">
        <ele>395</ele>
        <time>2022-09-11T08:54:45.302Z</time>
      </trkpt>
      <trkpt lat="44.12981" lon="2.26668">
        <ele>395</ele>
        <time>2022-09-11T08:54:46.302Z</time>
      </trkpt>
      <trkpt lat="44.1298" lon="2.26669">
        <ele>395</ele>
        <time>2022-09-11T08:54:47.302Z</time>
      </trkpt>
      <trkpt lat="44.1298" lon="2.26671">
        <ele>395</ele>
        <time>2022-09-11T08:54:48.302Z</time>
      </trkpt>
      <trkpt lat="44.12979" lon="2.26673">
        <ele>395</ele>
        <time>2022-09-11T08:54:49.302Z</time>
      </trkpt>
      <trkpt lat="44.12978" lon="2.26674">
        <ele>394</ele>
        <time>2022-09-11T08:54:50.302Z</time>
      </trkpt>
      <trkpt lat="44.12977" lon="2.26675">
        <ele>394</ele>
        <time>2022-09-11T08:54:51.302Z</time>
      </trkpt>
      <trkpt lat="44.12977" lon="2.26676">
        <ele>395</ele>
        <time>2022-09-11T08:54:52.302Z</time>
      </trkpt>
      <trkpt lat="44.12976" lon="2.26677">
        <ele>394</ele>
        <time>2022-09-11T08:54:53.302Z</time>
      </trkpt>
      <trkpt lat="44.12976" lon="2.26679">
        <ele>394</ele>
        <time>2022-09-11T08:54:54.302Z</time>
      </trkpt>
      <trkpt lat="44.12975" lon="2.2668">
        <ele>395</ele>
        <time>2022-09-11T08:54:55.302Z</time>
      </trkpt>
      <trkpt lat="44.12974" lon="2.26682">
        <ele>395</ele>
        <time>2022-09-11T08:54:56.302Z</time>
      </trkpt>
      <trkpt lat="44.12974" lon="2.26683">
        <ele>395</ele>
        <time>2022-09-11T08:54:57.302Z</time>
      </trkpt>
      <trkpt lat="44.12973" lon="2.26684">
        <ele>395</ele>
        <time>2022-09-11T08:54:58.302Z</time>
      </trkpt>
      <trkpt lat="44.12972" lon="2.26685">
        <ele>395</ele>
        <time>2022-09-11T08:54:59.302Z</time>
      </trkpt>
      <trkpt lat="44.12971" lon="2.26686">
        <ele>395</ele>
        <time>2022-09-11T08:55:00.302Z</time>
      </trkpt>
      <trkpt lat="44.12971" lon="2.26687">
        <ele>395</ele>
        <time>2022-09-11T08:55:01.302Z</time>
      </trkpt>
      <trkpt lat="44.1297" lon="2.26688">
        <ele>395</ele>
        <time>2022-09-11T08:55:02.302Z</time>
      </trkpt>
      <trkpt lat="44.12969" lon="2.2669">
        <ele>395</ele>
        <time>2022-09-11T08:55:03.302Z</time>
      </trkpt>
      <trkpt lat="44.12968" lon="2.26691">
        <ele>395</ele>
        <time>2022-09-11T08:55:04.302Z</time>
      </trkpt>
      <trkpt lat="44.12967" lon="2.26692">
        <ele>395</ele>
        <time>2022-09-11T08:55:05.302Z</time>
      </trkpt>
      <trkpt lat="44.12967" lon="2.26694">
        <ele>395</ele>
        <time>2022-09-11T08:55:06.302Z</time>
      </trkpt>
      <trkpt lat="44.12966" lon="2.26695">
        <ele>395</ele>
        <time>2022-09-11T08:55:07.302Z</time>
      </trkpt>
      <trkpt lat="44.12965" lon="2.26696">
        <ele>395</ele>
        <time>2022-09-11T08:55:08.302Z</time>
      </trkpt>
      <trkpt lat="44.12964" lon="2.26696">
        <ele>395</ele>
        <time>2022-09-11T08:55:09.302Z</time>
      </trkpt>
      <trkpt lat="44.12963" lon="2.26697">
        <ele>395</ele>
        <time>2022-09-11T08:55:10.302Z</time>
      </trkpt>
      <trkpt lat="44.12962" lon="2.26698">
        <ele>395</ele>
        <time>2022-09-11T08:55:11.302Z</time>
      </trkpt>
      <trkpt lat="44.12962" lon="2.26698">
        <ele>395</ele>
        <time>2022-09-11T08:55:12.302Z</time>
      </trkpt>
      <trkpt lat="44.12961" lon="2.26699">
        <ele>395</ele>
        <time>2022-09-11T08:55:13.302Z</time>
      </trkpt>
      <trkpt lat="44.1296" lon="2.26699">
        <ele>395</ele>
        <time>2022-09-11T08:55:14.302Z</time>
      </trkpt>
      <trkpt lat="44.12959" lon="2.26699">
        <ele>395</ele>
        <time>2022-09-11T08:55:15.302Z</time>
      </trkpt>
      <trkpt lat="44.12959" lon="2.26699">
        <ele>395</ele>
        <time>2022-09-11T08:55:16.302Z</time>
      </trkpt>
      <trkpt lat="44.12959" lon="2.26699">
        <ele>395</ele>
        <time>2022-09-11T08:55:17.302Z</time>
      </trkpt>
      <trkpt lat="44.12959" lon="2.267">
        <ele>395</ele>
        <time>2022-09-11T08:55:18.302Z</time>
      </trkpt>
      <trkpt lat="44.12957" lon="2.267">
        <ele>395</ele>
        <time>2022-09-11T08:55:22.304Z</time>
      </trkpt>
      <trkpt lat="44.12956" lon="2.267">
        <ele>395</ele>
        <time>2022-09-11T08:55:23.304Z</time>
      </trkpt>
      <trkpt lat="44.12955" lon="2.267">
        <ele>395</ele>
        <time>2022-09-11T08:55:24.304Z</time>
      </trkpt>
      <trkpt lat="44.12954" lon="2.267">
        <ele>395</ele>
        <time>2022-09-11T08:55:25.304Z</time>
      </trkpt>
      <trkpt lat="44.12954" lon="2.26699">
        <ele>395</ele>
        <time>2022-09-11T08:55:26.304Z</time>
      </trkpt>
      <trkpt lat="44.12953" lon="2.26699">
        <ele>395</ele>
        <time>2022-09-11T08:55:27.304Z</time>
      </trkpt>
      <trkpt lat="44.12952" lon="2.26699">
        <ele>395</ele>
        <time>2022-09-11T08:55:28.304Z</time>
      </trkpt>
      <trkpt lat="44.12952" lon="2.26698">
        <ele>395</ele>
        <time>2022-09-11T08:55:29.304Z</time>
      </trkpt>
      <trkpt lat="44.12951" lon="2.26698">
        <ele>394</ele>
        <time>2022-09-11T08:55:30.304Z</time>
      </trkpt>
      <trkpt lat="44.12951" lon="2.26698">
        <ele>394</ele>
        <time>2022-09-11T08:55:31.304Z</time>
      </trkpt>
      <trkpt lat="44.12951" lon="2.26698">
        <ele>394</ele>
        <time>2022-09-11T08:55:32.304Z</time>
      </trkpt>
      <trkpt lat="44.12951" lon="2.26698">
        <ele>394</ele>
        <time>2022-09-11T08:55:33.304Z</time>
      </trkpt>
      <trkpt lat="44.1295" lon="2.26696">
        <ele>395</ele>
        <time>2022-09-11T08:56:49.311Z</time>
      </trkpt>
      <trkpt lat="44.12949" lon="2.26695">
        <ele>395</ele>
        <time>2022-09-11T08:56:50.311Z</time>
      </trkpt>
      <trkpt lat="44.12949" lon="2.26695">
        <ele>395</ele>
        <time>2022-09-11T08:56:51.311Z</time>
      </trkpt>
      <trkpt lat="44.12948" lon="2.26694">
        <ele>395</ele>
        <time>2022-09-11T08:56:52.311Z</time>
      </trkpt>
      <trkpt lat="44.12948" lon="2.26693">
        <ele>395</ele>
        <time>2022-09-11T08:56:53.311Z</time>
      </trkpt>
      <trkpt lat="44.12947" lon="2.26693">
        <ele>395</ele>
        <time>2022-09-11T08:56:54.311Z</time>
      </trkpt>
      <trkpt lat="44.12947" lon="2.26692">
        <ele>395</ele>
        <time>2022-09-11T08:56:55.311Z</time>
      </trkpt>
      <trkpt lat="44.12946" lon="2.26691">
        <ele>395</ele>
        <time>2022-09-11T08:56:56.311Z</time>
      </trkpt>
      <trkpt lat="44.12945" lon="2.2669">
        <ele>395</ele>
        <time>2022-09-11T08:56:57.311Z</time>
      </trkpt>
      <trkpt lat="44.12945" lon="2.2669">
        <ele>394</ele>
        <time>2022-09-11T08:56:58.311Z</time>
      </trkpt>
      <trkpt lat="44.12944" lon="2.26688">
        <ele>394</ele>
        <time>2022-09-11T08:56:59.311Z</time>
      </trkpt>
      <trkpt lat="44.12943" lon="2.26687">
        <ele>394</ele>
        <time>2022-09-11T08:57:00.311Z</time>
      </trkpt>
      <trkpt lat="44.12943" lon="2.26686">
        <ele>394</ele>
        <time>2022-09-11T08:57:01.311Z</time>
      </trkpt>
      <trkpt lat="44.12942" lon="2.26685">
        <ele>394</ele>
        <time>2022-09-11T08:57:02.311Z</time>
      </trkpt>
      <trkpt lat="44.12941" lon="2.26684">
        <ele>394</ele>
        <time>2022-09-11T08:57:03.311Z</time>
      </trkpt>
      <trkpt lat="44.12941" lon="2.26683">
        <ele>394</ele>
        <time>2022-09-11T08:57:04.311Z</time>
      </trkpt>
      <trkpt lat="44.1294" lon="2.26682">
        <ele>394</ele>
        <time>2022-09-11T08:57:05.311Z</time>
      </trkpt>
      <trkpt lat="44.1294" lon="2.26681">
        <ele>394</ele>
        <time>2022-09-11T08:57:06.311Z</time>
      </trkpt>
      <trkpt lat="44.12939" lon="2.26679">
        <ele>394</ele>
        <time>2022-09-11T08:57:07.311Z</time>
      </trkpt>
      <trkpt lat="44.12938" lon="2.26678">
        <ele>393</ele>
        <time>2022-09-11T08:57:08.311Z</time>
      </trkpt>
      <trkpt lat="44.12937" lon="2.26677">
        <ele>393</ele>
        <time>2022-09-11T08:57:09.311Z</time>
      </trkpt>
      <trkpt lat="44.12936" lon="2.26676">
        <ele>393</ele>
        <time>2022-09-11T08:57:10.311Z</time>
      </trkpt>
      <trkpt lat="44.12936" lon="2.26675">
        <ele>393</ele>
        <time>2022-09-11T08:57:11.311Z</time>
      </trkpt>
      <trkpt lat="44.12935" lon="2.26674">
        <ele>393</ele>
        <time>2022-09-11T08:57:12.311Z</time>
      </trkpt>
      <trkpt lat="44.12934" lon="2.26673">
        <ele>393</ele>
        <time>2022-09-11T08:57:13.311Z</time>
      </trkpt>
      <trkpt lat="44.12933" lon="2.26672">
        <ele>392</ele>
        <time>2022-09-11T08:57:14.311Z</time>
      </trkpt>
      <trkpt lat="44.12933" lon="2.2667">
        <ele>392</ele>
        <time>2022-09-11T08:57:15.311Z</time>
      </trkpt>
      <trkpt lat="44.12932" lon="2.26669">
        <ele>392</ele>
        <time>2022-09-11T08:57:16.311Z</time>
      </trkpt>
      <trkpt lat="44.12931" lon="2.26668">
        <ele>392</ele>
        <time>2022-09-11T08:57:17.311Z</time>
      </trkpt>
      <trkpt lat="44.1293" lon="2.26667">
        <ele>392</ele>
        <time>2022-09-11T08:57:18.311Z</time>
      </trkpt>
      <trkpt lat="44.12929" lon="2.26666">
        <ele>392</ele>
        <time>2022-09-11T08:57:19.311Z</time>
      </trkpt>
      <trkpt lat="44.12928" lon="2.26665">
        <ele>392</ele>
        <time>2022-09-11T08:57:20.311Z</time>
      </trkpt>
      <trkpt lat="44.12928" lon="2.26664">
        <ele>392</ele>
        <time>2022-09-11T08:57:21.311Z</time>
      </trkpt>
      <trkpt lat="44.12927" lon="2.26663">
        <ele>392</ele>
        <time>2022-09-11T08:57:22.311Z</time>
      </trkpt>
      <trkpt lat="44.12926" lon="2.26662">
        <ele>392</ele>
        <time>2022-09-11T08:57:23.311Z</time>
      </trkpt>
      <trkpt lat="44.12926" lon="2.26661">
        <ele>391</ele>
        <time>2022-09-11T08:57:24.311Z</time>
      </trkpt>
      <trkpt lat="44.12925" lon="2.2666">
        <ele>391</ele>
        <time>2022-09-11T08:57:25.311Z</time>
      </trkpt>
      <trkpt lat="44.12925" lon="2.26659">
        <ele>391</ele>
        <time>2022-09-11T08:57:26.311Z</time>
      </trkpt>
      <trkpt lat="44.12924" lon="2.26658">
        <ele>391</ele>
        <time>2022-09-11T08:57:27.311Z</time>
      </trkpt>
      <trkpt lat="44.12923" lon="2.26657">
        <ele>391</ele>
        <time>2022-09-11T08:57:28.311Z</time>
      </trkpt>
      <trkpt lat="44.12922" lon="2.26655">
        <ele>391</ele>
        <time>2022-09-11T08:57:29.311Z</time>
      </trkpt>
      <trkpt lat="44.12921" lon="2.26654">
        <ele>391</ele>
        <time>2022-09-11T08:57:30.311Z</time>
      </trkpt>
      <trkpt lat="44.1292" lon="2.26653">
        <ele>391</ele>
        <time>2022-09-11T08:57:31.311Z</time>
      </trkpt>
      <trkpt lat="44.1292" lon="2.26652">
        <ele>391</ele>
        <time>2022-09-11T08:57:32.311Z</time>
      </trkpt>
      <trkpt lat="44.12919" lon="2.26651">
        <ele>391</ele>
        <time>2022-09-11T08:57:33.311Z</time>
      </trkpt>
      <trkpt lat="44.12918" lon="2.2665">
        <ele>391</ele>
        <time>2022-09-11T08:57:34.311Z</time>
      </trkpt>
      <trkpt lat="44.12917" lon="2.26649">
        <ele>391</ele>
        <time>2022-09-11T08:57:35.311Z</time>
      </trkpt>
      <trkpt lat="44.12917" lon="2.26649">
        <ele>391</ele>
        <time>2022-09-11T08:57:36.311Z</time>
      </trkpt>
      <trkpt lat="44.12916" lon="2.26647">
        <ele>391</ele>
        <time>2022-09-11T08:57:37.311Z</time>
      </trkpt>
      <trkpt lat="44.12915" lon="2.26646">
        <ele>391</ele>
        <time>2022-09-11T08:57:38.311Z</time>
      </trkpt>
      <trkpt lat="44.12915" lon="2.26645">
        <ele>391</ele>
        <time>2022-09-11T08:57:39.311Z</time>
      </trkpt>
      <trkpt lat="44.12914" lon="2.26644">
        <ele>391</ele>
        <time>2022-09-11T08:57:40.311Z</time>
      </trkpt>
      <trkpt lat="44.12914" lon="2.26642">
        <ele>391</ele>
        <time>2022-09-11T08:57:41.311Z</time>
      </trkpt>
      <trkpt lat="44.12913" lon="2.26641">
        <ele>391</ele>
        <time>2022-09-11T08:57:42.311Z</time>
      </trkpt>
      <trkpt lat="44.12912" lon="2.2664">
        <ele>391</ele>
        <time>2022-09-11T08:57:43.311Z</time>
      </trkpt>
      <trkpt lat="44.12912" lon="2.26638">
        <ele>391</ele>
        <time>2022-09-11T08:57:44.311Z</time>
      </trkpt>
      <trkpt lat="44.12911" lon="2.26637">
        <ele>391</ele>
        <time>2022-09-11T08:57:45.311Z</time>
      </trkpt>
      <trkpt lat="44.1291" lon="2.26635">
        <ele>391</ele>
        <time>2022-09-11T08:57:46.311Z</time>
      </trkpt>
      <trkpt lat="44.12909" lon="2.26634">
        <ele>391</ele>
        <time>2022-09-11T08:57:47.311Z</time>
      </trkpt>
      <trkpt lat="44.12908" lon="2.26632">
        <ele>391</ele>
        <time>2022-09-11T08:57:48.311Z</time>
      </trkpt>
      <trkpt lat="44.12908" lon="2.26631">
        <ele>391</ele>
        <time>2022-09-11T08:57:49.311Z</time>
      </trkpt>
      <trkpt lat="44.12907" lon="2.26629">
        <ele>391</ele>
        <time>2022-09-11T08:57:50.311Z</time>
      </trkpt>
      <trkpt lat="44.12906" lon="2.26628">
        <ele>391</ele>
        <time>2022-09-11T08:57:51.311Z</time>
      </trkpt>
      <trkpt lat="44.12906" lon="2.26627">
        <ele>391</ele>
        <time>2022-09-11T08:57:52.311Z</time>
      </trkpt>
      <trkpt lat="44.12905" lon="2.26625">
        <ele>391</ele>
        <time>2022-09-11T08:57:53.311Z</time>
      </trkpt>
      <trkpt lat="44.12904" lon="2.26624">
        <ele>390</ele>
        <time>2022-09-11T08:57:54.311Z</time>
      </trkpt>
      <trkpt lat="44.12903" lon="2.26622">
        <ele>390</ele>
        <time>2022-09-11T08:57:55.311Z</time>
      </trkpt>
      <trkpt lat="44.12902" lon="2.26621">
        <ele>390</ele>
        <time>2022-09-11T08:57:56.311Z</time>
      </trkpt>
      <trkpt lat="44.12902" lon="2.26619">
        <ele>390</ele>
        <time>2022-09-11T08:57:57.311Z</time>
      </trkpt>
      <trkpt lat="44.12901" lon="2.26618">
        <ele>390</ele>
        <time>2022-09-11T08:57:58.311Z</time>
      </trkpt>
      <trkpt lat="44.12901" lon="2.26617">
        <ele>390</ele>
        <time>2022-09-11T08:57:59.311Z</time>
      </trkpt>
      <trkpt lat="44.129" lon="2.26615">
        <ele>390</ele>
        <time>2022-09-11T08:58:00.311Z</time>
      </trkpt>
      <trkpt lat="44.129" lon="2.26614">
        <ele>390</ele>
        <time>2022-09-11T08:58:01.311Z</time>
      </trkpt>
      <trkpt lat="44.12899" lon="2.26613">
        <ele>390</ele>
        <time>2022-09-11T08:58:02.311Z</time>
      </trkpt>
      <trkpt lat="44.12898" lon="2.26611">
        <ele>390</ele>
        <time>2022-09-11T08:58:03.311Z</time>
      </trkpt>
      <trkpt lat="44.12898" lon="2.2661">
        <ele>390</ele>
        <time>2022-09-11T08:58:04.311Z</time>
      </trkpt>
      <trkpt lat="44.12897" lon="2.2661">
        <ele>390</ele>
        <time>2022-09-11T08:58:05.311Z</time>
      </trkpt>
      <trkpt lat="44.12897" lon="2.2661">
        <ele>389</ele>
        <time>2022-09-11T08:58:06.311Z</time>
      </trkpt>
      <trkpt lat="44.12897" lon="2.2661">
        <ele>389</ele>
        <time>2022-09-11T08:58:07.311Z</time>
      </trkpt>
      <trkpt lat="44.12896" lon="2.2661">
        <ele>389</ele>
        <time>2022-09-11T08:58:08.311Z</time>
      </trkpt>
      <trkpt lat="44.12896" lon="2.2661">
        <ele>389</ele>
        <time>2022-09-11T08:58:09.311Z</time>
      </trkpt>
      <trkpt lat="44.12895" lon="2.26606">
        <ele>390</ele>
        <time>2022-09-11T08:58:39.317Z</time>
      </trkpt>
      <trkpt lat="44.12894" lon="2.26604">
        <ele>390</ele>
        <time>2022-09-11T08:58:40.317Z</time>
      </trkpt>
      <trkpt lat="44.12893" lon="2.26603">
        <ele>390</ele>
        <time>2022-09-11T08:58:41.317Z</time>
      </trkpt>
      <trkpt lat="44.12893" lon="2.26603">
        <ele>390</ele>
        <time>2022-09-11T08:58:42.317Z</time>
      </trkpt>
      <trkpt lat="44.12893" lon="2.26603">
        <ele>389</ele>
        <time>2022-09-11T08:58:43.317Z</time>
      </trkpt>
      <trkpt lat="44.12892" lon="2.26602">
        <ele>389</ele>
        <time>2022-09-11T08:58:44.317Z</time>
      </trkpt>
      <trkpt lat="44.12892" lon="2.26601">
        <ele>389</ele>
        <time>2022-09-11T08:58:45.317Z</time>
      </trkpt>
      <trkpt lat="44.12891" lon="2.266">
        <ele>389</ele>
        <time>2022-09-11T08:58:46.317Z</time>
      </trkpt>
      <trkpt lat="44.12891" lon="2.26599">
        <ele>389</ele>
        <time>2022-09-11T08:58:47.317Z</time>
      </trkpt>
      <trkpt lat="44.1289" lon="2.26598">
        <ele>389</ele>
        <time>2022-09-11T08:58:48.317Z</time>
      </trkpt>
      <trkpt lat="44.12889" lon="2.26597">
        <ele>389</ele>
        <time>2022-09-11T08:58:49.317Z</time>
      </trkpt>
      <trkpt lat="44.12889" lon="2.26596">
        <ele>389</ele>
        <time>2022-09-11T08:58:50.317Z</time>
      </trkpt>
      <trkpt lat="44.12888" lon="2.26595">
        <ele>389</ele>
        <time>2022-09-11T08:58:51.317Z</time>
      </trkpt>
      <trkpt lat="44.12887" lon="2.26594">
        <ele>389</ele>
        <time>2022-09-11T08:58:52.317Z</time>
      </trkpt>
      <trkpt lat="44.12886" lon="2.26593">
        <ele>389</ele>
        <time>2022-09-11T08:58:53.317Z</time>
      </trkpt>
      <trkpt lat="44.12886" lon="2.26592">
        <ele>389</ele>
        <time>2022-09-11T08:58:54.317Z</time>
      </trkpt>
      <trkpt lat="44.12885" lon="2.26591">
        <ele>388</ele>
        <time>2022-09-11T08:58:55.317Z</time>
      </trkpt>
      <trkpt lat="44.12885" lon="2.26591">
        <ele>388</ele>
        <time>2022-09-11T08:58:56.317Z</time>
      </trkpt>
      <trkpt lat="44.12884" lon="2.2659">
        <ele>388</ele>
        <time>2022-09-11T08:58:57.317Z</time>
      </trkpt>
      <trkpt lat="44.12883" lon="2.26589">
        <ele>388</ele>
        <time>2022-09-11T08:58:58.317Z</time>
      </trkpt>
      <trkpt lat="44.12882" lon="2.26589">
        <ele>388</ele>
        <time>2022-09-11T08:58:59.317Z</time>
      </trkpt>
      <trkpt lat="44.12882" lon="2.26588">
        <ele>388</ele>
        <time>2022-09-11T08:59:00.317Z</time>
      </trkpt>
      <trkpt lat="44.12881" lon="2.26587">
        <ele>388</ele>
        <time>2022-09-11T08:59:01.317Z</time>
      </trkpt>
      <trkpt lat="44.1288" lon="2.26586">
        <ele>388</ele>
        <time>2022-09-11T08:59:02.317Z</time>
      </trkpt>
      <trkpt lat="44.12879" lon="2.26586">
        <ele>388</ele>
        <time>2022-09-11T08:59:03.317Z</time>
      </trkpt>
      <trkpt lat="44.12878" lon="2.26585">
        <ele>388</ele>
        <time>2022-09-11T08:59:04.317Z</time>
      </trkpt>
      <trkpt lat="44.12878" lon="2.26585">
        <ele>388</ele>
        <time>2022-09-11T08:59:05.317Z</time>
      </trkpt>
      <trkpt lat="44.12877" lon="2.26584">
        <ele>388</ele>
        <time>2022-09-11T08:59:06.317Z</time>
      </trkpt>
      <trkpt lat="44.12876" lon="2.26584">
        <ele>388</ele>
        <time>2022-09-11T08:59:07.317Z</time>
      </trkpt>
      <trkpt lat="44.12875" lon="2.26583">
        <ele>388</ele>
        <time>2022-09-11T08:59:08.317Z</time>
      </trkpt>
      <trkpt lat="44.12874" lon="2.26582">
        <ele>387</ele>
        <time>2022-09-11T08:59:09.317Z</time>
      </trkpt>
      <trkpt lat="44.12874" lon="2.26581">
        <ele>387</ele>
        <time>2022-09-11T08:59:10.317Z</time>
      </trkpt>
      <trkpt lat="44.12873" lon="2.26581">
        <ele>387</ele>
        <time>2022-09-11T08:59:11.317Z</time>
      </trkpt>
      <trkpt lat="44.12872" lon="2.26581">
        <ele>387</ele>
        <time>2022-09-11T08:59:12.317Z</time>
      </trkpt>
      <trkpt lat="44.12872" lon="2.2658">
        <ele>387</ele>
        <time>2022-09-11T08:59:13.317Z</time>
      </trkpt>
      <trkpt lat="44.12871" lon="2.2658">
        <ele>387</ele>
        <time>2022-09-11T08:59:14.317Z</time>
      </trkpt>
      <trkpt lat="44.1287" lon="2.2658">
        <ele>387</ele>
        <time>2022-09-11T08:59:15.317Z</time>
      </trkpt>
      <trkpt lat="44.12869" lon="2.2658">
        <ele>387</ele>
        <time>2022-09-11T08:59:16.317Z</time>
      </trkpt>
      <trkpt lat="44.12868" lon="2.26579">
        <ele>387</ele>
        <time>2022-09-11T08:59:17.317Z</time>
      </trkpt>
      <trkpt lat="44.12867" lon="2.26579">
        <ele>387</ele>
        <time>2022-09-11T08:59:18.317Z</time>
      </trkpt>
      <trkpt lat="44.12866" lon="2.26579">
        <ele>387</ele>
        <time>2022-09-11T08:59:19.317Z</time>
      </trkpt>
      <trkpt lat="44.12865" lon="2.26578">
        <ele>387</ele>
        <time>2022-09-11T08:59:20.317Z</time>
      </trkpt>
      <trkpt lat="44.12864" lon="2.26578">
        <ele>387</ele>
        <time>2022-09-11T08:59:21.317Z</time>
      </trkpt>
      <trkpt lat="44.12863" lon="2.26578">
        <ele>387</ele>
        <time>2022-09-11T08:59:22.317Z</time>
      </trkpt>
      <trkpt lat="44.12862" lon="2.26577">
        <ele>387</ele>
        <time>2022-09-11T08:59:23.317Z</time>
      </trkpt>
      <trkpt lat="44.1286" lon="2.26577">
        <ele>387</ele>
        <time>2022-09-11T08:59:24.317Z</time>
      </trkpt>
      <trkpt lat="44.12859" lon="2.26577">
        <ele>386</ele>
        <time>2022-09-11T08:59:25.317Z</time>
      </trkpt>
      <trkpt lat="44.12858" lon="2.26577">
        <ele>386</ele>
        <time>2022-09-11T08:59:26.317Z</time>
      </trkpt>
      <trkpt lat="44.12856" lon="2.26577">
        <ele>386</ele>
        <time>2022-09-11T08:59:27.317Z</time>
      </trkpt>
      <trkpt lat="44.12855" lon="2.26577">
        <ele>386</ele>
        <time>2022-09-11T08:59:28.317Z</time>
      </trkpt>
      <trkpt lat="44.12854" lon="2.26577">
        <ele>386</ele>
        <time>2022-09-11T08:59:29.317Z</time>
      </trkpt>
      <trkpt lat="44.12853" lon="2.26578">
        <ele>386</ele>
        <time>2022-09-11T08:59:30.317Z</time>
      </trkpt>
      <trkpt lat="44.12852" lon="2.26578">
        <ele>386</ele>
        <time>2022-09-11T08:59:31.317Z</time>
      </trkpt>
      <trkpt lat="44.1285" lon="2.26578">
        <ele>386</ele>
        <time>2022-09-11T08:59:32.317Z</time>
      </trkpt>
      <trkpt lat="44.12849" lon="2.26578">
        <ele>386</ele>
        <time>2022-09-11T08:59:33.317Z</time>
      </trkpt>
      <trkpt lat="44.12848" lon="2.26578">
        <ele>386</ele>
        <time>2022-09-11T08:59:34.317Z</time>
      </trkpt>
      <trkpt lat="44.12847" lon="2.26579">
        <ele>386</ele>
        <time>2022-09-11T08:59:35.317Z</time>
      </trkpt>
      <trkpt lat="44.12845" lon="2.26579">
        <ele>386</ele>
        <time>2022-09-11T08:59:36.317Z</time>
      </trkpt>
      <trkpt lat="44.12844" lon="2.26579">
        <ele>386</ele>
        <time>2022-09-11T08:59:37.317Z</time>
      </trkpt>
      <trkpt lat="44.12843" lon="2.2658">
        <ele>386</ele>
        <time>2022-09-11T08:59:38.317Z</time>
      </trkpt>
      <trkpt lat="44.12841" lon="2.2658">
        <ele>386</ele>
        <time>2022-09-11T08:59:39.317Z</time>
      </trkpt>
      <trkpt lat="44.1284" lon="2.26581">
        <ele>386</ele>
        <time>2022-09-11T08:59:40.317Z</time>
      </trkpt>
      <trkpt lat="44.12838" lon="2.26581">
        <ele>386</ele>
        <time>2022-09-11T08:59:41.317Z</time>
      </trkpt>
      <trkpt lat="44.12837" lon="2.26582">
        <ele>386</ele>
        <time>2022-09-11T08:59:42.317Z</time>
      </trkpt>
      <trkpt lat="44.12835" lon="2.26582">
        <ele>386</ele>
        <time>2022-09-11T08:59:43.317Z</time>
      </trkpt>
      <trkpt lat="44.12834" lon="2.26583">
        <ele>386</ele>
        <time>2022-09-11T08:59:44.317Z</time>
      </trkpt>
      <trkpt lat="44.12833" lon="2.26583">
        <ele>386</ele>
        <time>2022-09-11T08:59:45.317Z</time>
      </trkpt>
      <trkpt lat="44.12832" lon="2.26583">
        <ele>385</ele>
        <time>2022-09-11T08:59:46.317Z</time>
      </trkpt>
      <trkpt lat="44.1283" lon="2.26583">
        <ele>385</ele>
        <time>2022-09-11T08:59:47.317Z</time>
      </trkpt>
      <trkpt lat="44.12829" lon="2.26583">
        <ele>385</ele>
        <time>2022-09-11T08:59:48.317Z</time>
      </trkpt>
      <trkpt lat="44.12828" lon="2.26583">
        <ele>385</ele>
        <time>2022-09-11T08:59:49.317Z</time>
      </trkpt>
      <trkpt lat="44.12827" lon="2.26583">
        <ele>385</ele>
        <time>2022-09-11T08:59:50.317Z</time>
      </trkpt>
      <trkpt lat="44.12826" lon="2.26582">
        <ele>385</ele>
        <time>2022-09-11T08:59:51.317Z</time>
      </trkpt>
      <trkpt lat="44.12824" lon="2.26582">
        <ele>385</ele>
        <time>2022-09-11T08:59:52.317Z</time>
      </trkpt>
      <trkpt lat="44.12823" lon="2.26581">
        <ele>385</ele>
        <time>2022-09-11T08:59:53.317Z</time>
      </trkpt>
      <trkpt lat="44.12823" lon="2.26581">
        <ele>385</ele>
        <time>2022-09-11T08:59:54.317Z</time>
      </trkpt>
      <trkpt lat="44.12822" lon="2.26581">
        <ele>385</ele>
        <time>2022-09-11T08:59:55.317Z</time>
      </trkpt>
      <trkpt lat="44.12821" lon="2.2658">
        <ele>385</ele>
        <time>2022-09-11T08:59:56.317Z</time>
      </trkpt>
      <trkpt lat="44.1282" lon="2.26579">
        <ele>385</ele>
        <time>2022-09-11T08:59:57.317Z</time>
      </trkpt>
      <trkpt lat="44.12819" lon="2.26579">
        <ele>385</ele>
        <time>2022-09-11T08:59:58.317Z</time>
      </trkpt>
      <trkpt lat="44.12818" lon="2.26578">
        <ele>384</ele>
        <time>2022-09-11T08:59:59.317Z</time>
      </trkpt>
      <trkpt lat="44.12817" lon="2.26577">
        <ele>384</ele>
        <time>2022-09-11T09:00:00.317Z</time>
      </trkpt>
      <trkpt lat="44.12816" lon="2.26577">
        <ele>384</ele>
        <time>2022-09-11T09:00:01.317Z</time>
      </trkpt>
      <trkpt lat="44.12815" lon="2.26576">
        <ele>384</ele>
        <time>2022-09-11T09:00:02.317Z</time>
      </trkpt>
      <trkpt lat="44.12814" lon="2.26576">
        <ele>384</ele>
        <time>2022-09-11T09:00:03.317Z</time>
      </trkpt>
      <trkpt lat="44.12814" lon="2.26575">
        <ele>384</ele>
        <time>2022-09-11T09:00:04.317Z</time>
      </trkpt>
      <trkpt lat="44.12813" lon="2.26574">
        <ele>384</ele>
        <time>2022-09-11T09:00:05.317Z</time>
      </trkpt>
      <trkpt lat="44.12812" lon="2.26574">
        <ele>384</ele>
        <time>2022-09-11T09:00:06.317Z</time>
      </trkpt>
      <trkpt lat="44.12811" lon="2.26574">
        <ele>384</ele>
        <time>2022-09-11T09:00:07.317Z</time>
      </trkpt>
      <trkpt lat="44.1281" lon="2.26573">
        <ele>384</ele>
        <time>2022-09-11T09:00:08.317Z</time>
      </trkpt>
      <trkpt lat="44.12809" lon="2.26573">
        <ele>384</ele>
        <time>2022-09-11T09:00:09.317Z</time>
      </trkpt>
      <trkpt lat="44.12807" lon="2.26573">
        <ele>384</ele>
        <time>2022-09-11T09:00:10.317Z</time>
      </trkpt>
      <trkpt lat="44.12806" lon="2.26572">
        <ele>384</ele>
        <time>2022-09-11T09:00:11.317Z</time>
      </trkpt>
      <trkpt lat="44.12805" lon="2.26572">
        <ele>384</ele>
        <time>2022-09-11T09:00:12.317Z</time>
      </trkpt>
      <trkpt lat="44.12805" lon="2.26572">
        <ele>385</ele>
        <time>2022-09-11T09:00:13.317Z</time>
      </trkpt>
      <trkpt lat="44.12804" lon="2.26572">
        <ele>385</ele>
        <time>2022-09-11T09:00:14.317Z</time>
      </trkpt>
      <trkpt lat="44.12803" lon="2.26571">
        <ele>385</ele>
        <time>2022-09-11T09:00:15.317Z</time>
      </trkpt>
      <trkpt lat="44.12802" lon="2.26571">
        <ele>385</ele>
        <time>2022-09-11T09:00:16.317Z</time>
      </trkpt>
      <trkpt lat="44.12801" lon="2.2657">
        <ele>385</ele>
        <time>2022-09-11T09:00:17.317Z</time>
      </trkpt>
      <trkpt lat="44.128" lon="2.2657">
        <ele>385</ele>
        <time>2022-09-11T09:00:18.317Z</time>
      </trkpt>
      <trkpt lat="44.12799" lon="2.26569">
        <ele>385</ele>
        <time>2022-09-11T09:00:19.317Z</time>
      </trkpt>
      <trkpt lat="44.12798" lon="2.26569">
        <ele>385</ele>
        <time>2022-09-11T09:00:20.317Z</time>
      </trkpt>
      <trkpt lat="44.12797" lon="2.26568">
        <ele>385</ele>
        <time>2022-09-11T09:00:21.317Z</time>
      </trkpt>
      <trkpt lat="44.12797" lon="2.26567">
        <ele>385</ele>
        <time>2022-09-11T09:00:22.317Z</time>
      </trkpt>
      <trkpt lat="44.12795" lon="2.26567">
        <ele>385</ele>
        <time>2022-09-11T09:00:23.317Z</time>
      </trkpt>
      <trkpt lat="44.12794" lon="2.26567">
        <ele>385</ele>
        <time>2022-09-11T09:00:24.317Z</time>
      </trkpt>
      <trkpt lat="44.12794" lon="2.26567">
        <ele>385</ele>
        <time>2022-09-11T09:00:25.317Z</time>
      </trkpt>
      <trkpt lat="44.12793" lon="2.26567">
        <ele>385</ele>
        <time>2022-09-11T09:00:26.317Z</time>
      </trkpt>
      <trkpt lat="44.12792" lon="2.26566">
        <ele>386</ele>
        <time>2022-09-11T09:00:27.317Z</time>
      </trkpt>
      <trkpt lat="44.12791" lon="2.26566">
        <ele>386</ele>
        <time>2022-09-11T09:00:28.317Z</time>
      </trkpt>
      <trkpt lat="44.12789" lon="2.26566">
        <ele>386</ele>
        <time>2022-09-11T09:00:29.317Z</time>
      </trkpt>
      <trkpt lat="44.12788" lon="2.26565">
        <ele>386</ele>
        <time>2022-09-11T09:00:30.317Z</time>
      </trkpt>
      <trkpt lat="44.12787" lon="2.26565">
        <ele>386</ele>
        <time>2022-09-11T09:00:31.317Z</time>
      </trkpt>
      <trkpt lat="44.12786" lon="2.26564">
        <ele>386</ele>
        <time>2022-09-11T09:00:32.317Z</time>
      </trkpt>
      <trkpt lat="44.12785" lon="2.26564">
        <ele>386</ele>
        <time>2022-09-11T09:00:33.317Z</time>
      </trkpt>
      <trkpt lat="44.12784" lon="2.26564">
        <ele>386</ele>
        <time>2022-09-11T09:00:34.317Z</time>
      </trkpt>
      <trkpt lat="44.12783" lon="2.26563">
        <ele>386</ele>
        <time>2022-09-11T09:00:35.317Z</time>
      </trkpt>
      <trkpt lat="44.12782" lon="2.26562">
        <ele>386</ele>
        <time>2022-09-11T09:00:36.317Z</time>
      </trkpt>
      <trkpt lat="44.1278" lon="2.26562">
        <ele>386</ele>
        <time>2022-09-11T09:00:37.317Z</time>
      </trkpt>
      <trkpt lat="44.12779" lon="2.26561">
        <ele>386</ele>
        <time>2022-09-11T09:00:38.317Z</time>
      </trkpt>
      <trkpt lat="44.12778" lon="2.26561">
        <ele>387</ele>
        <time>2022-09-11T09:00:39.317Z</time>
      </trkpt>
      <trkpt lat="44.12777" lon="2.26561">
        <ele>387</ele>
        <time>2022-09-11T09:00:40.317Z</time>
      </trkpt>
      <trkpt lat="44.12776" lon="2.2656">
        <ele>387</ele>
        <time>2022-09-11T09:00:41.317Z</time>
      </trkpt>
      <trkpt lat="44.12775" lon="2.26559">
        <ele>387</ele>
        <time>2022-09-11T09:00:42.317Z</time>
      </trkpt>
      <trkpt lat="44.12774" lon="2.26559">
        <ele>387</ele>
        <time>2022-09-11T09:00:43.317Z</time>
      </trkpt>
      <trkpt lat="44.12773" lon="2.26559">
        <ele>387</ele>
        <time>2022-09-11T09:00:44.317Z</time>
      </trkpt>
      <trkpt lat="44.12772" lon="2.26558">
        <ele>387</ele>
        <time>2022-09-11T09:00:45.317Z</time>
      </trkpt>
      <trkpt lat="44.12771" lon="2.26557">
        <ele>388</ele>
        <time>2022-09-11T09:00:46.317Z</time>
      </trkpt>
      <trkpt lat="44.1277" lon="2.26557">
        <ele>388</ele>
        <time>2022-09-11T09:00:47.317Z</time>
      </trkpt>
      <trkpt lat="44.12769" lon="2.26556">
        <ele>388</ele>
        <time>2022-09-11T09:00:48.317Z</time>
      </trkpt>
      <trkpt lat="44.12768" lon="2.26556">
        <ele>388</ele>
        <time>2022-09-11T09:00:49.317Z</time>
      </trkpt>
      <trkpt lat="44.12767" lon="2.26556">
        <ele>388</ele>
        <time>2022-09-11T09:00:50.317Z</time>
      </trkpt>
      <trkpt lat="44.12766" lon="2.26555">
        <ele>388</ele>
        <time>2022-09-11T09:00:51.317Z</time>
      </trkpt>
      <trkpt lat="44.12765" lon="2.26555">
        <ele>388</ele>
        <time>2022-09-11T09:00:52.317Z</time>
      </trkpt>
      <trkpt lat="44.12764" lon="2.26554">
        <ele>388</ele>
        <time>2022-09-11T09:00:53.317Z</time>
      </trkpt>
      <trkpt lat="44.12763" lon="2.26554">
        <ele>388</ele>
        <time>2022-09-11T09:00:54.317Z</time>
      </trkpt>
      <trkpt lat="44.12762" lon="2.26553">
        <ele>388</ele>
        <time>2022-09-11T09:00:55.317Z</time>
      </trkpt>
      <trkpt lat="44.12761" lon="2.26552">
        <ele>388</ele>
        <time>2022-09-11T09:00:56.317Z</time>
      </trkpt>
      <trkpt lat="44.1276" lon="2.26552">
        <ele>388</ele>
        <time>2022-09-11T09:00:57.317Z</time>
      </trkpt>
      <trkpt lat="44.12759" lon="2.26552">
        <ele>388</ele>
        <time>2022-09-11T09:00:58.317Z</time>
      </trkpt>
      <trkpt lat="44.12758" lon="2.26551">
        <ele>388</ele>
        <time>2022-09-11T09:00:59.317Z</time>
      </trkpt>
      <trkpt lat="44.12757" lon="2.26551">
        <ele>388</ele>
        <time>2022-09-11T09:01:00.317Z</time>
      </trkpt>
      <trkpt lat="44.12756" lon="2.26551">
        <ele>388</ele>
        <time>2022-09-11T09:01:01.317Z</time>
      </trkpt>
      <trkpt lat="44.12755" lon="2.2655">
        <ele>388</ele>
        <time>2022-09-11T09:01:02.317Z</time>
      </trkpt>
      <trkpt lat="44.12754" lon="2.2655">
        <ele>389</ele>
        <time>2022-09-11T09:01:03.317Z</time>
      </trkpt>
      <trkpt lat="44.12753" lon="2.26549">
        <ele>389</ele>
        <time>2022-09-11T09:01:04.317Z</time>
      </trkpt>
      <trkpt lat="44.12752" lon="2.26548">
        <ele>389</ele>
        <time>2022-09-11T09:01:05.317Z</time>
      </trkpt>
      <trkpt lat="44.12751" lon="2.26548">
        <ele>389</ele>
        <time>2022-09-11T09:01:06.317Z</time>
      </trkpt>
      <trkpt lat="44.1275" lon="2.26547">
        <ele>389</ele>
        <time>2022-09-11T09:01:07.317Z</time>
      </trkpt>
      <trkpt lat="44.12749" lon="2.26547">
        <ele>389</ele>
        <time>2022-09-11T09:01:08.317Z</time>
      </trkpt>
      <trkpt lat="44.12748" lon="2.26546">
        <ele>389</ele>
        <time>2022-09-11T09:01:09.317Z</time>
      </trkpt>
      <trkpt lat="44.12746" lon="2.26545">
        <ele>389</ele>
        <time>2022-09-11T09:01:10.317Z</time>
      </trkpt>
      <trkpt lat="44.12745" lon="2.26544">
        <ele>389</ele>
        <time>2022-09-11T09:01:11.317Z</time>
      </trkpt>
      <trkpt lat="44.12744" lon="2.26543">
        <ele>389</ele>
        <time>2022-09-11T09:01:12.317Z</time>
      </trkpt>
      <trkpt lat="44.12743" lon="2.26542">
        <ele>389</ele>
        <time>2022-09-11T09:01:13.317Z</time>
      </trkpt>
      <trkpt lat="44.12742" lon="2.26542">
        <ele>389</ele>
        <time>2022-09-11T09:01:14.317Z</time>
      </trkpt>
      <trkpt lat="44.12741" lon="2.26542">
        <ele>390</ele>
        <time>2022-09-11T09:01:15.317Z</time>
      </trkpt>
      <trkpt lat="44.1274" lon="2.26541">
        <ele>390</ele>
        <time>2022-09-11T09:01:16.317Z</time>
      </trkpt>
      <trkpt lat="44.12739" lon="2.26541">
        <ele>390</ele>
        <time>2022-09-11T09:01:17.317Z</time>
      </trkpt>
      <trkpt lat="44.12738" lon="2.2654">
        <ele>390</ele>
        <time>2022-09-11T09:01:18.317Z</time>
      </trkpt>
      <trkpt lat="44.12737" lon="2.2654">
        <ele>390</ele>
        <time>2022-09-11T09:01:19.317Z</time>
      </trkpt>
      <trkpt lat="44.12736" lon="2.2654">
        <ele>390</ele>
        <time>2022-09-11T09:01:20.317Z</time>
      </trkpt>
      <trkpt lat="44.12735" lon="2.26539">
        <ele>391</ele>
        <time>2022-09-11T09:01:21.317Z</time>
      </trkpt>
      <trkpt lat="44.12734" lon="2.26539">
        <ele>391</ele>
        <time>2022-09-11T09:01:22.317Z</time>
      </trkpt>
      <trkpt lat="44.12733" lon="2.26538">
        <ele>391</ele>
        <time>2022-09-11T09:01:23.317Z</time>
      </trkpt>
      <trkpt lat="44.12732" lon="2.26538">
        <ele>391</ele>
        <time>2022-09-11T09:01:24.317Z</time>
      </trkpt>
      <trkpt lat="44.12731" lon="2.26538">
        <ele>391</ele>
        <time>2022-09-11T09:01:25.317Z</time>
      </trkpt>
      <trkpt lat="44.1273" lon="2.26538">
        <ele>391</ele>
        <time>2022-09-11T09:01:26.317Z</time>
      </trkpt>
      <trkpt lat="44.12729" lon="2.26538">
        <ele>392</ele>
        <time>2022-09-11T09:01:27.317Z</time>
      </trkpt>
      <trkpt lat="44.12729" lon="2.26538">
        <ele>392</ele>
        <time>2022-09-11T09:01:28.317Z</time>
      </trkpt>
      <trkpt lat="44.12728" lon="2.26538">
        <ele>392</ele>
        <time>2022-09-11T09:01:29.317Z</time>
      </trkpt>
      <trkpt lat="44.12727" lon="2.26539">
        <ele>392</ele>
        <time>2022-09-11T09:01:30.317Z</time>
      </trkpt>
      <trkpt lat="44.12726" lon="2.26539">
        <ele>392</ele>
        <time>2022-09-11T09:01:31.317Z</time>
      </trkpt>
      <trkpt lat="44.12725" lon="2.26539">
        <ele>392</ele>
        <time>2022-09-11T09:01:32.317Z</time>
      </trkpt>
      <trkpt lat="44.12724" lon="2.26539">
        <ele>392</ele>
        <time>2022-09-11T09:01:33.317Z</time>
      </trkpt>
      <trkpt lat="44.12724" lon="2.2654">
        <ele>392</ele>
        <time>2022-09-11T09:01:34.317Z</time>
      </trkpt>
      <trkpt lat="44.12723" lon="2.2654">
        <ele>392</ele>
        <time>2022-09-11T09:01:35.317Z</time>
      </trkpt>
      <trkpt lat="44.12722" lon="2.2654">
        <ele>392</ele>
        <time>2022-09-11T09:01:36.317Z</time>
      </trkpt>
      <trkpt lat="44.12721" lon="2.26541">
        <ele>392</ele>
        <time>2022-09-11T09:01:37.317Z</time>
      </trkpt>
      <trkpt lat="44.12721" lon="2.26541">
        <ele>392</ele>
        <time>2022-09-11T09:01:38.317Z</time>
      </trkpt>
      <trkpt lat="44.1272" lon="2.26541">
        <ele>392</ele>
        <time>2022-09-11T09:01:39.317Z</time>
      </trkpt>
      <trkpt lat="44.12719" lon="2.26542">
        <ele>392</ele>
        <time>2022-09-11T09:01:40.317Z</time>
      </trkpt>
      <trkpt lat="44.12718" lon="2.26543">
        <ele>392</ele>
        <time>2022-09-11T09:01:41.317Z</time>
      </trkpt>
      <trkpt lat="44.12718" lon="2.26544">
        <ele>392</ele>
        <time>2022-09-11T09:01:42.317Z</time>
      </trkpt>
      <trkpt lat="44.12717" lon="2.26545">
        <ele>392</ele>
        <time>2022-09-11T09:01:43.317Z</time>
      </trkpt>
      <trkpt lat="44.12716" lon="2.26546">
        <ele>392</ele>
        <time>2022-09-11T09:01:44.317Z</time>
      </trkpt>
      <trkpt lat="44.12715" lon="2.26547">
        <ele>392</ele>
        <time>2022-09-11T09:01:45.317Z</time>
      </trkpt>
      <trkpt lat="44.12714" lon="2.26548">
        <ele>393</ele>
        <time>2022-09-11T09:01:46.317Z</time>
      </trkpt>
      <trkpt lat="44.12713" lon="2.26549">
        <ele>393</ele>
        <time>2022-09-11T09:01:47.317Z</time>
      </trkpt>
      <trkpt lat="44.12712" lon="2.2655">
        <ele>393</ele>
        <time>2022-09-11T09:01:48.317Z</time>
      </trkpt>
      <trkpt lat="44.12711" lon="2.26551">
        <ele>393</ele>
        <time>2022-09-11T09:01:49.317Z</time>
      </trkpt>
      <trkpt lat="44.12711" lon="2.26552">
        <ele>393</ele>
        <time>2022-09-11T09:01:50.317Z</time>
      </trkpt>
      <trkpt lat="44.1271" lon="2.26553">
        <ele>393</ele>
        <time>2022-09-11T09:01:51.317Z</time>
      </trkpt>
      <trkpt lat="44.1271" lon="2.26555">
        <ele>394</ele>
        <time>2022-09-11T09:01:52.317Z</time>
      </trkpt>
      <trkpt lat="44.12709" lon="2.26556">
        <ele>394</ele>
        <time>2022-09-11T09:01:53.317Z</time>
      </trkpt>
      <trkpt lat="44.12708" lon="2.26557">
        <ele>394</ele>
        <time>2022-09-11T09:01:54.317Z</time>
      </trkpt>
      <trkpt lat="44.12707" lon="2.26558">
        <ele>394</ele>
        <time>2022-09-11T09:01:55.317Z</time>
      </trkpt>
      <trkpt lat="44.12707" lon="2.26559">
        <ele>394</ele>
        <time>2022-09-11T09:01:56.317Z</time>
      </trkpt>
      <trkpt lat="44.12706" lon="2.26559">
        <ele>394</ele>
        <time>2022-09-11T09:01:57.317Z</time>
      </trkpt>
      <trkpt lat="44.12705" lon="2.2656">
        <ele>395</ele>
        <time>2022-09-11T09:01:58.317Z</time>
      </trkpt>
      <trkpt lat="44.12705" lon="2.26561">
        <ele>395</ele>
        <time>2022-09-11T09:01:59.317Z</time>
      </trkpt>
      <trkpt lat="44.12704" lon="2.26563">
        <ele>395</ele>
        <time>2022-09-11T09:02:00.317Z</time>
      </trkpt>
      <trkpt lat="44.12704" lon="2.26564">
        <ele>395</ele>
        <time>2022-09-11T09:02:01.317Z</time>
      </trkpt>
      <trkpt lat="44.12703" lon="2.26565">
        <ele>395</ele>
        <time>2022-09-11T09:02:02.317Z</time>
      </trkpt>
      <trkpt lat="44.12702" lon="2.26566">
        <ele>395</ele>
        <time>2022-09-11T09:02:03.317Z</time>
      </trkpt>
      <trkpt lat="44.12701" lon="2.26566">
        <ele>395</ele>
        <time>2022-09-11T09:02:04.317Z</time>
      </trkpt>
      <trkpt lat="44.12701" lon="2.26567">
        <ele>395</ele>
        <time>2022-09-11T09:02:05.317Z</time>
      </trkpt>
      <trkpt lat="44.127" lon="2.26568">
        <ele>395</ele>
        <time>2022-09-11T09:02:06.317Z</time>
      </trkpt>
      <trkpt lat="44.12699" lon="2.26569">
        <ele>396</ele>
        <time>2022-09-11T09:02:07.317Z</time>
      </trkpt>
      <trkpt lat="44.12699" lon="2.26571">
        <ele>396</ele>
        <time>2022-09-11T09:02:08.317Z</time>
      </trkpt>
      <trkpt lat="44.12698" lon="2.26572">
        <ele>396</ele>
        <time>2022-09-11T09:02:09.317Z</time>
      </trkpt>
      <trkpt lat="44.12697" lon="2.26573">
        <ele>396</ele>
        <time>2022-09-11T09:02:10.317Z</time>
      </trkpt>
      <trkpt lat="44.12697" lon="2.26573">
        <ele>396</ele>
        <time>2022-09-11T09:02:11.317Z</time>
      </trkpt>
      <trkpt lat="44.12696" lon="2.26574">
        <ele>396</ele>
        <time>2022-09-11T09:02:12.317Z</time>
      </trkpt>
      <trkpt lat="44.12695" lon="2.26575">
        <ele>396</ele>
        <time>2022-09-11T09:02:13.317Z</time>
      </trkpt>
      <trkpt lat="44.12694" lon="2.26576">
        <ele>397</ele>
        <time>2022-09-11T09:02:14.317Z</time>
      </trkpt>
      <trkpt lat="44.12694" lon="2.26576">
        <ele>397</ele>
        <time>2022-09-11T09:02:15.317Z</time>
      </trkpt>
      <trkpt lat="44.12693" lon="2.26577">
        <ele>397</ele>
        <time>2022-09-11T09:02:16.317Z</time>
      </trkpt>
      <trkpt lat="44.12692" lon="2.26578">
        <ele>397</ele>
        <time>2022-09-11T09:02:17.317Z</time>
      </trkpt>
      <trkpt lat="44.12692" lon="2.26579">
        <ele>397</ele>
        <time>2022-09-11T09:02:18.317Z</time>
      </trkpt>
      <trkpt lat="44.12691" lon="2.2658">
        <ele>397</ele>
        <time>2022-09-11T09:02:19.317Z</time>
      </trkpt>
      <trkpt lat="44.1269" lon="2.26581">
        <ele>397</ele>
        <time>2022-09-11T09:02:20.317Z</time>
      </trkpt>
      <trkpt lat="44.12689" lon="2.26582">
        <ele>398</ele>
        <time>2022-09-11T09:02:21.317Z</time>
      </trkpt>
      <trkpt lat="44.12689" lon="2.26582">
        <ele>398</ele>
        <time>2022-09-11T09:02:22.317Z</time>
      </trkpt>
      <trkpt lat="44.12688" lon="2.26582">
        <ele>398</ele>
        <time>2022-09-11T09:02:23.317Z</time>
      </trkpt>
      <trkpt lat="44.12687" lon="2.26583">
        <ele>398</ele>
        <time>2022-09-11T09:02:24.317Z</time>
      </trkpt>
      <trkpt lat="44.12686" lon="2.26583">
        <ele>398</ele>
        <time>2022-09-11T09:02:25.317Z</time>
      </trkpt>
      <trkpt lat="44.12685" lon="2.26584">
        <ele>398</ele>
        <time>2022-09-11T09:02:26.317Z</time>
      </trkpt>
      <trkpt lat="44.12684" lon="2.26585">
        <ele>399</ele>
        <time>2022-09-11T09:02:27.317Z</time>
      </trkpt>
      <trkpt lat="44.12683" lon="2.26586">
        <ele>399</ele>
        <time>2022-09-11T09:02:28.317Z</time>
      </trkpt>
      <trkpt lat="44.12682" lon="2.26588">
        <ele>399</ele>
        <time>2022-09-11T09:02:29.317Z</time>
      </trkpt>
      <trkpt lat="44.12682" lon="2.26589">
        <ele>399</ele>
        <time>2022-09-11T09:02:30.317Z</time>
      </trkpt>
      <trkpt lat="44.12681" lon="2.26589">
        <ele>399</ele>
        <time>2022-09-11T09:02:31.317Z</time>
      </trkpt>
      <trkpt lat="44.1268" lon="2.2659">
        <ele>399</ele>
        <time>2022-09-11T09:02:32.317Z</time>
      </trkpt>
      <trkpt lat="44.12679" lon="2.26591">
        <ele>399</ele>
        <time>2022-09-11T09:02:33.317Z</time>
      </trkpt>
      <trkpt lat="44.12678" lon="2.26592">
        <ele>399</ele>
        <time>2022-09-11T09:02:34.317Z</time>
      </trkpt>
      <trkpt lat="44.12677" lon="2.26593">
        <ele>399</ele>
        <time>2022-09-11T09:02:35.317Z</time>
      </trkpt>
      <trkpt lat="44.12676" lon="2.26593">
        <ele>399</ele>
        <time>2022-09-11T09:02:36.317Z</time>
      </trkpt>
      <trkpt lat="44.12675" lon="2.26594">
        <ele>400</ele>
        <time>2022-09-11T09:02:37.317Z</time>
      </trkpt>
      <trkpt lat="44.12674" lon="2.26595">
        <ele>400</ele>
        <time>2022-09-11T09:02:38.317Z</time>
      </trkpt>
      <trkpt lat="44.12673" lon="2.26595">
        <ele>400</ele>
        <time>2022-09-11T09:02:39.317Z</time>
      </trkpt>
      <trkpt lat="44.12672" lon="2.26596">
        <ele>400</ele>
        <time>2022-09-11T09:02:40.317Z</time>
      </trkpt>
      <trkpt lat="44.12671" lon="2.26597">
        <ele>400</ele>
        <time>2022-09-11T09:02:41.317Z</time>
      </trkpt>
      <trkpt lat="44.1267" lon="2.26598">
        <ele>400</ele>
        <time>2022-09-11T09:02:42.317Z</time>
      </trkpt>
      <trkpt lat="44.12669" lon="2.26598">
        <ele>400</ele>
        <time>2022-09-11T09:02:43.317Z</time>
      </trkpt>
      <trkpt lat="44.12668" lon="2.26599">
        <ele>400</ele>
        <time>2022-09-11T09:02:44.317Z</time>
      </trkpt>
      <trkpt lat="44.12667" lon="2.266">
        <ele>400</ele>
        <time>2022-09-11T09:02:45.317Z</time>
      </trkpt>
      <trkpt lat="44.12667" lon="2.266">
        <ele>401</ele>
        <time>2022-09-11T09:02:46.317Z</time>
      </trkpt>
      <trkpt lat="44.12666" lon="2.26601">
        <ele>401</ele>
        <time>2022-09-11T09:02:47.317Z</time>
      </trkpt>
      <trkpt lat="44.12665" lon="2.26601">
        <ele>401</ele>
        <time>2022-09-11T09:02:48.317Z</time>
      </trkpt>
      <trkpt lat="44.12664" lon="2.26602">
        <ele>401</ele>
        <time>2022-09-11T09:02:49.317Z</time>
      </trkpt>
      <trkpt lat="44.12663" lon="2.26603">
        <ele>401</ele>
        <time>2022-09-11T09:02:50.317Z</time>
      </trkpt>
      <trkpt lat="44.12663" lon="2.26603">
        <ele>401</ele>
        <time>2022-09-11T09:02:51.317Z</time>
      </trkpt>
      <trkpt lat="44.12662" lon="2.26604">
        <ele>401</ele>
        <time>2022-09-11T09:02:52.317Z</time>
      </trkpt>
      <trkpt lat="44.12661" lon="2.26604">
        <ele>401</ele>
        <time>2022-09-11T09:02:53.317Z</time>
      </trkpt>
      <trkpt lat="44.1266" lon="2.26605">
        <ele>401</ele>
        <time>2022-09-11T09:02:54.317Z</time>
      </trkpt>
      <trkpt lat="44.1266" lon="2.26605">
        <ele>401</ele>
        <time>2022-09-11T09:02:55.317Z</time>
      </trkpt>
      <trkpt lat="44.12659" lon="2.26606">
        <ele>401</ele>
        <time>2022-09-11T09:02:56.317Z</time>
      </trkpt>
      <trkpt lat="44.12658" lon="2.26607">
        <ele>401</ele>
        <time>2022-09-11T09:02:57.317Z</time>
      </trkpt>
      <trkpt lat="44.12657" lon="2.26608">
        <ele>401</ele>
        <time>2022-09-11T09:02:58.317Z</time>
      </trkpt>
      <trkpt lat="44.12657" lon="2.26608">
        <ele>401</ele>
        <time>2022-09-11T09:02:59.317Z</time>
      </trkpt>
      <trkpt lat="44.12656" lon="2.26609">
        <ele>401</ele>
        <time>2022-09-11T09:03:00.317Z</time>
      </trkpt>
      <trkpt lat="44.12655" lon="2.2661">
        <ele>401</ele>
        <time>2022-09-11T09:03:01.317Z</time>
      </trkpt>
      <trkpt lat="44.12655" lon="2.26611">
        <ele>401</ele>
        <time>2022-09-11T09:03:02.317Z</time>
      </trkpt>
      <trkpt lat="44.12654" lon="2.26612">
        <ele>401</ele>
        <time>2022-09-11T09:03:03.317Z</time>
      </trkpt>
      <trkpt lat="44.12653" lon="2.26612">
        <ele>401</ele>
        <time>2022-09-11T09:03:04.317Z</time>
      </trkpt>
      <trkpt lat="44.12652" lon="2.26613">
        <ele>401</ele>
        <time>2022-09-11T09:03:05.317Z</time>
      </trkpt>
      <trkpt lat="44.12652" lon="2.26614">
        <ele>401</ele>
        <time>2022-09-11T09:03:06.317Z</time>
      </trkpt>
      <trkpt lat="44.12651" lon="2.26615">
        <ele>401</ele>
        <time>2022-09-11T09:03:07.317Z</time>
      </trkpt>
      <trkpt lat="44.1265" lon="2.26616">
        <ele>401</ele>
        <time>2022-09-11T09:03:08.317Z</time>
      </trkpt>
      <trkpt lat="44.1265" lon="2.26616">
        <ele>401</ele>
        <time>2022-09-11T09:03:09.317Z</time>
      </trkpt>
      <trkpt lat="44.1265" lon="2.26617">
        <ele>401</ele>
        <time>2022-09-11T09:03:10.317Z</time>
      </trkpt>
      <trkpt lat="44.12649" lon="2.26619">
        <ele>401</ele>
        <time>2022-09-11T09:03:11.317Z</time>
      </trkpt>
      <trkpt lat="44.12648" lon="2.2662">
        <ele>401</ele>
        <time>2022-09-11T09:03:12.317Z</time>
      </trkpt>
      <trkpt lat="44.12648" lon="2.26621">
        <ele>401</ele>
        <time>2022-09-11T09:03:13.317Z</time>
      </trkpt>
      <trkpt lat="44.12648" lon="2.26622">
        <ele>401</ele>
        <time>2022-09-11T09:03:14.317Z</time>
      </trkpt>
      <trkpt lat="44.12647" lon="2.26623">
        <ele>401</ele>
        <time>2022-09-11T09:03:15.317Z</time>
      </trkpt>
      <trkpt lat="44.12647" lon="2.26624">
        <ele>401</ele>
        <time>2022-09-11T09:03:16.317Z</time>
      </trkpt>
      <trkpt lat="44.12646" lon="2.26625">
        <ele>401</ele>
        <time>2022-09-11T09:03:17.317Z</time>
      </trkpt>
      <trkpt lat="44.12646" lon="2.26626">
        <ele>401</ele>
        <time>2022-09-11T09:03:18.317Z</time>
      </trkpt>
      <trkpt lat="44.12645" lon="2.26627">
        <ele>401</ele>
        <time>2022-09-11T09:03:19.317Z</time>
      </trkpt>
      <trkpt lat="44.12645" lon="2.26628">
        <ele>401</ele>
        <time>2022-09-11T09:03:20.317Z</time>
      </trkpt>
      <trkpt lat="44.12645" lon="2.26629">
        <ele>402</ele>
        <time>2022-09-11T09:03:21.317Z</time>
      </trkpt>
      <trkpt lat="44.12644" lon="2.2663">
        <ele>402</ele>
        <time>2022-09-11T09:03:22.317Z</time>
      </trkpt>
      <trkpt lat="44.12645" lon="2.26631">
        <ele>402</ele>
        <time>2022-09-11T09:03:23.317Z</time>
      </trkpt>
      <trkpt lat="44.12644" lon="2.26632">
        <ele>402</ele>
        <time>2022-09-11T09:03:24.317Z</time>
      </trkpt>
      <trkpt lat="44.12644" lon="2.26633">
        <ele>402</ele>
        <time>2022-09-11T09:03:25.317Z</time>
      </trkpt>
      <trkpt lat="44.12644" lon="2.26634">
        <ele>402</ele>
        <time>2022-09-11T09:03:26.317Z</time>
      </trkpt>
      <trkpt lat="44.12643" lon="2.26635">
        <ele>402</ele>
        <time>2022-09-11T09:03:27.317Z</time>
      </trkpt>
      <trkpt lat="44.12643" lon="2.26637">
        <ele>402</ele>
        <time>2022-09-11T09:03:28.317Z</time>
      </trkpt>
      <trkpt lat="44.12643" lon="2.26638">
        <ele>403</ele>
        <time>2022-09-11T09:03:29.317Z</time>
      </trkpt>
      <trkpt lat="44.12642" lon="2.26638">
        <ele>403</ele>
        <time>2022-09-11T09:03:30.317Z</time>
      </trkpt>
      <trkpt lat="44.12642" lon="2.26639">
        <ele>403</ele>
        <time>2022-09-11T09:03:31.317Z</time>
      </trkpt>
      <trkpt lat="44.12641" lon="2.2664">
        <ele>403</ele>
        <time>2022-09-11T09:03:32.317Z</time>
      </trkpt>
      <trkpt lat="44.12641" lon="2.26641">
        <ele>403</ele>
        <time>2022-09-11T09:03:33.317Z</time>
      </trkpt>
      <trkpt lat="44.1264" lon="2.26642">
        <ele>403</ele>
        <time>2022-09-11T09:03:34.317Z</time>
      </trkpt>
      <trkpt lat="44.12639" lon="2.26643">
        <ele>403</ele>
        <time>2022-09-11T09:03:35.317Z</time>
      </trkpt>
      <trkpt lat="44.12639" lon="2.26644">
        <ele>403</ele>
        <time>2022-09-11T09:03:36.317Z</time>
      </trkpt>
      <trkpt lat="44.12638" lon="2.26645">
        <ele>403</ele>
        <time>2022-09-11T09:03:37.317Z</time>
      </trkpt>
      <trkpt lat="44.12637" lon="2.26646">
        <ele>403</ele>
        <time>2022-09-11T09:03:38.317Z</time>
      </trkpt>
      <trkpt lat="44.12637" lon="2.26646">
        <ele>403</ele>
        <time>2022-09-11T09:03:39.317Z</time>
      </trkpt>
      <trkpt lat="44.12636" lon="2.26647">
        <ele>403</ele>
        <time>2022-09-11T09:03:40.317Z</time>
      </trkpt>
      <trkpt lat="44.12636" lon="2.26647">
        <ele>403</ele>
        <time>2022-09-11T09:03:41.317Z</time>
      </trkpt>
      <trkpt lat="44.12635" lon="2.26648">
        <ele>404</ele>
        <time>2022-09-11T09:03:42.317Z</time>
      </trkpt>
      <trkpt lat="44.12635" lon="2.26649">
        <ele>404</ele>
        <time>2022-09-11T09:03:43.317Z</time>
      </trkpt>
      <trkpt lat="44.12634" lon="2.26649">
        <ele>404</ele>
        <time>2022-09-11T09:03:44.317Z</time>
      </trkpt>
      <trkpt lat="44.12633" lon="2.2665">
        <ele>404</ele>
        <time>2022-09-11T09:03:45.317Z</time>
      </trkpt>
      <trkpt lat="44.12632" lon="2.2665">
        <ele>404</ele>
        <time>2022-09-11T09:03:46.317Z</time>
      </trkpt>
      <trkpt lat="44.12632" lon="2.26651">
        <ele>404</ele>
        <time>2022-09-11T09:03:47.317Z</time>
      </trkpt>
      <trkpt lat="44.12631" lon="2.26652">
        <ele>404</ele>
        <time>2022-09-11T09:03:48.317Z</time>
      </trkpt>
      <trkpt lat="44.1263" lon="2.26652">
        <ele>404</ele>
        <time>2022-09-11T09:03:49.317Z</time>
      </trkpt>
      <trkpt lat="44.12629" lon="2.26653">
        <ele>404</ele>
        <time>2022-09-11T09:03:50.317Z</time>
      </trkpt>
      <trkpt lat="44.12628" lon="2.26654">
        <ele>404</ele>
        <time>2022-09-11T09:03:51.317Z</time>
      </trkpt>
      <trkpt lat="44.12627" lon="2.26654">
        <ele>404</ele>
        <time>2022-09-11T09:03:52.317Z</time>
      </trkpt>
      <trkpt lat="44.12626" lon="2.26655">
        <ele>404</ele>
        <time>2022-09-11T09:03:53.317Z</time>
      </trkpt>
      <trkpt lat="44.12625" lon="2.26655">
        <ele>404</ele>
        <time>2022-09-11T09:03:54.317Z</time>
      </trkpt>
      <trkpt lat="44.12623" lon="2.26655">
        <ele>404</ele>
        <time>2022-09-11T09:03:55.317Z</time>
      </trkpt>
      <trkpt lat="44.12622" lon="2.26656">
        <ele>404</ele>
        <time>2022-09-11T09:03:56.317Z</time>
      </trkpt>
      <trkpt lat="44.12622" lon="2.26656">
        <ele>404</ele>
        <time>2022-09-11T09:03:57.317Z</time>
      </trkpt>
      <trkpt lat="44.12621" lon="2.26656">
        <ele>404</ele>
        <time>2022-09-11T09:03:58.317Z</time>
      </trkpt>
      <trkpt lat="44.12619" lon="2.26656">
        <ele>404</ele>
        <time>2022-09-11T09:03:59.317Z</time>
      </trkpt>
      <trkpt lat="44.12618" lon="2.26656">
        <ele>405</ele>
        <time>2022-09-11T09:04:00.317Z</time>
      </trkpt>
      <trkpt lat="44.12617" lon="2.26656">
        <ele>405</ele>
        <time>2022-09-11T09:04:01.317Z</time>
      </trkpt>
      <trkpt lat="44.12616" lon="2.26657">
        <ele>405</ele>
        <time>2022-09-11T09:04:02.317Z</time>
      </trkpt>
      <trkpt lat="44.12615" lon="2.26657">
        <ele>405</ele>
        <time>2022-09-11T09:04:03.317Z</time>
      </trkpt>
      <trkpt lat="44.12613" lon="2.26657">
        <ele>405</ele>
        <time>2022-09-11T09:04:04.317Z</time>
      </trkpt>
      <trkpt lat="44.12612" lon="2.26657">
        <ele>405</ele>
        <time>2022-09-11T09:04:05.317Z</time>
      </trkpt>
      <trkpt lat="44.12611" lon="2.26657">
        <ele>405</ele>
        <time>2022-09-11T09:04:06.317Z</time>
      </trkpt>
      <trkpt lat="44.1261" lon="2.26656">
        <ele>405</ele>
        <time>2022-09-11T09:04:07.317Z</time>
      </trkpt>
      <trkpt lat="44.12608" lon="2.26657">
        <ele>405</ele>
        <time>2022-09-11T09:04:08.317Z</time>
      </trkpt>
      <trkpt lat="44.12607" lon="2.26657">
        <ele>405</ele>
        <time>2022-09-11T09:04:09.317Z</time>
      </trkpt>
      <trkpt lat="44.12606" lon="2.26657">
        <ele>405</ele>
        <time>2022-09-11T09:04:10.317Z</time>
      </trkpt>
      <trkpt lat="44.12604" lon="2.26657">
        <ele>405</ele>
        <time>2022-09-11T09:04:11.317Z</time>
      </trkpt>
      <trkpt lat="44.12603" lon="2.26657">
        <ele>405</ele>
        <time>2022-09-11T09:04:12.317Z</time>
      </trkpt>
      <trkpt lat="44.12602" lon="2.26657">
        <ele>405</ele>
        <time>2022-09-11T09:04:13.317Z</time>
      </trkpt>
      <trkpt lat="44.12601" lon="2.26658">
        <ele>405</ele>
        <time>2022-09-11T09:04:14.317Z</time>
      </trkpt>
      <trkpt lat="44.126" lon="2.26658">
        <ele>406</ele>
        <time>2022-09-11T09:04:15.317Z</time>
      </trkpt>
      <trkpt lat="44.12599" lon="2.26658">
        <ele>406</ele>
        <time>2022-09-11T09:04:16.317Z</time>
      </trkpt>
      <trkpt lat="44.12598" lon="2.26659">
        <ele>406</ele>
        <time>2022-09-11T09:04:17.317Z</time>
      </trkpt>
      <trkpt lat="44.12596" lon="2.26659">
        <ele>406</ele>
        <time>2022-09-11T09:04:18.317Z</time>
      </trkpt>
      <trkpt lat="44.12595" lon="2.26659">
        <ele>406</ele>
        <time>2022-09-11T09:04:19.317Z</time>
      </trkpt>
      <trkpt lat="44.12594" lon="2.26659">
        <ele>406</ele>
        <time>2022-09-11T09:04:20.317Z</time>
      </trkpt>
      <trkpt lat="44.12593" lon="2.2666">
        <ele>406</ele>
        <time>2022-09-11T09:04:21.317Z</time>
      </trkpt>
      <trkpt lat="44.12592" lon="2.2666">
        <ele>406</ele>
        <time>2022-09-11T09:04:22.317Z</time>
      </trkpt>
      <trkpt lat="44.12591" lon="2.2666">
        <ele>406</ele>
        <time>2022-09-11T09:04:23.317Z</time>
      </trkpt>
      <trkpt lat="44.12589" lon="2.26661">
        <ele>406</ele>
        <time>2022-09-11T09:04:24.317Z</time>
      </trkpt>
      <trkpt lat="44.12588" lon="2.26661">
        <ele>406</ele>
        <time>2022-09-11T09:04:25.317Z</time>
      </trkpt>
      <trkpt lat="44.12587" lon="2.26661">
        <ele>406</ele>
        <time>2022-09-11T09:04:26.317Z</time>
      </trkpt>
      <trkpt lat="44.12586" lon="2.26662">
        <ele>406</ele>
        <time>2022-09-11T09:04:27.317Z</time>
      </trkpt>
      <trkpt lat="44.12584" lon="2.26662">
        <ele>406</ele>
        <time>2022-09-11T09:04:28.317Z</time>
      </trkpt>
      <trkpt lat="44.12583" lon="2.26663">
        <ele>406</ele>
        <time>2022-09-11T09:04:29.317Z</time>
      </trkpt>
      <trkpt lat="44.12582" lon="2.26663">
        <ele>406</ele>
        <time>2022-09-11T09:04:30.317Z</time>
      </trkpt>
      <trkpt lat="44.1258" lon="2.26663">
        <ele>406</ele>
        <time>2022-09-11T09:04:31.317Z</time>
      </trkpt>
      <trkpt lat="44.12579" lon="2.26664">
        <ele>406</ele>
        <time>2022-09-11T09:04:32.317Z</time>
      </trkpt>
      <trkpt lat="44.12578" lon="2.26665">
        <ele>406</ele>
        <time>2022-09-11T09:04:33.317Z</time>
      </trkpt>
      <trkpt lat="44.12577" lon="2.26666">
        <ele>406</ele>
        <time>2022-09-11T09:04:34.317Z</time>
      </trkpt>
      <trkpt lat="44.12576" lon="2.26666">
        <ele>406</ele>
        <time>2022-09-11T09:04:35.317Z</time>
      </trkpt>
      <trkpt lat="44.12575" lon="2.26667">
        <ele>406</ele>
        <time>2022-09-11T09:04:36.317Z</time>
      </trkpt>
      <trkpt lat="44.12574" lon="2.26668">
        <ele>406</ele>
        <time>2022-09-11T09:04:37.317Z</time>
      </trkpt>
      <trkpt lat="44.12573" lon="2.26668">
        <ele>406</ele>
        <time>2022-09-11T09:04:38.317Z</time>
      </trkpt>
      <trkpt lat="44.12572" lon="2.26669">
        <ele>406</ele>
        <time>2022-09-11T09:04:39.317Z</time>
      </trkpt>
      <trkpt lat="44.12571" lon="2.2667">
        <ele>406</ele>
        <time>2022-09-11T09:04:40.317Z</time>
      </trkpt>
      <trkpt lat="44.12569" lon="2.2667">
        <ele>406</ele>
        <time>2022-09-11T09:04:41.317Z</time>
      </trkpt>
      <trkpt lat="44.12568" lon="2.26671">
        <ele>406</ele>
        <time>2022-09-11T09:04:42.317Z</time>
      </trkpt>
      <trkpt lat="44.12567" lon="2.26671">
        <ele>406</ele>
        <time>2022-09-11T09:04:43.317Z</time>
      </trkpt>
      <trkpt lat="44.12566" lon="2.26672">
        <ele>406</ele>
        <time>2022-09-11T09:04:44.317Z</time>
      </trkpt>
      <trkpt lat="44.12566" lon="2.26673">
        <ele>406</ele>
        <time>2022-09-11T09:04:45.317Z</time>
      </trkpt>
      <trkpt lat="44.12565" lon="2.26673">
        <ele>406</ele>
        <time>2022-09-11T09:04:46.317Z</time>
      </trkpt>
      <trkpt lat="44.12564" lon="2.26674">
        <ele>406</ele>
        <time>2022-09-11T09:04:47.317Z</time>
      </trkpt>
      <trkpt lat="44.12563" lon="2.26674">
        <ele>406</ele>
        <time>2022-09-11T09:04:48.317Z</time>
      </trkpt>
      <trkpt lat="44.12562" lon="2.26674">
        <ele>406</ele>
        <time>2022-09-11T09:04:49.317Z</time>
      </trkpt>
      <trkpt lat="44.12561" lon="2.26675">
        <ele>406</ele>
        <time>2022-09-11T09:04:50.317Z</time>
      </trkpt>
      <trkpt lat="44.1256" lon="2.26675">
        <ele>406</ele>
        <time>2022-09-11T09:04:51.317Z</time>
      </trkpt>
      <trkpt lat="44.12559" lon="2.26676">
        <ele>406</ele>
        <time>2022-09-11T09:04:52.317Z</time>
      </trkpt>
      <trkpt lat="44.12558" lon="2.26676">
        <ele>406</ele>
        <time>2022-09-11T09:04:53.317Z</time>
      </trkpt>
      <trkpt lat="44.12557" lon="2.26677">
        <ele>406</ele>
        <time>2022-09-11T09:04:54.317Z</time>
      </trkpt>
      <trkpt lat="44.12556" lon="2.26677">
        <ele>406</ele>
        <time>2022-09-11T09:04:55.317Z</time>
      </trkpt>
      <trkpt lat="44.12555" lon="2.26678">
        <ele>406</ele>
        <time>2022-09-11T09:04:56.317Z</time>
      </trkpt>
      <trkpt lat="44.12554" lon="2.26678">
        <ele>406</ele>
        <time>2022-09-11T09:04:57.317Z</time>
      </trkpt>
      <trkpt lat="44.12553" lon="2.26679">
        <ele>406</ele>
        <time>2022-09-11T09:04:58.317Z</time>
      </trkpt>
      <trkpt lat="44.12552" lon="2.26679">
        <ele>406</ele>
        <time>2022-09-11T09:04:59.317Z</time>
      </trkpt>
      <trkpt lat="44.12551" lon="2.2668">
        <ele>406</ele>
        <time>2022-09-11T09:05:00.317Z</time>
      </trkpt>
      <trkpt lat="44.1255" lon="2.2668">
        <ele>406</ele>
        <time>2022-09-11T09:05:01.317Z</time>
      </trkpt>
      <trkpt lat="44.12549" lon="2.2668">
        <ele>406</ele>
        <time>2022-09-11T09:05:02.317Z</time>
      </trkpt>
      <trkpt lat="44.12548" lon="2.26681">
        <ele>406</ele>
        <time>2022-09-11T09:05:03.317Z</time>
      </trkpt>
      <trkpt lat="44.12548" lon="2.26681">
        <ele>406</ele>
        <time>2022-09-11T09:05:04.317Z</time>
      </trkpt>
      <trkpt lat="44.12548" lon="2.2668">
        <ele>406</ele>
        <time>2022-09-11T09:05:05.317Z</time>
      </trkpt>
      <trkpt lat="44.12547" lon="2.26681">
        <ele>406</ele>
        <time>2022-09-11T09:05:06.317Z</time>
      </trkpt>
      <trkpt lat="44.12546" lon="2.26681">
        <ele>406</ele>
        <time>2022-09-11T09:05:07.317Z</time>
      </trkpt>
      <trkpt lat="44.12545" lon="2.26681">
        <ele>406</ele>
        <time>2022-09-11T09:05:08.317Z</time>
      </trkpt>
      <trkpt lat="44.12545" lon="2.26682">
        <ele>406</ele>
        <time>2022-09-11T09:05:09.317Z</time>
      </trkpt>
      <trkpt lat="44.12544" lon="2.26682">
        <ele>406</ele>
        <time>2022-09-11T09:05:10.317Z</time>
      </trkpt>
      <trkpt lat="44.12543" lon="2.26682">
        <ele>406</ele>
        <time>2022-09-11T09:05:11.317Z</time>
      </trkpt>
      <trkpt lat="44.12542" lon="2.26682">
        <ele>407</ele>
        <time>2022-09-11T09:05:12.317Z</time>
      </trkpt>
      <trkpt lat="44.12541" lon="2.26683">
        <ele>407</ele>
        <time>2022-09-11T09:05:13.317Z</time>
      </trkpt>
      <trkpt lat="44.1254" lon="2.26683">
        <ele>407</ele>
        <time>2022-09-11T09:05:14.317Z</time>
      </trkpt>
      <trkpt lat="44.12539" lon="2.26684">
        <ele>407</ele>
        <time>2022-09-11T09:05:15.317Z</time>
      </trkpt>
      <trkpt lat="44.12538" lon="2.26685">
        <ele>407</ele>
        <time>2022-09-11T09:05:16.317Z</time>
      </trkpt>
      <trkpt lat="44.12537" lon="2.26685">
        <ele>407</ele>
        <time>2022-09-11T09:05:17.317Z</time>
      </trkpt>
      <trkpt lat="44.12536" lon="2.26686">
        <ele>407</ele>
        <time>2022-09-11T09:05:18.317Z</time>
      </trkpt>
      <trkpt lat="44.12535" lon="2.26686">
        <ele>407</ele>
        <time>2022-09-11T09:05:19.317Z</time>
      </trkpt>
      <trkpt lat="44.12534" lon="2.26687">
        <ele>407</ele>
        <time>2022-09-11T09:05:20.317Z</time>
      </trkpt>
      <trkpt lat="44.12533" lon="2.26688">
        <ele>407</ele>
        <time>2022-09-11T09:05:21.317Z</time>
      </trkpt>
      <trkpt lat="44.12532" lon="2.26689">
        <ele>407</ele>
        <time>2022-09-11T09:05:22.317Z</time>
      </trkpt>
      <trkpt lat="44.12531" lon="2.2669">
        <ele>407</ele>
        <time>2022-09-11T09:05:23.317Z</time>
      </trkpt>
      <trkpt lat="44.1253" lon="2.26691">
        <ele>407</ele>
        <time>2022-09-11T09:05:24.317Z</time>
      </trkpt>
      <trkpt lat="44.12529" lon="2.26691">
        <ele>407</ele>
        <time>2022-09-11T09:05:25.317Z</time>
      </trkpt>
      <trkpt lat="44.12528" lon="2.26692">
        <ele>407</ele>
        <time>2022-09-11T09:05:26.317Z</time>
      </trkpt>
      <trkpt lat="44.12527" lon="2.26693">
        <ele>407</ele>
        <time>2022-09-11T09:05:27.317Z</time>
      </trkpt>
      <trkpt lat="44.12526" lon="2.26694">
        <ele>407</ele>
        <time>2022-09-11T09:05:28.317Z</time>
      </trkpt>
      <trkpt lat="44.12525" lon="2.26695">
        <ele>407</ele>
        <time>2022-09-11T09:05:29.317Z</time>
      </trkpt>
      <trkpt lat="44.12524" lon="2.26696">
        <ele>407</ele>
        <time>2022-09-11T09:05:30.317Z</time>
      </trkpt>
      <trkpt lat="44.12523" lon="2.26697">
        <ele>407</ele>
        <time>2022-09-11T09:05:31.317Z</time>
      </trkpt>
      <trkpt lat="44.12522" lon="2.26698">
        <ele>407</ele>
        <time>2022-09-11T09:05:32.317Z</time>
      </trkpt>
      <trkpt lat="44.12521" lon="2.26699">
        <ele>407</ele>
        <time>2022-09-11T09:05:33.317Z</time>
      </trkpt>
      <trkpt lat="44.1252" lon="2.267">
        <ele>407</ele>
        <time>2022-09-11T09:05:34.317Z</time>
      </trkpt>
      <trkpt lat="44.12519" lon="2.26701">
        <ele>407</ele>
        <time>2022-09-11T09:05:35.317Z</time>
      </trkpt>
      <trkpt lat="44.12518" lon="2.26702">
        <ele>407</ele>
        <time>2022-09-11T09:05:36.317Z</time>
      </trkpt>
      <trkpt lat="44.12517" lon="2.26702">
        <ele>407</ele>
        <time>2022-09-11T09:05:37.317Z</time>
      </trkpt>
      <trkpt lat="44.12516" lon="2.26703">
        <ele>407</ele>
        <time>2022-09-11T09:05:38.317Z</time>
      </trkpt>
      <trkpt lat="44.12515" lon="2.26704">
        <ele>408</ele>
        <time>2022-09-11T09:05:39.317Z</time>
      </trkpt>
      <trkpt lat="44.12515" lon="2.26705">
        <ele>408</ele>
        <time>2022-09-11T09:05:40.317Z</time>
      </trkpt>
      <trkpt lat="44.12514" lon="2.26706">
        <ele>408</ele>
        <time>2022-09-11T09:05:41.317Z</time>
      </trkpt>
      <trkpt lat="44.12513" lon="2.26706">
        <ele>408</ele>
        <time>2022-09-11T09:05:42.317Z</time>
      </trkpt>
      <trkpt lat="44.12512" lon="2.26707">
        <ele>408</ele>
        <time>2022-09-11T09:05:43.317Z</time>
      </trkpt>
      <trkpt lat="44.12511" lon="2.26708">
        <ele>408</ele>
        <time>2022-09-11T09:05:44.317Z</time>
      </trkpt>
      <trkpt lat="44.1251" lon="2.26709">
        <ele>408</ele>
        <time>2022-09-11T09:05:45.317Z</time>
      </trkpt>
      <trkpt lat="44.12509" lon="2.2671">
        <ele>408</ele>
        <time>2022-09-11T09:05:46.317Z</time>
      </trkpt>
      <trkpt lat="44.12509" lon="2.26711">
        <ele>408</ele>
        <time>2022-09-11T09:05:47.317Z</time>
      </trkpt>
      <trkpt lat="44.12508" lon="2.26712">
        <ele>408</ele>
        <time>2022-09-11T09:05:48.317Z</time>
      </trkpt>
      <trkpt lat="44.12507" lon="2.26712">
        <ele>408</ele>
        <time>2022-09-11T09:05:49.317Z</time>
      </trkpt>
      <trkpt lat="44.12506" lon="2.26713">
        <ele>408</ele>
        <time>2022-09-11T09:05:50.317Z</time>
      </trkpt>
      <trkpt lat="44.12505" lon="2.26714">
        <ele>408</ele>
        <time>2022-09-11T09:05:51.317Z</time>
      </trkpt>
      <trkpt lat="44.12504" lon="2.26714">
        <ele>408</ele>
        <time>2022-09-11T09:05:52.317Z</time>
      </trkpt>
      <trkpt lat="44.12503" lon="2.26715">
        <ele>408</ele>
        <time>2022-09-11T09:05:53.317Z</time>
      </trkpt>
      <trkpt lat="44.12502" lon="2.26715">
        <ele>408</ele>
        <time>2022-09-11T09:05:54.317Z</time>
      </trkpt>
      <trkpt lat="44.12502" lon="2.26715">
        <ele>408</ele>
        <time>2022-09-11T09:05:55.317Z</time>
      </trkpt>
      <trkpt lat="44.12502" lon="2.26715">
        <ele>408</ele>
        <time>2022-09-11T09:05:56.317Z</time>
      </trkpt>
      <trkpt lat="44.12501" lon="2.26715">
        <ele>408</ele>
        <time>2022-09-11T09:05:57.317Z</time>
      </trkpt>
      <trkpt lat="44.125" lon="2.26716">
        <ele>408</ele>
        <time>2022-09-11T09:05:58.317Z</time>
      </trkpt>
      <trkpt lat="44.125" lon="2.26716">
        <ele>408</ele>
        <time>2022-09-11T09:05:59.317Z</time>
      </trkpt>
      <trkpt lat="44.12499" lon="2.26717">
        <ele>408</ele>
        <time>2022-09-11T09:06:00.317Z</time>
      </trkpt>
      <trkpt lat="44.12498" lon="2.26717">
        <ele>408</ele>
        <time>2022-09-11T09:06:01.317Z</time>
      </trkpt>
      <trkpt lat="44.12497" lon="2.26718">
        <ele>408</ele>
        <time>2022-09-11T09:06:02.317Z</time>
      </trkpt>
      <trkpt lat="44.12496" lon="2.26718">
        <ele>408</ele>
        <time>2022-09-11T09:06:03.317Z</time>
      </trkpt>
      <trkpt lat="44.12495" lon="2.26719">
        <ele>409</ele>
        <time>2022-09-11T09:06:04.317Z</time>
      </trkpt>
      <trkpt lat="44.12494" lon="2.26719">
        <ele>409</ele>
        <time>2022-09-11T09:06:05.317Z</time>
      </trkpt>
      <trkpt lat="44.12493" lon="2.26719">
        <ele>409</ele>
        <time>2022-09-11T09:06:06.317Z</time>
      </trkpt>
      <trkpt lat="44.12492" lon="2.26718">
        <ele>409</ele>
        <time>2022-09-11T09:06:07.317Z</time>
      </trkpt>
      <trkpt lat="44.12491" lon="2.26718">
        <ele>409</ele>
        <time>2022-09-11T09:06:08.317Z</time>
      </trkpt>
      <trkpt lat="44.1249" lon="2.26719">
        <ele>409</ele>
        <time>2022-09-11T09:06:09.317Z</time>
      </trkpt>
      <trkpt lat="44.12489" lon="2.26719">
        <ele>409</ele>
        <time>2022-09-11T09:06:10.317Z</time>
      </trkpt>
      <trkpt lat="44.12488" lon="2.26719">
        <ele>409</ele>
        <time>2022-09-11T09:06:11.317Z</time>
      </trkpt>
      <trkpt lat="44.12487" lon="2.26719">
        <ele>410</ele>
        <time>2022-09-11T09:06:12.317Z</time>
      </trkpt>
      <trkpt lat="44.12486" lon="2.26719">
        <ele>410</ele>
        <time>2022-09-11T09:06:13.317Z</time>
      </trkpt>
      <trkpt lat="44.12486" lon="2.26719">
        <ele>410</ele>
        <time>2022-09-11T09:06:14.317Z</time>
      </trkpt>
      <trkpt lat="44.12485" lon="2.26719">
        <ele>410</ele>
        <time>2022-09-11T09:06:15.317Z</time>
      </trkpt>
      <trkpt lat="44.12484" lon="2.26719">
        <ele>410</ele>
        <time>2022-09-11T09:06:16.317Z</time>
      </trkpt>
      <trkpt lat="44.12483" lon="2.26718">
        <ele>410</ele>
        <time>2022-09-11T09:06:17.317Z</time>
      </trkpt>
      <trkpt lat="44.12482" lon="2.26718">
        <ele>411</ele>
        <time>2022-09-11T09:06:18.317Z</time>
      </trkpt>
      <trkpt lat="44.12481" lon="2.26718">
        <ele>411</ele>
        <time>2022-09-11T09:06:19.317Z</time>
      </trkpt>
      <trkpt lat="44.1248" lon="2.26717">
        <ele>411</ele>
        <time>2022-09-11T09:06:20.317Z</time>
      </trkpt>
      <trkpt lat="44.12479" lon="2.26717">
        <ele>411</ele>
        <time>2022-09-11T09:06:21.317Z</time>
      </trkpt>
      <trkpt lat="44.12478" lon="2.26716">
        <ele>411</ele>
        <time>2022-09-11T09:06:22.317Z</time>
      </trkpt>
      <trkpt lat="44.12477" lon="2.26716">
        <ele>411</ele>
        <time>2022-09-11T09:06:23.317Z</time>
      </trkpt>
      <trkpt lat="44.12477" lon="2.26715">
        <ele>411</ele>
        <time>2022-09-11T09:06:24.317Z</time>
      </trkpt>
      <trkpt lat="44.12476" lon="2.26715">
        <ele>412</ele>
        <time>2022-09-11T09:06:25.317Z</time>
      </trkpt>
      <trkpt lat="44.12474" lon="2.26715">
        <ele>412</ele>
        <time>2022-09-11T09:06:26.317Z</time>
      </trkpt>
      <trkpt lat="44.12473" lon="2.26715">
        <ele>412</ele>
        <time>2022-09-11T09:06:27.317Z</time>
      </trkpt>
      <trkpt lat="44.12472" lon="2.26714">
        <ele>412</ele>
        <time>2022-09-11T09:06:28.317Z</time>
      </trkpt>
      <trkpt lat="44.12471" lon="2.26714">
        <ele>412</ele>
        <time>2022-09-11T09:06:29.317Z</time>
      </trkpt>
      <trkpt lat="44.1247" lon="2.26714">
        <ele>413</ele>
        <time>2022-09-11T09:06:30.317Z</time>
      </trkpt>
      <trkpt lat="44.12469" lon="2.26713">
        <ele>413</ele>
        <time>2022-09-11T09:06:31.317Z</time>
      </trkpt>
      <trkpt lat="44.12469" lon="2.26713">
        <ele>413</ele>
        <time>2022-09-11T09:06:32.317Z</time>
      </trkpt>
      <trkpt lat="44.12468" lon="2.26712">
        <ele>413</ele>
        <time>2022-09-11T09:06:33.317Z</time>
      </trkpt>
      <trkpt lat="44.12467" lon="2.26712">
        <ele>413</ele>
        <time>2022-09-11T09:06:34.317Z</time>
      </trkpt>
      <trkpt lat="44.12466" lon="2.26711">
        <ele>414</ele>
        <time>2022-09-11T09:06:35.317Z</time>
      </trkpt>
      <trkpt lat="44.12465" lon="2.2671">
        <ele>414</ele>
        <time>2022-09-11T09:06:36.317Z</time>
      </trkpt>
      <trkpt lat="44.12464" lon="2.2671">
        <ele>414</ele>
        <time>2022-09-11T09:06:37.317Z</time>
      </trkpt>
      <trkpt lat="44.12463" lon="2.26709">
        <ele>415</ele>
        <time>2022-09-11T09:06:38.317Z</time>
      </trkpt>
      <trkpt lat="44.12463" lon="2.26709">
        <ele>415</ele>
        <time>2022-09-11T09:06:39.317Z</time>
      </trkpt>
      <trkpt lat="44.12462" lon="2.26708">
        <ele>415</ele>
        <time>2022-09-11T09:06:40.317Z</time>
      </trkpt>
      <trkpt lat="44.1246" lon="2.26707">
        <ele>415</ele>
        <time>2022-09-11T09:06:41.317Z</time>
      </trkpt>
      <trkpt lat="44.12459" lon="2.26706">
        <ele>415</ele>
        <time>2022-09-11T09:06:42.317Z</time>
      </trkpt>
      <trkpt lat="44.12458" lon="2.26706">
        <ele>416</ele>
        <time>2022-09-11T09:06:43.317Z</time>
      </trkpt>
      <trkpt lat="44.12457" lon="2.26705">
        <ele>416</ele>
        <time>2022-09-11T09:06:44.317Z</time>
      </trkpt>
      <trkpt lat="44.12456" lon="2.26705">
        <ele>416</ele>
        <time>2022-09-11T09:06:45.317Z</time>
      </trkpt>
      <trkpt lat="44.12455" lon="2.26704">
        <ele>416</ele>
        <time>2022-09-11T09:06:46.317Z</time>
      </trkpt>
      <trkpt lat="44.12453" lon="2.26703">
        <ele>416</ele>
        <time>2022-09-11T09:06:47.317Z</time>
      </trkpt>
      <trkpt lat="44.12452" lon="2.26703">
        <ele>416</ele>
        <time>2022-09-11T09:06:48.317Z</time>
      </trkpt>
      <trkpt lat="44.12451" lon="2.26702">
        <ele>417</ele>
        <time>2022-09-11T09:06:49.317Z</time>
      </trkpt>
      <trkpt lat="44.1245" lon="2.26701">
        <ele>417</ele>
        <time>2022-09-11T09:06:50.317Z</time>
      </trkpt>
      <trkpt lat="44.12449" lon="2.267">
        <ele>417</ele>
        <time>2022-09-11T09:06:51.317Z</time>
      </trkpt>
      <trkpt lat="44.12448" lon="2.26699">
        <ele>417</ele>
        <time>2022-09-11T09:06:52.317Z</time>
      </trkpt>
      <trkpt lat="44.12447" lon="2.26698">
        <ele>417</ele>
        <time>2022-09-11T09:06:53.317Z</time>
      </trkpt>
      <trkpt lat="44.12446" lon="2.26698">
        <ele>416</ele>
        <time>2022-09-11T09:06:54.317Z</time>
      </trkpt>
      <trkpt lat="44.12445" lon="2.26697">
        <ele>416</ele>
        <time>2022-09-11T09:06:55.317Z</time>
      </trkpt>
      <trkpt lat="44.12444" lon="2.26696">
        <ele>416</ele>
        <time>2022-09-11T09:06:56.317Z</time>
      </trkpt>
      <trkpt lat="44.12444" lon="2.26695">
        <ele>416</ele>
        <time>2022-09-11T09:06:57.317Z</time>
      </trkpt>
      <trkpt lat="44.12443" lon="2.26695">
        <ele>416</ele>
        <time>2022-09-11T09:06:58.317Z</time>
      </trkpt>
      <trkpt lat="44.12442" lon="2.26694">
        <ele>416</ele>
        <time>2022-09-11T09:06:59.317Z</time>
      </trkpt>
      <trkpt lat="44.12441" lon="2.26694">
        <ele>416</ele>
        <time>2022-09-11T09:07:00.317Z</time>
      </trkpt>
      <trkpt lat="44.1244" lon="2.26693">
        <ele>416</ele>
        <time>2022-09-11T09:07:01.317Z</time>
      </trkpt>
      <trkpt lat="44.1244" lon="2.26692">
        <ele>416</ele>
        <time>2022-09-11T09:07:02.317Z</time>
      </trkpt>
      <trkpt lat="44.12439" lon="2.26692">
        <ele>416</ele>
        <time>2022-09-11T09:07:03.317Z</time>
      </trkpt>
      <trkpt lat="44.12438" lon="2.26691">
        <ele>416</ele>
        <time>2022-09-11T09:07:04.317Z</time>
      </trkpt>
      <trkpt lat="44.12437" lon="2.26691">
        <ele>416</ele>
        <time>2022-09-11T09:07:05.317Z</time>
      </trkpt>
      <trkpt lat="44.12436" lon="2.2669">
        <ele>416</ele>
        <time>2022-09-11T09:07:06.317Z</time>
      </trkpt>
      <trkpt lat="44.12435" lon="2.2669">
        <ele>416</ele>
        <time>2022-09-11T09:07:07.317Z</time>
      </trkpt>
      <trkpt lat="44.12434" lon="2.2669">
        <ele>416</ele>
        <time>2022-09-11T09:07:08.317Z</time>
      </trkpt>
      <trkpt lat="44.12433" lon="2.2669">
        <ele>416</ele>
        <time>2022-09-11T09:07:09.317Z</time>
      </trkpt>
      <trkpt lat="44.12432" lon="2.2669">
        <ele>416</ele>
        <time>2022-09-11T09:07:10.317Z</time>
      </trkpt>
      <trkpt lat="44.12431" lon="2.2669">
        <ele>416</ele>
        <time>2022-09-11T09:07:11.317Z</time>
      </trkpt>
      <trkpt lat="44.1243" lon="2.26691">
        <ele>416</ele>
        <time>2022-09-11T09:07:12.317Z</time>
      </trkpt>
      <trkpt lat="44.12429" lon="2.26691">
        <ele>416</ele>
        <time>2022-09-11T09:07:13.317Z</time>
      </trkpt>
      <trkpt lat="44.12428" lon="2.26692">
        <ele>416</ele>
        <time>2022-09-11T09:07:14.317Z</time>
      </trkpt>
      <trkpt lat="44.12427" lon="2.26693">
        <ele>416</ele>
        <time>2022-09-11T09:07:15.317Z</time>
      </trkpt>
      <trkpt lat="44.12426" lon="2.26693">
        <ele>416</ele>
        <time>2022-09-11T09:07:16.317Z</time>
      </trkpt>
      <trkpt lat="44.12425" lon="2.26694">
        <ele>416</ele>
        <time>2022-09-11T09:07:17.317Z</time>
      </trkpt>
      <trkpt lat="44.12424" lon="2.26694">
        <ele>415</ele>
        <time>2022-09-11T09:07:18.317Z</time>
      </trkpt>
      <trkpt lat="44.12423" lon="2.26695">
        <ele>415</ele>
        <time>2022-09-11T09:07:19.317Z</time>
      </trkpt>
      <trkpt lat="44.12422" lon="2.26696">
        <ele>415</ele>
        <time>2022-09-11T09:07:20.317Z</time>
      </trkpt>
      <trkpt lat="44.12421" lon="2.26697">
        <ele>415</ele>
        <time>2022-09-11T09:07:21.317Z</time>
      </trkpt>
      <trkpt lat="44.1242" lon="2.26697">
        <ele>415</ele>
        <time>2022-09-11T09:07:22.317Z</time>
      </trkpt>
      <trkpt lat="44.12419" lon="2.26698">
        <ele>415</ele>
        <time>2022-09-11T09:07:23.317Z</time>
      </trkpt>
      <trkpt lat="44.12418" lon="2.26699">
        <ele>415</ele>
        <time>2022-09-11T09:07:24.317Z</time>
      </trkpt>
      <trkpt lat="44.12416" lon="2.26699">
        <ele>415</ele>
        <time>2022-09-11T09:07:25.317Z</time>
      </trkpt>
      <trkpt lat="44.12415" lon="2.267">
        <ele>415</ele>
        <time>2022-09-11T09:07:26.317Z</time>
      </trkpt>
      <trkpt lat="44.12414" lon="2.26701">
        <ele>415</ele>
        <time>2022-09-11T09:07:27.317Z</time>
      </trkpt>
      <trkpt lat="44.12413" lon="2.26701">
        <ele>415</ele>
        <time>2022-09-11T09:07:28.317Z</time>
      </trkpt>
      <trkpt lat="44.12411" lon="2.26701">
        <ele>415</ele>
        <time>2022-09-11T09:07:29.317Z</time>
      </trkpt>
      <trkpt lat="44.1241" lon="2.26702">
        <ele>415</ele>
        <time>2022-09-11T09:07:30.317Z</time>
      </trkpt>
      <trkpt lat="44.12409" lon="2.26703">
        <ele>415</ele>
        <time>2022-09-11T09:07:31.317Z</time>
      </trkpt>
      <trkpt lat="44.12408" lon="2.26703">
        <ele>415</ele>
        <time>2022-09-11T09:07:32.317Z</time>
      </trkpt>
      <trkpt lat="44.12407" lon="2.26704">
        <ele>415</ele>
        <time>2022-09-11T09:07:33.317Z</time>
      </trkpt>
      <trkpt lat="44.12406" lon="2.26704">
        <ele>415</ele>
        <time>2022-09-11T09:07:34.317Z</time>
      </trkpt>
      <trkpt lat="44.12405" lon="2.26705">
        <ele>415</ele>
        <time>2022-09-11T09:07:35.317Z</time>
      </trkpt>
      <trkpt lat="44.12405" lon="2.26706">
        <ele>415</ele>
        <time>2022-09-11T09:07:36.317Z</time>
      </trkpt>
      <trkpt lat="44.12403" lon="2.26707">
        <ele>415</ele>
        <time>2022-09-11T09:07:37.317Z</time>
      </trkpt>
      <trkpt lat="44.12402" lon="2.26707">
        <ele>415</ele>
        <time>2022-09-11T09:07:38.317Z</time>
      </trkpt>
      <trkpt lat="44.12401" lon="2.26707">
        <ele>415</ele>
        <time>2022-09-11T09:07:39.317Z</time>
      </trkpt>
      <trkpt lat="44.124" lon="2.26707">
        <ele>415</ele>
        <time>2022-09-11T09:07:40.317Z</time>
      </trkpt>
      <trkpt lat="44.124" lon="2.26707">
        <ele>415</ele>
        <time>2022-09-11T09:07:41.317Z</time>
      </trkpt>
      <trkpt lat="44.12399" lon="2.26707">
        <ele>415</ele>
        <time>2022-09-11T09:07:42.317Z</time>
      </trkpt>
      <trkpt lat="44.12398" lon="2.26707">
        <ele>415</ele>
        <time>2022-09-11T09:07:43.317Z</time>
      </trkpt>
      <trkpt lat="44.12397" lon="2.26707">
        <ele>415</ele>
        <time>2022-09-11T09:07:44.317Z</time>
      </trkpt>
      <trkpt lat="44.12396" lon="2.26707">
        <ele>415</ele>
        <time>2022-09-11T09:07:45.317Z</time>
      </trkpt>
      <trkpt lat="44.12395" lon="2.26706">
        <ele>415</ele>
        <time>2022-09-11T09:07:46.317Z</time>
      </trkpt>
      <trkpt lat="44.12394" lon="2.26706">
        <ele>415</ele>
        <time>2022-09-11T09:07:47.317Z</time>
      </trkpt>
      <trkpt lat="44.12393" lon="2.26706">
        <ele>415</ele>
        <time>2022-09-11T09:07:48.317Z</time>
      </trkpt>
      <trkpt lat="44.12392" lon="2.26706">
        <ele>415</ele>
        <time>2022-09-11T09:07:49.317Z</time>
      </trkpt>
      <trkpt lat="44.12391" lon="2.26706">
        <ele>416</ele>
        <time>2022-09-11T09:07:50.317Z</time>
      </trkpt>
      <trkpt lat="44.1239" lon="2.26705">
        <ele>416</ele>
        <time>2022-09-11T09:07:51.317Z</time>
      </trkpt>
      <trkpt lat="44.12388" lon="2.26705">
        <ele>416</ele>
        <time>2022-09-11T09:07:52.317Z</time>
      </trkpt>
      <trkpt lat="44.12387" lon="2.26705">
        <ele>416</ele>
        <time>2022-09-11T09:07:53.317Z</time>
      </trkpt>
      <trkpt lat="44.12386" lon="2.26705">
        <ele>416</ele>
        <time>2022-09-11T09:07:54.317Z</time>
      </trkpt>
      <trkpt lat="44.12385" lon="2.26704">
        <ele>416</ele>
        <time>2022-09-11T09:07:55.317Z</time>
      </trkpt>
      <trkpt lat="44.12384" lon="2.26703">
        <ele>416</ele>
        <time>2022-09-11T09:07:56.317Z</time>
      </trkpt>
      <trkpt lat="44.12383" lon="2.26703">
        <ele>416</ele>
        <time>2022-09-11T09:07:57.317Z</time>
      </trkpt>
      <trkpt lat="44.12382" lon="2.26703">
        <ele>417</ele>
        <time>2022-09-11T09:07:58.317Z</time>
      </trkpt>
      <trkpt lat="44.12381" lon="2.26702">
        <ele>417</ele>
        <time>2022-09-11T09:07:59.317Z</time>
      </trkpt>
      <trkpt lat="44.1238" lon="2.26702">
        <ele>417</ele>
        <time>2022-09-11T09:08:00.317Z</time>
      </trkpt>
      <trkpt lat="44.12378" lon="2.26702">
        <ele>417</ele>
        <time>2022-09-11T09:08:01.317Z</time>
      </trkpt>
      <trkpt lat="44.12377" lon="2.26702">
        <ele>417</ele>
        <time>2022-09-11T09:08:02.317Z</time>
      </trkpt>
      <trkpt lat="44.12376" lon="2.26701">
        <ele>417</ele>
        <time>2022-09-11T09:08:03.317Z</time>
      </trkpt>
      <trkpt lat="44.12375" lon="2.26701">
        <ele>417</ele>
        <time>2022-09-11T09:08:04.317Z</time>
      </trkpt>
      <trkpt lat="44.12374" lon="2.26701">
        <ele>417</ele>
        <time>2022-09-11T09:08:05.317Z</time>
      </trkpt>
      <trkpt lat="44.12373" lon="2.26701">
        <ele>417</ele>
        <time>2022-09-11T09:08:06.317Z</time>
      </trkpt>
      <trkpt lat="44.12372" lon="2.26701">
        <ele>417</ele>
        <time>2022-09-11T09:08:07.317Z</time>
      </trkpt>
      <trkpt lat="44.12371" lon="2.26701">
        <ele>417</ele>
        <time>2022-09-11T09:08:08.317Z</time>
      </trkpt>
      <trkpt lat="44.1237" lon="2.26701">
        <ele>417</ele>
        <time>2022-09-11T09:08:09.317Z</time>
      </trkpt>
      <trkpt lat="44.12369" lon="2.26701">
        <ele>417</ele>
        <time>2022-09-11T09:08:10.317Z</time>
      </trkpt>
      <trkpt lat="44.12368" lon="2.26701">
        <ele>417</ele>
        <time>2022-09-11T09:08:11.317Z</time>
      </trkpt>
      <trkpt lat="44.12367" lon="2.26701">
        <ele>417</ele>
        <time>2022-09-11T09:08:12.317Z</time>
      </trkpt>
      <trkpt lat="44.12366" lon="2.26701">
        <ele>417</ele>
        <time>2022-09-11T09:08:13.317Z</time>
      </trkpt>
      <trkpt lat="44.12365" lon="2.26701">
        <ele>417</ele>
        <time>2022-09-11T09:08:14.317Z</time>
      </trkpt>
      <trkpt lat="44.12364" lon="2.26701">
        <ele>417</ele>
        <time>2022-09-11T09:08:15.317Z</time>
      </trkpt>
      <trkpt lat="44.12362" lon="2.26701">
        <ele>417</ele>
        <time>2022-09-11T09:08:16.317Z</time>
      </trkpt>
      <trkpt lat="44.12361" lon="2.26702">
        <ele>417</ele>
        <time>2022-09-11T09:08:17.317Z</time>
      </trkpt>
      <trkpt lat="44.1236" lon="2.26702">
        <ele>417</ele>
        <time>2022-09-11T09:08:18.317Z</time>
      </trkpt>
      <trkpt lat="44.12359" lon="2.26702">
        <ele>417</ele>
        <time>2022-09-11T09:08:19.317Z</time>
      </trkpt>
      <trkpt lat="44.12358" lon="2.26702">
        <ele>417</ele>
        <time>2022-09-11T09:08:20.317Z</time>
      </trkpt>
      <trkpt lat="44.12357" lon="2.26701">
        <ele>417</ele>
        <time>2022-09-11T09:08:21.317Z</time>
      </trkpt>
      <trkpt lat="44.12356" lon="2.26702">
        <ele>417</ele>
        <time>2022-09-11T09:08:22.317Z</time>
      </trkpt>
      <trkpt lat="44.12355" lon="2.26701">
        <ele>417</ele>
        <time>2022-09-11T09:08:23.317Z</time>
      </trkpt>
      <trkpt lat="44.12354" lon="2.26702">
        <ele>417</ele>
        <time>2022-09-11T09:08:24.317Z</time>
      </trkpt>
      <trkpt lat="44.12353" lon="2.26702">
        <ele>417</ele>
        <time>2022-09-11T09:08:25.317Z</time>
      </trkpt>
      <trkpt lat="44.12351" lon="2.26702">
        <ele>417</ele>
        <time>2022-09-11T09:08:26.317Z</time>
      </trkpt>
      <trkpt lat="44.1235" lon="2.26702">
        <ele>417</ele>
        <time>2022-09-11T09:08:27.317Z</time>
      </trkpt>
      <trkpt lat="44.12349" lon="2.26701">
        <ele>417</ele>
        <time>2022-09-11T09:08:28.317Z</time>
      </trkpt>
      <trkpt lat="44.12348" lon="2.26701">
        <ele>417</ele>
        <time>2022-09-11T09:08:29.317Z</time>
      </trkpt>
      <trkpt lat="44.12347" lon="2.26701">
        <ele>417</ele>
        <time>2022-09-11T09:08:30.317Z</time>
      </trkpt>
      <trkpt lat="44.12346" lon="2.267">
        <ele>417</ele>
        <time>2022-09-11T09:08:31.317Z</time>
      </trkpt>
      <trkpt lat="44.12345" lon="2.267">
        <ele>417</ele>
        <time>2022-09-11T09:08:32.317Z</time>
      </trkpt>
      <trkpt lat="44.12344" lon="2.267">
        <ele>417</ele>
        <time>2022-09-11T09:08:33.317Z</time>
      </trkpt>
      <trkpt lat="44.12343" lon="2.267">
        <ele>417</ele>
        <time>2022-09-11T09:08:34.317Z</time>
      </trkpt>
      <trkpt lat="44.12342" lon="2.267">
        <ele>417</ele>
        <time>2022-09-11T09:08:35.317Z</time>
      </trkpt>
      <trkpt lat="44.12341" lon="2.267">
        <ele>417</ele>
        <time>2022-09-11T09:08:36.317Z</time>
      </trkpt>
      <trkpt lat="44.1234" lon="2.26699">
        <ele>417</ele>
        <time>2022-09-11T09:08:37.317Z</time>
      </trkpt>
      <trkpt lat="44.12339" lon="2.267">
        <ele>417</ele>
        <time>2022-09-11T09:08:38.317Z</time>
      </trkpt>
      <trkpt lat="44.12338" lon="2.267">
        <ele>417</ele>
        <time>2022-09-11T09:08:39.317Z</time>
      </trkpt>
      <trkpt lat="44.12337" lon="2.26699">
        <ele>417</ele>
        <time>2022-09-11T09:08:40.317Z</time>
      </trkpt>
      <trkpt lat="44.12336" lon="2.26699">
        <ele>417</ele>
        <time>2022-09-11T09:08:41.317Z</time>
      </trkpt>
      <trkpt lat="44.12335" lon="2.26699">
        <ele>417</ele>
        <time>2022-09-11T09:08:42.317Z</time>
      </trkpt>
      <trkpt lat="44.12335" lon="2.26699">
        <ele>417</ele>
        <time>2022-09-11T09:08:43.317Z</time>
      </trkpt>
      <trkpt lat="44.12334" lon="2.26699">
        <ele>417</ele>
        <time>2022-09-11T09:08:44.317Z</time>
      </trkpt>
      <trkpt lat="44.12333" lon="2.26699">
        <ele>417</ele>
        <time>2022-09-11T09:08:45.317Z</time>
      </trkpt>
      <trkpt lat="44.12332" lon="2.26698">
        <ele>417</ele>
        <time>2022-09-11T09:08:46.317Z</time>
      </trkpt>
      <trkpt lat="44.12332" lon="2.26698">
        <ele>417</ele>
        <time>2022-09-11T09:08:47.317Z</time>
      </trkpt>
      <trkpt lat="44.12331" lon="2.26697">
        <ele>417</ele>
        <time>2022-09-11T09:08:48.317Z</time>
      </trkpt>
      <trkpt lat="44.12329" lon="2.26698">
        <ele>417</ele>
        <time>2022-09-11T09:08:49.317Z</time>
      </trkpt>
      <trkpt lat="44.12328" lon="2.26698">
        <ele>417</ele>
        <time>2022-09-11T09:08:50.317Z</time>
      </trkpt>
      <trkpt lat="44.12327" lon="2.26698">
        <ele>417</ele>
        <time>2022-09-11T09:08:51.317Z</time>
      </trkpt>
      <trkpt lat="44.12326" lon="2.26698">
        <ele>417</ele>
        <time>2022-09-11T09:08:52.317Z</time>
      </trkpt>
      <trkpt lat="44.12325" lon="2.26698">
        <ele>417</ele>
        <time>2022-09-11T09:08:53.317Z</time>
      </trkpt>
      <trkpt lat="44.12324" lon="2.26698">
        <ele>417</ele>
        <time>2022-09-11T09:08:54.317Z</time>
      </trkpt>
      <trkpt lat="44.12322" lon="2.26698">
        <ele>417</ele>
        <time>2022-09-11T09:08:55.317Z</time>
      </trkpt>
      <trkpt lat="44.12321" lon="2.26698">
        <ele>417</ele>
        <time>2022-09-11T09:08:56.317Z</time>
      </trkpt>
      <trkpt lat="44.1232" lon="2.26698">
        <ele>417</ele>
        <time>2022-09-11T09:08:57.317Z</time>
      </trkpt>
      <trkpt lat="44.12319" lon="2.26698">
        <ele>417</ele>
        <time>2022-09-11T09:08:58.317Z</time>
      </trkpt>
      <trkpt lat="44.12318" lon="2.26698">
        <ele>417</ele>
        <time>2022-09-11T09:08:59.317Z</time>
      </trkpt>
      <trkpt lat="44.12317" lon="2.26698">
        <ele>417</ele>
        <time>2022-09-11T09:09:00.317Z</time>
      </trkpt>
      <trkpt lat="44.12316" lon="2.26698">
        <ele>417</ele>
        <time>2022-09-11T09:09:01.317Z</time>
      </trkpt>
      <trkpt lat="44.12314" lon="2.26698">
        <ele>417</ele>
        <time>2022-09-11T09:09:02.317Z</time>
      </trkpt>
      <trkpt lat="44.12313" lon="2.26698">
        <ele>417</ele>
        <time>2022-09-11T09:09:03.317Z</time>
      </trkpt>
      <trkpt lat="44.12312" lon="2.26698">
        <ele>417</ele>
        <time>2022-09-11T09:09:04.317Z</time>
      </trkpt>
      <trkpt lat="44.12311" lon="2.26698">
        <ele>418</ele>
        <time>2022-09-11T09:09:05.317Z</time>
      </trkpt>
      <trkpt lat="44.1231" lon="2.26698">
        <ele>418</ele>
        <time>2022-09-11T09:09:06.317Z</time>
      </trkpt>
      <trkpt lat="44.12309" lon="2.26698">
        <ele>418</ele>
        <time>2022-09-11T09:09:07.317Z</time>
      </trkpt>
      <trkpt lat="44.12309" lon="2.26698">
        <ele>418</ele>
        <time>2022-09-11T09:09:08.317Z</time>
      </trkpt>
      <trkpt lat="44.12307" lon="2.26697">
        <ele>418</ele>
        <time>2022-09-11T09:09:09.317Z</time>
      </trkpt>
      <trkpt lat="44.12306" lon="2.26697">
        <ele>418</ele>
        <time>2022-09-11T09:09:10.317Z</time>
      </trkpt>
      <trkpt lat="44.12306" lon="2.26697">
        <ele>418</ele>
        <time>2022-09-11T09:09:11.317Z</time>
      </trkpt>
      <trkpt lat="44.12305" lon="2.26697">
        <ele>418</ele>
        <time>2022-09-11T09:09:12.317Z</time>
      </trkpt>
      <trkpt lat="44.12303" lon="2.26697">
        <ele>418</ele>
        <time>2022-09-11T09:09:13.317Z</time>
      </trkpt>
      <trkpt lat="44.12303" lon="2.26696">
        <ele>418</ele>
        <time>2022-09-11T09:09:14.317Z</time>
      </trkpt>
      <trkpt lat="44.12302" lon="2.26696">
        <ele>418</ele>
        <time>2022-09-11T09:09:15.317Z</time>
      </trkpt>
      <trkpt lat="44.12301" lon="2.26696">
        <ele>418</ele>
        <time>2022-09-11T09:09:16.317Z</time>
      </trkpt>
      <trkpt lat="44.123" lon="2.26696">
        <ele>418</ele>
        <time>2022-09-11T09:09:17.317Z</time>
      </trkpt>
      <trkpt lat="44.12299" lon="2.26696">
        <ele>417</ele>
        <time>2022-09-11T09:09:18.317Z</time>
      </trkpt>
      <trkpt lat="44.12298" lon="2.26695">
        <ele>417</ele>
        <time>2022-09-11T09:09:19.317Z</time>
      </trkpt>
      <trkpt lat="44.12297" lon="2.26695">
        <ele>417</ele>
        <time>2022-09-11T09:09:20.317Z</time>
      </trkpt>
      <trkpt lat="44.12297" lon="2.26695">
        <ele>417</ele>
        <time>2022-09-11T09:09:21.317Z</time>
      </trkpt>
      <trkpt lat="44.12296" lon="2.26695">
        <ele>417</ele>
        <time>2022-09-11T09:09:22.317Z</time>
      </trkpt>
      <trkpt lat="44.12295" lon="2.26695">
        <ele>417</ele>
        <time>2022-09-11T09:09:23.317Z</time>
      </trkpt>
      <trkpt lat="44.12294" lon="2.26695">
        <ele>417</ele>
        <time>2022-09-11T09:09:24.317Z</time>
      </trkpt>
      <trkpt lat="44.12293" lon="2.26694">
        <ele>417</ele>
        <time>2022-09-11T09:09:25.317Z</time>
      </trkpt>
      <trkpt lat="44.12292" lon="2.26694">
        <ele>417</ele>
        <time>2022-09-11T09:09:26.317Z</time>
      </trkpt>
      <trkpt lat="44.12291" lon="2.26694">
        <ele>417</ele>
        <time>2022-09-11T09:09:27.317Z</time>
      </trkpt>
      <trkpt lat="44.1229" lon="2.26694">
        <ele>417</ele>
        <time>2022-09-11T09:09:28.317Z</time>
      </trkpt>
      <trkpt lat="44.12289" lon="2.26694">
        <ele>417</ele>
        <time>2022-09-11T09:09:29.317Z</time>
      </trkpt>
      <trkpt lat="44.12289" lon="2.26693">
        <ele>417</ele>
        <time>2022-09-11T09:09:30.317Z</time>
      </trkpt>
      <trkpt lat="44.12288" lon="2.26692">
        <ele>417</ele>
        <time>2022-09-11T09:09:31.317Z</time>
      </trkpt>
      <trkpt lat="44.12287" lon="2.26692">
        <ele>417</ele>
        <time>2022-09-11T09:09:32.317Z</time>
      </trkpt>
      <trkpt lat="44.12286" lon="2.26692">
        <ele>417</ele>
        <time>2022-09-11T09:09:33.317Z</time>
      </trkpt>
      <trkpt lat="44.12285" lon="2.26692">
        <ele>417</ele>
        <time>2022-09-11T09:09:34.317Z</time>
      </trkpt>
      <trkpt lat="44.12284" lon="2.26692">
        <ele>417</ele>
        <time>2022-09-11T09:09:35.317Z</time>
      </trkpt>
      <trkpt lat="44.12283" lon="2.26691">
        <ele>417</ele>
        <time>2022-09-11T09:09:36.317Z</time>
      </trkpt>
      <trkpt lat="44.12283" lon="2.26691">
        <ele>418</ele>
        <time>2022-09-11T09:09:37.317Z</time>
      </trkpt>
      <trkpt lat="44.12282" lon="2.26691">
        <ele>418</ele>
        <time>2022-09-11T09:09:38.317Z</time>
      </trkpt>
      <trkpt lat="44.12282" lon="2.26691">
        <ele>418</ele>
        <time>2022-09-11T09:09:39.317Z</time>
      </trkpt>
      <trkpt lat="44.12281" lon="2.26691">
        <ele>418</ele>
        <time>2022-09-11T09:09:40.317Z</time>
      </trkpt>
      <trkpt lat="44.12281" lon="2.26691">
        <ele>418</ele>
        <time>2022-09-11T09:09:41.317Z</time>
      </trkpt>
      <trkpt lat="44.1228" lon="2.26691">
        <ele>418</ele>
        <time>2022-09-11T09:09:42.317Z</time>
      </trkpt>
      <trkpt lat="44.12279" lon="2.26691">
        <ele>418</ele>
        <time>2022-09-11T09:09:43.317Z</time>
      </trkpt>
      <trkpt lat="44.12278" lon="2.26691">
        <ele>418</ele>
        <time>2022-09-11T09:09:44.317Z</time>
      </trkpt>
      <trkpt lat="44.12277" lon="2.26691">
        <ele>418</ele>
        <time>2022-09-11T09:09:45.317Z</time>
      </trkpt>
      <trkpt lat="44.12276" lon="2.26691">
        <ele>418</ele>
        <time>2022-09-11T09:09:46.317Z</time>
      </trkpt>
      <trkpt lat="44.12275" lon="2.2669">
        <ele>418</ele>
        <time>2022-09-11T09:09:47.317Z</time>
      </trkpt>
      <trkpt lat="44.12274" lon="2.2669">
        <ele>418</ele>
        <time>2022-09-11T09:09:48.317Z</time>
      </trkpt>
      <trkpt lat="44.12273" lon="2.2669">
        <ele>418</ele>
        <time>2022-09-11T09:09:49.317Z</time>
      </trkpt>
      <trkpt lat="44.12271" lon="2.2669">
        <ele>418</ele>
        <time>2022-09-11T09:09:50.317Z</time>
      </trkpt>
      <trkpt lat="44.1227" lon="2.2669">
        <ele>418</ele>
        <time>2022-09-11T09:09:51.317Z</time>
      </trkpt>
      <trkpt lat="44.12269" lon="2.2669">
        <ele>419</ele>
        <time>2022-09-11T09:09:52.317Z</time>
      </trkpt>
      <trkpt lat="44.12267" lon="2.2669">
        <ele>419</ele>
        <time>2022-09-11T09:09:53.317Z</time>
      </trkpt>
      <trkpt lat="44.12266" lon="2.2669">
        <ele>419</ele>
        <time>2022-09-11T09:09:54.317Z</time>
      </trkpt>
      <trkpt lat="44.12265" lon="2.2669">
        <ele>419</ele>
        <time>2022-09-11T09:09:55.317Z</time>
      </trkpt>
      <trkpt lat="44.12264" lon="2.26689">
        <ele>419</ele>
        <time>2022-09-11T09:09:56.317Z</time>
      </trkpt>
      <trkpt lat="44.12263" lon="2.26689">
        <ele>419</ele>
        <time>2022-09-11T09:09:57.317Z</time>
      </trkpt>
      <trkpt lat="44.12261" lon="2.26689">
        <ele>419</ele>
        <time>2022-09-11T09:09:58.317Z</time>
      </trkpt>
      <trkpt lat="44.1226" lon="2.26689">
        <ele>419</ele>
        <time>2022-09-11T09:09:59.317Z</time>
      </trkpt>
      <trkpt lat="44.12259" lon="2.26689">
        <ele>419</ele>
        <time>2022-09-11T09:10:00.317Z</time>
      </trkpt>
      <trkpt lat="44.12258" lon="2.26689">
        <ele>419</ele>
        <time>2022-09-11T09:10:01.317Z</time>
      </trkpt>
      <trkpt lat="44.12256" lon="2.26688">
        <ele>419</ele>
        <time>2022-09-11T09:10:02.317Z</time>
      </trkpt>
      <trkpt lat="44.12255" lon="2.26688">
        <ele>419</ele>
        <time>2022-09-11T09:10:03.317Z</time>
      </trkpt>
      <trkpt lat="44.12254" lon="2.26688">
        <ele>419</ele>
        <time>2022-09-11T09:10:04.317Z</time>
      </trkpt>
      <trkpt lat="44.12252" lon="2.26688">
        <ele>420</ele>
        <time>2022-09-11T09:10:05.317Z</time>
      </trkpt>
      <trkpt lat="44.12251" lon="2.26687">
        <ele>420</ele>
        <time>2022-09-11T09:10:06.317Z</time>
      </trkpt>
      <trkpt lat="44.1225" lon="2.26687">
        <ele>420</ele>
        <time>2022-09-11T09:10:07.317Z</time>
      </trkpt>
      <trkpt lat="44.12249" lon="2.26686">
        <ele>420</ele>
        <time>2022-09-11T09:10:08.317Z</time>
      </trkpt>
      <trkpt lat="44.12247" lon="2.26686">
        <ele>420</ele>
        <time>2022-09-11T09:10:09.317Z</time>
      </trkpt>
      <trkpt lat="44.12246" lon="2.26686">
        <ele>420</ele>
        <time>2022-09-11T09:10:10.317Z</time>
      </trkpt>
      <trkpt lat="44.12245" lon="2.26686">
        <ele>420</ele>
        <time>2022-09-11T09:10:11.317Z</time>
      </trkpt>
      <trkpt lat="44.12244" lon="2.26686">
        <ele>420</ele>
        <time>2022-09-11T09:10:12.317Z</time>
      </trkpt>
      <trkpt lat="44.12243" lon="2.26685">
        <ele>420</ele>
        <time>2022-09-11T09:10:13.317Z</time>
      </trkpt>
      <trkpt lat="44.12241" lon="2.26685">
        <ele>420</ele>
        <time>2022-09-11T09:10:14.317Z</time>
      </trkpt>
      <trkpt lat="44.1224" lon="2.26685">
        <ele>420</ele>
        <time>2022-09-11T09:10:15.317Z</time>
      </trkpt>
      <trkpt lat="44.12239" lon="2.26684">
        <ele>420</ele>
        <time>2022-09-11T09:10:16.317Z</time>
      </trkpt>
      <trkpt lat="44.12238" lon="2.26684">
        <ele>420</ele>
        <time>2022-09-11T09:10:17.317Z</time>
      </trkpt>
      <trkpt lat="44.12237" lon="2.26684">
        <ele>420</ele>
        <time>2022-09-11T09:10:18.317Z</time>
      </trkpt>
      <trkpt lat="44.12236" lon="2.26684">
        <ele>420</ele>
        <time>2022-09-11T09:10:19.317Z</time>
      </trkpt>
      <trkpt lat="44.12235" lon="2.26684">
        <ele>420</ele>
        <time>2022-09-11T09:10:20.317Z</time>
      </trkpt>
      <trkpt lat="44.12234" lon="2.26683">
        <ele>420</ele>
        <time>2022-09-11T09:10:21.317Z</time>
      </trkpt>
      <trkpt lat="44.12233" lon="2.26682">
        <ele>420</ele>
        <time>2022-09-11T09:10:22.317Z</time>
      </trkpt>
      <trkpt lat="44.12232" lon="2.26682">
        <ele>421</ele>
        <time>2022-09-11T09:10:23.317Z</time>
      </trkpt>
      <trkpt lat="44.1223" lon="2.26681">
        <ele>421</ele>
        <time>2022-09-11T09:10:24.317Z</time>
      </trkpt>
      <trkpt lat="44.12229" lon="2.2668">
        <ele>421</ele>
        <time>2022-09-11T09:10:25.317Z</time>
      </trkpt>
      <trkpt lat="44.12228" lon="2.26679">
        <ele>421</ele>
        <time>2022-09-11T09:10:26.317Z</time>
      </trkpt>
      <trkpt lat="44.12227" lon="2.26678">
        <ele>421</ele>
        <time>2022-09-11T09:10:27.317Z</time>
      </trkpt>
      <trkpt lat="44.12226" lon="2.26678">
        <ele>421</ele>
        <time>2022-09-11T09:10:28.317Z</time>
      </trkpt>
      <trkpt lat="44.12225" lon="2.26677">
        <ele>421</ele>
        <time>2022-09-11T09:10:29.317Z</time>
      </trkpt>
      <trkpt lat="44.12224" lon="2.26675">
        <ele>422</ele>
        <time>2022-09-11T09:10:30.317Z</time>
      </trkpt>
      <trkpt lat="44.12223" lon="2.26674">
        <ele>422</ele>
        <time>2022-09-11T09:10:31.317Z</time>
      </trkpt>
      <trkpt lat="44.12221" lon="2.26673">
        <ele>422</ele>
        <time>2022-09-11T09:10:32.317Z</time>
      </trkpt>
      <trkpt lat="44.1222" lon="2.26672">
        <ele>422</ele>
        <time>2022-09-11T09:10:33.317Z</time>
      </trkpt>
      <trkpt lat="44.12219" lon="2.26672">
        <ele>422</ele>
        <time>2022-09-11T09:10:34.317Z</time>
      </trkpt>
      <trkpt lat="44.12218" lon="2.2667">
        <ele>422</ele>
        <time>2022-09-11T09:10:35.317Z</time>
      </trkpt>
      <trkpt lat="44.12217" lon="2.26669">
        <ele>422</ele>
        <time>2022-09-11T09:10:36.317Z</time>
      </trkpt>
      <trkpt lat="44.12216" lon="2.26668">
        <ele>422</ele>
        <time>2022-09-11T09:10:37.317Z</time>
      </trkpt>
      <trkpt lat="44.12215" lon="2.26668">
        <ele>423</ele>
        <time>2022-09-11T09:10:38.317Z</time>
      </trkpt>
      <trkpt lat="44.12214" lon="2.26667">
        <ele>423</ele>
        <time>2022-09-11T09:10:39.317Z</time>
      </trkpt>
      <trkpt lat="44.12213" lon="2.26666">
        <ele>423</ele>
        <time>2022-09-11T09:10:40.317Z</time>
      </trkpt>
      <trkpt lat="44.12212" lon="2.26665">
        <ele>423</ele>
        <time>2022-09-11T09:10:41.317Z</time>
      </trkpt>
      <trkpt lat="44.12211" lon="2.26664">
        <ele>423</ele>
        <time>2022-09-11T09:10:42.317Z</time>
      </trkpt>
      <trkpt lat="44.1221" lon="2.26663">
        <ele>423</ele>
        <time>2022-09-11T09:10:43.317Z</time>
      </trkpt>
      <trkpt lat="44.12209" lon="2.26662">
        <ele>423</ele>
        <time>2022-09-11T09:10:44.317Z</time>
      </trkpt>
      <trkpt lat="44.12209" lon="2.26661">
        <ele>423</ele>
        <time>2022-09-11T09:10:45.317Z</time>
      </trkpt>
      <trkpt lat="44.12208" lon="2.2666">
        <ele>424</ele>
        <time>2022-09-11T09:10:46.317Z</time>
      </trkpt>
      <trkpt lat="44.12207" lon="2.26659">
        <ele>424</ele>
        <time>2022-09-11T09:10:47.317Z</time>
      </trkpt>
      <trkpt lat="44.12206" lon="2.26658">
        <ele>424</ele>
        <time>2022-09-11T09:10:48.317Z</time>
      </trkpt>
      <trkpt lat="44.12205" lon="2.26656">
        <ele>424</ele>
        <time>2022-09-11T09:10:49.317Z</time>
      </trkpt>
      <trkpt lat="44.12204" lon="2.26655">
        <ele>424</ele>
        <time>2022-09-11T09:10:50.317Z</time>
      </trkpt>
      <trkpt lat="44.12204" lon="2.26654">
        <ele>424</ele>
        <time>2022-09-11T09:10:51.317Z</time>
      </trkpt>
      <trkpt lat="44.12203" lon="2.26653">
        <ele>424</ele>
        <time>2022-09-11T09:10:52.317Z</time>
      </trkpt>
      <trkpt lat="44.12202" lon="2.26651">
        <ele>424</ele>
        <time>2022-09-11T09:10:53.317Z</time>
      </trkpt>
      <trkpt lat="44.12201" lon="2.2665">
        <ele>424</ele>
        <time>2022-09-11T09:10:54.317Z</time>
      </trkpt>
      <trkpt lat="44.122" lon="2.26649">
        <ele>424</ele>
        <time>2022-09-11T09:10:55.317Z</time>
      </trkpt>
      <trkpt lat="44.122" lon="2.26648">
        <ele>424</ele>
        <time>2022-09-11T09:10:56.317Z</time>
      </trkpt>
      <trkpt lat="44.12199" lon="2.26646">
        <ele>424</ele>
        <time>2022-09-11T09:10:57.317Z</time>
      </trkpt>
      <trkpt lat="44.12198" lon="2.26645">
        <ele>424</ele>
        <time>2022-09-11T09:10:58.317Z</time>
      </trkpt>
      <trkpt lat="44.12197" lon="2.26644">
        <ele>424</ele>
        <time>2022-09-11T09:10:59.317Z</time>
      </trkpt>
      <trkpt lat="44.12196" lon="2.26643">
        <ele>424</ele>
        <time>2022-09-11T09:11:00.317Z</time>
      </trkpt>
      <trkpt lat="44.12195" lon="2.26642">
        <ele>424</ele>
        <time>2022-09-11T09:11:01.317Z</time>
      </trkpt>
      <trkpt lat="44.12195" lon="2.26641">
        <ele>424</ele>
        <time>2022-09-11T09:11:02.317Z</time>
      </trkpt>
      <trkpt lat="44.12194" lon="2.2664">
        <ele>424</ele>
        <time>2022-09-11T09:11:03.317Z</time>
      </trkpt>
      <trkpt lat="44.12193" lon="2.26638">
        <ele>424</ele>
        <time>2022-09-11T09:11:04.317Z</time>
      </trkpt>
      <trkpt lat="44.12192" lon="2.26637">
        <ele>424</ele>
        <time>2022-09-11T09:11:05.317Z</time>
      </trkpt>
      <trkpt lat="44.12192" lon="2.26636">
        <ele>424</ele>
        <time>2022-09-11T09:11:06.317Z</time>
      </trkpt>
      <trkpt lat="44.12191" lon="2.26635">
        <ele>424</ele>
        <time>2022-09-11T09:11:07.317Z</time>
      </trkpt>
      <trkpt lat="44.1219" lon="2.26634">
        <ele>424</ele>
        <time>2022-09-11T09:11:08.317Z</time>
      </trkpt>
      <trkpt lat="44.12189" lon="2.26633">
        <ele>424</ele>
        <time>2022-09-11T09:11:09.317Z</time>
      </trkpt>
      <trkpt lat="44.12189" lon="2.26631">
        <ele>424</ele>
        <time>2022-09-11T09:11:10.317Z</time>
      </trkpt>
      <trkpt lat="44.12188" lon="2.2663">
        <ele>424</ele>
        <time>2022-09-11T09:11:11.317Z</time>
      </trkpt>
      <trkpt lat="44.12187" lon="2.26629">
        <ele>424</ele>
        <time>2022-09-11T09:11:12.317Z</time>
      </trkpt>
      <trkpt lat="44.12187" lon="2.26627">
        <ele>424</ele>
        <time>2022-09-11T09:11:13.317Z</time>
      </trkpt>
      <trkpt lat="44.12186" lon="2.26626">
        <ele>424</ele>
        <time>2022-09-11T09:11:14.317Z</time>
      </trkpt>
      <trkpt lat="44.12186" lon="2.26625">
        <ele>424</ele>
        <time>2022-09-11T09:11:15.317Z</time>
      </trkpt>
      <trkpt lat="44.12185" lon="2.26624">
        <ele>424</ele>
        <time>2022-09-11T09:11:16.317Z</time>
      </trkpt>
      <trkpt lat="44.12185" lon="2.26623">
        <ele>424</ele>
        <time>2022-09-11T09:11:17.317Z</time>
      </trkpt>
      <trkpt lat="44.12185" lon="2.26621">
        <ele>424</ele>
        <time>2022-09-11T09:11:18.317Z</time>
      </trkpt>
      <trkpt lat="44.12184" lon="2.2662">
        <ele>424</ele>
        <time>2022-09-11T09:11:19.317Z</time>
      </trkpt>
      <trkpt lat="44.12184" lon="2.26619">
        <ele>424</ele>
        <time>2022-09-11T09:11:20.317Z</time>
      </trkpt>
      <trkpt lat="44.12184" lon="2.26617">
        <ele>424</ele>
        <time>2022-09-11T09:11:21.317Z</time>
      </trkpt>
      <trkpt lat="44.12184" lon="2.26616">
        <ele>424</ele>
        <time>2022-09-11T09:11:22.317Z</time>
      </trkpt>
      <trkpt lat="44.12184" lon="2.26615">
        <ele>424</ele>
        <time>2022-09-11T09:11:23.317Z</time>
      </trkpt>
      <trkpt lat="44.12184" lon="2.26613">
        <ele>423</ele>
        <time>2022-09-11T09:11:24.317Z</time>
      </trkpt>
      <trkpt lat="44.12183" lon="2.26611">
        <ele>423</ele>
        <time>2022-09-11T09:11:25.317Z</time>
      </trkpt>
      <trkpt lat="44.12183" lon="2.2661">
        <ele>423</ele>
        <time>2022-09-11T09:11:26.317Z</time>
      </trkpt>
      <trkpt lat="44.12183" lon="2.26608">
        <ele>423</ele>
        <time>2022-09-11T09:11:27.317Z</time>
      </trkpt>
      <trkpt lat="44.12183" lon="2.26607">
        <ele>423</ele>
        <time>2022-09-11T09:11:28.317Z</time>
      </trkpt>
      <trkpt lat="44.12182" lon="2.26605">
        <ele>423</ele>
        <time>2022-09-11T09:11:29.317Z</time>
      </trkpt>
      <trkpt lat="44.12182" lon="2.26604">
        <ele>422</ele>
        <time>2022-09-11T09:11:30.317Z</time>
      </trkpt>
      <trkpt lat="44.12182" lon="2.26603">
        <ele>422</ele>
        <time>2022-09-11T09:11:31.317Z</time>
      </trkpt>
      <trkpt lat="44.12181" lon="2.26602">
        <ele>422</ele>
        <time>2022-09-11T09:11:32.317Z</time>
      </trkpt>
      <trkpt lat="44.12181" lon="2.266">
        <ele>422</ele>
        <time>2022-09-11T09:11:33.317Z</time>
      </trkpt>
      <trkpt lat="44.12181" lon="2.26599">
        <ele>422</ele>
        <time>2022-09-11T09:11:34.317Z</time>
      </trkpt>
      <trkpt lat="44.12181" lon="2.26597">
        <ele>422</ele>
        <time>2022-09-11T09:11:35.317Z</time>
      </trkpt>
      <trkpt lat="44.1218" lon="2.26596">
        <ele>422</ele>
        <time>2022-09-11T09:11:36.317Z</time>
      </trkpt>
      <trkpt lat="44.1218" lon="2.26594">
        <ele>422</ele>
        <time>2022-09-11T09:11:37.317Z</time>
      </trkpt>
      <trkpt lat="44.1218" lon="2.26593">
        <ele>421</ele>
        <time>2022-09-11T09:11:38.317Z</time>
      </trkpt>
      <trkpt lat="44.1218" lon="2.26591">
        <ele>421</ele>
        <time>2022-09-11T09:11:39.317Z</time>
      </trkpt>
      <trkpt lat="44.1218" lon="2.2659">
        <ele>421</ele>
        <time>2022-09-11T09:11:40.317Z</time>
      </trkpt>
      <trkpt lat="44.1218" lon="2.26588">
        <ele>421</ele>
        <time>2022-09-11T09:11:41.317Z</time>
      </trkpt>
      <trkpt lat="44.1218" lon="2.26587">
        <ele>421</ele>
        <time>2022-09-11T09:11:42.317Z</time>
      </trkpt>
      <trkpt lat="44.1218" lon="2.26585">
        <ele>420</ele>
        <time>2022-09-11T09:11:43.317Z</time>
      </trkpt>
      <trkpt lat="44.12179" lon="2.26584">
        <ele>420</ele>
        <time>2022-09-11T09:11:44.317Z</time>
      </trkpt>
      <trkpt lat="44.12179" lon="2.26582">
        <ele>420</ele>
        <time>2022-09-11T09:11:45.317Z</time>
      </trkpt>
      <trkpt lat="44.12179" lon="2.26581">
        <ele>420</ele>
        <time>2022-09-11T09:11:46.317Z</time>
      </trkpt>
      <trkpt lat="44.12178" lon="2.26579">
        <ele>420</ele>
        <time>2022-09-11T09:11:47.317Z</time>
      </trkpt>
      <trkpt lat="44.12178" lon="2.26578">
        <ele>420</ele>
        <time>2022-09-11T09:11:48.317Z</time>
      </trkpt>
      <trkpt lat="44.12178" lon="2.26576">
        <ele>420</ele>
        <time>2022-09-11T09:11:49.317Z</time>
      </trkpt>
      <trkpt lat="44.12177" lon="2.26575">
        <ele>420</ele>
        <time>2022-09-11T09:11:50.317Z</time>
      </trkpt>
      <trkpt lat="44.12177" lon="2.26573">
        <ele>419</ele>
        <time>2022-09-11T09:11:51.317Z</time>
      </trkpt>
      <trkpt lat="44.12177" lon="2.26572">
        <ele>419</ele>
        <time>2022-09-11T09:11:52.317Z</time>
      </trkpt>
      <trkpt lat="44.12176" lon="2.2657">
        <ele>419</ele>
        <time>2022-09-11T09:11:53.317Z</time>
      </trkpt>
      <trkpt lat="44.12176" lon="2.26569">
        <ele>418</ele>
        <time>2022-09-11T09:11:54.317Z</time>
      </trkpt>
      <trkpt lat="44.12176" lon="2.26567">
        <ele>418</ele>
        <time>2022-09-11T09:11:55.317Z</time>
      </trkpt>
      <trkpt lat="44.12175" lon="2.26566">
        <ele>418</ele>
        <time>2022-09-11T09:11:56.317Z</time>
      </trkpt>
      <trkpt lat="44.12175" lon="2.26565">
        <ele>418</ele>
        <time>2022-09-11T09:11:57.317Z</time>
      </trkpt>
      <trkpt lat="44.12175" lon="2.26563">
        <ele>418</ele>
        <time>2022-09-11T09:11:58.317Z</time>
      </trkpt>
      <trkpt lat="44.12174" lon="2.26561">
        <ele>417</ele>
        <time>2022-09-11T09:11:59.317Z</time>
      </trkpt>
      <trkpt lat="44.12174" lon="2.2656">
        <ele>417</ele>
        <time>2022-09-11T09:12:00.317Z</time>
      </trkpt>
      <trkpt lat="44.12174" lon="2.26558">
        <ele>417</ele>
        <time>2022-09-11T09:12:01.317Z</time>
      </trkpt>
      <trkpt lat="44.12173" lon="2.26557">
        <ele>417</ele>
        <time>2022-09-11T09:12:02.317Z</time>
      </trkpt>
      <trkpt lat="44.12173" lon="2.26555">
        <ele>417</ele>
        <time>2022-09-11T09:12:03.317Z</time>
      </trkpt>
      <trkpt lat="44.12172" lon="2.26554">
        <ele>416</ele>
        <time>2022-09-11T09:12:04.317Z</time>
      </trkpt>
      <trkpt lat="44.12172" lon="2.26553">
        <ele>416</ele>
        <time>2022-09-11T09:12:05.317Z</time>
      </trkpt>
      <trkpt lat="44.12172" lon="2.26551">
        <ele>416</ele>
        <time>2022-09-11T09:12:06.317Z</time>
      </trkpt>
      <trkpt lat="44.12171" lon="2.2655">
        <ele>416</ele>
        <time>2022-09-11T09:12:07.317Z</time>
      </trkpt>
      <trkpt lat="44.12171" lon="2.26549">
        <ele>416</ele>
        <time>2022-09-11T09:12:08.317Z</time>
      </trkpt>
      <trkpt lat="44.12171" lon="2.26547">
        <ele>416</ele>
        <time>2022-09-11T09:12:09.317Z</time>
      </trkpt>
      <trkpt lat="44.12171" lon="2.26546">
        <ele>416</ele>
        <time>2022-09-11T09:12:10.317Z</time>
      </trkpt>
      <trkpt lat="44.1217" lon="2.26544">
        <ele>416</ele>
        <time>2022-09-11T09:12:11.317Z</time>
      </trkpt>
      <trkpt lat="44.1217" lon="2.26543">
        <ele>415</ele>
        <time>2022-09-11T09:12:12.317Z</time>
      </trkpt>
      <trkpt lat="44.12169" lon="2.26541">
        <ele>415</ele>
        <time>2022-09-11T09:12:13.317Z</time>
      </trkpt>
      <trkpt lat="44.12168" lon="2.2654">
        <ele>415</ele>
        <time>2022-09-11T09:12:14.317Z</time>
      </trkpt>
      <trkpt lat="44.12168" lon="2.26538">
        <ele>415</ele>
        <time>2022-09-11T09:12:15.317Z</time>
      </trkpt>
      <trkpt lat="44.12167" lon="2.26537">
        <ele>415</ele>
        <time>2022-09-11T09:12:16.317Z</time>
      </trkpt>
      <trkpt lat="44.12167" lon="2.26535">
        <ele>415</ele>
        <time>2022-09-11T09:12:17.317Z</time>
      </trkpt>
      <trkpt lat="44.12166" lon="2.26533">
        <ele>415</ele>
        <time>2022-09-11T09:12:18.317Z</time>
      </trkpt>
      <trkpt lat="44.12166" lon="2.26532">
        <ele>415</ele>
        <time>2022-09-11T09:12:19.317Z</time>
      </trkpt>
      <trkpt lat="44.12165" lon="2.2653">
        <ele>415</ele>
        <time>2022-09-11T09:12:20.317Z</time>
      </trkpt>
      <trkpt lat="44.12164" lon="2.26528">
        <ele>415</ele>
        <time>2022-09-11T09:12:21.317Z</time>
      </trkpt>
      <trkpt lat="44.12164" lon="2.26527">
        <ele>415</ele>
        <time>2022-09-11T09:12:22.317Z</time>
      </trkpt>
      <trkpt lat="44.12163" lon="2.26526">
        <ele>415</ele>
        <time>2022-09-11T09:12:23.317Z</time>
      </trkpt>
      <trkpt lat="44.12163" lon="2.26524">
        <ele>415</ele>
        <time>2022-09-11T09:12:24.317Z</time>
      </trkpt>
      <trkpt lat="44.12162" lon="2.26522">
        <ele>415</ele>
        <time>2022-09-11T09:12:25.317Z</time>
      </trkpt>
      <trkpt lat="44.12162" lon="2.26521">
        <ele>415</ele>
        <time>2022-09-11T09:12:26.317Z</time>
      </trkpt>
      <trkpt lat="44.12161" lon="2.26519">
        <ele>415</ele>
        <time>2022-09-11T09:12:27.317Z</time>
      </trkpt>
      <trkpt lat="44.12161" lon="2.26518">
        <ele>415</ele>
        <time>2022-09-11T09:12:28.317Z</time>
      </trkpt>
      <trkpt lat="44.1216" lon="2.26516">
        <ele>415</ele>
        <time>2022-09-11T09:12:29.317Z</time>
      </trkpt>
      <trkpt lat="44.1216" lon="2.26515">
        <ele>415</ele>
        <time>2022-09-11T09:12:30.317Z</time>
      </trkpt>
      <trkpt lat="44.1216" lon="2.26514">
        <ele>415</ele>
        <time>2022-09-11T09:12:31.317Z</time>
      </trkpt>
      <trkpt lat="44.12159" lon="2.26513">
        <ele>415</ele>
        <time>2022-09-11T09:12:32.317Z</time>
      </trkpt>
      <trkpt lat="44.12159" lon="2.26511">
        <ele>415</ele>
        <time>2022-09-11T09:12:33.317Z</time>
      </trkpt>
      <trkpt lat="44.12159" lon="2.2651">
        <ele>415</ele>
        <time>2022-09-11T09:12:34.317Z</time>
      </trkpt>
      <trkpt lat="44.12158" lon="2.26508">
        <ele>415</ele>
        <time>2022-09-11T09:12:35.317Z</time>
      </trkpt>
      <trkpt lat="44.12158" lon="2.26507">
        <ele>415</ele>
        <time>2022-09-11T09:12:36.317Z</time>
      </trkpt>
      <trkpt lat="44.12158" lon="2.26505">
        <ele>415</ele>
        <time>2022-09-11T09:12:37.317Z</time>
      </trkpt>
      <trkpt lat="44.12158" lon="2.26504">
        <ele>415</ele>
        <time>2022-09-11T09:12:38.317Z</time>
      </trkpt>
      <trkpt lat="44.12158" lon="2.26502">
        <ele>415</ele>
        <time>2022-09-11T09:12:39.317Z</time>
      </trkpt>
      <trkpt lat="44.12157" lon="2.265">
        <ele>415</ele>
        <time>2022-09-11T09:12:40.317Z</time>
      </trkpt>
      <trkpt lat="44.12157" lon="2.26498">
        <ele>415</ele>
        <time>2022-09-11T09:12:41.317Z</time>
      </trkpt>
      <trkpt lat="44.12157" lon="2.26497">
        <ele>415</ele>
        <time>2022-09-11T09:12:42.317Z</time>
      </trkpt>
      <trkpt lat="44.12157" lon="2.26495">
        <ele>415</ele>
        <time>2022-09-11T09:12:43.317Z</time>
      </trkpt>
      <trkpt lat="44.12157" lon="2.26494">
        <ele>415</ele>
        <time>2022-09-11T09:12:44.317Z</time>
      </trkpt>
      <trkpt lat="44.12157" lon="2.26492">
        <ele>415</ele>
        <time>2022-09-11T09:12:45.317Z</time>
      </trkpt>
      <trkpt lat="44.12156" lon="2.2649">
        <ele>415</ele>
        <time>2022-09-11T09:12:46.317Z</time>
      </trkpt>
      <trkpt lat="44.12156" lon="2.26489">
        <ele>415</ele>
        <time>2022-09-11T09:12:47.317Z</time>
      </trkpt>
      <trkpt lat="44.12155" lon="2.26487">
        <ele>415</ele>
        <time>2022-09-11T09:12:48.317Z</time>
      </trkpt>
      <trkpt lat="44.12155" lon="2.26486">
        <ele>415</ele>
        <time>2022-09-11T09:12:49.317Z</time>
      </trkpt>
      <trkpt lat="44.12155" lon="2.26484">
        <ele>415</ele>
        <time>2022-09-11T09:12:50.317Z</time>
      </trkpt>
      <trkpt lat="44.12154" lon="2.26482">
        <ele>415</ele>
        <time>2022-09-11T09:12:51.317Z</time>
      </trkpt>
      <trkpt lat="44.12154" lon="2.26481">
        <ele>415</ele>
        <time>2022-09-11T09:12:52.317Z</time>
      </trkpt>
      <trkpt lat="44.12153" lon="2.26479">
        <ele>415</ele>
        <time>2022-09-11T09:12:53.317Z</time>
      </trkpt>
      <trkpt lat="44.12152" lon="2.26478">
        <ele>416</ele>
        <time>2022-09-11T09:12:54.317Z</time>
      </trkpt>
      <trkpt lat="44.12152" lon="2.26477">
        <ele>416</ele>
        <time>2022-09-11T09:12:55.317Z</time>
      </trkpt>
      <trkpt lat="44.12151" lon="2.26476">
        <ele>416</ele>
        <time>2022-09-11T09:12:56.317Z</time>
      </trkpt>
      <trkpt lat="44.12151" lon="2.26475">
        <ele>416</ele>
        <time>2022-09-11T09:12:57.317Z</time>
      </trkpt>
      <trkpt lat="44.1215" lon="2.26473">
        <ele>416</ele>
        <time>2022-09-11T09:12:58.317Z</time>
      </trkpt>
      <trkpt lat="44.12149" lon="2.26472">
        <ele>416</ele>
        <time>2022-09-11T09:12:59.317Z</time>
      </trkpt>
      <trkpt lat="44.12148" lon="2.2647">
        <ele>416</ele>
        <time>2022-09-11T09:13:00.317Z</time>
      </trkpt>
      <trkpt lat="44.12148" lon="2.26469">
        <ele>416</ele>
        <time>2022-09-11T09:13:01.317Z</time>
      </trkpt>
      <trkpt lat="44.12147" lon="2.26468">
        <ele>416</ele>
        <time>2022-09-11T09:13:02.317Z</time>
      </trkpt>
      <trkpt lat="44.12146" lon="2.26467">
        <ele>416</ele>
        <time>2022-09-11T09:13:03.317Z</time>
      </trkpt>
      <trkpt lat="44.12146" lon="2.26465">
        <ele>416</ele>
        <time>2022-09-11T09:13:04.317Z</time>
      </trkpt>
      <trkpt lat="44.12145" lon="2.26464">
        <ele>416</ele>
        <time>2022-09-11T09:13:05.317Z</time>
      </trkpt>
      <trkpt lat="44.12144" lon="2.26463">
        <ele>415</ele>
        <time>2022-09-11T09:13:06.317Z</time>
      </trkpt>
      <trkpt lat="44.12144" lon="2.26461">
        <ele>415</ele>
        <time>2022-09-11T09:13:07.317Z</time>
      </trkpt>
      <trkpt lat="44.12143" lon="2.2646">
        <ele>415</ele>
        <time>2022-09-11T09:13:08.317Z</time>
      </trkpt>
      <trkpt lat="44.12142" lon="2.26459">
        <ele>415</ele>
        <time>2022-09-11T09:13:09.317Z</time>
      </trkpt>
      <trkpt lat="44.12142" lon="2.26457">
        <ele>415</ele>
        <time>2022-09-11T09:13:10.317Z</time>
      </trkpt>
      <trkpt lat="44.12141" lon="2.26456">
        <ele>415</ele>
        <time>2022-09-11T09:13:11.317Z</time>
      </trkpt>
      <trkpt lat="44.12141" lon="2.26455">
        <ele>415</ele>
        <time>2022-09-11T09:13:12.317Z</time>
      </trkpt>
      <trkpt lat="44.1214" lon="2.26453">
        <ele>415</ele>
        <time>2022-09-11T09:13:13.317Z</time>
      </trkpt>
      <trkpt lat="44.12139" lon="2.26451">
        <ele>415</ele>
        <time>2022-09-11T09:13:14.317Z</time>
      </trkpt>
      <trkpt lat="44.12139" lon="2.2645">
        <ele>415</ele>
        <time>2022-09-11T09:13:15.317Z</time>
      </trkpt>
      <trkpt lat="44.12138" lon="2.26449">
        <ele>415</ele>
        <time>2022-09-11T09:13:16.317Z</time>
      </trkpt>
      <trkpt lat="44.12138" lon="2.26448">
        <ele>415</ele>
        <time>2022-09-11T09:13:17.317Z</time>
      </trkpt>
      <trkpt lat="44.12137" lon="2.26447">
        <ele>415</ele>
        <time>2022-09-11T09:13:18.317Z</time>
      </trkpt>
      <trkpt lat="44.12137" lon="2.26446">
        <ele>414</ele>
        <time>2022-09-11T09:13:19.317Z</time>
      </trkpt>
      <trkpt lat="44.12136" lon="2.26444">
        <ele>414</ele>
        <time>2022-09-11T09:13:20.317Z</time>
      </trkpt>
      <trkpt lat="44.12135" lon="2.26443">
        <ele>414</ele>
        <time>2022-09-11T09:13:21.317Z</time>
      </trkpt>
      <trkpt lat="44.12135" lon="2.26442">
        <ele>414</ele>
        <time>2022-09-11T09:13:22.317Z</time>
      </trkpt>
      <trkpt lat="44.12134" lon="2.26441">
        <ele>414</ele>
        <time>2022-09-11T09:13:23.317Z</time>
      </trkpt>
      <trkpt lat="44.12134" lon="2.2644">
        <ele>414</ele>
        <time>2022-09-11T09:13:24.317Z</time>
      </trkpt>
      <trkpt lat="44.12133" lon="2.26439">
        <ele>414</ele>
        <time>2022-09-11T09:13:25.317Z</time>
      </trkpt>
      <trkpt lat="44.12132" lon="2.26437">
        <ele>414</ele>
        <time>2022-09-11T09:13:26.317Z</time>
      </trkpt>
      <trkpt lat="44.12132" lon="2.26436">
        <ele>414</ele>
        <time>2022-09-11T09:13:27.317Z</time>
      </trkpt>
      <trkpt lat="44.12131" lon="2.26434">
        <ele>414</ele>
        <time>2022-09-11T09:13:28.317Z</time>
      </trkpt>
      <trkpt lat="44.12131" lon="2.26432">
        <ele>413</ele>
        <time>2022-09-11T09:13:29.317Z</time>
      </trkpt>
      <trkpt lat="44.1213" lon="2.26431">
        <ele>413</ele>
        <time>2022-09-11T09:13:30.317Z</time>
      </trkpt>
      <trkpt lat="44.1213" lon="2.2643">
        <ele>413</ele>
        <time>2022-09-11T09:13:31.317Z</time>
      </trkpt>
      <trkpt lat="44.12129" lon="2.26428">
        <ele>413</ele>
        <time>2022-09-11T09:13:32.317Z</time>
      </trkpt>
      <trkpt lat="44.12129" lon="2.26427">
        <ele>413</ele>
        <time>2022-09-11T09:13:33.317Z</time>
      </trkpt>
      <trkpt lat="44.12128" lon="2.26425">
        <ele>412</ele>
        <time>2022-09-11T09:13:34.317Z</time>
      </trkpt>
      <trkpt lat="44.12128" lon="2.26423">
        <ele>412</ele>
        <time>2022-09-11T09:13:35.317Z</time>
      </trkpt>
      <trkpt lat="44.12128" lon="2.26422">
        <ele>412</ele>
        <time>2022-09-11T09:13:36.317Z</time>
      </trkpt>
      <trkpt lat="44.12128" lon="2.2642">
        <ele>412</ele>
        <time>2022-09-11T09:13:37.317Z</time>
      </trkpt>
      <trkpt lat="44.12128" lon="2.26418">
        <ele>411</ele>
        <time>2022-09-11T09:13:38.317Z</time>
      </trkpt>
      <trkpt lat="44.12128" lon="2.26417">
        <ele>411</ele>
        <time>2022-09-11T09:13:39.317Z</time>
      </trkpt>
      <trkpt lat="44.12128" lon="2.26416">
        <ele>411</ele>
        <time>2022-09-11T09:13:40.317Z</time>
      </trkpt>
      <trkpt lat="44.12129" lon="2.26414">
        <ele>411</ele>
        <time>2022-09-11T09:13:41.317Z</time>
      </trkpt>
      <trkpt lat="44.12129" lon="2.26413">
        <ele>411</ele>
        <time>2022-09-11T09:13:42.317Z</time>
      </trkpt>
      <trkpt lat="44.12129" lon="2.26411">
        <ele>411</ele>
        <time>2022-09-11T09:13:43.317Z</time>
      </trkpt>
      <trkpt lat="44.12129" lon="2.26409">
        <ele>410</ele>
        <time>2022-09-11T09:13:44.317Z</time>
      </trkpt>
      <trkpt lat="44.12128" lon="2.26408">
        <ele>410</ele>
        <time>2022-09-11T09:13:45.317Z</time>
      </trkpt>
      <trkpt lat="44.12128" lon="2.26407">
        <ele>410</ele>
        <time>2022-09-11T09:13:46.317Z</time>
      </trkpt>
      <trkpt lat="44.12128" lon="2.26406">
        <ele>410</ele>
        <time>2022-09-11T09:13:47.317Z</time>
      </trkpt>
      <trkpt lat="44.12128" lon="2.26405">
        <ele>410</ele>
        <time>2022-09-11T09:13:48.317Z</time>
      </trkpt>
      <trkpt lat="44.12127" lon="2.26404">
        <ele>410</ele>
        <time>2022-09-11T09:13:49.317Z</time>
      </trkpt>
      <trkpt lat="44.12127" lon="2.26403">
        <ele>409</ele>
        <time>2022-09-11T09:13:50.317Z</time>
      </trkpt>
      <trkpt lat="44.12126" lon="2.26402">
        <ele>409</ele>
        <time>2022-09-11T09:13:51.317Z</time>
      </trkpt>
      <trkpt lat="44.12126" lon="2.26402">
        <ele>409</ele>
        <time>2022-09-11T09:13:52.317Z</time>
      </trkpt>
      <trkpt lat="44.12125" lon="2.26402">
        <ele>409</ele>
        <time>2022-09-11T09:13:53.317Z</time>
      </trkpt>
      <trkpt lat="44.12124" lon="2.26401">
        <ele>409</ele>
        <time>2022-09-11T09:13:54.317Z</time>
      </trkpt>
      <trkpt lat="44.12123" lon="2.26401">
        <ele>409</ele>
        <time>2022-09-11T09:13:55.317Z</time>
      </trkpt>
      <trkpt lat="44.12123" lon="2.264">
        <ele>409</ele>
        <time>2022-09-11T09:13:56.317Z</time>
      </trkpt>
      <trkpt lat="44.12122" lon="2.26399">
        <ele>409</ele>
        <time>2022-09-11T09:13:57.317Z</time>
      </trkpt>
      <trkpt lat="44.12121" lon="2.26398">
        <ele>409</ele>
        <time>2022-09-11T09:13:58.317Z</time>
      </trkpt>
      <trkpt lat="44.1212" lon="2.26397">
        <ele>409</ele>
        <time>2022-09-11T09:13:59.317Z</time>
      </trkpt>
      <trkpt lat="44.12119" lon="2.26396">
        <ele>408</ele>
        <time>2022-09-11T09:14:00.317Z</time>
      </trkpt>
      <trkpt lat="44.12118" lon="2.26394">
        <ele>408</ele>
        <time>2022-09-11T09:14:01.317Z</time>
      </trkpt>
      <trkpt lat="44.12118" lon="2.26393">
        <ele>408</ele>
        <time>2022-09-11T09:14:02.317Z</time>
      </trkpt>
      <trkpt lat="44.12117" lon="2.26391">
        <ele>408</ele>
        <time>2022-09-11T09:14:03.317Z</time>
      </trkpt>
      <trkpt lat="44.12117" lon="2.2639">
        <ele>408</ele>
        <time>2022-09-11T09:14:04.317Z</time>
      </trkpt>
      <trkpt lat="44.12116" lon="2.26389">
        <ele>408</ele>
        <time>2022-09-11T09:14:05.317Z</time>
      </trkpt>
      <trkpt lat="44.12116" lon="2.26387">
        <ele>408</ele>
        <time>2022-09-11T09:14:06.317Z</time>
      </trkpt>
      <trkpt lat="44.12116" lon="2.26386">
        <ele>408</ele>
        <time>2022-09-11T09:14:07.317Z</time>
      </trkpt>
      <trkpt lat="44.12116" lon="2.26385">
        <ele>407</ele>
        <time>2022-09-11T09:14:08.317Z</time>
      </trkpt>
      <trkpt lat="44.12116" lon="2.26384">
        <ele>407</ele>
        <time>2022-09-11T09:14:09.317Z</time>
      </trkpt>
      <trkpt lat="44.12116" lon="2.26383">
        <ele>407</ele>
        <time>2022-09-11T09:14:10.317Z</time>
      </trkpt>
      <trkpt lat="44.12116" lon="2.26381">
        <ele>407</ele>
        <time>2022-09-11T09:14:11.317Z</time>
      </trkpt>
      <trkpt lat="44.12116" lon="2.2638">
        <ele>406</ele>
        <time>2022-09-11T09:14:12.317Z</time>
      </trkpt>
      <trkpt lat="44.12116" lon="2.26378">
        <ele>406</ele>
        <time>2022-09-11T09:14:13.317Z</time>
      </trkpt>
      <trkpt lat="44.12116" lon="2.26377">
        <ele>406</ele>
        <time>2022-09-11T09:14:14.317Z</time>
      </trkpt>
      <trkpt lat="44.12116" lon="2.26376">
        <ele>406</ele>
        <time>2022-09-11T09:14:15.317Z</time>
      </trkpt>
      <trkpt lat="44.12116" lon="2.26374">
        <ele>405</ele>
        <time>2022-09-11T09:14:16.317Z</time>
      </trkpt>
      <trkpt lat="44.12116" lon="2.26373">
        <ele>405</ele>
        <time>2022-09-11T09:14:17.317Z</time>
      </trkpt>
      <trkpt lat="44.12116" lon="2.26372">
        <ele>405</ele>
        <time>2022-09-11T09:14:18.317Z</time>
      </trkpt>
      <trkpt lat="44.12115" lon="2.26371">
        <ele>405</ele>
        <time>2022-09-11T09:14:19.317Z</time>
      </trkpt>
      <trkpt lat="44.12115" lon="2.26369">
        <ele>405</ele>
        <time>2022-09-11T09:14:20.317Z</time>
      </trkpt>
      <trkpt lat="44.12114" lon="2.26368">
        <ele>405</ele>
        <time>2022-09-11T09:14:21.317Z</time>
      </trkpt>
      <trkpt lat="44.12114" lon="2.26367">
        <ele>405</ele>
        <time>2022-09-11T09:14:22.317Z</time>
      </trkpt>
      <trkpt lat="44.12113" lon="2.26365">
        <ele>405</ele>
        <time>2022-09-11T09:14:23.317Z</time>
      </trkpt>
      <trkpt lat="44.12113" lon="2.26364">
        <ele>405</ele>
        <time>2022-09-11T09:14:24.317Z</time>
      </trkpt>
      <trkpt lat="44.12112" lon="2.26363">
        <ele>405</ele>
        <time>2022-09-11T09:14:25.317Z</time>
      </trkpt>
      <trkpt lat="44.12112" lon="2.26361">
        <ele>405</ele>
        <time>2022-09-11T09:14:26.317Z</time>
      </trkpt>
      <trkpt lat="44.12112" lon="2.2636">
        <ele>405</ele>
        <time>2022-09-11T09:14:27.317Z</time>
      </trkpt>
      <trkpt lat="44.12111" lon="2.26358">
        <ele>405</ele>
        <time>2022-09-11T09:14:28.317Z</time>
      </trkpt>
      <trkpt lat="44.12111" lon="2.26356">
        <ele>405</ele>
        <time>2022-09-11T09:14:29.317Z</time>
      </trkpt>
      <trkpt lat="44.12111" lon="2.26354">
        <ele>405</ele>
        <time>2022-09-11T09:14:30.317Z</time>
      </trkpt>
      <trkpt lat="44.1211" lon="2.26353">
        <ele>405</ele>
        <time>2022-09-11T09:14:31.317Z</time>
      </trkpt>
      <trkpt lat="44.1211" lon="2.26351">
        <ele>405</ele>
        <time>2022-09-11T09:14:32.317Z</time>
      </trkpt>
      <trkpt lat="44.1211" lon="2.2635">
        <ele>405</ele>
        <time>2022-09-11T09:14:33.317Z</time>
      </trkpt>
      <trkpt lat="44.12109" lon="2.26349">
        <ele>405</ele>
        <time>2022-09-11T09:14:34.317Z</time>
      </trkpt>
      <trkpt lat="44.12108" lon="2.26348">
        <ele>405</ele>
        <time>2022-09-11T09:14:35.317Z</time>
      </trkpt>
      <trkpt lat="44.12108" lon="2.26347">
        <ele>405</ele>
        <time>2022-09-11T09:14:36.317Z</time>
      </trkpt>
      <trkpt lat="44.12107" lon="2.26345">
        <ele>405</ele>
        <time>2022-09-11T09:14:37.317Z</time>
      </trkpt>
      <trkpt lat="44.12106" lon="2.26344">
        <ele>405</ele>
        <time>2022-09-11T09:14:38.317Z</time>
      </trkpt>
      <trkpt lat="44.12105" lon="2.26342">
        <ele>405</ele>
        <time>2022-09-11T09:14:39.317Z</time>
      </trkpt>
      <trkpt lat="44.12105" lon="2.26341">
        <ele>404</ele>
        <time>2022-09-11T09:14:40.317Z</time>
      </trkpt>
      <trkpt lat="44.12104" lon="2.2634">
        <ele>404</ele>
        <time>2022-09-11T09:14:41.317Z</time>
      </trkpt>
      <trkpt lat="44.12104" lon="2.26339">
        <ele>404</ele>
        <time>2022-09-11T09:14:42.317Z</time>
      </trkpt>
      <trkpt lat="44.12104" lon="2.26337">
        <ele>404</ele>
        <time>2022-09-11T09:14:43.317Z</time>
      </trkpt>
      <trkpt lat="44.12103" lon="2.26336">
        <ele>404</ele>
        <time>2022-09-11T09:14:44.317Z</time>
      </trkpt>
      <trkpt lat="44.12103" lon="2.26334">
        <ele>404</ele>
        <time>2022-09-11T09:14:45.317Z</time>
      </trkpt>
      <trkpt lat="44.12102" lon="2.26333">
        <ele>404</ele>
        <time>2022-09-11T09:14:46.317Z</time>
      </trkpt>
      <trkpt lat="44.12102" lon="2.26332">
        <ele>404</ele>
        <time>2022-09-11T09:14:47.317Z</time>
      </trkpt>
      <trkpt lat="44.12101" lon="2.26331">
        <ele>404</ele>
        <time>2022-09-11T09:14:48.317Z</time>
      </trkpt>
      <trkpt lat="44.121" lon="2.26329">
        <ele>404</ele>
        <time>2022-09-11T09:14:49.317Z</time>
      </trkpt>
      <trkpt lat="44.121" lon="2.26328">
        <ele>404</ele>
        <time>2022-09-11T09:14:50.317Z</time>
      </trkpt>
      <trkpt lat="44.12099" lon="2.26326">
        <ele>404</ele>
        <time>2022-09-11T09:14:51.317Z</time>
      </trkpt>
      <trkpt lat="44.12099" lon="2.26324">
        <ele>404</ele>
        <time>2022-09-11T09:14:52.317Z</time>
      </trkpt>
      <trkpt lat="44.12099" lon="2.26323">
        <ele>405</ele>
        <time>2022-09-11T09:14:53.317Z</time>
      </trkpt>
      <trkpt lat="44.12099" lon="2.26322">
        <ele>404</ele>
        <time>2022-09-11T09:14:54.317Z</time>
      </trkpt>
      <trkpt lat="44.12099" lon="2.2632">
        <ele>404</ele>
        <time>2022-09-11T09:14:55.317Z</time>
      </trkpt>
      <trkpt lat="44.12099" lon="2.26318">
        <ele>404</ele>
        <time>2022-09-11T09:14:56.317Z</time>
      </trkpt>
      <trkpt lat="44.12099" lon="2.26316">
        <ele>404</ele>
        <time>2022-09-11T09:14:57.317Z</time>
      </trkpt>
      <trkpt lat="44.121" lon="2.26315">
        <ele>404</ele>
        <time>2022-09-11T09:14:58.317Z</time>
      </trkpt>
      <trkpt lat="44.121" lon="2.26314">
        <ele>404</ele>
        <time>2022-09-11T09:14:59.317Z</time>
      </trkpt>
      <trkpt lat="44.12101" lon="2.26312">
        <ele>404</ele>
        <time>2022-09-11T09:15:00.317Z</time>
      </trkpt>
      <trkpt lat="44.12101" lon="2.26311">
        <ele>404</ele>
        <time>2022-09-11T09:15:01.317Z</time>
      </trkpt>
      <trkpt lat="44.12101" lon="2.26309">
        <ele>404</ele>
        <time>2022-09-11T09:15:02.317Z</time>
      </trkpt>
      <trkpt lat="44.12101" lon="2.26307">
        <ele>404</ele>
        <time>2022-09-11T09:15:03.317Z</time>
      </trkpt>
      <trkpt lat="44.12101" lon="2.26306">
        <ele>404</ele>
        <time>2022-09-11T09:15:04.317Z</time>
      </trkpt>
      <trkpt lat="44.12101" lon="2.26304">
        <ele>404</ele>
        <time>2022-09-11T09:15:05.317Z</time>
      </trkpt>
      <trkpt lat="44.12101" lon="2.26302">
        <ele>404</ele>
        <time>2022-09-11T09:15:06.317Z</time>
      </trkpt>
      <trkpt lat="44.12101" lon="2.26301">
        <ele>404</ele>
        <time>2022-09-11T09:15:07.317Z</time>
      </trkpt>
      <trkpt lat="44.12101" lon="2.26299">
        <ele>404</ele>
        <time>2022-09-11T09:15:08.317Z</time>
      </trkpt>
      <trkpt lat="44.12101" lon="2.26297">
        <ele>404</ele>
        <time>2022-09-11T09:15:09.317Z</time>
      </trkpt>
      <trkpt lat="44.12101" lon="2.26296">
        <ele>404</ele>
        <time>2022-09-11T09:15:10.317Z</time>
      </trkpt>
      <trkpt lat="44.12101" lon="2.26294">
        <ele>404</ele>
        <time>2022-09-11T09:15:11.317Z</time>
      </trkpt>
      <trkpt lat="44.12101" lon="2.26292">
        <ele>404</ele>
        <time>2022-09-11T09:15:12.317Z</time>
      </trkpt>
      <trkpt lat="44.12101" lon="2.2629">
        <ele>404</ele>
        <time>2022-09-11T09:15:13.317Z</time>
      </trkpt>
      <trkpt lat="44.12101" lon="2.26289">
        <ele>404</ele>
        <time>2022-09-11T09:15:14.317Z</time>
      </trkpt>
      <trkpt lat="44.12101" lon="2.26287">
        <ele>404</ele>
        <time>2022-09-11T09:15:15.317Z</time>
      </trkpt>
      <trkpt lat="44.12101" lon="2.26286">
        <ele>404</ele>
        <time>2022-09-11T09:15:16.317Z</time>
      </trkpt>
      <trkpt lat="44.12101" lon="2.26284">
        <ele>404</ele>
        <time>2022-09-11T09:15:17.317Z</time>
      </trkpt>
      <trkpt lat="44.121" lon="2.26283">
        <ele>404</ele>
        <time>2022-09-11T09:15:18.317Z</time>
      </trkpt>
      <trkpt lat="44.121" lon="2.26281">
        <ele>404</ele>
        <time>2022-09-11T09:15:19.317Z</time>
      </trkpt>
      <trkpt lat="44.121" lon="2.2628">
        <ele>404</ele>
        <time>2022-09-11T09:15:20.317Z</time>
      </trkpt>
      <trkpt lat="44.12099" lon="2.26278">
        <ele>404</ele>
        <time>2022-09-11T09:15:21.317Z</time>
      </trkpt>
      <trkpt lat="44.12099" lon="2.26277">
        <ele>403</ele>
        <time>2022-09-11T09:15:22.317Z</time>
      </trkpt>
      <trkpt lat="44.12098" lon="2.26276">
        <ele>403</ele>
        <time>2022-09-11T09:15:23.317Z</time>
      </trkpt>
      <trkpt lat="44.12098" lon="2.26275">
        <ele>403</ele>
        <time>2022-09-11T09:15:24.317Z</time>
      </trkpt>
      <trkpt lat="44.12097" lon="2.26273">
        <ele>403</ele>
        <time>2022-09-11T09:15:25.317Z</time>
      </trkpt>
      <trkpt lat="44.12097" lon="2.26272">
        <ele>403</ele>
        <time>2022-09-11T09:15:26.317Z</time>
      </trkpt>
      <trkpt lat="44.12097" lon="2.2627">
        <ele>403</ele>
        <time>2022-09-11T09:15:27.317Z</time>
      </trkpt>
      <trkpt lat="44.12096" lon="2.26269">
        <ele>402</ele>
        <time>2022-09-11T09:15:28.317Z</time>
      </trkpt>
      <trkpt lat="44.12096" lon="2.26268">
        <ele>402</ele>
        <time>2022-09-11T09:15:29.317Z</time>
      </trkpt>
      <trkpt lat="44.12096" lon="2.26267">
        <ele>402</ele>
        <time>2022-09-11T09:15:30.317Z</time>
      </trkpt>
      <trkpt lat="44.12095" lon="2.26265">
        <ele>402</ele>
        <time>2022-09-11T09:15:31.317Z</time>
      </trkpt>
      <trkpt lat="44.12095" lon="2.26264">
        <ele>402</ele>
        <time>2022-09-11T09:15:32.317Z</time>
      </trkpt>
      <trkpt lat="44.12095" lon="2.26263">
        <ele>402</ele>
        <time>2022-09-11T09:15:33.317Z</time>
      </trkpt>
      <trkpt lat="44.12094" lon="2.26262">
        <ele>401</ele>
        <time>2022-09-11T09:15:34.317Z</time>
      </trkpt>
      <trkpt lat="44.12094" lon="2.26261">
        <ele>401</ele>
        <time>2022-09-11T09:15:35.317Z</time>
      </trkpt>
      <trkpt lat="44.12093" lon="2.2626">
        <ele>401</ele>
        <time>2022-09-11T09:15:36.317Z</time>
      </trkpt>
      <trkpt lat="44.12092" lon="2.26259">
        <ele>401</ele>
        <time>2022-09-11T09:15:37.317Z</time>
      </trkpt>
      <trkpt lat="44.12091" lon="2.26258">
        <ele>401</ele>
        <time>2022-09-11T09:15:38.317Z</time>
      </trkpt>
      <trkpt lat="44.12091" lon="2.26257">
        <ele>401</ele>
        <time>2022-09-11T09:15:39.317Z</time>
      </trkpt>
      <trkpt lat="44.1209" lon="2.26256">
        <ele>401</ele>
        <time>2022-09-11T09:15:40.317Z</time>
      </trkpt>
      <trkpt lat="44.12089" lon="2.26255">
        <ele>401</ele>
        <time>2022-09-11T09:15:41.317Z</time>
      </trkpt>
      <trkpt lat="44.12089" lon="2.26253">
        <ele>401</ele>
        <time>2022-09-11T09:15:42.317Z</time>
      </trkpt>
      <trkpt lat="44.12088" lon="2.26252">
        <ele>401</ele>
        <time>2022-09-11T09:15:43.317Z</time>
      </trkpt>
      <trkpt lat="44.12087" lon="2.26251">
        <ele>401</ele>
        <time>2022-09-11T09:15:44.317Z</time>
      </trkpt>
      <trkpt lat="44.12086" lon="2.2625">
        <ele>401</ele>
        <time>2022-09-11T09:15:45.317Z</time>
      </trkpt>
      <trkpt lat="44.12086" lon="2.26248">
        <ele>401</ele>
        <time>2022-09-11T09:15:46.317Z</time>
      </trkpt>
      <trkpt lat="44.12085" lon="2.26248">
        <ele>401</ele>
        <time>2022-09-11T09:15:47.317Z</time>
      </trkpt>
      <trkpt lat="44.12085" lon="2.26247">
        <ele>401</ele>
        <time>2022-09-11T09:15:48.317Z</time>
      </trkpt>
      <trkpt lat="44.12084" lon="2.26245">
        <ele>401</ele>
        <time>2022-09-11T09:15:49.317Z</time>
      </trkpt>
      <trkpt lat="44.12084" lon="2.26244">
        <ele>401</ele>
        <time>2022-09-11T09:15:50.317Z</time>
      </trkpt>
      <trkpt lat="44.12083" lon="2.26242">
        <ele>401</ele>
        <time>2022-09-11T09:15:51.317Z</time>
      </trkpt>
      <trkpt lat="44.12083" lon="2.26242">
        <ele>401</ele>
        <time>2022-09-11T09:15:52.317Z</time>
      </trkpt>
      <trkpt lat="44.12083" lon="2.26241">
        <ele>401</ele>
        <time>2022-09-11T09:15:53.317Z</time>
      </trkpt>
      <trkpt lat="44.12082" lon="2.26239">
        <ele>400</ele>
        <time>2022-09-11T09:15:54.317Z</time>
      </trkpt>
      <trkpt lat="44.12081" lon="2.26238">
        <ele>400</ele>
        <time>2022-09-11T09:15:55.317Z</time>
      </trkpt>
      <trkpt lat="44.12081" lon="2.26237">
        <ele>400</ele>
        <time>2022-09-11T09:15:56.317Z</time>
      </trkpt>
      <trkpt lat="44.1208" lon="2.26236">
        <ele>400</ele>
        <time>2022-09-11T09:15:57.317Z</time>
      </trkpt>
      <trkpt lat="44.1208" lon="2.26235">
        <ele>400</ele>
        <time>2022-09-11T09:15:58.317Z</time>
      </trkpt>
      <trkpt lat="44.12079" lon="2.26234">
        <ele>400</ele>
        <time>2022-09-11T09:15:59.317Z</time>
      </trkpt>
      <trkpt lat="44.12079" lon="2.26234">
        <ele>400</ele>
        <time>2022-09-11T09:16:00.317Z</time>
      </trkpt>
      <trkpt lat="44.12078" lon="2.26233">
        <ele>400</ele>
        <time>2022-09-11T09:16:01.317Z</time>
      </trkpt>
      <trkpt lat="44.12077" lon="2.26232">
        <ele>400</ele>
        <time>2022-09-11T09:16:02.317Z</time>
      </trkpt>
      <trkpt lat="44.12076" lon="2.26231">
        <ele>400</ele>
        <time>2022-09-11T09:16:03.317Z</time>
      </trkpt>
      <trkpt lat="44.12075" lon="2.2623">
        <ele>400</ele>
        <time>2022-09-11T09:16:04.317Z</time>
      </trkpt>
      <trkpt lat="44.12074" lon="2.2623">
        <ele>400</ele>
        <time>2022-09-11T09:16:05.317Z</time>
      </trkpt>
      <trkpt lat="44.12074" lon="2.26229">
        <ele>400</ele>
        <time>2022-09-11T09:16:06.317Z</time>
      </trkpt>
      <trkpt lat="44.12073" lon="2.26228">
        <ele>400</ele>
        <time>2022-09-11T09:16:07.317Z</time>
      </trkpt>
      <trkpt lat="44.12072" lon="2.26227">
        <ele>400</ele>
        <time>2022-09-11T09:16:08.317Z</time>
      </trkpt>
      <trkpt lat="44.12072" lon="2.26226">
        <ele>400</ele>
        <time>2022-09-11T09:16:09.317Z</time>
      </trkpt>
      <trkpt lat="44.12071" lon="2.26226">
        <ele>399</ele>
        <time>2022-09-11T09:16:10.317Z</time>
      </trkpt>
      <trkpt lat="44.1207" lon="2.26226">
        <ele>399</ele>
        <time>2022-09-11T09:16:11.317Z</time>
      </trkpt>
      <trkpt lat="44.12069" lon="2.26225">
        <ele>399</ele>
        <time>2022-09-11T09:16:12.317Z</time>
      </trkpt>
      <trkpt lat="44.12069" lon="2.26224">
        <ele>399</ele>
        <time>2022-09-11T09:16:13.317Z</time>
      </trkpt>
      <trkpt lat="44.12068" lon="2.26224">
        <ele>398</ele>
        <time>2022-09-11T09:16:14.317Z</time>
      </trkpt>
      <trkpt lat="44.12067" lon="2.26223">
        <ele>398</ele>
        <time>2022-09-11T09:16:15.317Z</time>
      </trkpt>
      <trkpt lat="44.12066" lon="2.26221">
        <ele>398</ele>
        <time>2022-09-11T09:16:16.317Z</time>
      </trkpt>
      <trkpt lat="44.12066" lon="2.26221">
        <ele>398</ele>
        <time>2022-09-11T09:16:17.317Z</time>
      </trkpt>
      <trkpt lat="44.12065" lon="2.2622">
        <ele>398</ele>
        <time>2022-09-11T09:16:18.317Z</time>
      </trkpt>
      <trkpt lat="44.12064" lon="2.26219">
        <ele>397</ele>
        <time>2022-09-11T09:16:19.317Z</time>
      </trkpt>
      <trkpt lat="44.12064" lon="2.26218">
        <ele>397</ele>
        <time>2022-09-11T09:16:20.317Z</time>
      </trkpt>
      <trkpt lat="44.12063" lon="2.26216">
        <ele>397</ele>
        <time>2022-09-11T09:16:21.317Z</time>
      </trkpt>
      <trkpt lat="44.12063" lon="2.26215">
        <ele>397</ele>
        <time>2022-09-11T09:16:22.317Z</time>
      </trkpt>
      <trkpt lat="44.12063" lon="2.26213">
        <ele>397</ele>
        <time>2022-09-11T09:16:23.317Z</time>
      </trkpt>
      <trkpt lat="44.12063" lon="2.26212">
        <ele>397</ele>
        <time>2022-09-11T09:16:24.317Z</time>
      </trkpt>
      <trkpt lat="44.12062" lon="2.26211">
        <ele>397</ele>
        <time>2022-09-11T09:16:25.317Z</time>
      </trkpt>
      <trkpt lat="44.12062" lon="2.26209">
        <ele>397</ele>
        <time>2022-09-11T09:16:26.317Z</time>
      </trkpt>
      <trkpt lat="44.12062" lon="2.26208">
        <ele>397</ele>
        <time>2022-09-11T09:16:27.317Z</time>
      </trkpt>
      <trkpt lat="44.12062" lon="2.26206">
        <ele>397</ele>
        <time>2022-09-11T09:16:28.317Z</time>
      </trkpt>
      <trkpt lat="44.12062" lon="2.26205">
        <ele>397</ele>
        <time>2022-09-11T09:16:29.317Z</time>
      </trkpt>
      <trkpt lat="44.12062" lon="2.26203">
        <ele>397</ele>
        <time>2022-09-11T09:16:30.317Z</time>
      </trkpt>
      <trkpt lat="44.12062" lon="2.26202">
        <ele>397</ele>
        <time>2022-09-11T09:16:31.317Z</time>
      </trkpt>
      <trkpt lat="44.12062" lon="2.262">
        <ele>398</ele>
        <time>2022-09-11T09:16:32.317Z</time>
      </trkpt>
      <trkpt lat="44.12062" lon="2.26199">
        <ele>398</ele>
        <time>2022-09-11T09:16:33.317Z</time>
      </trkpt>
      <trkpt lat="44.12063" lon="2.26198">
        <ele>398</ele>
        <time>2022-09-11T09:16:34.317Z</time>
      </trkpt>
      <trkpt lat="44.12063" lon="2.26197">
        <ele>398</ele>
        <time>2022-09-11T09:16:35.317Z</time>
      </trkpt>
      <trkpt lat="44.12064" lon="2.26196">
        <ele>398</ele>
        <time>2022-09-11T09:16:36.317Z</time>
      </trkpt>
      <trkpt lat="44.12064" lon="2.26194">
        <ele>398</ele>
        <time>2022-09-11T09:16:37.317Z</time>
      </trkpt>
      <trkpt lat="44.12064" lon="2.26193">
        <ele>398</ele>
        <time>2022-09-11T09:16:38.317Z</time>
      </trkpt>
      <trkpt lat="44.12064" lon="2.26192">
        <ele>399</ele>
        <time>2022-09-11T09:16:39.317Z</time>
      </trkpt>
      <trkpt lat="44.12065" lon="2.26191">
        <ele>399</ele>
        <time>2022-09-11T09:16:40.317Z</time>
      </trkpt>
      <trkpt lat="44.12065" lon="2.26189">
        <ele>399</ele>
        <time>2022-09-11T09:16:41.317Z</time>
      </trkpt>
      <trkpt lat="44.12066" lon="2.26188">
        <ele>399</ele>
        <time>2022-09-11T09:16:42.317Z</time>
      </trkpt>
      <trkpt lat="44.12066" lon="2.26186">
        <ele>399</ele>
        <time>2022-09-11T09:16:43.317Z</time>
      </trkpt>
      <trkpt lat="44.12066" lon="2.26185">
        <ele>399</ele>
        <time>2022-09-11T09:16:44.317Z</time>
      </trkpt>
      <trkpt lat="44.12067" lon="2.26184">
        <ele>399</ele>
        <time>2022-09-11T09:16:45.317Z</time>
      </trkpt>
      <trkpt lat="44.12067" lon="2.26182">
        <ele>399</ele>
        <time>2022-09-11T09:16:46.317Z</time>
      </trkpt>
      <trkpt lat="44.12068" lon="2.26181">
        <ele>399</ele>
        <time>2022-09-11T09:16:47.317Z</time>
      </trkpt>
      <trkpt lat="44.12068" lon="2.2618">
        <ele>399</ele>
        <time>2022-09-11T09:16:48.317Z</time>
      </trkpt>
      <trkpt lat="44.12068" lon="2.26179">
        <ele>399</ele>
        <time>2022-09-11T09:16:49.317Z</time>
      </trkpt>
      <trkpt lat="44.12068" lon="2.26178">
        <ele>399</ele>
        <time>2022-09-11T09:16:50.317Z</time>
      </trkpt>
      <trkpt lat="44.12068" lon="2.26177">
        <ele>399</ele>
        <time>2022-09-11T09:16:51.317Z</time>
      </trkpt>
      <trkpt lat="44.12068" lon="2.26176">
        <ele>399</ele>
        <time>2022-09-11T09:16:52.317Z</time>
      </trkpt>
      <trkpt lat="44.12067" lon="2.26174">
        <ele>399</ele>
        <time>2022-09-11T09:16:53.317Z</time>
      </trkpt>
      <trkpt lat="44.12067" lon="2.26173">
        <ele>399</ele>
        <time>2022-09-11T09:16:54.317Z</time>
      </trkpt>
      <trkpt lat="44.12066" lon="2.26172">
        <ele>399</ele>
        <time>2022-09-11T09:16:55.317Z</time>
      </trkpt>
      <trkpt lat="44.12066" lon="2.2617">
        <ele>399</ele>
        <time>2022-09-11T09:16:56.317Z</time>
      </trkpt>
      <trkpt lat="44.12066" lon="2.26169">
        <ele>399</ele>
        <time>2022-09-11T09:16:57.317Z</time>
      </trkpt>
      <trkpt lat="44.12065" lon="2.26167">
        <ele>399</ele>
        <time>2022-09-11T09:16:58.317Z</time>
      </trkpt>
      <trkpt lat="44.12065" lon="2.26165">
        <ele>399</ele>
        <time>2022-09-11T09:16:59.317Z</time>
      </trkpt>
      <trkpt lat="44.12065" lon="2.26164">
        <ele>399</ele>
        <time>2022-09-11T09:17:00.317Z</time>
      </trkpt>
      <trkpt lat="44.12064" lon="2.26162">
        <ele>399</ele>
        <time>2022-09-11T09:17:01.317Z</time>
      </trkpt>
      <trkpt lat="44.12064" lon="2.2616">
        <ele>399</ele>
        <time>2022-09-11T09:17:02.317Z</time>
      </trkpt>
      <trkpt lat="44.12064" lon="2.26159">
        <ele>399</ele>
        <time>2022-09-11T09:17:03.317Z</time>
      </trkpt>
      <trkpt lat="44.12064" lon="2.26157">
        <ele>399</ele>
        <time>2022-09-11T09:17:04.317Z</time>
      </trkpt>
      <trkpt lat="44.12063" lon="2.26155">
        <ele>399</ele>
        <time>2022-09-11T09:17:05.317Z</time>
      </trkpt>
      <trkpt lat="44.12063" lon="2.26153">
        <ele>399</ele>
        <time>2022-09-11T09:17:06.317Z</time>
      </trkpt>
      <trkpt lat="44.12063" lon="2.26152">
        <ele>399</ele>
        <time>2022-09-11T09:17:07.317Z</time>
      </trkpt>
      <trkpt lat="44.12063" lon="2.2615">
        <ele>399</ele>
        <time>2022-09-11T09:17:08.317Z</time>
      </trkpt>
      <trkpt lat="44.12063" lon="2.26148">
        <ele>399</ele>
        <time>2022-09-11T09:17:09.317Z</time>
      </trkpt>
      <trkpt lat="44.12063" lon="2.26147">
        <ele>399</ele>
        <time>2022-09-11T09:17:10.317Z</time>
      </trkpt>
      <trkpt lat="44.12063" lon="2.26146">
        <ele>399</ele>
        <time>2022-09-11T09:17:11.317Z</time>
      </trkpt>
      <trkpt lat="44.12063" lon="2.26144">
        <ele>399</ele>
        <time>2022-09-11T09:17:12.317Z</time>
      </trkpt>
      <trkpt lat="44.12063" lon="2.26143">
        <ele>399</ele>
        <time>2022-09-11T09:17:13.317Z</time>
      </trkpt>
      <trkpt lat="44.12063" lon="2.26142">
        <ele>399</ele>
        <time>2022-09-11T09:17:14.317Z</time>
      </trkpt>
      <trkpt lat="44.12063" lon="2.26141">
        <ele>399</ele>
        <time>2022-09-11T09:17:15.317Z</time>
      </trkpt>
      <trkpt lat="44.12062" lon="2.2614">
        <ele>399</ele>
        <time>2022-09-11T09:17:16.317Z</time>
      </trkpt>
      <trkpt lat="44.12062" lon="2.26138">
        <ele>399</ele>
        <time>2022-09-11T09:17:17.317Z</time>
      </trkpt>
      <trkpt lat="44.12062" lon="2.26137">
        <ele>399</ele>
        <time>2022-09-11T09:17:18.317Z</time>
      </trkpt>
      <trkpt lat="44.12061" lon="2.26135">
        <ele>399</ele>
        <time>2022-09-11T09:17:19.317Z</time>
      </trkpt>
      <trkpt lat="44.12061" lon="2.26134">
        <ele>398</ele>
        <time>2022-09-11T09:17:20.317Z</time>
      </trkpt>
      <trkpt lat="44.12061" lon="2.26132">
        <ele>398</ele>
        <time>2022-09-11T09:17:21.317Z</time>
      </trkpt>
      <trkpt lat="44.12061" lon="2.26131">
        <ele>398</ele>
        <time>2022-09-11T09:17:22.317Z</time>
      </trkpt>
      <trkpt lat="44.12061" lon="2.26129">
        <ele>398</ele>
        <time>2022-09-11T09:17:23.317Z</time>
      </trkpt>
      <trkpt lat="44.12061" lon="2.26128">
        <ele>398</ele>
        <time>2022-09-11T09:17:24.317Z</time>
      </trkpt>
      <trkpt lat="44.1206" lon="2.26126">
        <ele>398</ele>
        <time>2022-09-11T09:17:25.317Z</time>
      </trkpt>
      <trkpt lat="44.1206" lon="2.26126">
        <ele>398</ele>
        <time>2022-09-11T09:17:26.317Z</time>
      </trkpt>
      <trkpt lat="44.1206" lon="2.26126">
        <ele>398</ele>
        <time>2022-09-11T09:17:27.317Z</time>
      </trkpt>
      <trkpt lat="44.1206" lon="2.26126">
        <ele>398</ele>
        <time>2022-09-11T09:17:28.317Z</time>
      </trkpt>
      <trkpt lat="44.1206" lon="2.26126">
        <ele>398</ele>
        <time>2022-09-11T09:17:29.317Z</time>
      </trkpt>
      <trkpt lat="44.1206" lon="2.26125">
        <ele>398</ele>
        <time>2022-09-11T09:17:33.323Z</time>
      </trkpt>
      <trkpt lat="44.1206" lon="2.26124">
        <ele>398</ele>
        <time>2022-09-11T09:17:34.323Z</time>
      </trkpt>
      <trkpt lat="44.1206" lon="2.26122">
        <ele>398</ele>
        <time>2022-09-11T09:17:35.323Z</time>
      </trkpt>
      <trkpt lat="44.1206" lon="2.26121">
        <ele>398</ele>
        <time>2022-09-11T09:17:36.323Z</time>
      </trkpt>
      <trkpt lat="44.1206" lon="2.2612">
        <ele>398</ele>
        <time>2022-09-11T09:17:37.323Z</time>
      </trkpt>
      <trkpt lat="44.1206" lon="2.26118">
        <ele>398</ele>
        <time>2022-09-11T09:17:38.323Z</time>
      </trkpt>
      <trkpt lat="44.1206" lon="2.26117">
        <ele>398</ele>
        <time>2022-09-11T09:17:39.323Z</time>
      </trkpt>
      <trkpt lat="44.1206" lon="2.26115">
        <ele>398</ele>
        <time>2022-09-11T09:17:40.323Z</time>
      </trkpt>
      <trkpt lat="44.12061" lon="2.26115">
        <ele>398</ele>
        <time>2022-09-11T09:17:41.323Z</time>
      </trkpt>
      <trkpt lat="44.12061" lon="2.26113">
        <ele>398</ele>
        <time>2022-09-11T09:17:42.323Z</time>
      </trkpt>
      <trkpt lat="44.12061" lon="2.26112">
        <ele>398</ele>
        <time>2022-09-11T09:17:43.323Z</time>
      </trkpt>
      <trkpt lat="44.12061" lon="2.26112">
        <ele>398</ele>
        <time>2022-09-11T09:17:44.323Z</time>
      </trkpt>
      <trkpt lat="44.12061" lon="2.26112">
        <ele>398</ele>
        <time>2022-09-11T09:17:45.323Z</time>
      </trkpt>
      <trkpt lat="44.12061" lon="2.26112">
        <ele>398</ele>
        <time>2022-09-11T09:17:46.323Z</time>
      </trkpt>
      <trkpt lat="44.12061" lon="2.26112">
        <ele>398</ele>
        <time>2022-09-11T09:17:47.323Z</time>
      </trkpt>
      <trkpt lat="44.12062" lon="2.26111">
        <ele>398</ele>
        <time>2022-09-11T09:17:48.323Z</time>
      </trkpt>
      <trkpt lat="44.12062" lon="2.26109">
        <ele>398</ele>
        <time>2022-09-11T09:17:49.323Z</time>
      </trkpt>
      <trkpt lat="44.12063" lon="2.26108">
        <ele>398</ele>
        <time>2022-09-11T09:17:50.323Z</time>
      </trkpt>
      <trkpt lat="44.12064" lon="2.26107">
        <ele>398</ele>
        <time>2022-09-11T09:17:51.323Z</time>
      </trkpt>
      <trkpt lat="44.12064" lon="2.26106">
        <ele>399</ele>
        <time>2022-09-11T09:17:52.323Z</time>
      </trkpt>
      <trkpt lat="44.12064" lon="2.26105">
        <ele>399</ele>
        <time>2022-09-11T09:17:53.323Z</time>
      </trkpt>
      <trkpt lat="44.12065" lon="2.26103">
        <ele>399</ele>
        <time>2022-09-11T09:17:54.323Z</time>
      </trkpt>
      <trkpt lat="44.12065" lon="2.26101">
        <ele>399</ele>
        <time>2022-09-11T09:17:55.323Z</time>
      </trkpt>
      <trkpt lat="44.12065" lon="2.261">
        <ele>399</ele>
        <time>2022-09-11T09:17:56.323Z</time>
      </trkpt>
      <trkpt lat="44.12065" lon="2.26098">
        <ele>399</ele>
        <time>2022-09-11T09:17:57.323Z</time>
      </trkpt>
      <trkpt lat="44.12065" lon="2.26097">
        <ele>399</ele>
        <time>2022-09-11T09:17:58.323Z</time>
      </trkpt>
      <trkpt lat="44.12065" lon="2.26095">
        <ele>399</ele>
        <time>2022-09-11T09:17:59.323Z</time>
      </trkpt>
      <trkpt lat="44.12066" lon="2.26094">
        <ele>399</ele>
        <time>2022-09-11T09:18:00.323Z</time>
      </trkpt>
      <trkpt lat="44.12066" lon="2.26092">
        <ele>399</ele>
        <time>2022-09-11T09:18:01.323Z</time>
      </trkpt>
      <trkpt lat="44.12065" lon="2.26091">
        <ele>399</ele>
        <time>2022-09-11T09:18:02.323Z</time>
      </trkpt>
      <trkpt lat="44.12065" lon="2.26089">
        <ele>399</ele>
        <time>2022-09-11T09:18:03.323Z</time>
      </trkpt>
      <trkpt lat="44.12065" lon="2.26087">
        <ele>399</ele>
        <time>2022-09-11T09:18:04.323Z</time>
      </trkpt>
      <trkpt lat="44.12065" lon="2.26086">
        <ele>399</ele>
        <time>2022-09-11T09:18:05.323Z</time>
      </trkpt>
      <trkpt lat="44.12064" lon="2.26084">
        <ele>399</ele>
        <time>2022-09-11T09:18:06.323Z</time>
      </trkpt>
      <trkpt lat="44.12064" lon="2.26083">
        <ele>399</ele>
        <time>2022-09-11T09:18:07.323Z</time>
      </trkpt>
      <trkpt lat="44.12063" lon="2.26082">
        <ele>399</ele>
        <time>2022-09-11T09:18:08.323Z</time>
      </trkpt>
      <trkpt lat="44.12063" lon="2.2608">
        <ele>399</ele>
        <time>2022-09-11T09:18:09.323Z</time>
      </trkpt>
      <trkpt lat="44.12063" lon="2.26079">
        <ele>399</ele>
        <time>2022-09-11T09:18:10.323Z</time>
      </trkpt>
      <trkpt lat="44.12063" lon="2.26077">
        <ele>399</ele>
        <time>2022-09-11T09:18:11.323Z</time>
      </trkpt>
      <trkpt lat="44.12063" lon="2.26076">
        <ele>399</ele>
        <time>2022-09-11T09:18:12.323Z</time>
      </trkpt>
      <trkpt lat="44.12063" lon="2.26075">
        <ele>399</ele>
        <time>2022-09-11T09:18:13.323Z</time>
      </trkpt>
      <trkpt lat="44.12063" lon="2.26073">
        <ele>399</ele>
        <time>2022-09-11T09:18:14.323Z</time>
      </trkpt>
      <trkpt lat="44.12063" lon="2.26072">
        <ele>399</ele>
        <time>2022-09-11T09:18:15.323Z</time>
      </trkpt>
      <trkpt lat="44.12063" lon="2.2607">
        <ele>399</ele>
        <time>2022-09-11T09:18:16.323Z</time>
      </trkpt>
      <trkpt lat="44.12064" lon="2.26068">
        <ele>399</ele>
        <time>2022-09-11T09:18:17.323Z</time>
      </trkpt>
      <trkpt lat="44.12065" lon="2.26067">
        <ele>399</ele>
        <time>2022-09-11T09:18:18.323Z</time>
      </trkpt>
      <trkpt lat="44.12065" lon="2.26066">
        <ele>399</ele>
        <time>2022-09-11T09:18:19.323Z</time>
      </trkpt>
      <trkpt lat="44.12066" lon="2.26065">
        <ele>399</ele>
        <time>2022-09-11T09:18:20.323Z</time>
      </trkpt>
      <trkpt lat="44.12067" lon="2.26064">
        <ele>399</ele>
        <time>2022-09-11T09:18:21.323Z</time>
      </trkpt>
      <trkpt lat="44.12067" lon="2.26063">
        <ele>399</ele>
        <time>2022-09-11T09:18:22.323Z</time>
      </trkpt>
      <trkpt lat="44.12068" lon="2.26061">
        <ele>399</ele>
        <time>2022-09-11T09:18:23.323Z</time>
      </trkpt>
      <trkpt lat="44.12068" lon="2.2606">
        <ele>399</ele>
        <time>2022-09-11T09:18:24.323Z</time>
      </trkpt>
      <trkpt lat="44.12068" lon="2.26058">
        <ele>399</ele>
        <time>2022-09-11T09:18:25.323Z</time>
      </trkpt>
      <trkpt lat="44.12068" lon="2.26057">
        <ele>399</ele>
        <time>2022-09-11T09:18:26.323Z</time>
      </trkpt>
      <trkpt lat="44.12068" lon="2.26056">
        <ele>399</ele>
        <time>2022-09-11T09:18:27.323Z</time>
      </trkpt>
      <trkpt lat="44.12067" lon="2.26055">
        <ele>399</ele>
        <time>2022-09-11T09:18:28.323Z</time>
      </trkpt>
      <trkpt lat="44.12066" lon="2.26054">
        <ele>399</ele>
        <time>2022-09-11T09:18:29.323Z</time>
      </trkpt>
      <trkpt lat="44.12066" lon="2.26052">
        <ele>399</ele>
        <time>2022-09-11T09:18:30.323Z</time>
      </trkpt>
      <trkpt lat="44.12065" lon="2.2605">
        <ele>399</ele>
        <time>2022-09-11T09:18:31.323Z</time>
      </trkpt>
      <trkpt lat="44.12065" lon="2.26049">
        <ele>399</ele>
        <time>2022-09-11T09:18:32.323Z</time>
      </trkpt>
      <trkpt lat="44.12065" lon="2.26047">
        <ele>399</ele>
        <time>2022-09-11T09:18:33.323Z</time>
      </trkpt>
      <trkpt lat="44.12065" lon="2.26045">
        <ele>399</ele>
        <time>2022-09-11T09:18:34.323Z</time>
      </trkpt>
      <trkpt lat="44.12065" lon="2.26044">
        <ele>399</ele>
        <time>2022-09-11T09:18:35.323Z</time>
      </trkpt>
      <trkpt lat="44.12065" lon="2.26042">
        <ele>399</ele>
        <time>2022-09-11T09:18:36.323Z</time>
      </trkpt>
      <trkpt lat="44.12065" lon="2.2604">
        <ele>399</ele>
        <time>2022-09-11T09:18:37.323Z</time>
      </trkpt>
      <trkpt lat="44.12065" lon="2.26039">
        <ele>399</ele>
        <time>2022-09-11T09:18:38.323Z</time>
      </trkpt>
      <trkpt lat="44.12066" lon="2.26037">
        <ele>399</ele>
        <time>2022-09-11T09:18:39.323Z</time>
      </trkpt>
      <trkpt lat="44.12066" lon="2.26036">
        <ele>400</ele>
        <time>2022-09-11T09:18:40.323Z</time>
      </trkpt>
      <trkpt lat="44.12066" lon="2.26034">
        <ele>400</ele>
        <time>2022-09-11T09:18:41.323Z</time>
      </trkpt>
      <trkpt lat="44.12066" lon="2.26033">
        <ele>400</ele>
        <time>2022-09-11T09:18:42.323Z</time>
      </trkpt>
      <trkpt lat="44.12067" lon="2.26031">
        <ele>400</ele>
        <time>2022-09-11T09:18:43.323Z</time>
      </trkpt>
      <trkpt lat="44.12067" lon="2.2603">
        <ele>400</ele>
        <time>2022-09-11T09:18:44.323Z</time>
      </trkpt>
      <trkpt lat="44.12067" lon="2.26028">
        <ele>400</ele>
        <time>2022-09-11T09:18:45.323Z</time>
      </trkpt>
      <trkpt lat="44.12068" lon="2.26027">
        <ele>400</ele>
        <time>2022-09-11T09:18:46.323Z</time>
      </trkpt>
      <trkpt lat="44.12068" lon="2.26025">
        <ele>400</ele>
        <time>2022-09-11T09:18:47.323Z</time>
      </trkpt>
      <trkpt lat="44.12068" lon="2.26024">
        <ele>400</ele>
        <time>2022-09-11T09:18:48.323Z</time>
      </trkpt>
      <trkpt lat="44.12068" lon="2.26022">
        <ele>400</ele>
        <time>2022-09-11T09:18:49.323Z</time>
      </trkpt>
      <trkpt lat="44.12069" lon="2.2602">
        <ele>400</ele>
        <time>2022-09-11T09:18:50.323Z</time>
      </trkpt>
      <trkpt lat="44.12069" lon="2.26019">
        <ele>400</ele>
        <time>2022-09-11T09:18:51.323Z</time>
      </trkpt>
      <trkpt lat="44.12069" lon="2.26017">
        <ele>400</ele>
        <time>2022-09-11T09:18:52.323Z</time>
      </trkpt>
      <trkpt lat="44.1207" lon="2.26016">
        <ele>400</ele>
        <time>2022-09-11T09:18:53.323Z</time>
      </trkpt>
      <trkpt lat="44.1207" lon="2.26015">
        <ele>400</ele>
        <time>2022-09-11T09:18:54.323Z</time>
      </trkpt>
      <trkpt lat="44.1207" lon="2.26014">
        <ele>401</ele>
        <time>2022-09-11T09:18:55.323Z</time>
      </trkpt>
      <trkpt lat="44.1207" lon="2.26013">
        <ele>401</ele>
        <time>2022-09-11T09:18:56.323Z</time>
      </trkpt>
      <trkpt lat="44.1207" lon="2.26011">
        <ele>401</ele>
        <time>2022-09-11T09:18:57.323Z</time>
      </trkpt>
      <trkpt lat="44.1207" lon="2.2601">
        <ele>401</ele>
        <time>2022-09-11T09:18:58.323Z</time>
      </trkpt>
      <trkpt lat="44.1207" lon="2.26009">
        <ele>401</ele>
        <time>2022-09-11T09:18:59.323Z</time>
      </trkpt>
      <trkpt lat="44.12069" lon="2.26008">
        <ele>401</ele>
        <time>2022-09-11T09:19:00.323Z</time>
      </trkpt>
      <trkpt lat="44.12069" lon="2.26008">
        <ele>401</ele>
        <time>2022-09-11T09:19:01.323Z</time>
      </trkpt>
      <trkpt lat="44.12069" lon="2.26007">
        <ele>401</ele>
        <time>2022-09-11T09:19:02.323Z</time>
      </trkpt>
      <trkpt lat="44.12069" lon="2.26007">
        <ele>401</ele>
        <time>2022-09-11T09:19:03.323Z</time>
      </trkpt>
      <trkpt lat="44.12068" lon="2.26008">
        <ele>402</ele>
        <time>2022-09-11T09:19:07.332Z</time>
      </trkpt>
      <trkpt lat="44.12067" lon="2.26008">
        <ele>402</ele>
        <time>2022-09-11T09:19:08.332Z</time>
      </trkpt>
      <trkpt lat="44.12066" lon="2.26008">
        <ele>402</ele>
        <time>2022-09-11T09:19:09.332Z</time>
      </trkpt>
      <trkpt lat="44.12066" lon="2.26008">
        <ele>402</ele>
        <time>2022-09-11T09:19:10.332Z</time>
      </trkpt>
      <trkpt lat="44.12066" lon="2.26008">
        <ele>402</ele>
        <time>2022-09-11T09:19:11.332Z</time>
      </trkpt>
      <trkpt lat="44.12065" lon="2.26008">
        <ele>402</ele>
        <time>2022-09-11T09:19:12.332Z</time>
      </trkpt>
      <trkpt lat="44.12065" lon="2.26007">
        <ele>402</ele>
        <time>2022-09-11T09:19:13.332Z</time>
      </trkpt>
      <trkpt lat="44.12064" lon="2.26007">
        <ele>402</ele>
        <time>2022-09-11T09:19:14.332Z</time>
      </trkpt>
      <trkpt lat="44.12063" lon="2.26006">
        <ele>402</ele>
        <time>2022-09-11T09:19:15.332Z</time>
      </trkpt>
      <trkpt lat="44.12063" lon="2.26006">
        <ele>402</ele>
        <time>2022-09-11T09:19:16.332Z</time>
      </trkpt>
      <trkpt lat="44.12062" lon="2.26006">
        <ele>402</ele>
        <time>2022-09-11T09:19:17.332Z</time>
      </trkpt>
      <trkpt lat="44.12062" lon="2.26006">
        <ele>402</ele>
        <time>2022-09-11T09:19:18.332Z</time>
      </trkpt>
      <trkpt lat="44.12062" lon="2.26006">
        <ele>402</ele>
        <time>2022-09-11T09:19:19.332Z</time>
      </trkpt>
      <trkpt lat="44.12062" lon="2.26006">
        <ele>402</ele>
        <time>2022-09-11T09:19:20.332Z</time>
      </trkpt>
      <trkpt lat="44.12063" lon="2.26006">
        <ele>401</ele>
        <time>2022-09-11T09:20:01.341Z</time>
      </trkpt>
      <trkpt lat="44.12064" lon="2.26006">
        <ele>401</ele>
        <time>2022-09-11T09:20:02.341Z</time>
      </trkpt>
      <trkpt lat="44.12064" lon="2.26007">
        <ele>401</ele>
        <time>2022-09-11T09:20:03.341Z</time>
      </trkpt>
      <trkpt lat="44.12065" lon="2.26007">
        <ele>401</ele>
        <time>2022-09-11T09:20:04.341Z</time>
      </trkpt>
      <trkpt lat="44.12065" lon="2.26007">
        <ele>401</ele>
        <time>2022-09-11T09:20:05.341Z</time>
      </trkpt>
      <trkpt lat="44.12066" lon="2.26007">
        <ele>400</ele>
        <time>2022-09-11T09:20:06.341Z</time>
      </trkpt>
      <trkpt lat="44.12066" lon="2.26007">
        <ele>400</ele>
        <time>2022-09-11T09:20:07.341Z</time>
      </trkpt>
      <trkpt lat="44.12067" lon="2.26007">
        <ele>400</ele>
        <time>2022-09-11T09:20:08.341Z</time>
      </trkpt>
      <trkpt lat="44.12067" lon="2.26007">
        <ele>400</ele>
        <time>2022-09-11T09:20:09.341Z</time>
      </trkpt>
      <trkpt lat="44.12067" lon="2.26006">
        <ele>400</ele>
        <time>2022-09-11T09:20:10.341Z</time>
      </trkpt>
      <trkpt lat="44.12067" lon="2.26005">
        <ele>400</ele>
        <time>2022-09-11T09:20:11.341Z</time>
      </trkpt>
      <trkpt lat="44.12067" lon="2.26004">
        <ele>400</ele>
        <time>2022-09-11T09:20:12.341Z</time>
      </trkpt>
      <trkpt lat="44.12067" lon="2.26002">
        <ele>400</ele>
        <time>2022-09-11T09:20:13.341Z</time>
      </trkpt>
      <trkpt lat="44.12068" lon="2.26001">
        <ele>400</ele>
        <time>2022-09-11T09:20:14.341Z</time>
      </trkpt>
      <trkpt lat="44.12068" lon="2.25999">
        <ele>400</ele>
        <time>2022-09-11T09:20:15.341Z</time>
      </trkpt>
      <trkpt lat="44.12068" lon="2.25998">
        <ele>400</ele>
        <time>2022-09-11T09:20:16.341Z</time>
      </trkpt>
      <trkpt lat="44.12069" lon="2.25996">
        <ele>400</ele>
        <time>2022-09-11T09:20:17.341Z</time>
      </trkpt>
      <trkpt lat="44.12069" lon="2.25995">
        <ele>400</ele>
        <time>2022-09-11T09:20:18.341Z</time>
      </trkpt>
      <trkpt lat="44.1207" lon="2.25994">
        <ele>400</ele>
        <time>2022-09-11T09:20:19.341Z</time>
      </trkpt>
      <trkpt lat="44.1207" lon="2.25992">
        <ele>400</ele>
        <time>2022-09-11T09:20:20.341Z</time>
      </trkpt>
      <trkpt lat="44.1207" lon="2.2599">
        <ele>400</ele>
        <time>2022-09-11T09:20:21.341Z</time>
      </trkpt>
      <trkpt lat="44.12071" lon="2.25989">
        <ele>400</ele>
        <time>2022-09-11T09:20:22.341Z</time>
      </trkpt>
      <trkpt lat="44.12071" lon="2.25987">
        <ele>400</ele>
        <time>2022-09-11T09:20:23.341Z</time>
      </trkpt>
      <trkpt lat="44.12071" lon="2.25986">
        <ele>400</ele>
        <time>2022-09-11T09:20:24.341Z</time>
      </trkpt>
      <trkpt lat="44.12071" lon="2.25985">
        <ele>400</ele>
        <time>2022-09-11T09:20:25.341Z</time>
      </trkpt>
      <trkpt lat="44.12072" lon="2.25984">
        <ele>400</ele>
        <time>2022-09-11T09:20:26.341Z</time>
      </trkpt>
      <trkpt lat="44.12073" lon="2.25983">
        <ele>400</ele>
        <time>2022-09-11T09:20:27.341Z</time>
      </trkpt>
      <trkpt lat="44.12074" lon="2.25983">
        <ele>400</ele>
        <time>2022-09-11T09:20:28.341Z</time>
      </trkpt>
      <trkpt lat="44.12075" lon="2.25983">
        <ele>400</ele>
        <time>2022-09-11T09:20:29.341Z</time>
      </trkpt>
      <trkpt lat="44.12075" lon="2.25983">
        <ele>400</ele>
        <time>2022-09-11T09:20:30.341Z</time>
      </trkpt>
      <trkpt lat="44.12075" lon="2.25983">
        <ele>400</ele>
        <time>2022-09-11T09:20:31.341Z</time>
      </trkpt>
      <trkpt lat="44.12075" lon="2.25983">
        <ele>400</ele>
        <time>2022-09-11T09:20:32.341Z</time>
      </trkpt>
      <trkpt lat="44.12075" lon="2.2598">
        <ele>400</ele>
        <time>2022-09-11T09:22:04.357Z</time>
      </trkpt>
      <trkpt lat="44.12076" lon="2.25979">
        <ele>400</ele>
        <time>2022-09-11T09:22:05.357Z</time>
      </trkpt>
      <trkpt lat="44.12076" lon="2.25979">
        <ele>400</ele>
        <time>2022-09-11T09:22:06.357Z</time>
      </trkpt>
      <trkpt lat="44.12077" lon="2.25978">
        <ele>400</ele>
        <time>2022-09-11T09:22:07.357Z</time>
      </trkpt>
      <trkpt lat="44.12078" lon="2.25978">
        <ele>400</ele>
        <time>2022-09-11T09:22:08.357Z</time>
      </trkpt>
      <trkpt lat="44.12078" lon="2.25977">
        <ele>399</ele>
        <time>2022-09-11T09:22:09.357Z</time>
      </trkpt>
      <trkpt lat="44.12078" lon="2.25975">
        <ele>399</ele>
        <time>2022-09-11T09:22:10.357Z</time>
      </trkpt>
      <trkpt lat="44.12078" lon="2.25974">
        <ele>399</ele>
        <time>2022-09-11T09:22:11.357Z</time>
      </trkpt>
      <trkpt lat="44.12078" lon="2.25972">
        <ele>399</ele>
        <time>2022-09-11T09:22:12.357Z</time>
      </trkpt>
      <trkpt lat="44.12078" lon="2.25971">
        <ele>399</ele>
        <time>2022-09-11T09:22:13.357Z</time>
      </trkpt>
      <trkpt lat="44.12078" lon="2.25969">
        <ele>399</ele>
        <time>2022-09-11T09:22:14.357Z</time>
      </trkpt>
      <trkpt lat="44.12077" lon="2.25968">
        <ele>399</ele>
        <time>2022-09-11T09:22:15.357Z</time>
      </trkpt>
      <trkpt lat="44.12077" lon="2.25967">
        <ele>399</ele>
        <time>2022-09-11T09:22:16.357Z</time>
      </trkpt>
      <trkpt lat="44.12077" lon="2.25966">
        <ele>399</ele>
        <time>2022-09-11T09:22:17.357Z</time>
      </trkpt>
      <trkpt lat="44.12077" lon="2.25964">
        <ele>399</ele>
        <time>2022-09-11T09:22:18.357Z</time>
      </trkpt>
      <trkpt lat="44.12076" lon="2.25964">
        <ele>399</ele>
        <time>2022-09-11T09:22:19.357Z</time>
      </trkpt>
      <trkpt lat="44.12076" lon="2.25963">
        <ele>399</ele>
        <time>2022-09-11T09:22:20.357Z</time>
      </trkpt>
      <trkpt lat="44.12076" lon="2.25962">
        <ele>399</ele>
        <time>2022-09-11T09:22:21.357Z</time>
      </trkpt>
      <trkpt lat="44.12076" lon="2.25961">
        <ele>399</ele>
        <time>2022-09-11T09:22:22.357Z</time>
      </trkpt>
      <trkpt lat="44.12076" lon="2.2596">
        <ele>399</ele>
        <time>2022-09-11T09:22:23.357Z</time>
      </trkpt>
      <trkpt lat="44.12076" lon="2.25959">
        <ele>399</ele>
        <time>2022-09-11T09:22:24.357Z</time>
      </trkpt>
      <trkpt lat="44.12075" lon="2.25957">
        <ele>399</ele>
        <time>2022-09-11T09:22:25.357Z</time>
      </trkpt>
      <trkpt lat="44.12075" lon="2.25956">
        <ele>399</ele>
        <time>2022-09-11T09:22:26.357Z</time>
      </trkpt>
      <trkpt lat="44.12075" lon="2.25955">
        <ele>399</ele>
        <time>2022-09-11T09:22:27.357Z</time>
      </trkpt>
      <trkpt lat="44.12076" lon="2.25954">
        <ele>399</ele>
        <time>2022-09-11T09:22:28.357Z</time>
      </trkpt>
      <trkpt lat="44.12076" lon="2.25954">
        <ele>399</ele>
        <time>2022-09-11T09:22:29.357Z</time>
      </trkpt>
      <trkpt lat="44.12076" lon="2.25954">
        <ele>399</ele>
        <time>2022-09-11T09:22:30.357Z</time>
      </trkpt>
      <trkpt lat="44.12076" lon="2.25953">
        <ele>399</ele>
        <time>2022-09-11T09:22:31.357Z</time>
      </trkpt>
      <trkpt lat="44.12076" lon="2.25953">
        <ele>399</ele>
        <time>2022-09-11T09:22:32.357Z</time>
      </trkpt>
      <trkpt lat="44.12077" lon="2.25951">
        <ele>399</ele>
        <time>2022-09-11T09:22:46.355Z</time>
      </trkpt>
      <trkpt lat="44.12077" lon="2.25951">
        <ele>399</ele>
        <time>2022-09-11T09:22:47.355Z</time>
      </trkpt>
      <trkpt lat="44.12077" lon="2.25951">
        <ele>399</ele>
        <time>2022-09-11T09:22:48.355Z</time>
      </trkpt>
      <trkpt lat="44.12077" lon="2.2595">
        <ele>399</ele>
        <time>2022-09-11T09:22:49.355Z</time>
      </trkpt>
      <trkpt lat="44.12077" lon="2.2595">
        <ele>399</ele>
        <time>2022-09-11T09:22:50.355Z</time>
      </trkpt>
      <trkpt lat="44.12077" lon="2.25949">
        <ele>399</ele>
        <time>2022-09-11T09:22:51.355Z</time>
      </trkpt>
      <trkpt lat="44.12078" lon="2.25949">
        <ele>399</ele>
        <time>2022-09-11T09:22:52.355Z</time>
      </trkpt>
      <trkpt lat="44.12078" lon="2.25949">
        <ele>399</ele>
        <time>2022-09-11T09:22:53.355Z</time>
      </trkpt>
      <trkpt lat="44.12079" lon="2.25949">
        <ele>398</ele>
        <time>2022-09-11T09:22:54.355Z</time>
      </trkpt>
      <trkpt lat="44.12079" lon="2.2595">
        <ele>398</ele>
        <time>2022-09-11T09:22:55.355Z</time>
      </trkpt>
      <trkpt lat="44.12079" lon="2.2595">
        <ele>398</ele>
        <time>2022-09-11T09:22:56.355Z</time>
      </trkpt>
      <trkpt lat="44.12082" lon="2.25949">
        <ele>396</ele>
        <time>2022-09-11T09:23:06.355Z</time>
      </trkpt>
      <trkpt lat="44.12082" lon="2.25948">
        <ele>396</ele>
        <time>2022-09-11T09:23:07.355Z</time>
      </trkpt>
      <trkpt lat="44.12083" lon="2.25947">
        <ele>396</ele>
        <time>2022-09-11T09:23:08.355Z</time>
      </trkpt>
      <trkpt lat="44.12083" lon="2.25947">
        <ele>396</ele>
        <time>2022-09-11T09:23:09.355Z</time>
      </trkpt>
      <trkpt lat="44.12084" lon="2.25946">
        <ele>396</ele>
        <time>2022-09-11T09:23:10.355Z</time>
      </trkpt>
      <trkpt lat="44.12084" lon="2.25946">
        <ele>396</ele>
        <time>2022-09-11T09:23:11.355Z</time>
      </trkpt>
      <trkpt lat="44.12084" lon="2.25945">
        <ele>395</ele>
        <time>2022-09-11T09:23:12.355Z</time>
      </trkpt>
      <trkpt lat="44.12085" lon="2.25944">
        <ele>395</ele>
        <time>2022-09-11T09:23:13.355Z</time>
      </trkpt>
      <trkpt lat="44.12086" lon="2.25944">
        <ele>395</ele>
        <time>2022-09-11T09:23:14.355Z</time>
      </trkpt>
      <trkpt lat="44.12086" lon="2.25943">
        <ele>395</ele>
        <time>2022-09-11T09:23:15.355Z</time>
      </trkpt>
      <trkpt lat="44.12087" lon="2.25942">
        <ele>395</ele>
        <time>2022-09-11T09:23:16.355Z</time>
      </trkpt>
      <trkpt lat="44.12088" lon="2.25941">
        <ele>395</ele>
        <time>2022-09-11T09:23:17.355Z</time>
      </trkpt>
      <trkpt lat="44.12088" lon="2.2594">
        <ele>395</ele>
        <time>2022-09-11T09:23:18.355Z</time>
      </trkpt>
      <trkpt lat="44.12089" lon="2.25939">
        <ele>395</ele>
        <time>2022-09-11T09:23:19.355Z</time>
      </trkpt>
      <trkpt lat="44.12089" lon="2.25938">
        <ele>395</ele>
        <time>2022-09-11T09:23:20.355Z</time>
      </trkpt>
      <trkpt lat="44.12089" lon="2.25936">
        <ele>395</ele>
        <time>2022-09-11T09:23:21.355Z</time>
      </trkpt>
      <trkpt lat="44.1209" lon="2.25935">
        <ele>394</ele>
        <time>2022-09-11T09:23:22.355Z</time>
      </trkpt>
      <trkpt lat="44.1209" lon="2.25933">
        <ele>394</ele>
        <time>2022-09-11T09:23:23.355Z</time>
      </trkpt>
      <trkpt lat="44.1209" lon="2.25932">
        <ele>394</ele>
        <time>2022-09-11T09:23:24.355Z</time>
      </trkpt>
      <trkpt lat="44.12091" lon="2.25931">
        <ele>394</ele>
        <time>2022-09-11T09:23:25.355Z</time>
      </trkpt>
      <trkpt lat="44.12091" lon="2.2593">
        <ele>394</ele>
        <time>2022-09-11T09:23:26.355Z</time>
      </trkpt>
      <trkpt lat="44.12091" lon="2.25928">
        <ele>394</ele>
        <time>2022-09-11T09:23:27.355Z</time>
      </trkpt>
      <trkpt lat="44.12092" lon="2.25927">
        <ele>394</ele>
        <time>2022-09-11T09:23:28.355Z</time>
      </trkpt>
      <trkpt lat="44.12092" lon="2.25926">
        <ele>394</ele>
        <time>2022-09-11T09:23:29.355Z</time>
      </trkpt>
      <trkpt lat="44.12092" lon="2.25924">
        <ele>394</ele>
        <time>2022-09-11T09:23:30.355Z</time>
      </trkpt>
      <trkpt lat="44.12092" lon="2.25923">
        <ele>394</ele>
        <time>2022-09-11T09:23:31.355Z</time>
      </trkpt>
      <trkpt lat="44.12092" lon="2.25922">
        <ele>394</ele>
        <time>2022-09-11T09:23:32.355Z</time>
      </trkpt>
      <trkpt lat="44.12092" lon="2.25921">
        <ele>394</ele>
        <time>2022-09-11T09:23:33.355Z</time>
      </trkpt>
      <trkpt lat="44.12092" lon="2.2592">
        <ele>394</ele>
        <time>2022-09-11T09:23:34.355Z</time>
      </trkpt>
      <trkpt lat="44.12092" lon="2.25919">
        <ele>394</ele>
        <time>2022-09-11T09:23:35.355Z</time>
      </trkpt>
      <trkpt lat="44.12093" lon="2.25919">
        <ele>394</ele>
        <time>2022-09-11T09:23:36.355Z</time>
      </trkpt>
      <trkpt lat="44.12093" lon="2.25918">
        <ele>394</ele>
        <time>2022-09-11T09:23:37.355Z</time>
      </trkpt>
      <trkpt lat="44.12094" lon="2.25917">
        <ele>394</ele>
        <time>2022-09-11T09:23:38.355Z</time>
      </trkpt>
      <trkpt lat="44.12094" lon="2.25917">
        <ele>394</ele>
        <time>2022-09-11T09:23:39.355Z</time>
      </trkpt>
      <trkpt lat="44.12095" lon="2.25917">
        <ele>393</ele>
        <time>2022-09-11T09:23:40.355Z</time>
      </trkpt>
      <trkpt lat="44.12095" lon="2.25916">
        <ele>393</ele>
        <time>2022-09-11T09:23:41.355Z</time>
      </trkpt>
      <trkpt lat="44.12095" lon="2.25915">
        <ele>393</ele>
        <time>2022-09-11T09:23:42.355Z</time>
      </trkpt>
      <trkpt lat="44.12096" lon="2.25914">
        <ele>393</ele>
        <time>2022-09-11T09:23:43.355Z</time>
      </trkpt>
      <trkpt lat="44.12096" lon="2.25914">
        <ele>393</ele>
        <time>2022-09-11T09:23:44.355Z</time>
      </trkpt>
      <trkpt lat="44.12096" lon="2.25913">
        <ele>393</ele>
        <time>2022-09-11T09:23:45.355Z</time>
      </trkpt>
      <trkpt lat="44.12097" lon="2.25912">
        <ele>393</ele>
        <time>2022-09-11T09:23:46.355Z</time>
      </trkpt>
      <trkpt lat="44.12097" lon="2.25912">
        <ele>393</ele>
        <time>2022-09-11T09:23:47.355Z</time>
      </trkpt>
      <trkpt lat="44.12097" lon="2.25911">
        <ele>393</ele>
        <time>2022-09-11T09:23:48.355Z</time>
      </trkpt>
      <trkpt lat="44.12097" lon="2.2591">
        <ele>392</ele>
        <time>2022-09-11T09:23:49.355Z</time>
      </trkpt>
      <trkpt lat="44.12097" lon="2.2591">
        <ele>392</ele>
        <time>2022-09-11T09:23:50.355Z</time>
      </trkpt>
      <trkpt lat="44.12097" lon="2.25909">
        <ele>392</ele>
        <time>2022-09-11T09:23:51.355Z</time>
      </trkpt>
      <trkpt lat="44.12097" lon="2.25908">
        <ele>392</ele>
        <time>2022-09-11T09:23:52.355Z</time>
      </trkpt>
      <trkpt lat="44.12097" lon="2.25907">
        <ele>392</ele>
        <time>2022-09-11T09:23:53.355Z</time>
      </trkpt>
      <trkpt lat="44.12098" lon="2.25905">
        <ele>392</ele>
        <time>2022-09-11T09:23:54.355Z</time>
      </trkpt>
      <trkpt lat="44.12098" lon="2.25904">
        <ele>392</ele>
        <time>2022-09-11T09:23:55.355Z</time>
      </trkpt>
      <trkpt lat="44.12098" lon="2.25903">
        <ele>392</ele>
        <time>2022-09-11T09:23:56.355Z</time>
      </trkpt>
      <trkpt lat="44.12098" lon="2.25902">
        <ele>391</ele>
        <time>2022-09-11T09:23:57.355Z</time>
      </trkpt>
      <trkpt lat="44.12099" lon="2.25901">
        <ele>391</ele>
        <time>2022-09-11T09:23:58.355Z</time>
      </trkpt>
      <trkpt lat="44.12099" lon="2.259">
        <ele>391</ele>
        <time>2022-09-11T09:23:59.355Z</time>
      </trkpt>
      <trkpt lat="44.12099" lon="2.25899">
        <ele>391</ele>
        <time>2022-09-11T09:24:00.355Z</time>
      </trkpt>
      <trkpt lat="44.12099" lon="2.25897">
        <ele>391</ele>
        <time>2022-09-11T09:24:01.355Z</time>
      </trkpt>
      <trkpt lat="44.12099" lon="2.25896">
        <ele>391</ele>
        <time>2022-09-11T09:24:02.355Z</time>
      </trkpt>
      <trkpt lat="44.12099" lon="2.25895">
        <ele>391</ele>
        <time>2022-09-11T09:24:03.355Z</time>
      </trkpt>
      <trkpt lat="44.121" lon="2.25894">
        <ele>391</ele>
        <time>2022-09-11T09:24:04.355Z</time>
      </trkpt>
      <trkpt lat="44.121" lon="2.25893">
        <ele>391</ele>
        <time>2022-09-11T09:24:05.355Z</time>
      </trkpt>
      <trkpt lat="44.121" lon="2.25893">
        <ele>391</ele>
        <time>2022-09-11T09:24:06.355Z</time>
      </trkpt>
      <trkpt lat="44.121" lon="2.25891">
        <ele>391</ele>
        <time>2022-09-11T09:24:07.355Z</time>
      </trkpt>
      <trkpt lat="44.121" lon="2.2589">
        <ele>391</ele>
        <time>2022-09-11T09:24:08.355Z</time>
      </trkpt>
      <trkpt lat="44.12099" lon="2.25889">
        <ele>391</ele>
        <time>2022-09-11T09:24:09.355Z</time>
      </trkpt>
      <trkpt lat="44.12099" lon="2.25888">
        <ele>390</ele>
        <time>2022-09-11T09:24:10.355Z</time>
      </trkpt>
      <trkpt lat="44.121" lon="2.25887">
        <ele>390</ele>
        <time>2022-09-11T09:24:11.355Z</time>
      </trkpt>
      <trkpt lat="44.121" lon="2.25886">
        <ele>390</ele>
        <time>2022-09-11T09:24:12.355Z</time>
      </trkpt>
      <trkpt lat="44.121" lon="2.25885">
        <ele>390</ele>
        <time>2022-09-11T09:24:13.355Z</time>
      </trkpt>
      <trkpt lat="44.121" lon="2.25884">
        <ele>390</ele>
        <time>2022-09-11T09:24:14.355Z</time>
      </trkpt>
      <trkpt lat="44.121" lon="2.25883">
        <ele>390</ele>
        <time>2022-09-11T09:24:15.355Z</time>
      </trkpt>
      <trkpt lat="44.121" lon="2.25882">
        <ele>390</ele>
        <time>2022-09-11T09:24:16.355Z</time>
      </trkpt>
      <trkpt lat="44.121" lon="2.25881">
        <ele>390</ele>
        <time>2022-09-11T09:24:17.355Z</time>
      </trkpt>
      <trkpt lat="44.12101" lon="2.25881">
        <ele>390</ele>
        <time>2022-09-11T09:24:18.355Z</time>
      </trkpt>
      <trkpt lat="44.121" lon="2.2588">
        <ele>390</ele>
        <time>2022-09-11T09:24:19.355Z</time>
      </trkpt>
      <trkpt lat="44.121" lon="2.25878">
        <ele>390</ele>
        <time>2022-09-11T09:24:20.355Z</time>
      </trkpt>
      <trkpt lat="44.121" lon="2.25877">
        <ele>389</ele>
        <time>2022-09-11T09:24:21.355Z</time>
      </trkpt>
      <trkpt lat="44.121" lon="2.25877">
        <ele>389</ele>
        <time>2022-09-11T09:24:22.355Z</time>
      </trkpt>
      <trkpt lat="44.121" lon="2.25876">
        <ele>389</ele>
        <time>2022-09-11T09:24:23.355Z</time>
      </trkpt>
      <trkpt lat="44.12099" lon="2.25875">
        <ele>389</ele>
        <time>2022-09-11T09:24:24.355Z</time>
      </trkpt>
      <trkpt lat="44.12099" lon="2.25874">
        <ele>389</ele>
        <time>2022-09-11T09:24:25.355Z</time>
      </trkpt>
      <trkpt lat="44.12099" lon="2.25873">
        <ele>389</ele>
        <time>2022-09-11T09:24:26.355Z</time>
      </trkpt>
      <trkpt lat="44.12099" lon="2.25872">
        <ele>389</ele>
        <time>2022-09-11T09:24:27.355Z</time>
      </trkpt>
      <trkpt lat="44.12099" lon="2.25871">
        <ele>389</ele>
        <time>2022-09-11T09:24:28.355Z</time>
      </trkpt>
      <trkpt lat="44.12099" lon="2.2587">
        <ele>389</ele>
        <time>2022-09-11T09:24:29.355Z</time>
      </trkpt>
      <trkpt lat="44.12099" lon="2.25869">
        <ele>389</ele>
        <time>2022-09-11T09:24:30.355Z</time>
      </trkpt>
      <trkpt lat="44.12099" lon="2.25868">
        <ele>389</ele>
        <time>2022-09-11T09:24:31.355Z</time>
      </trkpt>
      <trkpt lat="44.121" lon="2.25868">
        <ele>389</ele>
        <time>2022-09-11T09:24:32.355Z</time>
      </trkpt>
      <trkpt lat="44.121" lon="2.25867">
        <ele>389</ele>
        <time>2022-09-11T09:24:33.355Z</time>
      </trkpt>
      <trkpt lat="44.121" lon="2.25866">
        <ele>388</ele>
        <time>2022-09-11T09:24:34.355Z</time>
      </trkpt>
      <trkpt lat="44.121" lon="2.25866">
        <ele>388</ele>
        <time>2022-09-11T09:24:35.355Z</time>
      </trkpt>
      <trkpt lat="44.121" lon="2.25866">
        <ele>388</ele>
        <time>2022-09-11T09:24:36.355Z</time>
      </trkpt>
      <trkpt lat="44.12101" lon="2.25865">
        <ele>388</ele>
        <time>2022-09-11T09:24:37.355Z</time>
      </trkpt>
      <trkpt lat="44.12101" lon="2.25865">
        <ele>388</ele>
        <time>2022-09-11T09:24:38.355Z</time>
      </trkpt>
      <trkpt lat="44.12101" lon="2.25864">
        <ele>388</ele>
        <time>2022-09-11T09:24:39.355Z</time>
      </trkpt>
      <trkpt lat="44.12102" lon="2.25863">
        <ele>388</ele>
        <time>2022-09-11T09:24:40.355Z</time>
      </trkpt>
      <trkpt lat="44.12102" lon="2.25862">
        <ele>388</ele>
        <time>2022-09-11T09:24:41.355Z</time>
      </trkpt>
      <trkpt lat="44.12103" lon="2.25861">
        <ele>388</ele>
        <time>2022-09-11T09:24:42.355Z</time>
      </trkpt>
      <trkpt lat="44.12103" lon="2.2586">
        <ele>388</ele>
        <time>2022-09-11T09:24:43.355Z</time>
      </trkpt>
      <trkpt lat="44.12104" lon="2.25859">
        <ele>388</ele>
        <time>2022-09-11T09:24:44.355Z</time>
      </trkpt>
      <trkpt lat="44.12104" lon="2.25858">
        <ele>388</ele>
        <time>2022-09-11T09:24:45.355Z</time>
      </trkpt>
      <trkpt lat="44.12104" lon="2.25857">
        <ele>388</ele>
        <time>2022-09-11T09:24:46.355Z</time>
      </trkpt>
      <trkpt lat="44.12105" lon="2.25856">
        <ele>388</ele>
        <time>2022-09-11T09:24:47.355Z</time>
      </trkpt>
      <trkpt lat="44.12105" lon="2.25855">
        <ele>388</ele>
        <time>2022-09-11T09:24:48.355Z</time>
      </trkpt>
      <trkpt lat="44.12105" lon="2.25855">
        <ele>388</ele>
        <time>2022-09-11T09:24:49.355Z</time>
      </trkpt>
      <trkpt lat="44.12105" lon="2.25853">
        <ele>388</ele>
        <time>2022-09-11T09:24:50.355Z</time>
      </trkpt>
      <trkpt lat="44.12106" lon="2.25852">
        <ele>388</ele>
        <time>2022-09-11T09:24:51.355Z</time>
      </trkpt>
      <trkpt lat="44.12106" lon="2.25851">
        <ele>388</ele>
        <time>2022-09-11T09:24:52.355Z</time>
      </trkpt>
      <trkpt lat="44.12106" lon="2.2585">
        <ele>388</ele>
        <time>2022-09-11T09:24:53.355Z</time>
      </trkpt>
      <trkpt lat="44.12107" lon="2.25848">
        <ele>388</ele>
        <time>2022-09-11T09:24:54.355Z</time>
      </trkpt>
      <trkpt lat="44.12107" lon="2.25847">
        <ele>388</ele>
        <time>2022-09-11T09:24:55.355Z</time>
      </trkpt>
      <trkpt lat="44.12108" lon="2.25845">
        <ele>388</ele>
        <time>2022-09-11T09:24:56.355Z</time>
      </trkpt>
      <trkpt lat="44.12108" lon="2.25844">
        <ele>388</ele>
        <time>2022-09-11T09:24:57.355Z</time>
      </trkpt>
      <trkpt lat="44.12109" lon="2.25843">
        <ele>388</ele>
        <time>2022-09-11T09:24:58.355Z</time>
      </trkpt>
      <trkpt lat="44.12109" lon="2.25842">
        <ele>388</ele>
        <time>2022-09-11T09:24:59.355Z</time>
      </trkpt>
      <trkpt lat="44.12109" lon="2.25841">
        <ele>388</ele>
        <time>2022-09-11T09:25:00.355Z</time>
      </trkpt>
      <trkpt lat="44.12109" lon="2.25841">
        <ele>388</ele>
        <time>2022-09-11T09:25:01.355Z</time>
      </trkpt>
      <trkpt lat="44.1211" lon="2.2584">
        <ele>388</ele>
        <time>2022-09-11T09:25:02.355Z</time>
      </trkpt>
      <trkpt lat="44.1211" lon="2.25839">
        <ele>388</ele>
        <time>2022-09-11T09:25:03.355Z</time>
      </trkpt>
      <trkpt lat="44.12111" lon="2.25838">
        <ele>388</ele>
        <time>2022-09-11T09:25:04.355Z</time>
      </trkpt>
      <trkpt lat="44.12112" lon="2.25837">
        <ele>388</ele>
        <time>2022-09-11T09:25:05.355Z</time>
      </trkpt>
      <trkpt lat="44.12113" lon="2.25836">
        <ele>388</ele>
        <time>2022-09-11T09:25:06.355Z</time>
      </trkpt>
      <trkpt lat="44.12113" lon="2.25836">
        <ele>388</ele>
        <time>2022-09-11T09:25:07.355Z</time>
      </trkpt>
      <trkpt lat="44.12114" lon="2.25835">
        <ele>388</ele>
        <time>2022-09-11T09:25:08.355Z</time>
      </trkpt>
      <trkpt lat="44.12115" lon="2.25835">
        <ele>388</ele>
        <time>2022-09-11T09:25:09.355Z</time>
      </trkpt>
      <trkpt lat="44.12115" lon="2.25835">
        <ele>388</ele>
        <time>2022-09-11T09:25:10.355Z</time>
      </trkpt>
      <trkpt lat="44.12116" lon="2.25834">
        <ele>388</ele>
        <time>2022-09-11T09:25:11.355Z</time>
      </trkpt>
      <trkpt lat="44.12117" lon="2.25833">
        <ele>388</ele>
        <time>2022-09-11T09:25:12.355Z</time>
      </trkpt>
      <trkpt lat="44.12117" lon="2.25833">
        <ele>388</ele>
        <time>2022-09-11T09:25:13.355Z</time>
      </trkpt>
      <trkpt lat="44.12117" lon="2.25832">
        <ele>388</ele>
        <time>2022-09-11T09:25:14.355Z</time>
      </trkpt>
      <trkpt lat="44.12118" lon="2.25832">
        <ele>388</ele>
        <time>2022-09-11T09:25:15.355Z</time>
      </trkpt>
      <trkpt lat="44.12118" lon="2.25831">
        <ele>388</ele>
        <time>2022-09-11T09:25:16.355Z</time>
      </trkpt>
      <trkpt lat="44.12118" lon="2.2583">
        <ele>388</ele>
        <time>2022-09-11T09:25:17.355Z</time>
      </trkpt>
      <trkpt lat="44.12119" lon="2.25829">
        <ele>387</ele>
        <time>2022-09-11T09:25:18.355Z</time>
      </trkpt>
      <trkpt lat="44.12119" lon="2.25829">
        <ele>387</ele>
        <time>2022-09-11T09:25:19.355Z</time>
      </trkpt>
      <trkpt lat="44.1212" lon="2.25828">
        <ele>387</ele>
        <time>2022-09-11T09:25:20.355Z</time>
      </trkpt>
      <trkpt lat="44.1212" lon="2.25827">
        <ele>387</ele>
        <time>2022-09-11T09:25:21.355Z</time>
      </trkpt>
      <trkpt lat="44.12121" lon="2.25826">
        <ele>387</ele>
        <time>2022-09-11T09:25:22.355Z</time>
      </trkpt>
      <trkpt lat="44.12121" lon="2.25826">
        <ele>387</ele>
        <time>2022-09-11T09:25:23.355Z</time>
      </trkpt>
      <trkpt lat="44.12121" lon="2.25826">
        <ele>387</ele>
        <time>2022-09-11T09:25:24.355Z</time>
      </trkpt>
      <trkpt lat="44.12122" lon="2.25826">
        <ele>387</ele>
        <time>2022-09-11T09:25:25.355Z</time>
      </trkpt>
      <trkpt lat="44.12121" lon="2.25825">
        <ele>387</ele>
        <time>2022-09-11T09:25:26.355Z</time>
      </trkpt>
      <trkpt lat="44.12121" lon="2.25822">
        <ele>386</ele>
        <time>2022-09-11T09:26:05.360Z</time>
      </trkpt>
      <trkpt lat="44.12121" lon="2.25821">
        <ele>386</ele>
        <time>2022-09-11T09:26:06.360Z</time>
      </trkpt>
      <trkpt lat="44.12122" lon="2.2582">
        <ele>386</ele>
        <time>2022-09-11T09:26:07.360Z</time>
      </trkpt>
      <trkpt lat="44.12122" lon="2.25819">
        <ele>386</ele>
        <time>2022-09-11T09:26:08.360Z</time>
      </trkpt>
      <trkpt lat="44.12122" lon="2.25817">
        <ele>386</ele>
        <time>2022-09-11T09:26:09.360Z</time>
      </trkpt>
      <trkpt lat="44.12121" lon="2.25816">
        <ele>386</ele>
        <time>2022-09-11T09:26:10.360Z</time>
      </trkpt>
      <trkpt lat="44.12121" lon="2.25815">
        <ele>386</ele>
        <time>2022-09-11T09:26:11.360Z</time>
      </trkpt>
      <trkpt lat="44.1212" lon="2.25814">
        <ele>386</ele>
        <time>2022-09-11T09:26:12.360Z</time>
      </trkpt>
      <trkpt lat="44.12119" lon="2.25812">
        <ele>386</ele>
        <time>2022-09-11T09:26:13.360Z</time>
      </trkpt>
      <trkpt lat="44.12119" lon="2.25811">
        <ele>386</ele>
        <time>2022-09-11T09:26:14.360Z</time>
      </trkpt>
      <trkpt lat="44.12118" lon="2.2581">
        <ele>386</ele>
        <time>2022-09-11T09:26:15.360Z</time>
      </trkpt>
      <trkpt lat="44.12118" lon="2.25809">
        <ele>385</ele>
        <time>2022-09-11T09:26:16.360Z</time>
      </trkpt>
      <trkpt lat="44.12118" lon="2.25807">
        <ele>385</ele>
        <time>2022-09-11T09:26:17.360Z</time>
      </trkpt>
      <trkpt lat="44.12118" lon="2.25806">
        <ele>385</ele>
        <time>2022-09-11T09:26:18.360Z</time>
      </trkpt>
      <trkpt lat="44.12118" lon="2.25804">
        <ele>385</ele>
        <time>2022-09-11T09:26:19.360Z</time>
      </trkpt>
      <trkpt lat="44.12118" lon="2.25803">
        <ele>385</ele>
        <time>2022-09-11T09:26:20.360Z</time>
      </trkpt>
      <trkpt lat="44.12119" lon="2.25801">
        <ele>385</ele>
        <time>2022-09-11T09:26:21.360Z</time>
      </trkpt>
      <trkpt lat="44.12119" lon="2.258">
        <ele>385</ele>
        <time>2022-09-11T09:26:22.360Z</time>
      </trkpt>
      <trkpt lat="44.12119" lon="2.258">
        <ele>385</ele>
        <time>2022-09-11T09:26:23.360Z</time>
      </trkpt>
      <trkpt lat="44.1212" lon="2.25799">
        <ele>385</ele>
        <time>2022-09-11T09:26:24.360Z</time>
      </trkpt>
      <trkpt lat="44.1212" lon="2.25797">
        <ele>385</ele>
        <time>2022-09-11T09:26:25.360Z</time>
      </trkpt>
      <trkpt lat="44.1212" lon="2.25796">
        <ele>385</ele>
        <time>2022-09-11T09:26:26.360Z</time>
      </trkpt>
      <trkpt lat="44.12121" lon="2.25795">
        <ele>385</ele>
        <time>2022-09-11T09:26:27.360Z</time>
      </trkpt>
      <trkpt lat="44.12121" lon="2.25794">
        <ele>384</ele>
        <time>2022-09-11T09:26:28.360Z</time>
      </trkpt>
      <trkpt lat="44.12121" lon="2.25793">
        <ele>384</ele>
        <time>2022-09-11T09:26:29.360Z</time>
      </trkpt>
      <trkpt lat="44.12122" lon="2.25792">
        <ele>384</ele>
        <time>2022-09-11T09:26:30.360Z</time>
      </trkpt>
      <trkpt lat="44.12122" lon="2.2579">
        <ele>384</ele>
        <time>2022-09-11T09:26:31.360Z</time>
      </trkpt>
      <trkpt lat="44.12123" lon="2.25789">
        <ele>384</ele>
        <time>2022-09-11T09:26:32.360Z</time>
      </trkpt>
      <trkpt lat="44.12123" lon="2.25789">
        <ele>384</ele>
        <time>2022-09-11T09:26:33.360Z</time>
      </trkpt>
      <trkpt lat="44.12124" lon="2.25788">
        <ele>384</ele>
        <time>2022-09-11T09:26:34.360Z</time>
      </trkpt>
      <trkpt lat="44.12124" lon="2.25787">
        <ele>383</ele>
        <time>2022-09-11T09:26:35.360Z</time>
      </trkpt>
      <trkpt lat="44.12124" lon="2.25786">
        <ele>383</ele>
        <time>2022-09-11T09:26:36.360Z</time>
      </trkpt>
      <trkpt lat="44.12125" lon="2.25785">
        <ele>383</ele>
        <time>2022-09-11T09:26:37.360Z</time>
      </trkpt>
      <trkpt lat="44.12125" lon="2.25784">
        <ele>383</ele>
        <time>2022-09-11T09:26:38.360Z</time>
      </trkpt>
      <trkpt lat="44.12125" lon="2.25784">
        <ele>383</ele>
        <time>2022-09-11T09:26:39.360Z</time>
      </trkpt>
      <trkpt lat="44.12125" lon="2.25783">
        <ele>383</ele>
        <time>2022-09-11T09:26:40.360Z</time>
      </trkpt>
      <trkpt lat="44.12126" lon="2.25782">
        <ele>383</ele>
        <time>2022-09-11T09:26:41.360Z</time>
      </trkpt>
      <trkpt lat="44.12126" lon="2.25782">
        <ele>382</ele>
        <time>2022-09-11T09:26:42.360Z</time>
      </trkpt>
      <trkpt lat="44.12126" lon="2.25781">
        <ele>382</ele>
        <time>2022-09-11T09:26:43.360Z</time>
      </trkpt>
      <trkpt lat="44.12126" lon="2.25781">
        <ele>382</ele>
        <time>2022-09-11T09:26:44.360Z</time>
      </trkpt>
      <trkpt lat="44.12126" lon="2.2578">
        <ele>382</ele>
        <time>2022-09-11T09:26:45.360Z</time>
      </trkpt>
      <trkpt lat="44.12127" lon="2.25779">
        <ele>382</ele>
        <time>2022-09-11T09:26:46.360Z</time>
      </trkpt>
      <trkpt lat="44.12127" lon="2.25778">
        <ele>381</ele>
        <time>2022-09-11T09:26:47.360Z</time>
      </trkpt>
      <trkpt lat="44.12128" lon="2.25776">
        <ele>381</ele>
        <time>2022-09-11T09:26:48.360Z</time>
      </trkpt>
      <trkpt lat="44.12128" lon="2.25775">
        <ele>381</ele>
        <time>2022-09-11T09:26:49.360Z</time>
      </trkpt>
      <trkpt lat="44.12128" lon="2.25774">
        <ele>381</ele>
        <time>2022-09-11T09:26:50.360Z</time>
      </trkpt>
      <trkpt lat="44.12128" lon="2.25773">
        <ele>381</ele>
        <time>2022-09-11T09:26:51.360Z</time>
      </trkpt>
      <trkpt lat="44.12128" lon="2.25772">
        <ele>381</ele>
        <time>2022-09-11T09:26:52.360Z</time>
      </trkpt>
      <trkpt lat="44.12128" lon="2.25771">
        <ele>380</ele>
        <time>2022-09-11T09:26:53.360Z</time>
      </trkpt>
      <trkpt lat="44.12128" lon="2.2577">
        <ele>380</ele>
        <time>2022-09-11T09:26:54.360Z</time>
      </trkpt>
      <trkpt lat="44.12128" lon="2.25769">
        <ele>380</ele>
        <time>2022-09-11T09:26:55.360Z</time>
      </trkpt>
      <trkpt lat="44.12129" lon="2.25768">
        <ele>379</ele>
        <time>2022-09-11T09:26:56.360Z</time>
      </trkpt>
      <trkpt lat="44.12129" lon="2.25767">
        <ele>379</ele>
        <time>2022-09-11T09:26:57.360Z</time>
      </trkpt>
      <trkpt lat="44.12129" lon="2.25766">
        <ele>379</ele>
        <time>2022-09-11T09:26:58.360Z</time>
      </trkpt>
      <trkpt lat="44.12129" lon="2.25765">
        <ele>378</ele>
        <time>2022-09-11T09:26:59.360Z</time>
      </trkpt>
      <trkpt lat="44.12129" lon="2.25764">
        <ele>378</ele>
        <time>2022-09-11T09:27:00.360Z</time>
      </trkpt>
      <trkpt lat="44.12129" lon="2.25762">
        <ele>378</ele>
        <time>2022-09-11T09:27:01.360Z</time>
      </trkpt>
      <trkpt lat="44.12129" lon="2.25761">
        <ele>378</ele>
        <time>2022-09-11T09:27:02.360Z</time>
      </trkpt>
      <trkpt lat="44.12129" lon="2.2576">
        <ele>377</ele>
        <time>2022-09-11T09:27:03.360Z</time>
      </trkpt>
      <trkpt lat="44.1213" lon="2.25759">
        <ele>377</ele>
        <time>2022-09-11T09:27:04.360Z</time>
      </trkpt>
      <trkpt lat="44.1213" lon="2.25758">
        <ele>377</ele>
        <time>2022-09-11T09:27:05.360Z</time>
      </trkpt>
      <trkpt lat="44.1213" lon="2.25756">
        <ele>377</ele>
        <time>2022-09-11T09:27:06.360Z</time>
      </trkpt>
      <trkpt lat="44.12131" lon="2.25755">
        <ele>377</ele>
        <time>2022-09-11T09:27:07.360Z</time>
      </trkpt>
      <trkpt lat="44.12131" lon="2.25755">
        <ele>376</ele>
        <time>2022-09-11T09:27:08.360Z</time>
      </trkpt>
      <trkpt lat="44.12131" lon="2.25753">
        <ele>376</ele>
        <time>2022-09-11T09:27:09.360Z</time>
      </trkpt>
      <trkpt lat="44.12131" lon="2.25752">
        <ele>376</ele>
        <time>2022-09-11T09:27:10.360Z</time>
      </trkpt>
      <trkpt lat="44.12132" lon="2.25751">
        <ele>376</ele>
        <time>2022-09-11T09:27:11.360Z</time>
      </trkpt>
      <trkpt lat="44.12132" lon="2.2575">
        <ele>376</ele>
        <time>2022-09-11T09:27:12.360Z</time>
      </trkpt>
      <trkpt lat="44.12133" lon="2.25749">
        <ele>376</ele>
        <time>2022-09-11T09:27:13.360Z</time>
      </trkpt>
      <trkpt lat="44.12133" lon="2.25748">
        <ele>375</ele>
        <time>2022-09-11T09:27:14.360Z</time>
      </trkpt>
      <trkpt lat="44.12133" lon="2.25747">
        <ele>375</ele>
        <time>2022-09-11T09:27:15.360Z</time>
      </trkpt>
      <trkpt lat="44.12133" lon="2.25746">
        <ele>375</ele>
        <time>2022-09-11T09:27:16.360Z</time>
      </trkpt>
      <trkpt lat="44.12133" lon="2.25745">
        <ele>375</ele>
        <time>2022-09-11T09:27:17.360Z</time>
      </trkpt>
      <trkpt lat="44.12133" lon="2.25743">
        <ele>375</ele>
        <time>2022-09-11T09:27:18.360Z</time>
      </trkpt>
      <trkpt lat="44.12134" lon="2.25742">
        <ele>375</ele>
        <time>2022-09-11T09:27:19.360Z</time>
      </trkpt>
      <trkpt lat="44.12134" lon="2.2574">
        <ele>375</ele>
        <time>2022-09-11T09:27:20.360Z</time>
      </trkpt>
      <trkpt lat="44.12134" lon="2.25739">
        <ele>374</ele>
        <time>2022-09-11T09:27:21.360Z</time>
      </trkpt>
      <trkpt lat="44.12134" lon="2.25738">
        <ele>374</ele>
        <time>2022-09-11T09:27:22.360Z</time>
      </trkpt>
      <trkpt lat="44.12135" lon="2.25737">
        <ele>374</ele>
        <time>2022-09-11T09:27:23.360Z</time>
      </trkpt>
      <trkpt lat="44.12135" lon="2.25736">
        <ele>374</ele>
        <time>2022-09-11T09:27:24.360Z</time>
      </trkpt>
      <trkpt lat="44.12135" lon="2.25735">
        <ele>374</ele>
        <time>2022-09-11T09:27:25.360Z</time>
      </trkpt>
      <trkpt lat="44.12135" lon="2.25735">
        <ele>374</ele>
        <time>2022-09-11T09:27:26.360Z</time>
      </trkpt>
      <trkpt lat="44.12135" lon="2.25734">
        <ele>374</ele>
        <time>2022-09-11T09:27:27.360Z</time>
      </trkpt>
      <trkpt lat="44.12135" lon="2.25733">
        <ele>374</ele>
        <time>2022-09-11T09:27:28.360Z</time>
      </trkpt>
      <trkpt lat="44.12135" lon="2.25731">
        <ele>373</ele>
        <time>2022-09-11T09:27:29.360Z</time>
      </trkpt>
      <trkpt lat="44.12135" lon="2.25729">
        <ele>373</ele>
        <time>2022-09-11T09:27:30.360Z</time>
      </trkpt>
      <trkpt lat="44.12135" lon="2.25728">
        <ele>373</ele>
        <time>2022-09-11T09:27:31.360Z</time>
      </trkpt>
      <trkpt lat="44.12135" lon="2.25726">
        <ele>373</ele>
        <time>2022-09-11T09:27:32.360Z</time>
      </trkpt>
      <trkpt lat="44.12135" lon="2.25725">
        <ele>373</ele>
        <time>2022-09-11T09:27:33.360Z</time>
      </trkpt>
      <trkpt lat="44.12136" lon="2.25724">
        <ele>373</ele>
        <time>2022-09-11T09:27:34.360Z</time>
      </trkpt>
      <trkpt lat="44.12136" lon="2.25722">
        <ele>373</ele>
        <time>2022-09-11T09:27:35.360Z</time>
      </trkpt>
      <trkpt lat="44.12136" lon="2.2572">
        <ele>373</ele>
        <time>2022-09-11T09:27:36.360Z</time>
      </trkpt>
      <trkpt lat="44.12136" lon="2.25719">
        <ele>372</ele>
        <time>2022-09-11T09:27:37.360Z</time>
      </trkpt>
      <trkpt lat="44.12137" lon="2.25718">
        <ele>372</ele>
        <time>2022-09-11T09:27:38.360Z</time>
      </trkpt>
      <trkpt lat="44.12137" lon="2.25716">
        <ele>372</ele>
        <time>2022-09-11T09:27:39.360Z</time>
      </trkpt>
      <trkpt lat="44.12138" lon="2.25715">
        <ele>372</ele>
        <time>2022-09-11T09:27:40.360Z</time>
      </trkpt>
      <trkpt lat="44.12138" lon="2.25714">
        <ele>372</ele>
        <time>2022-09-11T09:27:41.360Z</time>
      </trkpt>
      <trkpt lat="44.12139" lon="2.25713">
        <ele>372</ele>
        <time>2022-09-11T09:27:42.360Z</time>
      </trkpt>
      <trkpt lat="44.1214" lon="2.25711">
        <ele>372</ele>
        <time>2022-09-11T09:27:43.360Z</time>
      </trkpt>
      <trkpt lat="44.1214" lon="2.2571">
        <ele>372</ele>
        <time>2022-09-11T09:27:44.360Z</time>
      </trkpt>
      <trkpt lat="44.12141" lon="2.25709">
        <ele>372</ele>
        <time>2022-09-11T09:27:45.360Z</time>
      </trkpt>
      <trkpt lat="44.12141" lon="2.25708">
        <ele>372</ele>
        <time>2022-09-11T09:27:46.360Z</time>
      </trkpt>
      <trkpt lat="44.12142" lon="2.25707">
        <ele>372</ele>
        <time>2022-09-11T09:27:47.360Z</time>
      </trkpt>
      <trkpt lat="44.12142" lon="2.25706">
        <ele>372</ele>
        <time>2022-09-11T09:27:48.360Z</time>
      </trkpt>
      <trkpt lat="44.12142" lon="2.25705">
        <ele>372</ele>
        <time>2022-09-11T09:27:49.360Z</time>
      </trkpt>
      <trkpt lat="44.12142" lon="2.25704">
        <ele>371</ele>
        <time>2022-09-11T09:27:50.360Z</time>
      </trkpt>
      <trkpt lat="44.12142" lon="2.25703">
        <ele>371</ele>
        <time>2022-09-11T09:27:51.360Z</time>
      </trkpt>
      <trkpt lat="44.12142" lon="2.25703">
        <ele>371</ele>
        <time>2022-09-11T09:27:52.360Z</time>
      </trkpt>
      <trkpt lat="44.12142" lon="2.25702">
        <ele>371</ele>
        <time>2022-09-11T09:27:53.360Z</time>
      </trkpt>
      <trkpt lat="44.12142" lon="2.257">
        <ele>371</ele>
        <time>2022-09-11T09:27:57.364Z</time>
      </trkpt>
      <trkpt lat="44.12142" lon="2.25698">
        <ele>371</ele>
        <time>2022-09-11T09:27:58.364Z</time>
      </trkpt>
      <trkpt lat="44.12142" lon="2.25697">
        <ele>371</ele>
        <time>2022-09-11T09:27:59.364Z</time>
      </trkpt>
      <trkpt lat="44.12141" lon="2.25696">
        <ele>371</ele>
        <time>2022-09-11T09:28:00.364Z</time>
      </trkpt>
      <trkpt lat="44.12141" lon="2.25694">
        <ele>371</ele>
        <time>2022-09-11T09:28:01.364Z</time>
      </trkpt>
      <trkpt lat="44.12141" lon="2.25692">
        <ele>371</ele>
        <time>2022-09-11T09:28:02.364Z</time>
      </trkpt>
      <trkpt lat="44.12141" lon="2.25691">
        <ele>371</ele>
        <time>2022-09-11T09:28:03.364Z</time>
      </trkpt>
      <trkpt lat="44.12141" lon="2.25689">
        <ele>371</ele>
        <time>2022-09-11T09:28:04.364Z</time>
      </trkpt>
      <trkpt lat="44.12142" lon="2.25688">
        <ele>371</ele>
        <time>2022-09-11T09:28:05.364Z</time>
      </trkpt>
      <trkpt lat="44.12142" lon="2.25687">
        <ele>371</ele>
        <time>2022-09-11T09:28:06.364Z</time>
      </trkpt>
      <trkpt lat="44.12142" lon="2.25686">
        <ele>371</ele>
        <time>2022-09-11T09:28:07.364Z</time>
      </trkpt>
      <trkpt lat="44.12143" lon="2.25684">
        <ele>371</ele>
        <time>2022-09-11T09:28:08.364Z</time>
      </trkpt>
      <trkpt lat="44.12143" lon="2.25684">
        <ele>371</ele>
        <time>2022-09-11T09:28:09.364Z</time>
      </trkpt>
      <trkpt lat="44.12143" lon="2.25683">
        <ele>371</ele>
        <time>2022-09-11T09:28:10.364Z</time>
      </trkpt>
      <trkpt lat="44.12143" lon="2.25682">
        <ele>371</ele>
        <time>2022-09-11T09:28:11.364Z</time>
      </trkpt>
      <trkpt lat="44.12143" lon="2.25681">
        <ele>371</ele>
        <time>2022-09-11T09:28:12.364Z</time>
      </trkpt>
      <trkpt lat="44.12143" lon="2.2568">
        <ele>371</ele>
        <time>2022-09-11T09:28:13.364Z</time>
      </trkpt>
      <trkpt lat="44.12144" lon="2.25679">
        <ele>371</ele>
        <time>2022-09-11T09:28:14.364Z</time>
      </trkpt>
      <trkpt lat="44.12144" lon="2.25678">
        <ele>371</ele>
        <time>2022-09-11T09:28:15.364Z</time>
      </trkpt>
      <trkpt lat="44.12145" lon="2.25677">
        <ele>372</ele>
        <time>2022-09-11T09:28:16.364Z</time>
      </trkpt>
      <trkpt lat="44.12145" lon="2.25676">
        <ele>372</ele>
        <time>2022-09-11T09:28:17.364Z</time>
      </trkpt>
      <trkpt lat="44.12145" lon="2.25675">
        <ele>372</ele>
        <time>2022-09-11T09:28:18.364Z</time>
      </trkpt>
      <trkpt lat="44.12146" lon="2.25674">
        <ele>372</ele>
        <time>2022-09-11T09:28:19.364Z</time>
      </trkpt>
      <trkpt lat="44.12146" lon="2.25673">
        <ele>372</ele>
        <time>2022-09-11T09:28:20.364Z</time>
      </trkpt>
      <trkpt lat="44.12146" lon="2.25673">
        <ele>372</ele>
        <time>2022-09-11T09:28:21.364Z</time>
      </trkpt>
      <trkpt lat="44.12146" lon="2.25672">
        <ele>372</ele>
        <time>2022-09-11T09:28:22.364Z</time>
      </trkpt>
      <trkpt lat="44.12147" lon="2.25671">
        <ele>373</ele>
        <time>2022-09-11T09:28:23.364Z</time>
      </trkpt>
      <trkpt lat="44.12147" lon="2.2567">
        <ele>373</ele>
        <time>2022-09-11T09:28:24.364Z</time>
      </trkpt>
      <trkpt lat="44.12147" lon="2.2567">
        <ele>373</ele>
        <time>2022-09-11T09:28:25.364Z</time>
      </trkpt>
      <trkpt lat="44.12147" lon="2.25669">
        <ele>373</ele>
        <time>2022-09-11T09:28:26.364Z</time>
      </trkpt>
      <trkpt lat="44.12147" lon="2.25669">
        <ele>373</ele>
        <time>2022-09-11T09:28:27.364Z</time>
      </trkpt>
      <trkpt lat="44.12147" lon="2.25666">
        <ele>374</ele>
        <time>2022-09-11T09:28:32.370Z</time>
      </trkpt>
      <trkpt lat="44.12148" lon="2.25666">
        <ele>374</ele>
        <time>2022-09-11T09:28:33.370Z</time>
      </trkpt>
      <trkpt lat="44.12148" lon="2.25665">
        <ele>374</ele>
        <time>2022-09-11T09:28:34.370Z</time>
      </trkpt>
      <trkpt lat="44.12148" lon="2.25664">
        <ele>374</ele>
        <time>2022-09-11T09:28:35.370Z</time>
      </trkpt>
      <trkpt lat="44.12148" lon="2.25663">
        <ele>374</ele>
        <time>2022-09-11T09:28:36.370Z</time>
      </trkpt>
      <trkpt lat="44.12148" lon="2.25663">
        <ele>374</ele>
        <time>2022-09-11T09:28:37.370Z</time>
      </trkpt>
      <trkpt lat="44.12148" lon="2.25662">
        <ele>374</ele>
        <time>2022-09-11T09:28:38.370Z</time>
      </trkpt>
      <trkpt lat="44.12148" lon="2.25661">
        <ele>374</ele>
        <time>2022-09-11T09:28:39.370Z</time>
      </trkpt>
      <trkpt lat="44.12148" lon="2.25661">
        <ele>374</ele>
        <time>2022-09-11T09:28:40.370Z</time>
      </trkpt>
      <trkpt lat="44.12148" lon="2.2566">
        <ele>374</ele>
        <time>2022-09-11T09:28:41.370Z</time>
      </trkpt>
      <trkpt lat="44.12148" lon="2.25659">
        <ele>374</ele>
        <time>2022-09-11T09:28:42.370Z</time>
      </trkpt>
      <trkpt lat="44.12148" lon="2.25658">
        <ele>374</ele>
        <time>2022-09-11T09:28:43.370Z</time>
      </trkpt>
      <trkpt lat="44.12148" lon="2.25657">
        <ele>374</ele>
        <time>2022-09-11T09:28:44.370Z</time>
      </trkpt>
      <trkpt lat="44.12147" lon="2.25656">
        <ele>374</ele>
        <time>2022-09-11T09:28:45.370Z</time>
      </trkpt>
      <trkpt lat="44.12147" lon="2.25655">
        <ele>374</ele>
        <time>2022-09-11T09:28:46.370Z</time>
      </trkpt>
      <trkpt lat="44.12147" lon="2.25655">
        <ele>374</ele>
        <time>2022-09-11T09:28:47.370Z</time>
      </trkpt>
      <trkpt lat="44.12147" lon="2.25654">
        <ele>374</ele>
        <time>2022-09-11T09:28:48.370Z</time>
      </trkpt>
      <trkpt lat="44.12145" lon="2.25652">
        <ele>374</ele>
        <time>2022-09-11T09:28:51.624Z</time>
      </trkpt>
      <trkpt lat="44.12145" lon="2.25651">
        <ele>374</ele>
        <time>2022-09-11T09:28:52.624Z</time>
      </trkpt>
      <trkpt lat="44.12144" lon="2.2565">
        <ele>374</ele>
        <time>2022-09-11T09:28:53.624Z</time>
      </trkpt>
      <trkpt lat="44.12144" lon="2.25649">
        <ele>374</ele>
        <time>2022-09-11T09:28:54.624Z</time>
      </trkpt>
      <trkpt lat="44.12144" lon="2.25648">
        <ele>374</ele>
        <time>2022-09-11T09:28:55.624Z</time>
      </trkpt>
      <trkpt lat="44.12144" lon="2.25647">
        <ele>374</ele>
        <time>2022-09-11T09:28:56.624Z</time>
      </trkpt>
      <trkpt lat="44.12144" lon="2.25646">
        <ele>375</ele>
        <time>2022-09-11T09:28:57.624Z</time>
      </trkpt>
      <trkpt lat="44.12144" lon="2.25645">
        <ele>375</ele>
        <time>2022-09-11T09:28:58.624Z</time>
      </trkpt>
      <trkpt lat="44.12144" lon="2.25644">
        <ele>375</ele>
        <time>2022-09-11T09:28:59.624Z</time>
      </trkpt>
      <trkpt lat="44.12145" lon="2.25643">
        <ele>375</ele>
        <time>2022-09-11T09:29:00.624Z</time>
      </trkpt>
      <trkpt lat="44.12145" lon="2.25642">
        <ele>375</ele>
        <time>2022-09-11T09:29:01.624Z</time>
      </trkpt>
      <trkpt lat="44.12145" lon="2.25642">
        <ele>375</ele>
        <time>2022-09-11T09:29:02.624Z</time>
      </trkpt>
      <trkpt lat="44.12145" lon="2.25641">
        <ele>375</ele>
        <time>2022-09-11T09:29:03.624Z</time>
      </trkpt>
      <trkpt lat="44.12146" lon="2.25638">
        <ele>375</ele>
        <time>2022-09-11T09:29:06.879Z</time>
      </trkpt>
      <trkpt lat="44.12146" lon="2.25638">
        <ele>375</ele>
        <time>2022-09-11T09:29:07.879Z</time>
      </trkpt>
      <trkpt lat="44.12146" lon="2.25637">
        <ele>375</ele>
        <time>2022-09-11T09:29:08.879Z</time>
      </trkpt>
      <trkpt lat="44.12148" lon="2.25632">
        <ele>376</ele>
        <time>2022-09-11T09:29:17.886Z</time>
      </trkpt>
      <trkpt lat="44.12148" lon="2.25631">
        <ele>376</ele>
        <time>2022-09-11T09:29:18.886Z</time>
      </trkpt>
      <trkpt lat="44.12147" lon="2.2563">
        <ele>376</ele>
        <time>2022-09-11T09:29:19.886Z</time>
      </trkpt>
      <trkpt lat="44.12147" lon="2.25629">
        <ele>376</ele>
        <time>2022-09-11T09:29:20.886Z</time>
      </trkpt>
      <trkpt lat="44.12148" lon="2.25627">
        <ele>376</ele>
        <time>2022-09-11T09:29:21.886Z</time>
      </trkpt>
      <trkpt lat="44.12148" lon="2.25626">
        <ele>376</ele>
        <time>2022-09-11T09:29:22.886Z</time>
      </trkpt>
      <trkpt lat="44.12148" lon="2.25624">
        <ele>376</ele>
        <time>2022-09-11T09:29:23.886Z</time>
      </trkpt>
      <trkpt lat="44.12149" lon="2.25623">
        <ele>376</ele>
        <time>2022-09-11T09:29:24.886Z</time>
      </trkpt>
      <trkpt lat="44.1215" lon="2.25622">
        <ele>376</ele>
        <time>2022-09-11T09:29:25.886Z</time>
      </trkpt>
      <trkpt lat="44.1215" lon="2.2562">
        <ele>376</ele>
        <time>2022-09-11T09:29:26.886Z</time>
      </trkpt>
      <trkpt lat="44.12151" lon="2.25619">
        <ele>376</ele>
        <time>2022-09-11T09:29:27.886Z</time>
      </trkpt>
      <trkpt lat="44.12152" lon="2.25618">
        <ele>376</ele>
        <time>2022-09-11T09:29:28.886Z</time>
      </trkpt>
      <trkpt lat="44.12152" lon="2.25617">
        <ele>376</ele>
        <time>2022-09-11T09:29:29.886Z</time>
      </trkpt>
      <trkpt lat="44.12153" lon="2.25616">
        <ele>376</ele>
        <time>2022-09-11T09:29:30.886Z</time>
      </trkpt>
      <trkpt lat="44.12153" lon="2.25615">
        <ele>376</ele>
        <time>2022-09-11T09:29:31.886Z</time>
      </trkpt>
      <trkpt lat="44.12154" lon="2.25614">
        <ele>376</ele>
        <time>2022-09-11T09:29:32.886Z</time>
      </trkpt>
      <trkpt lat="44.12154" lon="2.25613">
        <ele>376</ele>
        <time>2022-09-11T09:29:33.886Z</time>
      </trkpt>
      <trkpt lat="44.12155" lon="2.25612">
        <ele>376</ele>
        <time>2022-09-11T09:29:34.886Z</time>
      </trkpt>
      <trkpt lat="44.12155" lon="2.25611">
        <ele>376</ele>
        <time>2022-09-11T09:29:35.886Z</time>
      </trkpt>
      <trkpt lat="44.12155" lon="2.2561">
        <ele>376</ele>
        <time>2022-09-11T09:29:36.886Z</time>
      </trkpt>
      <trkpt lat="44.12156" lon="2.2561">
        <ele>376</ele>
        <time>2022-09-11T09:29:37.886Z</time>
      </trkpt>
      <trkpt lat="44.12156" lon="2.25609">
        <ele>376</ele>
        <time>2022-09-11T09:29:38.886Z</time>
      </trkpt>
      <trkpt lat="44.12156" lon="2.25608">
        <ele>376</ele>
        <time>2022-09-11T09:29:39.886Z</time>
      </trkpt>
      <trkpt lat="44.12157" lon="2.25608">
        <ele>376</ele>
        <time>2022-09-11T09:29:40.886Z</time>
      </trkpt>
      <trkpt lat="44.12158" lon="2.25607">
        <ele>376</ele>
        <time>2022-09-11T09:29:41.886Z</time>
      </trkpt>
      <trkpt lat="44.12159" lon="2.25606">
        <ele>376</ele>
        <time>2022-09-11T09:29:42.886Z</time>
      </trkpt>
      <trkpt lat="44.12159" lon="2.25605">
        <ele>376</ele>
        <time>2022-09-11T09:29:43.886Z</time>
      </trkpt>
      <trkpt lat="44.1216" lon="2.25605">
        <ele>376</ele>
        <time>2022-09-11T09:29:44.886Z</time>
      </trkpt>
      <trkpt lat="44.1216" lon="2.25604">
        <ele>376</ele>
        <time>2022-09-11T09:29:45.886Z</time>
      </trkpt>
      <trkpt lat="44.1216" lon="2.25604">
        <ele>376</ele>
        <time>2022-09-11T09:29:46.886Z</time>
      </trkpt>
      <trkpt lat="44.1216" lon="2.25603">
        <ele>376</ele>
        <time>2022-09-11T09:29:47.886Z</time>
      </trkpt>
      <trkpt lat="44.1216" lon="2.25602">
        <ele>376</ele>
        <time>2022-09-11T09:29:48.886Z</time>
      </trkpt>
      <trkpt lat="44.1216" lon="2.256">
        <ele>376</ele>
        <time>2022-09-11T09:29:49.886Z</time>
      </trkpt>
      <trkpt lat="44.1216" lon="2.25599">
        <ele>376</ele>
        <time>2022-09-11T09:29:50.886Z</time>
      </trkpt>
      <trkpt lat="44.1216" lon="2.25598">
        <ele>376</ele>
        <time>2022-09-11T09:29:51.886Z</time>
      </trkpt>
      <trkpt lat="44.1216" lon="2.25597">
        <ele>377</ele>
        <time>2022-09-11T09:29:52.886Z</time>
      </trkpt>
      <trkpt lat="44.12161" lon="2.25596">
        <ele>377</ele>
        <time>2022-09-11T09:29:53.886Z</time>
      </trkpt>
      <trkpt lat="44.12161" lon="2.25595">
        <ele>377</ele>
        <time>2022-09-11T09:29:54.886Z</time>
      </trkpt>
      <trkpt lat="44.12161" lon="2.25594">
        <ele>377</ele>
        <time>2022-09-11T09:29:55.886Z</time>
      </trkpt>
      <trkpt lat="44.12161" lon="2.25593">
        <ele>377</ele>
        <time>2022-09-11T09:29:56.886Z</time>
      </trkpt>
      <trkpt lat="44.12161" lon="2.25592">
        <ele>377</ele>
        <time>2022-09-11T09:29:57.886Z</time>
      </trkpt>
      <trkpt lat="44.12162" lon="2.25591">
        <ele>377</ele>
        <time>2022-09-11T09:29:58.886Z</time>
      </trkpt>
      <trkpt lat="44.12162" lon="2.25589">
        <ele>377</ele>
        <time>2022-09-11T09:29:59.886Z</time>
      </trkpt>
      <trkpt lat="44.12162" lon="2.25588">
        <ele>377</ele>
        <time>2022-09-11T09:30:00.886Z</time>
      </trkpt>
      <trkpt lat="44.12162" lon="2.25587">
        <ele>377</ele>
        <time>2022-09-11T09:30:01.886Z</time>
      </trkpt>
      <trkpt lat="44.12163" lon="2.25586">
        <ele>376</ele>
        <time>2022-09-11T09:30:02.886Z</time>
      </trkpt>
      <trkpt lat="44.12163" lon="2.25585">
        <ele>376</ele>
        <time>2022-09-11T09:30:03.886Z</time>
      </trkpt>
      <trkpt lat="44.12164" lon="2.25584">
        <ele>376</ele>
        <time>2022-09-11T09:30:04.886Z</time>
      </trkpt>
      <trkpt lat="44.12164" lon="2.25583">
        <ele>376</ele>
        <time>2022-09-11T09:30:05.886Z</time>
      </trkpt>
      <trkpt lat="44.12165" lon="2.25582">
        <ele>376</ele>
        <time>2022-09-11T09:30:06.886Z</time>
      </trkpt>
      <trkpt lat="44.12165" lon="2.25581">
        <ele>376</ele>
        <time>2022-09-11T09:30:07.886Z</time>
      </trkpt>
      <trkpt lat="44.12165" lon="2.2558">
        <ele>376</ele>
        <time>2022-09-11T09:30:08.886Z</time>
      </trkpt>
      <trkpt lat="44.12165" lon="2.25579">
        <ele>376</ele>
        <time>2022-09-11T09:30:09.886Z</time>
      </trkpt>
      <trkpt lat="44.12165" lon="2.25578">
        <ele>376</ele>
        <time>2022-09-11T09:30:10.886Z</time>
      </trkpt>
      <trkpt lat="44.12165" lon="2.25577">
        <ele>376</ele>
        <time>2022-09-11T09:30:11.886Z</time>
      </trkpt>
      <trkpt lat="44.12165" lon="2.25576">
        <ele>376</ele>
        <time>2022-09-11T09:30:12.886Z</time>
      </trkpt>
      <trkpt lat="44.12165" lon="2.25575">
        <ele>375</ele>
        <time>2022-09-11T09:30:13.886Z</time>
      </trkpt>
      <trkpt lat="44.12165" lon="2.25573">
        <ele>375</ele>
        <time>2022-09-11T09:30:14.886Z</time>
      </trkpt>
      <trkpt lat="44.12166" lon="2.25573">
        <ele>375</ele>
        <time>2022-09-11T09:30:15.886Z</time>
      </trkpt>
      <trkpt lat="44.12167" lon="2.25572">
        <ele>375</ele>
        <time>2022-09-11T09:30:16.886Z</time>
      </trkpt>
      <trkpt lat="44.12168" lon="2.25571">
        <ele>375</ele>
        <time>2022-09-11T09:30:17.886Z</time>
      </trkpt>
      <trkpt lat="44.12168" lon="2.25571">
        <ele>375</ele>
        <time>2022-09-11T09:30:18.886Z</time>
      </trkpt>
      <trkpt lat="44.12169" lon="2.2557">
        <ele>375</ele>
        <time>2022-09-11T09:30:19.886Z</time>
      </trkpt>
      <trkpt lat="44.12169" lon="2.25569">
        <ele>375</ele>
        <time>2022-09-11T09:30:20.886Z</time>
      </trkpt>
      <trkpt lat="44.12169" lon="2.25568">
        <ele>375</ele>
        <time>2022-09-11T09:30:21.886Z</time>
      </trkpt>
      <trkpt lat="44.1217" lon="2.25567">
        <ele>375</ele>
        <time>2022-09-11T09:30:22.886Z</time>
      </trkpt>
      <trkpt lat="44.1217" lon="2.25566">
        <ele>375</ele>
        <time>2022-09-11T09:30:23.886Z</time>
      </trkpt>
      <trkpt lat="44.12171" lon="2.25565">
        <ele>375</ele>
        <time>2022-09-11T09:30:24.886Z</time>
      </trkpt>
      <trkpt lat="44.12172" lon="2.25564">
        <ele>375</ele>
        <time>2022-09-11T09:30:25.886Z</time>
      </trkpt>
      <trkpt lat="44.12173" lon="2.25564">
        <ele>375</ele>
        <time>2022-09-11T09:30:26.886Z</time>
      </trkpt>
      <trkpt lat="44.12173" lon="2.25563">
        <ele>375</ele>
        <time>2022-09-11T09:30:27.886Z</time>
      </trkpt>
      <trkpt lat="44.12174" lon="2.25562">
        <ele>375</ele>
        <time>2022-09-11T09:30:28.886Z</time>
      </trkpt>
      <trkpt lat="44.12174" lon="2.25562">
        <ele>375</ele>
        <time>2022-09-11T09:30:29.886Z</time>
      </trkpt>
      <trkpt lat="44.12174" lon="2.25561">
        <ele>375</ele>
        <time>2022-09-11T09:30:30.886Z</time>
      </trkpt>
      <trkpt lat="44.12175" lon="2.2556">
        <ele>375</ele>
        <time>2022-09-11T09:30:31.886Z</time>
      </trkpt>
      <trkpt lat="44.12175" lon="2.25559">
        <ele>375</ele>
        <time>2022-09-11T09:30:32.886Z</time>
      </trkpt>
      <trkpt lat="44.12176" lon="2.25559">
        <ele>375</ele>
        <time>2022-09-11T09:30:33.886Z</time>
      </trkpt>
      <trkpt lat="44.12176" lon="2.25558">
        <ele>375</ele>
        <time>2022-09-11T09:30:34.886Z</time>
      </trkpt>
      <trkpt lat="44.12177" lon="2.25557">
        <ele>374</ele>
        <time>2022-09-11T09:30:35.886Z</time>
      </trkpt>
      <trkpt lat="44.12177" lon="2.25556">
        <ele>375</ele>
        <time>2022-09-11T09:30:36.886Z</time>
      </trkpt>
      <trkpt lat="44.12177" lon="2.25555">
        <ele>375</ele>
        <time>2022-09-11T09:30:37.886Z</time>
      </trkpt>
      <trkpt lat="44.12178" lon="2.25554">
        <ele>375</ele>
        <time>2022-09-11T09:30:38.886Z</time>
      </trkpt>
      <trkpt lat="44.12178" lon="2.25553">
        <ele>375</ele>
        <time>2022-09-11T09:30:39.886Z</time>
      </trkpt>
      <trkpt lat="44.12178" lon="2.25552">
        <ele>374</ele>
        <time>2022-09-11T09:30:40.886Z</time>
      </trkpt>
      <trkpt lat="44.12179" lon="2.25551">
        <ele>374</ele>
        <time>2022-09-11T09:30:41.886Z</time>
      </trkpt>
      <trkpt lat="44.12179" lon="2.25551">
        <ele>374</ele>
        <time>2022-09-11T09:30:42.886Z</time>
      </trkpt>
      <trkpt lat="44.12179" lon="2.2555">
        <ele>374</ele>
        <time>2022-09-11T09:30:43.886Z</time>
      </trkpt>
      <trkpt lat="44.1218" lon="2.25549">
        <ele>374</ele>
        <time>2022-09-11T09:30:44.886Z</time>
      </trkpt>
      <trkpt lat="44.1218" lon="2.25547">
        <ele>374</ele>
        <time>2022-09-11T09:30:45.886Z</time>
      </trkpt>
      <trkpt lat="44.1218" lon="2.25546">
        <ele>374</ele>
        <time>2022-09-11T09:30:46.886Z</time>
      </trkpt>
      <trkpt lat="44.1218" lon="2.25545">
        <ele>374</ele>
        <time>2022-09-11T09:30:47.886Z</time>
      </trkpt>
      <trkpt lat="44.1218" lon="2.25544">
        <ele>373</ele>
        <time>2022-09-11T09:30:48.886Z</time>
      </trkpt>
      <trkpt lat="44.12181" lon="2.25543">
        <ele>373</ele>
        <time>2022-09-11T09:30:49.886Z</time>
      </trkpt>
      <trkpt lat="44.12181" lon="2.25541">
        <ele>373</ele>
        <time>2022-09-11T09:30:50.886Z</time>
      </trkpt>
      <trkpt lat="44.12181" lon="2.2554">
        <ele>373</ele>
        <time>2022-09-11T09:30:51.886Z</time>
      </trkpt>
      <trkpt lat="44.12181" lon="2.25539">
        <ele>373</ele>
        <time>2022-09-11T09:30:52.886Z</time>
      </trkpt>
      <trkpt lat="44.12181" lon="2.25538">
        <ele>373</ele>
        <time>2022-09-11T09:30:53.886Z</time>
      </trkpt>
      <trkpt lat="44.12181" lon="2.25536">
        <ele>373</ele>
        <time>2022-09-11T09:30:54.886Z</time>
      </trkpt>
      <trkpt lat="44.12181" lon="2.25535">
        <ele>372</ele>
        <time>2022-09-11T09:30:55.886Z</time>
      </trkpt>
      <trkpt lat="44.1218" lon="2.25534">
        <ele>372</ele>
        <time>2022-09-11T09:30:56.886Z</time>
      </trkpt>
      <trkpt lat="44.1218" lon="2.25532">
        <ele>372</ele>
        <time>2022-09-11T09:30:57.886Z</time>
      </trkpt>
      <trkpt lat="44.12179" lon="2.25531">
        <ele>372</ele>
        <time>2022-09-11T09:30:58.886Z</time>
      </trkpt>
      <trkpt lat="44.12179" lon="2.2553">
        <ele>372</ele>
        <time>2022-09-11T09:30:59.886Z</time>
      </trkpt>
      <trkpt lat="44.12178" lon="2.25529">
        <ele>372</ele>
        <time>2022-09-11T09:31:00.886Z</time>
      </trkpt>
      <trkpt lat="44.12177" lon="2.25528">
        <ele>372</ele>
        <time>2022-09-11T09:31:01.886Z</time>
      </trkpt>
      <trkpt lat="44.12177" lon="2.25527">
        <ele>372</ele>
        <time>2022-09-11T09:31:02.886Z</time>
      </trkpt>
      <trkpt lat="44.12177" lon="2.25526">
        <ele>372</ele>
        <time>2022-09-11T09:31:03.886Z</time>
      </trkpt>
      <trkpt lat="44.12176" lon="2.25525">
        <ele>372</ele>
        <time>2022-09-11T09:31:04.886Z</time>
      </trkpt>
      <trkpt lat="44.12176" lon="2.25524">
        <ele>372</ele>
        <time>2022-09-11T09:31:05.886Z</time>
      </trkpt>
      <trkpt lat="44.12176" lon="2.25522">
        <ele>371</ele>
        <time>2022-09-11T09:31:06.886Z</time>
      </trkpt>
      <trkpt lat="44.12176" lon="2.25521">
        <ele>371</ele>
        <time>2022-09-11T09:31:07.886Z</time>
      </trkpt>
      <trkpt lat="44.12176" lon="2.2552">
        <ele>371</ele>
        <time>2022-09-11T09:31:08.886Z</time>
      </trkpt>
      <trkpt lat="44.12176" lon="2.25519">
        <ele>371</ele>
        <time>2022-09-11T09:31:09.886Z</time>
      </trkpt>
      <trkpt lat="44.12176" lon="2.25518">
        <ele>371</ele>
        <time>2022-09-11T09:31:10.886Z</time>
      </trkpt>
      <trkpt lat="44.12175" lon="2.25517">
        <ele>371</ele>
        <time>2022-09-11T09:31:11.886Z</time>
      </trkpt>
      <trkpt lat="44.12175" lon="2.25516">
        <ele>371</ele>
        <time>2022-09-11T09:31:12.886Z</time>
      </trkpt>
      <trkpt lat="44.12175" lon="2.25515">
        <ele>371</ele>
        <time>2022-09-11T09:31:13.886Z</time>
      </trkpt>
      <trkpt lat="44.12175" lon="2.25514">
        <ele>371</ele>
        <time>2022-09-11T09:31:14.886Z</time>
      </trkpt>
      <trkpt lat="44.12176" lon="2.25514">
        <ele>371</ele>
        <time>2022-09-11T09:31:15.886Z</time>
      </trkpt>
      <trkpt lat="44.12176" lon="2.25513">
        <ele>371</ele>
        <time>2022-09-11T09:31:16.886Z</time>
      </trkpt>
      <trkpt lat="44.12177" lon="2.25512">
        <ele>371</ele>
        <time>2022-09-11T09:31:17.886Z</time>
      </trkpt>
      <trkpt lat="44.12177" lon="2.25512">
        <ele>371</ele>
        <time>2022-09-11T09:31:18.886Z</time>
      </trkpt>
      <trkpt lat="44.12177" lon="2.25511">
        <ele>371</ele>
        <time>2022-09-11T09:31:19.886Z</time>
      </trkpt>
      <trkpt lat="44.12177" lon="2.2551">
        <ele>370</ele>
        <time>2022-09-11T09:31:20.886Z</time>
      </trkpt>
      <trkpt lat="44.12177" lon="2.25509">
        <ele>370</ele>
        <time>2022-09-11T09:31:21.886Z</time>
      </trkpt>
      <trkpt lat="44.12177" lon="2.25508">
        <ele>370</ele>
        <time>2022-09-11T09:31:22.886Z</time>
      </trkpt>
      <trkpt lat="44.12177" lon="2.25507">
        <ele>370</ele>
        <time>2022-09-11T09:31:23.886Z</time>
      </trkpt>
      <trkpt lat="44.12177" lon="2.25506">
        <ele>370</ele>
        <time>2022-09-11T09:31:24.886Z</time>
      </trkpt>
      <trkpt lat="44.12177" lon="2.25505">
        <ele>370</ele>
        <time>2022-09-11T09:31:25.886Z</time>
      </trkpt>
      <trkpt lat="44.12178" lon="2.25505">
        <ele>369</ele>
        <time>2022-09-11T09:31:26.886Z</time>
      </trkpt>
      <trkpt lat="44.12178" lon="2.25504">
        <ele>369</ele>
        <time>2022-09-11T09:31:27.886Z</time>
      </trkpt>
      <trkpt lat="44.12178" lon="2.25503">
        <ele>369</ele>
        <time>2022-09-11T09:31:28.886Z</time>
      </trkpt>
      <trkpt lat="44.12178" lon="2.25502">
        <ele>369</ele>
        <time>2022-09-11T09:31:29.886Z</time>
      </trkpt>
      <trkpt lat="44.12178" lon="2.25501">
        <ele>369</ele>
        <time>2022-09-11T09:31:30.886Z</time>
      </trkpt>
      <trkpt lat="44.12179" lon="2.25501">
        <ele>369</ele>
        <time>2022-09-11T09:31:31.886Z</time>
      </trkpt>
      <trkpt lat="44.12179" lon="2.255">
        <ele>368</ele>
        <time>2022-09-11T09:31:32.886Z</time>
      </trkpt>
      <trkpt lat="44.12179" lon="2.25499">
        <ele>368</ele>
        <time>2022-09-11T09:31:33.886Z</time>
      </trkpt>
      <trkpt lat="44.12179" lon="2.25498">
        <ele>368</ele>
        <time>2022-09-11T09:31:34.886Z</time>
      </trkpt>
      <trkpt lat="44.12179" lon="2.25498">
        <ele>368</ele>
        <time>2022-09-11T09:31:35.886Z</time>
      </trkpt>
      <trkpt lat="44.12179" lon="2.25497">
        <ele>368</ele>
        <time>2022-09-11T09:31:36.886Z</time>
      </trkpt>
      <trkpt lat="44.12179" lon="2.25496">
        <ele>368</ele>
        <time>2022-09-11T09:31:37.886Z</time>
      </trkpt>
      <trkpt lat="44.12179" lon="2.25496">
        <ele>368</ele>
        <time>2022-09-11T09:31:38.886Z</time>
      </trkpt>
      <trkpt lat="44.12179" lon="2.25495">
        <ele>368</ele>
        <time>2022-09-11T09:31:39.886Z</time>
      </trkpt>
      <trkpt lat="44.12179" lon="2.25494">
        <ele>367</ele>
        <time>2022-09-11T09:31:40.886Z</time>
      </trkpt>
      <trkpt lat="44.1218" lon="2.25493">
        <ele>367</ele>
        <time>2022-09-11T09:31:41.886Z</time>
      </trkpt>
      <trkpt lat="44.1218" lon="2.25492">
        <ele>367</ele>
        <time>2022-09-11T09:31:42.886Z</time>
      </trkpt>
      <trkpt lat="44.12181" lon="2.25492">
        <ele>367</ele>
        <time>2022-09-11T09:31:43.886Z</time>
      </trkpt>
      <trkpt lat="44.12182" lon="2.25492">
        <ele>367</ele>
        <time>2022-09-11T09:31:44.886Z</time>
      </trkpt>
      <trkpt lat="44.12182" lon="2.25492">
        <ele>366</ele>
        <time>2022-09-11T09:31:45.886Z</time>
      </trkpt>
      <trkpt lat="44.12183" lon="2.25492">
        <ele>366</ele>
        <time>2022-09-11T09:31:46.886Z</time>
      </trkpt>
      <trkpt lat="44.12184" lon="2.25493">
        <ele>366</ele>
        <time>2022-09-11T09:31:47.886Z</time>
      </trkpt>
      <trkpt lat="44.12185" lon="2.25493">
        <ele>366</ele>
        <time>2022-09-11T09:31:48.886Z</time>
      </trkpt>
      <trkpt lat="44.12185" lon="2.25493">
        <ele>366</ele>
        <time>2022-09-11T09:31:49.886Z</time>
      </trkpt>
      <trkpt lat="44.12186" lon="2.25493">
        <ele>366</ele>
        <time>2022-09-11T09:31:50.886Z</time>
      </trkpt>
      <trkpt lat="44.12186" lon="2.25493">
        <ele>365</ele>
        <time>2022-09-11T09:31:51.886Z</time>
      </trkpt>
      <trkpt lat="44.12187" lon="2.25492">
        <ele>365</ele>
        <time>2022-09-11T09:31:52.886Z</time>
      </trkpt>
      <trkpt lat="44.12188" lon="2.25492">
        <ele>365</ele>
        <time>2022-09-11T09:31:53.886Z</time>
      </trkpt>
      <trkpt lat="44.12189" lon="2.25492">
        <ele>365</ele>
        <time>2022-09-11T09:31:54.886Z</time>
      </trkpt>
      <trkpt lat="44.1219" lon="2.25492">
        <ele>365</ele>
        <time>2022-09-11T09:31:55.886Z</time>
      </trkpt>
      <trkpt lat="44.1219" lon="2.25492">
        <ele>364</ele>
        <time>2022-09-11T09:31:56.886Z</time>
      </trkpt>
      <trkpt lat="44.12191" lon="2.25493">
        <ele>364</ele>
        <time>2022-09-11T09:31:57.886Z</time>
      </trkpt>
      <trkpt lat="44.12191" lon="2.25493">
        <ele>364</ele>
        <time>2022-09-11T09:31:58.886Z</time>
      </trkpt>
      <trkpt lat="44.12192" lon="2.25493">
        <ele>364</ele>
        <time>2022-09-11T09:31:59.886Z</time>
      </trkpt>
      <trkpt lat="44.12193" lon="2.25493">
        <ele>364</ele>
        <time>2022-09-11T09:32:00.886Z</time>
      </trkpt>
      <trkpt lat="44.12193" lon="2.25493">
        <ele>363</ele>
        <time>2022-09-11T09:32:01.886Z</time>
      </trkpt>
      <trkpt lat="44.12194" lon="2.25493">
        <ele>363</ele>
        <time>2022-09-11T09:32:02.886Z</time>
      </trkpt>
      <trkpt lat="44.12195" lon="2.25494">
        <ele>363</ele>
        <time>2022-09-11T09:32:03.886Z</time>
      </trkpt>
      <trkpt lat="44.12195" lon="2.25494">
        <ele>363</ele>
        <time>2022-09-11T09:32:04.886Z</time>
      </trkpt>
      <trkpt lat="44.12196" lon="2.25494">
        <ele>363</ele>
        <time>2022-09-11T09:32:05.886Z</time>
      </trkpt>
      <trkpt lat="44.12197" lon="2.25495">
        <ele>362</ele>
        <time>2022-09-11T09:32:06.886Z</time>
      </trkpt>
      <trkpt lat="44.12199" lon="2.25496">
        <ele>362</ele>
        <time>2022-09-11T09:32:07.886Z</time>
      </trkpt>
      <trkpt lat="44.122" lon="2.25496">
        <ele>362</ele>
        <time>2022-09-11T09:32:08.886Z</time>
      </trkpt>
      <trkpt lat="44.12201" lon="2.25497">
        <ele>362</ele>
        <time>2022-09-11T09:32:09.886Z</time>
      </trkpt>
      <trkpt lat="44.12201" lon="2.25498">
        <ele>361</ele>
        <time>2022-09-11T09:32:10.886Z</time>
      </trkpt>
      <trkpt lat="44.12202" lon="2.25498">
        <ele>361</ele>
        <time>2022-09-11T09:32:11.886Z</time>
      </trkpt>
      <trkpt lat="44.12203" lon="2.25499">
        <ele>361</ele>
        <time>2022-09-11T09:32:12.886Z</time>
      </trkpt>
      <trkpt lat="44.12204" lon="2.25499">
        <ele>361</ele>
        <time>2022-09-11T09:32:13.886Z</time>
      </trkpt>
      <trkpt lat="44.12205" lon="2.255">
        <ele>361</ele>
        <time>2022-09-11T09:32:14.886Z</time>
      </trkpt>
      <trkpt lat="44.12206" lon="2.25501">
        <ele>361</ele>
        <time>2022-09-11T09:32:15.886Z</time>
      </trkpt>
      <trkpt lat="44.12206" lon="2.25502">
        <ele>361</ele>
        <time>2022-09-11T09:32:16.886Z</time>
      </trkpt>
      <trkpt lat="44.12207" lon="2.25503">
        <ele>361</ele>
        <time>2022-09-11T09:32:17.886Z</time>
      </trkpt>
      <trkpt lat="44.12208" lon="2.25504">
        <ele>360</ele>
        <time>2022-09-11T09:32:18.886Z</time>
      </trkpt>
      <trkpt lat="44.12208" lon="2.25505">
        <ele>360</ele>
        <time>2022-09-11T09:32:19.886Z</time>
      </trkpt>
      <trkpt lat="44.12209" lon="2.25505">
        <ele>360</ele>
        <time>2022-09-11T09:32:20.886Z</time>
      </trkpt>
      <trkpt lat="44.1221" lon="2.25506">
        <ele>360</ele>
        <time>2022-09-11T09:32:21.886Z</time>
      </trkpt>
      <trkpt lat="44.1221" lon="2.25507">
        <ele>360</ele>
        <time>2022-09-11T09:32:22.886Z</time>
      </trkpt>
      <trkpt lat="44.12211" lon="2.25508">
        <ele>360</ele>
        <time>2022-09-11T09:32:23.886Z</time>
      </trkpt>
      <trkpt lat="44.12211" lon="2.25508">
        <ele>359</ele>
        <time>2022-09-11T09:32:24.886Z</time>
      </trkpt>
      <trkpt lat="44.12212" lon="2.25509">
        <ele>359</ele>
        <time>2022-09-11T09:32:25.886Z</time>
      </trkpt>
      <trkpt lat="44.12213" lon="2.2551">
        <ele>359</ele>
        <time>2022-09-11T09:32:26.886Z</time>
      </trkpt>
      <trkpt lat="44.12213" lon="2.25511">
        <ele>359</ele>
        <time>2022-09-11T09:32:27.886Z</time>
      </trkpt>
      <trkpt lat="44.12214" lon="2.25512">
        <ele>359</ele>
        <time>2022-09-11T09:32:28.886Z</time>
      </trkpt>
      <trkpt lat="44.12215" lon="2.25513">
        <ele>359</ele>
        <time>2022-09-11T09:32:29.886Z</time>
      </trkpt>
      <trkpt lat="44.12215" lon="2.25514">
        <ele>359</ele>
        <time>2022-09-11T09:32:30.886Z</time>
      </trkpt>
      <trkpt lat="44.12216" lon="2.25514">
        <ele>358</ele>
        <time>2022-09-11T09:32:31.886Z</time>
      </trkpt>
      <trkpt lat="44.12217" lon="2.25516">
        <ele>358</ele>
        <time>2022-09-11T09:32:32.886Z</time>
      </trkpt>
      <trkpt lat="44.12217" lon="2.25517">
        <ele>358</ele>
        <time>2022-09-11T09:32:33.886Z</time>
      </trkpt>
      <trkpt lat="44.12217" lon="2.25518">
        <ele>358</ele>
        <time>2022-09-11T09:32:34.886Z</time>
      </trkpt>
      <trkpt lat="44.12218" lon="2.2552">
        <ele>358</ele>
        <time>2022-09-11T09:32:35.886Z</time>
      </trkpt>
      <trkpt lat="44.12218" lon="2.25521">
        <ele>358</ele>
        <time>2022-09-11T09:32:36.886Z</time>
      </trkpt>
      <trkpt lat="44.12218" lon="2.25522">
        <ele>358</ele>
        <time>2022-09-11T09:32:37.886Z</time>
      </trkpt>
      <trkpt lat="44.12219" lon="2.25523">
        <ele>358</ele>
        <time>2022-09-11T09:32:38.886Z</time>
      </trkpt>
      <trkpt lat="44.12219" lon="2.25525">
        <ele>358</ele>
        <time>2022-09-11T09:32:39.886Z</time>
      </trkpt>
      <trkpt lat="44.1222" lon="2.25526">
        <ele>358</ele>
        <time>2022-09-11T09:32:40.886Z</time>
      </trkpt>
      <trkpt lat="44.1222" lon="2.25527">
        <ele>358</ele>
        <time>2022-09-11T09:32:41.886Z</time>
      </trkpt>
      <trkpt lat="44.1222" lon="2.25528">
        <ele>358</ele>
        <time>2022-09-11T09:32:42.886Z</time>
      </trkpt>
      <trkpt lat="44.1222" lon="2.25529">
        <ele>358</ele>
        <time>2022-09-11T09:32:43.886Z</time>
      </trkpt>
      <trkpt lat="44.1222" lon="2.2553">
        <ele>358</ele>
        <time>2022-09-11T09:32:44.886Z</time>
      </trkpt>
      <trkpt lat="44.1222" lon="2.25531">
        <ele>358</ele>
        <time>2022-09-11T09:32:45.886Z</time>
      </trkpt>
      <trkpt lat="44.12221" lon="2.25532">
        <ele>358</ele>
        <time>2022-09-11T09:32:46.886Z</time>
      </trkpt>
      <trkpt lat="44.12221" lon="2.25533">
        <ele>357</ele>
        <time>2022-09-11T09:32:47.886Z</time>
      </trkpt>
      <trkpt lat="44.12221" lon="2.25534">
        <ele>357</ele>
        <time>2022-09-11T09:32:48.886Z</time>
      </trkpt>
      <trkpt lat="44.12221" lon="2.25535">
        <ele>357</ele>
        <time>2022-09-11T09:32:49.886Z</time>
      </trkpt>
      <trkpt lat="44.12221" lon="2.25537">
        <ele>357</ele>
        <time>2022-09-11T09:32:50.886Z</time>
      </trkpt>
      <trkpt lat="44.12222" lon="2.25538">
        <ele>357</ele>
        <time>2022-09-11T09:32:51.886Z</time>
      </trkpt>
      <trkpt lat="44.12222" lon="2.25539">
        <ele>357</ele>
        <time>2022-09-11T09:32:52.886Z</time>
      </trkpt>
      <trkpt lat="44.12222" lon="2.2554">
        <ele>357</ele>
        <time>2022-09-11T09:32:53.886Z</time>
      </trkpt>
      <trkpt lat="44.12222" lon="2.25541">
        <ele>357</ele>
        <time>2022-09-11T09:32:54.886Z</time>
      </trkpt>
      <trkpt lat="44.12222" lon="2.25543">
        <ele>357</ele>
        <time>2022-09-11T09:32:55.886Z</time>
      </trkpt>
      <trkpt lat="44.12222" lon="2.25544">
        <ele>357</ele>
        <time>2022-09-11T09:32:56.886Z</time>
      </trkpt>
      <trkpt lat="44.12223" lon="2.25545">
        <ele>357</ele>
        <time>2022-09-11T09:32:57.886Z</time>
      </trkpt>
      <trkpt lat="44.12223" lon="2.25546">
        <ele>357</ele>
        <time>2022-09-11T09:32:58.886Z</time>
      </trkpt>
      <trkpt lat="44.12223" lon="2.25547">
        <ele>357</ele>
        <time>2022-09-11T09:32:59.886Z</time>
      </trkpt>
      <trkpt lat="44.12223" lon="2.25547">
        <ele>357</ele>
        <time>2022-09-11T09:33:00.886Z</time>
      </trkpt>
      <trkpt lat="44.12224" lon="2.25549">
        <ele>356</ele>
        <time>2022-09-11T09:33:01.886Z</time>
      </trkpt>
      <trkpt lat="44.12224" lon="2.2555">
        <ele>356</ele>
        <time>2022-09-11T09:33:02.886Z</time>
      </trkpt>
      <trkpt lat="44.12224" lon="2.25551">
        <ele>356</ele>
        <time>2022-09-11T09:33:03.886Z</time>
      </trkpt>
      <trkpt lat="44.12225" lon="2.25553">
        <ele>356</ele>
        <time>2022-09-11T09:33:04.886Z</time>
      </trkpt>
      <trkpt lat="44.12225" lon="2.25554">
        <ele>356</ele>
        <time>2022-09-11T09:33:05.886Z</time>
      </trkpt>
      <trkpt lat="44.12225" lon="2.25555">
        <ele>356</ele>
        <time>2022-09-11T09:33:06.886Z</time>
      </trkpt>
      <trkpt lat="44.12225" lon="2.25557">
        <ele>356</ele>
        <time>2022-09-11T09:33:07.886Z</time>
      </trkpt>
      <trkpt lat="44.12224" lon="2.25558">
        <ele>356</ele>
        <time>2022-09-11T09:33:08.886Z</time>
      </trkpt>
      <trkpt lat="44.12224" lon="2.2556">
        <ele>356</ele>
        <time>2022-09-11T09:33:09.886Z</time>
      </trkpt>
      <trkpt lat="44.12224" lon="2.25561">
        <ele>356</ele>
        <time>2022-09-11T09:33:10.886Z</time>
      </trkpt>
      <trkpt lat="44.12224" lon="2.25563">
        <ele>356</ele>
        <time>2022-09-11T09:33:11.886Z</time>
      </trkpt>
      <trkpt lat="44.12224" lon="2.25564">
        <ele>356</ele>
        <time>2022-09-11T09:33:12.886Z</time>
      </trkpt>
      <trkpt lat="44.12224" lon="2.25565">
        <ele>356</ele>
        <time>2022-09-11T09:33:13.886Z</time>
      </trkpt>
      <trkpt lat="44.12224" lon="2.25567">
        <ele>356</ele>
        <time>2022-09-11T09:33:14.886Z</time>
      </trkpt>
      <trkpt lat="44.12224" lon="2.25568">
        <ele>356</ele>
        <time>2022-09-11T09:33:15.886Z</time>
      </trkpt>
      <trkpt lat="44.12224" lon="2.25569">
        <ele>356</ele>
        <time>2022-09-11T09:33:16.886Z</time>
      </trkpt>
      <trkpt lat="44.12224" lon="2.2557">
        <ele>356</ele>
        <time>2022-09-11T09:33:17.886Z</time>
      </trkpt>
      <trkpt lat="44.12224" lon="2.25571">
        <ele>355</ele>
        <time>2022-09-11T09:33:18.886Z</time>
      </trkpt>
      <trkpt lat="44.12224" lon="2.25572">
        <ele>355</ele>
        <time>2022-09-11T09:33:19.886Z</time>
      </trkpt>
      <trkpt lat="44.12224" lon="2.25573">
        <ele>355</ele>
        <time>2022-09-11T09:33:20.886Z</time>
      </trkpt>
      <trkpt lat="44.12224" lon="2.25573">
        <ele>355</ele>
        <time>2022-09-11T09:33:21.886Z</time>
      </trkpt>
      <trkpt lat="44.12225" lon="2.25574">
        <ele>355</ele>
        <time>2022-09-11T09:33:22.886Z</time>
      </trkpt>
      <trkpt lat="44.12225" lon="2.25575">
        <ele>355</ele>
        <time>2022-09-11T09:33:23.886Z</time>
      </trkpt>
      <trkpt lat="44.12225" lon="2.25576">
        <ele>355</ele>
        <time>2022-09-11T09:33:24.886Z</time>
      </trkpt>
      <trkpt lat="44.12226" lon="2.25576">
        <ele>355</ele>
        <time>2022-09-11T09:33:25.886Z</time>
      </trkpt>
      <trkpt lat="44.12226" lon="2.25577">
        <ele>354</ele>
        <time>2022-09-11T09:33:26.886Z</time>
      </trkpt>
      <trkpt lat="44.12226" lon="2.25578">
        <ele>354</ele>
        <time>2022-09-11T09:33:27.886Z</time>
      </trkpt>
      <trkpt lat="44.12227" lon="2.25579">
        <ele>354</ele>
        <time>2022-09-11T09:33:28.886Z</time>
      </trkpt>
      <trkpt lat="44.12227" lon="2.25579">
        <ele>354</ele>
        <time>2022-09-11T09:33:29.886Z</time>
      </trkpt>
      <trkpt lat="44.12227" lon="2.2558">
        <ele>354</ele>
        <time>2022-09-11T09:33:30.886Z</time>
      </trkpt>
      <trkpt lat="44.12228" lon="2.25581">
        <ele>354</ele>
        <time>2022-09-11T09:33:31.886Z</time>
      </trkpt>
      <trkpt lat="44.12228" lon="2.25582">
        <ele>354</ele>
        <time>2022-09-11T09:33:32.886Z</time>
      </trkpt>
      <trkpt lat="44.12228" lon="2.25584">
        <ele>353</ele>
        <time>2022-09-11T09:33:33.886Z</time>
      </trkpt>
      <trkpt lat="44.12228" lon="2.25584">
        <ele>353</ele>
        <time>2022-09-11T09:33:34.886Z</time>
      </trkpt>
      <trkpt lat="44.12228" lon="2.25585">
        <ele>353</ele>
        <time>2022-09-11T09:33:35.886Z</time>
      </trkpt>
      <trkpt lat="44.12227" lon="2.25586">
        <ele>353</ele>
        <time>2022-09-11T09:33:36.886Z</time>
      </trkpt>
      <trkpt lat="44.12227" lon="2.25586">
        <ele>353</ele>
        <time>2022-09-11T09:33:37.886Z</time>
      </trkpt>
      <trkpt lat="44.12227" lon="2.25587">
        <ele>353</ele>
        <time>2022-09-11T09:33:38.886Z</time>
      </trkpt>
      <trkpt lat="44.12228" lon="2.25588">
        <ele>353</ele>
        <time>2022-09-11T09:33:39.886Z</time>
      </trkpt>
      <trkpt lat="44.12228" lon="2.25589">
        <ele>352</ele>
        <time>2022-09-11T09:33:40.886Z</time>
      </trkpt>
      <trkpt lat="44.12228" lon="2.25589">
        <ele>352</ele>
        <time>2022-09-11T09:33:41.886Z</time>
      </trkpt>
      <trkpt lat="44.12228" lon="2.2559">
        <ele>352</ele>
        <time>2022-09-11T09:33:42.886Z</time>
      </trkpt>
      <trkpt lat="44.12228" lon="2.25591">
        <ele>352</ele>
        <time>2022-09-11T09:33:43.886Z</time>
      </trkpt>
      <trkpt lat="44.12228" lon="2.25591">
        <ele>352</ele>
        <time>2022-09-11T09:33:44.886Z</time>
      </trkpt>
      <trkpt lat="44.12228" lon="2.25594">
        <ele>351</ele>
        <time>2022-09-11T09:33:53.892Z</time>
      </trkpt>
      <trkpt lat="44.12228" lon="2.25594">
        <ele>350</ele>
        <time>2022-09-11T09:33:54.892Z</time>
      </trkpt>
      <trkpt lat="44.12228" lon="2.25595">
        <ele>350</ele>
        <time>2022-09-11T09:33:55.892Z</time>
      </trkpt>
      <trkpt lat="44.12228" lon="2.25596">
        <ele>350</ele>
        <time>2022-09-11T09:33:56.892Z</time>
      </trkpt>
      <trkpt lat="44.12227" lon="2.25596">
        <ele>350</ele>
        <time>2022-09-11T09:33:57.892Z</time>
      </trkpt>
      <trkpt lat="44.12227" lon="2.25598">
        <ele>349</ele>
        <time>2022-09-11T09:34:01.147Z</time>
      </trkpt>
      <trkpt lat="44.12227" lon="2.25599">
        <ele>349</ele>
        <time>2022-09-11T09:34:02.147Z</time>
      </trkpt>
      <trkpt lat="44.12226" lon="2.25599">
        <ele>349</ele>
        <time>2022-09-11T09:34:03.147Z</time>
      </trkpt>
      <trkpt lat="44.12226" lon="2.25601">
        <ele>348</ele>
        <time>2022-09-11T09:34:06.404Z</time>
      </trkpt>
      <trkpt lat="44.12226" lon="2.25602">
        <ele>348</ele>
        <time>2022-09-11T09:34:07.404Z</time>
      </trkpt>
      <trkpt lat="44.12224" lon="2.25606">
        <ele>347</ele>
        <time>2022-09-11T09:34:16.411Z</time>
      </trkpt>
      <trkpt lat="44.12223" lon="2.25607">
        <ele>347</ele>
        <time>2022-09-11T09:34:17.411Z</time>
      </trkpt>
      <trkpt lat="44.12223" lon="2.25607">
        <ele>347</ele>
        <time>2022-09-11T09:34:18.411Z</time>
      </trkpt>
      <trkpt lat="44.12223" lon="2.25608">
        <ele>347</ele>
        <time>2022-09-11T09:34:19.411Z</time>
      </trkpt>
      <trkpt lat="44.12223" lon="2.25609">
        <ele>347</ele>
        <time>2022-09-11T09:34:20.411Z</time>
      </trkpt>
      <trkpt lat="44.12222" lon="2.25609">
        <ele>346</ele>
        <time>2022-09-11T09:34:21.411Z</time>
      </trkpt>
      <trkpt lat="44.12222" lon="2.2561">
        <ele>346</ele>
        <time>2022-09-11T09:34:22.411Z</time>
      </trkpt>
      <trkpt lat="44.12222" lon="2.25611">
        <ele>346</ele>
        <time>2022-09-11T09:34:23.411Z</time>
      </trkpt>
      <trkpt lat="44.12221" lon="2.25612">
        <ele>346</ele>
        <time>2022-09-11T09:34:24.411Z</time>
      </trkpt>
      <trkpt lat="44.12221" lon="2.25612">
        <ele>346</ele>
        <time>2022-09-11T09:34:25.411Z</time>
      </trkpt>
      <trkpt lat="44.12221" lon="2.25613">
        <ele>346</ele>
        <time>2022-09-11T09:34:26.411Z</time>
      </trkpt>
      <trkpt lat="44.12221" lon="2.25614">
        <ele>346</ele>
        <time>2022-09-11T09:34:27.411Z</time>
      </trkpt>
      <trkpt lat="44.1222" lon="2.25614">
        <ele>346</ele>
        <time>2022-09-11T09:34:28.411Z</time>
      </trkpt>
      <trkpt lat="44.1222" lon="2.25615">
        <ele>346</ele>
        <time>2022-09-11T09:34:29.411Z</time>
      </trkpt>
      <trkpt lat="44.12221" lon="2.25616">
        <ele>346</ele>
        <time>2022-09-11T09:34:30.411Z</time>
      </trkpt>
      <trkpt lat="44.1222" lon="2.25617">
        <ele>346</ele>
        <time>2022-09-11T09:34:31.411Z</time>
      </trkpt>
      <trkpt lat="44.1222" lon="2.25618">
        <ele>346</ele>
        <time>2022-09-11T09:34:32.411Z</time>
      </trkpt>
      <trkpt lat="44.1222" lon="2.25619">
        <ele>346</ele>
        <time>2022-09-11T09:34:33.411Z</time>
      </trkpt>
      <trkpt lat="44.1222" lon="2.2562">
        <ele>346</ele>
        <time>2022-09-11T09:34:34.411Z</time>
      </trkpt>
      <trkpt lat="44.1222" lon="2.25621">
        <ele>346</ele>
        <time>2022-09-11T09:34:35.411Z</time>
      </trkpt>
      <trkpt lat="44.1222" lon="2.25622">
        <ele>346</ele>
        <time>2022-09-11T09:34:36.411Z</time>
      </trkpt>
      <trkpt lat="44.1222" lon="2.25623">
        <ele>346</ele>
        <time>2022-09-11T09:34:37.411Z</time>
      </trkpt>
      <trkpt lat="44.1222" lon="2.25624">
        <ele>346</ele>
        <time>2022-09-11T09:34:38.411Z</time>
      </trkpt>
      <trkpt lat="44.12219" lon="2.25625">
        <ele>346</ele>
        <time>2022-09-11T09:34:39.411Z</time>
      </trkpt>
      <trkpt lat="44.12219" lon="2.25626">
        <ele>346</ele>
        <time>2022-09-11T09:34:40.411Z</time>
      </trkpt>
      <trkpt lat="44.12219" lon="2.25627">
        <ele>346</ele>
        <time>2022-09-11T09:34:41.411Z</time>
      </trkpt>
      <trkpt lat="44.12219" lon="2.25628">
        <ele>346</ele>
        <time>2022-09-11T09:34:42.411Z</time>
      </trkpt>
      <trkpt lat="44.12219" lon="2.25629">
        <ele>346</ele>
        <time>2022-09-11T09:34:43.411Z</time>
      </trkpt>
      <trkpt lat="44.12218" lon="2.2563">
        <ele>346</ele>
        <time>2022-09-11T09:34:44.411Z</time>
      </trkpt>
      <trkpt lat="44.12218" lon="2.25631">
        <ele>346</ele>
        <time>2022-09-11T09:34:45.411Z</time>
      </trkpt>
      <trkpt lat="44.12218" lon="2.25631">
        <ele>346</ele>
        <time>2022-09-11T09:34:46.411Z</time>
      </trkpt>
      <trkpt lat="44.1222" lon="2.25636">
        <ele>346</ele>
        <time>2022-09-11T09:34:54.419Z</time>
      </trkpt>
      <trkpt lat="44.1222" lon="2.25638">
        <ele>346</ele>
        <time>2022-09-11T09:34:55.419Z</time>
      </trkpt>
      <trkpt lat="44.1222" lon="2.25639">
        <ele>346</ele>
        <time>2022-09-11T09:34:56.419Z</time>
      </trkpt>
      <trkpt lat="44.1222" lon="2.2564">
        <ele>346</ele>
        <time>2022-09-11T09:34:57.419Z</time>
      </trkpt>
      <trkpt lat="44.1222" lon="2.25642">
        <ele>346</ele>
        <time>2022-09-11T09:34:58.419Z</time>
      </trkpt>
      <trkpt lat="44.1222" lon="2.25643">
        <ele>346</ele>
        <time>2022-09-11T09:34:59.419Z</time>
      </trkpt>
      <trkpt lat="44.1222" lon="2.25644">
        <ele>346</ele>
        <time>2022-09-11T09:35:00.419Z</time>
      </trkpt>
      <trkpt lat="44.1222" lon="2.25645">
        <ele>346</ele>
        <time>2022-09-11T09:35:01.419Z</time>
      </trkpt>
      <trkpt lat="44.1222" lon="2.25646">
        <ele>346</ele>
        <time>2022-09-11T09:35:02.419Z</time>
      </trkpt>
      <trkpt lat="44.1222" lon="2.25647">
        <ele>346</ele>
        <time>2022-09-11T09:35:03.419Z</time>
      </trkpt>
      <trkpt lat="44.1222" lon="2.25648">
        <ele>346</ele>
        <time>2022-09-11T09:35:04.419Z</time>
      </trkpt>
      <trkpt lat="44.1222" lon="2.25649">
        <ele>346</ele>
        <time>2022-09-11T09:35:05.419Z</time>
      </trkpt>
      <trkpt lat="44.12219" lon="2.2565">
        <ele>345</ele>
        <time>2022-09-11T09:35:06.419Z</time>
      </trkpt>
      <trkpt lat="44.12219" lon="2.25651">
        <ele>345</ele>
        <time>2022-09-11T09:35:07.419Z</time>
      </trkpt>
      <trkpt lat="44.12219" lon="2.25652">
        <ele>345</ele>
        <time>2022-09-11T09:35:08.419Z</time>
      </trkpt>
      <trkpt lat="44.12219" lon="2.25653">
        <ele>345</ele>
        <time>2022-09-11T09:35:09.419Z</time>
      </trkpt>
      <trkpt lat="44.12219" lon="2.25654">
        <ele>345</ele>
        <time>2022-09-11T09:35:10.419Z</time>
      </trkpt>
      <trkpt lat="44.12219" lon="2.25655">
        <ele>345</ele>
        <time>2022-09-11T09:35:11.419Z</time>
      </trkpt>
      <trkpt lat="44.12219" lon="2.25656">
        <ele>345</ele>
        <time>2022-09-11T09:35:12.419Z</time>
      </trkpt>
      <trkpt lat="44.12219" lon="2.25657">
        <ele>345</ele>
        <time>2022-09-11T09:35:13.419Z</time>
      </trkpt>
      <trkpt lat="44.12219" lon="2.25658">
        <ele>345</ele>
        <time>2022-09-11T09:35:14.419Z</time>
      </trkpt>
      <trkpt lat="44.12218" lon="2.25659">
        <ele>345</ele>
        <time>2022-09-11T09:35:15.419Z</time>
      </trkpt>
      <trkpt lat="44.12218" lon="2.2566">
        <ele>345</ele>
        <time>2022-09-11T09:35:16.419Z</time>
      </trkpt>
      <trkpt lat="44.12218" lon="2.25661">
        <ele>345</ele>
        <time>2022-09-11T09:35:17.419Z</time>
      </trkpt>
      <trkpt lat="44.12218" lon="2.25666">
        <ele>344</ele>
        <time>2022-09-11T09:35:26.425Z</time>
      </trkpt>
      <trkpt lat="44.12218" lon="2.25667">
        <ele>344</ele>
        <time>2022-09-11T09:35:27.425Z</time>
      </trkpt>
      <trkpt lat="44.12219" lon="2.25668">
        <ele>344</ele>
        <time>2022-09-11T09:35:28.425Z</time>
      </trkpt>
      <trkpt lat="44.12218" lon="2.2567">
        <ele>344</ele>
        <time>2022-09-11T09:35:29.425Z</time>
      </trkpt>
      <trkpt lat="44.12218" lon="2.25671">
        <ele>344</ele>
        <time>2022-09-11T09:35:30.425Z</time>
      </trkpt>
      <trkpt lat="44.12218" lon="2.25673">
        <ele>344</ele>
        <time>2022-09-11T09:35:31.425Z</time>
      </trkpt>
      <trkpt lat="44.12218" lon="2.25674">
        <ele>344</ele>
        <time>2022-09-11T09:35:32.425Z</time>
      </trkpt>
      <trkpt lat="44.12218" lon="2.25675">
        <ele>343</ele>
        <time>2022-09-11T09:35:33.425Z</time>
      </trkpt>
      <trkpt lat="44.12218" lon="2.25676">
        <ele>343</ele>
        <time>2022-09-11T09:35:34.425Z</time>
      </trkpt>
      <trkpt lat="44.12218" lon="2.25677">
        <ele>343</ele>
        <time>2022-09-11T09:35:35.425Z</time>
      </trkpt>
      <trkpt lat="44.12218" lon="2.25679">
        <ele>343</ele>
        <time>2022-09-11T09:35:36.425Z</time>
      </trkpt>
      <trkpt lat="44.12218" lon="2.2568">
        <ele>343</ele>
        <time>2022-09-11T09:35:37.425Z</time>
      </trkpt>
      <trkpt lat="44.12218" lon="2.25681">
        <ele>343</ele>
        <time>2022-09-11T09:35:38.425Z</time>
      </trkpt>
      <trkpt lat="44.12218" lon="2.25682">
        <ele>343</ele>
        <time>2022-09-11T09:35:39.425Z</time>
      </trkpt>
      <trkpt lat="44.12218" lon="2.25683">
        <ele>343</ele>
        <time>2022-09-11T09:35:40.425Z</time>
      </trkpt>
      <trkpt lat="44.12218" lon="2.25684">
        <ele>343</ele>
        <time>2022-09-11T09:35:41.425Z</time>
      </trkpt>
      <trkpt lat="44.12218" lon="2.25684">
        <ele>343</ele>
        <time>2022-09-11T09:35:42.425Z</time>
      </trkpt>
      <trkpt lat="44.12219" lon="2.25685">
        <ele>343</ele>
        <time>2022-09-11T09:35:43.425Z</time>
      </trkpt>
      <trkpt lat="44.12219" lon="2.25686">
        <ele>343</ele>
        <time>2022-09-11T09:35:44.425Z</time>
      </trkpt>
      <trkpt lat="44.12219" lon="2.25688">
        <ele>343</ele>
        <time>2022-09-11T09:35:45.425Z</time>
      </trkpt>
      <trkpt lat="44.1222" lon="2.25689">
        <ele>343</ele>
        <time>2022-09-11T09:35:46.425Z</time>
      </trkpt>
      <trkpt lat="44.1222" lon="2.2569">
        <ele>343</ele>
        <time>2022-09-11T09:35:47.425Z</time>
      </trkpt>
      <trkpt lat="44.1222" lon="2.25692">
        <ele>343</ele>
        <time>2022-09-11T09:35:48.425Z</time>
      </trkpt>
      <trkpt lat="44.1222" lon="2.25693">
        <ele>343</ele>
        <time>2022-09-11T09:35:49.425Z</time>
      </trkpt>
      <trkpt lat="44.1222" lon="2.25695">
        <ele>342</ele>
        <time>2022-09-11T09:35:50.425Z</time>
      </trkpt>
      <trkpt lat="44.1222" lon="2.25696">
        <ele>342</ele>
        <time>2022-09-11T09:35:51.425Z</time>
      </trkpt>
      <trkpt lat="44.1222" lon="2.25697">
        <ele>342</ele>
        <time>2022-09-11T09:35:52.425Z</time>
      </trkpt>
      <trkpt lat="44.1222" lon="2.25698">
        <ele>342</ele>
        <time>2022-09-11T09:35:53.425Z</time>
      </trkpt>
      <trkpt lat="44.1222" lon="2.25699">
        <ele>342</ele>
        <time>2022-09-11T09:35:54.425Z</time>
      </trkpt>
      <trkpt lat="44.1222" lon="2.257">
        <ele>342</ele>
        <time>2022-09-11T09:35:55.425Z</time>
      </trkpt>
      <trkpt lat="44.1222" lon="2.25701">
        <ele>342</ele>
        <time>2022-09-11T09:35:56.425Z</time>
      </trkpt>
      <trkpt lat="44.1222" lon="2.25702">
        <ele>341</ele>
        <time>2022-09-11T09:35:57.425Z</time>
      </trkpt>
      <trkpt lat="44.12221" lon="2.25703">
        <ele>341</ele>
        <time>2022-09-11T09:35:58.425Z</time>
      </trkpt>
      <trkpt lat="44.12221" lon="2.25704">
        <ele>341</ele>
        <time>2022-09-11T09:35:59.425Z</time>
      </trkpt>
      <trkpt lat="44.12222" lon="2.25706">
        <ele>341</ele>
        <time>2022-09-11T09:36:00.425Z</time>
      </trkpt>
      <trkpt lat="44.12222" lon="2.25707">
        <ele>341</ele>
        <time>2022-09-11T09:36:01.425Z</time>
      </trkpt>
      <trkpt lat="44.12222" lon="2.25708">
        <ele>341</ele>
        <time>2022-09-11T09:36:02.425Z</time>
      </trkpt>
      <trkpt lat="44.12222" lon="2.25709">
        <ele>341</ele>
        <time>2022-09-11T09:36:03.425Z</time>
      </trkpt>
      <trkpt lat="44.12222" lon="2.2571">
        <ele>341</ele>
        <time>2022-09-11T09:36:04.425Z</time>
      </trkpt>
      <trkpt lat="44.12221" lon="2.25711">
        <ele>341</ele>
        <time>2022-09-11T09:36:05.425Z</time>
      </trkpt>
      <trkpt lat="44.12221" lon="2.25713">
        <ele>341</ele>
        <time>2022-09-11T09:36:06.425Z</time>
      </trkpt>
      <trkpt lat="44.1222" lon="2.25713">
        <ele>341</ele>
        <time>2022-09-11T09:36:07.425Z</time>
      </trkpt>
      <trkpt lat="44.1222" lon="2.25715">
        <ele>341</ele>
        <time>2022-09-11T09:36:08.425Z</time>
      </trkpt>
      <trkpt lat="44.1222" lon="2.25716">
        <ele>341</ele>
        <time>2022-09-11T09:36:09.425Z</time>
      </trkpt>
      <trkpt lat="44.1222" lon="2.25717">
        <ele>341</ele>
        <time>2022-09-11T09:36:10.425Z</time>
      </trkpt>
      <trkpt lat="44.1222" lon="2.25718">
        <ele>341</ele>
        <time>2022-09-11T09:36:11.425Z</time>
      </trkpt>
      <trkpt lat="44.12219" lon="2.25719">
        <ele>341</ele>
        <time>2022-09-11T09:36:12.425Z</time>
      </trkpt>
      <trkpt lat="44.12219" lon="2.2572">
        <ele>341</ele>
        <time>2022-09-11T09:36:13.425Z</time>
      </trkpt>
      <trkpt lat="44.12219" lon="2.25721">
        <ele>341</ele>
        <time>2022-09-11T09:36:14.425Z</time>
      </trkpt>
      <trkpt lat="44.12219" lon="2.25722">
        <ele>341</ele>
        <time>2022-09-11T09:36:15.425Z</time>
      </trkpt>
      <trkpt lat="44.12219" lon="2.25723">
        <ele>341</ele>
        <time>2022-09-11T09:36:16.425Z</time>
      </trkpt>
      <trkpt lat="44.12218" lon="2.25724">
        <ele>341</ele>
        <time>2022-09-11T09:36:17.425Z</time>
      </trkpt>
      <trkpt lat="44.12218" lon="2.25725">
        <ele>341</ele>
        <time>2022-09-11T09:36:18.425Z</time>
      </trkpt>
      <trkpt lat="44.12217" lon="2.25726">
        <ele>341</ele>
        <time>2022-09-11T09:36:19.425Z</time>
      </trkpt>
      <trkpt lat="44.12217" lon="2.25727">
        <ele>341</ele>
        <time>2022-09-11T09:36:20.425Z</time>
      </trkpt>
      <trkpt lat="44.12217" lon="2.25728">
        <ele>341</ele>
        <time>2022-09-11T09:36:21.425Z</time>
      </trkpt>
      <trkpt lat="44.12217" lon="2.2573">
        <ele>341</ele>
        <time>2022-09-11T09:36:22.425Z</time>
      </trkpt>
      <trkpt lat="44.12217" lon="2.25731">
        <ele>341</ele>
        <time>2022-09-11T09:36:23.425Z</time>
      </trkpt>
      <trkpt lat="44.12216" lon="2.25733">
        <ele>341</ele>
        <time>2022-09-11T09:36:24.425Z</time>
      </trkpt>
      <trkpt lat="44.12216" lon="2.25735">
        <ele>341</ele>
        <time>2022-09-11T09:36:25.425Z</time>
      </trkpt>
      <trkpt lat="44.12216" lon="2.25736">
        <ele>340</ele>
        <time>2022-09-11T09:36:26.425Z</time>
      </trkpt>
      <trkpt lat="44.12215" lon="2.25737">
        <ele>340</ele>
        <time>2022-09-11T09:36:27.425Z</time>
      </trkpt>
      <trkpt lat="44.12215" lon="2.25738">
        <ele>340</ele>
        <time>2022-09-11T09:36:28.425Z</time>
      </trkpt>
      <trkpt lat="44.12215" lon="2.25739">
        <ele>340</ele>
        <time>2022-09-11T09:36:29.425Z</time>
      </trkpt>
      <trkpt lat="44.12214" lon="2.2574">
        <ele>340</ele>
        <time>2022-09-11T09:36:30.425Z</time>
      </trkpt>
      <trkpt lat="44.12214" lon="2.2574">
        <ele>340</ele>
        <time>2022-09-11T09:36:31.425Z</time>
      </trkpt>
      <trkpt lat="44.12214" lon="2.25743">
        <ele>340</ele>
        <time>2022-09-11T09:36:35.433Z</time>
      </trkpt>
      <trkpt lat="44.12214" lon="2.25744">
        <ele>340</ele>
        <time>2022-09-11T09:36:36.433Z</time>
      </trkpt>
      <trkpt lat="44.12214" lon="2.25745">
        <ele>340</ele>
        <time>2022-09-11T09:36:37.433Z</time>
      </trkpt>
      <trkpt lat="44.12214" lon="2.25746">
        <ele>340</ele>
        <time>2022-09-11T09:36:38.433Z</time>
      </trkpt>
      <trkpt lat="44.12214" lon="2.25747">
        <ele>340</ele>
        <time>2022-09-11T09:36:39.433Z</time>
      </trkpt>
      <trkpt lat="44.12214" lon="2.25748">
        <ele>340</ele>
        <time>2022-09-11T09:36:40.433Z</time>
      </trkpt>
      <trkpt lat="44.12214" lon="2.25749">
        <ele>340</ele>
        <time>2022-09-11T09:36:41.433Z</time>
      </trkpt>
      <trkpt lat="44.12215" lon="2.2575">
        <ele>339</ele>
        <time>2022-09-11T09:36:42.433Z</time>
      </trkpt>
      <trkpt lat="44.12215" lon="2.25751">
        <ele>339</ele>
        <time>2022-09-11T09:36:43.433Z</time>
      </trkpt>
      <trkpt lat="44.12215" lon="2.25751">
        <ele>339</ele>
        <time>2022-09-11T09:36:44.433Z</time>
      </trkpt>
      <trkpt lat="44.12215" lon="2.25752">
        <ele>339</ele>
        <time>2022-09-11T09:36:45.433Z</time>
      </trkpt>
      <trkpt lat="44.12215" lon="2.25752">
        <ele>339</ele>
        <time>2022-09-11T09:36:46.433Z</time>
      </trkpt>
      <trkpt lat="44.12215" lon="2.25755">
        <ele>338</ele>
        <time>2022-09-11T09:36:50.444Z</time>
      </trkpt>
      <trkpt lat="44.12214" lon="2.25755">
        <ele>338</ele>
        <time>2022-09-11T09:36:51.444Z</time>
      </trkpt>
      <trkpt lat="44.12213" lon="2.2576">
        <ele>336</ele>
        <time>2022-09-11T09:37:19.437Z</time>
      </trkpt>
      <trkpt lat="44.12213" lon="2.25761">
        <ele>336</ele>
        <time>2022-09-11T09:37:20.437Z</time>
      </trkpt>
      <trkpt lat="44.12214" lon="2.25763">
        <ele>336</ele>
        <time>2022-09-11T09:37:25.432Z</time>
      </trkpt>
      <trkpt lat="44.12213" lon="2.25764">
        <ele>336</ele>
        <time>2022-09-11T09:37:26.432Z</time>
      </trkpt>
      <trkpt lat="44.12213" lon="2.25765">
        <ele>336</ele>
        <time>2022-09-11T09:37:27.432Z</time>
      </trkpt>
      <trkpt lat="44.12213" lon="2.25766">
        <ele>336</ele>
        <time>2022-09-11T09:37:28.432Z</time>
      </trkpt>
      <trkpt lat="44.12213" lon="2.25768">
        <ele>336</ele>
        <time>2022-09-11T09:37:29.432Z</time>
      </trkpt>
      <trkpt lat="44.12213" lon="2.25769">
        <ele>336</ele>
        <time>2022-09-11T09:37:30.432Z</time>
      </trkpt>
      <trkpt lat="44.12213" lon="2.2577">
        <ele>336</ele>
        <time>2022-09-11T09:37:31.432Z</time>
      </trkpt>
      <trkpt lat="44.12213" lon="2.25771">
        <ele>336</ele>
        <time>2022-09-11T09:37:32.432Z</time>
      </trkpt>
      <trkpt lat="44.12214" lon="2.25773">
        <ele>336</ele>
        <time>2022-09-11T09:37:33.432Z</time>
      </trkpt>
      <trkpt lat="44.12214" lon="2.25773">
        <ele>336</ele>
        <time>2022-09-11T09:37:34.432Z</time>
      </trkpt>
      <trkpt lat="44.12214" lon="2.25774">
        <ele>336</ele>
        <time>2022-09-11T09:37:35.432Z</time>
      </trkpt>
      <trkpt lat="44.12215" lon="2.25775">
        <ele>335</ele>
        <time>2022-09-11T09:37:36.432Z</time>
      </trkpt>
      <trkpt lat="44.12215" lon="2.25776">
        <ele>335</ele>
        <time>2022-09-11T09:37:37.432Z</time>
      </trkpt>
      <trkpt lat="44.12215" lon="2.25777">
        <ele>335</ele>
        <time>2022-09-11T09:37:38.432Z</time>
      </trkpt>
      <trkpt lat="44.12216" lon="2.25779">
        <ele>335</ele>
        <time>2022-09-11T09:37:39.432Z</time>
      </trkpt>
      <trkpt lat="44.12216" lon="2.2578">
        <ele>335</ele>
        <time>2022-09-11T09:37:40.432Z</time>
      </trkpt>
      <trkpt lat="44.12216" lon="2.2578">
        <ele>335</ele>
        <time>2022-09-11T09:37:41.432Z</time>
      </trkpt>
      <trkpt lat="44.12217" lon="2.25781">
        <ele>335</ele>
        <time>2022-09-11T09:37:42.432Z</time>
      </trkpt>
      <trkpt lat="44.12217" lon="2.25782">
        <ele>335</ele>
        <time>2022-09-11T09:37:43.432Z</time>
      </trkpt>
      <trkpt lat="44.12217" lon="2.25783">
        <ele>335</ele>
        <time>2022-09-11T09:37:44.432Z</time>
      </trkpt>
      <trkpt lat="44.12218" lon="2.25784">
        <ele>334</ele>
        <time>2022-09-11T09:37:45.432Z</time>
      </trkpt>
      <trkpt lat="44.12219" lon="2.25785">
        <ele>334</ele>
        <time>2022-09-11T09:37:46.432Z</time>
      </trkpt>
      <trkpt lat="44.12219" lon="2.25786">
        <ele>334</ele>
        <time>2022-09-11T09:37:47.432Z</time>
      </trkpt>
      <trkpt lat="44.1222" lon="2.25788">
        <ele>334</ele>
        <time>2022-09-11T09:37:48.432Z</time>
      </trkpt>
      <trkpt lat="44.12221" lon="2.25789">
        <ele>334</ele>
        <time>2022-09-11T09:37:49.432Z</time>
      </trkpt>
      <trkpt lat="44.12221" lon="2.2579">
        <ele>334</ele>
        <time>2022-09-11T09:37:50.432Z</time>
      </trkpt>
      <trkpt lat="44.12222" lon="2.25791">
        <ele>334</ele>
        <time>2022-09-11T09:37:51.432Z</time>
      </trkpt>
      <trkpt lat="44.12222" lon="2.25792">
        <ele>334</ele>
        <time>2022-09-11T09:37:52.432Z</time>
      </trkpt>
      <trkpt lat="44.12222" lon="2.25793">
        <ele>334</ele>
        <time>2022-09-11T09:37:53.432Z</time>
      </trkpt>
      <trkpt lat="44.12222" lon="2.25794">
        <ele>334</ele>
        <time>2022-09-11T09:37:54.432Z</time>
      </trkpt>
      <trkpt lat="44.12222" lon="2.25794">
        <ele>334</ele>
        <time>2022-09-11T09:37:55.432Z</time>
      </trkpt>
      <trkpt lat="44.12222" lon="2.25795">
        <ele>333</ele>
        <time>2022-09-11T09:37:56.432Z</time>
      </trkpt>
      <trkpt lat="44.12223" lon="2.25796">
        <ele>333</ele>
        <time>2022-09-11T09:37:57.432Z</time>
      </trkpt>
      <trkpt lat="44.12223" lon="2.25796">
        <ele>333</ele>
        <time>2022-09-11T09:37:58.432Z</time>
      </trkpt>
      <trkpt lat="44.12223" lon="2.25797">
        <ele>333</ele>
        <time>2022-09-11T09:37:59.432Z</time>
      </trkpt>
      <trkpt lat="44.12222" lon="2.25798">
        <ele>333</ele>
        <time>2022-09-11T09:38:00.432Z</time>
      </trkpt>
      <trkpt lat="44.12222" lon="2.25799">
        <ele>333</ele>
        <time>2022-09-11T09:38:01.432Z</time>
      </trkpt>
      <trkpt lat="44.12222" lon="2.258">
        <ele>333</ele>
        <time>2022-09-11T09:38:02.432Z</time>
      </trkpt>
      <trkpt lat="44.12221" lon="2.25801">
        <ele>332</ele>
        <time>2022-09-11T09:38:03.432Z</time>
      </trkpt>
      <trkpt lat="44.12221" lon="2.25801">
        <ele>332</ele>
        <time>2022-09-11T09:38:04.432Z</time>
      </trkpt>
      <trkpt lat="44.1222" lon="2.25802">
        <ele>332</ele>
        <time>2022-09-11T09:38:05.432Z</time>
      </trkpt>
      <trkpt lat="44.1222" lon="2.25803">
        <ele>331</ele>
        <time>2022-09-11T09:38:06.432Z</time>
      </trkpt>
      <trkpt lat="44.12219" lon="2.25803">
        <ele>331</ele>
        <time>2022-09-11T09:38:07.432Z</time>
      </trkpt>
      <trkpt lat="44.12219" lon="2.25804">
        <ele>331</ele>
        <time>2022-09-11T09:38:08.432Z</time>
      </trkpt>
      <trkpt lat="44.12218" lon="2.25805">
        <ele>331</ele>
        <time>2022-09-11T09:38:09.432Z</time>
      </trkpt>
      <trkpt lat="44.12218" lon="2.25806">
        <ele>331</ele>
        <time>2022-09-11T09:38:10.432Z</time>
      </trkpt>
      <trkpt lat="44.12217" lon="2.25806">
        <ele>331</ele>
        <time>2022-09-11T09:38:11.432Z</time>
      </trkpt>
      <trkpt lat="44.12217" lon="2.25807">
        <ele>331</ele>
        <time>2022-09-11T09:38:12.432Z</time>
      </trkpt>
      <trkpt lat="44.12216" lon="2.25807">
        <ele>331</ele>
        <time>2022-09-11T09:38:13.432Z</time>
      </trkpt>
      <trkpt lat="44.12216" lon="2.25807">
        <ele>330</ele>
        <time>2022-09-11T09:38:14.432Z</time>
      </trkpt>
      <trkpt lat="44.12215" lon="2.25808">
        <ele>330</ele>
        <time>2022-09-11T09:38:15.432Z</time>
      </trkpt>
      <trkpt lat="44.12214" lon="2.25809">
        <ele>330</ele>
        <time>2022-09-11T09:38:16.432Z</time>
      </trkpt>
      <trkpt lat="44.12214" lon="2.25809">
        <ele>330</ele>
        <time>2022-09-11T09:38:17.432Z</time>
      </trkpt>
      <trkpt lat="44.12214" lon="2.2581">
        <ele>330</ele>
        <time>2022-09-11T09:38:18.432Z</time>
      </trkpt>
      <trkpt lat="44.12213" lon="2.25811">
        <ele>330</ele>
        <time>2022-09-11T09:38:19.432Z</time>
      </trkpt>
      <trkpt lat="44.12212" lon="2.25811">
        <ele>330</ele>
        <time>2022-09-11T09:38:20.432Z</time>
      </trkpt>
      <trkpt lat="44.12212" lon="2.25812">
        <ele>330</ele>
        <time>2022-09-11T09:38:21.432Z</time>
      </trkpt>
      <trkpt lat="44.12211" lon="2.25812">
        <ele>330</ele>
        <time>2022-09-11T09:38:22.432Z</time>
      </trkpt>
      <trkpt lat="44.12211" lon="2.25813">
        <ele>330</ele>
        <time>2022-09-11T09:38:23.432Z</time>
      </trkpt>
      <trkpt lat="44.12211" lon="2.25814">
        <ele>330</ele>
        <time>2022-09-11T09:38:24.432Z</time>
      </trkpt>
      <trkpt lat="44.12211" lon="2.25816">
        <ele>330</ele>
        <time>2022-09-11T09:38:25.432Z</time>
      </trkpt>
      <trkpt lat="44.12211" lon="2.25817">
        <ele>329</ele>
        <time>2022-09-11T09:38:26.432Z</time>
      </trkpt>
      <trkpt lat="44.12211" lon="2.25818">
        <ele>329</ele>
        <time>2022-09-11T09:38:27.432Z</time>
      </trkpt>
      <trkpt lat="44.1221" lon="2.25819">
        <ele>329</ele>
        <time>2022-09-11T09:38:28.432Z</time>
      </trkpt>
      <trkpt lat="44.1221" lon="2.2582">
        <ele>329</ele>
        <time>2022-09-11T09:38:29.432Z</time>
      </trkpt>
      <trkpt lat="44.1221" lon="2.25821">
        <ele>329</ele>
        <time>2022-09-11T09:38:30.432Z</time>
      </trkpt>
      <trkpt lat="44.12209" lon="2.25822">
        <ele>329</ele>
        <time>2022-09-11T09:38:31.432Z</time>
      </trkpt>
      <trkpt lat="44.12209" lon="2.25824">
        <ele>329</ele>
        <time>2022-09-11T09:38:32.432Z</time>
      </trkpt>
      <trkpt lat="44.12208" lon="2.25825">
        <ele>329</ele>
        <time>2022-09-11T09:38:33.432Z</time>
      </trkpt>
      <trkpt lat="44.12208" lon="2.25826">
        <ele>329</ele>
        <time>2022-09-11T09:38:34.432Z</time>
      </trkpt>
      <trkpt lat="44.12207" lon="2.25828">
        <ele>329</ele>
        <time>2022-09-11T09:38:35.432Z</time>
      </trkpt>
      <trkpt lat="44.12207" lon="2.25829">
        <ele>329</ele>
        <time>2022-09-11T09:38:36.432Z</time>
      </trkpt>
      <trkpt lat="44.12206" lon="2.2583">
        <ele>329</ele>
        <time>2022-09-11T09:38:37.432Z</time>
      </trkpt>
      <trkpt lat="44.12206" lon="2.25831">
        <ele>329</ele>
        <time>2022-09-11T09:38:38.432Z</time>
      </trkpt>
      <trkpt lat="44.12206" lon="2.25832">
        <ele>329</ele>
        <time>2022-09-11T09:38:39.432Z</time>
      </trkpt>
      <trkpt lat="44.12205" lon="2.25833">
        <ele>330</ele>
        <time>2022-09-11T09:38:40.432Z</time>
      </trkpt>
      <trkpt lat="44.12205" lon="2.25834">
        <ele>330</ele>
        <time>2022-09-11T09:38:41.432Z</time>
      </trkpt>
      <trkpt lat="44.12205" lon="2.25835">
        <ele>330</ele>
        <time>2022-09-11T09:38:42.432Z</time>
      </trkpt>
      <trkpt lat="44.12204" lon="2.25837">
        <ele>330</ele>
        <time>2022-09-11T09:38:43.432Z</time>
      </trkpt>
      <trkpt lat="44.12204" lon="2.25838">
        <ele>330</ele>
        <time>2022-09-11T09:38:44.432Z</time>
      </trkpt>
      <trkpt lat="44.12204" lon="2.25839">
        <ele>330</ele>
        <time>2022-09-11T09:38:45.432Z</time>
      </trkpt>
      <trkpt lat="44.12204" lon="2.25841">
        <ele>330</ele>
        <time>2022-09-11T09:38:46.432Z</time>
      </trkpt>
      <trkpt lat="44.12203" lon="2.25842">
        <ele>330</ele>
        <time>2022-09-11T09:38:47.432Z</time>
      </trkpt>
      <trkpt lat="44.12203" lon="2.25843">
        <ele>330</ele>
        <time>2022-09-11T09:38:48.432Z</time>
      </trkpt>
      <trkpt lat="44.12203" lon="2.25844">
        <ele>330</ele>
        <time>2022-09-11T09:38:49.432Z</time>
      </trkpt>
      <trkpt lat="44.12203" lon="2.25845">
        <ele>329</ele>
        <time>2022-09-11T09:38:50.432Z</time>
      </trkpt>
      <trkpt lat="44.12203" lon="2.25847">
        <ele>329</ele>
        <time>2022-09-11T09:38:51.432Z</time>
      </trkpt>
      <trkpt lat="44.12203" lon="2.25848">
        <ele>329</ele>
        <time>2022-09-11T09:38:52.432Z</time>
      </trkpt>
      <trkpt lat="44.12203" lon="2.25849">
        <ele>329</ele>
        <time>2022-09-11T09:38:53.432Z</time>
      </trkpt>
      <trkpt lat="44.12204" lon="2.2585">
        <ele>329</ele>
        <time>2022-09-11T09:38:54.432Z</time>
      </trkpt>
      <trkpt lat="44.12204" lon="2.25851">
        <ele>329</ele>
        <time>2022-09-11T09:38:55.432Z</time>
      </trkpt>
      <trkpt lat="44.12204" lon="2.25852">
        <ele>329</ele>
        <time>2022-09-11T09:38:56.432Z</time>
      </trkpt>
      <trkpt lat="44.12204" lon="2.25853">
        <ele>329</ele>
        <time>2022-09-11T09:38:57.432Z</time>
      </trkpt>
      <trkpt lat="44.12203" lon="2.25854">
        <ele>329</ele>
        <time>2022-09-11T09:38:58.432Z</time>
      </trkpt>
      <trkpt lat="44.12203" lon="2.25855">
        <ele>329</ele>
        <time>2022-09-11T09:38:59.432Z</time>
      </trkpt>
      <trkpt lat="44.12203" lon="2.25856">
        <ele>329</ele>
        <time>2022-09-11T09:39:00.432Z</time>
      </trkpt>
      <trkpt lat="44.12202" lon="2.25857">
        <ele>329</ele>
        <time>2022-09-11T09:39:01.432Z</time>
      </trkpt>
      <trkpt lat="44.12202" lon="2.25858">
        <ele>329</ele>
        <time>2022-09-11T09:39:02.432Z</time>
      </trkpt>
      <trkpt lat="44.12202" lon="2.25859">
        <ele>329</ele>
        <time>2022-09-11T09:39:03.432Z</time>
      </trkpt>
      <trkpt lat="44.12202" lon="2.2586">
        <ele>329</ele>
        <time>2022-09-11T09:39:04.432Z</time>
      </trkpt>
      <trkpt lat="44.12202" lon="2.25861">
        <ele>329</ele>
        <time>2022-09-11T09:39:05.432Z</time>
      </trkpt>
      <trkpt lat="44.12202" lon="2.25861">
        <ele>329</ele>
        <time>2022-09-11T09:39:06.432Z</time>
      </trkpt>
      <trkpt lat="44.12202" lon="2.25862">
        <ele>329</ele>
        <time>2022-09-11T09:39:07.432Z</time>
      </trkpt>
      <trkpt lat="44.12202" lon="2.25862">
        <ele>329</ele>
        <time>2022-09-11T09:39:08.432Z</time>
      </trkpt>
      <trkpt lat="44.12202" lon="2.25863">
        <ele>329</ele>
        <time>2022-09-11T09:39:09.432Z</time>
      </trkpt>
      <trkpt lat="44.12202" lon="2.25864">
        <ele>329</ele>
        <time>2022-09-11T09:39:10.432Z</time>
      </trkpt>
      <trkpt lat="44.12202" lon="2.25865">
        <ele>329</ele>
        <time>2022-09-11T09:39:11.432Z</time>
      </trkpt>
      <trkpt lat="44.12201" lon="2.25867">
        <ele>329</ele>
        <time>2022-09-11T09:39:12.432Z</time>
      </trkpt>
      <trkpt lat="44.12201" lon="2.25868">
        <ele>329</ele>
        <time>2022-09-11T09:39:13.432Z</time>
      </trkpt>
      <trkpt lat="44.12201" lon="2.2587">
        <ele>329</ele>
        <time>2022-09-11T09:39:14.432Z</time>
      </trkpt>
      <trkpt lat="44.12201" lon="2.25871">
        <ele>329</ele>
        <time>2022-09-11T09:39:15.432Z</time>
      </trkpt>
      <trkpt lat="44.12201" lon="2.25872">
        <ele>329</ele>
        <time>2022-09-11T09:39:16.432Z</time>
      </trkpt>
      <trkpt lat="44.12201" lon="2.25872">
        <ele>329</ele>
        <time>2022-09-11T09:39:17.432Z</time>
      </trkpt>
      <trkpt lat="44.12201" lon="2.25872">
        <ele>329</ele>
        <time>2022-09-11T09:39:18.432Z</time>
      </trkpt>
      <trkpt lat="44.12201" lon="2.25872">
        <ele>329</ele>
        <time>2022-09-11T09:39:19.432Z</time>
      </trkpt>
      <trkpt lat="44.12201" lon="2.25874">
        <ele>330</ele>
        <time>2022-09-11T09:39:32.443Z</time>
      </trkpt>
      <trkpt lat="44.122" lon="2.25875">
        <ele>330</ele>
        <time>2022-09-11T09:39:33.443Z</time>
      </trkpt>
      <trkpt lat="44.122" lon="2.25876">
        <ele>330</ele>
        <time>2022-09-11T09:39:34.443Z</time>
      </trkpt>
      <trkpt lat="44.12199" lon="2.25877">
        <ele>330</ele>
        <time>2022-09-11T09:39:35.443Z</time>
      </trkpt>
      <trkpt lat="44.12198" lon="2.25878">
        <ele>331</ele>
        <time>2022-09-11T09:39:36.443Z</time>
      </trkpt>
      <trkpt lat="44.12198" lon="2.25879">
        <ele>331</ele>
        <time>2022-09-11T09:39:37.443Z</time>
      </trkpt>
      <trkpt lat="44.12197" lon="2.25881">
        <ele>331</ele>
        <time>2022-09-11T09:39:38.443Z</time>
      </trkpt>
      <trkpt lat="44.12197" lon="2.25882">
        <ele>331</ele>
        <time>2022-09-11T09:39:39.443Z</time>
      </trkpt>
      <trkpt lat="44.12196" lon="2.25883">
        <ele>332</ele>
        <time>2022-09-11T09:39:40.443Z</time>
      </trkpt>
      <trkpt lat="44.12196" lon="2.25884">
        <ele>332</ele>
        <time>2022-09-11T09:39:41.443Z</time>
      </trkpt>
      <trkpt lat="44.12195" lon="2.25885">
        <ele>332</ele>
        <time>2022-09-11T09:39:42.443Z</time>
      </trkpt>
      <trkpt lat="44.12195" lon="2.25886">
        <ele>332</ele>
        <time>2022-09-11T09:39:43.443Z</time>
      </trkpt>
      <trkpt lat="44.12195" lon="2.25887">
        <ele>332</ele>
        <time>2022-09-11T09:39:44.443Z</time>
      </trkpt>
      <trkpt lat="44.12194" lon="2.25888">
        <ele>332</ele>
        <time>2022-09-11T09:39:45.443Z</time>
      </trkpt>
      <trkpt lat="44.12194" lon="2.2589">
        <ele>333</ele>
        <time>2022-09-11T09:39:46.443Z</time>
      </trkpt>
      <trkpt lat="44.12195" lon="2.25891">
        <ele>333</ele>
        <time>2022-09-11T09:39:47.443Z</time>
      </trkpt>
      <trkpt lat="44.12195" lon="2.25893">
        <ele>333</ele>
        <time>2022-09-11T09:39:48.443Z</time>
      </trkpt>
      <trkpt lat="44.12195" lon="2.25894">
        <ele>333</ele>
        <time>2022-09-11T09:39:49.443Z</time>
      </trkpt>
      <trkpt lat="44.12195" lon="2.25896">
        <ele>333</ele>
        <time>2022-09-11T09:39:50.443Z</time>
      </trkpt>
      <trkpt lat="44.12196" lon="2.25897">
        <ele>333</ele>
        <time>2022-09-11T09:39:51.443Z</time>
      </trkpt>
      <trkpt lat="44.12196" lon="2.25899">
        <ele>333</ele>
        <time>2022-09-11T09:39:52.443Z</time>
      </trkpt>
      <trkpt lat="44.12196" lon="2.259">
        <ele>333</ele>
        <time>2022-09-11T09:39:53.443Z</time>
      </trkpt>
      <trkpt lat="44.12196" lon="2.25901">
        <ele>333</ele>
        <time>2022-09-11T09:39:54.443Z</time>
      </trkpt>
      <trkpt lat="44.12196" lon="2.25902">
        <ele>333</ele>
        <time>2022-09-11T09:39:55.443Z</time>
      </trkpt>
      <trkpt lat="44.12196" lon="2.25903">
        <ele>332</ele>
        <time>2022-09-11T09:39:56.443Z</time>
      </trkpt>
      <trkpt lat="44.12196" lon="2.25904">
        <ele>332</ele>
        <time>2022-09-11T09:39:57.443Z</time>
      </trkpt>
      <trkpt lat="44.12196" lon="2.25904">
        <ele>332</ele>
        <time>2022-09-11T09:39:58.443Z</time>
      </trkpt>
      <trkpt lat="44.12196" lon="2.25904">
        <ele>332</ele>
        <time>2022-09-11T09:39:59.443Z</time>
      </trkpt>
      <trkpt lat="44.12196" lon="2.25905">
        <ele>332</ele>
        <time>2022-09-11T09:40:00.443Z</time>
      </trkpt>
      <trkpt lat="44.12195" lon="2.25906">
        <ele>332</ele>
        <time>2022-09-11T09:40:06.454Z</time>
      </trkpt>
      <trkpt lat="44.12195" lon="2.25907">
        <ele>331</ele>
        <time>2022-09-11T09:40:07.454Z</time>
      </trkpt>
      <trkpt lat="44.12196" lon="2.25908">
        <ele>331</ele>
        <time>2022-09-11T09:40:08.454Z</time>
      </trkpt>
      <trkpt lat="44.12196" lon="2.25909">
        <ele>331</ele>
        <time>2022-09-11T09:40:09.454Z</time>
      </trkpt>
      <trkpt lat="44.12196" lon="2.2591">
        <ele>331</ele>
        <time>2022-09-11T09:40:10.454Z</time>
      </trkpt>
      <trkpt lat="44.12197" lon="2.25912">
        <ele>331</ele>
        <time>2022-09-11T09:40:11.454Z</time>
      </trkpt>
      <trkpt lat="44.12197" lon="2.25912">
        <ele>331</ele>
        <time>2022-09-11T09:40:12.454Z</time>
      </trkpt>
      <trkpt lat="44.12197" lon="2.25912">
        <ele>331</ele>
        <time>2022-09-11T09:40:13.454Z</time>
      </trkpt>
      <trkpt lat="44.12197" lon="2.25912">
        <ele>331</ele>
        <time>2022-09-11T09:40:14.454Z</time>
      </trkpt>
      <trkpt lat="44.12197" lon="2.25912">
        <ele>331</ele>
        <time>2022-09-11T09:40:15.454Z</time>
      </trkpt>
      <trkpt lat="44.12198" lon="2.25917">
        <ele>332</ele>
        <time>2022-09-11T09:40:53.452Z</time>
      </trkpt>
      <trkpt lat="44.12198" lon="2.25918">
        <ele>332</ele>
        <time>2022-09-11T09:40:54.452Z</time>
      </trkpt>
      <trkpt lat="44.12196" lon="2.25922">
        <ele>333</ele>
        <time>2022-09-11T09:41:18.448Z</time>
      </trkpt>
      <trkpt lat="44.12196" lon="2.25923">
        <ele>333</ele>
        <time>2022-09-11T09:41:19.448Z</time>
      </trkpt>
      <trkpt lat="44.12196" lon="2.25924">
        <ele>333</ele>
        <time>2022-09-11T09:41:20.448Z</time>
      </trkpt>
      <trkpt lat="44.12197" lon="2.25925">
        <ele>333</ele>
        <time>2022-09-11T09:41:21.448Z</time>
      </trkpt>
      <trkpt lat="44.12196" lon="2.25925">
        <ele>333</ele>
        <time>2022-09-11T09:41:22.448Z</time>
      </trkpt>
      <trkpt lat="44.12197" lon="2.25926">
        <ele>333</ele>
        <time>2022-09-11T09:41:23.448Z</time>
      </trkpt>
      <trkpt lat="44.12197" lon="2.25927">
        <ele>333</ele>
        <time>2022-09-11T09:41:24.448Z</time>
      </trkpt>
      <trkpt lat="44.12197" lon="2.25928">
        <ele>333</ele>
        <time>2022-09-11T09:41:25.448Z</time>
      </trkpt>
      <trkpt lat="44.12198" lon="2.25929">
        <ele>332</ele>
        <time>2022-09-11T09:41:26.448Z</time>
      </trkpt>
      <trkpt lat="44.12198" lon="2.2593">
        <ele>332</ele>
        <time>2022-09-11T09:41:27.448Z</time>
      </trkpt>
      <trkpt lat="44.12198" lon="2.25931">
        <ele>332</ele>
        <time>2022-09-11T09:41:28.448Z</time>
      </trkpt>
      <trkpt lat="44.12199" lon="2.25932">
        <ele>332</ele>
        <time>2022-09-11T09:41:29.448Z</time>
      </trkpt>
      <trkpt lat="44.12199" lon="2.25933">
        <ele>331</ele>
        <time>2022-09-11T09:41:30.448Z</time>
      </trkpt>
      <trkpt lat="44.12199" lon="2.25935">
        <ele>331</ele>
        <time>2022-09-11T09:41:31.448Z</time>
      </trkpt>
      <trkpt lat="44.122" lon="2.25936">
        <ele>331</ele>
        <time>2022-09-11T09:41:32.448Z</time>
      </trkpt>
      <trkpt lat="44.122" lon="2.25937">
        <ele>331</ele>
        <time>2022-09-11T09:41:33.448Z</time>
      </trkpt>
      <trkpt lat="44.122" lon="2.25938">
        <ele>330</ele>
        <time>2022-09-11T09:41:34.448Z</time>
      </trkpt>
      <trkpt lat="44.12201" lon="2.2594">
        <ele>330</ele>
        <time>2022-09-11T09:41:35.448Z</time>
      </trkpt>
      <trkpt lat="44.12201" lon="2.25941">
        <ele>330</ele>
        <time>2022-09-11T09:41:36.448Z</time>
      </trkpt>
      <trkpt lat="44.12202" lon="2.25942">
        <ele>330</ele>
        <time>2022-09-11T09:41:37.448Z</time>
      </trkpt>
      <trkpt lat="44.12202" lon="2.25944">
        <ele>329</ele>
        <time>2022-09-11T09:41:38.448Z</time>
      </trkpt>
      <trkpt lat="44.12202" lon="2.25946">
        <ele>329</ele>
        <time>2022-09-11T09:41:39.448Z</time>
      </trkpt>
      <trkpt lat="44.12202" lon="2.25948">
        <ele>329</ele>
        <time>2022-09-11T09:41:40.448Z</time>
      </trkpt>
      <trkpt lat="44.12202" lon="2.25949">
        <ele>329</ele>
        <time>2022-09-11T09:41:41.448Z</time>
      </trkpt>
      <trkpt lat="44.12201" lon="2.2595">
        <ele>329</ele>
        <time>2022-09-11T09:41:42.448Z</time>
      </trkpt>
      <trkpt lat="44.12201" lon="2.25951">
        <ele>329</ele>
        <time>2022-09-11T09:41:43.448Z</time>
      </trkpt>
      <trkpt lat="44.12201" lon="2.25952">
        <ele>329</ele>
        <time>2022-09-11T09:41:44.448Z</time>
      </trkpt>
      <trkpt lat="44.12201" lon="2.25953">
        <ele>329</ele>
        <time>2022-09-11T09:41:45.448Z</time>
      </trkpt>
      <trkpt lat="44.12201" lon="2.25954">
        <ele>329</ele>
        <time>2022-09-11T09:41:46.448Z</time>
      </trkpt>
      <trkpt lat="44.12201" lon="2.25955">
        <ele>328</ele>
        <time>2022-09-11T09:41:47.448Z</time>
      </trkpt>
      <trkpt lat="44.12201" lon="2.25956">
        <ele>328</ele>
        <time>2022-09-11T09:41:48.448Z</time>
      </trkpt>
      <trkpt lat="44.12201" lon="2.25958">
        <ele>328</ele>
        <time>2022-09-11T09:41:49.448Z</time>
      </trkpt>
      <trkpt lat="44.12201" lon="2.25959">
        <ele>328</ele>
        <time>2022-09-11T09:41:50.448Z</time>
      </trkpt>
      <trkpt lat="44.12202" lon="2.2596">
        <ele>327</ele>
        <time>2022-09-11T09:41:51.448Z</time>
      </trkpt>
      <trkpt lat="44.12202" lon="2.25961">
        <ele>327</ele>
        <time>2022-09-11T09:41:52.448Z</time>
      </trkpt>
      <trkpt lat="44.12202" lon="2.25961">
        <ele>327</ele>
        <time>2022-09-11T09:41:53.448Z</time>
      </trkpt>
      <trkpt lat="44.12202" lon="2.25962">
        <ele>327</ele>
        <time>2022-09-11T09:41:54.448Z</time>
      </trkpt>
      <trkpt lat="44.12202" lon="2.25963">
        <ele>326</ele>
        <time>2022-09-11T09:41:55.448Z</time>
      </trkpt>
      <trkpt lat="44.12202" lon="2.25963">
        <ele>326</ele>
        <time>2022-09-11T09:41:56.448Z</time>
      </trkpt>
      <trkpt lat="44.12202" lon="2.25963">
        <ele>326</ele>
        <time>2022-09-11T09:41:57.448Z</time>
      </trkpt>
      <trkpt lat="44.12202" lon="2.25964">
        <ele>326</ele>
        <time>2022-09-11T09:41:58.448Z</time>
      </trkpt>
      <trkpt lat="44.12202" lon="2.25965">
        <ele>326</ele>
        <time>2022-09-11T09:41:59.448Z</time>
      </trkpt>
      <trkpt lat="44.12202" lon="2.25965">
        <ele>326</ele>
        <time>2022-09-11T09:42:00.448Z</time>
      </trkpt>
      <trkpt lat="44.12202" lon="2.25966">
        <ele>326</ele>
        <time>2022-09-11T09:42:01.448Z</time>
      </trkpt>
      <trkpt lat="44.12202" lon="2.25966">
        <ele>326</ele>
        <time>2022-09-11T09:42:02.448Z</time>
      </trkpt>
      <trkpt lat="44.12203" lon="2.25967">
        <ele>325</ele>
        <time>2022-09-11T09:42:05.703Z</time>
      </trkpt>
      <trkpt lat="44.12204" lon="2.25967">
        <ele>325</ele>
        <time>2022-09-11T09:42:06.703Z</time>
      </trkpt>
      <trkpt lat="44.12204" lon="2.25968">
        <ele>325</ele>
        <time>2022-09-11T09:42:07.703Z</time>
      </trkpt>
      <trkpt lat="44.12204" lon="2.25968">
        <ele>325</ele>
        <time>2022-09-11T09:42:08.703Z</time>
      </trkpt>
      <trkpt lat="44.12204" lon="2.25968">
        <ele>325</ele>
        <time>2022-09-11T09:42:09.703Z</time>
      </trkpt>
      <trkpt lat="44.12205" lon="2.2597">
        <ele>324</ele>
        <time>2022-09-11T09:42:12.941Z</time>
      </trkpt>
      <trkpt lat="44.12205" lon="2.2597">
        <ele>324</ele>
        <time>2022-09-11T09:42:13.941Z</time>
      </trkpt>
      <trkpt lat="44.12205" lon="2.2597">
        <ele>323</ele>
        <time>2022-09-11T09:42:14.941Z</time>
      </trkpt>
      <trkpt lat="44.12205" lon="2.25971">
        <ele>323</ele>
        <time>2022-09-11T09:42:15.941Z</time>
      </trkpt>
      <trkpt lat="44.12205" lon="2.25971">
        <ele>323</ele>
        <time>2022-09-11T09:42:16.941Z</time>
      </trkpt>
      <trkpt lat="44.12206" lon="2.25973">
        <ele>322</ele>
        <time>2022-09-11T09:42:31.938Z</time>
      </trkpt>
      <trkpt lat="44.12206" lon="2.25973">
        <ele>322</ele>
        <time>2022-09-11T09:42:32.938Z</time>
      </trkpt>
      <trkpt lat="44.12206" lon="2.25973">
        <ele>322</ele>
        <time>2022-09-11T09:42:33.938Z</time>
      </trkpt>
      <trkpt lat="44.12206" lon="2.25973">
        <ele>322</ele>
        <time>2022-09-11T09:42:34.938Z</time>
      </trkpt>
      <trkpt lat="44.12206" lon="2.25973">
        <ele>321</ele>
        <time>2022-09-11T09:42:35.938Z</time>
      </trkpt>
      <trkpt lat="44.12207" lon="2.25974">
        <ele>321</ele>
        <time>2022-09-11T09:42:39.193Z</time>
      </trkpt>
      <trkpt lat="44.12207" lon="2.25975">
        <ele>320</ele>
        <time>2022-09-11T09:42:40.193Z</time>
      </trkpt>
      <trkpt lat="44.12207" lon="2.25976">
        <ele>320</ele>
        <time>2022-09-11T09:42:41.193Z</time>
      </trkpt>
      <trkpt lat="44.12207" lon="2.25977">
        <ele>320</ele>
        <time>2022-09-11T09:42:42.193Z</time>
      </trkpt>
      <trkpt lat="44.12207" lon="2.25977">
        <ele>320</ele>
        <time>2022-09-11T09:42:43.193Z</time>
      </trkpt>
      <trkpt lat="44.12207" lon="2.25978">
        <ele>319</ele>
        <time>2022-09-11T09:42:44.193Z</time>
      </trkpt>
      <trkpt lat="44.12206" lon="2.2598">
        <ele>319</ele>
        <time>2022-09-11T09:42:45.193Z</time>
      </trkpt>
      <trkpt lat="44.12206" lon="2.25981">
        <ele>319</ele>
        <time>2022-09-11T09:42:46.193Z</time>
      </trkpt>
      <trkpt lat="44.12206" lon="2.25982">
        <ele>319</ele>
        <time>2022-09-11T09:42:47.193Z</time>
      </trkpt>
      <trkpt lat="44.12206" lon="2.25984">
        <ele>319</ele>
        <time>2022-09-11T09:42:48.193Z</time>
      </trkpt>
      <trkpt lat="44.12206" lon="2.25985">
        <ele>319</ele>
        <time>2022-09-11T09:42:49.193Z</time>
      </trkpt>
      <trkpt lat="44.12206" lon="2.25986">
        <ele>319</ele>
        <time>2022-09-11T09:42:50.193Z</time>
      </trkpt>
      <trkpt lat="44.12205" lon="2.25987">
        <ele>319</ele>
        <time>2022-09-11T09:42:51.193Z</time>
      </trkpt>
      <trkpt lat="44.12205" lon="2.25988">
        <ele>319</ele>
        <time>2022-09-11T09:42:52.193Z</time>
      </trkpt>
      <trkpt lat="44.12204" lon="2.25989">
        <ele>319</ele>
        <time>2022-09-11T09:42:53.193Z</time>
      </trkpt>
      <trkpt lat="44.12204" lon="2.2599">
        <ele>319</ele>
        <time>2022-09-11T09:42:54.193Z</time>
      </trkpt>
      <trkpt lat="44.12204" lon="2.25991">
        <ele>319</ele>
        <time>2022-09-11T09:42:55.193Z</time>
      </trkpt>
      <trkpt lat="44.12203" lon="2.25991">
        <ele>319</ele>
        <time>2022-09-11T09:42:56.193Z</time>
      </trkpt>
      <trkpt lat="44.12203" lon="2.25991">
        <ele>319</ele>
        <time>2022-09-11T09:42:57.193Z</time>
      </trkpt>
      <trkpt lat="44.12203" lon="2.25991">
        <ele>319</ele>
        <time>2022-09-11T09:42:58.193Z</time>
      </trkpt>
      <trkpt lat="44.12203" lon="2.25991">
        <ele>319</ele>
        <time>2022-09-11T09:42:59.193Z</time>
      </trkpt>
      <trkpt lat="44.12203" lon="2.25991">
        <ele>319</ele>
        <time>2022-09-11T09:43:00.193Z</time>
      </trkpt>
      <trkpt lat="44.12202" lon="2.25993">
        <ele>319</ele>
        <time>2022-09-11T09:43:05.208Z</time>
      </trkpt>
      <trkpt lat="44.12202" lon="2.25994">
        <ele>319</ele>
        <time>2022-09-11T09:43:06.208Z</time>
      </trkpt>
      <trkpt lat="44.12202" lon="2.25994">
        <ele>319</ele>
        <time>2022-09-11T09:43:07.208Z</time>
      </trkpt>
      <trkpt lat="44.12201" lon="2.25995">
        <ele>320</ele>
        <time>2022-09-11T09:43:08.208Z</time>
      </trkpt>
      <trkpt lat="44.12201" lon="2.25995">
        <ele>320</ele>
        <time>2022-09-11T09:43:09.208Z</time>
      </trkpt>
      <trkpt lat="44.122" lon="2.25996">
        <ele>320</ele>
        <time>2022-09-11T09:43:10.208Z</time>
      </trkpt>
      <trkpt lat="44.122" lon="2.25996">
        <ele>320</ele>
        <time>2022-09-11T09:43:11.208Z</time>
      </trkpt>
      <trkpt lat="44.122" lon="2.25997">
        <ele>320</ele>
        <time>2022-09-11T09:43:12.208Z</time>
      </trkpt>
      <trkpt lat="44.122" lon="2.25999">
        <ele>320</ele>
        <time>2022-09-11T09:43:15.446Z</time>
      </trkpt>
      <trkpt lat="44.122" lon="2.26">
        <ele>320</ele>
        <time>2022-09-11T09:43:16.446Z</time>
      </trkpt>
      <trkpt lat="44.122" lon="2.26002">
        <ele>320</ele>
        <time>2022-09-11T09:43:17.446Z</time>
      </trkpt>
      <trkpt lat="44.122" lon="2.26003">
        <ele>320</ele>
        <time>2022-09-11T09:43:18.446Z</time>
      </trkpt>
      <trkpt lat="44.122" lon="2.26005">
        <ele>320</ele>
        <time>2022-09-11T09:43:19.446Z</time>
      </trkpt>
      <trkpt lat="44.12201" lon="2.26006">
        <ele>320</ele>
        <time>2022-09-11T09:43:20.446Z</time>
      </trkpt>
      <trkpt lat="44.12201" lon="2.26007">
        <ele>320</ele>
        <time>2022-09-11T09:43:21.446Z</time>
      </trkpt>
      <trkpt lat="44.12201" lon="2.26009">
        <ele>320</ele>
        <time>2022-09-11T09:43:22.446Z</time>
      </trkpt>
      <trkpt lat="44.12201" lon="2.2601">
        <ele>320</ele>
        <time>2022-09-11T09:43:23.446Z</time>
      </trkpt>
      <trkpt lat="44.12201" lon="2.26012">
        <ele>320</ele>
        <time>2022-09-11T09:43:24.446Z</time>
      </trkpt>
      <trkpt lat="44.12202" lon="2.26013">
        <ele>320</ele>
        <time>2022-09-11T09:43:25.446Z</time>
      </trkpt>
      <trkpt lat="44.12202" lon="2.26015">
        <ele>320</ele>
        <time>2022-09-11T09:43:26.446Z</time>
      </trkpt>
      <trkpt lat="44.12201" lon="2.26016">
        <ele>320</ele>
        <time>2022-09-11T09:43:27.446Z</time>
      </trkpt>
      <trkpt lat="44.12201" lon="2.26018">
        <ele>320</ele>
        <time>2022-09-11T09:43:28.446Z</time>
      </trkpt>
      <trkpt lat="44.12201" lon="2.26019">
        <ele>320</ele>
        <time>2022-09-11T09:43:29.446Z</time>
      </trkpt>
      <trkpt lat="44.12201" lon="2.2602">
        <ele>320</ele>
        <time>2022-09-11T09:43:30.446Z</time>
      </trkpt>
      <trkpt lat="44.122" lon="2.26021">
        <ele>320</ele>
        <time>2022-09-11T09:43:31.446Z</time>
      </trkpt>
      <trkpt lat="44.122" lon="2.26023">
        <ele>320</ele>
        <time>2022-09-11T09:43:32.446Z</time>
      </trkpt>
      <trkpt lat="44.122" lon="2.26024">
        <ele>320</ele>
        <time>2022-09-11T09:43:33.446Z</time>
      </trkpt>
      <trkpt lat="44.12199" lon="2.26025">
        <ele>320</ele>
        <time>2022-09-11T09:43:34.446Z</time>
      </trkpt>
      <trkpt lat="44.12199" lon="2.26026">
        <ele>320</ele>
        <time>2022-09-11T09:43:35.446Z</time>
      </trkpt>
      <trkpt lat="44.12199" lon="2.26027">
        <ele>320</ele>
        <time>2022-09-11T09:43:36.446Z</time>
      </trkpt>
      <trkpt lat="44.12198" lon="2.26028">
        <ele>320</ele>
        <time>2022-09-11T09:43:37.446Z</time>
      </trkpt>
      <trkpt lat="44.12198" lon="2.2603">
        <ele>320</ele>
        <time>2022-09-11T09:43:38.446Z</time>
      </trkpt>
      <trkpt lat="44.12198" lon="2.26031">
        <ele>320</ele>
        <time>2022-09-11T09:43:39.446Z</time>
      </trkpt>
      <trkpt lat="44.12198" lon="2.26033">
        <ele>320</ele>
        <time>2022-09-11T09:43:40.446Z</time>
      </trkpt>
      <trkpt lat="44.12198" lon="2.26034">
        <ele>320</ele>
        <time>2022-09-11T09:43:41.446Z</time>
      </trkpt>
      <trkpt lat="44.12198" lon="2.26035">
        <ele>320</ele>
        <time>2022-09-11T09:43:42.446Z</time>
      </trkpt>
      <trkpt lat="44.12199" lon="2.26037">
        <ele>320</ele>
        <time>2022-09-11T09:43:43.446Z</time>
      </trkpt>
      <trkpt lat="44.12199" lon="2.26038">
        <ele>320</ele>
        <time>2022-09-11T09:43:44.446Z</time>
      </trkpt>
      <trkpt lat="44.12199" lon="2.2604">
        <ele>320</ele>
        <time>2022-09-11T09:43:45.446Z</time>
      </trkpt>
      <trkpt lat="44.122" lon="2.26041">
        <ele>320</ele>
        <time>2022-09-11T09:43:46.446Z</time>
      </trkpt>
      <trkpt lat="44.122" lon="2.26042">
        <ele>320</ele>
        <time>2022-09-11T09:43:47.446Z</time>
      </trkpt>
      <trkpt lat="44.122" lon="2.26043">
        <ele>320</ele>
        <time>2022-09-11T09:43:48.446Z</time>
      </trkpt>
      <trkpt lat="44.122" lon="2.26045">
        <ele>320</ele>
        <time>2022-09-11T09:43:49.446Z</time>
      </trkpt>
      <trkpt lat="44.122" lon="2.26046">
        <ele>320</ele>
        <time>2022-09-11T09:43:50.446Z</time>
      </trkpt>
      <trkpt lat="44.12201" lon="2.26047">
        <ele>320</ele>
        <time>2022-09-11T09:43:51.446Z</time>
      </trkpt>
      <trkpt lat="44.12201" lon="2.26048">
        <ele>320</ele>
        <time>2022-09-11T09:43:52.446Z</time>
      </trkpt>
      <trkpt lat="44.12201" lon="2.2605">
        <ele>321</ele>
        <time>2022-09-11T09:43:53.446Z</time>
      </trkpt>
      <trkpt lat="44.12201" lon="2.26052">
        <ele>321</ele>
        <time>2022-09-11T09:43:54.446Z</time>
      </trkpt>
      <trkpt lat="44.12201" lon="2.26053">
        <ele>321</ele>
        <time>2022-09-11T09:43:55.446Z</time>
      </trkpt>
      <trkpt lat="44.12201" lon="2.26054">
        <ele>321</ele>
        <time>2022-09-11T09:43:56.446Z</time>
      </trkpt>
      <trkpt lat="44.12201" lon="2.26055">
        <ele>321</ele>
        <time>2022-09-11T09:43:57.446Z</time>
      </trkpt>
      <trkpt lat="44.12201" lon="2.26057">
        <ele>321</ele>
        <time>2022-09-11T09:43:58.446Z</time>
      </trkpt>
      <trkpt lat="44.12202" lon="2.26058">
        <ele>321</ele>
        <time>2022-09-11T09:43:59.446Z</time>
      </trkpt>
      <trkpt lat="44.12202" lon="2.26059">
        <ele>321</ele>
        <time>2022-09-11T09:44:00.446Z</time>
      </trkpt>
      <trkpt lat="44.12202" lon="2.26061">
        <ele>321</ele>
        <time>2022-09-11T09:44:01.446Z</time>
      </trkpt>
      <trkpt lat="44.12203" lon="2.26062">
        <ele>321</ele>
        <time>2022-09-11T09:44:02.446Z</time>
      </trkpt>
      <trkpt lat="44.12203" lon="2.26063">
        <ele>321</ele>
        <time>2022-09-11T09:44:03.446Z</time>
      </trkpt>
      <trkpt lat="44.12203" lon="2.26065">
        <ele>321</ele>
        <time>2022-09-11T09:44:04.446Z</time>
      </trkpt>
      <trkpt lat="44.12203" lon="2.26066">
        <ele>321</ele>
        <time>2022-09-11T09:44:05.446Z</time>
      </trkpt>
      <trkpt lat="44.12203" lon="2.26067">
        <ele>321</ele>
        <time>2022-09-11T09:44:06.446Z</time>
      </trkpt>
      <trkpt lat="44.12203" lon="2.26068">
        <ele>321</ele>
        <time>2022-09-11T09:44:07.446Z</time>
      </trkpt>
      <trkpt lat="44.12203" lon="2.26069">
        <ele>321</ele>
        <time>2022-09-11T09:44:08.446Z</time>
      </trkpt>
      <trkpt lat="44.12203" lon="2.26071">
        <ele>321</ele>
        <time>2022-09-11T09:44:09.446Z</time>
      </trkpt>
      <trkpt lat="44.12203" lon="2.26072">
        <ele>320</ele>
        <time>2022-09-11T09:44:10.446Z</time>
      </trkpt>
      <trkpt lat="44.12203" lon="2.26073">
        <ele>320</ele>
        <time>2022-09-11T09:44:11.446Z</time>
      </trkpt>
      <trkpt lat="44.12204" lon="2.26074">
        <ele>320</ele>
        <time>2022-09-11T09:44:12.446Z</time>
      </trkpt>
      <trkpt lat="44.12204" lon="2.26076">
        <ele>320</ele>
        <time>2022-09-11T09:44:13.446Z</time>
      </trkpt>
      <trkpt lat="44.12204" lon="2.26077">
        <ele>320</ele>
        <time>2022-09-11T09:44:14.446Z</time>
      </trkpt>
      <trkpt lat="44.12204" lon="2.26078">
        <ele>320</ele>
        <time>2022-09-11T09:44:15.446Z</time>
      </trkpt>
      <trkpt lat="44.12204" lon="2.26079">
        <ele>320</ele>
        <time>2022-09-11T09:44:16.446Z</time>
      </trkpt>
      <trkpt lat="44.12204" lon="2.26081">
        <ele>320</ele>
        <time>2022-09-11T09:44:17.446Z</time>
      </trkpt>
      <trkpt lat="44.12204" lon="2.26082">
        <ele>320</ele>
        <time>2022-09-11T09:44:18.446Z</time>
      </trkpt>
      <trkpt lat="44.12204" lon="2.26084">
        <ele>320</ele>
        <time>2022-09-11T09:44:19.446Z</time>
      </trkpt>
      <trkpt lat="44.12204" lon="2.26085">
        <ele>320</ele>
        <time>2022-09-11T09:44:20.446Z</time>
      </trkpt>
      <trkpt lat="44.12204" lon="2.26085">
        <ele>319</ele>
        <time>2022-09-11T09:44:21.446Z</time>
      </trkpt>
      <trkpt lat="44.12204" lon="2.26087">
        <ele>319</ele>
        <time>2022-09-11T09:44:22.446Z</time>
      </trkpt>
      <trkpt lat="44.12205" lon="2.26088">
        <ele>319</ele>
        <time>2022-09-11T09:44:23.446Z</time>
      </trkpt>
      <trkpt lat="44.12205" lon="2.26089">
        <ele>319</ele>
        <time>2022-09-11T09:44:24.446Z</time>
      </trkpt>
      <trkpt lat="44.12205" lon="2.26091">
        <ele>319</ele>
        <time>2022-09-11T09:44:25.446Z</time>
      </trkpt>
      <trkpt lat="44.12206" lon="2.26092">
        <ele>319</ele>
        <time>2022-09-11T09:44:26.446Z</time>
      </trkpt>
      <trkpt lat="44.12206" lon="2.26093">
        <ele>319</ele>
        <time>2022-09-11T09:44:27.446Z</time>
      </trkpt>
      <trkpt lat="44.12206" lon="2.26094">
        <ele>319</ele>
        <time>2022-09-11T09:44:28.446Z</time>
      </trkpt>
      <trkpt lat="44.12206" lon="2.26095">
        <ele>319</ele>
        <time>2022-09-11T09:44:29.446Z</time>
      </trkpt>
      <trkpt lat="44.12207" lon="2.26096">
        <ele>319</ele>
        <time>2022-09-11T09:44:30.446Z</time>
      </trkpt>
      <trkpt lat="44.12207" lon="2.26097">
        <ele>319</ele>
        <time>2022-09-11T09:44:31.446Z</time>
      </trkpt>
      <trkpt lat="44.12207" lon="2.26099">
        <ele>319</ele>
        <time>2022-09-11T09:44:32.446Z</time>
      </trkpt>
      <trkpt lat="44.12207" lon="2.261">
        <ele>319</ele>
        <time>2022-09-11T09:44:33.446Z</time>
      </trkpt>
      <trkpt lat="44.12208" lon="2.26101">
        <ele>319</ele>
        <time>2022-09-11T09:44:34.446Z</time>
      </trkpt>
      <trkpt lat="44.12208" lon="2.26102">
        <ele>319</ele>
        <time>2022-09-11T09:44:35.446Z</time>
      </trkpt>
      <trkpt lat="44.12208" lon="2.26103">
        <ele>319</ele>
        <time>2022-09-11T09:44:36.446Z</time>
      </trkpt>
      <trkpt lat="44.12209" lon="2.26104">
        <ele>319</ele>
        <time>2022-09-11T09:44:37.446Z</time>
      </trkpt>
      <trkpt lat="44.12209" lon="2.26105">
        <ele>319</ele>
        <time>2022-09-11T09:44:38.446Z</time>
      </trkpt>
      <trkpt lat="44.12209" lon="2.26106">
        <ele>318</ele>
        <time>2022-09-11T09:44:39.446Z</time>
      </trkpt>
      <trkpt lat="44.12209" lon="2.26107">
        <ele>318</ele>
        <time>2022-09-11T09:44:40.446Z</time>
      </trkpt>
      <trkpt lat="44.12209" lon="2.26108">
        <ele>318</ele>
        <time>2022-09-11T09:44:41.446Z</time>
      </trkpt>
      <trkpt lat="44.1221" lon="2.26109">
        <ele>318</ele>
        <time>2022-09-11T09:44:42.446Z</time>
      </trkpt>
      <trkpt lat="44.1221" lon="2.26109">
        <ele>318</ele>
        <time>2022-09-11T09:44:43.446Z</time>
      </trkpt>
      <trkpt lat="44.1221" lon="2.26109">
        <ele>318</ele>
        <time>2022-09-11T09:44:44.446Z</time>
      </trkpt>
      <trkpt lat="44.1221" lon="2.2611">
        <ele>318</ele>
        <time>2022-09-11T09:44:45.446Z</time>
      </trkpt>
      <trkpt lat="44.12211" lon="2.2611">
        <ele>318</ele>
        <time>2022-09-11T09:44:52.445Z</time>
      </trkpt>
      <trkpt lat="44.12212" lon="2.26109">
        <ele>318</ele>
        <time>2022-09-11T09:44:53.445Z</time>
      </trkpt>
      <trkpt lat="44.12212" lon="2.26108">
        <ele>317</ele>
        <time>2022-09-11T09:44:54.445Z</time>
      </trkpt>
      <trkpt lat="44.12212" lon="2.26107">
        <ele>317</ele>
        <time>2022-09-11T09:44:55.445Z</time>
      </trkpt>
      <trkpt lat="44.12212" lon="2.26106">
        <ele>317</ele>
        <time>2022-09-11T09:44:56.445Z</time>
      </trkpt>
      <trkpt lat="44.12211" lon="2.26105">
        <ele>317</ele>
        <time>2022-09-11T09:44:57.445Z</time>
      </trkpt>
      <trkpt lat="44.12211" lon="2.26104">
        <ele>317</ele>
        <time>2022-09-11T09:44:58.445Z</time>
      </trkpt>
      <trkpt lat="44.1221" lon="2.26103">
        <ele>317</ele>
        <time>2022-09-11T09:44:59.445Z</time>
      </trkpt>
      <trkpt lat="44.1221" lon="2.26102">
        <ele>317</ele>
        <time>2022-09-11T09:45:00.445Z</time>
      </trkpt>
      <trkpt lat="44.1221" lon="2.26101">
        <ele>317</ele>
        <time>2022-09-11T09:45:01.445Z</time>
      </trkpt>
      <trkpt lat="44.1221" lon="2.261">
        <ele>317</ele>
        <time>2022-09-11T09:45:02.445Z</time>
      </trkpt>
      <trkpt lat="44.1221" lon="2.261">
        <ele>317</ele>
        <time>2022-09-11T09:45:03.445Z</time>
      </trkpt>
      <trkpt lat="44.1221" lon="2.261">
        <ele>317</ele>
        <time>2022-09-11T09:45:04.445Z</time>
      </trkpt>
      <trkpt lat="44.1221" lon="2.261">
        <ele>317</ele>
        <time>2022-09-11T09:45:05.445Z</time>
      </trkpt>
      <trkpt lat="44.12211" lon="2.26093">
        <ele>317</ele>
        <time>2022-09-11T09:45:17.448Z</time>
      </trkpt>
      <trkpt lat="44.12212" lon="2.26092">
        <ele>317</ele>
        <time>2022-09-11T09:45:18.448Z</time>
      </trkpt>
      <trkpt lat="44.12212" lon="2.26091">
        <ele>316</ele>
        <time>2022-09-11T09:45:19.448Z</time>
      </trkpt>
      <trkpt lat="44.12213" lon="2.2609">
        <ele>316</ele>
        <time>2022-09-11T09:45:20.448Z</time>
      </trkpt>
      <trkpt lat="44.12213" lon="2.26089">
        <ele>316</ele>
        <time>2022-09-11T09:45:21.448Z</time>
      </trkpt>
      <trkpt lat="44.12214" lon="2.26087">
        <ele>316</ele>
        <time>2022-09-11T09:45:22.448Z</time>
      </trkpt>
      <trkpt lat="44.12214" lon="2.26086">
        <ele>316</ele>
        <time>2022-09-11T09:45:23.448Z</time>
      </trkpt>
      <trkpt lat="44.12214" lon="2.26085">
        <ele>316</ele>
        <time>2022-09-11T09:45:24.448Z</time>
      </trkpt>
      <trkpt lat="44.12215" lon="2.26083">
        <ele>316</ele>
        <time>2022-09-11T09:45:25.448Z</time>
      </trkpt>
      <trkpt lat="44.12215" lon="2.26082">
        <ele>316</ele>
        <time>2022-09-11T09:45:26.448Z</time>
      </trkpt>
      <trkpt lat="44.12215" lon="2.26081">
        <ele>315</ele>
        <time>2022-09-11T09:45:27.448Z</time>
      </trkpt>
      <trkpt lat="44.12215" lon="2.26079">
        <ele>315</ele>
        <time>2022-09-11T09:45:28.448Z</time>
      </trkpt>
      <trkpt lat="44.12215" lon="2.26078">
        <ele>315</ele>
        <time>2022-09-11T09:45:29.448Z</time>
      </trkpt>
      <trkpt lat="44.12215" lon="2.26078">
        <ele>315</ele>
        <time>2022-09-11T09:45:30.448Z</time>
      </trkpt>
      <trkpt lat="44.12214" lon="2.26076">
        <ele>315</ele>
        <time>2022-09-11T09:45:31.448Z</time>
      </trkpt>
      <trkpt lat="44.12214" lon="2.26075">
        <ele>315</ele>
        <time>2022-09-11T09:45:32.448Z</time>
      </trkpt>
      <trkpt lat="44.12214" lon="2.26074">
        <ele>315</ele>
        <time>2022-09-11T09:45:33.448Z</time>
      </trkpt>
      <trkpt lat="44.12214" lon="2.26073">
        <ele>315</ele>
        <time>2022-09-11T09:45:34.448Z</time>
      </trkpt>
      <trkpt lat="44.12215" lon="2.26072">
        <ele>315</ele>
        <time>2022-09-11T09:45:35.448Z</time>
      </trkpt>
      <trkpt lat="44.12215" lon="2.26071">
        <ele>315</ele>
        <time>2022-09-11T09:45:36.448Z</time>
      </trkpt>
      <trkpt lat="44.12215" lon="2.2607">
        <ele>315</ele>
        <time>2022-09-11T09:45:37.448Z</time>
      </trkpt>
      <trkpt lat="44.12215" lon="2.2607">
        <ele>314</ele>
        <time>2022-09-11T09:45:38.448Z</time>
      </trkpt>
      <trkpt lat="44.12215" lon="2.26069">
        <ele>314</ele>
        <time>2022-09-11T09:45:39.448Z</time>
      </trkpt>
      <trkpt lat="44.12215" lon="2.26068">
        <ele>314</ele>
        <time>2022-09-11T09:45:40.448Z</time>
      </trkpt>
      <trkpt lat="44.12215" lon="2.26067">
        <ele>314</ele>
        <time>2022-09-11T09:45:41.448Z</time>
      </trkpt>
      <trkpt lat="44.12215" lon="2.26066">
        <ele>314</ele>
        <time>2022-09-11T09:45:42.448Z</time>
      </trkpt>
      <trkpt lat="44.12215" lon="2.26065">
        <ele>314</ele>
        <time>2022-09-11T09:45:43.448Z</time>
      </trkpt>
      <trkpt lat="44.12215" lon="2.26064">
        <ele>314</ele>
        <time>2022-09-11T09:45:44.448Z</time>
      </trkpt>
      <trkpt lat="44.12215" lon="2.26063">
        <ele>314</ele>
        <time>2022-09-11T09:45:45.448Z</time>
      </trkpt>
      <trkpt lat="44.12215" lon="2.26063">
        <ele>314</ele>
        <time>2022-09-11T09:45:46.448Z</time>
      </trkpt>
      <trkpt lat="44.12215" lon="2.26062">
        <ele>314</ele>
        <time>2022-09-11T09:45:47.448Z</time>
      </trkpt>
      <trkpt lat="44.12215" lon="2.26061">
        <ele>313</ele>
        <time>2022-09-11T09:45:48.448Z</time>
      </trkpt>
      <trkpt lat="44.12215" lon="2.2606">
        <ele>313</ele>
        <time>2022-09-11T09:45:49.448Z</time>
      </trkpt>
      <trkpt lat="44.12215" lon="2.2606">
        <ele>313</ele>
        <time>2022-09-11T09:45:50.448Z</time>
      </trkpt>
      <trkpt lat="44.12215" lon="2.26058">
        <ele>313</ele>
        <time>2022-09-11T09:45:51.448Z</time>
      </trkpt>
      <trkpt lat="44.12215" lon="2.26057">
        <ele>313</ele>
        <time>2022-09-11T09:45:52.448Z</time>
      </trkpt>
      <trkpt lat="44.12215" lon="2.26057">
        <ele>313</ele>
        <time>2022-09-11T09:45:53.448Z</time>
      </trkpt>
      <trkpt lat="44.12215" lon="2.26057">
        <ele>313</ele>
        <time>2022-09-11T09:45:54.448Z</time>
      </trkpt>
      <trkpt lat="44.12215" lon="2.26057">
        <ele>313</ele>
        <time>2022-09-11T09:45:55.448Z</time>
      </trkpt>
      <trkpt lat="44.12215" lon="2.26056">
        <ele>313</ele>
        <time>2022-09-11T09:45:56.448Z</time>
      </trkpt>
      <trkpt lat="44.12215" lon="2.26054">
        <ele>313</ele>
        <time>2022-09-11T09:45:59.704Z</time>
      </trkpt>
      <trkpt lat="44.12215" lon="2.26054">
        <ele>313</ele>
        <time>2022-09-11T09:46:00.704Z</time>
      </trkpt>
      <trkpt lat="44.12215" lon="2.26054">
        <ele>313</ele>
        <time>2022-09-11T09:46:01.704Z</time>
      </trkpt>
      <trkpt lat="44.12216" lon="2.26053">
        <ele>313</ele>
        <time>2022-09-11T09:46:02.704Z</time>
      </trkpt>
      <trkpt lat="44.12216" lon="2.26053">
        <ele>313</ele>
        <time>2022-09-11T09:46:03.704Z</time>
      </trkpt>
      <trkpt lat="44.12217" lon="2.26054">
        <ele>313</ele>
        <time>2022-09-11T09:46:04.704Z</time>
      </trkpt>
      <trkpt lat="44.12217" lon="2.26054">
        <ele>313</ele>
        <time>2022-09-11T09:46:05.704Z</time>
      </trkpt>
      <trkpt lat="44.12217" lon="2.26055">
        <ele>312</ele>
        <time>2022-09-11T09:46:06.704Z</time>
      </trkpt>
      <trkpt lat="44.12218" lon="2.26056">
        <ele>312</ele>
        <time>2022-09-11T09:46:07.704Z</time>
      </trkpt>
      <trkpt lat="44.12218" lon="2.26057">
        <ele>312</ele>
        <time>2022-09-11T09:46:08.704Z</time>
      </trkpt>
      <trkpt lat="44.12219" lon="2.26058">
        <ele>312</ele>
        <time>2022-09-11T09:46:09.704Z</time>
      </trkpt>
      <trkpt lat="44.12219" lon="2.26059">
        <ele>312</ele>
        <time>2022-09-11T09:46:10.704Z</time>
      </trkpt>
      <trkpt lat="44.1222" lon="2.2606">
        <ele>312</ele>
        <time>2022-09-11T09:46:11.704Z</time>
      </trkpt>
      <trkpt lat="44.1222" lon="2.2606">
        <ele>312</ele>
        <time>2022-09-11T09:46:12.704Z</time>
      </trkpt>
      <trkpt lat="44.12221" lon="2.26061">
        <ele>312</ele>
        <time>2022-09-11T09:46:13.704Z</time>
      </trkpt>
      <trkpt lat="44.12222" lon="2.26061">
        <ele>311</ele>
        <time>2022-09-11T09:46:14.704Z</time>
      </trkpt>
      <trkpt lat="44.12223" lon="2.26062">
        <ele>311</ele>
        <time>2022-09-11T09:46:15.704Z</time>
      </trkpt>
      <trkpt lat="44.12223" lon="2.26062">
        <ele>311</ele>
        <time>2022-09-11T09:46:16.704Z</time>
      </trkpt>
      <trkpt lat="44.12224" lon="2.26062">
        <ele>311</ele>
        <time>2022-09-11T09:46:17.704Z</time>
      </trkpt>
      <trkpt lat="44.12225" lon="2.26062">
        <ele>311</ele>
        <time>2022-09-11T09:46:18.704Z</time>
      </trkpt>
      <trkpt lat="44.12225" lon="2.26063">
        <ele>311</ele>
        <time>2022-09-11T09:46:19.704Z</time>
      </trkpt>
      <trkpt lat="44.12226" lon="2.26063">
        <ele>310</ele>
        <time>2022-09-11T09:46:20.704Z</time>
      </trkpt>
      <trkpt lat="44.12227" lon="2.26064">
        <ele>310</ele>
        <time>2022-09-11T09:46:21.704Z</time>
      </trkpt>
      <trkpt lat="44.12228" lon="2.26064">
        <ele>310</ele>
        <time>2022-09-11T09:46:22.704Z</time>
      </trkpt>
      <trkpt lat="44.12229" lon="2.26065">
        <ele>310</ele>
        <time>2022-09-11T09:46:23.704Z</time>
      </trkpt>
      <trkpt lat="44.1223" lon="2.26066">
        <ele>309</ele>
        <time>2022-09-11T09:46:24.704Z</time>
      </trkpt>
      <trkpt lat="44.1223" lon="2.26066">
        <ele>309</ele>
        <time>2022-09-11T09:46:25.704Z</time>
      </trkpt>
      <trkpt lat="44.12231" lon="2.26066">
        <ele>309</ele>
        <time>2022-09-11T09:46:26.704Z</time>
      </trkpt>
      <trkpt lat="44.12232" lon="2.26067">
        <ele>308</ele>
        <time>2022-09-11T09:46:27.704Z</time>
      </trkpt>
      <trkpt lat="44.12232" lon="2.26068">
        <ele>308</ele>
        <time>2022-09-11T09:46:28.704Z</time>
      </trkpt>
      <trkpt lat="44.12233" lon="2.26068">
        <ele>308</ele>
        <time>2022-09-11T09:46:29.704Z</time>
      </trkpt>
      <trkpt lat="44.12233" lon="2.26069">
        <ele>307</ele>
        <time>2022-09-11T09:46:30.704Z</time>
      </trkpt>
      <trkpt lat="44.12233" lon="2.2607">
        <ele>307</ele>
        <time>2022-09-11T09:46:31.704Z</time>
      </trkpt>
      <trkpt lat="44.12234" lon="2.26071">
        <ele>307</ele>
        <time>2022-09-11T09:46:32.704Z</time>
      </trkpt>
      <trkpt lat="44.12234" lon="2.26072">
        <ele>306</ele>
        <time>2022-09-11T09:46:33.704Z</time>
      </trkpt>
      <trkpt lat="44.12235" lon="2.26073">
        <ele>306</ele>
        <time>2022-09-11T09:46:34.704Z</time>
      </trkpt>
      <trkpt lat="44.12235" lon="2.26074">
        <ele>306</ele>
        <time>2022-09-11T09:46:35.704Z</time>
      </trkpt>
      <trkpt lat="44.12235" lon="2.26075">
        <ele>305</ele>
        <time>2022-09-11T09:46:36.704Z</time>
      </trkpt>
      <trkpt lat="44.12235" lon="2.26075">
        <ele>305</ele>
        <time>2022-09-11T09:46:37.704Z</time>
      </trkpt>
      <trkpt lat="44.12236" lon="2.26076">
        <ele>305</ele>
        <time>2022-09-11T09:46:38.704Z</time>
      </trkpt>
      <trkpt lat="44.12236" lon="2.26077">
        <ele>304</ele>
        <time>2022-09-11T09:46:39.704Z</time>
      </trkpt>
      <trkpt lat="44.12236" lon="2.26077">
        <ele>304</ele>
        <time>2022-09-11T09:46:40.704Z</time>
      </trkpt>
      <trkpt lat="44.12236" lon="2.26077">
        <ele>304</ele>
        <time>2022-09-11T09:46:41.704Z</time>
      </trkpt>
      <trkpt lat="44.12236" lon="2.26077">
        <ele>303</ele>
        <time>2022-09-11T09:46:42.704Z</time>
      </trkpt>
      <trkpt lat="44.12237" lon="2.26078">
        <ele>303</ele>
        <time>2022-09-11T09:46:43.704Z</time>
      </trkpt>
      <trkpt lat="44.12237" lon="2.26079">
        <ele>303</ele>
        <time>2022-09-11T09:46:44.704Z</time>
      </trkpt>
      <trkpt lat="44.12238" lon="2.26079">
        <ele>303</ele>
        <time>2022-09-11T09:46:45.704Z</time>
      </trkpt>
      <trkpt lat="44.12238" lon="2.2608">
        <ele>303</ele>
        <time>2022-09-11T09:46:46.704Z</time>
      </trkpt>
      <trkpt lat="44.12239" lon="2.2608">
        <ele>303</ele>
        <time>2022-09-11T09:46:47.704Z</time>
      </trkpt>
      <trkpt lat="44.12239" lon="2.26081">
        <ele>302</ele>
        <time>2022-09-11T09:46:48.704Z</time>
      </trkpt>
      <trkpt lat="44.12239" lon="2.26081">
        <ele>302</ele>
        <time>2022-09-11T09:46:49.704Z</time>
      </trkpt>
      <trkpt lat="44.1224" lon="2.26082">
        <ele>302</ele>
        <time>2022-09-11T09:46:50.704Z</time>
      </trkpt>
      <trkpt lat="44.1224" lon="2.26082">
        <ele>302</ele>
        <time>2022-09-11T09:46:51.704Z</time>
      </trkpt>
      <trkpt lat="44.1224" lon="2.26082">
        <ele>302</ele>
        <time>2022-09-11T09:46:52.704Z</time>
      </trkpt>
      <trkpt lat="44.1224" lon="2.26083">
        <ele>302</ele>
        <time>2022-09-11T09:46:53.704Z</time>
      </trkpt>
      <trkpt lat="44.12241" lon="2.26084">
        <ele>302</ele>
        <time>2022-09-11T09:46:54.704Z</time>
      </trkpt>
      <trkpt lat="44.12242" lon="2.26085">
        <ele>301</ele>
        <time>2022-09-11T09:46:55.704Z</time>
      </trkpt>
      <trkpt lat="44.12242" lon="2.26086">
        <ele>301</ele>
        <time>2022-09-11T09:46:56.704Z</time>
      </trkpt>
      <trkpt lat="44.12243" lon="2.26087">
        <ele>301</ele>
        <time>2022-09-11T09:46:57.704Z</time>
      </trkpt>
      <trkpt lat="44.12243" lon="2.26088">
        <ele>301</ele>
        <time>2022-09-11T09:46:58.704Z</time>
      </trkpt>
      <trkpt lat="44.12244" lon="2.26088">
        <ele>301</ele>
        <time>2022-09-11T09:46:59.704Z</time>
      </trkpt>
      <trkpt lat="44.12244" lon="2.26089">
        <ele>300</ele>
        <time>2022-09-11T09:47:00.704Z</time>
      </trkpt>
      <trkpt lat="44.12244" lon="2.2609">
        <ele>300</ele>
        <time>2022-09-11T09:47:01.704Z</time>
      </trkpt>
      <trkpt lat="44.12244" lon="2.2609">
        <ele>300</ele>
        <time>2022-09-11T09:47:02.704Z</time>
      </trkpt>
      <trkpt lat="44.12244" lon="2.26091">
        <ele>300</ele>
        <time>2022-09-11T09:47:03.704Z</time>
      </trkpt>
      <trkpt lat="44.12244" lon="2.26091">
        <ele>300</ele>
        <time>2022-09-11T09:47:04.704Z</time>
      </trkpt>
      <trkpt lat="44.12244" lon="2.26092">
        <ele>299</ele>
        <time>2022-09-11T09:47:05.704Z</time>
      </trkpt>
      <trkpt lat="44.12244" lon="2.26092">
        <ele>299</ele>
        <time>2022-09-11T09:47:06.704Z</time>
      </trkpt>
      <trkpt lat="44.12245" lon="2.26093">
        <ele>299</ele>
        <time>2022-09-11T09:47:07.704Z</time>
      </trkpt>
      <trkpt lat="44.12245" lon="2.26093">
        <ele>299</ele>
        <time>2022-09-11T09:47:08.704Z</time>
      </trkpt>
      <trkpt lat="44.12245" lon="2.26094">
        <ele>298</ele>
        <time>2022-09-11T09:47:09.704Z</time>
      </trkpt>
      <trkpt lat="44.12245" lon="2.26095">
        <ele>298</ele>
        <time>2022-09-11T09:47:10.704Z</time>
      </trkpt>
      <trkpt lat="44.12245" lon="2.26097">
        <ele>298</ele>
        <time>2022-09-11T09:47:11.704Z</time>
      </trkpt>
      <trkpt lat="44.12246" lon="2.26098">
        <ele>298</ele>
        <time>2022-09-11T09:47:12.704Z</time>
      </trkpt>
      <trkpt lat="44.12246" lon="2.26099">
        <ele>298</ele>
        <time>2022-09-11T09:47:13.704Z</time>
      </trkpt>
      <trkpt lat="44.12246" lon="2.261">
        <ele>297</ele>
        <time>2022-09-11T09:47:14.704Z</time>
      </trkpt>
      <trkpt lat="44.12246" lon="2.26102">
        <ele>297</ele>
        <time>2022-09-11T09:47:15.704Z</time>
      </trkpt>
      <trkpt lat="44.12247" lon="2.26103">
        <ele>297</ele>
        <time>2022-09-11T09:47:16.704Z</time>
      </trkpt>
      <trkpt lat="44.12247" lon="2.26104">
        <ele>297</ele>
        <time>2022-09-11T09:47:17.704Z</time>
      </trkpt>
      <trkpt lat="44.12247" lon="2.26105">
        <ele>297</ele>
        <time>2022-09-11T09:47:18.704Z</time>
      </trkpt>
      <trkpt lat="44.12247" lon="2.26106">
        <ele>297</ele>
        <time>2022-09-11T09:47:19.704Z</time>
      </trkpt>
      <trkpt lat="44.12248" lon="2.26107">
        <ele>297</ele>
        <time>2022-09-11T09:47:20.704Z</time>
      </trkpt>
      <trkpt lat="44.12248" lon="2.26108">
        <ele>297</ele>
        <time>2022-09-11T09:47:21.704Z</time>
      </trkpt>
      <trkpt lat="44.12249" lon="2.26109">
        <ele>296</ele>
        <time>2022-09-11T09:47:22.704Z</time>
      </trkpt>
      <trkpt lat="44.12249" lon="2.2611">
        <ele>296</ele>
        <time>2022-09-11T09:47:23.704Z</time>
      </trkpt>
      <trkpt lat="44.1225" lon="2.26111">
        <ele>296</ele>
        <time>2022-09-11T09:47:24.704Z</time>
      </trkpt>
      <trkpt lat="44.1225" lon="2.26113">
        <ele>296</ele>
        <time>2022-09-11T09:47:25.704Z</time>
      </trkpt>
      <trkpt lat="44.12251" lon="2.26114">
        <ele>296</ele>
        <time>2022-09-11T09:47:26.704Z</time>
      </trkpt>
      <trkpt lat="44.12251" lon="2.26115">
        <ele>296</ele>
        <time>2022-09-11T09:47:27.704Z</time>
      </trkpt>
      <trkpt lat="44.12251" lon="2.26117">
        <ele>296</ele>
        <time>2022-09-11T09:47:28.704Z</time>
      </trkpt>
      <trkpt lat="44.12251" lon="2.26118">
        <ele>295</ele>
        <time>2022-09-11T09:47:29.704Z</time>
      </trkpt>
      <trkpt lat="44.12251" lon="2.2612">
        <ele>295</ele>
        <time>2022-09-11T09:47:30.704Z</time>
      </trkpt>
      <trkpt lat="44.12251" lon="2.26122">
        <ele>295</ele>
        <time>2022-09-11T09:47:31.704Z</time>
      </trkpt>
      <trkpt lat="44.12251" lon="2.26123">
        <ele>295</ele>
        <time>2022-09-11T09:47:32.704Z</time>
      </trkpt>
      <trkpt lat="44.12251" lon="2.26124">
        <ele>295</ele>
        <time>2022-09-11T09:47:33.704Z</time>
      </trkpt>
      <trkpt lat="44.12251" lon="2.26126">
        <ele>295</ele>
        <time>2022-09-11T09:47:34.704Z</time>
      </trkpt>
      <trkpt lat="44.12251" lon="2.26127">
        <ele>295</ele>
        <time>2022-09-11T09:47:35.704Z</time>
      </trkpt>
      <trkpt lat="44.1225" lon="2.26128">
        <ele>294</ele>
        <time>2022-09-11T09:47:36.704Z</time>
      </trkpt>
      <trkpt lat="44.1225" lon="2.26129">
        <ele>294</ele>
        <time>2022-09-11T09:47:37.704Z</time>
      </trkpt>
      <trkpt lat="44.1225" lon="2.2613">
        <ele>294</ele>
        <time>2022-09-11T09:47:38.704Z</time>
      </trkpt>
      <trkpt lat="44.1225" lon="2.26131">
        <ele>294</ele>
        <time>2022-09-11T09:47:39.704Z</time>
      </trkpt>
      <trkpt lat="44.1225" lon="2.26132">
        <ele>294</ele>
        <time>2022-09-11T09:47:40.704Z</time>
      </trkpt>
      <trkpt lat="44.1225" lon="2.26134">
        <ele>294</ele>
        <time>2022-09-11T09:47:41.704Z</time>
      </trkpt>
      <trkpt lat="44.1225" lon="2.26135">
        <ele>294</ele>
        <time>2022-09-11T09:47:42.704Z</time>
      </trkpt>
      <trkpt lat="44.12251" lon="2.26136">
        <ele>294</ele>
        <time>2022-09-11T09:47:43.704Z</time>
      </trkpt>
      <trkpt lat="44.12251" lon="2.26138">
        <ele>294</ele>
        <time>2022-09-11T09:47:44.704Z</time>
      </trkpt>
      <trkpt lat="44.12251" lon="2.26139">
        <ele>293</ele>
        <time>2022-09-11T09:47:45.704Z</time>
      </trkpt>
      <trkpt lat="44.1225" lon="2.2614">
        <ele>293</ele>
        <time>2022-09-11T09:47:46.704Z</time>
      </trkpt>
      <trkpt lat="44.1225" lon="2.26141">
        <ele>293</ele>
        <time>2022-09-11T09:47:47.704Z</time>
      </trkpt>
      <trkpt lat="44.1225" lon="2.26142">
        <ele>293</ele>
        <time>2022-09-11T09:47:48.704Z</time>
      </trkpt>
      <trkpt lat="44.12251" lon="2.26144">
        <ele>293</ele>
        <time>2022-09-11T09:47:49.704Z</time>
      </trkpt>
      <trkpt lat="44.12252" lon="2.26145">
        <ele>293</ele>
        <time>2022-09-11T09:47:50.704Z</time>
      </trkpt>
      <trkpt lat="44.12252" lon="2.26146">
        <ele>293</ele>
        <time>2022-09-11T09:47:51.704Z</time>
      </trkpt>
      <trkpt lat="44.12252" lon="2.26147">
        <ele>293</ele>
        <time>2022-09-11T09:47:52.704Z</time>
      </trkpt>
      <trkpt lat="44.12253" lon="2.26148">
        <ele>293</ele>
        <time>2022-09-11T09:47:53.704Z</time>
      </trkpt>
      <trkpt lat="44.12253" lon="2.26149">
        <ele>293</ele>
        <time>2022-09-11T09:47:54.704Z</time>
      </trkpt>
      <trkpt lat="44.12254" lon="2.26151">
        <ele>293</ele>
        <time>2022-09-11T09:47:55.704Z</time>
      </trkpt>
      <trkpt lat="44.12254" lon="2.26151">
        <ele>292</ele>
        <time>2022-09-11T09:47:56.704Z</time>
      </trkpt>
      <trkpt lat="44.12255" lon="2.26152">
        <ele>292</ele>
        <time>2022-09-11T09:47:57.704Z</time>
      </trkpt>
      <trkpt lat="44.12255" lon="2.26154">
        <ele>292</ele>
        <time>2022-09-11T09:47:58.704Z</time>
      </trkpt>
      <trkpt lat="44.12255" lon="2.26155">
        <ele>292</ele>
        <time>2022-09-11T09:47:59.704Z</time>
      </trkpt>
      <trkpt lat="44.12256" lon="2.26156">
        <ele>292</ele>
        <time>2022-09-11T09:48:00.704Z</time>
      </trkpt>
      <trkpt lat="44.12256" lon="2.26157">
        <ele>291</ele>
        <time>2022-09-11T09:48:01.704Z</time>
      </trkpt>
      <trkpt lat="44.12257" lon="2.26157">
        <ele>291</ele>
        <time>2022-09-11T09:48:02.704Z</time>
      </trkpt>
      <trkpt lat="44.12258" lon="2.26159">
        <ele>291</ele>
        <time>2022-09-11T09:48:03.704Z</time>
      </trkpt>
      <trkpt lat="44.12259" lon="2.2616">
        <ele>291</ele>
        <time>2022-09-11T09:48:04.704Z</time>
      </trkpt>
      <trkpt lat="44.12259" lon="2.26161">
        <ele>291</ele>
        <time>2022-09-11T09:48:05.704Z</time>
      </trkpt>
      <trkpt lat="44.12259" lon="2.26162">
        <ele>291</ele>
        <time>2022-09-11T09:48:06.704Z</time>
      </trkpt>
      <trkpt lat="44.12259" lon="2.26163">
        <ele>291</ele>
        <time>2022-09-11T09:48:07.704Z</time>
      </trkpt>
      <trkpt lat="44.12259" lon="2.26164">
        <ele>291</ele>
        <time>2022-09-11T09:48:08.704Z</time>
      </trkpt>
      <trkpt lat="44.12259" lon="2.26165">
        <ele>291</ele>
        <time>2022-09-11T09:48:09.704Z</time>
      </trkpt>
      <trkpt lat="44.12259" lon="2.26166">
        <ele>291</ele>
        <time>2022-09-11T09:48:10.704Z</time>
      </trkpt>
      <trkpt lat="44.12259" lon="2.26167">
        <ele>291</ele>
        <time>2022-09-11T09:48:11.704Z</time>
      </trkpt>
      <trkpt lat="44.12259" lon="2.26168">
        <ele>291</ele>
        <time>2022-09-11T09:48:12.704Z</time>
      </trkpt>
      <trkpt lat="44.12259" lon="2.26169">
        <ele>291</ele>
        <time>2022-09-11T09:48:13.704Z</time>
      </trkpt>
      <trkpt lat="44.12259" lon="2.26169">
        <ele>291</ele>
        <time>2022-09-11T09:48:14.704Z</time>
      </trkpt>
      <trkpt lat="44.1226" lon="2.2617">
        <ele>291</ele>
        <time>2022-09-11T09:48:15.704Z</time>
      </trkpt>
      <trkpt lat="44.1226" lon="2.26171">
        <ele>291</ele>
        <time>2022-09-11T09:48:16.704Z</time>
      </trkpt>
      <trkpt lat="44.12261" lon="2.26173">
        <ele>291</ele>
        <time>2022-09-11T09:48:17.704Z</time>
      </trkpt>
      <trkpt lat="44.12261" lon="2.26174">
        <ele>291</ele>
        <time>2022-09-11T09:48:18.704Z</time>
      </trkpt>
      <trkpt lat="44.12261" lon="2.26175">
        <ele>291</ele>
        <time>2022-09-11T09:48:19.704Z</time>
      </trkpt>
      <trkpt lat="44.12261" lon="2.26176">
        <ele>291</ele>
        <time>2022-09-11T09:48:20.704Z</time>
      </trkpt>
      <trkpt lat="44.12261" lon="2.26177">
        <ele>291</ele>
        <time>2022-09-11T09:48:21.704Z</time>
      </trkpt>
      <trkpt lat="44.12261" lon="2.26178">
        <ele>291</ele>
        <time>2022-09-11T09:48:22.704Z</time>
      </trkpt>
      <trkpt lat="44.12261" lon="2.26179">
        <ele>291</ele>
        <time>2022-09-11T09:48:23.704Z</time>
      </trkpt>
      <trkpt lat="44.12262" lon="2.2618">
        <ele>291</ele>
        <time>2022-09-11T09:48:24.704Z</time>
      </trkpt>
      <trkpt lat="44.12262" lon="2.26181">
        <ele>291</ele>
        <time>2022-09-11T09:48:25.704Z</time>
      </trkpt>
      <trkpt lat="44.12263" lon="2.26182">
        <ele>291</ele>
        <time>2022-09-11T09:48:26.704Z</time>
      </trkpt>
      <trkpt lat="44.12263" lon="2.26183">
        <ele>291</ele>
        <time>2022-09-11T09:48:27.704Z</time>
      </trkpt>
      <trkpt lat="44.12264" lon="2.26184">
        <ele>291</ele>
        <time>2022-09-11T09:48:28.704Z</time>
      </trkpt>
      <trkpt lat="44.12264" lon="2.26186">
        <ele>291</ele>
        <time>2022-09-11T09:48:29.704Z</time>
      </trkpt>
      <trkpt lat="44.12265" lon="2.26187">
        <ele>291</ele>
        <time>2022-09-11T09:48:30.704Z</time>
      </trkpt>
      <trkpt lat="44.12265" lon="2.26189">
        <ele>291</ele>
        <time>2022-09-11T09:48:31.704Z</time>
      </trkpt>
      <trkpt lat="44.12266" lon="2.2619">
        <ele>291</ele>
        <time>2022-09-11T09:48:32.704Z</time>
      </trkpt>
      <trkpt lat="44.12266" lon="2.26192">
        <ele>291</ele>
        <time>2022-09-11T09:48:33.704Z</time>
      </trkpt>
      <trkpt lat="44.12267" lon="2.26193">
        <ele>291</ele>
        <time>2022-09-11T09:48:34.704Z</time>
      </trkpt>
      <trkpt lat="44.12267" lon="2.26195">
        <ele>291</ele>
        <time>2022-09-11T09:48:35.704Z</time>
      </trkpt>
      <trkpt lat="44.12267" lon="2.26196">
        <ele>291</ele>
        <time>2022-09-11T09:48:36.704Z</time>
      </trkpt>
      <trkpt lat="44.12268" lon="2.26197">
        <ele>291</ele>
        <time>2022-09-11T09:48:37.704Z</time>
      </trkpt>
      <trkpt lat="44.12268" lon="2.26198">
        <ele>291</ele>
        <time>2022-09-11T09:48:38.704Z</time>
      </trkpt>
      <trkpt lat="44.12268" lon="2.26199">
        <ele>291</ele>
        <time>2022-09-11T09:48:39.704Z</time>
      </trkpt>
      <trkpt lat="44.12269" lon="2.26199">
        <ele>291</ele>
        <time>2022-09-11T09:48:40.704Z</time>
      </trkpt>
      <trkpt lat="44.12269" lon="2.262">
        <ele>292</ele>
        <time>2022-09-11T09:48:41.704Z</time>
      </trkpt>
      <trkpt lat="44.1227" lon="2.26201">
        <ele>292</ele>
        <time>2022-09-11T09:48:42.704Z</time>
      </trkpt>
      <trkpt lat="44.1227" lon="2.26202">
        <ele>292</ele>
        <time>2022-09-11T09:48:43.704Z</time>
      </trkpt>
      <trkpt lat="44.12271" lon="2.26202">
        <ele>292</ele>
        <time>2022-09-11T09:48:44.704Z</time>
      </trkpt>
      <trkpt lat="44.12271" lon="2.26203">
        <ele>292</ele>
        <time>2022-09-11T09:48:45.704Z</time>
      </trkpt>
      <trkpt lat="44.12272" lon="2.26204">
        <ele>292</ele>
        <time>2022-09-11T09:48:46.704Z</time>
      </trkpt>
      <trkpt lat="44.12272" lon="2.26204">
        <ele>292</ele>
        <time>2022-09-11T09:48:47.704Z</time>
      </trkpt>
      <trkpt lat="44.12272" lon="2.26205">
        <ele>292</ele>
        <time>2022-09-11T09:48:48.704Z</time>
      </trkpt>
      <trkpt lat="44.12272" lon="2.26205">
        <ele>292</ele>
        <time>2022-09-11T09:48:49.704Z</time>
      </trkpt>
      <trkpt lat="44.12273" lon="2.26202">
        <ele>293</ele>
        <time>2022-09-11T09:49:00.708Z</time>
      </trkpt>
      <trkpt lat="44.12273" lon="2.26201">
        <ele>293</ele>
        <time>2022-09-11T09:49:01.708Z</time>
      </trkpt>
      <trkpt lat="44.12273" lon="2.262">
        <ele>293</ele>
        <time>2022-09-11T09:49:02.708Z</time>
      </trkpt>
      <trkpt lat="44.12274" lon="2.26199">
        <ele>293</ele>
        <time>2022-09-11T09:49:03.708Z</time>
      </trkpt>
      <trkpt lat="44.12274" lon="2.26198">
        <ele>293</ele>
        <time>2022-09-11T09:49:04.708Z</time>
      </trkpt>
      <trkpt lat="44.12274" lon="2.26198">
        <ele>293</ele>
        <time>2022-09-11T09:49:05.708Z</time>
      </trkpt>
      <trkpt lat="44.12274" lon="2.26197">
        <ele>293</ele>
        <time>2022-09-11T09:49:06.708Z</time>
      </trkpt>
      <trkpt lat="44.12274" lon="2.26196">
        <ele>293</ele>
        <time>2022-09-11T09:49:07.708Z</time>
      </trkpt>
      <trkpt lat="44.12274" lon="2.26196">
        <ele>293</ele>
        <time>2022-09-11T09:49:08.708Z</time>
      </trkpt>
      <trkpt lat="44.12274" lon="2.26195">
        <ele>293</ele>
        <time>2022-09-11T09:49:09.708Z</time>
      </trkpt>
      <trkpt lat="44.12274" lon="2.26194">
        <ele>293</ele>
        <time>2022-09-11T09:49:10.708Z</time>
      </trkpt>
      <trkpt lat="44.12274" lon="2.26194">
        <ele>293</ele>
        <time>2022-09-11T09:49:11.708Z</time>
      </trkpt>
      <trkpt lat="44.12274" lon="2.26193">
        <ele>293</ele>
        <time>2022-09-11T09:49:12.708Z</time>
      </trkpt>
      <trkpt lat="44.12274" lon="2.26192">
        <ele>292</ele>
        <time>2022-09-11T09:49:13.708Z</time>
      </trkpt>
      <trkpt lat="44.12274" lon="2.26192">
        <ele>292</ele>
        <time>2022-09-11T09:49:14.708Z</time>
      </trkpt>
      <trkpt lat="44.12275" lon="2.26192">
        <ele>292</ele>
        <time>2022-09-11T09:49:15.708Z</time>
      </trkpt>
      <trkpt lat="44.12275" lon="2.26193">
        <ele>292</ele>
        <time>2022-09-11T09:49:16.708Z</time>
      </trkpt>
      <trkpt lat="44.12276" lon="2.26194">
        <ele>292</ele>
        <time>2022-09-11T09:49:17.708Z</time>
      </trkpt>
      <trkpt lat="44.12277" lon="2.26195">
        <ele>291</ele>
        <time>2022-09-11T09:49:18.708Z</time>
      </trkpt>
      <trkpt lat="44.12277" lon="2.26195">
        <ele>291</ele>
        <time>2022-09-11T09:49:19.708Z</time>
      </trkpt>
      <trkpt lat="44.12277" lon="2.26195">
        <ele>291</ele>
        <time>2022-09-11T09:49:20.708Z</time>
      </trkpt>
      <trkpt lat="44.12278" lon="2.26196">
        <ele>291</ele>
        <time>2022-09-11T09:49:21.708Z</time>
      </trkpt>
      <trkpt lat="44.12278" lon="2.26197">
        <ele>291</ele>
        <time>2022-09-11T09:49:22.708Z</time>
      </trkpt>
      <trkpt lat="44.12279" lon="2.26197">
        <ele>290</ele>
        <time>2022-09-11T09:49:23.708Z</time>
      </trkpt>
      <trkpt lat="44.12279" lon="2.26197">
        <ele>290</ele>
        <time>2022-09-11T09:49:24.708Z</time>
      </trkpt>
      <trkpt lat="44.12279" lon="2.26196">
        <ele>290</ele>
        <time>2022-09-11T09:49:25.708Z</time>
      </trkpt>
      <trkpt lat="44.12279" lon="2.26195">
        <ele>290</ele>
        <time>2022-09-11T09:49:26.708Z</time>
      </trkpt>
      <trkpt lat="44.12279" lon="2.26194">
        <ele>290</ele>
        <time>2022-09-11T09:49:27.708Z</time>
      </trkpt>
      <trkpt lat="44.12279" lon="2.26192">
        <ele>289</ele>
        <time>2022-09-11T09:49:28.708Z</time>
      </trkpt>
      <trkpt lat="44.12279" lon="2.26191">
        <ele>289</ele>
        <time>2022-09-11T09:49:29.708Z</time>
      </trkpt>
      <trkpt lat="44.12279" lon="2.2619">
        <ele>289</ele>
        <time>2022-09-11T09:49:30.708Z</time>
      </trkpt>
      <trkpt lat="44.12279" lon="2.2619">
        <ele>289</ele>
        <time>2022-09-11T09:49:31.708Z</time>
      </trkpt>
      <trkpt lat="44.12279" lon="2.26189">
        <ele>289</ele>
        <time>2022-09-11T09:49:32.708Z</time>
      </trkpt>
      <trkpt lat="44.12279" lon="2.26188">
        <ele>288</ele>
        <time>2022-09-11T09:49:33.708Z</time>
      </trkpt>
      <trkpt lat="44.12279" lon="2.26187">
        <ele>288</ele>
        <time>2022-09-11T09:49:34.708Z</time>
      </trkpt>
      <trkpt lat="44.12278" lon="2.26186">
        <ele>288</ele>
        <time>2022-09-11T09:49:35.708Z</time>
      </trkpt>
      <trkpt lat="44.12278" lon="2.26185">
        <ele>288</ele>
        <time>2022-09-11T09:49:36.708Z</time>
      </trkpt>
      <trkpt lat="44.12278" lon="2.26184">
        <ele>288</ele>
        <time>2022-09-11T09:49:37.708Z</time>
      </trkpt>
      <trkpt lat="44.12278" lon="2.26183">
        <ele>288</ele>
        <time>2022-09-11T09:49:38.708Z</time>
      </trkpt>
      <trkpt lat="44.12278" lon="2.26183">
        <ele>288</ele>
        <time>2022-09-11T09:49:39.708Z</time>
      </trkpt>
      <trkpt lat="44.12277" lon="2.26182">
        <ele>288</ele>
        <time>2022-09-11T09:49:40.708Z</time>
      </trkpt>
      <trkpt lat="44.12277" lon="2.26182">
        <ele>288</ele>
        <time>2022-09-11T09:49:41.708Z</time>
      </trkpt>
      <trkpt lat="44.12276" lon="2.26181">
        <ele>287</ele>
        <time>2022-09-11T09:49:42.708Z</time>
      </trkpt>
      <trkpt lat="44.12276" lon="2.2618">
        <ele>287</ele>
        <time>2022-09-11T09:49:43.708Z</time>
      </trkpt>
      <trkpt lat="44.12276" lon="2.2618">
        <ele>287</ele>
        <time>2022-09-11T09:49:44.708Z</time>
      </trkpt>
      <trkpt lat="44.12276" lon="2.26179">
        <ele>287</ele>
        <time>2022-09-11T09:49:45.708Z</time>
      </trkpt>
      <trkpt lat="44.12276" lon="2.26178">
        <ele>287</ele>
        <time>2022-09-11T09:49:46.708Z</time>
      </trkpt>
      <trkpt lat="44.12276" lon="2.26178">
        <ele>287</ele>
        <time>2022-09-11T09:49:47.708Z</time>
      </trkpt>
      <trkpt lat="44.12276" lon="2.26177">
        <ele>286</ele>
        <time>2022-09-11T09:49:48.708Z</time>
      </trkpt>
      <trkpt lat="44.12277" lon="2.26176">
        <ele>286</ele>
        <time>2022-09-11T09:49:49.708Z</time>
      </trkpt>
      <trkpt lat="44.12277" lon="2.26175">
        <ele>286</ele>
        <time>2022-09-11T09:49:50.708Z</time>
      </trkpt>
      <trkpt lat="44.12277" lon="2.26174">
        <ele>286</ele>
        <time>2022-09-11T09:49:51.708Z</time>
      </trkpt>
      <trkpt lat="44.12278" lon="2.26173">
        <ele>285</ele>
        <time>2022-09-11T09:49:52.708Z</time>
      </trkpt>
      <trkpt lat="44.12278" lon="2.26172">
        <ele>285</ele>
        <time>2022-09-11T09:49:53.708Z</time>
      </trkpt>
      <trkpt lat="44.12279" lon="2.26171">
        <ele>285</ele>
        <time>2022-09-11T09:49:54.708Z</time>
      </trkpt>
      <trkpt lat="44.12279" lon="2.2617">
        <ele>285</ele>
        <time>2022-09-11T09:49:55.708Z</time>
      </trkpt>
      <trkpt lat="44.12279" lon="2.26168">
        <ele>285</ele>
        <time>2022-09-11T09:49:56.708Z</time>
      </trkpt>
      <trkpt lat="44.1228" lon="2.26167">
        <ele>285</ele>
        <time>2022-09-11T09:49:57.708Z</time>
      </trkpt>
      <trkpt lat="44.1228" lon="2.26166">
        <ele>285</ele>
        <time>2022-09-11T09:49:58.708Z</time>
      </trkpt>
      <trkpt lat="44.1228" lon="2.26165">
        <ele>285</ele>
        <time>2022-09-11T09:49:59.708Z</time>
      </trkpt>
      <trkpt lat="44.1228" lon="2.26164">
        <ele>285</ele>
        <time>2022-09-11T09:50:00.708Z</time>
      </trkpt>
      <trkpt lat="44.12281" lon="2.26163">
        <ele>285</ele>
        <time>2022-09-11T09:50:01.708Z</time>
      </trkpt>
      <trkpt lat="44.12281" lon="2.26162">
        <ele>284</ele>
        <time>2022-09-11T09:50:02.708Z</time>
      </trkpt>
      <trkpt lat="44.1228" lon="2.26161">
        <ele>284</ele>
        <time>2022-09-11T09:50:03.708Z</time>
      </trkpt>
      <trkpt lat="44.1228" lon="2.26159">
        <ele>284</ele>
        <time>2022-09-11T09:50:04.708Z</time>
      </trkpt>
      <trkpt lat="44.1228" lon="2.26158">
        <ele>284</ele>
        <time>2022-09-11T09:50:05.708Z</time>
      </trkpt>
      <trkpt lat="44.1228" lon="2.26157">
        <ele>284</ele>
        <time>2022-09-11T09:50:06.708Z</time>
      </trkpt>
      <trkpt lat="44.1228" lon="2.26156">
        <ele>284</ele>
        <time>2022-09-11T09:50:07.708Z</time>
      </trkpt>
      <trkpt lat="44.1228" lon="2.26155">
        <ele>284</ele>
        <time>2022-09-11T09:50:08.708Z</time>
      </trkpt>
      <trkpt lat="44.1228" lon="2.26154">
        <ele>283</ele>
        <time>2022-09-11T09:50:09.708Z</time>
      </trkpt>
      <trkpt lat="44.1228" lon="2.26153">
        <ele>283</ele>
        <time>2022-09-11T09:50:10.708Z</time>
      </trkpt>
      <trkpt lat="44.1228" lon="2.26152">
        <ele>283</ele>
        <time>2022-09-11T09:50:11.708Z</time>
      </trkpt>
      <trkpt lat="44.12281" lon="2.26152">
        <ele>283</ele>
        <time>2022-09-11T09:50:12.708Z</time>
      </trkpt>
      <trkpt lat="44.12281" lon="2.26152">
        <ele>283</ele>
        <time>2022-09-11T09:50:13.708Z</time>
      </trkpt>
      <trkpt lat="44.12281" lon="2.26152">
        <ele>282</ele>
        <time>2022-09-11T09:50:14.708Z</time>
      </trkpt>
      <trkpt lat="44.12282" lon="2.26152">
        <ele>282</ele>
        <time>2022-09-11T09:50:15.708Z</time>
      </trkpt>
      <trkpt lat="44.12282" lon="2.26152">
        <ele>282</ele>
        <time>2022-09-11T09:50:16.708Z</time>
      </trkpt>
      <trkpt lat="44.12282" lon="2.26153">
        <ele>282</ele>
        <time>2022-09-11T09:50:17.708Z</time>
      </trkpt>
      <trkpt lat="44.12283" lon="2.26153">
        <ele>280</ele>
        <time>2022-09-11T09:50:26.712Z</time>
      </trkpt>
      <trkpt lat="44.12284" lon="2.26153">
        <ele>280</ele>
        <time>2022-09-11T09:50:27.712Z</time>
      </trkpt>
      <trkpt lat="44.12284" lon="2.26153">
        <ele>280</ele>
        <time>2022-09-11T09:50:28.712Z</time>
      </trkpt>
      <trkpt lat="44.12284" lon="2.26153">
        <ele>280</ele>
        <time>2022-09-11T09:50:29.712Z</time>
      </trkpt>
      <trkpt lat="44.12284" lon="2.26154">
        <ele>280</ele>
        <time>2022-09-11T09:50:30.712Z</time>
      </trkpt>
      <trkpt lat="44.12285" lon="2.26155">
        <ele>280</ele>
        <time>2022-09-11T09:50:33.966Z</time>
      </trkpt>
      <trkpt lat="44.12285" lon="2.26155">
        <ele>279</ele>
        <time>2022-09-11T09:50:34.966Z</time>
      </trkpt>
      <trkpt lat="44.12286" lon="2.26156">
        <ele>279</ele>
        <time>2022-09-11T09:50:35.966Z</time>
      </trkpt>
      <trkpt lat="44.12286" lon="2.26156">
        <ele>279</ele>
        <time>2022-09-11T09:50:36.966Z</time>
      </trkpt>
      <trkpt lat="44.12286" lon="2.26157">
        <ele>279</ele>
        <time>2022-09-11T09:50:37.966Z</time>
      </trkpt>
      <trkpt lat="44.12287" lon="2.26157">
        <ele>279</ele>
        <time>2022-09-11T09:50:38.966Z</time>
      </trkpt>
      <trkpt lat="44.12287" lon="2.26158">
        <ele>279</ele>
        <time>2022-09-11T09:50:39.966Z</time>
      </trkpt>
      <trkpt lat="44.12288" lon="2.26159">
        <ele>278</ele>
        <time>2022-09-11T09:50:40.966Z</time>
      </trkpt>
      <trkpt lat="44.12288" lon="2.26159">
        <ele>278</ele>
        <time>2022-09-11T09:50:41.966Z</time>
      </trkpt>
      <trkpt lat="44.12288" lon="2.2616">
        <ele>278</ele>
        <time>2022-09-11T09:50:42.966Z</time>
      </trkpt>
      <trkpt lat="44.12288" lon="2.2616">
        <ele>278</ele>
        <time>2022-09-11T09:50:43.966Z</time>
      </trkpt>
      <trkpt lat="44.12288" lon="2.26161">
        <ele>278</ele>
        <time>2022-09-11T09:50:44.966Z</time>
      </trkpt>
      <trkpt lat="44.12289" lon="2.26161">
        <ele>278</ele>
        <time>2022-09-11T09:50:45.966Z</time>
      </trkpt>
      <trkpt lat="44.12289" lon="2.26162">
        <ele>278</ele>
        <time>2022-09-11T09:50:46.966Z</time>
      </trkpt>
      <trkpt lat="44.1229" lon="2.26162">
        <ele>278</ele>
        <time>2022-09-11T09:50:47.966Z</time>
      </trkpt>
      <trkpt lat="44.1229" lon="2.26163">
        <ele>278</ele>
        <time>2022-09-11T09:50:48.966Z</time>
      </trkpt>
      <trkpt lat="44.12291" lon="2.26164">
        <ele>277</ele>
        <time>2022-09-11T09:50:49.966Z</time>
      </trkpt>
      <trkpt lat="44.12291" lon="2.26164">
        <ele>277</ele>
        <time>2022-09-11T09:50:50.966Z</time>
      </trkpt>
      <trkpt lat="44.12291" lon="2.26165">
        <ele>277</ele>
        <time>2022-09-11T09:50:51.966Z</time>
      </trkpt>
      <trkpt lat="44.12292" lon="2.26165">
        <ele>277</ele>
        <time>2022-09-11T09:50:52.966Z</time>
      </trkpt>
      <trkpt lat="44.12292" lon="2.26165">
        <ele>277</ele>
        <time>2022-09-11T09:50:53.966Z</time>
      </trkpt>
      <trkpt lat="44.12292" lon="2.26165">
        <ele>277</ele>
        <time>2022-09-11T09:50:54.966Z</time>
      </trkpt>
      <trkpt lat="44.12292" lon="2.26166">
        <ele>277</ele>
        <time>2022-09-11T09:50:55.966Z</time>
      </trkpt>
      <trkpt lat="44.12295" lon="2.26165">
        <ele>276</ele>
        <time>2022-09-11T09:51:07.972Z</time>
      </trkpt>
      <trkpt lat="44.12295" lon="2.26164">
        <ele>276</ele>
        <time>2022-09-11T09:51:08.972Z</time>
      </trkpt>
      <trkpt lat="44.12295" lon="2.26164">
        <ele>276</ele>
        <time>2022-09-11T09:51:09.972Z</time>
      </trkpt>
      <trkpt lat="44.12295" lon="2.26164">
        <ele>276</ele>
        <time>2022-09-11T09:51:10.972Z</time>
      </trkpt>
      <trkpt lat="44.12296" lon="2.26163">
        <ele>276</ele>
        <time>2022-09-11T09:51:11.972Z</time>
      </trkpt>
      <trkpt lat="44.12296" lon="2.26163">
        <ele>276</ele>
        <time>2022-09-11T09:51:12.972Z</time>
      </trkpt>
      <trkpt lat="44.12296" lon="2.26162">
        <ele>276</ele>
        <time>2022-09-11T09:51:13.972Z</time>
      </trkpt>
      <trkpt lat="44.12296" lon="2.26162">
        <ele>276</ele>
        <time>2022-09-11T09:51:14.972Z</time>
      </trkpt>
      <trkpt lat="44.12296" lon="2.26161">
        <ele>276</ele>
        <time>2022-09-11T09:51:15.972Z</time>
      </trkpt>
      <trkpt lat="44.12298" lon="2.26162">
        <ele>275</ele>
        <time>2022-09-11T09:51:38.977Z</time>
      </trkpt>
      <trkpt lat="44.12299" lon="2.26162">
        <ele>275</ele>
        <time>2022-09-11T09:51:39.977Z</time>
      </trkpt>
      <trkpt lat="44.123" lon="2.26163">
        <ele>275</ele>
        <time>2022-09-11T09:51:40.977Z</time>
      </trkpt>
      <trkpt lat="44.123" lon="2.26163">
        <ele>275</ele>
        <time>2022-09-11T09:51:41.977Z</time>
      </trkpt>
      <trkpt lat="44.12301" lon="2.26164">
        <ele>274</ele>
        <time>2022-09-11T09:51:42.977Z</time>
      </trkpt>
      <trkpt lat="44.12301" lon="2.26164">
        <ele>274</ele>
        <time>2022-09-11T09:51:43.977Z</time>
      </trkpt>
      <trkpt lat="44.12302" lon="2.26165">
        <ele>274</ele>
        <time>2022-09-11T09:51:44.977Z</time>
      </trkpt>
      <trkpt lat="44.12303" lon="2.26165">
        <ele>274</ele>
        <time>2022-09-11T09:51:45.977Z</time>
      </trkpt>
      <trkpt lat="44.12303" lon="2.26165">
        <ele>273</ele>
        <time>2022-09-11T09:51:46.977Z</time>
      </trkpt>
      <trkpt lat="44.12303" lon="2.26165">
        <ele>273</ele>
        <time>2022-09-11T09:51:47.977Z</time>
      </trkpt>
      <trkpt lat="44.12304" lon="2.26163">
        <ele>271</ele>
        <time>2022-09-11T09:52:28.982Z</time>
      </trkpt>
      <trkpt lat="44.12304" lon="2.26163">
        <ele>271</ele>
        <time>2022-09-11T09:52:29.982Z</time>
      </trkpt>
      <trkpt lat="44.12293" lon="2.26154">
        <ele>270</ele>
        <time>2022-09-11T09:55:04.990Z</time>
      </trkpt>
      <trkpt lat="44.12293" lon="2.26153">
        <ele>270</ele>
        <time>2022-09-11T09:55:05.990Z</time>
      </trkpt>
      <trkpt lat="44.12293" lon="2.26152">
        <ele>270</ele>
        <time>2022-09-11T09:55:06.990Z</time>
      </trkpt>
      <trkpt lat="44.12293" lon="2.26151">
        <ele>270</ele>
        <time>2022-09-11T09:55:07.990Z</time>
      </trkpt>
      <trkpt lat="44.12292" lon="2.2615">
        <ele>270</ele>
        <time>2022-09-11T09:55:08.990Z</time>
      </trkpt>
      <trkpt lat="44.12292" lon="2.26148">
        <ele>270</ele>
        <time>2022-09-11T09:55:09.990Z</time>
      </trkpt>
      <trkpt lat="44.12292" lon="2.26147">
        <ele>270</ele>
        <time>2022-09-11T09:55:10.990Z</time>
      </trkpt>
      <trkpt lat="44.12291" lon="2.26146">
        <ele>270</ele>
        <time>2022-09-11T09:55:11.990Z</time>
      </trkpt>
      <trkpt lat="44.12291" lon="2.26145">
        <ele>270</ele>
        <time>2022-09-11T09:55:12.990Z</time>
      </trkpt>
      <trkpt lat="44.12291" lon="2.26144">
        <ele>270</ele>
        <time>2022-09-11T09:55:13.990Z</time>
      </trkpt>
      <trkpt lat="44.12291" lon="2.26142">
        <ele>270</ele>
        <time>2022-09-11T09:55:14.990Z</time>
      </trkpt>
      <trkpt lat="44.12291" lon="2.26141">
        <ele>270</ele>
        <time>2022-09-11T09:55:15.990Z</time>
      </trkpt>
      <trkpt lat="44.12291" lon="2.26139">
        <ele>270</ele>
        <time>2022-09-11T09:55:16.990Z</time>
      </trkpt>
      <trkpt lat="44.12291" lon="2.26137">
        <ele>270</ele>
        <time>2022-09-11T09:55:17.990Z</time>
      </trkpt>
      <trkpt lat="44.12291" lon="2.26136">
        <ele>270</ele>
        <time>2022-09-11T09:55:18.990Z</time>
      </trkpt>
      <trkpt lat="44.12291" lon="2.26134">
        <ele>270</ele>
        <time>2022-09-11T09:55:19.990Z</time>
      </trkpt>
      <trkpt lat="44.12291" lon="2.26133">
        <ele>270</ele>
        <time>2022-09-11T09:55:20.990Z</time>
      </trkpt>
      <trkpt lat="44.12291" lon="2.26132">
        <ele>270</ele>
        <time>2022-09-11T09:55:21.990Z</time>
      </trkpt>
      <trkpt lat="44.12292" lon="2.26131">
        <ele>270</ele>
        <time>2022-09-11T09:55:22.990Z</time>
      </trkpt>
      <trkpt lat="44.12292" lon="2.26129">
        <ele>270</ele>
        <time>2022-09-11T09:55:23.990Z</time>
      </trkpt>
      <trkpt lat="44.12291" lon="2.26128">
        <ele>270</ele>
        <time>2022-09-11T09:55:24.990Z</time>
      </trkpt>
      <trkpt lat="44.12291" lon="2.26127">
        <ele>270</ele>
        <time>2022-09-11T09:55:25.990Z</time>
      </trkpt>
      <trkpt lat="44.12291" lon="2.26126">
        <ele>270</ele>
        <time>2022-09-11T09:55:26.990Z</time>
      </trkpt>
      <trkpt lat="44.12291" lon="2.26125">
        <ele>270</ele>
        <time>2022-09-11T09:55:27.990Z</time>
      </trkpt>
      <trkpt lat="44.12292" lon="2.26124">
        <ele>270</ele>
        <time>2022-09-11T09:55:28.990Z</time>
      </trkpt>
      <trkpt lat="44.12292" lon="2.26121">
        <ele>271</ele>
        <time>2022-09-11T09:55:32.244Z</time>
      </trkpt>
      <trkpt lat="44.12291" lon="2.2612">
        <ele>271</ele>
        <time>2022-09-11T09:55:33.244Z</time>
      </trkpt>
      <trkpt lat="44.12291" lon="2.26119">
        <ele>271</ele>
        <time>2022-09-11T09:55:34.244Z</time>
      </trkpt>
      <trkpt lat="44.12291" lon="2.26117">
        <ele>271</ele>
        <time>2022-09-11T09:55:35.244Z</time>
      </trkpt>
      <trkpt lat="44.1229" lon="2.26116">
        <ele>271</ele>
        <time>2022-09-11T09:55:36.244Z</time>
      </trkpt>
      <trkpt lat="44.1229" lon="2.26114">
        <ele>271</ele>
        <time>2022-09-11T09:55:37.244Z</time>
      </trkpt>
      <trkpt lat="44.1229" lon="2.26113">
        <ele>271</ele>
        <time>2022-09-11T09:55:38.244Z</time>
      </trkpt>
      <trkpt lat="44.12289" lon="2.26112">
        <ele>271</ele>
        <time>2022-09-11T09:55:39.244Z</time>
      </trkpt>
      <trkpt lat="44.12289" lon="2.2611">
        <ele>272</ele>
        <time>2022-09-11T09:55:40.244Z</time>
      </trkpt>
      <trkpt lat="44.12289" lon="2.26109">
        <ele>272</ele>
        <time>2022-09-11T09:55:41.244Z</time>
      </trkpt>
      <trkpt lat="44.12288" lon="2.26107">
        <ele>272</ele>
        <time>2022-09-11T09:55:42.244Z</time>
      </trkpt>
      <trkpt lat="44.12288" lon="2.26106">
        <ele>272</ele>
        <time>2022-09-11T09:55:43.244Z</time>
      </trkpt>
      <trkpt lat="44.12288" lon="2.26104">
        <ele>272</ele>
        <time>2022-09-11T09:55:44.244Z</time>
      </trkpt>
      <trkpt lat="44.12287" lon="2.26103">
        <ele>272</ele>
        <time>2022-09-11T09:55:45.244Z</time>
      </trkpt>
      <trkpt lat="44.12287" lon="2.26101">
        <ele>272</ele>
        <time>2022-09-11T09:55:46.244Z</time>
      </trkpt>
      <trkpt lat="44.12286" lon="2.261">
        <ele>272</ele>
        <time>2022-09-11T09:55:47.244Z</time>
      </trkpt>
      <trkpt lat="44.12286" lon="2.26099">
        <ele>272</ele>
        <time>2022-09-11T09:55:48.244Z</time>
      </trkpt>
      <trkpt lat="44.12285" lon="2.26097">
        <ele>272</ele>
        <time>2022-09-11T09:55:49.244Z</time>
      </trkpt>
      <trkpt lat="44.12285" lon="2.26096">
        <ele>272</ele>
        <time>2022-09-11T09:55:50.244Z</time>
      </trkpt>
      <trkpt lat="44.12284" lon="2.26094">
        <ele>272</ele>
        <time>2022-09-11T09:55:51.244Z</time>
      </trkpt>
      <trkpt lat="44.12283" lon="2.26093">
        <ele>272</ele>
        <time>2022-09-11T09:55:52.244Z</time>
      </trkpt>
      <trkpt lat="44.12283" lon="2.26092">
        <ele>272</ele>
        <time>2022-09-11T09:55:53.244Z</time>
      </trkpt>
      <trkpt lat="44.12282" lon="2.2609">
        <ele>272</ele>
        <time>2022-09-11T09:55:54.244Z</time>
      </trkpt>
      <trkpt lat="44.12282" lon="2.26089">
        <ele>272</ele>
        <time>2022-09-11T09:55:55.244Z</time>
      </trkpt>
      <trkpt lat="44.12281" lon="2.26088">
        <ele>272</ele>
        <time>2022-09-11T09:55:56.244Z</time>
      </trkpt>
      <trkpt lat="44.12281" lon="2.26087">
        <ele>272</ele>
        <time>2022-09-11T09:55:57.244Z</time>
      </trkpt>
      <trkpt lat="44.1228" lon="2.26085">
        <ele>272</ele>
        <time>2022-09-11T09:55:58.244Z</time>
      </trkpt>
      <trkpt lat="44.1228" lon="2.26084">
        <ele>273</ele>
        <time>2022-09-11T09:55:59.244Z</time>
      </trkpt>
      <trkpt lat="44.1228" lon="2.26083">
        <ele>273</ele>
        <time>2022-09-11T09:56:00.244Z</time>
      </trkpt>
      <trkpt lat="44.12279" lon="2.26081">
        <ele>273</ele>
        <time>2022-09-11T09:56:01.244Z</time>
      </trkpt>
      <trkpt lat="44.12279" lon="2.2608">
        <ele>273</ele>
        <time>2022-09-11T09:56:02.244Z</time>
      </trkpt>
      <trkpt lat="44.12279" lon="2.26078">
        <ele>273</ele>
        <time>2022-09-11T09:56:03.244Z</time>
      </trkpt>
      <trkpt lat="44.12278" lon="2.26077">
        <ele>273</ele>
        <time>2022-09-11T09:56:04.244Z</time>
      </trkpt>
      <trkpt lat="44.12278" lon="2.26075">
        <ele>273</ele>
        <time>2022-09-11T09:56:05.244Z</time>
      </trkpt>
      <trkpt lat="44.12278" lon="2.26073">
        <ele>273</ele>
        <time>2022-09-11T09:56:06.244Z</time>
      </trkpt>
      <trkpt lat="44.12277" lon="2.26072">
        <ele>273</ele>
        <time>2022-09-11T09:56:07.244Z</time>
      </trkpt>
      <trkpt lat="44.12277" lon="2.2607">
        <ele>273</ele>
        <time>2022-09-11T09:56:08.244Z</time>
      </trkpt>
      <trkpt lat="44.12276" lon="2.26068">
        <ele>274</ele>
        <time>2022-09-11T09:56:09.244Z</time>
      </trkpt>
      <trkpt lat="44.12276" lon="2.26066">
        <ele>274</ele>
        <time>2022-09-11T09:56:10.244Z</time>
      </trkpt>
      <trkpt lat="44.12275" lon="2.26065">
        <ele>274</ele>
        <time>2022-09-11T09:56:11.244Z</time>
      </trkpt>
      <trkpt lat="44.12274" lon="2.26064">
        <ele>274</ele>
        <time>2022-09-11T09:56:12.244Z</time>
      </trkpt>
      <trkpt lat="44.12274" lon="2.26062">
        <ele>274</ele>
        <time>2022-09-11T09:56:13.244Z</time>
      </trkpt>
      <trkpt lat="44.12273" lon="2.26061">
        <ele>274</ele>
        <time>2022-09-11T09:56:14.244Z</time>
      </trkpt>
      <trkpt lat="44.12273" lon="2.26059">
        <ele>274</ele>
        <time>2022-09-11T09:56:15.244Z</time>
      </trkpt>
      <trkpt lat="44.12272" lon="2.26058">
        <ele>274</ele>
        <time>2022-09-11T09:56:16.244Z</time>
      </trkpt>
      <trkpt lat="44.12272" lon="2.26057">
        <ele>274</ele>
        <time>2022-09-11T09:56:17.244Z</time>
      </trkpt>
      <trkpt lat="44.12272" lon="2.26056">
        <ele>274</ele>
        <time>2022-09-11T09:56:18.244Z</time>
      </trkpt>
      <trkpt lat="44.12272" lon="2.26054">
        <ele>274</ele>
        <time>2022-09-11T09:56:19.244Z</time>
      </trkpt>
      <trkpt lat="44.12272" lon="2.26053">
        <ele>274</ele>
        <time>2022-09-11T09:56:20.244Z</time>
      </trkpt>
      <trkpt lat="44.12273" lon="2.26052">
        <ele>274</ele>
        <time>2022-09-11T09:56:21.244Z</time>
      </trkpt>
      <trkpt lat="44.12273" lon="2.26051">
        <ele>274</ele>
        <time>2022-09-11T09:56:22.244Z</time>
      </trkpt>
      <trkpt lat="44.12273" lon="2.2605">
        <ele>274</ele>
        <time>2022-09-11T09:56:23.244Z</time>
      </trkpt>
      <trkpt lat="44.12274" lon="2.26049">
        <ele>274</ele>
        <time>2022-09-11T09:56:24.244Z</time>
      </trkpt>
      <trkpt lat="44.12274" lon="2.26048">
        <ele>274</ele>
        <time>2022-09-11T09:56:25.244Z</time>
      </trkpt>
      <trkpt lat="44.12274" lon="2.26046">
        <ele>274</ele>
        <time>2022-09-11T09:56:26.244Z</time>
      </trkpt>
      <trkpt lat="44.12274" lon="2.26045">
        <ele>274</ele>
        <time>2022-09-11T09:56:27.244Z</time>
      </trkpt>
      <trkpt lat="44.12274" lon="2.26044">
        <ele>274</ele>
        <time>2022-09-11T09:56:28.244Z</time>
      </trkpt>
      <trkpt lat="44.12274" lon="2.26043">
        <ele>274</ele>
        <time>2022-09-11T09:56:29.244Z</time>
      </trkpt>
      <trkpt lat="44.12273" lon="2.26042">
        <ele>275</ele>
        <time>2022-09-11T09:56:30.244Z</time>
      </trkpt>
      <trkpt lat="44.12273" lon="2.2604">
        <ele>275</ele>
        <time>2022-09-11T09:56:31.244Z</time>
      </trkpt>
      <trkpt lat="44.12273" lon="2.26039">
        <ele>275</ele>
        <time>2022-09-11T09:56:32.244Z</time>
      </trkpt>
      <trkpt lat="44.12272" lon="2.26038">
        <ele>275</ele>
        <time>2022-09-11T09:56:33.244Z</time>
      </trkpt>
      <trkpt lat="44.12272" lon="2.26037">
        <ele>275</ele>
        <time>2022-09-11T09:56:34.244Z</time>
      </trkpt>
      <trkpt lat="44.12271" lon="2.26036">
        <ele>275</ele>
        <time>2022-09-11T09:56:35.244Z</time>
      </trkpt>
      <trkpt lat="44.12271" lon="2.26034">
        <ele>275</ele>
        <time>2022-09-11T09:56:36.244Z</time>
      </trkpt>
      <trkpt lat="44.12271" lon="2.26033">
        <ele>275</ele>
        <time>2022-09-11T09:56:37.244Z</time>
      </trkpt>
      <trkpt lat="44.1227" lon="2.26031">
        <ele>275</ele>
        <time>2022-09-11T09:56:38.244Z</time>
      </trkpt>
      <trkpt lat="44.1227" lon="2.2603">
        <ele>275</ele>
        <time>2022-09-11T09:56:39.244Z</time>
      </trkpt>
      <trkpt lat="44.1227" lon="2.26028">
        <ele>275</ele>
        <time>2022-09-11T09:56:40.244Z</time>
      </trkpt>
      <trkpt lat="44.12269" lon="2.26027">
        <ele>275</ele>
        <time>2022-09-11T09:56:41.244Z</time>
      </trkpt>
      <trkpt lat="44.1227" lon="2.26025">
        <ele>275</ele>
        <time>2022-09-11T09:56:42.244Z</time>
      </trkpt>
      <trkpt lat="44.1227" lon="2.26024">
        <ele>276</ele>
        <time>2022-09-11T09:56:43.244Z</time>
      </trkpt>
      <trkpt lat="44.1227" lon="2.26023">
        <ele>276</ele>
        <time>2022-09-11T09:56:44.244Z</time>
      </trkpt>
      <trkpt lat="44.12269" lon="2.26021">
        <ele>276</ele>
        <time>2022-09-11T09:56:45.244Z</time>
      </trkpt>
      <trkpt lat="44.12269" lon="2.2602">
        <ele>276</ele>
        <time>2022-09-11T09:56:46.244Z</time>
      </trkpt>
      <trkpt lat="44.12268" lon="2.26019">
        <ele>276</ele>
        <time>2022-09-11T09:56:47.244Z</time>
      </trkpt>
      <trkpt lat="44.12268" lon="2.26018">
        <ele>276</ele>
        <time>2022-09-11T09:56:48.244Z</time>
      </trkpt>
      <trkpt lat="44.12268" lon="2.26016">
        <ele>276</ele>
        <time>2022-09-11T09:56:49.244Z</time>
      </trkpt>
      <trkpt lat="44.12268" lon="2.26015">
        <ele>276</ele>
        <time>2022-09-11T09:56:50.244Z</time>
      </trkpt>
      <trkpt lat="44.12268" lon="2.26013">
        <ele>276</ele>
        <time>2022-09-11T09:56:51.244Z</time>
      </trkpt>
      <trkpt lat="44.12267" lon="2.26012">
        <ele>276</ele>
        <time>2022-09-11T09:56:52.244Z</time>
      </trkpt>
      <trkpt lat="44.12267" lon="2.2601">
        <ele>276</ele>
        <time>2022-09-11T09:56:53.244Z</time>
      </trkpt>
      <trkpt lat="44.12266" lon="2.26008">
        <ele>276</ele>
        <time>2022-09-11T09:56:54.244Z</time>
      </trkpt>
      <trkpt lat="44.12266" lon="2.26006">
        <ele>276</ele>
        <time>2022-09-11T09:56:55.244Z</time>
      </trkpt>
      <trkpt lat="44.12265" lon="2.26005">
        <ele>276</ele>
        <time>2022-09-11T09:56:56.244Z</time>
      </trkpt>
      <trkpt lat="44.12265" lon="2.26003">
        <ele>276</ele>
        <time>2022-09-11T09:56:57.244Z</time>
      </trkpt>
      <trkpt lat="44.12264" lon="2.26001">
        <ele>276</ele>
        <time>2022-09-11T09:56:58.244Z</time>
      </trkpt>
      <trkpt lat="44.12264" lon="2.26">
        <ele>276</ele>
        <time>2022-09-11T09:56:59.244Z</time>
      </trkpt>
      <trkpt lat="44.12263" lon="2.25998">
        <ele>276</ele>
        <time>2022-09-11T09:57:00.244Z</time>
      </trkpt>
      <trkpt lat="44.12263" lon="2.25997">
        <ele>276</ele>
        <time>2022-09-11T09:57:01.244Z</time>
      </trkpt>
      <trkpt lat="44.12263" lon="2.25995">
        <ele>276</ele>
        <time>2022-09-11T09:57:02.244Z</time>
      </trkpt>
      <trkpt lat="44.12262" lon="2.25993">
        <ele>276</ele>
        <time>2022-09-11T09:57:03.244Z</time>
      </trkpt>
      <trkpt lat="44.12262" lon="2.25991">
        <ele>276</ele>
        <time>2022-09-11T09:57:04.244Z</time>
      </trkpt>
      <trkpt lat="44.12262" lon="2.25989">
        <ele>276</ele>
        <time>2022-09-11T09:57:05.244Z</time>
      </trkpt>
      <trkpt lat="44.12262" lon="2.25988">
        <ele>276</ele>
        <time>2022-09-11T09:57:06.244Z</time>
      </trkpt>
      <trkpt lat="44.12262" lon="2.25986">
        <ele>276</ele>
        <time>2022-09-11T09:57:07.244Z</time>
      </trkpt>
      <trkpt lat="44.12262" lon="2.25984">
        <ele>276</ele>
        <time>2022-09-11T09:57:08.244Z</time>
      </trkpt>
      <trkpt lat="44.12262" lon="2.25982">
        <ele>276</ele>
        <time>2022-09-11T09:57:09.244Z</time>
      </trkpt>
      <trkpt lat="44.12263" lon="2.25981">
        <ele>276</ele>
        <time>2022-09-11T09:57:10.244Z</time>
      </trkpt>
      <trkpt lat="44.12263" lon="2.25979">
        <ele>276</ele>
        <time>2022-09-11T09:57:11.244Z</time>
      </trkpt>
      <trkpt lat="44.12263" lon="2.25978">
        <ele>276</ele>
        <time>2022-09-11T09:57:12.244Z</time>
      </trkpt>
      <trkpt lat="44.12263" lon="2.25976">
        <ele>276</ele>
        <time>2022-09-11T09:57:13.244Z</time>
      </trkpt>
      <trkpt lat="44.12264" lon="2.25975">
        <ele>276</ele>
        <time>2022-09-11T09:57:14.244Z</time>
      </trkpt>
      <trkpt lat="44.12264" lon="2.25973">
        <ele>276</ele>
        <time>2022-09-11T09:57:15.244Z</time>
      </trkpt>
      <trkpt lat="44.12264" lon="2.25972">
        <ele>276</ele>
        <time>2022-09-11T09:57:16.244Z</time>
      </trkpt>
      <trkpt lat="44.12264" lon="2.2597">
        <ele>276</ele>
        <time>2022-09-11T09:57:17.244Z</time>
      </trkpt>
      <trkpt lat="44.12264" lon="2.25968">
        <ele>276</ele>
        <time>2022-09-11T09:57:18.244Z</time>
      </trkpt>
      <trkpt lat="44.12264" lon="2.25966">
        <ele>276</ele>
        <time>2022-09-11T09:57:19.244Z</time>
      </trkpt>
      <trkpt lat="44.12264" lon="2.25964">
        <ele>276</ele>
        <time>2022-09-11T09:57:20.244Z</time>
      </trkpt>
      <trkpt lat="44.12264" lon="2.25962">
        <ele>276</ele>
        <time>2022-09-11T09:57:21.244Z</time>
      </trkpt>
      <trkpt lat="44.12263" lon="2.2596">
        <ele>276</ele>
        <time>2022-09-11T09:57:22.244Z</time>
      </trkpt>
      <trkpt lat="44.12263" lon="2.25958">
        <ele>276</ele>
        <time>2022-09-11T09:57:23.244Z</time>
      </trkpt>
      <trkpt lat="44.12263" lon="2.25957">
        <ele>276</ele>
        <time>2022-09-11T09:57:24.244Z</time>
      </trkpt>
      <trkpt lat="44.12263" lon="2.25955">
        <ele>276</ele>
        <time>2022-09-11T09:57:25.244Z</time>
      </trkpt>
      <trkpt lat="44.12264" lon="2.25953">
        <ele>276</ele>
        <time>2022-09-11T09:57:26.244Z</time>
      </trkpt>
      <trkpt lat="44.12264" lon="2.25951">
        <ele>276</ele>
        <time>2022-09-11T09:57:27.244Z</time>
      </trkpt>
      <trkpt lat="44.12264" lon="2.25949">
        <ele>276</ele>
        <time>2022-09-11T09:57:28.244Z</time>
      </trkpt>
      <trkpt lat="44.12264" lon="2.25948">
        <ele>276</ele>
        <time>2022-09-11T09:57:29.244Z</time>
      </trkpt>
      <trkpt lat="44.12264" lon="2.25946">
        <ele>276</ele>
        <time>2022-09-11T09:57:30.244Z</time>
      </trkpt>
      <trkpt lat="44.12265" lon="2.25945">
        <ele>276</ele>
        <time>2022-09-11T09:57:31.244Z</time>
      </trkpt>
      <trkpt lat="44.12265" lon="2.25943">
        <ele>276</ele>
        <time>2022-09-11T09:57:32.244Z</time>
      </trkpt>
      <trkpt lat="44.12266" lon="2.25942">
        <ele>276</ele>
        <time>2022-09-11T09:57:33.244Z</time>
      </trkpt>
      <trkpt lat="44.12266" lon="2.25941">
        <ele>276</ele>
        <time>2022-09-11T09:57:34.244Z</time>
      </trkpt>
      <trkpt lat="44.12267" lon="2.25941">
        <ele>276</ele>
        <time>2022-09-11T09:57:35.244Z</time>
      </trkpt>
      <trkpt lat="44.12268" lon="2.2594">
        <ele>276</ele>
        <time>2022-09-11T09:57:36.244Z</time>
      </trkpt>
      <trkpt lat="44.12269" lon="2.2594">
        <ele>276</ele>
        <time>2022-09-11T09:57:37.244Z</time>
      </trkpt>
      <trkpt lat="44.1227" lon="2.25939">
        <ele>276</ele>
        <time>2022-09-11T09:57:38.244Z</time>
      </trkpt>
      <trkpt lat="44.12271" lon="2.2594">
        <ele>276</ele>
        <time>2022-09-11T09:57:39.244Z</time>
      </trkpt>
      <trkpt lat="44.12272" lon="2.2594">
        <ele>276</ele>
        <time>2022-09-11T09:57:40.244Z</time>
      </trkpt>
      <trkpt lat="44.12273" lon="2.2594">
        <ele>276</ele>
        <time>2022-09-11T09:57:41.244Z</time>
      </trkpt>
      <trkpt lat="44.12274" lon="2.25941">
        <ele>276</ele>
        <time>2022-09-11T09:57:42.244Z</time>
      </trkpt>
      <trkpt lat="44.12274" lon="2.25942">
        <ele>276</ele>
        <time>2022-09-11T09:57:43.244Z</time>
      </trkpt>
      <trkpt lat="44.12275" lon="2.25943">
        <ele>276</ele>
        <time>2022-09-11T09:57:44.244Z</time>
      </trkpt>
      <trkpt lat="44.12276" lon="2.25943">
        <ele>276</ele>
        <time>2022-09-11T09:57:45.244Z</time>
      </trkpt>
      <trkpt lat="44.12277" lon="2.25944">
        <ele>276</ele>
        <time>2022-09-11T09:57:46.244Z</time>
      </trkpt>
      <trkpt lat="44.12277" lon="2.25944">
        <ele>277</ele>
        <time>2022-09-11T09:57:47.244Z</time>
      </trkpt>
      <trkpt lat="44.12278" lon="2.25945">
        <ele>277</ele>
        <time>2022-09-11T09:57:48.244Z</time>
      </trkpt>
      <trkpt lat="44.12279" lon="2.25945">
        <ele>277</ele>
        <time>2022-09-11T09:57:49.244Z</time>
      </trkpt>
      <trkpt lat="44.12279" lon="2.25946">
        <ele>277</ele>
        <time>2022-09-11T09:57:50.244Z</time>
      </trkpt>
      <trkpt lat="44.1228" lon="2.25947">
        <ele>277</ele>
        <time>2022-09-11T09:57:51.244Z</time>
      </trkpt>
      <trkpt lat="44.1228" lon="2.25947">
        <ele>277</ele>
        <time>2022-09-11T09:57:52.244Z</time>
      </trkpt>
      <trkpt lat="44.12281" lon="2.25947">
        <ele>277</ele>
        <time>2022-09-11T09:57:53.244Z</time>
      </trkpt>
      <trkpt lat="44.12281" lon="2.25947">
        <ele>277</ele>
        <time>2022-09-11T09:57:54.244Z</time>
      </trkpt>
      <trkpt lat="44.12281" lon="2.25947">
        <ele>277</ele>
        <time>2022-09-11T09:57:55.244Z</time>
      </trkpt>
      <trkpt lat="44.12282" lon="2.2595">
        <ele>278</ele>
        <time>2022-09-11T09:58:04.242Z</time>
      </trkpt>
      <trkpt lat="44.12283" lon="2.25951">
        <ele>278</ele>
        <time>2022-09-11T09:58:05.242Z</time>
      </trkpt>
      <trkpt lat="44.12284" lon="2.25952">
        <ele>278</ele>
        <time>2022-09-11T09:58:06.242Z</time>
      </trkpt>
      <trkpt lat="44.12284" lon="2.25953">
        <ele>278</ele>
        <time>2022-09-11T09:58:07.242Z</time>
      </trkpt>
      <trkpt lat="44.12285" lon="2.25953">
        <ele>279</ele>
        <time>2022-09-11T09:58:08.242Z</time>
      </trkpt>
      <trkpt lat="44.12285" lon="2.25954">
        <ele>279</ele>
        <time>2022-09-11T09:58:09.242Z</time>
      </trkpt>
      <trkpt lat="44.12286" lon="2.25954">
        <ele>279</ele>
        <time>2022-09-11T09:58:10.242Z</time>
      </trkpt>
      <trkpt lat="44.12286" lon="2.25955">
        <ele>279</ele>
        <time>2022-09-11T09:58:11.242Z</time>
      </trkpt>
      <trkpt lat="44.12287" lon="2.25956">
        <ele>279</ele>
        <time>2022-09-11T09:58:12.242Z</time>
      </trkpt>
      <trkpt lat="44.12288" lon="2.25957">
        <ele>279</ele>
        <time>2022-09-11T09:58:13.242Z</time>
      </trkpt>
      <trkpt lat="44.12289" lon="2.25958">
        <ele>279</ele>
        <time>2022-09-11T09:58:14.242Z</time>
      </trkpt>
      <trkpt lat="44.1229" lon="2.2596">
        <ele>279</ele>
        <time>2022-09-11T09:58:15.242Z</time>
      </trkpt>
      <trkpt lat="44.1229" lon="2.25961">
        <ele>279</ele>
        <time>2022-09-11T09:58:16.242Z</time>
      </trkpt>
      <trkpt lat="44.12291" lon="2.25962">
        <ele>279</ele>
        <time>2022-09-11T09:58:17.242Z</time>
      </trkpt>
      <trkpt lat="44.12292" lon="2.25964">
        <ele>279</ele>
        <time>2022-09-11T09:58:18.242Z</time>
      </trkpt>
      <trkpt lat="44.12292" lon="2.25964">
        <ele>279</ele>
        <time>2022-09-11T09:58:19.242Z</time>
      </trkpt>
      <trkpt lat="44.12293" lon="2.25965">
        <ele>279</ele>
        <time>2022-09-11T09:58:20.242Z</time>
      </trkpt>
      <trkpt lat="44.12294" lon="2.25967">
        <ele>279</ele>
        <time>2022-09-11T09:58:21.242Z</time>
      </trkpt>
      <trkpt lat="44.12295" lon="2.25968">
        <ele>279</ele>
        <time>2022-09-11T09:58:22.242Z</time>
      </trkpt>
      <trkpt lat="44.12296" lon="2.25969">
        <ele>280</ele>
        <time>2022-09-11T09:58:23.242Z</time>
      </trkpt>
      <trkpt lat="44.12296" lon="2.25969">
        <ele>280</ele>
        <time>2022-09-11T09:58:24.242Z</time>
      </trkpt>
      <trkpt lat="44.12297" lon="2.2597">
        <ele>280</ele>
        <time>2022-09-11T09:58:25.242Z</time>
      </trkpt>
      <trkpt lat="44.12297" lon="2.25971">
        <ele>280</ele>
        <time>2022-09-11T09:58:26.242Z</time>
      </trkpt>
      <trkpt lat="44.12298" lon="2.25972">
        <ele>280</ele>
        <time>2022-09-11T09:58:27.242Z</time>
      </trkpt>
      <trkpt lat="44.12298" lon="2.25973">
        <ele>280</ele>
        <time>2022-09-11T09:58:28.242Z</time>
      </trkpt>
      <trkpt lat="44.12299" lon="2.25974">
        <ele>280</ele>
        <time>2022-09-11T09:58:29.242Z</time>
      </trkpt>
      <trkpt lat="44.12299" lon="2.25974">
        <ele>280</ele>
        <time>2022-09-11T09:58:30.242Z</time>
      </trkpt>
      <trkpt lat="44.123" lon="2.25975">
        <ele>280</ele>
        <time>2022-09-11T09:58:31.242Z</time>
      </trkpt>
      <trkpt lat="44.123" lon="2.25976">
        <ele>280</ele>
        <time>2022-09-11T09:58:32.242Z</time>
      </trkpt>
      <trkpt lat="44.12301" lon="2.25976">
        <ele>280</ele>
        <time>2022-09-11T09:58:33.242Z</time>
      </trkpt>
      <trkpt lat="44.12301" lon="2.25977">
        <ele>280</ele>
        <time>2022-09-11T09:58:34.242Z</time>
      </trkpt>
      <trkpt lat="44.12302" lon="2.25978">
        <ele>280</ele>
        <time>2022-09-11T09:58:35.242Z</time>
      </trkpt>
      <trkpt lat="44.12302" lon="2.25979">
        <ele>280</ele>
        <time>2022-09-11T09:58:36.242Z</time>
      </trkpt>
      <trkpt lat="44.12303" lon="2.2598">
        <ele>281</ele>
        <time>2022-09-11T09:58:37.242Z</time>
      </trkpt>
      <trkpt lat="44.12304" lon="2.25981">
        <ele>281</ele>
        <time>2022-09-11T09:58:38.242Z</time>
      </trkpt>
      <trkpt lat="44.12304" lon="2.25982">
        <ele>281</ele>
        <time>2022-09-11T09:58:39.242Z</time>
      </trkpt>
      <trkpt lat="44.12305" lon="2.25984">
        <ele>281</ele>
        <time>2022-09-11T09:58:40.242Z</time>
      </trkpt>
      <trkpt lat="44.12305" lon="2.25985">
        <ele>281</ele>
        <time>2022-09-11T09:58:41.242Z</time>
      </trkpt>
      <trkpt lat="44.12306" lon="2.25985">
        <ele>282</ele>
        <time>2022-09-11T09:58:42.242Z</time>
      </trkpt>
      <trkpt lat="44.12306" lon="2.25986">
        <ele>282</ele>
        <time>2022-09-11T09:58:43.242Z</time>
      </trkpt>
      <trkpt lat="44.12307" lon="2.25987">
        <ele>282</ele>
        <time>2022-09-11T09:58:44.242Z</time>
      </trkpt>
      <trkpt lat="44.12307" lon="2.25988">
        <ele>282</ele>
        <time>2022-09-11T09:58:45.242Z</time>
      </trkpt>
      <trkpt lat="44.12308" lon="2.25989">
        <ele>283</ele>
        <time>2022-09-11T09:58:46.242Z</time>
      </trkpt>
      <trkpt lat="44.12309" lon="2.2599">
        <ele>283</ele>
        <time>2022-09-11T09:58:47.242Z</time>
      </trkpt>
      <trkpt lat="44.1231" lon="2.25991">
        <ele>283</ele>
        <time>2022-09-11T09:58:48.242Z</time>
      </trkpt>
      <trkpt lat="44.1231" lon="2.25992">
        <ele>283</ele>
        <time>2022-09-11T09:58:49.242Z</time>
      </trkpt>
      <trkpt lat="44.12311" lon="2.25993">
        <ele>283</ele>
        <time>2022-09-11T09:58:50.242Z</time>
      </trkpt>
      <trkpt lat="44.12311" lon="2.25994">
        <ele>284</ele>
        <time>2022-09-11T09:58:51.242Z</time>
      </trkpt>
      <trkpt lat="44.12312" lon="2.25994">
        <ele>284</ele>
        <time>2022-09-11T09:58:52.242Z</time>
      </trkpt>
      <trkpt lat="44.12312" lon="2.25995">
        <ele>284</ele>
        <time>2022-09-11T09:58:53.242Z</time>
      </trkpt>
      <trkpt lat="44.12312" lon="2.25996">
        <ele>284</ele>
        <time>2022-09-11T09:58:54.242Z</time>
      </trkpt>
      <trkpt lat="44.12312" lon="2.25997">
        <ele>284</ele>
        <time>2022-09-11T09:58:55.242Z</time>
      </trkpt>
      <trkpt lat="44.12312" lon="2.25998">
        <ele>284</ele>
        <time>2022-09-11T09:58:56.242Z</time>
      </trkpt>
      <trkpt lat="44.12313" lon="2.25999">
        <ele>284</ele>
        <time>2022-09-11T09:58:57.242Z</time>
      </trkpt>
      <trkpt lat="44.12313" lon="2.26">
        <ele>284</ele>
        <time>2022-09-11T09:58:58.242Z</time>
      </trkpt>
      <trkpt lat="44.12313" lon="2.26">
        <ele>284</ele>
        <time>2022-09-11T09:58:59.242Z</time>
      </trkpt>
      <trkpt lat="44.12313" lon="2.26001">
        <ele>284</ele>
        <time>2022-09-11T09:59:00.242Z</time>
      </trkpt>
      <trkpt lat="44.12314" lon="2.26002">
        <ele>284</ele>
        <time>2022-09-11T09:59:01.242Z</time>
      </trkpt>
      <trkpt lat="44.12314" lon="2.26003">
        <ele>284</ele>
        <time>2022-09-11T09:59:02.242Z</time>
      </trkpt>
      <trkpt lat="44.12314" lon="2.26003">
        <ele>285</ele>
        <time>2022-09-11T09:59:03.242Z</time>
      </trkpt>
      <trkpt lat="44.12315" lon="2.26004">
        <ele>285</ele>
        <time>2022-09-11T09:59:04.242Z</time>
      </trkpt>
      <trkpt lat="44.12315" lon="2.26004">
        <ele>285</ele>
        <time>2022-09-11T09:59:05.242Z</time>
      </trkpt>
      <trkpt lat="44.12316" lon="2.26005">
        <ele>285</ele>
        <time>2022-09-11T09:59:06.242Z</time>
      </trkpt>
      <trkpt lat="44.12316" lon="2.26006">
        <ele>285</ele>
        <time>2022-09-11T09:59:07.242Z</time>
      </trkpt>
      <trkpt lat="44.12316" lon="2.26007">
        <ele>285</ele>
        <time>2022-09-11T09:59:08.242Z</time>
      </trkpt>
      <trkpt lat="44.12317" lon="2.26008">
        <ele>286</ele>
        <time>2022-09-11T09:59:09.242Z</time>
      </trkpt>
      <trkpt lat="44.12317" lon="2.26009">
        <ele>286</ele>
        <time>2022-09-11T09:59:10.242Z</time>
      </trkpt>
      <trkpt lat="44.12318" lon="2.26009">
        <ele>286</ele>
        <time>2022-09-11T09:59:11.242Z</time>
      </trkpt>
      <trkpt lat="44.12318" lon="2.26009">
        <ele>286</ele>
        <time>2022-09-11T09:59:12.242Z</time>
      </trkpt>
      <trkpt lat="44.12318" lon="2.26009">
        <ele>286</ele>
        <time>2022-09-11T09:59:13.242Z</time>
      </trkpt>
      <trkpt lat="44.12319" lon="2.2601">
        <ele>286</ele>
        <time>2022-09-11T09:59:14.242Z</time>
      </trkpt>
      <trkpt lat="44.12319" lon="2.2601">
        <ele>286</ele>
        <time>2022-09-11T09:59:15.242Z</time>
      </trkpt>
      <trkpt lat="44.12319" lon="2.2601">
        <ele>286</ele>
        <time>2022-09-11T09:59:16.242Z</time>
      </trkpt>
      <trkpt lat="44.1232" lon="2.26009">
        <ele>286</ele>
        <time>2022-09-11T09:59:19.498Z</time>
      </trkpt>
      <trkpt lat="44.12321" lon="2.26008">
        <ele>286</ele>
        <time>2022-09-11T09:59:20.498Z</time>
      </trkpt>
      <trkpt lat="44.12321" lon="2.26008">
        <ele>287</ele>
        <time>2022-09-11T09:59:21.498Z</time>
      </trkpt>
      <trkpt lat="44.12321" lon="2.26008">
        <ele>287</ele>
        <time>2022-09-11T09:59:22.498Z</time>
      </trkpt>
      <trkpt lat="44.12321" lon="2.26008">
        <ele>287</ele>
        <time>2022-09-11T09:59:23.498Z</time>
      </trkpt>
      <trkpt lat="44.12321" lon="2.26008">
        <ele>287</ele>
        <time>2022-09-11T09:59:24.498Z</time>
      </trkpt>
      <trkpt lat="44.1232" lon="2.26006">
        <ele>287</ele>
        <time>2022-09-11T09:59:28.498Z</time>
      </trkpt>
      <trkpt lat="44.1232" lon="2.26006">
        <ele>287</ele>
        <time>2022-09-11T09:59:29.498Z</time>
      </trkpt>
      <trkpt lat="44.1232" lon="2.26005">
        <ele>287</ele>
        <time>2022-09-11T09:59:30.498Z</time>
      </trkpt>
      <trkpt lat="44.1232" lon="2.26005">
        <ele>287</ele>
        <time>2022-09-11T09:59:31.498Z</time>
      </trkpt>
      <trkpt lat="44.12321" lon="2.26005">
        <ele>287</ele>
        <time>2022-09-11T09:59:32.498Z</time>
      </trkpt>
      <trkpt lat="44.12321" lon="2.26005">
        <ele>287</ele>
        <time>2022-09-11T09:59:33.498Z</time>
      </trkpt>
      <trkpt lat="44.12321" lon="2.26005">
        <ele>287</ele>
        <time>2022-09-11T09:59:34.498Z</time>
      </trkpt>
      <trkpt lat="44.12322" lon="2.26005">
        <ele>287</ele>
        <time>2022-09-11T09:59:35.498Z</time>
      </trkpt>
      <trkpt lat="44.12322" lon="2.26006">
        <ele>287</ele>
        <time>2022-09-11T09:59:36.498Z</time>
      </trkpt>
      <trkpt lat="44.12323" lon="2.26006">
        <ele>287</ele>
        <time>2022-09-11T09:59:37.498Z</time>
      </trkpt>
      <trkpt lat="44.12323" lon="2.26007">
        <ele>287</ele>
        <time>2022-09-11T09:59:38.498Z</time>
      </trkpt>
      <trkpt lat="44.12324" lon="2.26007">
        <ele>287</ele>
        <time>2022-09-11T09:59:39.498Z</time>
      </trkpt>
      <trkpt lat="44.12324" lon="2.26008">
        <ele>287</ele>
        <time>2022-09-11T09:59:40.498Z</time>
      </trkpt>
      <trkpt lat="44.12324" lon="2.26008">
        <ele>287</ele>
        <time>2022-09-11T09:59:41.498Z</time>
      </trkpt>
      <trkpt lat="44.12325" lon="2.26008">
        <ele>287</ele>
        <time>2022-09-11T09:59:42.498Z</time>
      </trkpt>
      <trkpt lat="44.12326" lon="2.26008">
        <ele>287</ele>
        <time>2022-09-11T09:59:43.498Z</time>
      </trkpt>
      <trkpt lat="44.12326" lon="2.26008">
        <ele>287</ele>
        <time>2022-09-11T09:59:44.498Z</time>
      </trkpt>
      <trkpt lat="44.12326" lon="2.26009">
        <ele>287</ele>
        <time>2022-09-11T09:59:45.498Z</time>
      </trkpt>
      <trkpt lat="44.12327" lon="2.26009">
        <ele>286</ele>
        <time>2022-09-11T09:59:46.498Z</time>
      </trkpt>
      <trkpt lat="44.12327" lon="2.26009">
        <ele>286</ele>
        <time>2022-09-11T09:59:47.498Z</time>
      </trkpt>
      <trkpt lat="44.12327" lon="2.26009">
        <ele>286</ele>
        <time>2022-09-11T09:59:48.498Z</time>
      </trkpt>
      <trkpt lat="44.12328" lon="2.26008">
        <ele>286</ele>
        <time>2022-09-11T09:59:49.498Z</time>
      </trkpt>
      <trkpt lat="44.12328" lon="2.26007">
        <ele>285</ele>
        <time>2022-09-11T09:59:50.498Z</time>
      </trkpt>
      <trkpt lat="44.12322" lon="2.25999">
        <ele>278</ele>
        <time>2022-09-11T10:00:39.511Z</time>
      </trkpt>
      <trkpt lat="44.12323" lon="2.25998">
        <ele>278</ele>
        <time>2022-09-11T10:00:40.511Z</time>
      </trkpt>
      <trkpt lat="44.12323" lon="2.25998">
        <ele>278</ele>
        <time>2022-09-11T10:00:41.511Z</time>
      </trkpt>
      <trkpt lat="44.12323" lon="2.25997">
        <ele>278</ele>
        <time>2022-09-11T10:00:42.511Z</time>
      </trkpt>
      <trkpt lat="44.12323" lon="2.25996">
        <ele>278</ele>
        <time>2022-09-11T10:00:43.511Z</time>
      </trkpt>
      <trkpt lat="44.12324" lon="2.25995">
        <ele>278</ele>
        <time>2022-09-11T10:00:44.511Z</time>
      </trkpt>
      <trkpt lat="44.12324" lon="2.25995">
        <ele>278</ele>
        <time>2022-09-11T10:00:45.511Z</time>
      </trkpt>
      <trkpt lat="44.12325" lon="2.25994">
        <ele>277</ele>
        <time>2022-09-11T10:00:46.511Z</time>
      </trkpt>
      <trkpt lat="44.12325" lon="2.25993">
        <ele>277</ele>
        <time>2022-09-11T10:00:47.511Z</time>
      </trkpt>
      <trkpt lat="44.12325" lon="2.25992">
        <ele>277</ele>
        <time>2022-09-11T10:00:48.511Z</time>
      </trkpt>
      <trkpt lat="44.12326" lon="2.2599">
        <ele>277</ele>
        <time>2022-09-11T10:00:49.511Z</time>
      </trkpt>
      <trkpt lat="44.12326" lon="2.2599">
        <ele>277</ele>
        <time>2022-09-11T10:00:50.511Z</time>
      </trkpt>
      <trkpt lat="44.12327" lon="2.25989">
        <ele>277</ele>
        <time>2022-09-11T10:00:51.511Z</time>
      </trkpt>
      <trkpt lat="44.12327" lon="2.25988">
        <ele>277</ele>
        <time>2022-09-11T10:00:52.511Z</time>
      </trkpt>
      <trkpt lat="44.12327" lon="2.25987">
        <ele>277</ele>
        <time>2022-09-11T10:00:53.511Z</time>
      </trkpt>
      <trkpt lat="44.12328" lon="2.25986">
        <ele>277</ele>
        <time>2022-09-11T10:00:54.511Z</time>
      </trkpt>
      <trkpt lat="44.12328" lon="2.25984">
        <ele>277</ele>
        <time>2022-09-11T10:00:55.511Z</time>
      </trkpt>
      <trkpt lat="44.12329" lon="2.25984">
        <ele>277</ele>
        <time>2022-09-11T10:00:56.511Z</time>
      </trkpt>
      <trkpt lat="44.12329" lon="2.25983">
        <ele>277</ele>
        <time>2022-09-11T10:00:57.511Z</time>
      </trkpt>
      <trkpt lat="44.1233" lon="2.25982">
        <ele>277</ele>
        <time>2022-09-11T10:00:58.511Z</time>
      </trkpt>
      <trkpt lat="44.1233" lon="2.25981">
        <ele>277</ele>
        <time>2022-09-11T10:00:59.511Z</time>
      </trkpt>
      <trkpt lat="44.12331" lon="2.2598">
        <ele>277</ele>
        <time>2022-09-11T10:01:00.511Z</time>
      </trkpt>
      <trkpt lat="44.12331" lon="2.2598">
        <ele>277</ele>
        <time>2022-09-11T10:01:01.511Z</time>
      </trkpt>
      <trkpt lat="44.12332" lon="2.25979">
        <ele>277</ele>
        <time>2022-09-11T10:01:02.511Z</time>
      </trkpt>
      <trkpt lat="44.12332" lon="2.25978">
        <ele>278</ele>
        <time>2022-09-11T10:01:03.511Z</time>
      </trkpt>
      <trkpt lat="44.12332" lon="2.25977">
        <ele>278</ele>
        <time>2022-09-11T10:01:04.511Z</time>
      </trkpt>
      <trkpt lat="44.12333" lon="2.25976">
        <ele>278</ele>
        <time>2022-09-11T10:01:05.511Z</time>
      </trkpt>
      <trkpt lat="44.12333" lon="2.25975">
        <ele>278</ele>
        <time>2022-09-11T10:01:06.511Z</time>
      </trkpt>
      <trkpt lat="44.12334" lon="2.25975">
        <ele>278</ele>
        <time>2022-09-11T10:01:07.511Z</time>
      </trkpt>
      <trkpt lat="44.12335" lon="2.25974">
        <ele>278</ele>
        <time>2022-09-11T10:01:08.511Z</time>
      </trkpt>
      <trkpt lat="44.12336" lon="2.25974">
        <ele>278</ele>
        <time>2022-09-11T10:01:09.511Z</time>
      </trkpt>
      <trkpt lat="44.12336" lon="2.25973">
        <ele>278</ele>
        <time>2022-09-11T10:01:10.511Z</time>
      </trkpt>
      <trkpt lat="44.12337" lon="2.25973">
        <ele>278</ele>
        <time>2022-09-11T10:01:11.511Z</time>
      </trkpt>
      <trkpt lat="44.12338" lon="2.25972">
        <ele>278</ele>
        <time>2022-09-11T10:01:12.511Z</time>
      </trkpt>
      <trkpt lat="44.12338" lon="2.25971">
        <ele>278</ele>
        <time>2022-09-11T10:01:13.511Z</time>
      </trkpt>
      <trkpt lat="44.12338" lon="2.2597">
        <ele>278</ele>
        <time>2022-09-11T10:01:14.511Z</time>
      </trkpt>
      <trkpt lat="44.12339" lon="2.25969">
        <ele>278</ele>
        <time>2022-09-11T10:01:15.511Z</time>
      </trkpt>
      <trkpt lat="44.1234" lon="2.25968">
        <ele>278</ele>
        <time>2022-09-11T10:01:16.511Z</time>
      </trkpt>
      <trkpt lat="44.1234" lon="2.25967">
        <ele>278</ele>
        <time>2022-09-11T10:01:17.511Z</time>
      </trkpt>
      <trkpt lat="44.12341" lon="2.25966">
        <ele>278</ele>
        <time>2022-09-11T10:01:18.511Z</time>
      </trkpt>
      <trkpt lat="44.12342" lon="2.25965">
        <ele>278</ele>
        <time>2022-09-11T10:01:19.511Z</time>
      </trkpt>
      <trkpt lat="44.12342" lon="2.25965">
        <ele>278</ele>
        <time>2022-09-11T10:01:20.511Z</time>
      </trkpt>
      <trkpt lat="44.12343" lon="2.25964">
        <ele>278</ele>
        <time>2022-09-11T10:01:21.511Z</time>
      </trkpt>
      <trkpt lat="44.12343" lon="2.25963">
        <ele>278</ele>
        <time>2022-09-11T10:01:22.511Z</time>
      </trkpt>
      <trkpt lat="44.12344" lon="2.25962">
        <ele>278</ele>
        <time>2022-09-11T10:01:23.511Z</time>
      </trkpt>
      <trkpt lat="44.12344" lon="2.2596">
        <ele>278</ele>
        <time>2022-09-11T10:01:24.511Z</time>
      </trkpt>
      <trkpt lat="44.12345" lon="2.25959">
        <ele>278</ele>
        <time>2022-09-11T10:01:25.511Z</time>
      </trkpt>
      <trkpt lat="44.12345" lon="2.25958">
        <ele>278</ele>
        <time>2022-09-11T10:01:26.511Z</time>
      </trkpt>
      <trkpt lat="44.12346" lon="2.25957">
        <ele>279</ele>
        <time>2022-09-11T10:01:27.511Z</time>
      </trkpt>
      <trkpt lat="44.12346" lon="2.25956">
        <ele>279</ele>
        <time>2022-09-11T10:01:28.511Z</time>
      </trkpt>
      <trkpt lat="44.12347" lon="2.25955">
        <ele>279</ele>
        <time>2022-09-11T10:01:29.511Z</time>
      </trkpt>
      <trkpt lat="44.12347" lon="2.25954">
        <ele>279</ele>
        <time>2022-09-11T10:01:30.511Z</time>
      </trkpt>
      <trkpt lat="44.12348" lon="2.25953">
        <ele>279</ele>
        <time>2022-09-11T10:01:31.511Z</time>
      </trkpt>
      <trkpt lat="44.12348" lon="2.25952">
        <ele>279</ele>
        <time>2022-09-11T10:01:32.511Z</time>
      </trkpt>
      <trkpt lat="44.12349" lon="2.25951">
        <ele>279</ele>
        <time>2022-09-11T10:01:33.511Z</time>
      </trkpt>
      <trkpt lat="44.12349" lon="2.2595">
        <ele>279</ele>
        <time>2022-09-11T10:01:34.511Z</time>
      </trkpt>
      <trkpt lat="44.1235" lon="2.25948">
        <ele>279</ele>
        <time>2022-09-11T10:01:35.511Z</time>
      </trkpt>
      <trkpt lat="44.1235" lon="2.25947">
        <ele>279</ele>
        <time>2022-09-11T10:01:36.511Z</time>
      </trkpt>
      <trkpt lat="44.12351" lon="2.25946">
        <ele>279</ele>
        <time>2022-09-11T10:01:37.511Z</time>
      </trkpt>
      <trkpt lat="44.12351" lon="2.25945">
        <ele>279</ele>
        <time>2022-09-11T10:01:38.511Z</time>
      </trkpt>
      <trkpt lat="44.12351" lon="2.25943">
        <ele>279</ele>
        <time>2022-09-11T10:01:39.511Z</time>
      </trkpt>
      <trkpt lat="44.12352" lon="2.25942">
        <ele>279</ele>
        <time>2022-09-11T10:01:40.511Z</time>
      </trkpt>
      <trkpt lat="44.12352" lon="2.25941">
        <ele>279</ele>
        <time>2022-09-11T10:01:41.511Z</time>
      </trkpt>
      <trkpt lat="44.12353" lon="2.2594">
        <ele>279</ele>
        <time>2022-09-11T10:01:42.511Z</time>
      </trkpt>
      <trkpt lat="44.12353" lon="2.25938">
        <ele>279</ele>
        <time>2022-09-11T10:01:43.511Z</time>
      </trkpt>
      <trkpt lat="44.12353" lon="2.25937">
        <ele>279</ele>
        <time>2022-09-11T10:01:44.511Z</time>
      </trkpt>
      <trkpt lat="44.12354" lon="2.25936">
        <ele>279</ele>
        <time>2022-09-11T10:01:45.511Z</time>
      </trkpt>
      <trkpt lat="44.12354" lon="2.25935">
        <ele>279</ele>
        <time>2022-09-11T10:01:46.511Z</time>
      </trkpt>
      <trkpt lat="44.12355" lon="2.25933">
        <ele>279</ele>
        <time>2022-09-11T10:01:47.511Z</time>
      </trkpt>
      <trkpt lat="44.12355" lon="2.25932">
        <ele>280</ele>
        <time>2022-09-11T10:01:48.511Z</time>
      </trkpt>
      <trkpt lat="44.12355" lon="2.25931">
        <ele>280</ele>
        <time>2022-09-11T10:01:49.511Z</time>
      </trkpt>
      <trkpt lat="44.12356" lon="2.25929">
        <ele>280</ele>
        <time>2022-09-11T10:01:50.511Z</time>
      </trkpt>
      <trkpt lat="44.12356" lon="2.25928">
        <ele>280</ele>
        <time>2022-09-11T10:01:51.511Z</time>
      </trkpt>
      <trkpt lat="44.12356" lon="2.25927">
        <ele>280</ele>
        <time>2022-09-11T10:01:52.511Z</time>
      </trkpt>
      <trkpt lat="44.12357" lon="2.25925">
        <ele>280</ele>
        <time>2022-09-11T10:01:53.511Z</time>
      </trkpt>
      <trkpt lat="44.12357" lon="2.25924">
        <ele>280</ele>
        <time>2022-09-11T10:01:54.511Z</time>
      </trkpt>
      <trkpt lat="44.12358" lon="2.25923">
        <ele>280</ele>
        <time>2022-09-11T10:01:55.511Z</time>
      </trkpt>
      <trkpt lat="44.12358" lon="2.25922">
        <ele>280</ele>
        <time>2022-09-11T10:01:56.511Z</time>
      </trkpt>
      <trkpt lat="44.12359" lon="2.2592">
        <ele>280</ele>
        <time>2022-09-11T10:01:57.511Z</time>
      </trkpt>
      <trkpt lat="44.12359" lon="2.25919">
        <ele>280</ele>
        <time>2022-09-11T10:01:58.511Z</time>
      </trkpt>
      <trkpt lat="44.1236" lon="2.25918">
        <ele>279</ele>
        <time>2022-09-11T10:01:59.511Z</time>
      </trkpt>
      <trkpt lat="44.1236" lon="2.25916">
        <ele>279</ele>
        <time>2022-09-11T10:02:00.511Z</time>
      </trkpt>
      <trkpt lat="44.12361" lon="2.25915">
        <ele>279</ele>
        <time>2022-09-11T10:02:01.511Z</time>
      </trkpt>
      <trkpt lat="44.12361" lon="2.25914">
        <ele>279</ele>
        <time>2022-09-11T10:02:02.511Z</time>
      </trkpt>
      <trkpt lat="44.12361" lon="2.25912">
        <ele>279</ele>
        <time>2022-09-11T10:02:03.511Z</time>
      </trkpt>
      <trkpt lat="44.12362" lon="2.25911">
        <ele>279</ele>
        <time>2022-09-11T10:02:04.511Z</time>
      </trkpt>
      <trkpt lat="44.12362" lon="2.2591">
        <ele>279</ele>
        <time>2022-09-11T10:02:05.511Z</time>
      </trkpt>
      <trkpt lat="44.12363" lon="2.25909">
        <ele>279</ele>
        <time>2022-09-11T10:02:06.511Z</time>
      </trkpt>
      <trkpt lat="44.12363" lon="2.25908">
        <ele>279</ele>
        <time>2022-09-11T10:02:07.511Z</time>
      </trkpt>
      <trkpt lat="44.12363" lon="2.25907">
        <ele>279</ele>
        <time>2022-09-11T10:02:08.511Z</time>
      </trkpt>
      <trkpt lat="44.12364" lon="2.25906">
        <ele>279</ele>
        <time>2022-09-11T10:02:09.511Z</time>
      </trkpt>
      <trkpt lat="44.12364" lon="2.25905">
        <ele>279</ele>
        <time>2022-09-11T10:02:10.511Z</time>
      </trkpt>
      <trkpt lat="44.12365" lon="2.25904">
        <ele>279</ele>
        <time>2022-09-11T10:02:11.511Z</time>
      </trkpt>
      <trkpt lat="44.12365" lon="2.25902">
        <ele>279</ele>
        <time>2022-09-11T10:02:12.511Z</time>
      </trkpt>
      <trkpt lat="44.12366" lon="2.25902">
        <ele>279</ele>
        <time>2022-09-11T10:02:13.511Z</time>
      </trkpt>
      <trkpt lat="44.12366" lon="2.25901">
        <ele>279</ele>
        <time>2022-09-11T10:02:14.511Z</time>
      </trkpt>
      <trkpt lat="44.12366" lon="2.25899">
        <ele>279</ele>
        <time>2022-09-11T10:02:15.511Z</time>
      </trkpt>
      <trkpt lat="44.12367" lon="2.25898">
        <ele>279</ele>
        <time>2022-09-11T10:02:16.511Z</time>
      </trkpt>
      <trkpt lat="44.12367" lon="2.25897">
        <ele>279</ele>
        <time>2022-09-11T10:02:17.511Z</time>
      </trkpt>
      <trkpt lat="44.12367" lon="2.25896">
        <ele>279</ele>
        <time>2022-09-11T10:02:18.511Z</time>
      </trkpt>
      <trkpt lat="44.12367" lon="2.25894">
        <ele>279</ele>
        <time>2022-09-11T10:02:19.511Z</time>
      </trkpt>
      <trkpt lat="44.12368" lon="2.25893">
        <ele>279</ele>
        <time>2022-09-11T10:02:20.511Z</time>
      </trkpt>
      <trkpt lat="44.12368" lon="2.25892">
        <ele>280</ele>
        <time>2022-09-11T10:02:21.511Z</time>
      </trkpt>
      <trkpt lat="44.12368" lon="2.25891">
        <ele>280</ele>
        <time>2022-09-11T10:02:22.511Z</time>
      </trkpt>
      <trkpt lat="44.12368" lon="2.2589">
        <ele>280</ele>
        <time>2022-09-11T10:02:23.511Z</time>
      </trkpt>
      <trkpt lat="44.12368" lon="2.25889">
        <ele>280</ele>
        <time>2022-09-11T10:02:24.511Z</time>
      </trkpt>
      <trkpt lat="44.12369" lon="2.25887">
        <ele>280</ele>
        <time>2022-09-11T10:02:25.511Z</time>
      </trkpt>
      <trkpt lat="44.12369" lon="2.25886">
        <ele>280</ele>
        <time>2022-09-11T10:02:26.511Z</time>
      </trkpt>
      <trkpt lat="44.12369" lon="2.25885">
        <ele>281</ele>
        <time>2022-09-11T10:02:27.511Z</time>
      </trkpt>
      <trkpt lat="44.12369" lon="2.25883">
        <ele>281</ele>
        <time>2022-09-11T10:02:28.511Z</time>
      </trkpt>
      <trkpt lat="44.1237" lon="2.25882">
        <ele>281</ele>
        <time>2022-09-11T10:02:29.511Z</time>
      </trkpt>
      <trkpt lat="44.1237" lon="2.25881">
        <ele>281</ele>
        <time>2022-09-11T10:02:30.511Z</time>
      </trkpt>
      <trkpt lat="44.1237" lon="2.2588">
        <ele>281</ele>
        <time>2022-09-11T10:02:31.511Z</time>
      </trkpt>
      <trkpt lat="44.1237" lon="2.25878">
        <ele>281</ele>
        <time>2022-09-11T10:02:32.511Z</time>
      </trkpt>
      <trkpt lat="44.1237" lon="2.25877">
        <ele>281</ele>
        <time>2022-09-11T10:02:33.511Z</time>
      </trkpt>
      <trkpt lat="44.12371" lon="2.25876">
        <ele>282</ele>
        <time>2022-09-11T10:02:34.511Z</time>
      </trkpt>
      <trkpt lat="44.12371" lon="2.25874">
        <ele>282</ele>
        <time>2022-09-11T10:02:35.511Z</time>
      </trkpt>
      <trkpt lat="44.12371" lon="2.25873">
        <ele>282</ele>
        <time>2022-09-11T10:02:36.511Z</time>
      </trkpt>
      <trkpt lat="44.12371" lon="2.25872">
        <ele>282</ele>
        <time>2022-09-11T10:02:37.511Z</time>
      </trkpt>
      <trkpt lat="44.12371" lon="2.2587">
        <ele>282</ele>
        <time>2022-09-11T10:02:38.511Z</time>
      </trkpt>
      <trkpt lat="44.12371" lon="2.25869">
        <ele>283</ele>
        <time>2022-09-11T10:02:39.511Z</time>
      </trkpt>
      <trkpt lat="44.12372" lon="2.25868">
        <ele>283</ele>
        <time>2022-09-11T10:02:40.511Z</time>
      </trkpt>
      <trkpt lat="44.12372" lon="2.25867">
        <ele>283</ele>
        <time>2022-09-11T10:02:41.511Z</time>
      </trkpt>
      <trkpt lat="44.12372" lon="2.25865">
        <ele>283</ele>
        <time>2022-09-11T10:02:42.511Z</time>
      </trkpt>
      <trkpt lat="44.12373" lon="2.25864">
        <ele>283</ele>
        <time>2022-09-11T10:02:43.511Z</time>
      </trkpt>
      <trkpt lat="44.12373" lon="2.25863">
        <ele>283</ele>
        <time>2022-09-11T10:02:44.511Z</time>
      </trkpt>
      <trkpt lat="44.12373" lon="2.25861">
        <ele>283</ele>
        <time>2022-09-11T10:02:45.511Z</time>
      </trkpt>
      <trkpt lat="44.12373" lon="2.2586">
        <ele>283</ele>
        <time>2022-09-11T10:02:46.511Z</time>
      </trkpt>
      <trkpt lat="44.12374" lon="2.25859">
        <ele>284</ele>
        <time>2022-09-11T10:02:47.511Z</time>
      </trkpt>
      <trkpt lat="44.12374" lon="2.25857">
        <ele>284</ele>
        <time>2022-09-11T10:02:48.511Z</time>
      </trkpt>
      <trkpt lat="44.12374" lon="2.25856">
        <ele>284</ele>
        <time>2022-09-11T10:02:49.511Z</time>
      </trkpt>
      <trkpt lat="44.12374" lon="2.25855">
        <ele>284</ele>
        <time>2022-09-11T10:02:50.511Z</time>
      </trkpt>
      <trkpt lat="44.12375" lon="2.25854">
        <ele>284</ele>
        <time>2022-09-11T10:02:51.511Z</time>
      </trkpt>
      <trkpt lat="44.12375" lon="2.25853">
        <ele>284</ele>
        <time>2022-09-11T10:02:52.511Z</time>
      </trkpt>
      <trkpt lat="44.12375" lon="2.25851">
        <ele>284</ele>
        <time>2022-09-11T10:02:53.511Z</time>
      </trkpt>
      <trkpt lat="44.12376" lon="2.2585">
        <ele>284</ele>
        <time>2022-09-11T10:02:54.511Z</time>
      </trkpt>
      <trkpt lat="44.12376" lon="2.25849">
        <ele>284</ele>
        <time>2022-09-11T10:02:55.511Z</time>
      </trkpt>
      <trkpt lat="44.12376" lon="2.25847">
        <ele>283</ele>
        <time>2022-09-11T10:02:56.511Z</time>
      </trkpt>
      <trkpt lat="44.12377" lon="2.25846">
        <ele>284</ele>
        <time>2022-09-11T10:02:57.511Z</time>
      </trkpt>
      <trkpt lat="44.12377" lon="2.25845">
        <ele>284</ele>
        <time>2022-09-11T10:02:58.511Z</time>
      </trkpt>
      <trkpt lat="44.12377" lon="2.25843">
        <ele>284</ele>
        <time>2022-09-11T10:02:59.511Z</time>
      </trkpt>
      <trkpt lat="44.12378" lon="2.25842">
        <ele>284</ele>
        <time>2022-09-11T10:03:00.511Z</time>
      </trkpt>
      <trkpt lat="44.12378" lon="2.25841">
        <ele>284</ele>
        <time>2022-09-11T10:03:01.511Z</time>
      </trkpt>
      <trkpt lat="44.12378" lon="2.25839">
        <ele>284</ele>
        <time>2022-09-11T10:03:02.511Z</time>
      </trkpt>
      <trkpt lat="44.12378" lon="2.25838">
        <ele>284</ele>
        <time>2022-09-11T10:03:03.511Z</time>
      </trkpt>
      <trkpt lat="44.12378" lon="2.25836">
        <ele>284</ele>
        <time>2022-09-11T10:03:04.511Z</time>
      </trkpt>
      <trkpt lat="44.12378" lon="2.25835">
        <ele>284</ele>
        <time>2022-09-11T10:03:05.511Z</time>
      </trkpt>
      <trkpt lat="44.12379" lon="2.25834">
        <ele>284</ele>
        <time>2022-09-11T10:03:06.511Z</time>
      </trkpt>
      <trkpt lat="44.12379" lon="2.25832">
        <ele>285</ele>
        <time>2022-09-11T10:03:07.511Z</time>
      </trkpt>
      <trkpt lat="44.12379" lon="2.25831">
        <ele>285</ele>
        <time>2022-09-11T10:03:08.511Z</time>
      </trkpt>
      <trkpt lat="44.12379" lon="2.2583">
        <ele>285</ele>
        <time>2022-09-11T10:03:09.511Z</time>
      </trkpt>
      <trkpt lat="44.12379" lon="2.25829">
        <ele>285</ele>
        <time>2022-09-11T10:03:10.511Z</time>
      </trkpt>
      <trkpt lat="44.12379" lon="2.25828">
        <ele>285</ele>
        <time>2022-09-11T10:03:11.511Z</time>
      </trkpt>
      <trkpt lat="44.1238" lon="2.25826">
        <ele>285</ele>
        <time>2022-09-11T10:03:12.511Z</time>
      </trkpt>
      <trkpt lat="44.1238" lon="2.25825">
        <ele>285</ele>
        <time>2022-09-11T10:03:13.511Z</time>
      </trkpt>
      <trkpt lat="44.1238" lon="2.25824">
        <ele>285</ele>
        <time>2022-09-11T10:03:14.511Z</time>
      </trkpt>
      <trkpt lat="44.1238" lon="2.25823">
        <ele>285</ele>
        <time>2022-09-11T10:03:15.511Z</time>
      </trkpt>
      <trkpt lat="44.12381" lon="2.25822">
        <ele>285</ele>
        <time>2022-09-11T10:03:16.511Z</time>
      </trkpt>
      <trkpt lat="44.12381" lon="2.2582">
        <ele>286</ele>
        <time>2022-09-11T10:03:17.511Z</time>
      </trkpt>
      <trkpt lat="44.12381" lon="2.25819">
        <ele>286</ele>
        <time>2022-09-11T10:03:18.511Z</time>
      </trkpt>
      <trkpt lat="44.12381" lon="2.25818">
        <ele>286</ele>
        <time>2022-09-11T10:03:19.511Z</time>
      </trkpt>
      <trkpt lat="44.12381" lon="2.25817">
        <ele>286</ele>
        <time>2022-09-11T10:03:20.511Z</time>
      </trkpt>
      <trkpt lat="44.12382" lon="2.25815">
        <ele>286</ele>
        <time>2022-09-11T10:03:21.511Z</time>
      </trkpt>
      <trkpt lat="44.12382" lon="2.25814">
        <ele>286</ele>
        <time>2022-09-11T10:03:22.511Z</time>
      </trkpt>
      <trkpt lat="44.12382" lon="2.25813">
        <ele>286</ele>
        <time>2022-09-11T10:03:23.511Z</time>
      </trkpt>
      <trkpt lat="44.12382" lon="2.25811">
        <ele>286</ele>
        <time>2022-09-11T10:03:24.511Z</time>
      </trkpt>
      <trkpt lat="44.12383" lon="2.2581">
        <ele>286</ele>
        <time>2022-09-11T10:03:25.511Z</time>
      </trkpt>
      <trkpt lat="44.12383" lon="2.25808">
        <ele>287</ele>
        <time>2022-09-11T10:03:26.511Z</time>
      </trkpt>
      <trkpt lat="44.12383" lon="2.25807">
        <ele>287</ele>
        <time>2022-09-11T10:03:27.511Z</time>
      </trkpt>
      <trkpt lat="44.12383" lon="2.25806">
        <ele>287</ele>
        <time>2022-09-11T10:03:28.511Z</time>
      </trkpt>
      <trkpt lat="44.12383" lon="2.25804">
        <ele>287</ele>
        <time>2022-09-11T10:03:29.511Z</time>
      </trkpt>
      <trkpt lat="44.12384" lon="2.25803">
        <ele>287</ele>
        <time>2022-09-11T10:03:30.511Z</time>
      </trkpt>
      <trkpt lat="44.12384" lon="2.25801">
        <ele>288</ele>
        <time>2022-09-11T10:03:31.511Z</time>
      </trkpt>
      <trkpt lat="44.12384" lon="2.258">
        <ele>288</ele>
        <time>2022-09-11T10:03:32.511Z</time>
      </trkpt>
      <trkpt lat="44.12384" lon="2.25798">
        <ele>288</ele>
        <time>2022-09-11T10:03:33.511Z</time>
      </trkpt>
      <trkpt lat="44.12384" lon="2.25797">
        <ele>288</ele>
        <time>2022-09-11T10:03:34.511Z</time>
      </trkpt>
      <trkpt lat="44.12385" lon="2.25795">
        <ele>288</ele>
        <time>2022-09-11T10:03:35.511Z</time>
      </trkpt>
      <trkpt lat="44.12385" lon="2.25794">
        <ele>289</ele>
        <time>2022-09-11T10:03:36.511Z</time>
      </trkpt>
      <trkpt lat="44.12385" lon="2.25793">
        <ele>289</ele>
        <time>2022-09-11T10:03:37.511Z</time>
      </trkpt>
      <trkpt lat="44.12385" lon="2.25791">
        <ele>289</ele>
        <time>2022-09-11T10:03:38.511Z</time>
      </trkpt>
      <trkpt lat="44.12385" lon="2.2579">
        <ele>289</ele>
        <time>2022-09-11T10:03:39.511Z</time>
      </trkpt>
      <trkpt lat="44.12386" lon="2.25788">
        <ele>289</ele>
        <time>2022-09-11T10:03:40.511Z</time>
      </trkpt>
      <trkpt lat="44.12386" lon="2.25787">
        <ele>289</ele>
        <time>2022-09-11T10:03:41.511Z</time>
      </trkpt>
      <trkpt lat="44.12386" lon="2.25786">
        <ele>289</ele>
        <time>2022-09-11T10:03:42.511Z</time>
      </trkpt>
      <trkpt lat="44.12386" lon="2.25784">
        <ele>289</ele>
        <time>2022-09-11T10:03:43.511Z</time>
      </trkpt>
      <trkpt lat="44.12387" lon="2.25783">
        <ele>289</ele>
        <time>2022-09-11T10:03:44.511Z</time>
      </trkpt>
      <trkpt lat="44.12387" lon="2.25782">
        <ele>290</ele>
        <time>2022-09-11T10:03:45.511Z</time>
      </trkpt>
      <trkpt lat="44.12387" lon="2.25781">
        <ele>290</ele>
        <time>2022-09-11T10:03:46.511Z</time>
      </trkpt>
      <trkpt lat="44.12388" lon="2.25779">
        <ele>290</ele>
        <time>2022-09-11T10:03:47.511Z</time>
      </trkpt>
      <trkpt lat="44.12388" lon="2.25778">
        <ele>290</ele>
        <time>2022-09-11T10:03:48.511Z</time>
      </trkpt>
      <trkpt lat="44.12389" lon="2.25777">
        <ele>290</ele>
        <time>2022-09-11T10:03:49.511Z</time>
      </trkpt>
      <trkpt lat="44.12389" lon="2.25775">
        <ele>290</ele>
        <time>2022-09-11T10:03:50.511Z</time>
      </trkpt>
      <trkpt lat="44.1239" lon="2.25774">
        <ele>290</ele>
        <time>2022-09-11T10:03:51.511Z</time>
      </trkpt>
      <trkpt lat="44.1239" lon="2.25773">
        <ele>291</ele>
        <time>2022-09-11T10:03:52.511Z</time>
      </trkpt>
      <trkpt lat="44.1239" lon="2.25772">
        <ele>291</ele>
        <time>2022-09-11T10:03:53.511Z</time>
      </trkpt>
      <trkpt lat="44.1239" lon="2.2577">
        <ele>291</ele>
        <time>2022-09-11T10:03:54.511Z</time>
      </trkpt>
      <trkpt lat="44.12391" lon="2.25769">
        <ele>291</ele>
        <time>2022-09-11T10:03:55.511Z</time>
      </trkpt>
      <trkpt lat="44.12391" lon="2.25768">
        <ele>292</ele>
        <time>2022-09-11T10:03:56.511Z</time>
      </trkpt>
      <trkpt lat="44.12391" lon="2.25767">
        <ele>292</ele>
        <time>2022-09-11T10:03:57.511Z</time>
      </trkpt>
      <trkpt lat="44.12392" lon="2.25765">
        <ele>292</ele>
        <time>2022-09-11T10:03:58.511Z</time>
      </trkpt>
      <trkpt lat="44.12392" lon="2.25764">
        <ele>292</ele>
        <time>2022-09-11T10:03:59.511Z</time>
      </trkpt>
      <trkpt lat="44.12393" lon="2.25763">
        <ele>292</ele>
        <time>2022-09-11T10:04:00.511Z</time>
      </trkpt>
      <trkpt lat="44.12393" lon="2.25762">
        <ele>293</ele>
        <time>2022-09-11T10:04:01.511Z</time>
      </trkpt>
      <trkpt lat="44.12393" lon="2.25761">
        <ele>293</ele>
        <time>2022-09-11T10:04:02.511Z</time>
      </trkpt>
      <trkpt lat="44.12394" lon="2.25759">
        <ele>293</ele>
        <time>2022-09-11T10:04:03.511Z</time>
      </trkpt>
      <trkpt lat="44.12394" lon="2.25758">
        <ele>293</ele>
        <time>2022-09-11T10:04:04.511Z</time>
      </trkpt>
      <trkpt lat="44.12395" lon="2.25757">
        <ele>293</ele>
        <time>2022-09-11T10:04:05.511Z</time>
      </trkpt>
      <trkpt lat="44.12395" lon="2.25756">
        <ele>293</ele>
        <time>2022-09-11T10:04:06.511Z</time>
      </trkpt>
      <trkpt lat="44.12395" lon="2.25755">
        <ele>293</ele>
        <time>2022-09-11T10:04:07.511Z</time>
      </trkpt>
      <trkpt lat="44.12396" lon="2.25754">
        <ele>293</ele>
        <time>2022-09-11T10:04:08.511Z</time>
      </trkpt>
      <trkpt lat="44.12396" lon="2.25753">
        <ele>293</ele>
        <time>2022-09-11T10:04:09.511Z</time>
      </trkpt>
      <trkpt lat="44.12397" lon="2.25752">
        <ele>294</ele>
        <time>2022-09-11T10:04:10.511Z</time>
      </trkpt>
      <trkpt lat="44.12397" lon="2.2575">
        <ele>294</ele>
        <time>2022-09-11T10:04:11.511Z</time>
      </trkpt>
      <trkpt lat="44.12398" lon="2.25749">
        <ele>294</ele>
        <time>2022-09-11T10:04:12.511Z</time>
      </trkpt>
      <trkpt lat="44.12398" lon="2.25748">
        <ele>294</ele>
        <time>2022-09-11T10:04:13.511Z</time>
      </trkpt>
      <trkpt lat="44.12399" lon="2.25747">
        <ele>294</ele>
        <time>2022-09-11T10:04:14.511Z</time>
      </trkpt>
      <trkpt lat="44.12399" lon="2.25746">
        <ele>294</ele>
        <time>2022-09-11T10:04:15.511Z</time>
      </trkpt>
      <trkpt lat="44.124" lon="2.25745">
        <ele>294</ele>
        <time>2022-09-11T10:04:16.511Z</time>
      </trkpt>
      <trkpt lat="44.124" lon="2.25744">
        <ele>294</ele>
        <time>2022-09-11T10:04:17.511Z</time>
      </trkpt>
      <trkpt lat="44.12401" lon="2.25744">
        <ele>294</ele>
        <time>2022-09-11T10:04:18.511Z</time>
      </trkpt>
      <trkpt lat="44.12402" lon="2.25743">
        <ele>295</ele>
        <time>2022-09-11T10:04:19.511Z</time>
      </trkpt>
      <trkpt lat="44.12402" lon="2.25742">
        <ele>295</ele>
        <time>2022-09-11T10:04:20.511Z</time>
      </trkpt>
      <trkpt lat="44.12403" lon="2.2574">
        <ele>295</ele>
        <time>2022-09-11T10:04:21.511Z</time>
      </trkpt>
      <trkpt lat="44.12403" lon="2.25739">
        <ele>295</ele>
        <time>2022-09-11T10:04:22.511Z</time>
      </trkpt>
      <trkpt lat="44.12404" lon="2.25738">
        <ele>295</ele>
        <time>2022-09-11T10:04:23.511Z</time>
      </trkpt>
      <trkpt lat="44.12404" lon="2.25737">
        <ele>295</ele>
        <time>2022-09-11T10:04:24.511Z</time>
      </trkpt>
      <trkpt lat="44.12405" lon="2.25736">
        <ele>295</ele>
        <time>2022-09-11T10:04:25.511Z</time>
      </trkpt>
      <trkpt lat="44.12405" lon="2.25735">
        <ele>295</ele>
        <time>2022-09-11T10:04:26.511Z</time>
      </trkpt>
      <trkpt lat="44.12406" lon="2.25734">
        <ele>295</ele>
        <time>2022-09-11T10:04:27.511Z</time>
      </trkpt>
      <trkpt lat="44.12406" lon="2.25733">
        <ele>295</ele>
        <time>2022-09-11T10:04:28.511Z</time>
      </trkpt>
      <trkpt lat="44.12407" lon="2.25731">
        <ele>295</ele>
        <time>2022-09-11T10:04:29.511Z</time>
      </trkpt>
      <trkpt lat="44.12408" lon="2.2573">
        <ele>295</ele>
        <time>2022-09-11T10:04:30.511Z</time>
      </trkpt>
      <trkpt lat="44.12408" lon="2.25728">
        <ele>296</ele>
        <time>2022-09-11T10:04:31.511Z</time>
      </trkpt>
      <trkpt lat="44.12409" lon="2.25727">
        <ele>296</ele>
        <time>2022-09-11T10:04:32.511Z</time>
      </trkpt>
      <trkpt lat="44.12409" lon="2.25726">
        <ele>296</ele>
        <time>2022-09-11T10:04:33.511Z</time>
      </trkpt>
      <trkpt lat="44.1241" lon="2.25725">
        <ele>296</ele>
        <time>2022-09-11T10:04:34.511Z</time>
      </trkpt>
      <trkpt lat="44.1241" lon="2.25724">
        <ele>296</ele>
        <time>2022-09-11T10:04:35.511Z</time>
      </trkpt>
      <trkpt lat="44.12411" lon="2.25723">
        <ele>296</ele>
        <time>2022-09-11T10:04:36.511Z</time>
      </trkpt>
      <trkpt lat="44.12411" lon="2.25722">
        <ele>296</ele>
        <time>2022-09-11T10:04:37.511Z</time>
      </trkpt>
      <trkpt lat="44.12411" lon="2.25721">
        <ele>296</ele>
        <time>2022-09-11T10:04:38.511Z</time>
      </trkpt>
      <trkpt lat="44.12411" lon="2.2572">
        <ele>296</ele>
        <time>2022-09-11T10:04:39.511Z</time>
      </trkpt>
      <trkpt lat="44.12412" lon="2.25719">
        <ele>296</ele>
        <time>2022-09-11T10:04:40.511Z</time>
      </trkpt>
      <trkpt lat="44.12412" lon="2.25718">
        <ele>296</ele>
        <time>2022-09-11T10:04:41.511Z</time>
      </trkpt>
      <trkpt lat="44.12412" lon="2.25718">
        <ele>296</ele>
        <time>2022-09-11T10:04:42.511Z</time>
      </trkpt>
      <trkpt lat="44.12412" lon="2.25718">
        <ele>297</ele>
        <time>2022-09-11T10:04:43.511Z</time>
      </trkpt>
      <trkpt lat="44.12413" lon="2.25718">
        <ele>297</ele>
        <time>2022-09-11T10:04:44.511Z</time>
      </trkpt>
      <trkpt lat="44.12413" lon="2.25718">
        <ele>297</ele>
        <time>2022-09-11T10:04:45.511Z</time>
      </trkpt>
      <trkpt lat="44.12413" lon="2.25718">
        <ele>297</ele>
        <time>2022-09-11T10:04:46.511Z</time>
      </trkpt>
      <trkpt lat="44.12413" lon="2.25718">
        <ele>297</ele>
        <time>2022-09-11T10:04:47.511Z</time>
      </trkpt>
      <trkpt lat="44.12413" lon="2.25718">
        <ele>297</ele>
        <time>2022-09-11T10:04:48.511Z</time>
      </trkpt>
      <trkpt lat="44.12413" lon="2.25713">
        <ele>298</ele>
        <time>2022-09-11T10:04:59.518Z</time>
      </trkpt>
      <trkpt lat="44.12413" lon="2.25712">
        <ele>298</ele>
        <time>2022-09-11T10:05:00.518Z</time>
      </trkpt>
      <trkpt lat="44.12414" lon="2.2571">
        <ele>298</ele>
        <time>2022-09-11T10:05:01.518Z</time>
      </trkpt>
      <trkpt lat="44.12414" lon="2.25709">
        <ele>298</ele>
        <time>2022-09-11T10:05:02.518Z</time>
      </trkpt>
      <trkpt lat="44.12414" lon="2.25707">
        <ele>298</ele>
        <time>2022-09-11T10:05:03.518Z</time>
      </trkpt>
      <trkpt lat="44.12415" lon="2.25706">
        <ele>298</ele>
        <time>2022-09-11T10:05:04.518Z</time>
      </trkpt>
      <trkpt lat="44.12415" lon="2.25704">
        <ele>298</ele>
        <time>2022-09-11T10:05:05.518Z</time>
      </trkpt>
      <trkpt lat="44.12416" lon="2.25703">
        <ele>299</ele>
        <time>2022-09-11T10:05:06.518Z</time>
      </trkpt>
      <trkpt lat="44.12416" lon="2.25701">
        <ele>299</ele>
        <time>2022-09-11T10:05:07.518Z</time>
      </trkpt>
      <trkpt lat="44.12416" lon="2.257">
        <ele>299</ele>
        <time>2022-09-11T10:05:08.518Z</time>
      </trkpt>
      <trkpt lat="44.12417" lon="2.25699">
        <ele>299</ele>
        <time>2022-09-11T10:05:09.518Z</time>
      </trkpt>
      <trkpt lat="44.12417" lon="2.25698">
        <ele>299</ele>
        <time>2022-09-11T10:05:10.518Z</time>
      </trkpt>
      <trkpt lat="44.12417" lon="2.25697">
        <ele>299</ele>
        <time>2022-09-11T10:05:11.518Z</time>
      </trkpt>
      <trkpt lat="44.12417" lon="2.25697">
        <ele>299</ele>
        <time>2022-09-11T10:05:12.518Z</time>
      </trkpt>
      <trkpt lat="44.12417" lon="2.25697">
        <ele>299</ele>
        <time>2022-09-11T10:05:13.518Z</time>
      </trkpt>
      <trkpt lat="44.12417" lon="2.25697">
        <ele>300</ele>
        <time>2022-09-11T10:05:14.518Z</time>
      </trkpt>
      <trkpt lat="44.12417" lon="2.25695">
        <ele>300</ele>
        <time>2022-09-11T10:05:21.524Z</time>
      </trkpt>
      <trkpt lat="44.12417" lon="2.25694">
        <ele>300</ele>
        <time>2022-09-11T10:05:22.524Z</time>
      </trkpt>
      <trkpt lat="44.12418" lon="2.25692">
        <ele>300</ele>
        <time>2022-09-11T10:05:23.524Z</time>
      </trkpt>
      <trkpt lat="44.12419" lon="2.25691">
        <ele>300</ele>
        <time>2022-09-11T10:05:24.524Z</time>
      </trkpt>
      <trkpt lat="44.12419" lon="2.2569">
        <ele>300</ele>
        <time>2022-09-11T10:05:25.524Z</time>
      </trkpt>
      <trkpt lat="44.12419" lon="2.25689">
        <ele>300</ele>
        <time>2022-09-11T10:05:26.524Z</time>
      </trkpt>
      <trkpt lat="44.1242" lon="2.25688">
        <ele>300</ele>
        <time>2022-09-11T10:05:27.524Z</time>
      </trkpt>
      <trkpt lat="44.1242" lon="2.25686">
        <ele>300</ele>
        <time>2022-09-11T10:05:28.524Z</time>
      </trkpt>
      <trkpt lat="44.1242" lon="2.25685">
        <ele>300</ele>
        <time>2022-09-11T10:05:29.524Z</time>
      </trkpt>
      <trkpt lat="44.1242" lon="2.25684">
        <ele>301</ele>
        <time>2022-09-11T10:05:30.524Z</time>
      </trkpt>
      <trkpt lat="44.1242" lon="2.25683">
        <ele>301</ele>
        <time>2022-09-11T10:05:31.524Z</time>
      </trkpt>
      <trkpt lat="44.12421" lon="2.25682">
        <ele>301</ele>
        <time>2022-09-11T10:05:32.524Z</time>
      </trkpt>
      <trkpt lat="44.12421" lon="2.2568">
        <ele>301</ele>
        <time>2022-09-11T10:05:33.524Z</time>
      </trkpt>
      <trkpt lat="44.12422" lon="2.25679">
        <ele>301</ele>
        <time>2022-09-11T10:05:34.524Z</time>
      </trkpt>
      <trkpt lat="44.12422" lon="2.25678">
        <ele>301</ele>
        <time>2022-09-11T10:05:35.524Z</time>
      </trkpt>
      <trkpt lat="44.12422" lon="2.25676">
        <ele>302</ele>
        <time>2022-09-11T10:05:36.524Z</time>
      </trkpt>
      <trkpt lat="44.12422" lon="2.25675">
        <ele>302</ele>
        <time>2022-09-11T10:05:37.524Z</time>
      </trkpt>
      <trkpt lat="44.12422" lon="2.25674">
        <ele>302</ele>
        <time>2022-09-11T10:05:38.524Z</time>
      </trkpt>
      <trkpt lat="44.12423" lon="2.25674">
        <ele>302</ele>
        <time>2022-09-11T10:05:39.524Z</time>
      </trkpt>
      <trkpt lat="44.12423" lon="2.25673">
        <ele>302</ele>
        <time>2022-09-11T10:05:40.524Z</time>
      </trkpt>
      <trkpt lat="44.12423" lon="2.25672">
        <ele>302</ele>
        <time>2022-09-11T10:05:41.524Z</time>
      </trkpt>
      <trkpt lat="44.12423" lon="2.25671">
        <ele>302</ele>
        <time>2022-09-11T10:05:42.524Z</time>
      </trkpt>
      <trkpt lat="44.12424" lon="2.2567">
        <ele>302</ele>
        <time>2022-09-11T10:05:43.524Z</time>
      </trkpt>
      <trkpt lat="44.12424" lon="2.25669">
        <ele>302</ele>
        <time>2022-09-11T10:05:44.524Z</time>
      </trkpt>
      <trkpt lat="44.12424" lon="2.25668">
        <ele>302</ele>
        <time>2022-09-11T10:05:45.524Z</time>
      </trkpt>
      <trkpt lat="44.12424" lon="2.25666">
        <ele>303</ele>
        <time>2022-09-11T10:05:46.524Z</time>
      </trkpt>
      <trkpt lat="44.12425" lon="2.25665">
        <ele>303</ele>
        <time>2022-09-11T10:05:47.524Z</time>
      </trkpt>
      <trkpt lat="44.12425" lon="2.25664">
        <ele>303</ele>
        <time>2022-09-11T10:05:48.524Z</time>
      </trkpt>
      <trkpt lat="44.12425" lon="2.25662">
        <ele>303</ele>
        <time>2022-09-11T10:05:49.524Z</time>
      </trkpt>
      <trkpt lat="44.12425" lon="2.25661">
        <ele>303</ele>
        <time>2022-09-11T10:05:50.524Z</time>
      </trkpt>
      <trkpt lat="44.12425" lon="2.2566">
        <ele>303</ele>
        <time>2022-09-11T10:05:51.524Z</time>
      </trkpt>
      <trkpt lat="44.12425" lon="2.25658">
        <ele>303</ele>
        <time>2022-09-11T10:05:52.524Z</time>
      </trkpt>
      <trkpt lat="44.12425" lon="2.25657">
        <ele>303</ele>
        <time>2022-09-11T10:05:53.524Z</time>
      </trkpt>
      <trkpt lat="44.12426" lon="2.25656">
        <ele>304</ele>
        <time>2022-09-11T10:05:54.524Z</time>
      </trkpt>
      <trkpt lat="44.12426" lon="2.25654">
        <ele>304</ele>
        <time>2022-09-11T10:05:55.524Z</time>
      </trkpt>
      <trkpt lat="44.12426" lon="2.25652">
        <ele>304</ele>
        <time>2022-09-11T10:05:56.524Z</time>
      </trkpt>
      <trkpt lat="44.12426" lon="2.25651">
        <ele>304</ele>
        <time>2022-09-11T10:05:57.524Z</time>
      </trkpt>
      <trkpt lat="44.12426" lon="2.25649">
        <ele>304</ele>
        <time>2022-09-11T10:05:58.524Z</time>
      </trkpt>
      <trkpt lat="44.12426" lon="2.25648">
        <ele>304</ele>
        <time>2022-09-11T10:05:59.524Z</time>
      </trkpt>
      <trkpt lat="44.12426" lon="2.25646">
        <ele>304</ele>
        <time>2022-09-11T10:06:00.524Z</time>
      </trkpt>
      <trkpt lat="44.12426" lon="2.25645">
        <ele>304</ele>
        <time>2022-09-11T10:06:01.524Z</time>
      </trkpt>
      <trkpt lat="44.12427" lon="2.25644">
        <ele>305</ele>
        <time>2022-09-11T10:06:02.524Z</time>
      </trkpt>
      <trkpt lat="44.12427" lon="2.25643">
        <ele>305</ele>
        <time>2022-09-11T10:06:03.524Z</time>
      </trkpt>
      <trkpt lat="44.12427" lon="2.25641">
        <ele>305</ele>
        <time>2022-09-11T10:06:04.524Z</time>
      </trkpt>
      <trkpt lat="44.12427" lon="2.2564">
        <ele>305</ele>
        <time>2022-09-11T10:06:05.524Z</time>
      </trkpt>
      <trkpt lat="44.12427" lon="2.25638">
        <ele>305</ele>
        <time>2022-09-11T10:06:06.524Z</time>
      </trkpt>
      <trkpt lat="44.12427" lon="2.25637">
        <ele>305</ele>
        <time>2022-09-11T10:06:07.524Z</time>
      </trkpt>
      <trkpt lat="44.12428" lon="2.25636">
        <ele>305</ele>
        <time>2022-09-11T10:06:08.524Z</time>
      </trkpt>
      <trkpt lat="44.12428" lon="2.25634">
        <ele>305</ele>
        <time>2022-09-11T10:06:09.524Z</time>
      </trkpt>
      <trkpt lat="44.12428" lon="2.25633">
        <ele>305</ele>
        <time>2022-09-11T10:06:10.524Z</time>
      </trkpt>
      <trkpt lat="44.12428" lon="2.25632">
        <ele>305</ele>
        <time>2022-09-11T10:06:11.524Z</time>
      </trkpt>
      <trkpt lat="44.12428" lon="2.2563">
        <ele>305</ele>
        <time>2022-09-11T10:06:12.524Z</time>
      </trkpt>
      <trkpt lat="44.12428" lon="2.25629">
        <ele>305</ele>
        <time>2022-09-11T10:06:13.524Z</time>
      </trkpt>
      <trkpt lat="44.12428" lon="2.25627">
        <ele>305</ele>
        <time>2022-09-11T10:06:14.524Z</time>
      </trkpt>
      <trkpt lat="44.12428" lon="2.25626">
        <ele>305</ele>
        <time>2022-09-11T10:06:15.524Z</time>
      </trkpt>
      <trkpt lat="44.12428" lon="2.25625">
        <ele>306</ele>
        <time>2022-09-11T10:06:16.524Z</time>
      </trkpt>
      <trkpt lat="44.12428" lon="2.25624">
        <ele>306</ele>
        <time>2022-09-11T10:06:17.524Z</time>
      </trkpt>
      <trkpt lat="44.12428" lon="2.25622">
        <ele>306</ele>
        <time>2022-09-11T10:06:18.524Z</time>
      </trkpt>
      <trkpt lat="44.12428" lon="2.25621">
        <ele>306</ele>
        <time>2022-09-11T10:06:19.524Z</time>
      </trkpt>
      <trkpt lat="44.12428" lon="2.2562">
        <ele>306</ele>
        <time>2022-09-11T10:06:20.524Z</time>
      </trkpt>
      <trkpt lat="44.12428" lon="2.25618">
        <ele>307</ele>
        <time>2022-09-11T10:06:21.524Z</time>
      </trkpt>
      <trkpt lat="44.12428" lon="2.25616">
        <ele>307</ele>
        <time>2022-09-11T10:06:22.524Z</time>
      </trkpt>
      <trkpt lat="44.12428" lon="2.25615">
        <ele>307</ele>
        <time>2022-09-11T10:06:23.524Z</time>
      </trkpt>
      <trkpt lat="44.12428" lon="2.25614">
        <ele>307</ele>
        <time>2022-09-11T10:06:24.524Z</time>
      </trkpt>
      <trkpt lat="44.12428" lon="2.25613">
        <ele>308</ele>
        <time>2022-09-11T10:06:25.524Z</time>
      </trkpt>
      <trkpt lat="44.12428" lon="2.25611">
        <ele>308</ele>
        <time>2022-09-11T10:06:26.524Z</time>
      </trkpt>
      <trkpt lat="44.12428" lon="2.2561">
        <ele>308</ele>
        <time>2022-09-11T10:06:27.524Z</time>
      </trkpt>
      <trkpt lat="44.12428" lon="2.25609">
        <ele>308</ele>
        <time>2022-09-11T10:06:28.524Z</time>
      </trkpt>
      <trkpt lat="44.12428" lon="2.25607">
        <ele>309</ele>
        <time>2022-09-11T10:06:29.524Z</time>
      </trkpt>
      <trkpt lat="44.12428" lon="2.25606">
        <ele>309</ele>
        <time>2022-09-11T10:06:30.524Z</time>
      </trkpt>
      <trkpt lat="44.12428" lon="2.25604">
        <ele>309</ele>
        <time>2022-09-11T10:06:31.524Z</time>
      </trkpt>
      <trkpt lat="44.12428" lon="2.25603">
        <ele>309</ele>
        <time>2022-09-11T10:06:32.524Z</time>
      </trkpt>
      <trkpt lat="44.12428" lon="2.25602">
        <ele>309</ele>
        <time>2022-09-11T10:06:33.524Z</time>
      </trkpt>
      <trkpt lat="44.12428" lon="2.256">
        <ele>310</ele>
        <time>2022-09-11T10:06:34.524Z</time>
      </trkpt>
      <trkpt lat="44.12428" lon="2.25598">
        <ele>310</ele>
        <time>2022-09-11T10:06:35.524Z</time>
      </trkpt>
      <trkpt lat="44.12428" lon="2.25597">
        <ele>310</ele>
        <time>2022-09-11T10:06:36.524Z</time>
      </trkpt>
      <trkpt lat="44.12428" lon="2.25596">
        <ele>310</ele>
        <time>2022-09-11T10:06:37.524Z</time>
      </trkpt>
      <trkpt lat="44.12429" lon="2.25594">
        <ele>310</ele>
        <time>2022-09-11T10:06:38.524Z</time>
      </trkpt>
      <trkpt lat="44.12429" lon="2.25593">
        <ele>310</ele>
        <time>2022-09-11T10:06:39.524Z</time>
      </trkpt>
      <trkpt lat="44.12428" lon="2.25591">
        <ele>310</ele>
        <time>2022-09-11T10:06:40.524Z</time>
      </trkpt>
      <trkpt lat="44.12428" lon="2.2559">
        <ele>310</ele>
        <time>2022-09-11T10:06:41.524Z</time>
      </trkpt>
      <trkpt lat="44.12428" lon="2.25589">
        <ele>311</ele>
        <time>2022-09-11T10:06:42.524Z</time>
      </trkpt>
      <trkpt lat="44.12428" lon="2.25588">
        <ele>311</ele>
        <time>2022-09-11T10:06:43.524Z</time>
      </trkpt>
      <trkpt lat="44.12428" lon="2.25586">
        <ele>311</ele>
        <time>2022-09-11T10:06:44.524Z</time>
      </trkpt>
      <trkpt lat="44.12428" lon="2.25585">
        <ele>311</ele>
        <time>2022-09-11T10:06:45.524Z</time>
      </trkpt>
      <trkpt lat="44.12428" lon="2.25584">
        <ele>311</ele>
        <time>2022-09-11T10:06:46.524Z</time>
      </trkpt>
      <trkpt lat="44.12429" lon="2.25582">
        <ele>312</ele>
        <time>2022-09-11T10:06:47.524Z</time>
      </trkpt>
      <trkpt lat="44.12429" lon="2.25581">
        <ele>312</ele>
        <time>2022-09-11T10:06:48.524Z</time>
      </trkpt>
      <trkpt lat="44.12429" lon="2.2558">
        <ele>312</ele>
        <time>2022-09-11T10:06:49.524Z</time>
      </trkpt>
      <trkpt lat="44.1243" lon="2.25579">
        <ele>312</ele>
        <time>2022-09-11T10:06:50.524Z</time>
      </trkpt>
      <trkpt lat="44.1243" lon="2.25579">
        <ele>313</ele>
        <time>2022-09-11T10:06:51.524Z</time>
      </trkpt>
      <trkpt lat="44.12431" lon="2.2558">
        <ele>313</ele>
        <time>2022-09-11T10:06:52.524Z</time>
      </trkpt>
      <trkpt lat="44.12431" lon="2.2558">
        <ele>313</ele>
        <time>2022-09-11T10:06:53.524Z</time>
      </trkpt>
      <trkpt lat="44.12431" lon="2.25582">
        <ele>313</ele>
        <time>2022-09-11T10:06:54.524Z</time>
      </trkpt>
      <trkpt lat="44.12432" lon="2.25583">
        <ele>313</ele>
        <time>2022-09-11T10:06:55.524Z</time>
      </trkpt>
      <trkpt lat="44.12432" lon="2.25584">
        <ele>313</ele>
        <time>2022-09-11T10:06:56.524Z</time>
      </trkpt>
      <trkpt lat="44.12433" lon="2.25585">
        <ele>314</ele>
        <time>2022-09-11T10:06:57.524Z</time>
      </trkpt>
      <trkpt lat="44.12433" lon="2.25586">
        <ele>314</ele>
        <time>2022-09-11T10:06:58.524Z</time>
      </trkpt>
      <trkpt lat="44.12434" lon="2.25587">
        <ele>314</ele>
        <time>2022-09-11T10:06:59.524Z</time>
      </trkpt>
      <trkpt lat="44.12434" lon="2.25589">
        <ele>314</ele>
        <time>2022-09-11T10:07:00.524Z</time>
      </trkpt>
      <trkpt lat="44.12434" lon="2.2559">
        <ele>314</ele>
        <time>2022-09-11T10:07:01.524Z</time>
      </trkpt>
      <trkpt lat="44.12434" lon="2.25592">
        <ele>314</ele>
        <time>2022-09-11T10:07:02.524Z</time>
      </trkpt>
      <trkpt lat="44.12435" lon="2.25593">
        <ele>314</ele>
        <time>2022-09-11T10:07:03.524Z</time>
      </trkpt>
      <trkpt lat="44.12435" lon="2.25594">
        <ele>314</ele>
        <time>2022-09-11T10:07:04.524Z</time>
      </trkpt>
      <trkpt lat="44.12435" lon="2.25596">
        <ele>314</ele>
        <time>2022-09-11T10:07:05.524Z</time>
      </trkpt>
      <trkpt lat="44.12436" lon="2.25597">
        <ele>314</ele>
        <time>2022-09-11T10:07:06.524Z</time>
      </trkpt>
      <trkpt lat="44.12436" lon="2.25599">
        <ele>314</ele>
        <time>2022-09-11T10:07:07.524Z</time>
      </trkpt>
      <trkpt lat="44.12436" lon="2.256">
        <ele>314</ele>
        <time>2022-09-11T10:07:08.524Z</time>
      </trkpt>
      <trkpt lat="44.12437" lon="2.25602">
        <ele>314</ele>
        <time>2022-09-11T10:07:09.524Z</time>
      </trkpt>
      <trkpt lat="44.12437" lon="2.25603">
        <ele>314</ele>
        <time>2022-09-11T10:07:10.524Z</time>
      </trkpt>
      <trkpt lat="44.12438" lon="2.25605">
        <ele>314</ele>
        <time>2022-09-11T10:07:11.524Z</time>
      </trkpt>
      <trkpt lat="44.12438" lon="2.25606">
        <ele>315</ele>
        <time>2022-09-11T10:07:12.524Z</time>
      </trkpt>
      <trkpt lat="44.12438" lon="2.25608">
        <ele>315</ele>
        <time>2022-09-11T10:07:13.524Z</time>
      </trkpt>
      <trkpt lat="44.12438" lon="2.25609">
        <ele>315</ele>
        <time>2022-09-11T10:07:14.524Z</time>
      </trkpt>
      <trkpt lat="44.12438" lon="2.25611">
        <ele>315</ele>
        <time>2022-09-11T10:07:15.524Z</time>
      </trkpt>
      <trkpt lat="44.12439" lon="2.25612">
        <ele>315</ele>
        <time>2022-09-11T10:07:16.524Z</time>
      </trkpt>
      <trkpt lat="44.12439" lon="2.25614">
        <ele>315</ele>
        <time>2022-09-11T10:07:17.524Z</time>
      </trkpt>
      <trkpt lat="44.12439" lon="2.25615">
        <ele>315</ele>
        <time>2022-09-11T10:07:18.524Z</time>
      </trkpt>
      <trkpt lat="44.12439" lon="2.25616">
        <ele>315</ele>
        <time>2022-09-11T10:07:19.524Z</time>
      </trkpt>
      <trkpt lat="44.12439" lon="2.25618">
        <ele>316</ele>
        <time>2022-09-11T10:07:20.524Z</time>
      </trkpt>
      <trkpt lat="44.1244" lon="2.25619">
        <ele>316</ele>
        <time>2022-09-11T10:07:21.524Z</time>
      </trkpt>
      <trkpt lat="44.1244" lon="2.25621">
        <ele>316</ele>
        <time>2022-09-11T10:07:22.524Z</time>
      </trkpt>
      <trkpt lat="44.1244" lon="2.25623">
        <ele>316</ele>
        <time>2022-09-11T10:07:23.524Z</time>
      </trkpt>
      <trkpt lat="44.1244" lon="2.25624">
        <ele>316</ele>
        <time>2022-09-11T10:07:24.524Z</time>
      </trkpt>
      <trkpt lat="44.1244" lon="2.25625">
        <ele>316</ele>
        <time>2022-09-11T10:07:25.524Z</time>
      </trkpt>
      <trkpt lat="44.1244" lon="2.25626">
        <ele>316</ele>
        <time>2022-09-11T10:07:26.524Z</time>
      </trkpt>
      <trkpt lat="44.1244" lon="2.25628">
        <ele>316</ele>
        <time>2022-09-11T10:07:27.524Z</time>
      </trkpt>
      <trkpt lat="44.1244" lon="2.25629">
        <ele>316</ele>
        <time>2022-09-11T10:07:28.524Z</time>
      </trkpt>
      <trkpt lat="44.1244" lon="2.2563">
        <ele>316</ele>
        <time>2022-09-11T10:07:29.524Z</time>
      </trkpt>
      <trkpt lat="44.12441" lon="2.25631">
        <ele>316</ele>
        <time>2022-09-11T10:07:30.524Z</time>
      </trkpt>
      <trkpt lat="44.12441" lon="2.25632">
        <ele>316</ele>
        <time>2022-09-11T10:07:31.524Z</time>
      </trkpt>
      <trkpt lat="44.12441" lon="2.25633">
        <ele>316</ele>
        <time>2022-09-11T10:07:32.524Z</time>
      </trkpt>
      <trkpt lat="44.12441" lon="2.25634">
        <ele>316</ele>
        <time>2022-09-11T10:07:33.524Z</time>
      </trkpt>
      <trkpt lat="44.12441" lon="2.25635">
        <ele>316</ele>
        <time>2022-09-11T10:07:34.524Z</time>
      </trkpt>
      <trkpt lat="44.12441" lon="2.25636">
        <ele>317</ele>
        <time>2022-09-11T10:07:35.524Z</time>
      </trkpt>
      <trkpt lat="44.12441" lon="2.25637">
        <ele>317</ele>
        <time>2022-09-11T10:07:36.524Z</time>
      </trkpt>
      <trkpt lat="44.12441" lon="2.25638">
        <ele>317</ele>
        <time>2022-09-11T10:07:37.524Z</time>
      </trkpt>
      <trkpt lat="44.12442" lon="2.25639">
        <ele>317</ele>
        <time>2022-09-11T10:07:38.524Z</time>
      </trkpt>
      <trkpt lat="44.12442" lon="2.2564">
        <ele>317</ele>
        <time>2022-09-11T10:07:39.524Z</time>
      </trkpt>
      <trkpt lat="44.12442" lon="2.25641">
        <ele>317</ele>
        <time>2022-09-11T10:07:40.524Z</time>
      </trkpt>
      <trkpt lat="44.12442" lon="2.25642">
        <ele>317</ele>
        <time>2022-09-11T10:07:41.524Z</time>
      </trkpt>
      <trkpt lat="44.12443" lon="2.25644">
        <ele>317</ele>
        <time>2022-09-11T10:07:42.524Z</time>
      </trkpt>
      <trkpt lat="44.12443" lon="2.25645">
        <ele>317</ele>
        <time>2022-09-11T10:07:43.524Z</time>
      </trkpt>
      <trkpt lat="44.12443" lon="2.25646">
        <ele>317</ele>
        <time>2022-09-11T10:07:44.524Z</time>
      </trkpt>
      <trkpt lat="44.12443" lon="2.25647">
        <ele>317</ele>
        <time>2022-09-11T10:07:45.524Z</time>
      </trkpt>
      <trkpt lat="44.12443" lon="2.25648">
        <ele>317</ele>
        <time>2022-09-11T10:07:46.524Z</time>
      </trkpt>
      <trkpt lat="44.12443" lon="2.2565">
        <ele>317</ele>
        <time>2022-09-11T10:07:47.524Z</time>
      </trkpt>
      <trkpt lat="44.12443" lon="2.25651">
        <ele>317</ele>
        <time>2022-09-11T10:07:48.524Z</time>
      </trkpt>
      <trkpt lat="44.12443" lon="2.25652">
        <ele>318</ele>
        <time>2022-09-11T10:07:49.524Z</time>
      </trkpt>
      <trkpt lat="44.12444" lon="2.25653">
        <ele>318</ele>
        <time>2022-09-11T10:07:50.524Z</time>
      </trkpt>
      <trkpt lat="44.12444" lon="2.25655">
        <ele>318</ele>
        <time>2022-09-11T10:07:51.524Z</time>
      </trkpt>
      <trkpt lat="44.12444" lon="2.25656">
        <ele>318</ele>
        <time>2022-09-11T10:07:52.524Z</time>
      </trkpt>
      <trkpt lat="44.12444" lon="2.25658">
        <ele>318</ele>
        <time>2022-09-11T10:07:53.524Z</time>
      </trkpt>
      <trkpt lat="44.12444" lon="2.25659">
        <ele>318</ele>
        <time>2022-09-11T10:07:54.524Z</time>
      </trkpt>
      <trkpt lat="44.12444" lon="2.2566">
        <ele>318</ele>
        <time>2022-09-11T10:07:55.524Z</time>
      </trkpt>
      <trkpt lat="44.12445" lon="2.25662">
        <ele>318</ele>
        <time>2022-09-11T10:07:56.524Z</time>
      </trkpt>
      <trkpt lat="44.12445" lon="2.25663">
        <ele>318</ele>
        <time>2022-09-11T10:07:57.524Z</time>
      </trkpt>
      <trkpt lat="44.12445" lon="2.25664">
        <ele>318</ele>
        <time>2022-09-11T10:07:58.524Z</time>
      </trkpt>
      <trkpt lat="44.12445" lon="2.25666">
        <ele>318</ele>
        <time>2022-09-11T10:07:59.524Z</time>
      </trkpt>
      <trkpt lat="44.12445" lon="2.25667">
        <ele>318</ele>
        <time>2022-09-11T10:08:00.524Z</time>
      </trkpt>
      <trkpt lat="44.12446" lon="2.25668">
        <ele>318</ele>
        <time>2022-09-11T10:08:01.524Z</time>
      </trkpt>
      <trkpt lat="44.12446" lon="2.2567">
        <ele>319</ele>
        <time>2022-09-11T10:08:02.524Z</time>
      </trkpt>
      <trkpt lat="44.12446" lon="2.25671">
        <ele>319</ele>
        <time>2022-09-11T10:08:03.524Z</time>
      </trkpt>
      <trkpt lat="44.12447" lon="2.25672">
        <ele>319</ele>
        <time>2022-09-11T10:08:04.524Z</time>
      </trkpt>
      <trkpt lat="44.12447" lon="2.25674">
        <ele>319</ele>
        <time>2022-09-11T10:08:05.524Z</time>
      </trkpt>
      <trkpt lat="44.12447" lon="2.25675">
        <ele>319</ele>
        <time>2022-09-11T10:08:06.524Z</time>
      </trkpt>
      <trkpt lat="44.12447" lon="2.25677">
        <ele>319</ele>
        <time>2022-09-11T10:08:07.524Z</time>
      </trkpt>
      <trkpt lat="44.12447" lon="2.25678">
        <ele>320</ele>
        <time>2022-09-11T10:08:08.524Z</time>
      </trkpt>
      <trkpt lat="44.12447" lon="2.2568">
        <ele>320</ele>
        <time>2022-09-11T10:08:09.524Z</time>
      </trkpt>
      <trkpt lat="44.12447" lon="2.25681">
        <ele>320</ele>
        <time>2022-09-11T10:08:10.524Z</time>
      </trkpt>
      <trkpt lat="44.12447" lon="2.25682">
        <ele>320</ele>
        <time>2022-09-11T10:08:11.524Z</time>
      </trkpt>
      <trkpt lat="44.12448" lon="2.25684">
        <ele>320</ele>
        <time>2022-09-11T10:08:12.524Z</time>
      </trkpt>
      <trkpt lat="44.12448" lon="2.25685">
        <ele>320</ele>
        <time>2022-09-11T10:08:13.524Z</time>
      </trkpt>
      <trkpt lat="44.12448" lon="2.25686">
        <ele>320</ele>
        <time>2022-09-11T10:08:14.524Z</time>
      </trkpt>
      <trkpt lat="44.12448" lon="2.25688">
        <ele>320</ele>
        <time>2022-09-11T10:08:15.524Z</time>
      </trkpt>
      <trkpt lat="44.12449" lon="2.25689">
        <ele>321</ele>
        <time>2022-09-11T10:08:16.524Z</time>
      </trkpt>
      <trkpt lat="44.12449" lon="2.2569">
        <ele>321</ele>
        <time>2022-09-11T10:08:17.524Z</time>
      </trkpt>
      <trkpt lat="44.12449" lon="2.25691">
        <ele>321</ele>
        <time>2022-09-11T10:08:18.524Z</time>
      </trkpt>
      <trkpt lat="44.12449" lon="2.25693">
        <ele>321</ele>
        <time>2022-09-11T10:08:19.524Z</time>
      </trkpt>
      <trkpt lat="44.12449" lon="2.25694">
        <ele>321</ele>
        <time>2022-09-11T10:08:20.524Z</time>
      </trkpt>
      <trkpt lat="44.12449" lon="2.25695">
        <ele>321</ele>
        <time>2022-09-11T10:08:21.524Z</time>
      </trkpt>
      <trkpt lat="44.12449" lon="2.25697">
        <ele>322</ele>
        <time>2022-09-11T10:08:22.524Z</time>
      </trkpt>
      <trkpt lat="44.12449" lon="2.25698">
        <ele>322</ele>
        <time>2022-09-11T10:08:23.524Z</time>
      </trkpt>
      <trkpt lat="44.12449" lon="2.257">
        <ele>322</ele>
        <time>2022-09-11T10:08:24.524Z</time>
      </trkpt>
      <trkpt lat="44.12449" lon="2.25701">
        <ele>322</ele>
        <time>2022-09-11T10:08:25.524Z</time>
      </trkpt>
      <trkpt lat="44.12449" lon="2.25702">
        <ele>323</ele>
        <time>2022-09-11T10:08:26.524Z</time>
      </trkpt>
      <trkpt lat="44.12449" lon="2.25703">
        <ele>323</ele>
        <time>2022-09-11T10:08:27.524Z</time>
      </trkpt>
      <trkpt lat="44.12449" lon="2.25705">
        <ele>323</ele>
        <time>2022-09-11T10:08:28.524Z</time>
      </trkpt>
      <trkpt lat="44.12449" lon="2.25706">
        <ele>323</ele>
        <time>2022-09-11T10:08:29.524Z</time>
      </trkpt>
      <trkpt lat="44.12449" lon="2.25707">
        <ele>323</ele>
        <time>2022-09-11T10:08:30.524Z</time>
      </trkpt>
      <trkpt lat="44.12449" lon="2.25708">
        <ele>324</ele>
        <time>2022-09-11T10:08:31.524Z</time>
      </trkpt>
      <trkpt lat="44.12449" lon="2.2571">
        <ele>324</ele>
        <time>2022-09-11T10:08:32.524Z</time>
      </trkpt>
      <trkpt lat="44.12449" lon="2.25711">
        <ele>324</ele>
        <time>2022-09-11T10:08:33.524Z</time>
      </trkpt>
      <trkpt lat="44.12449" lon="2.25712">
        <ele>324</ele>
        <time>2022-09-11T10:08:34.524Z</time>
      </trkpt>
      <trkpt lat="44.12449" lon="2.25713">
        <ele>324</ele>
        <time>2022-09-11T10:08:35.524Z</time>
      </trkpt>
      <trkpt lat="44.1245" lon="2.25713">
        <ele>324</ele>
        <time>2022-09-11T10:08:36.524Z</time>
      </trkpt>
      <trkpt lat="44.1245" lon="2.25713">
        <ele>324</ele>
        <time>2022-09-11T10:08:37.524Z</time>
      </trkpt>
      <trkpt lat="44.12451" lon="2.25713">
        <ele>324</ele>
        <time>2022-09-11T10:08:38.524Z</time>
      </trkpt>
      <trkpt lat="44.12452" lon="2.25712">
        <ele>325</ele>
        <time>2022-09-11T10:08:39.524Z</time>
      </trkpt>
      <trkpt lat="44.12452" lon="2.25711">
        <ele>325</ele>
        <time>2022-09-11T10:08:40.524Z</time>
      </trkpt>
      <trkpt lat="44.12452" lon="2.2571">
        <ele>325</ele>
        <time>2022-09-11T10:08:41.524Z</time>
      </trkpt>
      <trkpt lat="44.12453" lon="2.25709">
        <ele>325</ele>
        <time>2022-09-11T10:08:42.524Z</time>
      </trkpt>
      <trkpt lat="44.12453" lon="2.25707">
        <ele>325</ele>
        <time>2022-09-11T10:08:43.524Z</time>
      </trkpt>
      <trkpt lat="44.12453" lon="2.25706">
        <ele>325</ele>
        <time>2022-09-11T10:08:44.524Z</time>
      </trkpt>
      <trkpt lat="44.12454" lon="2.25705">
        <ele>325</ele>
        <time>2022-09-11T10:08:45.524Z</time>
      </trkpt>
      <trkpt lat="44.12454" lon="2.25703">
        <ele>325</ele>
        <time>2022-09-11T10:08:46.524Z</time>
      </trkpt>
      <trkpt lat="44.12454" lon="2.25702">
        <ele>325</ele>
        <time>2022-09-11T10:08:47.524Z</time>
      </trkpt>
      <trkpt lat="44.12455" lon="2.25701">
        <ele>325</ele>
        <time>2022-09-11T10:08:48.524Z</time>
      </trkpt>
      <trkpt lat="44.12455" lon="2.25699">
        <ele>325</ele>
        <time>2022-09-11T10:08:49.524Z</time>
      </trkpt>
      <trkpt lat="44.12455" lon="2.25698">
        <ele>325</ele>
        <time>2022-09-11T10:08:50.524Z</time>
      </trkpt>
      <trkpt lat="44.12455" lon="2.25697">
        <ele>325</ele>
        <time>2022-09-11T10:08:51.524Z</time>
      </trkpt>
      <trkpt lat="44.12455" lon="2.25696">
        <ele>326</ele>
        <time>2022-09-11T10:08:52.524Z</time>
      </trkpt>
      <trkpt lat="44.12455" lon="2.25694">
        <ele>326</ele>
        <time>2022-09-11T10:08:53.524Z</time>
      </trkpt>
      <trkpt lat="44.12456" lon="2.25693">
        <ele>326</ele>
        <time>2022-09-11T10:08:54.524Z</time>
      </trkpt>
      <trkpt lat="44.12456" lon="2.25692">
        <ele>326</ele>
        <time>2022-09-11T10:08:55.524Z</time>
      </trkpt>
      <trkpt lat="44.12456" lon="2.25691">
        <ele>326</ele>
        <time>2022-09-11T10:08:56.524Z</time>
      </trkpt>
      <trkpt lat="44.12456" lon="2.25689">
        <ele>326</ele>
        <time>2022-09-11T10:08:57.524Z</time>
      </trkpt>
      <trkpt lat="44.12457" lon="2.25688">
        <ele>327</ele>
        <time>2022-09-11T10:08:58.524Z</time>
      </trkpt>
      <trkpt lat="44.12457" lon="2.25687">
        <ele>327</ele>
        <time>2022-09-11T10:08:59.524Z</time>
      </trkpt>
      <trkpt lat="44.12457" lon="2.25686">
        <ele>327</ele>
        <time>2022-09-11T10:09:00.524Z</time>
      </trkpt>
      <trkpt lat="44.12457" lon="2.25685">
        <ele>327</ele>
        <time>2022-09-11T10:09:01.524Z</time>
      </trkpt>
      <trkpt lat="44.12458" lon="2.25683">
        <ele>327</ele>
        <time>2022-09-11T10:09:02.524Z</time>
      </trkpt>
      <trkpt lat="44.12458" lon="2.25682">
        <ele>327</ele>
        <time>2022-09-11T10:09:03.524Z</time>
      </trkpt>
      <trkpt lat="44.12458" lon="2.25681">
        <ele>328</ele>
        <time>2022-09-11T10:09:04.524Z</time>
      </trkpt>
      <trkpt lat="44.12458" lon="2.2568">
        <ele>328</ele>
        <time>2022-09-11T10:09:05.524Z</time>
      </trkpt>
      <trkpt lat="44.12459" lon="2.25679">
        <ele>328</ele>
        <time>2022-09-11T10:09:06.524Z</time>
      </trkpt>
      <trkpt lat="44.12459" lon="2.25678">
        <ele>328</ele>
        <time>2022-09-11T10:09:07.524Z</time>
      </trkpt>
      <trkpt lat="44.12459" lon="2.25677">
        <ele>328</ele>
        <time>2022-09-11T10:09:08.524Z</time>
      </trkpt>
      <trkpt lat="44.1246" lon="2.25676">
        <ele>329</ele>
        <time>2022-09-11T10:09:09.524Z</time>
      </trkpt>
      <trkpt lat="44.12459" lon="2.25675">
        <ele>329</ele>
        <time>2022-09-11T10:09:10.524Z</time>
      </trkpt>
      <trkpt lat="44.1246" lon="2.25673">
        <ele>329</ele>
        <time>2022-09-11T10:09:11.524Z</time>
      </trkpt>
      <trkpt lat="44.1246" lon="2.25672">
        <ele>329</ele>
        <time>2022-09-11T10:09:12.524Z</time>
      </trkpt>
      <trkpt lat="44.1246" lon="2.25671">
        <ele>329</ele>
        <time>2022-09-11T10:09:13.524Z</time>
      </trkpt>
      <trkpt lat="44.1246" lon="2.2567">
        <ele>329</ele>
        <time>2022-09-11T10:09:14.524Z</time>
      </trkpt>
      <trkpt lat="44.1246" lon="2.25669">
        <ele>329</ele>
        <time>2022-09-11T10:09:15.524Z</time>
      </trkpt>
      <trkpt lat="44.1246" lon="2.25668">
        <ele>330</ele>
        <time>2022-09-11T10:09:16.524Z</time>
      </trkpt>
      <trkpt lat="44.12461" lon="2.25667">
        <ele>330</ele>
        <time>2022-09-11T10:09:17.524Z</time>
      </trkpt>
      <trkpt lat="44.12461" lon="2.25666">
        <ele>330</ele>
        <time>2022-09-11T10:09:18.524Z</time>
      </trkpt>
      <trkpt lat="44.12461" lon="2.25665">
        <ele>330</ele>
        <time>2022-09-11T10:09:19.524Z</time>
      </trkpt>
      <trkpt lat="44.12462" lon="2.25664">
        <ele>330</ele>
        <time>2022-09-11T10:09:20.524Z</time>
      </trkpt>
      <trkpt lat="44.12462" lon="2.25663">
        <ele>330</ele>
        <time>2022-09-11T10:09:21.524Z</time>
      </trkpt>
      <trkpt lat="44.12463" lon="2.25662">
        <ele>330</ele>
        <time>2022-09-11T10:09:22.524Z</time>
      </trkpt>
      <trkpt lat="44.12463" lon="2.2566">
        <ele>330</ele>
        <time>2022-09-11T10:09:23.524Z</time>
      </trkpt>
      <trkpt lat="44.12463" lon="2.25659">
        <ele>330</ele>
        <time>2022-09-11T10:09:24.524Z</time>
      </trkpt>
      <trkpt lat="44.12463" lon="2.25658">
        <ele>330</ele>
        <time>2022-09-11T10:09:25.524Z</time>
      </trkpt>
      <trkpt lat="44.12464" lon="2.25657">
        <ele>330</ele>
        <time>2022-09-11T10:09:26.524Z</time>
      </trkpt>
      <trkpt lat="44.12464" lon="2.25656">
        <ele>331</ele>
        <time>2022-09-11T10:09:27.524Z</time>
      </trkpt>
      <trkpt lat="44.12464" lon="2.25655">
        <ele>331</ele>
        <time>2022-09-11T10:09:28.524Z</time>
      </trkpt>
      <trkpt lat="44.12464" lon="2.25653">
        <ele>331</ele>
        <time>2022-09-11T10:09:29.524Z</time>
      </trkpt>
      <trkpt lat="44.12464" lon="2.25652">
        <ele>331</ele>
        <time>2022-09-11T10:09:30.524Z</time>
      </trkpt>
      <trkpt lat="44.12464" lon="2.25651">
        <ele>331</ele>
        <time>2022-09-11T10:09:31.524Z</time>
      </trkpt>
      <trkpt lat="44.12464" lon="2.2565">
        <ele>331</ele>
        <time>2022-09-11T10:09:32.524Z</time>
      </trkpt>
      <trkpt lat="44.12465" lon="2.25649">
        <ele>331</ele>
        <time>2022-09-11T10:09:33.524Z</time>
      </trkpt>
      <trkpt lat="44.12465" lon="2.25647">
        <ele>332</ele>
        <time>2022-09-11T10:09:34.524Z</time>
      </trkpt>
      <trkpt lat="44.12465" lon="2.25646">
        <ele>332</ele>
        <time>2022-09-11T10:09:35.524Z</time>
      </trkpt>
      <trkpt lat="44.12465" lon="2.25645">
        <ele>332</ele>
        <time>2022-09-11T10:09:36.524Z</time>
      </trkpt>
      <trkpt lat="44.12465" lon="2.25644">
        <ele>332</ele>
        <time>2022-09-11T10:09:37.524Z</time>
      </trkpt>
      <trkpt lat="44.12465" lon="2.25643">
        <ele>332</ele>
        <time>2022-09-11T10:09:38.524Z</time>
      </trkpt>
      <trkpt lat="44.12465" lon="2.25641">
        <ele>332</ele>
        <time>2022-09-11T10:09:39.524Z</time>
      </trkpt>
      <trkpt lat="44.12465" lon="2.2564">
        <ele>332</ele>
        <time>2022-09-11T10:09:40.524Z</time>
      </trkpt>
      <trkpt lat="44.12466" lon="2.25639">
        <ele>333</ele>
        <time>2022-09-11T10:09:41.524Z</time>
      </trkpt>
      <trkpt lat="44.12466" lon="2.25637">
        <ele>333</ele>
        <time>2022-09-11T10:09:42.524Z</time>
      </trkpt>
      <trkpt lat="44.12466" lon="2.25636">
        <ele>333</ele>
        <time>2022-09-11T10:09:43.524Z</time>
      </trkpt>
      <trkpt lat="44.12466" lon="2.25635">
        <ele>333</ele>
        <time>2022-09-11T10:09:44.524Z</time>
      </trkpt>
      <trkpt lat="44.12466" lon="2.25633">
        <ele>333</ele>
        <time>2022-09-11T10:09:45.524Z</time>
      </trkpt>
      <trkpt lat="44.12466" lon="2.25632">
        <ele>333</ele>
        <time>2022-09-11T10:09:46.524Z</time>
      </trkpt>
      <trkpt lat="44.12466" lon="2.25631">
        <ele>334</ele>
        <time>2022-09-11T10:09:47.524Z</time>
      </trkpt>
      <trkpt lat="44.12466" lon="2.25629">
        <ele>334</ele>
        <time>2022-09-11T10:09:48.524Z</time>
      </trkpt>
      <trkpt lat="44.12466" lon="2.25628">
        <ele>334</ele>
        <time>2022-09-11T10:09:49.524Z</time>
      </trkpt>
      <trkpt lat="44.12466" lon="2.25627">
        <ele>334</ele>
        <time>2022-09-11T10:09:50.524Z</time>
      </trkpt>
      <trkpt lat="44.12466" lon="2.25625">
        <ele>334</ele>
        <time>2022-09-11T10:09:51.524Z</time>
      </trkpt>
      <trkpt lat="44.12466" lon="2.25624">
        <ele>334</ele>
        <time>2022-09-11T10:09:52.524Z</time>
      </trkpt>
      <trkpt lat="44.12466" lon="2.25622">
        <ele>334</ele>
        <time>2022-09-11T10:09:53.524Z</time>
      </trkpt>
      <trkpt lat="44.12466" lon="2.25621">
        <ele>334</ele>
        <time>2022-09-11T10:09:54.524Z</time>
      </trkpt>
      <trkpt lat="44.12466" lon="2.25619">
        <ele>334</ele>
        <time>2022-09-11T10:09:55.524Z</time>
      </trkpt>
      <trkpt lat="44.12466" lon="2.25618">
        <ele>335</ele>
        <time>2022-09-11T10:09:56.524Z</time>
      </trkpt>
      <trkpt lat="44.12466" lon="2.25616">
        <ele>335</ele>
        <time>2022-09-11T10:09:57.524Z</time>
      </trkpt>
      <trkpt lat="44.12466" lon="2.25615">
        <ele>335</ele>
        <time>2022-09-11T10:09:58.524Z</time>
      </trkpt>
      <trkpt lat="44.12466" lon="2.25613">
        <ele>335</ele>
        <time>2022-09-11T10:09:59.524Z</time>
      </trkpt>
      <trkpt lat="44.12465" lon="2.25612">
        <ele>335</ele>
        <time>2022-09-11T10:10:00.524Z</time>
      </trkpt>
      <trkpt lat="44.12465" lon="2.25611">
        <ele>335</ele>
        <time>2022-09-11T10:10:01.524Z</time>
      </trkpt>
      <trkpt lat="44.12465" lon="2.25609">
        <ele>336</ele>
        <time>2022-09-11T10:10:02.524Z</time>
      </trkpt>
      <trkpt lat="44.12465" lon="2.25608">
        <ele>336</ele>
        <time>2022-09-11T10:10:03.524Z</time>
      </trkpt>
      <trkpt lat="44.12465" lon="2.25606">
        <ele>336</ele>
        <time>2022-09-11T10:10:04.524Z</time>
      </trkpt>
      <trkpt lat="44.12465" lon="2.25605">
        <ele>336</ele>
        <time>2022-09-11T10:10:05.524Z</time>
      </trkpt>
      <trkpt lat="44.12465" lon="2.25604">
        <ele>336</ele>
        <time>2022-09-11T10:10:06.524Z</time>
      </trkpt>
      <trkpt lat="44.12465" lon="2.25602">
        <ele>336</ele>
        <time>2022-09-11T10:10:07.524Z</time>
      </trkpt>
      <trkpt lat="44.12465" lon="2.25601">
        <ele>336</ele>
        <time>2022-09-11T10:10:08.524Z</time>
      </trkpt>
      <trkpt lat="44.12465" lon="2.25599">
        <ele>336</ele>
        <time>2022-09-11T10:10:09.524Z</time>
      </trkpt>
      <trkpt lat="44.12465" lon="2.25598">
        <ele>336</ele>
        <time>2022-09-11T10:10:10.524Z</time>
      </trkpt>
      <trkpt lat="44.12465" lon="2.25596">
        <ele>337</ele>
        <time>2022-09-11T10:10:11.524Z</time>
      </trkpt>
      <trkpt lat="44.12465" lon="2.25595">
        <ele>337</ele>
        <time>2022-09-11T10:10:12.524Z</time>
      </trkpt>
      <trkpt lat="44.12465" lon="2.25593">
        <ele>337</ele>
        <time>2022-09-11T10:10:13.524Z</time>
      </trkpt>
      <trkpt lat="44.12465" lon="2.25592">
        <ele>337</ele>
        <time>2022-09-11T10:10:14.524Z</time>
      </trkpt>
      <trkpt lat="44.12465" lon="2.2559">
        <ele>337</ele>
        <time>2022-09-11T10:10:15.524Z</time>
      </trkpt>
      <trkpt lat="44.12465" lon="2.25589">
        <ele>337</ele>
        <time>2022-09-11T10:10:16.524Z</time>
      </trkpt>
      <trkpt lat="44.12465" lon="2.25587">
        <ele>337</ele>
        <time>2022-09-11T10:10:17.524Z</time>
      </trkpt>
      <trkpt lat="44.12465" lon="2.25586">
        <ele>337</ele>
        <time>2022-09-11T10:10:18.524Z</time>
      </trkpt>
      <trkpt lat="44.12465" lon="2.25584">
        <ele>337</ele>
        <time>2022-09-11T10:10:19.524Z</time>
      </trkpt>
      <trkpt lat="44.12465" lon="2.25583">
        <ele>337</ele>
        <time>2022-09-11T10:10:20.524Z</time>
      </trkpt>
      <trkpt lat="44.12465" lon="2.25581">
        <ele>337</ele>
        <time>2022-09-11T10:10:21.524Z</time>
      </trkpt>
      <trkpt lat="44.12465" lon="2.2558">
        <ele>338</ele>
        <time>2022-09-11T10:10:22.524Z</time>
      </trkpt>
      <trkpt lat="44.12466" lon="2.25579">
        <ele>338</ele>
        <time>2022-09-11T10:10:23.524Z</time>
      </trkpt>
      <trkpt lat="44.12466" lon="2.25577">
        <ele>338</ele>
        <time>2022-09-11T10:10:24.524Z</time>
      </trkpt>
      <trkpt lat="44.12466" lon="2.25576">
        <ele>338</ele>
        <time>2022-09-11T10:10:25.524Z</time>
      </trkpt>
      <trkpt lat="44.12466" lon="2.25574">
        <ele>338</ele>
        <time>2022-09-11T10:10:26.524Z</time>
      </trkpt>
      <trkpt lat="44.12466" lon="2.25573">
        <ele>338</ele>
        <time>2022-09-11T10:10:27.524Z</time>
      </trkpt>
      <trkpt lat="44.12466" lon="2.25572">
        <ele>338</ele>
        <time>2022-09-11T10:10:28.524Z</time>
      </trkpt>
      <trkpt lat="44.12466" lon="2.2557">
        <ele>339</ele>
        <time>2022-09-11T10:10:29.524Z</time>
      </trkpt>
      <trkpt lat="44.12467" lon="2.25569">
        <ele>339</ele>
        <time>2022-09-11T10:10:30.524Z</time>
      </trkpt>
      <trkpt lat="44.12467" lon="2.25567">
        <ele>339</ele>
        <time>2022-09-11T10:10:31.524Z</time>
      </trkpt>
      <trkpt lat="44.12467" lon="2.25566">
        <ele>339</ele>
        <time>2022-09-11T10:10:32.524Z</time>
      </trkpt>
      <trkpt lat="44.12467" lon="2.25565">
        <ele>339</ele>
        <time>2022-09-11T10:10:33.524Z</time>
      </trkpt>
      <trkpt lat="44.12468" lon="2.25564">
        <ele>339</ele>
        <time>2022-09-11T10:10:34.524Z</time>
      </trkpt>
      <trkpt lat="44.12468" lon="2.25563">
        <ele>339</ele>
        <time>2022-09-11T10:10:35.524Z</time>
      </trkpt>
      <trkpt lat="44.12468" lon="2.25562">
        <ele>340</ele>
        <time>2022-09-11T10:10:36.524Z</time>
      </trkpt>
      <trkpt lat="44.12469" lon="2.25561">
        <ele>340</ele>
        <time>2022-09-11T10:10:37.524Z</time>
      </trkpt>
      <trkpt lat="44.12469" lon="2.2556">
        <ele>340</ele>
        <time>2022-09-11T10:10:38.524Z</time>
      </trkpt>
      <trkpt lat="44.12469" lon="2.2556">
        <ele>340</ele>
        <time>2022-09-11T10:10:39.524Z</time>
      </trkpt>
      <trkpt lat="44.12469" lon="2.2556">
        <ele>340</ele>
        <time>2022-09-11T10:10:40.524Z</time>
      </trkpt>
      <trkpt lat="44.12469" lon="2.2556">
        <ele>340</ele>
        <time>2022-09-11T10:10:41.524Z</time>
      </trkpt>
      <trkpt lat="44.12469" lon="2.25559">
        <ele>340</ele>
        <time>2022-09-11T10:10:42.524Z</time>
      </trkpt>
      <trkpt lat="44.12469" lon="2.25558">
        <ele>340</ele>
        <time>2022-09-11T10:10:46.527Z</time>
      </trkpt>
      <trkpt lat="44.12469" lon="2.25555">
        <ele>340</ele>
        <time>2022-09-11T10:10:47.527Z</time>
      </trkpt>
      <trkpt lat="44.12469" lon="2.25554">
        <ele>340</ele>
        <time>2022-09-11T10:10:48.527Z</time>
      </trkpt>
      <trkpt lat="44.12469" lon="2.25554">
        <ele>340</ele>
        <time>2022-09-11T10:10:49.527Z</time>
      </trkpt>
      <trkpt lat="44.12469" lon="2.25554">
        <ele>340</ele>
        <time>2022-09-11T10:10:50.527Z</time>
      </trkpt>
      <trkpt lat="44.12469" lon="2.25554">
        <ele>340</ele>
        <time>2022-09-11T10:10:51.527Z</time>
      </trkpt>
      <trkpt lat="44.12469" lon="2.25554">
        <ele>340</ele>
        <time>2022-09-11T10:10:52.527Z</time>
      </trkpt>
      <trkpt lat="44.12469" lon="2.25554">
        <ele>340</ele>
        <time>2022-09-11T10:10:53.527Z</time>
      </trkpt>
      <trkpt lat="44.1247" lon="2.25552">
        <ele>342</ele>
        <time>2022-09-11T10:15:05.534Z</time>
      </trkpt>
      <trkpt lat="44.12471" lon="2.25552">
        <ele>342</ele>
        <time>2022-09-11T10:15:06.534Z</time>
      </trkpt>
      <trkpt lat="44.12471" lon="2.25551">
        <ele>342</ele>
        <time>2022-09-11T10:15:07.534Z</time>
      </trkpt>
      <trkpt lat="44.12472" lon="2.2555">
        <ele>342</ele>
        <time>2022-09-11T10:15:08.534Z</time>
      </trkpt>
      <trkpt lat="44.12473" lon="2.25549">
        <ele>342</ele>
        <time>2022-09-11T10:15:09.534Z</time>
      </trkpt>
      <trkpt lat="44.12474" lon="2.25549">
        <ele>342</ele>
        <time>2022-09-11T10:15:10.534Z</time>
      </trkpt>
      <trkpt lat="44.12475" lon="2.25548">
        <ele>342</ele>
        <time>2022-09-11T10:15:11.534Z</time>
      </trkpt>
      <trkpt lat="44.12475" lon="2.25546">
        <ele>342</ele>
        <time>2022-09-11T10:15:12.534Z</time>
      </trkpt>
      <trkpt lat="44.12476" lon="2.25545">
        <ele>342</ele>
        <time>2022-09-11T10:15:13.534Z</time>
      </trkpt>
      <trkpt lat="44.12477" lon="2.25545">
        <ele>342</ele>
        <time>2022-09-11T10:15:14.534Z</time>
      </trkpt>
      <trkpt lat="44.12478" lon="2.25544">
        <ele>342</ele>
        <time>2022-09-11T10:15:15.534Z</time>
      </trkpt>
      <trkpt lat="44.12478" lon="2.25543">
        <ele>342</ele>
        <time>2022-09-11T10:15:16.534Z</time>
      </trkpt>
      <trkpt lat="44.12479" lon="2.25542">
        <ele>343</ele>
        <time>2022-09-11T10:15:17.534Z</time>
      </trkpt>
      <trkpt lat="44.12479" lon="2.25541">
        <ele>343</ele>
        <time>2022-09-11T10:15:18.534Z</time>
      </trkpt>
      <trkpt lat="44.1248" lon="2.2554">
        <ele>343</ele>
        <time>2022-09-11T10:15:19.534Z</time>
      </trkpt>
      <trkpt lat="44.1248" lon="2.25539">
        <ele>343</ele>
        <time>2022-09-11T10:15:20.534Z</time>
      </trkpt>
      <trkpt lat="44.1248" lon="2.25539">
        <ele>343</ele>
        <time>2022-09-11T10:15:21.534Z</time>
      </trkpt>
      <trkpt lat="44.12481" lon="2.25537">
        <ele>343</ele>
        <time>2022-09-11T10:15:22.534Z</time>
      </trkpt>
      <trkpt lat="44.12481" lon="2.25536">
        <ele>343</ele>
        <time>2022-09-11T10:15:23.534Z</time>
      </trkpt>
      <trkpt lat="44.12482" lon="2.25535">
        <ele>343</ele>
        <time>2022-09-11T10:15:24.534Z</time>
      </trkpt>
      <trkpt lat="44.12482" lon="2.25534">
        <ele>343</ele>
        <time>2022-09-11T10:15:25.534Z</time>
      </trkpt>
      <trkpt lat="44.12482" lon="2.25532">
        <ele>343</ele>
        <time>2022-09-11T10:15:26.534Z</time>
      </trkpt>
      <trkpt lat="44.12482" lon="2.25531">
        <ele>343</ele>
        <time>2022-09-11T10:15:27.534Z</time>
      </trkpt>
      <trkpt lat="44.12483" lon="2.2553">
        <ele>343</ele>
        <time>2022-09-11T10:15:28.534Z</time>
      </trkpt>
      <trkpt lat="44.12484" lon="2.25529">
        <ele>343</ele>
        <time>2022-09-11T10:15:29.534Z</time>
      </trkpt>
      <trkpt lat="44.12484" lon="2.25527">
        <ele>343</ele>
        <time>2022-09-11T10:15:30.534Z</time>
      </trkpt>
      <trkpt lat="44.12484" lon="2.25526">
        <ele>343</ele>
        <time>2022-09-11T10:15:31.534Z</time>
      </trkpt>
      <trkpt lat="44.12484" lon="2.25525">
        <ele>343</ele>
        <time>2022-09-11T10:15:32.534Z</time>
      </trkpt>
      <trkpt lat="44.12484" lon="2.25523">
        <ele>343</ele>
        <time>2022-09-11T10:15:33.534Z</time>
      </trkpt>
      <trkpt lat="44.12484" lon="2.25522">
        <ele>343</ele>
        <time>2022-09-11T10:15:34.534Z</time>
      </trkpt>
      <trkpt lat="44.12484" lon="2.2552">
        <ele>343</ele>
        <time>2022-09-11T10:15:35.534Z</time>
      </trkpt>
      <trkpt lat="44.12484" lon="2.25519">
        <ele>343</ele>
        <time>2022-09-11T10:15:36.534Z</time>
      </trkpt>
      <trkpt lat="44.12484" lon="2.25518">
        <ele>343</ele>
        <time>2022-09-11T10:15:37.534Z</time>
      </trkpt>
      <trkpt lat="44.12484" lon="2.25517">
        <ele>343</ele>
        <time>2022-09-11T10:15:38.534Z</time>
      </trkpt>
      <trkpt lat="44.12484" lon="2.25516">
        <ele>343</ele>
        <time>2022-09-11T10:15:39.534Z</time>
      </trkpt>
      <trkpt lat="44.12484" lon="2.25514">
        <ele>343</ele>
        <time>2022-09-11T10:15:40.534Z</time>
      </trkpt>
      <trkpt lat="44.12485" lon="2.25513">
        <ele>343</ele>
        <time>2022-09-11T10:15:41.534Z</time>
      </trkpt>
      <trkpt lat="44.12486" lon="2.25512">
        <ele>343</ele>
        <time>2022-09-11T10:15:42.534Z</time>
      </trkpt>
      <trkpt lat="44.12486" lon="2.25511">
        <ele>344</ele>
        <time>2022-09-11T10:15:43.534Z</time>
      </trkpt>
      <trkpt lat="44.12487" lon="2.2551">
        <ele>344</ele>
        <time>2022-09-11T10:15:44.534Z</time>
      </trkpt>
      <trkpt lat="44.12487" lon="2.25508">
        <ele>344</ele>
        <time>2022-09-11T10:15:45.534Z</time>
      </trkpt>
      <trkpt lat="44.12488" lon="2.25507">
        <ele>344</ele>
        <time>2022-09-11T10:15:46.534Z</time>
      </trkpt>
      <trkpt lat="44.12488" lon="2.25506">
        <ele>344</ele>
        <time>2022-09-11T10:15:47.534Z</time>
      </trkpt>
      <trkpt lat="44.12489" lon="2.25505">
        <ele>344</ele>
        <time>2022-09-11T10:15:48.534Z</time>
      </trkpt>
      <trkpt lat="44.12489" lon="2.25503">
        <ele>344</ele>
        <time>2022-09-11T10:15:49.534Z</time>
      </trkpt>
      <trkpt lat="44.1249" lon="2.25502">
        <ele>344</ele>
        <time>2022-09-11T10:15:50.534Z</time>
      </trkpt>
      <trkpt lat="44.1249" lon="2.25501">
        <ele>344</ele>
        <time>2022-09-11T10:15:51.534Z</time>
      </trkpt>
      <trkpt lat="44.12491" lon="2.25499">
        <ele>344</ele>
        <time>2022-09-11T10:15:52.534Z</time>
      </trkpt>
      <trkpt lat="44.12491" lon="2.25498">
        <ele>344</ele>
        <time>2022-09-11T10:15:53.534Z</time>
      </trkpt>
      <trkpt lat="44.12492" lon="2.25497">
        <ele>345</ele>
        <time>2022-09-11T10:15:54.534Z</time>
      </trkpt>
      <trkpt lat="44.12492" lon="2.25496">
        <ele>345</ele>
        <time>2022-09-11T10:15:55.534Z</time>
      </trkpt>
      <trkpt lat="44.12493" lon="2.25494">
        <ele>345</ele>
        <time>2022-09-11T10:15:56.534Z</time>
      </trkpt>
      <trkpt lat="44.12494" lon="2.25493">
        <ele>345</ele>
        <time>2022-09-11T10:15:57.534Z</time>
      </trkpt>
      <trkpt lat="44.12494" lon="2.25491">
        <ele>345</ele>
        <time>2022-09-11T10:15:58.534Z</time>
      </trkpt>
      <trkpt lat="44.12494" lon="2.2549">
        <ele>345</ele>
        <time>2022-09-11T10:15:59.534Z</time>
      </trkpt>
      <trkpt lat="44.12495" lon="2.25489">
        <ele>345</ele>
        <time>2022-09-11T10:16:00.534Z</time>
      </trkpt>
      <trkpt lat="44.12495" lon="2.25488">
        <ele>345</ele>
        <time>2022-09-11T10:16:01.534Z</time>
      </trkpt>
      <trkpt lat="44.12495" lon="2.25486">
        <ele>345</ele>
        <time>2022-09-11T10:16:02.534Z</time>
      </trkpt>
      <trkpt lat="44.12496" lon="2.25485">
        <ele>345</ele>
        <time>2022-09-11T10:16:03.534Z</time>
      </trkpt>
      <trkpt lat="44.12496" lon="2.25484">
        <ele>345</ele>
        <time>2022-09-11T10:16:04.534Z</time>
      </trkpt>
      <trkpt lat="44.12497" lon="2.25483">
        <ele>345</ele>
        <time>2022-09-11T10:16:05.534Z</time>
      </trkpt>
      <trkpt lat="44.12497" lon="2.25481">
        <ele>345</ele>
        <time>2022-09-11T10:16:06.534Z</time>
      </trkpt>
      <trkpt lat="44.12498" lon="2.2548">
        <ele>345</ele>
        <time>2022-09-11T10:16:07.534Z</time>
      </trkpt>
      <trkpt lat="44.12498" lon="2.25479">
        <ele>345</ele>
        <time>2022-09-11T10:16:08.534Z</time>
      </trkpt>
      <trkpt lat="44.12498" lon="2.25478">
        <ele>346</ele>
        <time>2022-09-11T10:16:09.534Z</time>
      </trkpt>
      <trkpt lat="44.12499" lon="2.25477">
        <ele>346</ele>
        <time>2022-09-11T10:16:10.534Z</time>
      </trkpt>
      <trkpt lat="44.12499" lon="2.25475">
        <ele>346</ele>
        <time>2022-09-11T10:16:11.534Z</time>
      </trkpt>
      <trkpt lat="44.12499" lon="2.25474">
        <ele>346</ele>
        <time>2022-09-11T10:16:12.534Z</time>
      </trkpt>
      <trkpt lat="44.12499" lon="2.25473">
        <ele>346</ele>
        <time>2022-09-11T10:16:13.534Z</time>
      </trkpt>
      <trkpt lat="44.12498" lon="2.25472">
        <ele>346</ele>
        <time>2022-09-11T10:16:14.534Z</time>
      </trkpt>
      <trkpt lat="44.12498" lon="2.2547">
        <ele>347</ele>
        <time>2022-09-11T10:16:15.534Z</time>
      </trkpt>
      <trkpt lat="44.12498" lon="2.25469">
        <ele>347</ele>
        <time>2022-09-11T10:16:16.534Z</time>
      </trkpt>
      <trkpt lat="44.12497" lon="2.25468">
        <ele>347</ele>
        <time>2022-09-11T10:16:17.534Z</time>
      </trkpt>
      <trkpt lat="44.12497" lon="2.25466">
        <ele>347</ele>
        <time>2022-09-11T10:16:18.534Z</time>
      </trkpt>
      <trkpt lat="44.12496" lon="2.25465">
        <ele>347</ele>
        <time>2022-09-11T10:16:19.534Z</time>
      </trkpt>
      <trkpt lat="44.12496" lon="2.25464">
        <ele>347</ele>
        <time>2022-09-11T10:16:20.534Z</time>
      </trkpt>
      <trkpt lat="44.12496" lon="2.25463">
        <ele>347</ele>
        <time>2022-09-11T10:16:21.534Z</time>
      </trkpt>
      <trkpt lat="44.12495" lon="2.25463">
        <ele>347</ele>
        <time>2022-09-11T10:16:22.534Z</time>
      </trkpt>
      <trkpt lat="44.12495" lon="2.25462">
        <ele>347</ele>
        <time>2022-09-11T10:16:23.534Z</time>
      </trkpt>
      <trkpt lat="44.12495" lon="2.25461">
        <ele>348</ele>
        <time>2022-09-11T10:16:24.534Z</time>
      </trkpt>
      <trkpt lat="44.12494" lon="2.2546">
        <ele>348</ele>
        <time>2022-09-11T10:16:25.534Z</time>
      </trkpt>
      <trkpt lat="44.12494" lon="2.25459">
        <ele>348</ele>
        <time>2022-09-11T10:16:26.534Z</time>
      </trkpt>
      <trkpt lat="44.12493" lon="2.25459">
        <ele>348</ele>
        <time>2022-09-11T10:16:27.534Z</time>
      </trkpt>
      <trkpt lat="44.12493" lon="2.25458">
        <ele>348</ele>
        <time>2022-09-11T10:16:28.534Z</time>
      </trkpt>
      <trkpt lat="44.12493" lon="2.25457">
        <ele>348</ele>
        <time>2022-09-11T10:16:29.534Z</time>
      </trkpt>
      <trkpt lat="44.12492" lon="2.25456">
        <ele>348</ele>
        <time>2022-09-11T10:16:30.534Z</time>
      </trkpt>
      <trkpt lat="44.12492" lon="2.25454">
        <ele>348</ele>
        <time>2022-09-11T10:16:31.534Z</time>
      </trkpt>
      <trkpt lat="44.12491" lon="2.25453">
        <ele>348</ele>
        <time>2022-09-11T10:16:32.534Z</time>
      </trkpt>
      <trkpt lat="44.12491" lon="2.25451">
        <ele>348</ele>
        <time>2022-09-11T10:16:33.534Z</time>
      </trkpt>
      <trkpt lat="44.12491" lon="2.2545">
        <ele>348</ele>
        <time>2022-09-11T10:16:34.534Z</time>
      </trkpt>
      <trkpt lat="44.1249" lon="2.25449">
        <ele>347</ele>
        <time>2022-09-11T10:16:35.534Z</time>
      </trkpt>
      <trkpt lat="44.1249" lon="2.25448">
        <ele>347</ele>
        <time>2022-09-11T10:16:36.534Z</time>
      </trkpt>
      <trkpt lat="44.1249" lon="2.25447">
        <ele>347</ele>
        <time>2022-09-11T10:16:37.534Z</time>
      </trkpt>
      <trkpt lat="44.12489" lon="2.25445">
        <ele>347</ele>
        <time>2022-09-11T10:16:38.534Z</time>
      </trkpt>
      <trkpt lat="44.12489" lon="2.25445">
        <ele>347</ele>
        <time>2022-09-11T10:16:39.534Z</time>
      </trkpt>
      <trkpt lat="44.12489" lon="2.25445">
        <ele>347</ele>
        <time>2022-09-11T10:16:40.534Z</time>
      </trkpt>
      <trkpt lat="44.12489" lon="2.25444">
        <ele>347</ele>
        <time>2022-09-11T10:16:41.534Z</time>
      </trkpt>
      <trkpt lat="44.12489" lon="2.25443">
        <ele>347</ele>
        <time>2022-09-11T10:16:42.534Z</time>
      </trkpt>
      <trkpt lat="44.12489" lon="2.25442">
        <ele>347</ele>
        <time>2022-09-11T10:16:43.534Z</time>
      </trkpt>
      <trkpt lat="44.12489" lon="2.25441">
        <ele>347</ele>
        <time>2022-09-11T10:16:44.534Z</time>
      </trkpt>
      <trkpt lat="44.12488" lon="2.2544">
        <ele>347</ele>
        <time>2022-09-11T10:16:45.534Z</time>
      </trkpt>
      <trkpt lat="44.12488" lon="2.25439">
        <ele>348</ele>
        <time>2022-09-11T10:16:46.534Z</time>
      </trkpt>
      <trkpt lat="44.12487" lon="2.25438">
        <ele>348</ele>
        <time>2022-09-11T10:16:47.534Z</time>
      </trkpt>
      <trkpt lat="44.12487" lon="2.25437">
        <ele>348</ele>
        <time>2022-09-11T10:16:48.534Z</time>
      </trkpt>
      <trkpt lat="44.12487" lon="2.25436">
        <ele>348</ele>
        <time>2022-09-11T10:16:49.534Z</time>
      </trkpt>
      <trkpt lat="44.12487" lon="2.25434">
        <ele>348</ele>
        <time>2022-09-11T10:16:50.534Z</time>
      </trkpt>
      <trkpt lat="44.12487" lon="2.25433">
        <ele>348</ele>
        <time>2022-09-11T10:16:51.534Z</time>
      </trkpt>
      <trkpt lat="44.12487" lon="2.25431">
        <ele>348</ele>
        <time>2022-09-11T10:16:52.534Z</time>
      </trkpt>
      <trkpt lat="44.12487" lon="2.2543">
        <ele>348</ele>
        <time>2022-09-11T10:16:53.534Z</time>
      </trkpt>
      <trkpt lat="44.12486" lon="2.25429">
        <ele>348</ele>
        <time>2022-09-11T10:16:54.534Z</time>
      </trkpt>
      <trkpt lat="44.12486" lon="2.25427">
        <ele>348</ele>
        <time>2022-09-11T10:16:55.534Z</time>
      </trkpt>
      <trkpt lat="44.12486" lon="2.25426">
        <ele>348</ele>
        <time>2022-09-11T10:16:56.534Z</time>
      </trkpt>
      <trkpt lat="44.12486" lon="2.25425">
        <ele>348</ele>
        <time>2022-09-11T10:16:57.534Z</time>
      </trkpt>
      <trkpt lat="44.12486" lon="2.25424">
        <ele>348</ele>
        <time>2022-09-11T10:16:58.534Z</time>
      </trkpt>
      <trkpt lat="44.12486" lon="2.25422">
        <ele>348</ele>
        <time>2022-09-11T10:16:59.534Z</time>
      </trkpt>
      <trkpt lat="44.12486" lon="2.25421">
        <ele>348</ele>
        <time>2022-09-11T10:17:00.534Z</time>
      </trkpt>
      <trkpt lat="44.12485" lon="2.2542">
        <ele>348</ele>
        <time>2022-09-11T10:17:01.534Z</time>
      </trkpt>
      <trkpt lat="44.12485" lon="2.25418">
        <ele>348</ele>
        <time>2022-09-11T10:17:02.534Z</time>
      </trkpt>
      <trkpt lat="44.12485" lon="2.25417">
        <ele>348</ele>
        <time>2022-09-11T10:17:03.534Z</time>
      </trkpt>
      <trkpt lat="44.12484" lon="2.25416">
        <ele>348</ele>
        <time>2022-09-11T10:17:04.534Z</time>
      </trkpt>
      <trkpt lat="44.12484" lon="2.25415">
        <ele>348</ele>
        <time>2022-09-11T10:17:05.534Z</time>
      </trkpt>
      <trkpt lat="44.12484" lon="2.25413">
        <ele>348</ele>
        <time>2022-09-11T10:17:06.534Z</time>
      </trkpt>
      <trkpt lat="44.12484" lon="2.25412">
        <ele>348</ele>
        <time>2022-09-11T10:17:07.534Z</time>
      </trkpt>
      <trkpt lat="44.12484" lon="2.25411">
        <ele>348</ele>
        <time>2022-09-11T10:17:08.534Z</time>
      </trkpt>
      <trkpt lat="44.12484" lon="2.2541">
        <ele>348</ele>
        <time>2022-09-11T10:17:09.534Z</time>
      </trkpt>
      <trkpt lat="44.12484" lon="2.25409">
        <ele>349</ele>
        <time>2022-09-11T10:17:10.534Z</time>
      </trkpt>
      <trkpt lat="44.12484" lon="2.25407">
        <ele>349</ele>
        <time>2022-09-11T10:17:11.534Z</time>
      </trkpt>
      <trkpt lat="44.12484" lon="2.25406">
        <ele>349</ele>
        <time>2022-09-11T10:17:12.534Z</time>
      </trkpt>
      <trkpt lat="44.12484" lon="2.25405">
        <ele>349</ele>
        <time>2022-09-11T10:17:13.534Z</time>
      </trkpt>
      <trkpt lat="44.12484" lon="2.25404">
        <ele>349</ele>
        <time>2022-09-11T10:17:14.534Z</time>
      </trkpt>
      <trkpt lat="44.12484" lon="2.25403">
        <ele>349</ele>
        <time>2022-09-11T10:17:15.534Z</time>
      </trkpt>
      <trkpt lat="44.12484" lon="2.25402">
        <ele>349</ele>
        <time>2022-09-11T10:17:16.534Z</time>
      </trkpt>
      <trkpt lat="44.12484" lon="2.25401">
        <ele>349</ele>
        <time>2022-09-11T10:17:17.534Z</time>
      </trkpt>
      <trkpt lat="44.12485" lon="2.254">
        <ele>349</ele>
        <time>2022-09-11T10:17:18.534Z</time>
      </trkpt>
      <trkpt lat="44.12485" lon="2.25399">
        <ele>349</ele>
        <time>2022-09-11T10:17:19.534Z</time>
      </trkpt>
      <trkpt lat="44.12485" lon="2.25398">
        <ele>349</ele>
        <time>2022-09-11T10:17:20.534Z</time>
      </trkpt>
      <trkpt lat="44.12485" lon="2.25396">
        <ele>349</ele>
        <time>2022-09-11T10:17:21.534Z</time>
      </trkpt>
      <trkpt lat="44.12485" lon="2.25395">
        <ele>349</ele>
        <time>2022-09-11T10:17:22.534Z</time>
      </trkpt>
      <trkpt lat="44.12485" lon="2.25394">
        <ele>349</ele>
        <time>2022-09-11T10:17:23.534Z</time>
      </trkpt>
      <trkpt lat="44.12485" lon="2.25393">
        <ele>349</ele>
        <time>2022-09-11T10:17:24.534Z</time>
      </trkpt>
      <trkpt lat="44.12485" lon="2.25392">
        <ele>349</ele>
        <time>2022-09-11T10:17:25.534Z</time>
      </trkpt>
      <trkpt lat="44.12485" lon="2.25391">
        <ele>349</ele>
        <time>2022-09-11T10:17:26.534Z</time>
      </trkpt>
      <trkpt lat="44.12485" lon="2.2539">
        <ele>350</ele>
        <time>2022-09-11T10:17:27.534Z</time>
      </trkpt>
      <trkpt lat="44.12485" lon="2.25389">
        <ele>350</ele>
        <time>2022-09-11T10:17:28.534Z</time>
      </trkpt>
      <trkpt lat="44.12485" lon="2.25388">
        <ele>350</ele>
        <time>2022-09-11T10:17:29.534Z</time>
      </trkpt>
      <trkpt lat="44.12485" lon="2.25387">
        <ele>350</ele>
        <time>2022-09-11T10:17:30.534Z</time>
      </trkpt>
      <trkpt lat="44.12485" lon="2.25387">
        <ele>350</ele>
        <time>2022-09-11T10:17:31.534Z</time>
      </trkpt>
      <trkpt lat="44.12485" lon="2.25386">
        <ele>350</ele>
        <time>2022-09-11T10:17:32.534Z</time>
      </trkpt>
      <trkpt lat="44.12485" lon="2.25385">
        <ele>350</ele>
        <time>2022-09-11T10:17:33.534Z</time>
      </trkpt>
      <trkpt lat="44.12485" lon="2.25384">
        <ele>351</ele>
        <time>2022-09-11T10:17:34.534Z</time>
      </trkpt>
      <trkpt lat="44.12485" lon="2.25382">
        <ele>351</ele>
        <time>2022-09-11T10:17:35.534Z</time>
      </trkpt>
      <trkpt lat="44.12484" lon="2.25381">
        <ele>351</ele>
        <time>2022-09-11T10:17:36.534Z</time>
      </trkpt>
      <trkpt lat="44.12484" lon="2.2538">
        <ele>351</ele>
        <time>2022-09-11T10:17:37.534Z</time>
      </trkpt>
      <trkpt lat="44.12484" lon="2.25379">
        <ele>351</ele>
        <time>2022-09-11T10:17:38.534Z</time>
      </trkpt>
      <trkpt lat="44.12484" lon="2.25378">
        <ele>351</ele>
        <time>2022-09-11T10:17:39.534Z</time>
      </trkpt>
      <trkpt lat="44.12484" lon="2.25377">
        <ele>352</ele>
        <time>2022-09-11T10:17:40.534Z</time>
      </trkpt>
      <trkpt lat="44.12484" lon="2.25376">
        <ele>352</ele>
        <time>2022-09-11T10:17:41.534Z</time>
      </trkpt>
      <trkpt lat="44.12483" lon="2.25375">
        <ele>352</ele>
        <time>2022-09-11T10:17:42.534Z</time>
      </trkpt>
      <trkpt lat="44.12483" lon="2.25374">
        <ele>352</ele>
        <time>2022-09-11T10:17:43.534Z</time>
      </trkpt>
      <trkpt lat="44.12483" lon="2.25373">
        <ele>352</ele>
        <time>2022-09-11T10:17:44.534Z</time>
      </trkpt>
      <trkpt lat="44.12483" lon="2.25372">
        <ele>352</ele>
        <time>2022-09-11T10:17:45.534Z</time>
      </trkpt>
      <trkpt lat="44.12482" lon="2.2537">
        <ele>353</ele>
        <time>2022-09-11T10:17:46.534Z</time>
      </trkpt>
      <trkpt lat="44.12482" lon="2.25369">
        <ele>353</ele>
        <time>2022-09-11T10:17:47.534Z</time>
      </trkpt>
      <trkpt lat="44.12482" lon="2.25368">
        <ele>353</ele>
        <time>2022-09-11T10:17:48.534Z</time>
      </trkpt>
      <trkpt lat="44.12481" lon="2.25367">
        <ele>353</ele>
        <time>2022-09-11T10:17:49.534Z</time>
      </trkpt>
      <trkpt lat="44.12481" lon="2.25366">
        <ele>353</ele>
        <time>2022-09-11T10:17:50.534Z</time>
      </trkpt>
      <trkpt lat="44.12481" lon="2.25365">
        <ele>353</ele>
        <time>2022-09-11T10:17:51.534Z</time>
      </trkpt>
      <trkpt lat="44.12481" lon="2.25364">
        <ele>354</ele>
        <time>2022-09-11T10:17:52.534Z</time>
      </trkpt>
      <trkpt lat="44.12481" lon="2.25362">
        <ele>354</ele>
        <time>2022-09-11T10:17:53.534Z</time>
      </trkpt>
      <trkpt lat="44.1248" lon="2.25361">
        <ele>354</ele>
        <time>2022-09-11T10:17:54.534Z</time>
      </trkpt>
      <trkpt lat="44.1248" lon="2.2536">
        <ele>354</ele>
        <time>2022-09-11T10:17:55.534Z</time>
      </trkpt>
      <trkpt lat="44.1248" lon="2.25358">
        <ele>354</ele>
        <time>2022-09-11T10:17:56.534Z</time>
      </trkpt>
      <trkpt lat="44.12479" lon="2.25357">
        <ele>354</ele>
        <time>2022-09-11T10:17:57.534Z</time>
      </trkpt>
      <trkpt lat="44.12479" lon="2.25355">
        <ele>354</ele>
        <time>2022-09-11T10:17:58.534Z</time>
      </trkpt>
      <trkpt lat="44.12479" lon="2.25354">
        <ele>354</ele>
        <time>2022-09-11T10:17:59.534Z</time>
      </trkpt>
      <trkpt lat="44.12478" lon="2.25353">
        <ele>354</ele>
        <time>2022-09-11T10:18:00.534Z</time>
      </trkpt>
      <trkpt lat="44.12478" lon="2.25351">
        <ele>354</ele>
        <time>2022-09-11T10:18:01.534Z</time>
      </trkpt>
      <trkpt lat="44.12478" lon="2.2535">
        <ele>355</ele>
        <time>2022-09-11T10:18:02.534Z</time>
      </trkpt>
      <trkpt lat="44.12477" lon="2.25349">
        <ele>355</ele>
        <time>2022-09-11T10:18:03.534Z</time>
      </trkpt>
      <trkpt lat="44.12477" lon="2.25347">
        <ele>355</ele>
        <time>2022-09-11T10:18:04.534Z</time>
      </trkpt>
      <trkpt lat="44.12477" lon="2.25346">
        <ele>355</ele>
        <time>2022-09-11T10:18:05.534Z</time>
      </trkpt>
      <trkpt lat="44.12477" lon="2.25345">
        <ele>355</ele>
        <time>2022-09-11T10:18:06.534Z</time>
      </trkpt>
      <trkpt lat="44.12477" lon="2.25343">
        <ele>355</ele>
        <time>2022-09-11T10:18:07.534Z</time>
      </trkpt>
      <trkpt lat="44.12477" lon="2.25342">
        <ele>355</ele>
        <time>2022-09-11T10:18:08.534Z</time>
      </trkpt>
      <trkpt lat="44.12476" lon="2.25341">
        <ele>356</ele>
        <time>2022-09-11T10:18:09.534Z</time>
      </trkpt>
      <trkpt lat="44.12476" lon="2.2534">
        <ele>356</ele>
        <time>2022-09-11T10:18:10.534Z</time>
      </trkpt>
      <trkpt lat="44.12476" lon="2.25338">
        <ele>356</ele>
        <time>2022-09-11T10:18:11.534Z</time>
      </trkpt>
      <trkpt lat="44.12476" lon="2.25337">
        <ele>356</ele>
        <time>2022-09-11T10:18:12.534Z</time>
      </trkpt>
      <trkpt lat="44.12475" lon="2.25335">
        <ele>356</ele>
        <time>2022-09-11T10:18:13.534Z</time>
      </trkpt>
      <trkpt lat="44.12475" lon="2.25334">
        <ele>357</ele>
        <time>2022-09-11T10:18:14.534Z</time>
      </trkpt>
      <trkpt lat="44.12475" lon="2.25333">
        <ele>357</ele>
        <time>2022-09-11T10:18:15.534Z</time>
      </trkpt>
      <trkpt lat="44.12474" lon="2.25332">
        <ele>357</ele>
        <time>2022-09-11T10:18:16.534Z</time>
      </trkpt>
      <trkpt lat="44.12474" lon="2.2533">
        <ele>357</ele>
        <time>2022-09-11T10:18:17.534Z</time>
      </trkpt>
      <trkpt lat="44.12473" lon="2.25328">
        <ele>357</ele>
        <time>2022-09-11T10:18:18.534Z</time>
      </trkpt>
      <trkpt lat="44.12473" lon="2.25327">
        <ele>357</ele>
        <time>2022-09-11T10:18:19.534Z</time>
      </trkpt>
      <trkpt lat="44.12473" lon="2.25326">
        <ele>357</ele>
        <time>2022-09-11T10:18:20.534Z</time>
      </trkpt>
      <trkpt lat="44.12473" lon="2.25326">
        <ele>357</ele>
        <time>2022-09-11T10:18:21.534Z</time>
      </trkpt>
      <trkpt lat="44.12472" lon="2.25324">
        <ele>358</ele>
        <time>2022-09-11T10:18:22.534Z</time>
      </trkpt>
      <trkpt lat="44.12472" lon="2.25323">
        <ele>358</ele>
        <time>2022-09-11T10:18:23.534Z</time>
      </trkpt>
      <trkpt lat="44.12472" lon="2.25322">
        <ele>358</ele>
        <time>2022-09-11T10:18:24.534Z</time>
      </trkpt>
      <trkpt lat="44.12472" lon="2.25322">
        <ele>358</ele>
        <time>2022-09-11T10:18:25.534Z</time>
      </trkpt>
      <trkpt lat="44.12472" lon="2.25322">
        <ele>358</ele>
        <time>2022-09-11T10:18:26.534Z</time>
      </trkpt>
      <trkpt lat="44.12472" lon="2.25321">
        <ele>358</ele>
        <time>2022-09-11T10:18:27.534Z</time>
      </trkpt>
      <trkpt lat="44.12471" lon="2.2532">
        <ele>358</ele>
        <time>2022-09-11T10:18:28.534Z</time>
      </trkpt>
      <trkpt lat="44.12471" lon="2.2532">
        <ele>358</ele>
        <time>2022-09-11T10:18:29.534Z</time>
      </trkpt>
      <trkpt lat="44.1247" lon="2.25319">
        <ele>358</ele>
        <time>2022-09-11T10:18:30.534Z</time>
      </trkpt>
      <trkpt lat="44.12468" lon="2.25317">
        <ele>358</ele>
        <time>2022-09-11T10:18:31.534Z</time>
      </trkpt>
      <trkpt lat="44.12468" lon="2.25315">
        <ele>358</ele>
        <time>2022-09-11T10:18:32.534Z</time>
      </trkpt>
      <trkpt lat="44.12468" lon="2.25315">
        <ele>358</ele>
        <time>2022-09-11T10:18:33.534Z</time>
      </trkpt>
      <trkpt lat="44.12468" lon="2.25315">
        <ele>358</ele>
        <time>2022-09-11T10:18:34.534Z</time>
      </trkpt>
      <trkpt lat="44.12468" lon="2.25314">
        <ele>359</ele>
        <time>2022-09-11T10:18:35.534Z</time>
      </trkpt>
      <trkpt lat="44.12468" lon="2.25313">
        <ele>359</ele>
        <time>2022-09-11T10:18:36.534Z</time>
      </trkpt>
      <trkpt lat="44.12466" lon="2.25311">
        <ele>359</ele>
        <time>2022-09-11T10:18:37.534Z</time>
      </trkpt>
      <trkpt lat="44.12465" lon="2.2531">
        <ele>359</ele>
        <time>2022-09-11T10:18:38.534Z</time>
      </trkpt>
      <trkpt lat="44.12465" lon="2.25308">
        <ele>359</ele>
        <time>2022-09-11T10:18:39.534Z</time>
      </trkpt>
      <trkpt lat="44.12465" lon="2.25308">
        <ele>359</ele>
        <time>2022-09-11T10:18:40.534Z</time>
      </trkpt>
      <trkpt lat="44.12464" lon="2.25306">
        <ele>359</ele>
        <time>2022-09-11T10:18:41.534Z</time>
      </trkpt>
      <trkpt lat="44.12464" lon="2.25305">
        <ele>359</ele>
        <time>2022-09-11T10:18:42.534Z</time>
      </trkpt>
      <trkpt lat="44.12463" lon="2.25303">
        <ele>359</ele>
        <time>2022-09-11T10:18:43.534Z</time>
      </trkpt>
      <trkpt lat="44.12462" lon="2.25301">
        <ele>359</ele>
        <time>2022-09-11T10:18:44.534Z</time>
      </trkpt>
      <trkpt lat="44.12462" lon="2.253">
        <ele>359</ele>
        <time>2022-09-11T10:18:45.534Z</time>
      </trkpt>
      <trkpt lat="44.12462" lon="2.25298">
        <ele>359</ele>
        <time>2022-09-11T10:18:46.534Z</time>
      </trkpt>
      <trkpt lat="44.12462" lon="2.25297">
        <ele>359</ele>
        <time>2022-09-11T10:18:47.534Z</time>
      </trkpt>
      <trkpt lat="44.12462" lon="2.25295">
        <ele>359</ele>
        <time>2022-09-11T10:18:48.534Z</time>
      </trkpt>
      <trkpt lat="44.12463" lon="2.25294">
        <ele>359</ele>
        <time>2022-09-11T10:18:49.534Z</time>
      </trkpt>
      <trkpt lat="44.12463" lon="2.25293">
        <ele>359</ele>
        <time>2022-09-11T10:18:50.534Z</time>
      </trkpt>
      <trkpt lat="44.12464" lon="2.25292">
        <ele>359</ele>
        <time>2022-09-11T10:18:51.534Z</time>
      </trkpt>
      <trkpt lat="44.12464" lon="2.25291">
        <ele>359</ele>
        <time>2022-09-11T10:18:52.534Z</time>
      </trkpt>
      <trkpt lat="44.12465" lon="2.2529">
        <ele>359</ele>
        <time>2022-09-11T10:18:53.534Z</time>
      </trkpt>
      <trkpt lat="44.12465" lon="2.25289">
        <ele>359</ele>
        <time>2022-09-11T10:18:54.534Z</time>
      </trkpt>
      <trkpt lat="44.12465" lon="2.25287">
        <ele>359</ele>
        <time>2022-09-11T10:18:55.534Z</time>
      </trkpt>
      <trkpt lat="44.12466" lon="2.25286">
        <ele>359</ele>
        <time>2022-09-11T10:18:56.534Z</time>
      </trkpt>
      <trkpt lat="44.12466" lon="2.25285">
        <ele>359</ele>
        <time>2022-09-11T10:18:57.534Z</time>
      </trkpt>
      <trkpt lat="44.12466" lon="2.25284">
        <ele>359</ele>
        <time>2022-09-11T10:18:58.534Z</time>
      </trkpt>
      <trkpt lat="44.12467" lon="2.25282">
        <ele>359</ele>
        <time>2022-09-11T10:18:59.534Z</time>
      </trkpt>
      <trkpt lat="44.12467" lon="2.25281">
        <ele>359</ele>
        <time>2022-09-11T10:19:00.534Z</time>
      </trkpt>
      <trkpt lat="44.12467" lon="2.2528">
        <ele>359</ele>
        <time>2022-09-11T10:19:01.534Z</time>
      </trkpt>
      <trkpt lat="44.12467" lon="2.25278">
        <ele>359</ele>
        <time>2022-09-11T10:19:02.534Z</time>
      </trkpt>
      <trkpt lat="44.12467" lon="2.25277">
        <ele>359</ele>
        <time>2022-09-11T10:19:03.534Z</time>
      </trkpt>
      <trkpt lat="44.12468" lon="2.25276">
        <ele>359</ele>
        <time>2022-09-11T10:19:04.534Z</time>
      </trkpt>
      <trkpt lat="44.12468" lon="2.25274">
        <ele>359</ele>
        <time>2022-09-11T10:19:05.534Z</time>
      </trkpt>
      <trkpt lat="44.12468" lon="2.25273">
        <ele>359</ele>
        <time>2022-09-11T10:19:06.534Z</time>
      </trkpt>
      <trkpt lat="44.12468" lon="2.25272">
        <ele>360</ele>
        <time>2022-09-11T10:19:07.534Z</time>
      </trkpt>
      <trkpt lat="44.12469" lon="2.2527">
        <ele>360</ele>
        <time>2022-09-11T10:19:08.534Z</time>
      </trkpt>
      <trkpt lat="44.12469" lon="2.25269">
        <ele>360</ele>
        <time>2022-09-11T10:19:09.534Z</time>
      </trkpt>
      <trkpt lat="44.1247" lon="2.25268">
        <ele>360</ele>
        <time>2022-09-11T10:19:10.534Z</time>
      </trkpt>
      <trkpt lat="44.1247" lon="2.25267">
        <ele>360</ele>
        <time>2022-09-11T10:19:11.534Z</time>
      </trkpt>
      <trkpt lat="44.12471" lon="2.25266">
        <ele>360</ele>
        <time>2022-09-11T10:19:12.534Z</time>
      </trkpt>
      <trkpt lat="44.12472" lon="2.25264">
        <ele>360</ele>
        <time>2022-09-11T10:19:13.534Z</time>
      </trkpt>
      <trkpt lat="44.12472" lon="2.25263">
        <ele>360</ele>
        <time>2022-09-11T10:19:14.534Z</time>
      </trkpt>
      <trkpt lat="44.12473" lon="2.25262">
        <ele>360</ele>
        <time>2022-09-11T10:19:15.534Z</time>
      </trkpt>
      <trkpt lat="44.12474" lon="2.25261">
        <ele>361</ele>
        <time>2022-09-11T10:19:16.534Z</time>
      </trkpt>
      <trkpt lat="44.12474" lon="2.2526">
        <ele>361</ele>
        <time>2022-09-11T10:19:17.534Z</time>
      </trkpt>
      <trkpt lat="44.12475" lon="2.25259">
        <ele>361</ele>
        <time>2022-09-11T10:19:18.534Z</time>
      </trkpt>
      <trkpt lat="44.12476" lon="2.25258">
        <ele>361</ele>
        <time>2022-09-11T10:19:19.534Z</time>
      </trkpt>
      <trkpt lat="44.12476" lon="2.25257">
        <ele>361</ele>
        <time>2022-09-11T10:19:20.534Z</time>
      </trkpt>
      <trkpt lat="44.12477" lon="2.25257">
        <ele>361</ele>
        <time>2022-09-11T10:19:21.534Z</time>
      </trkpt>
      <trkpt lat="44.12477" lon="2.25256">
        <ele>361</ele>
        <time>2022-09-11T10:19:22.534Z</time>
      </trkpt>
      <trkpt lat="44.12478" lon="2.25255">
        <ele>361</ele>
        <time>2022-09-11T10:19:23.534Z</time>
      </trkpt>
      <trkpt lat="44.12478" lon="2.25253">
        <ele>361</ele>
        <time>2022-09-11T10:19:24.534Z</time>
      </trkpt>
      <trkpt lat="44.12478" lon="2.25252">
        <ele>362</ele>
        <time>2022-09-11T10:19:25.534Z</time>
      </trkpt>
      <trkpt lat="44.12478" lon="2.25251">
        <ele>362</ele>
        <time>2022-09-11T10:19:26.534Z</time>
      </trkpt>
      <trkpt lat="44.12478" lon="2.2525">
        <ele>362</ele>
        <time>2022-09-11T10:19:27.534Z</time>
      </trkpt>
      <trkpt lat="44.12479" lon="2.25249">
        <ele>362</ele>
        <time>2022-09-11T10:19:28.534Z</time>
      </trkpt>
      <trkpt lat="44.12479" lon="2.25248">
        <ele>362</ele>
        <time>2022-09-11T10:19:29.534Z</time>
      </trkpt>
      <trkpt lat="44.1248" lon="2.25247">
        <ele>362</ele>
        <time>2022-09-11T10:19:30.534Z</time>
      </trkpt>
      <trkpt lat="44.1248" lon="2.25246">
        <ele>362</ele>
        <time>2022-09-11T10:19:31.534Z</time>
      </trkpt>
      <trkpt lat="44.12481" lon="2.25245">
        <ele>363</ele>
        <time>2022-09-11T10:19:32.534Z</time>
      </trkpt>
      <trkpt lat="44.12481" lon="2.25244">
        <ele>363</ele>
        <time>2022-09-11T10:19:33.534Z</time>
      </trkpt>
      <trkpt lat="44.12482" lon="2.25244">
        <ele>363</ele>
        <time>2022-09-11T10:19:34.534Z</time>
      </trkpt>
      <trkpt lat="44.12482" lon="2.25242">
        <ele>363</ele>
        <time>2022-09-11T10:19:35.534Z</time>
      </trkpt>
      <trkpt lat="44.12482" lon="2.25241">
        <ele>363</ele>
        <time>2022-09-11T10:19:36.534Z</time>
      </trkpt>
      <trkpt lat="44.12482" lon="2.2524">
        <ele>363</ele>
        <time>2022-09-11T10:19:37.534Z</time>
      </trkpt>
      <trkpt lat="44.12483" lon="2.25239">
        <ele>364</ele>
        <time>2022-09-11T10:19:38.534Z</time>
      </trkpt>
      <trkpt lat="44.12483" lon="2.25238">
        <ele>364</ele>
        <time>2022-09-11T10:19:39.534Z</time>
      </trkpt>
      <trkpt lat="44.12483" lon="2.25237">
        <ele>364</ele>
        <time>2022-09-11T10:19:40.534Z</time>
      </trkpt>
      <trkpt lat="44.12483" lon="2.25236">
        <ele>365</ele>
        <time>2022-09-11T10:19:41.534Z</time>
      </trkpt>
      <trkpt lat="44.12484" lon="2.25235">
        <ele>365</ele>
        <time>2022-09-11T10:19:42.534Z</time>
      </trkpt>
      <trkpt lat="44.12484" lon="2.25234">
        <ele>365</ele>
        <time>2022-09-11T10:19:43.534Z</time>
      </trkpt>
      <trkpt lat="44.12484" lon="2.25233">
        <ele>365</ele>
        <time>2022-09-11T10:19:44.534Z</time>
      </trkpt>
      <trkpt lat="44.12484" lon="2.25232">
        <ele>365</ele>
        <time>2022-09-11T10:19:45.534Z</time>
      </trkpt>
      <trkpt lat="44.12485" lon="2.25231">
        <ele>365</ele>
        <time>2022-09-11T10:19:46.534Z</time>
      </trkpt>
      <trkpt lat="44.12485" lon="2.2523">
        <ele>366</ele>
        <time>2022-09-11T10:19:47.534Z</time>
      </trkpt>
      <trkpt lat="44.12485" lon="2.25229">
        <ele>366</ele>
        <time>2022-09-11T10:19:48.534Z</time>
      </trkpt>
      <trkpt lat="44.12485" lon="2.25228">
        <ele>366</ele>
        <time>2022-09-11T10:19:49.534Z</time>
      </trkpt>
      <trkpt lat="44.12486" lon="2.25227">
        <ele>366</ele>
        <time>2022-09-11T10:19:50.534Z</time>
      </trkpt>
      <trkpt lat="44.12486" lon="2.25227">
        <ele>366</ele>
        <time>2022-09-11T10:19:51.534Z</time>
      </trkpt>
      <trkpt lat="44.12486" lon="2.25226">
        <ele>366</ele>
        <time>2022-09-11T10:19:52.534Z</time>
      </trkpt>
      <trkpt lat="44.12487" lon="2.25225">
        <ele>366</ele>
        <time>2022-09-11T10:19:53.534Z</time>
      </trkpt>
      <trkpt lat="44.12487" lon="2.25224">
        <ele>367</ele>
        <time>2022-09-11T10:19:54.534Z</time>
      </trkpt>
      <trkpt lat="44.12487" lon="2.25223">
        <ele>367</ele>
        <time>2022-09-11T10:19:55.534Z</time>
      </trkpt>
      <trkpt lat="44.12487" lon="2.25222">
        <ele>367</ele>
        <time>2022-09-11T10:19:56.534Z</time>
      </trkpt>
      <trkpt lat="44.12487" lon="2.25221">
        <ele>367</ele>
        <time>2022-09-11T10:19:57.534Z</time>
      </trkpt>
      <trkpt lat="44.12487" lon="2.2522">
        <ele>367</ele>
        <time>2022-09-11T10:19:58.534Z</time>
      </trkpt>
      <trkpt lat="44.12487" lon="2.25219">
        <ele>367</ele>
        <time>2022-09-11T10:19:59.534Z</time>
      </trkpt>
      <trkpt lat="44.12487" lon="2.25218">
        <ele>367</ele>
        <time>2022-09-11T10:20:00.534Z</time>
      </trkpt>
      <trkpt lat="44.12487" lon="2.25217">
        <ele>367</ele>
        <time>2022-09-11T10:20:01.534Z</time>
      </trkpt>
      <trkpt lat="44.12487" lon="2.25216">
        <ele>368</ele>
        <time>2022-09-11T10:20:02.534Z</time>
      </trkpt>
      <trkpt lat="44.12487" lon="2.25215">
        <ele>368</ele>
        <time>2022-09-11T10:20:03.534Z</time>
      </trkpt>
      <trkpt lat="44.12487" lon="2.25214">
        <ele>368</ele>
        <time>2022-09-11T10:20:04.534Z</time>
      </trkpt>
      <trkpt lat="44.12487" lon="2.25213">
        <ele>368</ele>
        <time>2022-09-11T10:20:05.534Z</time>
      </trkpt>
      <trkpt lat="44.12487" lon="2.25212">
        <ele>368</ele>
        <time>2022-09-11T10:20:06.534Z</time>
      </trkpt>
      <trkpt lat="44.12487" lon="2.25211">
        <ele>369</ele>
        <time>2022-09-11T10:20:07.534Z</time>
      </trkpt>
      <trkpt lat="44.12486" lon="2.2521">
        <ele>369</ele>
        <time>2022-09-11T10:20:08.534Z</time>
      </trkpt>
      <trkpt lat="44.12487" lon="2.25209">
        <ele>369</ele>
        <time>2022-09-11T10:20:09.534Z</time>
      </trkpt>
      <trkpt lat="44.12486" lon="2.25208">
        <ele>369</ele>
        <time>2022-09-11T10:20:10.534Z</time>
      </trkpt>
      <trkpt lat="44.12486" lon="2.25207">
        <ele>369</ele>
        <time>2022-09-11T10:20:11.534Z</time>
      </trkpt>
      <trkpt lat="44.12486" lon="2.25207">
        <ele>370</ele>
        <time>2022-09-11T10:20:12.534Z</time>
      </trkpt>
      <trkpt lat="44.12486" lon="2.25206">
        <ele>370</ele>
        <time>2022-09-11T10:20:13.534Z</time>
      </trkpt>
      <trkpt lat="44.12486" lon="2.25205">
        <ele>370</ele>
        <time>2022-09-11T10:20:14.534Z</time>
      </trkpt>
      <trkpt lat="44.12486" lon="2.25204">
        <ele>370</ele>
        <time>2022-09-11T10:20:15.534Z</time>
      </trkpt>
      <trkpt lat="44.12486" lon="2.25204">
        <ele>370</ele>
        <time>2022-09-11T10:20:16.534Z</time>
      </trkpt>
      <trkpt lat="44.12486" lon="2.25203">
        <ele>371</ele>
        <time>2022-09-11T10:20:17.534Z</time>
      </trkpt>
      <trkpt lat="44.12485" lon="2.25201">
        <ele>371</ele>
        <time>2022-09-11T10:20:21.540Z</time>
      </trkpt>
      <trkpt lat="44.12485" lon="2.252">
        <ele>372</ele>
        <time>2022-09-11T10:20:22.540Z</time>
      </trkpt>
      <trkpt lat="44.12483" lon="2.25198">
        <ele>372</ele>
        <time>2022-09-11T10:20:26.531Z</time>
      </trkpt>
      <trkpt lat="44.12483" lon="2.25198">
        <ele>373</ele>
        <time>2022-09-11T10:20:27.531Z</time>
      </trkpt>
      <trkpt lat="44.12483" lon="2.25198">
        <ele>373</ele>
        <time>2022-09-11T10:20:28.531Z</time>
      </trkpt>
      <trkpt lat="44.12482" lon="2.25197">
        <ele>373</ele>
        <time>2022-09-11T10:20:29.531Z</time>
      </trkpt>
      <trkpt lat="44.12482" lon="2.25197">
        <ele>373</ele>
        <time>2022-09-11T10:20:30.531Z</time>
      </trkpt>
      <trkpt lat="44.12481" lon="2.25197">
        <ele>374</ele>
        <time>2022-09-11T10:20:31.531Z</time>
      </trkpt>
      <trkpt lat="44.1248" lon="2.25196">
        <ele>374</ele>
        <time>2022-09-11T10:20:32.531Z</time>
      </trkpt>
      <trkpt lat="44.1248" lon="2.25196">
        <ele>374</ele>
        <time>2022-09-11T10:20:33.531Z</time>
      </trkpt>
      <trkpt lat="44.12479" lon="2.25196">
        <ele>374</ele>
        <time>2022-09-11T10:20:34.531Z</time>
      </trkpt>
      <trkpt lat="44.12479" lon="2.25196">
        <ele>374</ele>
        <time>2022-09-11T10:20:35.531Z</time>
      </trkpt>
      <trkpt lat="44.12478" lon="2.25196">
        <ele>374</ele>
        <time>2022-09-11T10:20:36.531Z</time>
      </trkpt>
      <trkpt lat="44.12477" lon="2.25195">
        <ele>374</ele>
        <time>2022-09-11T10:20:37.531Z</time>
      </trkpt>
      <trkpt lat="44.12477" lon="2.25195">
        <ele>374</ele>
        <time>2022-09-11T10:20:38.531Z</time>
      </trkpt>
      <trkpt lat="44.12476" lon="2.25194">
        <ele>374</ele>
        <time>2022-09-11T10:20:39.531Z</time>
      </trkpt>
      <trkpt lat="44.12476" lon="2.25194">
        <ele>374</ele>
        <time>2022-09-11T10:20:40.531Z</time>
      </trkpt>
      <trkpt lat="44.12475" lon="2.25194">
        <ele>374</ele>
        <time>2022-09-11T10:20:41.531Z</time>
      </trkpt>
      <trkpt lat="44.12474" lon="2.25193">
        <ele>375</ele>
        <time>2022-09-11T10:20:42.531Z</time>
      </trkpt>
      <trkpt lat="44.12473" lon="2.25193">
        <ele>375</ele>
        <time>2022-09-11T10:20:43.531Z</time>
      </trkpt>
      <trkpt lat="44.12473" lon="2.25193">
        <ele>375</ele>
        <time>2022-09-11T10:20:44.531Z</time>
      </trkpt>
      <trkpt lat="44.12472" lon="2.25192">
        <ele>375</ele>
        <time>2022-09-11T10:20:45.531Z</time>
      </trkpt>
      <trkpt lat="44.12471" lon="2.25192">
        <ele>375</ele>
        <time>2022-09-11T10:20:46.531Z</time>
      </trkpt>
      <trkpt lat="44.1247" lon="2.25192">
        <ele>375</ele>
        <time>2022-09-11T10:20:47.531Z</time>
      </trkpt>
      <trkpt lat="44.12469" lon="2.25191">
        <ele>375</ele>
        <time>2022-09-11T10:20:48.531Z</time>
      </trkpt>
      <trkpt lat="44.12469" lon="2.25191">
        <ele>375</ele>
        <time>2022-09-11T10:20:49.531Z</time>
      </trkpt>
      <trkpt lat="44.12468" lon="2.2519">
        <ele>376</ele>
        <time>2022-09-11T10:20:50.531Z</time>
      </trkpt>
      <trkpt lat="44.12467" lon="2.2519">
        <ele>376</ele>
        <time>2022-09-11T10:20:51.531Z</time>
      </trkpt>
      <trkpt lat="44.12467" lon="2.25189">
        <ele>376</ele>
        <time>2022-09-11T10:20:52.531Z</time>
      </trkpt>
      <trkpt lat="44.12466" lon="2.25189">
        <ele>376</ele>
        <time>2022-09-11T10:20:53.531Z</time>
      </trkpt>
      <trkpt lat="44.12465" lon="2.25188">
        <ele>376</ele>
        <time>2022-09-11T10:20:54.531Z</time>
      </trkpt>
      <trkpt lat="44.12464" lon="2.25187">
        <ele>376</ele>
        <time>2022-09-11T10:20:55.531Z</time>
      </trkpt>
      <trkpt lat="44.12464" lon="2.25187">
        <ele>376</ele>
        <time>2022-09-11T10:20:56.531Z</time>
      </trkpt>
      <trkpt lat="44.12463" lon="2.25186">
        <ele>376</ele>
        <time>2022-09-11T10:20:57.531Z</time>
      </trkpt>
      <trkpt lat="44.12462" lon="2.25185">
        <ele>376</ele>
        <time>2022-09-11T10:20:58.531Z</time>
      </trkpt>
      <trkpt lat="44.12461" lon="2.25185">
        <ele>376</ele>
        <time>2022-09-11T10:20:59.531Z</time>
      </trkpt>
      <trkpt lat="44.1246" lon="2.25184">
        <ele>377</ele>
        <time>2022-09-11T10:21:00.531Z</time>
      </trkpt>
      <trkpt lat="44.1246" lon="2.25184">
        <ele>377</ele>
        <time>2022-09-11T10:21:01.531Z</time>
      </trkpt>
      <trkpt lat="44.12459" lon="2.25183">
        <ele>377</ele>
        <time>2022-09-11T10:21:02.531Z</time>
      </trkpt>
      <trkpt lat="44.12458" lon="2.25182">
        <ele>377</ele>
        <time>2022-09-11T10:21:03.531Z</time>
      </trkpt>
      <trkpt lat="44.12457" lon="2.25182">
        <ele>377</ele>
        <time>2022-09-11T10:21:04.531Z</time>
      </trkpt>
      <trkpt lat="44.12457" lon="2.25182">
        <ele>377</ele>
        <time>2022-09-11T10:21:05.531Z</time>
      </trkpt>
      <trkpt lat="44.12456" lon="2.25182">
        <ele>377</ele>
        <time>2022-09-11T10:21:06.531Z</time>
      </trkpt>
      <trkpt lat="44.12455" lon="2.25181">
        <ele>378</ele>
        <time>2022-09-11T10:21:07.531Z</time>
      </trkpt>
      <trkpt lat="44.12454" lon="2.25181">
        <ele>378</ele>
        <time>2022-09-11T10:21:08.531Z</time>
      </trkpt>
      <trkpt lat="44.12453" lon="2.2518">
        <ele>378</ele>
        <time>2022-09-11T10:21:09.531Z</time>
      </trkpt>
      <trkpt lat="44.12453" lon="2.2518">
        <ele>378</ele>
        <time>2022-09-11T10:21:10.531Z</time>
      </trkpt>
      <trkpt lat="44.12452" lon="2.25179">
        <ele>378</ele>
        <time>2022-09-11T10:21:11.531Z</time>
      </trkpt>
      <trkpt lat="44.12451" lon="2.25178">
        <ele>378</ele>
        <time>2022-09-11T10:21:12.531Z</time>
      </trkpt>
      <trkpt lat="44.1245" lon="2.25178">
        <ele>378</ele>
        <time>2022-09-11T10:21:13.531Z</time>
      </trkpt>
      <trkpt lat="44.1245" lon="2.25177">
        <ele>379</ele>
        <time>2022-09-11T10:21:14.531Z</time>
      </trkpt>
      <trkpt lat="44.12449" lon="2.25177">
        <ele>379</ele>
        <time>2022-09-11T10:21:15.531Z</time>
      </trkpt>
      <trkpt lat="44.12448" lon="2.25176">
        <ele>379</ele>
        <time>2022-09-11T10:21:16.531Z</time>
      </trkpt>
      <trkpt lat="44.12447" lon="2.25176">
        <ele>379</ele>
        <time>2022-09-11T10:21:17.531Z</time>
      </trkpt>
      <trkpt lat="44.12446" lon="2.25175">
        <ele>379</ele>
        <time>2022-09-11T10:21:18.531Z</time>
      </trkpt>
      <trkpt lat="44.12446" lon="2.25175">
        <ele>379</ele>
        <time>2022-09-11T10:21:19.531Z</time>
      </trkpt>
      <trkpt lat="44.12445" lon="2.25174">
        <ele>380</ele>
        <time>2022-09-11T10:21:20.531Z</time>
      </trkpt>
      <trkpt lat="44.12444" lon="2.25173">
        <ele>380</ele>
        <time>2022-09-11T10:21:21.531Z</time>
      </trkpt>
      <trkpt lat="44.12444" lon="2.25172">
        <ele>380</ele>
        <time>2022-09-11T10:21:22.531Z</time>
      </trkpt>
      <trkpt lat="44.12443" lon="2.25172">
        <ele>380</ele>
        <time>2022-09-11T10:21:23.531Z</time>
      </trkpt>
      <trkpt lat="44.12442" lon="2.25172">
        <ele>380</ele>
        <time>2022-09-11T10:21:24.531Z</time>
      </trkpt>
      <trkpt lat="44.12441" lon="2.25171">
        <ele>381</ele>
        <time>2022-09-11T10:21:25.531Z</time>
      </trkpt>
      <trkpt lat="44.12441" lon="2.25171">
        <ele>381</ele>
        <time>2022-09-11T10:21:26.531Z</time>
      </trkpt>
      <trkpt lat="44.1244" lon="2.2517">
        <ele>381</ele>
        <time>2022-09-11T10:21:27.531Z</time>
      </trkpt>
      <trkpt lat="44.12439" lon="2.2517">
        <ele>381</ele>
        <time>2022-09-11T10:21:28.531Z</time>
      </trkpt>
      <trkpt lat="44.12438" lon="2.25169">
        <ele>381</ele>
        <time>2022-09-11T10:21:29.531Z</time>
      </trkpt>
      <trkpt lat="44.12438" lon="2.25168">
        <ele>382</ele>
        <time>2022-09-11T10:21:30.531Z</time>
      </trkpt>
      <trkpt lat="44.12437" lon="2.25168">
        <ele>382</ele>
        <time>2022-09-11T10:21:31.531Z</time>
      </trkpt>
      <trkpt lat="44.12436" lon="2.25167">
        <ele>382</ele>
        <time>2022-09-11T10:21:32.531Z</time>
      </trkpt>
      <trkpt lat="44.12436" lon="2.25166">
        <ele>382</ele>
        <time>2022-09-11T10:21:33.531Z</time>
      </trkpt>
      <trkpt lat="44.12435" lon="2.25166">
        <ele>382</ele>
        <time>2022-09-11T10:21:34.531Z</time>
      </trkpt>
      <trkpt lat="44.12434" lon="2.25165">
        <ele>382</ele>
        <time>2022-09-11T10:21:35.531Z</time>
      </trkpt>
      <trkpt lat="44.12434" lon="2.25165">
        <ele>382</ele>
        <time>2022-09-11T10:21:36.531Z</time>
      </trkpt>
      <trkpt lat="44.12433" lon="2.25164">
        <ele>382</ele>
        <time>2022-09-11T10:21:37.531Z</time>
      </trkpt>
      <trkpt lat="44.12433" lon="2.25163">
        <ele>383</ele>
        <time>2022-09-11T10:21:38.531Z</time>
      </trkpt>
      <trkpt lat="44.12432" lon="2.25162">
        <ele>383</ele>
        <time>2022-09-11T10:21:39.531Z</time>
      </trkpt>
      <trkpt lat="44.12431" lon="2.25162">
        <ele>383</ele>
        <time>2022-09-11T10:21:40.531Z</time>
      </trkpt>
      <trkpt lat="44.12431" lon="2.25161">
        <ele>383</ele>
        <time>2022-09-11T10:21:41.531Z</time>
      </trkpt>
      <trkpt lat="44.1243" lon="2.2516">
        <ele>383</ele>
        <time>2022-09-11T10:21:42.531Z</time>
      </trkpt>
      <trkpt lat="44.1243" lon="2.25159">
        <ele>383</ele>
        <time>2022-09-11T10:21:43.531Z</time>
      </trkpt>
      <trkpt lat="44.12429" lon="2.25158">
        <ele>383</ele>
        <time>2022-09-11T10:21:44.531Z</time>
      </trkpt>
      <trkpt lat="44.12429" lon="2.25157">
        <ele>384</ele>
        <time>2022-09-11T10:21:45.531Z</time>
      </trkpt>
      <trkpt lat="44.12428" lon="2.25157">
        <ele>384</ele>
        <time>2022-09-11T10:21:46.531Z</time>
      </trkpt>
      <trkpt lat="44.12428" lon="2.25156">
        <ele>384</ele>
        <time>2022-09-11T10:21:47.531Z</time>
      </trkpt>
      <trkpt lat="44.12427" lon="2.25155">
        <ele>384</ele>
        <time>2022-09-11T10:21:48.531Z</time>
      </trkpt>
      <trkpt lat="44.12427" lon="2.25154">
        <ele>384</ele>
        <time>2022-09-11T10:21:49.531Z</time>
      </trkpt>
      <trkpt lat="44.12427" lon="2.25154">
        <ele>384</ele>
        <time>2022-09-11T10:21:50.531Z</time>
      </trkpt>
      <trkpt lat="44.12426" lon="2.25152">
        <ele>384</ele>
        <time>2022-09-11T10:21:51.531Z</time>
      </trkpt>
      <trkpt lat="44.12426" lon="2.25151">
        <ele>384</ele>
        <time>2022-09-11T10:21:52.531Z</time>
      </trkpt>
      <trkpt lat="44.12425" lon="2.25151">
        <ele>384</ele>
        <time>2022-09-11T10:21:53.531Z</time>
      </trkpt>
      <trkpt lat="44.12425" lon="2.2515">
        <ele>385</ele>
        <time>2022-09-11T10:21:54.531Z</time>
      </trkpt>
      <trkpt lat="44.12424" lon="2.25149">
        <ele>385</ele>
        <time>2022-09-11T10:21:55.531Z</time>
      </trkpt>
      <trkpt lat="44.12424" lon="2.25148">
        <ele>385</ele>
        <time>2022-09-11T10:21:56.531Z</time>
      </trkpt>
      <trkpt lat="44.12424" lon="2.25147">
        <ele>385</ele>
        <time>2022-09-11T10:21:57.531Z</time>
      </trkpt>
      <trkpt lat="44.12423" lon="2.25146">
        <ele>385</ele>
        <time>2022-09-11T10:21:58.531Z</time>
      </trkpt>
      <trkpt lat="44.12423" lon="2.25145">
        <ele>385</ele>
        <time>2022-09-11T10:21:59.531Z</time>
      </trkpt>
      <trkpt lat="44.12422" lon="2.25144">
        <ele>386</ele>
        <time>2022-09-11T10:22:00.531Z</time>
      </trkpt>
      <trkpt lat="44.12422" lon="2.25143">
        <ele>386</ele>
        <time>2022-09-11T10:22:01.531Z</time>
      </trkpt>
      <trkpt lat="44.12422" lon="2.25142">
        <ele>386</ele>
        <time>2022-09-11T10:22:02.531Z</time>
      </trkpt>
      <trkpt lat="44.12422" lon="2.25142">
        <ele>386</ele>
        <time>2022-09-11T10:22:03.531Z</time>
      </trkpt>
      <trkpt lat="44.12421" lon="2.25141">
        <ele>386</ele>
        <time>2022-09-11T10:22:04.531Z</time>
      </trkpt>
      <trkpt lat="44.12421" lon="2.2514">
        <ele>386</ele>
        <time>2022-09-11T10:22:05.531Z</time>
      </trkpt>
      <trkpt lat="44.12421" lon="2.25139">
        <ele>386</ele>
        <time>2022-09-11T10:22:06.531Z</time>
      </trkpt>
      <trkpt lat="44.1242" lon="2.25138">
        <ele>387</ele>
        <time>2022-09-11T10:22:07.531Z</time>
      </trkpt>
      <trkpt lat="44.1242" lon="2.25138">
        <ele>387</ele>
        <time>2022-09-11T10:22:08.531Z</time>
      </trkpt>
      <trkpt lat="44.12419" lon="2.25137">
        <ele>387</ele>
        <time>2022-09-11T10:22:09.531Z</time>
      </trkpt>
      <trkpt lat="44.12419" lon="2.25136">
        <ele>387</ele>
        <time>2022-09-11T10:22:10.531Z</time>
      </trkpt>
      <trkpt lat="44.12419" lon="2.25135">
        <ele>388</ele>
        <time>2022-09-11T10:22:11.531Z</time>
      </trkpt>
      <trkpt lat="44.12418" lon="2.25134">
        <ele>388</ele>
        <time>2022-09-11T10:22:12.531Z</time>
      </trkpt>
      <trkpt lat="44.12418" lon="2.25133">
        <ele>388</ele>
        <time>2022-09-11T10:22:13.531Z</time>
      </trkpt>
      <trkpt lat="44.12417" lon="2.25132">
        <ele>388</ele>
        <time>2022-09-11T10:22:14.531Z</time>
      </trkpt>
      <trkpt lat="44.12417" lon="2.25131">
        <ele>388</ele>
        <time>2022-09-11T10:22:15.531Z</time>
      </trkpt>
      <trkpt lat="44.12417" lon="2.25131">
        <ele>388</ele>
        <time>2022-09-11T10:22:16.531Z</time>
      </trkpt>
      <trkpt lat="44.12416" lon="2.2513">
        <ele>389</ele>
        <time>2022-09-11T10:22:17.531Z</time>
      </trkpt>
      <trkpt lat="44.12416" lon="2.25129">
        <ele>389</ele>
        <time>2022-09-11T10:22:18.531Z</time>
      </trkpt>
      <trkpt lat="44.12415" lon="2.25128">
        <ele>389</ele>
        <time>2022-09-11T10:22:19.531Z</time>
      </trkpt>
      <trkpt lat="44.12415" lon="2.25127">
        <ele>389</ele>
        <time>2022-09-11T10:22:20.531Z</time>
      </trkpt>
      <trkpt lat="44.12415" lon="2.25126">
        <ele>389</ele>
        <time>2022-09-11T10:22:21.531Z</time>
      </trkpt>
      <trkpt lat="44.12414" lon="2.25125">
        <ele>389</ele>
        <time>2022-09-11T10:22:22.531Z</time>
      </trkpt>
      <trkpt lat="44.12414" lon="2.25124">
        <ele>390</ele>
        <time>2022-09-11T10:22:23.531Z</time>
      </trkpt>
      <trkpt lat="44.12413" lon="2.25123">
        <ele>390</ele>
        <time>2022-09-11T10:22:24.531Z</time>
      </trkpt>
      <trkpt lat="44.12413" lon="2.25122">
        <ele>390</ele>
        <time>2022-09-11T10:22:25.531Z</time>
      </trkpt>
      <trkpt lat="44.12413" lon="2.2512">
        <ele>390</ele>
        <time>2022-09-11T10:22:26.531Z</time>
      </trkpt>
      <trkpt lat="44.12413" lon="2.25119">
        <ele>390</ele>
        <time>2022-09-11T10:22:27.531Z</time>
      </trkpt>
      <trkpt lat="44.12412" lon="2.25118">
        <ele>390</ele>
        <time>2022-09-11T10:22:28.531Z</time>
      </trkpt>
      <trkpt lat="44.12412" lon="2.25117">
        <ele>391</ele>
        <time>2022-09-11T10:22:29.531Z</time>
      </trkpt>
      <trkpt lat="44.12412" lon="2.25115">
        <ele>391</ele>
        <time>2022-09-11T10:22:30.531Z</time>
      </trkpt>
      <trkpt lat="44.12412" lon="2.25114">
        <ele>391</ele>
        <time>2022-09-11T10:22:31.531Z</time>
      </trkpt>
      <trkpt lat="44.12412" lon="2.25113">
        <ele>391</ele>
        <time>2022-09-11T10:22:32.531Z</time>
      </trkpt>
      <trkpt lat="44.12412" lon="2.25112">
        <ele>391</ele>
        <time>2022-09-11T10:22:33.531Z</time>
      </trkpt>
      <trkpt lat="44.12412" lon="2.25111">
        <ele>391</ele>
        <time>2022-09-11T10:22:34.531Z</time>
      </trkpt>
      <trkpt lat="44.12412" lon="2.25109">
        <ele>392</ele>
        <time>2022-09-11T10:22:35.531Z</time>
      </trkpt>
      <trkpt lat="44.12412" lon="2.25108">
        <ele>392</ele>
        <time>2022-09-11T10:22:36.531Z</time>
      </trkpt>
      <trkpt lat="44.12412" lon="2.25107">
        <ele>392</ele>
        <time>2022-09-11T10:22:37.531Z</time>
      </trkpt>
      <trkpt lat="44.12412" lon="2.25106">
        <ele>392</ele>
        <time>2022-09-11T10:22:38.531Z</time>
      </trkpt>
      <trkpt lat="44.12411" lon="2.25105">
        <ele>393</ele>
        <time>2022-09-11T10:22:39.531Z</time>
      </trkpt>
      <trkpt lat="44.12411" lon="2.25104">
        <ele>393</ele>
        <time>2022-09-11T10:22:40.531Z</time>
      </trkpt>
      <trkpt lat="44.12411" lon="2.25102">
        <ele>393</ele>
        <time>2022-09-11T10:22:41.531Z</time>
      </trkpt>
      <trkpt lat="44.12411" lon="2.25101">
        <ele>393</ele>
        <time>2022-09-11T10:22:42.531Z</time>
      </trkpt>
      <trkpt lat="44.12411" lon="2.251">
        <ele>393</ele>
        <time>2022-09-11T10:22:43.531Z</time>
      </trkpt>
      <trkpt lat="44.1241" lon="2.25099">
        <ele>394</ele>
        <time>2022-09-11T10:22:44.531Z</time>
      </trkpt>
      <trkpt lat="44.1241" lon="2.25097">
        <ele>394</ele>
        <time>2022-09-11T10:22:45.531Z</time>
      </trkpt>
      <trkpt lat="44.1241" lon="2.25096">
        <ele>394</ele>
        <time>2022-09-11T10:22:46.531Z</time>
      </trkpt>
      <trkpt lat="44.1241" lon="2.25095">
        <ele>394</ele>
        <time>2022-09-11T10:22:47.531Z</time>
      </trkpt>
      <trkpt lat="44.1241" lon="2.25094">
        <ele>394</ele>
        <time>2022-09-11T10:22:48.531Z</time>
      </trkpt>
      <trkpt lat="44.1241" lon="2.25093">
        <ele>394</ele>
        <time>2022-09-11T10:22:49.531Z</time>
      </trkpt>
      <trkpt lat="44.12409" lon="2.25091">
        <ele>394</ele>
        <time>2022-09-11T10:22:50.531Z</time>
      </trkpt>
      <trkpt lat="44.12409" lon="2.2509">
        <ele>394</ele>
        <time>2022-09-11T10:22:51.531Z</time>
      </trkpt>
      <trkpt lat="44.12409" lon="2.25089">
        <ele>395</ele>
        <time>2022-09-11T10:22:52.531Z</time>
      </trkpt>
      <trkpt lat="44.12409" lon="2.25088">
        <ele>395</ele>
        <time>2022-09-11T10:22:53.531Z</time>
      </trkpt>
      <trkpt lat="44.12409" lon="2.25086">
        <ele>395</ele>
        <time>2022-09-11T10:22:54.531Z</time>
      </trkpt>
      <trkpt lat="44.12409" lon="2.25085">
        <ele>395</ele>
        <time>2022-09-11T10:22:55.531Z</time>
      </trkpt>
      <trkpt lat="44.12409" lon="2.25084">
        <ele>395</ele>
        <time>2022-09-11T10:22:56.531Z</time>
      </trkpt>
      <trkpt lat="44.12409" lon="2.25082">
        <ele>396</ele>
        <time>2022-09-11T10:22:57.531Z</time>
      </trkpt>
      <trkpt lat="44.12408" lon="2.25081">
        <ele>396</ele>
        <time>2022-09-11T10:22:58.531Z</time>
      </trkpt>
      <trkpt lat="44.12408" lon="2.2508">
        <ele>396</ele>
        <time>2022-09-11T10:22:59.531Z</time>
      </trkpt>
      <trkpt lat="44.12408" lon="2.25079">
        <ele>396</ele>
        <time>2022-09-11T10:23:00.531Z</time>
      </trkpt>
      <trkpt lat="44.12407" lon="2.25078">
        <ele>397</ele>
        <time>2022-09-11T10:23:01.531Z</time>
      </trkpt>
      <trkpt lat="44.12407" lon="2.25077">
        <ele>397</ele>
        <time>2022-09-11T10:23:02.531Z</time>
      </trkpt>
      <trkpt lat="44.12407" lon="2.25076">
        <ele>397</ele>
        <time>2022-09-11T10:23:03.531Z</time>
      </trkpt>
      <trkpt lat="44.12407" lon="2.25075">
        <ele>397</ele>
        <time>2022-09-11T10:23:04.531Z</time>
      </trkpt>
      <trkpt lat="44.12406" lon="2.25074">
        <ele>398</ele>
        <time>2022-09-11T10:23:05.531Z</time>
      </trkpt>
      <trkpt lat="44.12406" lon="2.25072">
        <ele>398</ele>
        <time>2022-09-11T10:23:06.531Z</time>
      </trkpt>
      <trkpt lat="44.12406" lon="2.25071">
        <ele>398</ele>
        <time>2022-09-11T10:23:07.531Z</time>
      </trkpt>
      <trkpt lat="44.12406" lon="2.2507">
        <ele>398</ele>
        <time>2022-09-11T10:23:08.531Z</time>
      </trkpt>
      <trkpt lat="44.12405" lon="2.25069">
        <ele>398</ele>
        <time>2022-09-11T10:23:09.531Z</time>
      </trkpt>
      <trkpt lat="44.12405" lon="2.25068">
        <ele>398</ele>
        <time>2022-09-11T10:23:10.531Z</time>
      </trkpt>
      <trkpt lat="44.12405" lon="2.25066">
        <ele>399</ele>
        <time>2022-09-11T10:23:11.531Z</time>
      </trkpt>
      <trkpt lat="44.12404" lon="2.25065">
        <ele>399</ele>
        <time>2022-09-11T10:23:12.531Z</time>
      </trkpt>
      <trkpt lat="44.12404" lon="2.25064">
        <ele>399</ele>
        <time>2022-09-11T10:23:13.531Z</time>
      </trkpt>
      <trkpt lat="44.12404" lon="2.25063">
        <ele>399</ele>
        <time>2022-09-11T10:23:14.531Z</time>
      </trkpt>
      <trkpt lat="44.12403" lon="2.25061">
        <ele>399</ele>
        <time>2022-09-11T10:23:15.531Z</time>
      </trkpt>
      <trkpt lat="44.12403" lon="2.2506">
        <ele>399</ele>
        <time>2022-09-11T10:23:16.531Z</time>
      </trkpt>
      <trkpt lat="44.12402" lon="2.25059">
        <ele>400</ele>
        <time>2022-09-11T10:23:17.531Z</time>
      </trkpt>
      <trkpt lat="44.12402" lon="2.25058">
        <ele>400</ele>
        <time>2022-09-11T10:23:18.531Z</time>
      </trkpt>
      <trkpt lat="44.12401" lon="2.25057">
        <ele>400</ele>
        <time>2022-09-11T10:23:19.531Z</time>
      </trkpt>
      <trkpt lat="44.124" lon="2.25056">
        <ele>400</ele>
        <time>2022-09-11T10:23:20.531Z</time>
      </trkpt>
      <trkpt lat="44.124" lon="2.25054">
        <ele>400</ele>
        <time>2022-09-11T10:23:21.531Z</time>
      </trkpt>
      <trkpt lat="44.12399" lon="2.25053">
        <ele>400</ele>
        <time>2022-09-11T10:23:22.531Z</time>
      </trkpt>
      <trkpt lat="44.12399" lon="2.25051">
        <ele>401</ele>
        <time>2022-09-11T10:23:23.531Z</time>
      </trkpt>
      <trkpt lat="44.12398" lon="2.2505">
        <ele>401</ele>
        <time>2022-09-11T10:23:24.531Z</time>
      </trkpt>
      <trkpt lat="44.12398" lon="2.25049">
        <ele>401</ele>
        <time>2022-09-11T10:23:25.531Z</time>
      </trkpt>
      <trkpt lat="44.12397" lon="2.25047">
        <ele>401</ele>
        <time>2022-09-11T10:23:26.531Z</time>
      </trkpt>
      <trkpt lat="44.12397" lon="2.25046">
        <ele>401</ele>
        <time>2022-09-11T10:23:27.531Z</time>
      </trkpt>
      <trkpt lat="44.12396" lon="2.25045">
        <ele>401</ele>
        <time>2022-09-11T10:23:28.531Z</time>
      </trkpt>
      <trkpt lat="44.12396" lon="2.25043">
        <ele>401</ele>
        <time>2022-09-11T10:23:29.531Z</time>
      </trkpt>
      <trkpt lat="44.12395" lon="2.25042">
        <ele>401</ele>
        <time>2022-09-11T10:23:30.531Z</time>
      </trkpt>
      <trkpt lat="44.12395" lon="2.25041">
        <ele>401</ele>
        <time>2022-09-11T10:23:31.531Z</time>
      </trkpt>
      <trkpt lat="44.12395" lon="2.25039">
        <ele>401</ele>
        <time>2022-09-11T10:23:32.531Z</time>
      </trkpt>
      <trkpt lat="44.12395" lon="2.25038">
        <ele>402</ele>
        <time>2022-09-11T10:23:33.531Z</time>
      </trkpt>
      <trkpt lat="44.12395" lon="2.25037">
        <ele>402</ele>
        <time>2022-09-11T10:23:34.531Z</time>
      </trkpt>
      <trkpt lat="44.12394" lon="2.25035">
        <ele>402</ele>
        <time>2022-09-11T10:23:35.531Z</time>
      </trkpt>
      <trkpt lat="44.12394" lon="2.25034">
        <ele>402</ele>
        <time>2022-09-11T10:23:36.531Z</time>
      </trkpt>
      <trkpt lat="44.12394" lon="2.25032">
        <ele>402</ele>
        <time>2022-09-11T10:23:37.531Z</time>
      </trkpt>
      <trkpt lat="44.12393" lon="2.25031">
        <ele>402</ele>
        <time>2022-09-11T10:23:38.531Z</time>
      </trkpt>
      <trkpt lat="44.12393" lon="2.2503">
        <ele>402</ele>
        <time>2022-09-11T10:23:39.531Z</time>
      </trkpt>
      <trkpt lat="44.12393" lon="2.25028">
        <ele>403</ele>
        <time>2022-09-11T10:23:40.531Z</time>
      </trkpt>
      <trkpt lat="44.12393" lon="2.25027">
        <ele>403</ele>
        <time>2022-09-11T10:23:41.531Z</time>
      </trkpt>
      <trkpt lat="44.12393" lon="2.25026">
        <ele>403</ele>
        <time>2022-09-11T10:23:42.531Z</time>
      </trkpt>
      <trkpt lat="44.12393" lon="2.25025">
        <ele>403</ele>
        <time>2022-09-11T10:23:43.531Z</time>
      </trkpt>
      <trkpt lat="44.12392" lon="2.25024">
        <ele>403</ele>
        <time>2022-09-11T10:23:44.531Z</time>
      </trkpt>
      <trkpt lat="44.12392" lon="2.25022">
        <ele>403</ele>
        <time>2022-09-11T10:23:45.531Z</time>
      </trkpt>
      <trkpt lat="44.12392" lon="2.25021">
        <ele>403</ele>
        <time>2022-09-11T10:23:46.531Z</time>
      </trkpt>
      <trkpt lat="44.12391" lon="2.2502">
        <ele>403</ele>
        <time>2022-09-11T10:23:47.531Z</time>
      </trkpt>
      <trkpt lat="44.12391" lon="2.25019">
        <ele>403</ele>
        <time>2022-09-11T10:23:48.531Z</time>
      </trkpt>
      <trkpt lat="44.12391" lon="2.25017">
        <ele>404</ele>
        <time>2022-09-11T10:23:49.531Z</time>
      </trkpt>
      <trkpt lat="44.1239" lon="2.25016">
        <ele>404</ele>
        <time>2022-09-11T10:23:50.531Z</time>
      </trkpt>
      <trkpt lat="44.1239" lon="2.25015">
        <ele>404</ele>
        <time>2022-09-11T10:23:51.531Z</time>
      </trkpt>
      <trkpt lat="44.12389" lon="2.25013">
        <ele>404</ele>
        <time>2022-09-11T10:23:52.531Z</time>
      </trkpt>
      <trkpt lat="44.12389" lon="2.25012">
        <ele>404</ele>
        <time>2022-09-11T10:23:53.531Z</time>
      </trkpt>
      <trkpt lat="44.12388" lon="2.25011">
        <ele>404</ele>
        <time>2022-09-11T10:23:54.531Z</time>
      </trkpt>
      <trkpt lat="44.12387" lon="2.2501">
        <ele>404</ele>
        <time>2022-09-11T10:23:55.531Z</time>
      </trkpt>
      <trkpt lat="44.12386" lon="2.25009">
        <ele>404</ele>
        <time>2022-09-11T10:23:56.531Z</time>
      </trkpt>
      <trkpt lat="44.12386" lon="2.25008">
        <ele>404</ele>
        <time>2022-09-11T10:23:57.531Z</time>
      </trkpt>
      <trkpt lat="44.12385" lon="2.25007">
        <ele>404</ele>
        <time>2022-09-11T10:23:58.531Z</time>
      </trkpt>
      <trkpt lat="44.12384" lon="2.25006">
        <ele>404</ele>
        <time>2022-09-11T10:23:59.531Z</time>
      </trkpt>
      <trkpt lat="44.12383" lon="2.25005">
        <ele>404</ele>
        <time>2022-09-11T10:24:00.531Z</time>
      </trkpt>
      <trkpt lat="44.12383" lon="2.25003">
        <ele>404</ele>
        <time>2022-09-11T10:24:01.531Z</time>
      </trkpt>
      <trkpt lat="44.12382" lon="2.25002">
        <ele>404</ele>
        <time>2022-09-11T10:24:02.531Z</time>
      </trkpt>
      <trkpt lat="44.12381" lon="2.25001">
        <ele>404</ele>
        <time>2022-09-11T10:24:03.531Z</time>
      </trkpt>
      <trkpt lat="44.12381" lon="2.25">
        <ele>404</ele>
        <time>2022-09-11T10:24:04.531Z</time>
      </trkpt>
      <trkpt lat="44.1238" lon="2.24999">
        <ele>404</ele>
        <time>2022-09-11T10:24:05.531Z</time>
      </trkpt>
      <trkpt lat="44.12379" lon="2.24997">
        <ele>404</ele>
        <time>2022-09-11T10:24:06.531Z</time>
      </trkpt>
      <trkpt lat="44.12379" lon="2.24996">
        <ele>404</ele>
        <time>2022-09-11T10:24:07.531Z</time>
      </trkpt>
      <trkpt lat="44.12378" lon="2.24994">
        <ele>404</ele>
        <time>2022-09-11T10:24:08.531Z</time>
      </trkpt>
      <trkpt lat="44.12378" lon="2.24993">
        <ele>404</ele>
        <time>2022-09-11T10:24:09.531Z</time>
      </trkpt>
      <trkpt lat="44.12377" lon="2.24991">
        <ele>404</ele>
        <time>2022-09-11T10:24:10.531Z</time>
      </trkpt>
      <trkpt lat="44.12377" lon="2.2499">
        <ele>404</ele>
        <time>2022-09-11T10:24:11.531Z</time>
      </trkpt>
      <trkpt lat="44.12376" lon="2.24988">
        <ele>404</ele>
        <time>2022-09-11T10:24:12.531Z</time>
      </trkpt>
      <trkpt lat="44.12376" lon="2.24987">
        <ele>404</ele>
        <time>2022-09-11T10:24:13.531Z</time>
      </trkpt>
      <trkpt lat="44.12375" lon="2.24986">
        <ele>404</ele>
        <time>2022-09-11T10:24:14.531Z</time>
      </trkpt>
      <trkpt lat="44.12375" lon="2.24985">
        <ele>404</ele>
        <time>2022-09-11T10:24:15.531Z</time>
      </trkpt>
      <trkpt lat="44.12374" lon="2.24984">
        <ele>404</ele>
        <time>2022-09-11T10:24:16.531Z</time>
      </trkpt>
      <trkpt lat="44.12374" lon="2.24982">
        <ele>404</ele>
        <time>2022-09-11T10:24:17.531Z</time>
      </trkpt>
      <trkpt lat="44.12373" lon="2.24981">
        <ele>404</ele>
        <time>2022-09-11T10:24:18.531Z</time>
      </trkpt>
      <trkpt lat="44.12373" lon="2.2498">
        <ele>404</ele>
        <time>2022-09-11T10:24:19.531Z</time>
      </trkpt>
      <trkpt lat="44.12373" lon="2.24978">
        <ele>404</ele>
        <time>2022-09-11T10:24:20.531Z</time>
      </trkpt>
      <trkpt lat="44.12373" lon="2.24977">
        <ele>404</ele>
        <time>2022-09-11T10:24:21.531Z</time>
      </trkpt>
      <trkpt lat="44.12373" lon="2.24976">
        <ele>405</ele>
        <time>2022-09-11T10:24:22.531Z</time>
      </trkpt>
      <trkpt lat="44.12373" lon="2.24975">
        <ele>405</ele>
        <time>2022-09-11T10:24:23.531Z</time>
      </trkpt>
      <trkpt lat="44.12372" lon="2.24973">
        <ele>405</ele>
        <time>2022-09-11T10:24:24.531Z</time>
      </trkpt>
      <trkpt lat="44.12372" lon="2.24972">
        <ele>405</ele>
        <time>2022-09-11T10:24:25.531Z</time>
      </trkpt>
      <trkpt lat="44.12372" lon="2.2497">
        <ele>405</ele>
        <time>2022-09-11T10:24:26.531Z</time>
      </trkpt>
      <trkpt lat="44.12372" lon="2.24969">
        <ele>405</ele>
        <time>2022-09-11T10:24:27.531Z</time>
      </trkpt>
      <trkpt lat="44.12372" lon="2.24968">
        <ele>405</ele>
        <time>2022-09-11T10:24:28.531Z</time>
      </trkpt>
      <trkpt lat="44.12372" lon="2.24966">
        <ele>405</ele>
        <time>2022-09-11T10:24:29.531Z</time>
      </trkpt>
      <trkpt lat="44.12371" lon="2.24965">
        <ele>406</ele>
        <time>2022-09-11T10:24:30.531Z</time>
      </trkpt>
      <trkpt lat="44.12372" lon="2.24964">
        <ele>406</ele>
        <time>2022-09-11T10:24:31.531Z</time>
      </trkpt>
      <trkpt lat="44.12372" lon="2.24963">
        <ele>406</ele>
        <time>2022-09-11T10:24:32.531Z</time>
      </trkpt>
      <trkpt lat="44.12372" lon="2.24961">
        <ele>406</ele>
        <time>2022-09-11T10:24:33.531Z</time>
      </trkpt>
      <trkpt lat="44.12372" lon="2.2496">
        <ele>406</ele>
        <time>2022-09-11T10:24:34.531Z</time>
      </trkpt>
      <trkpt lat="44.12372" lon="2.24959">
        <ele>406</ele>
        <time>2022-09-11T10:24:35.531Z</time>
      </trkpt>
      <trkpt lat="44.12372" lon="2.24959">
        <ele>406</ele>
        <time>2022-09-11T10:24:36.531Z</time>
      </trkpt>
      <trkpt lat="44.12372" lon="2.24958">
        <ele>406</ele>
        <time>2022-09-11T10:24:37.531Z</time>
      </trkpt>
      <trkpt lat="44.12372" lon="2.24958">
        <ele>406</ele>
        <time>2022-09-11T10:24:38.531Z</time>
      </trkpt>
      <trkpt lat="44.12372" lon="2.24958">
        <ele>406</ele>
        <time>2022-09-11T10:24:39.531Z</time>
      </trkpt>
      <trkpt lat="44.12372" lon="2.24958">
        <ele>406</ele>
        <time>2022-09-11T10:24:40.531Z</time>
      </trkpt>
      <trkpt lat="44.12371" lon="2.24954">
        <ele>406</ele>
        <time>2022-09-11T10:25:21.533Z</time>
      </trkpt>
      <trkpt lat="44.12371" lon="2.24953">
        <ele>406</ele>
        <time>2022-09-11T10:25:22.533Z</time>
      </trkpt>
      <trkpt lat="44.12371" lon="2.24953">
        <ele>407</ele>
        <time>2022-09-11T10:25:23.533Z</time>
      </trkpt>
      <trkpt lat="44.12371" lon="2.24952">
        <ele>407</ele>
        <time>2022-09-11T10:25:24.533Z</time>
      </trkpt>
      <trkpt lat="44.12371" lon="2.24952">
        <ele>407</ele>
        <time>2022-09-11T10:25:25.533Z</time>
      </trkpt>
      <trkpt lat="44.12371" lon="2.24951">
        <ele>407</ele>
        <time>2022-09-11T10:25:26.533Z</time>
      </trkpt>
      <trkpt lat="44.12371" lon="2.2495">
        <ele>407</ele>
        <time>2022-09-11T10:25:27.533Z</time>
      </trkpt>
      <trkpt lat="44.12371" lon="2.24949">
        <ele>407</ele>
        <time>2022-09-11T10:25:28.533Z</time>
      </trkpt>
      <trkpt lat="44.12371" lon="2.24949">
        <ele>407</ele>
        <time>2022-09-11T10:25:29.533Z</time>
      </trkpt>
      <trkpt lat="44.12372" lon="2.24949">
        <ele>407</ele>
        <time>2022-09-11T10:25:30.533Z</time>
      </trkpt>
      <trkpt lat="44.12372" lon="2.24949">
        <ele>408</ele>
        <time>2022-09-11T10:25:31.533Z</time>
      </trkpt>
      <trkpt lat="44.12372" lon="2.24948">
        <ele>408</ele>
        <time>2022-09-11T10:25:32.533Z</time>
      </trkpt>
      <trkpt lat="44.12373" lon="2.24947">
        <ele>408</ele>
        <time>2022-09-11T10:25:33.533Z</time>
      </trkpt>
      <trkpt lat="44.12373" lon="2.24944">
        <ele>409</ele>
        <time>2022-09-11T10:32:17.530Z</time>
      </trkpt>
      <trkpt lat="44.12374" lon="2.24943">
        <ele>409</ele>
        <time>2022-09-11T10:32:18.530Z</time>
      </trkpt>
      <trkpt lat="44.12374" lon="2.24942">
        <ele>409</ele>
        <time>2022-09-11T10:32:19.530Z</time>
      </trkpt>
      <trkpt lat="44.12374" lon="2.24941">
        <ele>409</ele>
        <time>2022-09-11T10:32:20.530Z</time>
      </trkpt>
      <trkpt lat="44.12374" lon="2.2494">
        <ele>409</ele>
        <time>2022-09-11T10:32:21.530Z</time>
      </trkpt>
      <trkpt lat="44.12374" lon="2.24938">
        <ele>409</ele>
        <time>2022-09-11T10:32:22.530Z</time>
      </trkpt>
      <trkpt lat="44.12374" lon="2.24937">
        <ele>410</ele>
        <time>2022-09-11T10:32:23.530Z</time>
      </trkpt>
      <trkpt lat="44.12374" lon="2.24937">
        <ele>410</ele>
        <time>2022-09-11T10:32:24.530Z</time>
      </trkpt>
      <trkpt lat="44.12374" lon="2.24935">
        <ele>410</ele>
        <time>2022-09-11T10:32:25.530Z</time>
      </trkpt>
      <trkpt lat="44.12374" lon="2.24934">
        <ele>410</ele>
        <time>2022-09-11T10:32:26.530Z</time>
      </trkpt>
      <trkpt lat="44.12374" lon="2.24933">
        <ele>410</ele>
        <time>2022-09-11T10:32:27.530Z</time>
      </trkpt>
      <trkpt lat="44.12374" lon="2.24932">
        <ele>410</ele>
        <time>2022-09-11T10:32:28.530Z</time>
      </trkpt>
      <trkpt lat="44.12374" lon="2.24931">
        <ele>410</ele>
        <time>2022-09-11T10:32:29.530Z</time>
      </trkpt>
      <trkpt lat="44.12374" lon="2.2493">
        <ele>410</ele>
        <time>2022-09-11T10:32:30.530Z</time>
      </trkpt>
      <trkpt lat="44.12374" lon="2.24929">
        <ele>411</ele>
        <time>2022-09-11T10:32:31.530Z</time>
      </trkpt>
      <trkpt lat="44.12375" lon="2.24928">
        <ele>411</ele>
        <time>2022-09-11T10:32:32.530Z</time>
      </trkpt>
      <trkpt lat="44.12375" lon="2.24927">
        <ele>411</ele>
        <time>2022-09-11T10:32:33.530Z</time>
      </trkpt>
      <trkpt lat="44.12375" lon="2.24926">
        <ele>411</ele>
        <time>2022-09-11T10:32:34.530Z</time>
      </trkpt>
      <trkpt lat="44.12375" lon="2.24925">
        <ele>411</ele>
        <time>2022-09-11T10:32:35.530Z</time>
      </trkpt>
      <trkpt lat="44.12375" lon="2.24923">
        <ele>411</ele>
        <time>2022-09-11T10:32:36.530Z</time>
      </trkpt>
      <trkpt lat="44.12376" lon="2.24922">
        <ele>411</ele>
        <time>2022-09-11T10:32:37.530Z</time>
      </trkpt>
      <trkpt lat="44.12376" lon="2.24921">
        <ele>412</ele>
        <time>2022-09-11T10:32:38.530Z</time>
      </trkpt>
      <trkpt lat="44.12376" lon="2.2492">
        <ele>412</ele>
        <time>2022-09-11T10:32:39.530Z</time>
      </trkpt>
      <trkpt lat="44.12376" lon="2.24919">
        <ele>412</ele>
        <time>2022-09-11T10:32:40.530Z</time>
      </trkpt>
      <trkpt lat="44.12376" lon="2.24918">
        <ele>412</ele>
        <time>2022-09-11T10:32:41.530Z</time>
      </trkpt>
      <trkpt lat="44.12376" lon="2.24917">
        <ele>412</ele>
        <time>2022-09-11T10:32:42.530Z</time>
      </trkpt>
      <trkpt lat="44.12377" lon="2.24916">
        <ele>412</ele>
        <time>2022-09-11T10:32:43.530Z</time>
      </trkpt>
      <trkpt lat="44.12377" lon="2.24915">
        <ele>412</ele>
        <time>2022-09-11T10:32:44.530Z</time>
      </trkpt>
      <trkpt lat="44.12377" lon="2.24914">
        <ele>412</ele>
        <time>2022-09-11T10:32:45.530Z</time>
      </trkpt>
      <trkpt lat="44.12377" lon="2.24913">
        <ele>412</ele>
        <time>2022-09-11T10:32:46.530Z</time>
      </trkpt>
      <trkpt lat="44.12378" lon="2.24913">
        <ele>412</ele>
        <time>2022-09-11T10:32:47.530Z</time>
      </trkpt>
      <trkpt lat="44.12378" lon="2.24912">
        <ele>413</ele>
        <time>2022-09-11T10:32:48.530Z</time>
      </trkpt>
      <trkpt lat="44.12378" lon="2.24911">
        <ele>413</ele>
        <time>2022-09-11T10:32:49.530Z</time>
      </trkpt>
      <trkpt lat="44.12378" lon="2.24911">
        <ele>413</ele>
        <time>2022-09-11T10:32:50.530Z</time>
      </trkpt>
      <trkpt lat="44.12379" lon="2.2491">
        <ele>413</ele>
        <time>2022-09-11T10:32:51.530Z</time>
      </trkpt>
      <trkpt lat="44.12379" lon="2.24908">
        <ele>413</ele>
        <time>2022-09-11T10:32:52.530Z</time>
      </trkpt>
      <trkpt lat="44.12379" lon="2.24907">
        <ele>414</ele>
        <time>2022-09-11T10:32:53.530Z</time>
      </trkpt>
      <trkpt lat="44.12379" lon="2.24906">
        <ele>414</ele>
        <time>2022-09-11T10:32:54.530Z</time>
      </trkpt>
      <trkpt lat="44.12379" lon="2.24905">
        <ele>414</ele>
        <time>2022-09-11T10:32:55.530Z</time>
      </trkpt>
      <trkpt lat="44.1238" lon="2.24904">
        <ele>414</ele>
        <time>2022-09-11T10:32:56.530Z</time>
      </trkpt>
      <trkpt lat="44.1238" lon="2.24903">
        <ele>414</ele>
        <time>2022-09-11T10:32:57.530Z</time>
      </trkpt>
      <trkpt lat="44.1238" lon="2.24902">
        <ele>415</ele>
        <time>2022-09-11T10:32:58.530Z</time>
      </trkpt>
      <trkpt lat="44.12381" lon="2.24902">
        <ele>415</ele>
        <time>2022-09-11T10:32:59.530Z</time>
      </trkpt>
      <trkpt lat="44.12381" lon="2.24901">
        <ele>415</ele>
        <time>2022-09-11T10:33:00.530Z</time>
      </trkpt>
      <trkpt lat="44.12381" lon="2.24901">
        <ele>415</ele>
        <time>2022-09-11T10:33:01.530Z</time>
      </trkpt>
      <trkpt lat="44.12381" lon="2.24899">
        <ele>415</ele>
        <time>2022-09-11T10:33:02.530Z</time>
      </trkpt>
      <trkpt lat="44.12381" lon="2.24899">
        <ele>415</ele>
        <time>2022-09-11T10:33:03.530Z</time>
      </trkpt>
      <trkpt lat="44.12381" lon="2.24898">
        <ele>415</ele>
        <time>2022-09-11T10:33:04.530Z</time>
      </trkpt>
      <trkpt lat="44.12382" lon="2.24898">
        <ele>415</ele>
        <time>2022-09-11T10:33:05.530Z</time>
      </trkpt>
      <trkpt lat="44.12382" lon="2.24897">
        <ele>415</ele>
        <time>2022-09-11T10:33:06.530Z</time>
      </trkpt>
      <trkpt lat="44.12382" lon="2.24896">
        <ele>415</ele>
        <time>2022-09-11T10:33:07.530Z</time>
      </trkpt>
      <trkpt lat="44.12382" lon="2.24895">
        <ele>415</ele>
        <time>2022-09-11T10:33:08.530Z</time>
      </trkpt>
      <trkpt lat="44.12382" lon="2.24895">
        <ele>416</ele>
        <time>2022-09-11T10:33:09.530Z</time>
      </trkpt>
      <trkpt lat="44.12382" lon="2.24894">
        <ele>416</ele>
        <time>2022-09-11T10:33:10.530Z</time>
      </trkpt>
      <trkpt lat="44.12382" lon="2.24893">
        <ele>416</ele>
        <time>2022-09-11T10:33:11.530Z</time>
      </trkpt>
      <trkpt lat="44.12383" lon="2.24892">
        <ele>416</ele>
        <time>2022-09-11T10:33:12.530Z</time>
      </trkpt>
      <trkpt lat="44.12383" lon="2.24891">
        <ele>416</ele>
        <time>2022-09-11T10:33:13.530Z</time>
      </trkpt>
      <trkpt lat="44.12383" lon="2.2489">
        <ele>416</ele>
        <time>2022-09-11T10:33:14.530Z</time>
      </trkpt>
      <trkpt lat="44.12384" lon="2.24889">
        <ele>416</ele>
        <time>2022-09-11T10:33:15.530Z</time>
      </trkpt>
      <trkpt lat="44.12384" lon="2.24888">
        <ele>416</ele>
        <time>2022-09-11T10:33:16.530Z</time>
      </trkpt>
      <trkpt lat="44.12384" lon="2.24887">
        <ele>416</ele>
        <time>2022-09-11T10:33:17.530Z</time>
      </trkpt>
      <trkpt lat="44.12384" lon="2.24886">
        <ele>416</ele>
        <time>2022-09-11T10:33:18.530Z</time>
      </trkpt>
      <trkpt lat="44.12384" lon="2.24885">
        <ele>416</ele>
        <time>2022-09-11T10:33:19.530Z</time>
      </trkpt>
      <trkpt lat="44.12385" lon="2.24884">
        <ele>417</ele>
        <time>2022-09-11T10:33:20.530Z</time>
      </trkpt>
      <trkpt lat="44.12385" lon="2.24883">
        <ele>417</ele>
        <time>2022-09-11T10:33:21.530Z</time>
      </trkpt>
      <trkpt lat="44.12385" lon="2.24882">
        <ele>417</ele>
        <time>2022-09-11T10:33:22.530Z</time>
      </trkpt>
      <trkpt lat="44.12385" lon="2.24881">
        <ele>417</ele>
        <time>2022-09-11T10:33:23.530Z</time>
      </trkpt>
      <trkpt lat="44.12386" lon="2.2488">
        <ele>417</ele>
        <time>2022-09-11T10:33:24.530Z</time>
      </trkpt>
      <trkpt lat="44.12386" lon="2.24879">
        <ele>417</ele>
        <time>2022-09-11T10:33:25.530Z</time>
      </trkpt>
      <trkpt lat="44.12386" lon="2.24879">
        <ele>418</ele>
        <time>2022-09-11T10:33:26.530Z</time>
      </trkpt>
      <trkpt lat="44.12386" lon="2.24879">
        <ele>418</ele>
        <time>2022-09-11T10:33:27.530Z</time>
      </trkpt>
      <trkpt lat="44.12386" lon="2.24878">
        <ele>418</ele>
        <time>2022-09-11T10:33:28.530Z</time>
      </trkpt>
      <trkpt lat="44.12387" lon="2.24877">
        <ele>418</ele>
        <time>2022-09-11T10:33:29.530Z</time>
      </trkpt>
      <trkpt lat="44.12387" lon="2.24876">
        <ele>418</ele>
        <time>2022-09-11T10:33:30.530Z</time>
      </trkpt>
      <trkpt lat="44.12387" lon="2.24874">
        <ele>419</ele>
        <time>2022-09-11T10:33:31.530Z</time>
      </trkpt>
      <trkpt lat="44.12387" lon="2.24873">
        <ele>419</ele>
        <time>2022-09-11T10:33:32.530Z</time>
      </trkpt>
      <trkpt lat="44.12387" lon="2.24872">
        <ele>419</ele>
        <time>2022-09-11T10:33:33.530Z</time>
      </trkpt>
      <trkpt lat="44.12388" lon="2.24871">
        <ele>419</ele>
        <time>2022-09-11T10:33:34.530Z</time>
      </trkpt>
      <trkpt lat="44.12388" lon="2.2487">
        <ele>419</ele>
        <time>2022-09-11T10:33:35.530Z</time>
      </trkpt>
      <trkpt lat="44.12388" lon="2.24869">
        <ele>420</ele>
        <time>2022-09-11T10:33:36.530Z</time>
      </trkpt>
      <trkpt lat="44.12388" lon="2.24868">
        <ele>420</ele>
        <time>2022-09-11T10:33:37.530Z</time>
      </trkpt>
      <trkpt lat="44.12389" lon="2.24866">
        <ele>420</ele>
        <time>2022-09-11T10:33:38.530Z</time>
      </trkpt>
      <trkpt lat="44.12389" lon="2.24865">
        <ele>420</ele>
        <time>2022-09-11T10:33:39.530Z</time>
      </trkpt>
      <trkpt lat="44.12389" lon="2.24864">
        <ele>421</ele>
        <time>2022-09-11T10:33:40.530Z</time>
      </trkpt>
      <trkpt lat="44.12389" lon="2.24862">
        <ele>421</ele>
        <time>2022-09-11T10:33:41.530Z</time>
      </trkpt>
      <trkpt lat="44.12389" lon="2.24861">
        <ele>421</ele>
        <time>2022-09-11T10:33:42.530Z</time>
      </trkpt>
      <trkpt lat="44.12389" lon="2.2486">
        <ele>421</ele>
        <time>2022-09-11T10:33:43.530Z</time>
      </trkpt>
      <trkpt lat="44.12389" lon="2.24859">
        <ele>421</ele>
        <time>2022-09-11T10:33:44.530Z</time>
      </trkpt>
      <trkpt lat="44.1239" lon="2.24857">
        <ele>421</ele>
        <time>2022-09-11T10:33:45.530Z</time>
      </trkpt>
      <trkpt lat="44.1239" lon="2.24855">
        <ele>421</ele>
        <time>2022-09-11T10:33:46.530Z</time>
      </trkpt>
      <trkpt lat="44.1239" lon="2.24854">
        <ele>421</ele>
        <time>2022-09-11T10:33:47.530Z</time>
      </trkpt>
      <trkpt lat="44.1239" lon="2.24853">
        <ele>421</ele>
        <time>2022-09-11T10:33:48.530Z</time>
      </trkpt>
      <trkpt lat="44.12391" lon="2.24853">
        <ele>421</ele>
        <time>2022-09-11T10:33:49.530Z</time>
      </trkpt>
      <trkpt lat="44.12391" lon="2.24853">
        <ele>421</ele>
        <time>2022-09-11T10:33:50.530Z</time>
      </trkpt>
      <trkpt lat="44.12391" lon="2.24853">
        <ele>421</ele>
        <time>2022-09-11T10:33:51.530Z</time>
      </trkpt>
      <trkpt lat="44.12391" lon="2.24853">
        <ele>421</ele>
        <time>2022-09-11T10:33:52.530Z</time>
      </trkpt>
      <trkpt lat="44.12391" lon="2.24849">
        <ele>421</ele>
        <time>2022-09-11T10:33:55.785Z</time>
      </trkpt>
      <trkpt lat="44.12392" lon="2.24847">
        <ele>422</ele>
        <time>2022-09-11T10:33:56.785Z</time>
      </trkpt>
      <trkpt lat="44.12392" lon="2.24847">
        <ele>422</ele>
        <time>2022-09-11T10:33:57.785Z</time>
      </trkpt>
      <trkpt lat="44.12392" lon="2.24845">
        <ele>422</ele>
        <time>2022-09-11T10:33:58.785Z</time>
      </trkpt>
      <trkpt lat="44.12393" lon="2.24844">
        <ele>422</ele>
        <time>2022-09-11T10:33:59.785Z</time>
      </trkpt>
      <trkpt lat="44.12393" lon="2.24842">
        <ele>422</ele>
        <time>2022-09-11T10:34:00.785Z</time>
      </trkpt>
      <trkpt lat="44.12393" lon="2.24841">
        <ele>422</ele>
        <time>2022-09-11T10:34:01.785Z</time>
      </trkpt>
      <trkpt lat="44.12393" lon="2.2484">
        <ele>422</ele>
        <time>2022-09-11T10:34:02.785Z</time>
      </trkpt>
      <trkpt lat="44.12393" lon="2.24838">
        <ele>422</ele>
        <time>2022-09-11T10:34:03.785Z</time>
      </trkpt>
      <trkpt lat="44.12394" lon="2.24837">
        <ele>422</ele>
        <time>2022-09-11T10:34:04.785Z</time>
      </trkpt>
      <trkpt lat="44.12394" lon="2.24836">
        <ele>422</ele>
        <time>2022-09-11T10:34:05.785Z</time>
      </trkpt>
      <trkpt lat="44.12394" lon="2.24834">
        <ele>423</ele>
        <time>2022-09-11T10:34:06.785Z</time>
      </trkpt>
      <trkpt lat="44.12394" lon="2.24833">
        <ele>423</ele>
        <time>2022-09-11T10:34:07.785Z</time>
      </trkpt>
      <trkpt lat="44.12395" lon="2.24832">
        <ele>423</ele>
        <time>2022-09-11T10:34:08.785Z</time>
      </trkpt>
      <trkpt lat="44.12395" lon="2.2483">
        <ele>423</ele>
        <time>2022-09-11T10:34:09.785Z</time>
      </trkpt>
      <trkpt lat="44.12395" lon="2.24829">
        <ele>423</ele>
        <time>2022-09-11T10:34:10.785Z</time>
      </trkpt>
      <trkpt lat="44.12396" lon="2.24828">
        <ele>423</ele>
        <time>2022-09-11T10:34:11.785Z</time>
      </trkpt>
      <trkpt lat="44.12396" lon="2.24826">
        <ele>423</ele>
        <time>2022-09-11T10:34:12.785Z</time>
      </trkpt>
      <trkpt lat="44.12396" lon="2.24825">
        <ele>423</ele>
        <time>2022-09-11T10:34:13.785Z</time>
      </trkpt>
      <trkpt lat="44.12397" lon="2.24824">
        <ele>423</ele>
        <time>2022-09-11T10:34:14.785Z</time>
      </trkpt>
      <trkpt lat="44.12397" lon="2.24823">
        <ele>423</ele>
        <time>2022-09-11T10:34:15.785Z</time>
      </trkpt>
      <trkpt lat="44.12397" lon="2.24822">
        <ele>423</ele>
        <time>2022-09-11T10:34:16.785Z</time>
      </trkpt>
      <trkpt lat="44.12397" lon="2.2482">
        <ele>423</ele>
        <time>2022-09-11T10:34:17.785Z</time>
      </trkpt>
      <trkpt lat="44.12398" lon="2.24819">
        <ele>423</ele>
        <time>2022-09-11T10:34:18.785Z</time>
      </trkpt>
      <trkpt lat="44.12398" lon="2.24818">
        <ele>423</ele>
        <time>2022-09-11T10:34:19.785Z</time>
      </trkpt>
      <trkpt lat="44.12399" lon="2.24817">
        <ele>423</ele>
        <time>2022-09-11T10:34:20.785Z</time>
      </trkpt>
      <trkpt lat="44.12399" lon="2.24816">
        <ele>424</ele>
        <time>2022-09-11T10:34:21.785Z</time>
      </trkpt>
      <trkpt lat="44.12399" lon="2.24815">
        <ele>424</ele>
        <time>2022-09-11T10:34:22.785Z</time>
      </trkpt>
      <trkpt lat="44.124" lon="2.24813">
        <ele>424</ele>
        <time>2022-09-11T10:34:23.785Z</time>
      </trkpt>
      <trkpt lat="44.124" lon="2.24812">
        <ele>424</ele>
        <time>2022-09-11T10:34:24.785Z</time>
      </trkpt>
      <trkpt lat="44.124" lon="2.24811">
        <ele>424</ele>
        <time>2022-09-11T10:34:25.785Z</time>
      </trkpt>
      <trkpt lat="44.12401" lon="2.2481">
        <ele>424</ele>
        <time>2022-09-11T10:34:26.785Z</time>
      </trkpt>
      <trkpt lat="44.12401" lon="2.24808">
        <ele>424</ele>
        <time>2022-09-11T10:34:27.785Z</time>
      </trkpt>
      <trkpt lat="44.12402" lon="2.24807">
        <ele>424</ele>
        <time>2022-09-11T10:34:28.785Z</time>
      </trkpt>
      <trkpt lat="44.12402" lon="2.24806">
        <ele>425</ele>
        <time>2022-09-11T10:34:29.785Z</time>
      </trkpt>
      <trkpt lat="44.12402" lon="2.24804">
        <ele>425</ele>
        <time>2022-09-11T10:34:30.785Z</time>
      </trkpt>
      <trkpt lat="44.12403" lon="2.24803">
        <ele>425</ele>
        <time>2022-09-11T10:34:31.785Z</time>
      </trkpt>
      <trkpt lat="44.12403" lon="2.24802">
        <ele>425</ele>
        <time>2022-09-11T10:34:32.785Z</time>
      </trkpt>
      <trkpt lat="44.12404" lon="2.24801">
        <ele>425</ele>
        <time>2022-09-11T10:34:33.785Z</time>
      </trkpt>
      <trkpt lat="44.12404" lon="2.24799">
        <ele>425</ele>
        <time>2022-09-11T10:34:34.785Z</time>
      </trkpt>
      <trkpt lat="44.12405" lon="2.24798">
        <ele>425</ele>
        <time>2022-09-11T10:34:35.785Z</time>
      </trkpt>
      <trkpt lat="44.12405" lon="2.24797">
        <ele>425</ele>
        <time>2022-09-11T10:34:36.785Z</time>
      </trkpt>
      <trkpt lat="44.12406" lon="2.24795">
        <ele>425</ele>
        <time>2022-09-11T10:34:37.785Z</time>
      </trkpt>
      <trkpt lat="44.12406" lon="2.24794">
        <ele>426</ele>
        <time>2022-09-11T10:34:38.785Z</time>
      </trkpt>
      <trkpt lat="44.12406" lon="2.24793">
        <ele>426</ele>
        <time>2022-09-11T10:34:39.785Z</time>
      </trkpt>
      <trkpt lat="44.12407" lon="2.24791">
        <ele>426</ele>
        <time>2022-09-11T10:34:40.785Z</time>
      </trkpt>
      <trkpt lat="44.12407" lon="2.2479">
        <ele>426</ele>
        <time>2022-09-11T10:34:41.785Z</time>
      </trkpt>
      <trkpt lat="44.12407" lon="2.24789">
        <ele>426</ele>
        <time>2022-09-11T10:34:42.785Z</time>
      </trkpt>
      <trkpt lat="44.12407" lon="2.24787">
        <ele>426</ele>
        <time>2022-09-11T10:34:43.785Z</time>
      </trkpt>
      <trkpt lat="44.12408" lon="2.24786">
        <ele>426</ele>
        <time>2022-09-11T10:34:44.785Z</time>
      </trkpt>
      <trkpt lat="44.12408" lon="2.24785">
        <ele>426</ele>
        <time>2022-09-11T10:34:45.785Z</time>
      </trkpt>
      <trkpt lat="44.12408" lon="2.24783">
        <ele>426</ele>
        <time>2022-09-11T10:34:46.785Z</time>
      </trkpt>
      <trkpt lat="44.12408" lon="2.24782">
        <ele>426</ele>
        <time>2022-09-11T10:34:47.785Z</time>
      </trkpt>
      <trkpt lat="44.12409" lon="2.24781">
        <ele>426</ele>
        <time>2022-09-11T10:34:48.785Z</time>
      </trkpt>
      <trkpt lat="44.12409" lon="2.24779">
        <ele>427</ele>
        <time>2022-09-11T10:34:49.785Z</time>
      </trkpt>
      <trkpt lat="44.12408" lon="2.24778">
        <ele>427</ele>
        <time>2022-09-11T10:34:50.785Z</time>
      </trkpt>
      <trkpt lat="44.12408" lon="2.24776">
        <ele>427</ele>
        <time>2022-09-11T10:34:51.785Z</time>
      </trkpt>
      <trkpt lat="44.12408" lon="2.24775">
        <ele>427</ele>
        <time>2022-09-11T10:34:52.785Z</time>
      </trkpt>
      <trkpt lat="44.12407" lon="2.24774">
        <ele>427</ele>
        <time>2022-09-11T10:34:53.785Z</time>
      </trkpt>
      <trkpt lat="44.12407" lon="2.24774">
        <ele>427</ele>
        <time>2022-09-11T10:34:54.785Z</time>
      </trkpt>
      <trkpt lat="44.12406" lon="2.24772">
        <ele>427</ele>
        <time>2022-09-11T10:34:55.785Z</time>
      </trkpt>
      <trkpt lat="44.12405" lon="2.24771">
        <ele>427</ele>
        <time>2022-09-11T10:34:56.785Z</time>
      </trkpt>
      <trkpt lat="44.12405" lon="2.2477">
        <ele>427</ele>
        <time>2022-09-11T10:34:57.785Z</time>
      </trkpt>
      <trkpt lat="44.12405" lon="2.24769">
        <ele>427</ele>
        <time>2022-09-11T10:34:58.785Z</time>
      </trkpt>
      <trkpt lat="44.12404" lon="2.24768">
        <ele>427</ele>
        <time>2022-09-11T10:34:59.785Z</time>
      </trkpt>
      <trkpt lat="44.12404" lon="2.24767">
        <ele>427</ele>
        <time>2022-09-11T10:35:00.785Z</time>
      </trkpt>
      <trkpt lat="44.12404" lon="2.24767">
        <ele>427</ele>
        <time>2022-09-11T10:35:01.785Z</time>
      </trkpt>
      <trkpt lat="44.12404" lon="2.24767">
        <ele>427</ele>
        <time>2022-09-11T10:35:02.785Z</time>
      </trkpt>
      <trkpt lat="44.12404" lon="2.24766">
        <ele>427</ele>
        <time>2022-09-11T10:35:03.785Z</time>
      </trkpt>
      <trkpt lat="44.12402" lon="2.24764">
        <ele>428</ele>
        <time>2022-09-11T10:35:42.789Z</time>
      </trkpt>
      <trkpt lat="44.12401" lon="2.24763">
        <ele>428</ele>
        <time>2022-09-11T10:35:43.789Z</time>
      </trkpt>
      <trkpt lat="44.12401" lon="2.24762">
        <ele>428</ele>
        <time>2022-09-11T10:35:44.789Z</time>
      </trkpt>
      <trkpt lat="44.124" lon="2.24761">
        <ele>428</ele>
        <time>2022-09-11T10:35:45.789Z</time>
      </trkpt>
      <trkpt lat="44.12399" lon="2.24759">
        <ele>428</ele>
        <time>2022-09-11T10:35:46.789Z</time>
      </trkpt>
      <trkpt lat="44.12399" lon="2.24758">
        <ele>428</ele>
        <time>2022-09-11T10:35:47.789Z</time>
      </trkpt>
      <trkpt lat="44.12398" lon="2.24757">
        <ele>428</ele>
        <time>2022-09-11T10:35:48.789Z</time>
      </trkpt>
      <trkpt lat="44.12397" lon="2.24756">
        <ele>428</ele>
        <time>2022-09-11T10:35:49.789Z</time>
      </trkpt>
      <trkpt lat="44.12397" lon="2.24755">
        <ele>428</ele>
        <time>2022-09-11T10:35:50.789Z</time>
      </trkpt>
      <trkpt lat="44.12397" lon="2.24754">
        <ele>428</ele>
        <time>2022-09-11T10:35:51.789Z</time>
      </trkpt>
      <trkpt lat="44.12397" lon="2.24754">
        <ele>428</ele>
        <time>2022-09-11T10:35:52.789Z</time>
      </trkpt>
      <trkpt lat="44.12397" lon="2.24753">
        <ele>428</ele>
        <time>2022-09-11T10:35:53.789Z</time>
      </trkpt>
      <trkpt lat="44.12397" lon="2.24752">
        <ele>428</ele>
        <time>2022-09-11T10:35:54.789Z</time>
      </trkpt>
      <trkpt lat="44.12396" lon="2.24751">
        <ele>428</ele>
        <time>2022-09-11T10:35:55.789Z</time>
      </trkpt>
      <trkpt lat="44.12396" lon="2.24751">
        <ele>428</ele>
        <time>2022-09-11T10:35:56.789Z</time>
      </trkpt>
      <trkpt lat="44.12396" lon="2.2475">
        <ele>428</ele>
        <time>2022-09-11T10:35:57.789Z</time>
      </trkpt>
      <trkpt lat="44.12395" lon="2.24749">
        <ele>428</ele>
        <time>2022-09-11T10:35:58.789Z</time>
      </trkpt>
      <trkpt lat="44.12395" lon="2.24748">
        <ele>428</ele>
        <time>2022-09-11T10:35:59.789Z</time>
      </trkpt>
      <trkpt lat="44.12394" lon="2.24747">
        <ele>428</ele>
        <time>2022-09-11T10:36:00.789Z</time>
      </trkpt>
      <trkpt lat="44.12394" lon="2.24746">
        <ele>428</ele>
        <time>2022-09-11T10:36:01.789Z</time>
      </trkpt>
      <trkpt lat="44.12393" lon="2.24745">
        <ele>428</ele>
        <time>2022-09-11T10:36:02.789Z</time>
      </trkpt>
      <trkpt lat="44.12392" lon="2.24744">
        <ele>428</ele>
        <time>2022-09-11T10:36:03.789Z</time>
      </trkpt>
      <trkpt lat="44.12392" lon="2.24742">
        <ele>428</ele>
        <time>2022-09-11T10:36:04.789Z</time>
      </trkpt>
      <trkpt lat="44.12391" lon="2.24741">
        <ele>428</ele>
        <time>2022-09-11T10:36:05.789Z</time>
      </trkpt>
      <trkpt lat="44.1239" lon="2.24739">
        <ele>428</ele>
        <time>2022-09-11T10:36:06.789Z</time>
      </trkpt>
      <trkpt lat="44.1239" lon="2.24738">
        <ele>428</ele>
        <time>2022-09-11T10:36:07.789Z</time>
      </trkpt>
      <trkpt lat="44.12389" lon="2.24737">
        <ele>428</ele>
        <time>2022-09-11T10:36:08.789Z</time>
      </trkpt>
      <trkpt lat="44.12388" lon="2.24736">
        <ele>428</ele>
        <time>2022-09-11T10:36:09.789Z</time>
      </trkpt>
      <trkpt lat="44.12388" lon="2.24735">
        <ele>428</ele>
        <time>2022-09-11T10:36:10.789Z</time>
      </trkpt>
      <trkpt lat="44.12387" lon="2.24734">
        <ele>428</ele>
        <time>2022-09-11T10:36:11.789Z</time>
      </trkpt>
      <trkpt lat="44.12386" lon="2.24732">
        <ele>428</ele>
        <time>2022-09-11T10:36:12.789Z</time>
      </trkpt>
      <trkpt lat="44.12385" lon="2.24731">
        <ele>428</ele>
        <time>2022-09-11T10:36:13.789Z</time>
      </trkpt>
      <trkpt lat="44.12385" lon="2.2473">
        <ele>428</ele>
        <time>2022-09-11T10:36:14.789Z</time>
      </trkpt>
      <trkpt lat="44.12384" lon="2.24729">
        <ele>428</ele>
        <time>2022-09-11T10:36:15.789Z</time>
      </trkpt>
      <trkpt lat="44.12383" lon="2.24728">
        <ele>428</ele>
        <time>2022-09-11T10:36:16.789Z</time>
      </trkpt>
      <trkpt lat="44.12383" lon="2.24727">
        <ele>428</ele>
        <time>2022-09-11T10:36:17.789Z</time>
      </trkpt>
      <trkpt lat="44.12382" lon="2.24725">
        <ele>428</ele>
        <time>2022-09-11T10:36:18.789Z</time>
      </trkpt>
      <trkpt lat="44.12381" lon="2.24724">
        <ele>428</ele>
        <time>2022-09-11T10:36:19.789Z</time>
      </trkpt>
      <trkpt lat="44.1238" lon="2.24722">
        <ele>428</ele>
        <time>2022-09-11T10:36:20.789Z</time>
      </trkpt>
      <trkpt lat="44.1238" lon="2.24721">
        <ele>428</ele>
        <time>2022-09-11T10:36:21.789Z</time>
      </trkpt>
      <trkpt lat="44.12379" lon="2.2472">
        <ele>428</ele>
        <time>2022-09-11T10:36:22.789Z</time>
      </trkpt>
      <trkpt lat="44.12378" lon="2.24719">
        <ele>428</ele>
        <time>2022-09-11T10:36:23.789Z</time>
      </trkpt>
      <trkpt lat="44.12378" lon="2.24718">
        <ele>428</ele>
        <time>2022-09-11T10:36:24.789Z</time>
      </trkpt>
      <trkpt lat="44.12377" lon="2.24717">
        <ele>428</ele>
        <time>2022-09-11T10:36:25.789Z</time>
      </trkpt>
      <trkpt lat="44.12377" lon="2.24715">
        <ele>428</ele>
        <time>2022-09-11T10:36:26.789Z</time>
      </trkpt>
      <trkpt lat="44.12376" lon="2.24713">
        <ele>428</ele>
        <time>2022-09-11T10:36:27.789Z</time>
      </trkpt>
      <trkpt lat="44.12375" lon="2.24712">
        <ele>428</ele>
        <time>2022-09-11T10:36:28.789Z</time>
      </trkpt>
      <trkpt lat="44.12374" lon="2.24711">
        <ele>428</ele>
        <time>2022-09-11T10:36:29.789Z</time>
      </trkpt>
      <trkpt lat="44.12374" lon="2.2471">
        <ele>428</ele>
        <time>2022-09-11T10:36:30.789Z</time>
      </trkpt>
      <trkpt lat="44.12373" lon="2.24709">
        <ele>428</ele>
        <time>2022-09-11T10:36:31.789Z</time>
      </trkpt>
      <trkpt lat="44.12373" lon="2.24707">
        <ele>427</ele>
        <time>2022-09-11T10:36:32.789Z</time>
      </trkpt>
      <trkpt lat="44.12372" lon="2.24706">
        <ele>427</ele>
        <time>2022-09-11T10:36:33.789Z</time>
      </trkpt>
      <trkpt lat="44.12371" lon="2.24705">
        <ele>427</ele>
        <time>2022-09-11T10:36:34.789Z</time>
      </trkpt>
      <trkpt lat="44.1237" lon="2.24703">
        <ele>427</ele>
        <time>2022-09-11T10:36:35.789Z</time>
      </trkpt>
      <trkpt lat="44.1237" lon="2.24702">
        <ele>427</ele>
        <time>2022-09-11T10:36:36.789Z</time>
      </trkpt>
      <trkpt lat="44.12369" lon="2.247">
        <ele>427</ele>
        <time>2022-09-11T10:36:37.789Z</time>
      </trkpt>
      <trkpt lat="44.12368" lon="2.24699">
        <ele>427</ele>
        <time>2022-09-11T10:36:38.789Z</time>
      </trkpt>
      <trkpt lat="44.12367" lon="2.24697">
        <ele>427</ele>
        <time>2022-09-11T10:36:39.789Z</time>
      </trkpt>
      <trkpt lat="44.12366" lon="2.24696">
        <ele>426</ele>
        <time>2022-09-11T10:36:40.789Z</time>
      </trkpt>
      <trkpt lat="44.12366" lon="2.24694">
        <ele>426</ele>
        <time>2022-09-11T10:36:41.789Z</time>
      </trkpt>
      <trkpt lat="44.12365" lon="2.24693">
        <ele>426</ele>
        <time>2022-09-11T10:36:42.789Z</time>
      </trkpt>
      <trkpt lat="44.12365" lon="2.24691">
        <ele>426</ele>
        <time>2022-09-11T10:36:43.789Z</time>
      </trkpt>
      <trkpt lat="44.12364" lon="2.2469">
        <ele>426</ele>
        <time>2022-09-11T10:36:44.789Z</time>
      </trkpt>
      <trkpt lat="44.12363" lon="2.24688">
        <ele>426</ele>
        <time>2022-09-11T10:36:45.789Z</time>
      </trkpt>
      <trkpt lat="44.12363" lon="2.24686">
        <ele>426</ele>
        <time>2022-09-11T10:36:46.789Z</time>
      </trkpt>
      <trkpt lat="44.12362" lon="2.24685">
        <ele>426</ele>
        <time>2022-09-11T10:36:47.789Z</time>
      </trkpt>
      <trkpt lat="44.12362" lon="2.24683">
        <ele>426</ele>
        <time>2022-09-11T10:36:48.789Z</time>
      </trkpt>
      <trkpt lat="44.12361" lon="2.24682">
        <ele>426</ele>
        <time>2022-09-11T10:36:49.789Z</time>
      </trkpt>
      <trkpt lat="44.1236" lon="2.2468">
        <ele>426</ele>
        <time>2022-09-11T10:36:50.789Z</time>
      </trkpt>
      <trkpt lat="44.1236" lon="2.24679">
        <ele>426</ele>
        <time>2022-09-11T10:36:51.789Z</time>
      </trkpt>
      <trkpt lat="44.12359" lon="2.24677">
        <ele>426</ele>
        <time>2022-09-11T10:36:52.789Z</time>
      </trkpt>
      <trkpt lat="44.12358" lon="2.24676">
        <ele>426</ele>
        <time>2022-09-11T10:36:53.789Z</time>
      </trkpt>
      <trkpt lat="44.12357" lon="2.24674">
        <ele>426</ele>
        <time>2022-09-11T10:36:54.789Z</time>
      </trkpt>
      <trkpt lat="44.12357" lon="2.24673">
        <ele>426</ele>
        <time>2022-09-11T10:36:55.789Z</time>
      </trkpt>
      <trkpt lat="44.12356" lon="2.24671">
        <ele>426</ele>
        <time>2022-09-11T10:36:56.789Z</time>
      </trkpt>
      <trkpt lat="44.12355" lon="2.2467">
        <ele>426</ele>
        <time>2022-09-11T10:36:57.789Z</time>
      </trkpt>
      <trkpt lat="44.12355" lon="2.24669">
        <ele>426</ele>
        <time>2022-09-11T10:36:58.789Z</time>
      </trkpt>
      <trkpt lat="44.12354" lon="2.24667">
        <ele>426</ele>
        <time>2022-09-11T10:36:59.789Z</time>
      </trkpt>
      <trkpt lat="44.12353" lon="2.24666">
        <ele>426</ele>
        <time>2022-09-11T10:37:00.789Z</time>
      </trkpt>
      <trkpt lat="44.12352" lon="2.24664">
        <ele>426</ele>
        <time>2022-09-11T10:37:01.789Z</time>
      </trkpt>
      <trkpt lat="44.12352" lon="2.24663">
        <ele>427</ele>
        <time>2022-09-11T10:37:02.789Z</time>
      </trkpt>
      <trkpt lat="44.12351" lon="2.24661">
        <ele>426</ele>
        <time>2022-09-11T10:37:03.789Z</time>
      </trkpt>
      <trkpt lat="44.1235" lon="2.2466">
        <ele>426</ele>
        <time>2022-09-11T10:37:04.789Z</time>
      </trkpt>
      <trkpt lat="44.1235" lon="2.24659">
        <ele>426</ele>
        <time>2022-09-11T10:37:05.789Z</time>
      </trkpt>
      <trkpt lat="44.12349" lon="2.24657">
        <ele>427</ele>
        <time>2022-09-11T10:37:06.789Z</time>
      </trkpt>
      <trkpt lat="44.12348" lon="2.24656">
        <ele>427</ele>
        <time>2022-09-11T10:37:07.789Z</time>
      </trkpt>
      <trkpt lat="44.12348" lon="2.24655">
        <ele>427</ele>
        <time>2022-09-11T10:37:08.789Z</time>
      </trkpt>
      <trkpt lat="44.12347" lon="2.24654">
        <ele>427</ele>
        <time>2022-09-11T10:37:09.789Z</time>
      </trkpt>
      <trkpt lat="44.12347" lon="2.24652">
        <ele>427</ele>
        <time>2022-09-11T10:37:10.789Z</time>
      </trkpt>
      <trkpt lat="44.12346" lon="2.24651">
        <ele>427</ele>
        <time>2022-09-11T10:37:11.789Z</time>
      </trkpt>
      <trkpt lat="44.12346" lon="2.2465">
        <ele>427</ele>
        <time>2022-09-11T10:37:12.789Z</time>
      </trkpt>
      <trkpt lat="44.12345" lon="2.24648">
        <ele>427</ele>
        <time>2022-09-11T10:37:13.789Z</time>
      </trkpt>
      <trkpt lat="44.12345" lon="2.24647">
        <ele>427</ele>
        <time>2022-09-11T10:37:14.789Z</time>
      </trkpt>
      <trkpt lat="44.12344" lon="2.24646">
        <ele>427</ele>
        <time>2022-09-11T10:37:15.789Z</time>
      </trkpt>
      <trkpt lat="44.12343" lon="2.24644">
        <ele>427</ele>
        <time>2022-09-11T10:37:16.789Z</time>
      </trkpt>
      <trkpt lat="44.12343" lon="2.24643">
        <ele>427</ele>
        <time>2022-09-11T10:37:17.789Z</time>
      </trkpt>
      <trkpt lat="44.12342" lon="2.24642">
        <ele>427</ele>
        <time>2022-09-11T10:37:18.789Z</time>
      </trkpt>
      <trkpt lat="44.12342" lon="2.2464">
        <ele>427</ele>
        <time>2022-09-11T10:37:19.789Z</time>
      </trkpt>
      <trkpt lat="44.12341" lon="2.24639">
        <ele>427</ele>
        <time>2022-09-11T10:37:20.789Z</time>
      </trkpt>
      <trkpt lat="44.1234" lon="2.24638">
        <ele>427</ele>
        <time>2022-09-11T10:37:21.789Z</time>
      </trkpt>
      <trkpt lat="44.1234" lon="2.24636">
        <ele>427</ele>
        <time>2022-09-11T10:37:22.789Z</time>
      </trkpt>
      <trkpt lat="44.12339" lon="2.24635">
        <ele>427</ele>
        <time>2022-09-11T10:37:23.789Z</time>
      </trkpt>
      <trkpt lat="44.12338" lon="2.24634">
        <ele>427</ele>
        <time>2022-09-11T10:37:24.789Z</time>
      </trkpt>
      <trkpt lat="44.12337" lon="2.24633">
        <ele>427</ele>
        <time>2022-09-11T10:37:25.789Z</time>
      </trkpt>
      <trkpt lat="44.12336" lon="2.24631">
        <ele>427</ele>
        <time>2022-09-11T10:37:26.789Z</time>
      </trkpt>
      <trkpt lat="44.12336" lon="2.2463">
        <ele>427</ele>
        <time>2022-09-11T10:37:27.789Z</time>
      </trkpt>
      <trkpt lat="44.12335" lon="2.24629">
        <ele>427</ele>
        <time>2022-09-11T10:37:28.789Z</time>
      </trkpt>
      <trkpt lat="44.12335" lon="2.24628">
        <ele>427</ele>
        <time>2022-09-11T10:37:29.789Z</time>
      </trkpt>
      <trkpt lat="44.12334" lon="2.24627">
        <ele>427</ele>
        <time>2022-09-11T10:37:30.789Z</time>
      </trkpt>
      <trkpt lat="44.12333" lon="2.24626">
        <ele>427</ele>
        <time>2022-09-11T10:37:31.789Z</time>
      </trkpt>
      <trkpt lat="44.12333" lon="2.24625">
        <ele>427</ele>
        <time>2022-09-11T10:37:32.789Z</time>
      </trkpt>
      <trkpt lat="44.12332" lon="2.24624">
        <ele>427</ele>
        <time>2022-09-11T10:37:33.789Z</time>
      </trkpt>
      <trkpt lat="44.12331" lon="2.24623">
        <ele>427</ele>
        <time>2022-09-11T10:37:34.789Z</time>
      </trkpt>
      <trkpt lat="44.12331" lon="2.24622">
        <ele>427</ele>
        <time>2022-09-11T10:37:35.789Z</time>
      </trkpt>
      <trkpt lat="44.1233" lon="2.2462">
        <ele>426</ele>
        <time>2022-09-11T10:37:36.789Z</time>
      </trkpt>
      <trkpt lat="44.1233" lon="2.24619">
        <ele>426</ele>
        <time>2022-09-11T10:37:37.789Z</time>
      </trkpt>
      <trkpt lat="44.12329" lon="2.24617">
        <ele>426</ele>
        <time>2022-09-11T10:37:38.789Z</time>
      </trkpt>
      <trkpt lat="44.12329" lon="2.24616">
        <ele>426</ele>
        <time>2022-09-11T10:37:39.789Z</time>
      </trkpt>
      <trkpt lat="44.12328" lon="2.24614">
        <ele>426</ele>
        <time>2022-09-11T10:37:40.789Z</time>
      </trkpt>
      <trkpt lat="44.12328" lon="2.24613">
        <ele>426</ele>
        <time>2022-09-11T10:37:41.789Z</time>
      </trkpt>
      <trkpt lat="44.12327" lon="2.24611">
        <ele>426</ele>
        <time>2022-09-11T10:37:42.789Z</time>
      </trkpt>
      <trkpt lat="44.12327" lon="2.2461">
        <ele>426</ele>
        <time>2022-09-11T10:37:43.789Z</time>
      </trkpt>
      <trkpt lat="44.12326" lon="2.24608">
        <ele>426</ele>
        <time>2022-09-11T10:37:44.789Z</time>
      </trkpt>
      <trkpt lat="44.12326" lon="2.24607">
        <ele>426</ele>
        <time>2022-09-11T10:37:45.789Z</time>
      </trkpt>
      <trkpt lat="44.12325" lon="2.24606">
        <ele>426</ele>
        <time>2022-09-11T10:37:46.789Z</time>
      </trkpt>
      <trkpt lat="44.12325" lon="2.24604">
        <ele>426</ele>
        <time>2022-09-11T10:37:47.789Z</time>
      </trkpt>
      <trkpt lat="44.12324" lon="2.24603">
        <ele>426</ele>
        <time>2022-09-11T10:37:48.789Z</time>
      </trkpt>
      <trkpt lat="44.12324" lon="2.24601">
        <ele>426</ele>
        <time>2022-09-11T10:37:49.789Z</time>
      </trkpt>
      <trkpt lat="44.12324" lon="2.246">
        <ele>427</ele>
        <time>2022-09-11T10:37:50.789Z</time>
      </trkpt>
      <trkpt lat="44.12323" lon="2.24598">
        <ele>427</ele>
        <time>2022-09-11T10:37:51.789Z</time>
      </trkpt>
      <trkpt lat="44.12323" lon="2.24597">
        <ele>427</ele>
        <time>2022-09-11T10:37:52.789Z</time>
      </trkpt>
      <trkpt lat="44.12322" lon="2.24595">
        <ele>427</ele>
        <time>2022-09-11T10:37:53.789Z</time>
      </trkpt>
      <trkpt lat="44.12322" lon="2.24594">
        <ele>427</ele>
        <time>2022-09-11T10:37:54.789Z</time>
      </trkpt>
      <trkpt lat="44.12322" lon="2.24592">
        <ele>427</ele>
        <time>2022-09-11T10:37:55.789Z</time>
      </trkpt>
      <trkpt lat="44.12322" lon="2.24591">
        <ele>427</ele>
        <time>2022-09-11T10:37:56.789Z</time>
      </trkpt>
      <trkpt lat="44.12321" lon="2.24589">
        <ele>427</ele>
        <time>2022-09-11T10:37:57.789Z</time>
      </trkpt>
      <trkpt lat="44.12321" lon="2.24588">
        <ele>427</ele>
        <time>2022-09-11T10:37:58.789Z</time>
      </trkpt>
      <trkpt lat="44.12321" lon="2.24586">
        <ele>427</ele>
        <time>2022-09-11T10:37:59.789Z</time>
      </trkpt>
      <trkpt lat="44.1232" lon="2.24584">
        <ele>427</ele>
        <time>2022-09-11T10:38:00.789Z</time>
      </trkpt>
      <trkpt lat="44.1232" lon="2.24583">
        <ele>427</ele>
        <time>2022-09-11T10:38:01.789Z</time>
      </trkpt>
      <trkpt lat="44.12319" lon="2.24581">
        <ele>427</ele>
        <time>2022-09-11T10:38:02.789Z</time>
      </trkpt>
      <trkpt lat="44.12319" lon="2.2458">
        <ele>427</ele>
        <time>2022-09-11T10:38:03.789Z</time>
      </trkpt>
      <trkpt lat="44.12318" lon="2.24578">
        <ele>427</ele>
        <time>2022-09-11T10:38:04.789Z</time>
      </trkpt>
      <trkpt lat="44.12318" lon="2.24577">
        <ele>428</ele>
        <time>2022-09-11T10:38:05.789Z</time>
      </trkpt>
      <trkpt lat="44.12318" lon="2.24575">
        <ele>428</ele>
        <time>2022-09-11T10:38:06.789Z</time>
      </trkpt>
      <trkpt lat="44.12317" lon="2.24574">
        <ele>428</ele>
        <time>2022-09-11T10:38:07.789Z</time>
      </trkpt>
      <trkpt lat="44.12317" lon="2.24572">
        <ele>428</ele>
        <time>2022-09-11T10:38:08.789Z</time>
      </trkpt>
      <trkpt lat="44.12316" lon="2.24571">
        <ele>428</ele>
        <time>2022-09-11T10:38:09.789Z</time>
      </trkpt>
      <trkpt lat="44.12316" lon="2.24569">
        <ele>428</ele>
        <time>2022-09-11T10:38:10.789Z</time>
      </trkpt>
      <trkpt lat="44.12316" lon="2.24568">
        <ele>428</ele>
        <time>2022-09-11T10:38:11.789Z</time>
      </trkpt>
      <trkpt lat="44.12316" lon="2.24567">
        <ele>428</ele>
        <time>2022-09-11T10:38:12.789Z</time>
      </trkpt>
      <trkpt lat="44.12316" lon="2.24566">
        <ele>428</ele>
        <time>2022-09-11T10:38:13.789Z</time>
      </trkpt>
      <trkpt lat="44.12316" lon="2.24565">
        <ele>428</ele>
        <time>2022-09-11T10:38:14.789Z</time>
      </trkpt>
      <trkpt lat="44.12316" lon="2.24563">
        <ele>428</ele>
        <time>2022-09-11T10:38:15.789Z</time>
      </trkpt>
      <trkpt lat="44.12316" lon="2.24563">
        <ele>428</ele>
        <time>2022-09-11T10:38:16.789Z</time>
      </trkpt>
      <trkpt lat="44.12316" lon="2.24563">
        <ele>428</ele>
        <time>2022-09-11T10:38:17.789Z</time>
      </trkpt>
      <trkpt lat="44.12316" lon="2.24562">
        <ele>428</ele>
        <time>2022-09-11T10:38:18.789Z</time>
      </trkpt>
      <trkpt lat="44.12316" lon="2.24561">
        <ele>428</ele>
        <time>2022-09-11T10:38:19.789Z</time>
      </trkpt>
      <trkpt lat="44.12316" lon="2.24559">
        <ele>428</ele>
        <time>2022-09-11T10:38:20.789Z</time>
      </trkpt>
      <trkpt lat="44.12316" lon="2.24558">
        <ele>428</ele>
        <time>2022-09-11T10:38:21.789Z</time>
      </trkpt>
      <trkpt lat="44.12316" lon="2.24557">
        <ele>428</ele>
        <time>2022-09-11T10:38:22.789Z</time>
      </trkpt>
      <trkpt lat="44.12316" lon="2.24555">
        <ele>428</ele>
        <time>2022-09-11T10:38:23.789Z</time>
      </trkpt>
      <trkpt lat="44.12316" lon="2.24554">
        <ele>428</ele>
        <time>2022-09-11T10:38:24.789Z</time>
      </trkpt>
      <trkpt lat="44.12316" lon="2.24552">
        <ele>428</ele>
        <time>2022-09-11T10:38:25.789Z</time>
      </trkpt>
      <trkpt lat="44.12316" lon="2.2455">
        <ele>428</ele>
        <time>2022-09-11T10:38:26.789Z</time>
      </trkpt>
      <trkpt lat="44.12316" lon="2.24549">
        <ele>428</ele>
        <time>2022-09-11T10:38:27.789Z</time>
      </trkpt>
      <trkpt lat="44.12315" lon="2.24547">
        <ele>428</ele>
        <time>2022-09-11T10:38:28.789Z</time>
      </trkpt>
      <trkpt lat="44.12315" lon="2.24545">
        <ele>428</ele>
        <time>2022-09-11T10:38:29.789Z</time>
      </trkpt>
      <trkpt lat="44.12315" lon="2.24543">
        <ele>428</ele>
        <time>2022-09-11T10:38:30.789Z</time>
      </trkpt>
      <trkpt lat="44.12315" lon="2.24542">
        <ele>428</ele>
        <time>2022-09-11T10:38:31.789Z</time>
      </trkpt>
      <trkpt lat="44.12314" lon="2.2454">
        <ele>428</ele>
        <time>2022-09-11T10:38:32.789Z</time>
      </trkpt>
      <trkpt lat="44.12314" lon="2.24538">
        <ele>428</ele>
        <time>2022-09-11T10:38:33.789Z</time>
      </trkpt>
      <trkpt lat="44.12314" lon="2.24537">
        <ele>428</ele>
        <time>2022-09-11T10:38:34.789Z</time>
      </trkpt>
      <trkpt lat="44.12314" lon="2.24535">
        <ele>428</ele>
        <time>2022-09-11T10:38:35.789Z</time>
      </trkpt>
      <trkpt lat="44.12313" lon="2.24533">
        <ele>428</ele>
        <time>2022-09-11T10:38:36.789Z</time>
      </trkpt>
      <trkpt lat="44.12313" lon="2.24531">
        <ele>428</ele>
        <time>2022-09-11T10:38:37.789Z</time>
      </trkpt>
      <trkpt lat="44.12313" lon="2.24529">
        <ele>428</ele>
        <time>2022-09-11T10:38:38.789Z</time>
      </trkpt>
      <trkpt lat="44.12313" lon="2.24527">
        <ele>428</ele>
        <time>2022-09-11T10:38:39.789Z</time>
      </trkpt>
      <trkpt lat="44.12313" lon="2.24525">
        <ele>428</ele>
        <time>2022-09-11T10:38:40.789Z</time>
      </trkpt>
      <trkpt lat="44.12312" lon="2.24524">
        <ele>428</ele>
        <time>2022-09-11T10:38:41.789Z</time>
      </trkpt>
      <trkpt lat="44.12312" lon="2.24522">
        <ele>428</ele>
        <time>2022-09-11T10:38:42.789Z</time>
      </trkpt>
      <trkpt lat="44.12312" lon="2.2452">
        <ele>428</ele>
        <time>2022-09-11T10:38:43.789Z</time>
      </trkpt>
      <trkpt lat="44.12312" lon="2.24518">
        <ele>428</ele>
        <time>2022-09-11T10:38:44.789Z</time>
      </trkpt>
      <trkpt lat="44.12312" lon="2.24517">
        <ele>428</ele>
        <time>2022-09-11T10:38:45.789Z</time>
      </trkpt>
      <trkpt lat="44.12311" lon="2.24515">
        <ele>428</ele>
        <time>2022-09-11T10:38:46.789Z</time>
      </trkpt>
      <trkpt lat="44.12311" lon="2.24513">
        <ele>428</ele>
        <time>2022-09-11T10:38:47.789Z</time>
      </trkpt>
      <trkpt lat="44.12311" lon="2.24511">
        <ele>428</ele>
        <time>2022-09-11T10:38:48.789Z</time>
      </trkpt>
      <trkpt lat="44.12311" lon="2.24509">
        <ele>428</ele>
        <time>2022-09-11T10:38:49.789Z</time>
      </trkpt>
      <trkpt lat="44.12311" lon="2.24507">
        <ele>428</ele>
        <time>2022-09-11T10:38:50.789Z</time>
      </trkpt>
      <trkpt lat="44.12311" lon="2.24505">
        <ele>428</ele>
        <time>2022-09-11T10:38:51.789Z</time>
      </trkpt>
      <trkpt lat="44.12311" lon="2.24503">
        <ele>428</ele>
        <time>2022-09-11T10:38:52.789Z</time>
      </trkpt>
      <trkpt lat="44.12311" lon="2.24501">
        <ele>428</ele>
        <time>2022-09-11T10:38:53.789Z</time>
      </trkpt>
      <trkpt lat="44.12311" lon="2.245">
        <ele>428</ele>
        <time>2022-09-11T10:38:54.789Z</time>
      </trkpt>
      <trkpt lat="44.12311" lon="2.24498">
        <ele>428</ele>
        <time>2022-09-11T10:38:55.789Z</time>
      </trkpt>
      <trkpt lat="44.1231" lon="2.24496">
        <ele>428</ele>
        <time>2022-09-11T10:38:56.789Z</time>
      </trkpt>
      <trkpt lat="44.1231" lon="2.24494">
        <ele>428</ele>
        <time>2022-09-11T10:38:57.789Z</time>
      </trkpt>
      <trkpt lat="44.1231" lon="2.24492">
        <ele>428</ele>
        <time>2022-09-11T10:38:58.789Z</time>
      </trkpt>
      <trkpt lat="44.1231" lon="2.24491">
        <ele>428</ele>
        <time>2022-09-11T10:38:59.789Z</time>
      </trkpt>
      <trkpt lat="44.1231" lon="2.24489">
        <ele>428</ele>
        <time>2022-09-11T10:39:00.789Z</time>
      </trkpt>
      <trkpt lat="44.1231" lon="2.24487">
        <ele>428</ele>
        <time>2022-09-11T10:39:01.789Z</time>
      </trkpt>
      <trkpt lat="44.1231" lon="2.24485">
        <ele>428</ele>
        <time>2022-09-11T10:39:02.789Z</time>
      </trkpt>
      <trkpt lat="44.1231" lon="2.24483">
        <ele>428</ele>
        <time>2022-09-11T10:39:03.789Z</time>
      </trkpt>
      <trkpt lat="44.1231" lon="2.24482">
        <ele>428</ele>
        <time>2022-09-11T10:39:04.789Z</time>
      </trkpt>
      <trkpt lat="44.12309" lon="2.2448">
        <ele>428</ele>
        <time>2022-09-11T10:39:05.789Z</time>
      </trkpt>
      <trkpt lat="44.12309" lon="2.24478">
        <ele>428</ele>
        <time>2022-09-11T10:39:06.789Z</time>
      </trkpt>
      <trkpt lat="44.12308" lon="2.24476">
        <ele>428</ele>
        <time>2022-09-11T10:39:07.789Z</time>
      </trkpt>
      <trkpt lat="44.12308" lon="2.24474">
        <ele>428</ele>
        <time>2022-09-11T10:39:08.789Z</time>
      </trkpt>
      <trkpt lat="44.12307" lon="2.24473">
        <ele>428</ele>
        <time>2022-09-11T10:39:09.789Z</time>
      </trkpt>
      <trkpt lat="44.12307" lon="2.24471">
        <ele>428</ele>
        <time>2022-09-11T10:39:10.789Z</time>
      </trkpt>
      <trkpt lat="44.12307" lon="2.24469">
        <ele>428</ele>
        <time>2022-09-11T10:39:11.789Z</time>
      </trkpt>
      <trkpt lat="44.12307" lon="2.24467">
        <ele>428</ele>
        <time>2022-09-11T10:39:12.789Z</time>
      </trkpt>
      <trkpt lat="44.12306" lon="2.24465">
        <ele>428</ele>
        <time>2022-09-11T10:39:13.789Z</time>
      </trkpt>
      <trkpt lat="44.12306" lon="2.24464">
        <ele>428</ele>
        <time>2022-09-11T10:39:14.789Z</time>
      </trkpt>
      <trkpt lat="44.12306" lon="2.24462">
        <ele>428</ele>
        <time>2022-09-11T10:39:15.789Z</time>
      </trkpt>
      <trkpt lat="44.12306" lon="2.24461">
        <ele>428</ele>
        <time>2022-09-11T10:39:16.789Z</time>
      </trkpt>
      <trkpt lat="44.12305" lon="2.24459">
        <ele>428</ele>
        <time>2022-09-11T10:39:17.789Z</time>
      </trkpt>
      <trkpt lat="44.12305" lon="2.24458">
        <ele>428</ele>
        <time>2022-09-11T10:39:18.789Z</time>
      </trkpt>
      <trkpt lat="44.12305" lon="2.24456">
        <ele>428</ele>
        <time>2022-09-11T10:39:19.789Z</time>
      </trkpt>
      <trkpt lat="44.12304" lon="2.24454">
        <ele>428</ele>
        <time>2022-09-11T10:39:20.789Z</time>
      </trkpt>
      <trkpt lat="44.12304" lon="2.24453">
        <ele>428</ele>
        <time>2022-09-11T10:39:21.789Z</time>
      </trkpt>
      <trkpt lat="44.12304" lon="2.24451">
        <ele>428</ele>
        <time>2022-09-11T10:39:22.789Z</time>
      </trkpt>
      <trkpt lat="44.12304" lon="2.2445">
        <ele>428</ele>
        <time>2022-09-11T10:39:23.789Z</time>
      </trkpt>
      <trkpt lat="44.12303" lon="2.24449">
        <ele>428</ele>
        <time>2022-09-11T10:39:24.789Z</time>
      </trkpt>
      <trkpt lat="44.12303" lon="2.24448">
        <ele>428</ele>
        <time>2022-09-11T10:39:25.789Z</time>
      </trkpt>
      <trkpt lat="44.12302" lon="2.24447">
        <ele>428</ele>
        <time>2022-09-11T10:39:26.789Z</time>
      </trkpt>
      <trkpt lat="44.12301" lon="2.24446">
        <ele>428</ele>
        <time>2022-09-11T10:39:27.789Z</time>
      </trkpt>
      <trkpt lat="44.123" lon="2.24445">
        <ele>428</ele>
        <time>2022-09-11T10:39:28.789Z</time>
      </trkpt>
      <trkpt lat="44.12299" lon="2.24445">
        <ele>428</ele>
        <time>2022-09-11T10:39:29.789Z</time>
      </trkpt>
      <trkpt lat="44.12298" lon="2.24444">
        <ele>427</ele>
        <time>2022-09-11T10:39:30.789Z</time>
      </trkpt>
      <trkpt lat="44.12297" lon="2.24444">
        <ele>427</ele>
        <time>2022-09-11T10:39:31.789Z</time>
      </trkpt>
      <trkpt lat="44.12295" lon="2.24444">
        <ele>427</ele>
        <time>2022-09-11T10:39:32.789Z</time>
      </trkpt>
      <trkpt lat="44.12294" lon="2.24443">
        <ele>427</ele>
        <time>2022-09-11T10:39:33.789Z</time>
      </trkpt>
      <trkpt lat="44.12293" lon="2.24442">
        <ele>427</ele>
        <time>2022-09-11T10:39:34.789Z</time>
      </trkpt>
      <trkpt lat="44.12292" lon="2.24441">
        <ele>427</ele>
        <time>2022-09-11T10:39:35.789Z</time>
      </trkpt>
      <trkpt lat="44.12291" lon="2.2444">
        <ele>427</ele>
        <time>2022-09-11T10:39:36.789Z</time>
      </trkpt>
      <trkpt lat="44.1229" lon="2.24439">
        <ele>427</ele>
        <time>2022-09-11T10:39:37.789Z</time>
      </trkpt>
      <trkpt lat="44.12289" lon="2.24438">
        <ele>427</ele>
        <time>2022-09-11T10:39:38.789Z</time>
      </trkpt>
      <trkpt lat="44.12288" lon="2.24438">
        <ele>427</ele>
        <time>2022-09-11T10:39:39.789Z</time>
      </trkpt>
      <trkpt lat="44.12287" lon="2.24437">
        <ele>427</ele>
        <time>2022-09-11T10:39:40.789Z</time>
      </trkpt>
      <trkpt lat="44.12286" lon="2.24437">
        <ele>427</ele>
        <time>2022-09-11T10:39:41.789Z</time>
      </trkpt>
      <trkpt lat="44.12285" lon="2.24436">
        <ele>427</ele>
        <time>2022-09-11T10:39:42.789Z</time>
      </trkpt>
      <trkpt lat="44.12283" lon="2.24436">
        <ele>427</ele>
        <time>2022-09-11T10:39:43.789Z</time>
      </trkpt>
      <trkpt lat="44.12282" lon="2.24436">
        <ele>428</ele>
        <time>2022-09-11T10:39:44.789Z</time>
      </trkpt>
      <trkpt lat="44.12281" lon="2.24436">
        <ele>428</ele>
        <time>2022-09-11T10:39:45.789Z</time>
      </trkpt>
      <trkpt lat="44.1228" lon="2.24436">
        <ele>428</ele>
        <time>2022-09-11T10:39:46.789Z</time>
      </trkpt>
      <trkpt lat="44.1228" lon="2.24436">
        <ele>428</ele>
        <time>2022-09-11T10:39:47.789Z</time>
      </trkpt>
      <trkpt lat="44.1228" lon="2.24436">
        <ele>428</ele>
        <time>2022-09-11T10:39:48.789Z</time>
      </trkpt>
      <trkpt lat="44.1228" lon="2.24436">
        <ele>428</ele>
        <time>2022-09-11T10:39:49.789Z</time>
      </trkpt>
      <trkpt lat="44.1228" lon="2.24436">
        <ele>428</ele>
        <time>2022-09-11T10:39:50.789Z</time>
      </trkpt>
    </trkseg>
  </trk>
</gpx>